<?xml version="1.0" encoding="UTF-8" standalone="no" ?>
<gpx xmlns="http://www.topografix.com/GPX/1/1" xmlns:xsi="http://www.w3.org/2001/XMLSchema-instance" xsi:schemaLocation="http://www.topografix.com/GPX/1/1 http://www.topografix.com/GPX/1/1/gpx.xsd" version="1.1" creator="VisuGPX - https://www.visugpx.com">
  <metadata>
    <name>2017-03-17 Bike ride-Georges de Reneins O</name>
    <desc><![CDATA[2017-03-17 Bike ride-Georges de Reneins O]]></desc>
  </metadata>
  <wpt lat="45.9247" lon="4.73699">
    <ele>174</ele>
    <name><![CDATA[2017-03-17 10:10 (Start)]]></name>
  </wpt>
  <wpt lat="45.92459" lon="4.73709">
    <ele>174</ele>
    <name><![CDATA[2017-03-17 10:10 (End)]]></name>
    <desc><![CDATA[Created by Google My Tracks on Android  Name: 2017-03-17 10:10 Activity type: biking Description: - Total distance: 49.78 km (30.9 mi) Total time: 2:34:07 Moving time: 2:23:49 Average speed: 19.38 km/h (12.0 mi/h) Average moving speed: 20.77 km/h (12.9 mi/h) Max speed: 46.15 km/h (28.7 mi/h) Average pace: 3:06 min/km (4:59 min/mi) Average moving pace: 2:53 min/km (4:39 min/mi) Fastest pace: 1:18 min/km (2:06 min/mi) Max elevation: 245 m (804 ft) Min elevation: 144 m (472 ft) Elevation gain: 683 m (2242 ft) Max grade: 19 % Min grade: -12 % Recorded: 17/03/2017 10:10]]></desc>
  </wpt>
  <trk>
    <name><![CDATA[2017-03-17 10:10]]></name>
    <trkseg>
      <trkpt lat="45.9247" lon="4.73699">
        <ele>174</ele>
        <time>2017-03-17T09:10:14.149Z</time>
      </trkpt>
      <trkpt lat="45.92467" lon="4.73699">
        <ele>174</ele>
        <time>2017-03-17T09:10:28Z</time>
      </trkpt>
      <trkpt lat="45.9247" lon="4.73697">
        <ele>174</ele>
        <time>2017-03-17T09:10:50Z</time>
      </trkpt>
      <trkpt lat="45.92474" lon="4.7371">
        <ele>174</ele>
        <time>2017-03-17T09:10:51Z</time>
      </trkpt>
      <trkpt lat="45.92471" lon="4.73711">
        <ele>174</ele>
        <time>2017-03-17T09:11:21Z</time>
      </trkpt>
      <trkpt lat="45.92462" lon="4.73707">
        <ele>174</ele>
        <time>2017-03-17T09:11:22Z</time>
      </trkpt>
      <trkpt lat="45.92469" lon="4.73698">
        <ele>174</ele>
        <time>2017-03-17T09:11:42Z</time>
      </trkpt>
      <trkpt lat="45.92469" lon="4.73696">
        <ele>174</ele>
        <time>2017-03-17T09:11:43Z</time>
      </trkpt>
      <trkpt lat="45.9247" lon="4.73685">
        <ele>174</ele>
        <time>2017-03-17T09:11:47Z</time>
      </trkpt>
      <trkpt lat="45.9247" lon="4.73683">
        <ele>174</ele>
        <time>2017-03-17T09:11:48Z</time>
      </trkpt>
      <trkpt lat="45.92471" lon="4.7367">
        <ele>174</ele>
        <time>2017-03-17T09:11:53Z</time>
      </trkpt>
      <trkpt lat="45.92471" lon="4.73667">
        <ele>174</ele>
        <time>2017-03-17T09:11:54Z</time>
      </trkpt>
      <trkpt lat="45.92471" lon="4.73656">
        <ele>174</ele>
        <time>2017-03-17T09:11:57Z</time>
      </trkpt>
      <trkpt lat="45.92472" lon="4.73652">
        <ele>174</ele>
        <time>2017-03-17T09:11:58Z</time>
      </trkpt>
      <trkpt lat="45.92475" lon="4.73645">
        <ele>174</ele>
        <time>2017-03-17T09:12:00Z</time>
      </trkpt>
      <trkpt lat="45.92478" lon="4.73642">
        <ele>174</ele>
        <time>2017-03-17T09:12:01Z</time>
      </trkpt>
      <trkpt lat="45.92485" lon="4.73639">
        <ele>174</ele>
        <time>2017-03-17T09:12:03Z</time>
      </trkpt>
      <trkpt lat="45.92489" lon="4.73639">
        <ele>174</ele>
        <time>2017-03-17T09:12:04Z</time>
      </trkpt>
      <trkpt lat="45.92497" lon="4.7364">
        <ele>174</ele>
        <time>2017-03-17T09:12:06Z</time>
      </trkpt>
      <trkpt lat="45.92501" lon="4.7364">
        <ele>174</ele>
        <time>2017-03-17T09:12:07Z</time>
      </trkpt>
      <trkpt lat="45.9251" lon="4.7364">
        <ele>174</ele>
        <time>2017-03-17T09:12:09Z</time>
      </trkpt>
      <trkpt lat="45.92515" lon="4.7364">
        <ele>174</ele>
        <time>2017-03-17T09:12:10Z</time>
      </trkpt>
      <trkpt lat="45.9252" lon="4.7364">
        <ele>173</ele>
        <time>2017-03-17T09:12:11Z</time>
      </trkpt>
      <trkpt lat="45.92525" lon="4.73639">
        <ele>173</ele>
        <time>2017-03-17T09:12:12Z</time>
      </trkpt>
      <trkpt lat="45.9253" lon="4.73638">
        <ele>173</ele>
        <time>2017-03-17T09:12:13Z</time>
      </trkpt>
      <trkpt lat="45.92535" lon="4.73637">
        <ele>173</ele>
        <time>2017-03-17T09:12:14Z</time>
      </trkpt>
      <trkpt lat="45.9254" lon="4.73636">
        <ele>173</ele>
        <time>2017-03-17T09:12:15Z</time>
      </trkpt>
      <trkpt lat="45.92544" lon="4.73635">
        <ele>173</ele>
        <time>2017-03-17T09:12:16Z</time>
      </trkpt>
      <trkpt lat="45.92553" lon="4.73634">
        <ele>173</ele>
        <time>2017-03-17T09:12:18Z</time>
      </trkpt>
      <trkpt lat="45.92557" lon="4.73633">
        <ele>173</ele>
        <time>2017-03-17T09:12:19Z</time>
      </trkpt>
      <trkpt lat="45.92566" lon="4.73631">
        <ele>173</ele>
        <time>2017-03-17T09:12:21Z</time>
      </trkpt>
      <trkpt lat="45.9257" lon="4.7363">
        <ele>173</ele>
        <time>2017-03-17T09:12:22Z</time>
      </trkpt>
      <trkpt lat="45.92579" lon="4.73627">
        <ele>173</ele>
        <time>2017-03-17T09:12:24Z</time>
      </trkpt>
      <trkpt lat="45.92583" lon="4.73626">
        <ele>173</ele>
        <time>2017-03-17T09:12:25Z</time>
      </trkpt>
      <trkpt lat="45.92588" lon="4.73625">
        <ele>172</ele>
        <time>2017-03-17T09:12:26Z</time>
      </trkpt>
      <trkpt lat="45.92593" lon="4.73624">
        <ele>173</ele>
        <time>2017-03-17T09:12:27Z</time>
      </trkpt>
      <trkpt lat="45.92597" lon="4.73624">
        <ele>173</ele>
        <time>2017-03-17T09:12:28Z</time>
      </trkpt>
      <trkpt lat="45.92602" lon="4.73624">
        <ele>173</ele>
        <time>2017-03-17T09:12:29Z</time>
      </trkpt>
      <trkpt lat="45.92607" lon="4.73625">
        <ele>173</ele>
        <time>2017-03-17T09:12:30Z</time>
      </trkpt>
      <trkpt lat="45.92612" lon="4.73627">
        <ele>173</ele>
        <time>2017-03-17T09:12:31Z</time>
      </trkpt>
      <trkpt lat="45.92617" lon="4.7363">
        <ele>173</ele>
        <time>2017-03-17T09:12:32Z</time>
      </trkpt>
      <trkpt lat="45.92621" lon="4.73635">
        <ele>173</ele>
        <time>2017-03-17T09:12:33Z</time>
      </trkpt>
      <trkpt lat="45.92624" lon="4.73641">
        <ele>173</ele>
        <time>2017-03-17T09:12:34Z</time>
      </trkpt>
      <trkpt lat="45.92626" lon="4.73647">
        <ele>173</ele>
        <time>2017-03-17T09:12:35Z</time>
      </trkpt>
      <trkpt lat="45.92629" lon="4.73655">
        <ele>173</ele>
        <time>2017-03-17T09:12:36Z</time>
      </trkpt>
      <trkpt lat="45.92632" lon="4.73661">
        <ele>173</ele>
        <time>2017-03-17T09:12:37Z</time>
      </trkpt>
      <trkpt lat="45.92635" lon="4.73667">
        <ele>173</ele>
        <time>2017-03-17T09:12:38Z</time>
      </trkpt>
      <trkpt lat="45.92639" lon="4.73673">
        <ele>173</ele>
        <time>2017-03-17T09:12:39Z</time>
      </trkpt>
      <trkpt lat="45.92642" lon="4.73678">
        <ele>173</ele>
        <time>2017-03-17T09:12:40Z</time>
      </trkpt>
      <trkpt lat="45.92646" lon="4.73684">
        <ele>173</ele>
        <time>2017-03-17T09:12:41Z</time>
      </trkpt>
      <trkpt lat="45.92651" lon="4.73689">
        <ele>173</ele>
        <time>2017-03-17T09:12:42Z</time>
      </trkpt>
      <trkpt lat="45.92656" lon="4.73693">
        <ele>173</ele>
        <time>2017-03-17T09:12:43Z</time>
      </trkpt>
      <trkpt lat="45.92661" lon="4.73697">
        <ele>173</ele>
        <time>2017-03-17T09:12:44Z</time>
      </trkpt>
      <trkpt lat="45.92666" lon="4.737">
        <ele>173</ele>
        <time>2017-03-17T09:12:45Z</time>
      </trkpt>
      <trkpt lat="45.92671" lon="4.73703">
        <ele>174</ele>
        <time>2017-03-17T09:12:46Z</time>
      </trkpt>
      <trkpt lat="45.92677" lon="4.73706">
        <ele>173</ele>
        <time>2017-03-17T09:12:47Z</time>
      </trkpt>
      <trkpt lat="45.92683" lon="4.73708">
        <ele>173</ele>
        <time>2017-03-17T09:12:48Z</time>
      </trkpt>
      <trkpt lat="45.92688" lon="4.7371">
        <ele>173</ele>
        <time>2017-03-17T09:12:49Z</time>
      </trkpt>
      <trkpt lat="45.92694" lon="4.73711">
        <ele>173</ele>
        <time>2017-03-17T09:12:50Z</time>
      </trkpt>
      <trkpt lat="45.927" lon="4.73713">
        <ele>173</ele>
        <time>2017-03-17T09:12:51Z</time>
      </trkpt>
      <trkpt lat="45.92705" lon="4.73714">
        <ele>173</ele>
        <time>2017-03-17T09:12:52Z</time>
      </trkpt>
      <trkpt lat="45.92711" lon="4.73715">
        <ele>173</ele>
        <time>2017-03-17T09:12:53Z</time>
      </trkpt>
      <trkpt lat="45.92717" lon="4.73717">
        <ele>173</ele>
        <time>2017-03-17T09:12:54Z</time>
      </trkpt>
      <trkpt lat="45.92723" lon="4.73718">
        <ele>173</ele>
        <time>2017-03-17T09:12:55Z</time>
      </trkpt>
      <trkpt lat="45.92728" lon="4.73719">
        <ele>173</ele>
        <time>2017-03-17T09:12:56Z</time>
      </trkpt>
      <trkpt lat="45.92733" lon="4.7372">
        <ele>173</ele>
        <time>2017-03-17T09:12:57Z</time>
      </trkpt>
      <trkpt lat="45.92737" lon="4.73721">
        <ele>173</ele>
        <time>2017-03-17T09:12:58Z</time>
      </trkpt>
      <trkpt lat="45.92742" lon="4.73722">
        <ele>173</ele>
        <time>2017-03-17T09:12:59Z</time>
      </trkpt>
      <trkpt lat="45.92747" lon="4.73723">
        <ele>173</ele>
        <time>2017-03-17T09:13:00Z</time>
      </trkpt>
      <trkpt lat="45.92751" lon="4.73723">
        <ele>172</ele>
        <time>2017-03-17T09:13:01Z</time>
      </trkpt>
      <trkpt lat="45.9276" lon="4.73725">
        <ele>172</ele>
        <time>2017-03-17T09:13:03Z</time>
      </trkpt>
      <trkpt lat="45.92763" lon="4.73727">
        <ele>172</ele>
        <time>2017-03-17T09:13:04Z</time>
      </trkpt>
      <trkpt lat="45.9277" lon="4.7373">
        <ele>172</ele>
        <time>2017-03-17T09:13:06Z</time>
      </trkpt>
      <trkpt lat="45.92774" lon="4.73731">
        <ele>172</ele>
        <time>2017-03-17T09:13:07Z</time>
      </trkpt>
      <trkpt lat="45.92779" lon="4.73726">
        <ele>172</ele>
        <time>2017-03-17T09:13:09Z</time>
      </trkpt>
      <trkpt lat="45.92781" lon="4.73721">
        <ele>172</ele>
        <time>2017-03-17T09:13:10Z</time>
      </trkpt>
      <trkpt lat="45.92784" lon="4.73715">
        <ele>172</ele>
        <time>2017-03-17T09:13:11Z</time>
      </trkpt>
      <trkpt lat="45.92785" lon="4.73708">
        <ele>172</ele>
        <time>2017-03-17T09:13:12Z</time>
      </trkpt>
      <trkpt lat="45.92787" lon="4.73701">
        <ele>172</ele>
        <time>2017-03-17T09:13:13Z</time>
      </trkpt>
      <trkpt lat="45.92789" lon="4.73694">
        <ele>172</ele>
        <time>2017-03-17T09:13:14Z</time>
      </trkpt>
      <trkpt lat="45.92792" lon="4.73687">
        <ele>172</ele>
        <time>2017-03-17T09:13:15Z</time>
      </trkpt>
      <trkpt lat="45.92795" lon="4.7368">
        <ele>172</ele>
        <time>2017-03-17T09:13:16Z</time>
      </trkpt>
      <trkpt lat="45.92796" lon="4.73672">
        <ele>172</ele>
        <time>2017-03-17T09:13:17Z</time>
      </trkpt>
      <trkpt lat="45.92798" lon="4.73665">
        <ele>172</ele>
        <time>2017-03-17T09:13:18Z</time>
      </trkpt>
      <trkpt lat="45.92799" lon="4.73658">
        <ele>172</ele>
        <time>2017-03-17T09:13:19Z</time>
      </trkpt>
      <trkpt lat="45.92801" lon="4.73651">
        <ele>172</ele>
        <time>2017-03-17T09:13:20Z</time>
      </trkpt>
      <trkpt lat="45.92803" lon="4.73644">
        <ele>172</ele>
        <time>2017-03-17T09:13:21Z</time>
      </trkpt>
      <trkpt lat="45.92805" lon="4.73638">
        <ele>172</ele>
        <time>2017-03-17T09:13:22Z</time>
      </trkpt>
      <trkpt lat="45.92812" lon="4.73631">
        <ele>172</ele>
        <time>2017-03-17T09:13:26Z</time>
      </trkpt>
      <trkpt lat="45.92813" lon="4.73631">
        <ele>172</ele>
        <time>2017-03-17T09:13:27Z</time>
      </trkpt>
      <trkpt lat="45.92818" lon="4.73623">
        <ele>172</ele>
        <time>2017-03-17T09:13:48Z</time>
      </trkpt>
      <trkpt lat="45.92818" lon="4.7362">
        <ele>172</ele>
        <time>2017-03-17T09:13:49Z</time>
      </trkpt>
      <trkpt lat="45.92818" lon="4.73608">
        <ele>172</ele>
        <time>2017-03-17T09:13:52Z</time>
      </trkpt>
      <trkpt lat="45.92817" lon="4.73605">
        <ele>172</ele>
        <time>2017-03-17T09:13:53Z</time>
      </trkpt>
      <trkpt lat="45.92818" lon="4.73593">
        <ele>171</ele>
        <time>2017-03-17T09:13:56Z</time>
      </trkpt>
      <trkpt lat="45.92819" lon="4.73588">
        <ele>171</ele>
        <time>2017-03-17T09:13:57Z</time>
      </trkpt>
      <trkpt lat="45.92819" lon="4.73576">
        <ele>171</ele>
        <time>2017-03-17T09:13:59Z</time>
      </trkpt>
      <trkpt lat="45.92819" lon="4.7357">
        <ele>171</ele>
        <time>2017-03-17T09:14:00Z</time>
      </trkpt>
      <trkpt lat="45.9282" lon="4.73558">
        <ele>171</ele>
        <time>2017-03-17T09:14:02Z</time>
      </trkpt>
      <trkpt lat="45.92821" lon="4.73551">
        <ele>171</ele>
        <time>2017-03-17T09:14:03Z</time>
      </trkpt>
      <trkpt lat="45.92821" lon="4.73544">
        <ele>171</ele>
        <time>2017-03-17T09:14:04Z</time>
      </trkpt>
      <trkpt lat="45.92823" lon="4.73536">
        <ele>172</ele>
        <time>2017-03-17T09:14:05Z</time>
      </trkpt>
      <trkpt lat="45.92823" lon="4.73529">
        <ele>172</ele>
        <time>2017-03-17T09:14:06Z</time>
      </trkpt>
      <trkpt lat="45.92824" lon="4.73522">
        <ele>172</ele>
        <time>2017-03-17T09:14:07Z</time>
      </trkpt>
      <trkpt lat="45.92825" lon="4.73515">
        <ele>172</ele>
        <time>2017-03-17T09:14:08Z</time>
      </trkpt>
      <trkpt lat="45.92826" lon="4.73507">
        <ele>172</ele>
        <time>2017-03-17T09:14:09Z</time>
      </trkpt>
      <trkpt lat="45.92827" lon="4.73499">
        <ele>172</ele>
        <time>2017-03-17T09:14:10Z</time>
      </trkpt>
      <trkpt lat="45.92828" lon="4.73491">
        <ele>172</ele>
        <time>2017-03-17T09:14:11Z</time>
      </trkpt>
      <trkpt lat="45.92829" lon="4.73483">
        <ele>172</ele>
        <time>2017-03-17T09:14:12Z</time>
      </trkpt>
      <trkpt lat="45.9283" lon="4.73475">
        <ele>172</ele>
        <time>2017-03-17T09:14:13Z</time>
      </trkpt>
      <trkpt lat="45.92831" lon="4.73467">
        <ele>172</ele>
        <time>2017-03-17T09:14:14Z</time>
      </trkpt>
      <trkpt lat="45.92832" lon="4.73458">
        <ele>172</ele>
        <time>2017-03-17T09:14:15Z</time>
      </trkpt>
      <trkpt lat="45.92833" lon="4.73451">
        <ele>172</ele>
        <time>2017-03-17T09:14:16Z</time>
      </trkpt>
      <trkpt lat="45.92834" lon="4.73442">
        <ele>172</ele>
        <time>2017-03-17T09:14:17Z</time>
      </trkpt>
      <trkpt lat="45.92835" lon="4.73434">
        <ele>172</ele>
        <time>2017-03-17T09:14:18Z</time>
      </trkpt>
      <trkpt lat="45.92836" lon="4.73426">
        <ele>172</ele>
        <time>2017-03-17T09:14:19Z</time>
      </trkpt>
      <trkpt lat="45.92837" lon="4.73418">
        <ele>172</ele>
        <time>2017-03-17T09:14:20Z</time>
      </trkpt>
      <trkpt lat="45.92838" lon="4.7341">
        <ele>172</ele>
        <time>2017-03-17T09:14:21Z</time>
      </trkpt>
      <trkpt lat="45.92839" lon="4.73402">
        <ele>172</ele>
        <time>2017-03-17T09:14:22Z</time>
      </trkpt>
      <trkpt lat="45.9284" lon="4.73393">
        <ele>172</ele>
        <time>2017-03-17T09:14:23Z</time>
      </trkpt>
      <trkpt lat="45.9284" lon="4.73384">
        <ele>172</ele>
        <time>2017-03-17T09:14:24Z</time>
      </trkpt>
      <trkpt lat="45.92842" lon="4.73376">
        <ele>172</ele>
        <time>2017-03-17T09:14:25Z</time>
      </trkpt>
      <trkpt lat="45.92843" lon="4.73367">
        <ele>171</ele>
        <time>2017-03-17T09:14:26Z</time>
      </trkpt>
      <trkpt lat="45.92843" lon="4.73359">
        <ele>171</ele>
        <time>2017-03-17T09:14:27Z</time>
      </trkpt>
      <trkpt lat="45.92844" lon="4.7335">
        <ele>171</ele>
        <time>2017-03-17T09:14:28Z</time>
      </trkpt>
      <trkpt lat="45.92845" lon="4.73342">
        <ele>171</ele>
        <time>2017-03-17T09:14:29Z</time>
      </trkpt>
      <trkpt lat="45.92846" lon="4.73334">
        <ele>171</ele>
        <time>2017-03-17T09:14:30Z</time>
      </trkpt>
      <trkpt lat="45.92847" lon="4.73325">
        <ele>171</ele>
        <time>2017-03-17T09:14:31Z</time>
      </trkpt>
      <trkpt lat="45.92849" lon="4.73317">
        <ele>171</ele>
        <time>2017-03-17T09:14:32Z</time>
      </trkpt>
      <trkpt lat="45.9285" lon="4.73309">
        <ele>171</ele>
        <time>2017-03-17T09:14:33Z</time>
      </trkpt>
      <trkpt lat="45.92851" lon="4.733">
        <ele>171</ele>
        <time>2017-03-17T09:14:34Z</time>
      </trkpt>
      <trkpt lat="45.92851" lon="4.73291">
        <ele>171</ele>
        <time>2017-03-17T09:14:35Z</time>
      </trkpt>
      <trkpt lat="45.92852" lon="4.73283">
        <ele>171</ele>
        <time>2017-03-17T09:14:36Z</time>
      </trkpt>
      <trkpt lat="45.92853" lon="4.73274">
        <ele>171</ele>
        <time>2017-03-17T09:14:37Z</time>
      </trkpt>
      <trkpt lat="45.92854" lon="4.73266">
        <ele>171</ele>
        <time>2017-03-17T09:14:38Z</time>
      </trkpt>
      <trkpt lat="45.92856" lon="4.73257">
        <ele>171</ele>
        <time>2017-03-17T09:14:39Z</time>
      </trkpt>
      <trkpt lat="45.92857" lon="4.73249">
        <ele>171</ele>
        <time>2017-03-17T09:14:40Z</time>
      </trkpt>
      <trkpt lat="45.92858" lon="4.7324">
        <ele>171</ele>
        <time>2017-03-17T09:14:41Z</time>
      </trkpt>
      <trkpt lat="45.92859" lon="4.73231">
        <ele>171</ele>
        <time>2017-03-17T09:14:42Z</time>
      </trkpt>
      <trkpt lat="45.9286" lon="4.73223">
        <ele>171</ele>
        <time>2017-03-17T09:14:43Z</time>
      </trkpt>
      <trkpt lat="45.92862" lon="4.73214">
        <ele>171</ele>
        <time>2017-03-17T09:14:44Z</time>
      </trkpt>
      <trkpt lat="45.92863" lon="4.73205">
        <ele>171</ele>
        <time>2017-03-17T09:14:45Z</time>
      </trkpt>
      <trkpt lat="45.92863" lon="4.73197">
        <ele>171</ele>
        <time>2017-03-17T09:14:46Z</time>
      </trkpt>
      <trkpt lat="45.92865" lon="4.73188">
        <ele>171</ele>
        <time>2017-03-17T09:14:47Z</time>
      </trkpt>
      <trkpt lat="45.92866" lon="4.73178">
        <ele>171</ele>
        <time>2017-03-17T09:14:48Z</time>
      </trkpt>
      <trkpt lat="45.92867" lon="4.73169">
        <ele>171</ele>
        <time>2017-03-17T09:14:49Z</time>
      </trkpt>
      <trkpt lat="45.92868" lon="4.7316">
        <ele>171</ele>
        <time>2017-03-17T09:14:50Z</time>
      </trkpt>
      <trkpt lat="45.92869" lon="4.73151">
        <ele>171</ele>
        <time>2017-03-17T09:14:51Z</time>
      </trkpt>
      <trkpt lat="45.9287" lon="4.73142">
        <ele>171</ele>
        <time>2017-03-17T09:14:52Z</time>
      </trkpt>
      <trkpt lat="45.92871" lon="4.73133">
        <ele>171</ele>
        <time>2017-03-17T09:14:53Z</time>
      </trkpt>
      <trkpt lat="45.92873" lon="4.73124">
        <ele>171</ele>
        <time>2017-03-17T09:14:54Z</time>
      </trkpt>
      <trkpt lat="45.92875" lon="4.73115">
        <ele>172</ele>
        <time>2017-03-17T09:14:55Z</time>
      </trkpt>
      <trkpt lat="45.92877" lon="4.73106">
        <ele>172</ele>
        <time>2017-03-17T09:14:56Z</time>
      </trkpt>
      <trkpt lat="45.92879" lon="4.73097">
        <ele>172</ele>
        <time>2017-03-17T09:14:57Z</time>
      </trkpt>
      <trkpt lat="45.92882" lon="4.73089">
        <ele>172</ele>
        <time>2017-03-17T09:14:58Z</time>
      </trkpt>
      <trkpt lat="45.92885" lon="4.73082">
        <ele>172</ele>
        <time>2017-03-17T09:14:59Z</time>
      </trkpt>
      <trkpt lat="45.92889" lon="4.73074">
        <ele>172</ele>
        <time>2017-03-17T09:15:00Z</time>
      </trkpt>
      <trkpt lat="45.92892" lon="4.73067">
        <ele>172</ele>
        <time>2017-03-17T09:15:01Z</time>
      </trkpt>
      <trkpt lat="45.92896" lon="4.7306">
        <ele>172</ele>
        <time>2017-03-17T09:15:02Z</time>
      </trkpt>
      <trkpt lat="45.929" lon="4.73053">
        <ele>172</ele>
        <time>2017-03-17T09:15:03Z</time>
      </trkpt>
      <trkpt lat="45.92904" lon="4.73047">
        <ele>172</ele>
        <time>2017-03-17T09:15:04Z</time>
      </trkpt>
      <trkpt lat="45.92909" lon="4.7304">
        <ele>172</ele>
        <time>2017-03-17T09:15:05Z</time>
      </trkpt>
      <trkpt lat="45.92913" lon="4.73034">
        <ele>172</ele>
        <time>2017-03-17T09:15:06Z</time>
      </trkpt>
      <trkpt lat="45.92918" lon="4.73028">
        <ele>172</ele>
        <time>2017-03-17T09:15:07Z</time>
      </trkpt>
      <trkpt lat="45.92923" lon="4.73022">
        <ele>172</ele>
        <time>2017-03-17T09:15:08Z</time>
      </trkpt>
      <trkpt lat="45.92927" lon="4.73016">
        <ele>171</ele>
        <time>2017-03-17T09:15:09Z</time>
      </trkpt>
      <trkpt lat="45.92932" lon="4.7301">
        <ele>171</ele>
        <time>2017-03-17T09:15:10Z</time>
      </trkpt>
      <trkpt lat="45.92937" lon="4.73004">
        <ele>171</ele>
        <time>2017-03-17T09:15:11Z</time>
      </trkpt>
      <trkpt lat="45.92942" lon="4.72998">
        <ele>171</ele>
        <time>2017-03-17T09:15:12Z</time>
      </trkpt>
      <trkpt lat="45.92947" lon="4.72992">
        <ele>171</ele>
        <time>2017-03-17T09:15:13Z</time>
      </trkpt>
      <trkpt lat="45.92952" lon="4.72986">
        <ele>171</ele>
        <time>2017-03-17T09:15:14Z</time>
      </trkpt>
      <trkpt lat="45.92957" lon="4.72981">
        <ele>171</ele>
        <time>2017-03-17T09:15:15Z</time>
      </trkpt>
      <trkpt lat="45.92961" lon="4.72975">
        <ele>171</ele>
        <time>2017-03-17T09:15:16Z</time>
      </trkpt>
      <trkpt lat="45.92966" lon="4.7297">
        <ele>171</ele>
        <time>2017-03-17T09:15:17Z</time>
      </trkpt>
      <trkpt lat="45.9297" lon="4.72964">
        <ele>171</ele>
        <time>2017-03-17T09:15:18Z</time>
      </trkpt>
      <trkpt lat="45.92975" lon="4.72959">
        <ele>171</ele>
        <time>2017-03-17T09:15:19Z</time>
      </trkpt>
      <trkpt lat="45.92979" lon="4.72954">
        <ele>171</ele>
        <time>2017-03-17T09:15:20Z</time>
      </trkpt>
      <trkpt lat="45.92984" lon="4.72948">
        <ele>171</ele>
        <time>2017-03-17T09:15:21Z</time>
      </trkpt>
      <trkpt lat="45.92988" lon="4.72943">
        <ele>171</ele>
        <time>2017-03-17T09:15:22Z</time>
      </trkpt>
      <trkpt lat="45.92992" lon="4.72938">
        <ele>171</ele>
        <time>2017-03-17T09:15:23Z</time>
      </trkpt>
      <trkpt lat="45.92996" lon="4.72933">
        <ele>171</ele>
        <time>2017-03-17T09:15:24Z</time>
      </trkpt>
      <trkpt lat="45.93001" lon="4.72927">
        <ele>170</ele>
        <time>2017-03-17T09:15:25Z</time>
      </trkpt>
      <trkpt lat="45.93006" lon="4.72921">
        <ele>171</ele>
        <time>2017-03-17T09:15:26Z</time>
      </trkpt>
      <trkpt lat="45.93011" lon="4.72916">
        <ele>171</ele>
        <time>2017-03-17T09:15:27Z</time>
      </trkpt>
      <trkpt lat="45.93016" lon="4.7291">
        <ele>171</ele>
        <time>2017-03-17T09:15:28Z</time>
      </trkpt>
      <trkpt lat="45.93021" lon="4.72904">
        <ele>172</ele>
        <time>2017-03-17T09:15:29Z</time>
      </trkpt>
      <trkpt lat="45.93026" lon="4.72898">
        <ele>172</ele>
        <time>2017-03-17T09:15:30Z</time>
      </trkpt>
      <trkpt lat="45.9303" lon="4.72892">
        <ele>172</ele>
        <time>2017-03-17T09:15:31Z</time>
      </trkpt>
      <trkpt lat="45.93035" lon="4.72886">
        <ele>172</ele>
        <time>2017-03-17T09:15:32Z</time>
      </trkpt>
      <trkpt lat="45.9304" lon="4.72881">
        <ele>172</ele>
        <time>2017-03-17T09:15:33Z</time>
      </trkpt>
      <trkpt lat="45.93045" lon="4.72875">
        <ele>172</ele>
        <time>2017-03-17T09:15:34Z</time>
      </trkpt>
      <trkpt lat="45.9305" lon="4.72869">
        <ele>172</ele>
        <time>2017-03-17T09:15:35Z</time>
      </trkpt>
      <trkpt lat="45.93055" lon="4.72864">
        <ele>172</ele>
        <time>2017-03-17T09:15:36Z</time>
      </trkpt>
      <trkpt lat="45.93061" lon="4.72858">
        <ele>172</ele>
        <time>2017-03-17T09:15:37Z</time>
      </trkpt>
      <trkpt lat="45.93065" lon="4.72853">
        <ele>172</ele>
        <time>2017-03-17T09:15:38Z</time>
      </trkpt>
      <trkpt lat="45.9307" lon="4.72847">
        <ele>172</ele>
        <time>2017-03-17T09:15:39Z</time>
      </trkpt>
      <trkpt lat="45.93074" lon="4.72842">
        <ele>173</ele>
        <time>2017-03-17T09:15:40Z</time>
      </trkpt>
      <trkpt lat="45.93078" lon="4.72837">
        <ele>173</ele>
        <time>2017-03-17T09:15:41Z</time>
      </trkpt>
      <trkpt lat="45.93082" lon="4.72832">
        <ele>173</ele>
        <time>2017-03-17T09:15:42Z</time>
      </trkpt>
      <trkpt lat="45.93086" lon="4.72829">
        <ele>173</ele>
        <time>2017-03-17T09:15:43Z</time>
      </trkpt>
      <trkpt lat="45.93092" lon="4.72824">
        <ele>172</ele>
        <time>2017-03-17T09:15:44Z</time>
      </trkpt>
      <trkpt lat="45.93097" lon="4.72819">
        <ele>172</ele>
        <time>2017-03-17T09:15:45Z</time>
      </trkpt>
      <trkpt lat="45.93102" lon="4.72814">
        <ele>172</ele>
        <time>2017-03-17T09:15:46Z</time>
      </trkpt>
      <trkpt lat="45.93107" lon="4.72809">
        <ele>171</ele>
        <time>2017-03-17T09:15:47Z</time>
      </trkpt>
      <trkpt lat="45.93111" lon="4.72803">
        <ele>171</ele>
        <time>2017-03-17T09:15:48Z</time>
      </trkpt>
      <trkpt lat="45.93116" lon="4.72798">
        <ele>171</ele>
        <time>2017-03-17T09:15:49Z</time>
      </trkpt>
      <trkpt lat="45.9312" lon="4.72791">
        <ele>171</ele>
        <time>2017-03-17T09:15:50Z</time>
      </trkpt>
      <trkpt lat="45.93124" lon="4.72785">
        <ele>171</ele>
        <time>2017-03-17T09:15:51Z</time>
      </trkpt>
      <trkpt lat="45.93129" lon="4.72779">
        <ele>171</ele>
        <time>2017-03-17T09:15:52Z</time>
      </trkpt>
      <trkpt lat="45.93134" lon="4.72774">
        <ele>171</ele>
        <time>2017-03-17T09:15:53Z</time>
      </trkpt>
      <trkpt lat="45.93139" lon="4.72769">
        <ele>171</ele>
        <time>2017-03-17T09:15:54Z</time>
      </trkpt>
      <trkpt lat="45.93144" lon="4.72764">
        <ele>171</ele>
        <time>2017-03-17T09:15:55Z</time>
      </trkpt>
      <trkpt lat="45.93149" lon="4.72758">
        <ele>170</ele>
        <time>2017-03-17T09:15:56Z</time>
      </trkpt>
      <trkpt lat="45.93154" lon="4.72753">
        <ele>170</ele>
        <time>2017-03-17T09:15:57Z</time>
      </trkpt>
      <trkpt lat="45.93158" lon="4.72747">
        <ele>170</ele>
        <time>2017-03-17T09:15:58Z</time>
      </trkpt>
      <trkpt lat="45.93163" lon="4.72741">
        <ele>170</ele>
        <time>2017-03-17T09:15:59Z</time>
      </trkpt>
      <trkpt lat="45.93168" lon="4.72735">
        <ele>170</ele>
        <time>2017-03-17T09:16:00Z</time>
      </trkpt>
      <trkpt lat="45.93172" lon="4.7273">
        <ele>170</ele>
        <time>2017-03-17T09:16:01Z</time>
      </trkpt>
      <trkpt lat="45.93177" lon="4.72723">
        <ele>170</ele>
        <time>2017-03-17T09:16:02Z</time>
      </trkpt>
      <trkpt lat="45.93181" lon="4.72717">
        <ele>169</ele>
        <time>2017-03-17T09:16:03Z</time>
      </trkpt>
      <trkpt lat="45.93186" lon="4.72712">
        <ele>169</ele>
        <time>2017-03-17T09:16:04Z</time>
      </trkpt>
      <trkpt lat="45.93191" lon="4.72706">
        <ele>169</ele>
        <time>2017-03-17T09:16:05Z</time>
      </trkpt>
      <trkpt lat="45.93196" lon="4.727">
        <ele>169</ele>
        <time>2017-03-17T09:16:06Z</time>
      </trkpt>
      <trkpt lat="45.93201" lon="4.72694">
        <ele>169</ele>
        <time>2017-03-17T09:16:07Z</time>
      </trkpt>
      <trkpt lat="45.93207" lon="4.72688">
        <ele>169</ele>
        <time>2017-03-17T09:16:08Z</time>
      </trkpt>
      <trkpt lat="45.93212" lon="4.72682">
        <ele>169</ele>
        <time>2017-03-17T09:16:09Z</time>
      </trkpt>
      <trkpt lat="45.93217" lon="4.72677">
        <ele>169</ele>
        <time>2017-03-17T09:16:10Z</time>
      </trkpt>
      <trkpt lat="45.93222" lon="4.72671">
        <ele>169</ele>
        <time>2017-03-17T09:16:11Z</time>
      </trkpt>
      <trkpt lat="45.93227" lon="4.72665">
        <ele>169</ele>
        <time>2017-03-17T09:16:12Z</time>
      </trkpt>
      <trkpt lat="45.93231" lon="4.72659">
        <ele>169</ele>
        <time>2017-03-17T09:16:13Z</time>
      </trkpt>
      <trkpt lat="45.93236" lon="4.72654">
        <ele>169</ele>
        <time>2017-03-17T09:16:14Z</time>
      </trkpt>
      <trkpt lat="45.9324" lon="4.72648">
        <ele>170</ele>
        <time>2017-03-17T09:16:15Z</time>
      </trkpt>
      <trkpt lat="45.93245" lon="4.72643">
        <ele>170</ele>
        <time>2017-03-17T09:16:16Z</time>
      </trkpt>
      <trkpt lat="45.93249" lon="4.72637">
        <ele>170</ele>
        <time>2017-03-17T09:16:17Z</time>
      </trkpt>
      <trkpt lat="45.93254" lon="4.72632">
        <ele>170</ele>
        <time>2017-03-17T09:16:18Z</time>
      </trkpt>
      <trkpt lat="45.93259" lon="4.72626">
        <ele>170</ele>
        <time>2017-03-17T09:16:19Z</time>
      </trkpt>
      <trkpt lat="45.93263" lon="4.72621">
        <ele>170</ele>
        <time>2017-03-17T09:16:20Z</time>
      </trkpt>
      <trkpt lat="45.93268" lon="4.72615">
        <ele>170</ele>
        <time>2017-03-17T09:16:21Z</time>
      </trkpt>
      <trkpt lat="45.93272" lon="4.72609">
        <ele>170</ele>
        <time>2017-03-17T09:16:22Z</time>
      </trkpt>
      <trkpt lat="45.93276" lon="4.72604">
        <ele>170</ele>
        <time>2017-03-17T09:16:23Z</time>
      </trkpt>
      <trkpt lat="45.93281" lon="4.72599">
        <ele>170</ele>
        <time>2017-03-17T09:16:24Z</time>
      </trkpt>
      <trkpt lat="45.93286" lon="4.72593">
        <ele>170</ele>
        <time>2017-03-17T09:16:25Z</time>
      </trkpt>
      <trkpt lat="45.93291" lon="4.72587">
        <ele>170</ele>
        <time>2017-03-17T09:16:26Z</time>
      </trkpt>
      <trkpt lat="45.93296" lon="4.72581">
        <ele>171</ele>
        <time>2017-03-17T09:16:27Z</time>
      </trkpt>
      <trkpt lat="45.93301" lon="4.72576">
        <ele>171</ele>
        <time>2017-03-17T09:16:28Z</time>
      </trkpt>
      <trkpt lat="45.93306" lon="4.7257">
        <ele>171</ele>
        <time>2017-03-17T09:16:29Z</time>
      </trkpt>
      <trkpt lat="45.93311" lon="4.72564">
        <ele>171</ele>
        <time>2017-03-17T09:16:30Z</time>
      </trkpt>
      <trkpt lat="45.93316" lon="4.72558">
        <ele>171</ele>
        <time>2017-03-17T09:16:31Z</time>
      </trkpt>
      <trkpt lat="45.93321" lon="4.72553">
        <ele>172</ele>
        <time>2017-03-17T09:16:32Z</time>
      </trkpt>
      <trkpt lat="45.93325" lon="4.72547">
        <ele>172</ele>
        <time>2017-03-17T09:16:33Z</time>
      </trkpt>
      <trkpt lat="45.9333" lon="4.72542">
        <ele>172</ele>
        <time>2017-03-17T09:16:34Z</time>
      </trkpt>
      <trkpt lat="45.93335" lon="4.72536">
        <ele>171</ele>
        <time>2017-03-17T09:16:35Z</time>
      </trkpt>
      <trkpt lat="45.93339" lon="4.72532">
        <ele>172</ele>
        <time>2017-03-17T09:16:36Z</time>
      </trkpt>
      <trkpt lat="45.93344" lon="4.72527">
        <ele>172</ele>
        <time>2017-03-17T09:16:37Z</time>
      </trkpt>
      <trkpt lat="45.93348" lon="4.72521">
        <ele>172</ele>
        <time>2017-03-17T09:16:38Z</time>
      </trkpt>
      <trkpt lat="45.93353" lon="4.72516">
        <ele>172</ele>
        <time>2017-03-17T09:16:39Z</time>
      </trkpt>
      <trkpt lat="45.93358" lon="4.7251">
        <ele>172</ele>
        <time>2017-03-17T09:16:40Z</time>
      </trkpt>
      <trkpt lat="45.93363" lon="4.72505">
        <ele>172</ele>
        <time>2017-03-17T09:16:41Z</time>
      </trkpt>
      <trkpt lat="45.93368" lon="4.725">
        <ele>173</ele>
        <time>2017-03-17T09:16:42Z</time>
      </trkpt>
      <trkpt lat="45.93373" lon="4.72493">
        <ele>173</ele>
        <time>2017-03-17T09:16:43Z</time>
      </trkpt>
      <trkpt lat="45.93378" lon="4.72487">
        <ele>173</ele>
        <time>2017-03-17T09:16:44Z</time>
      </trkpt>
      <trkpt lat="45.93382" lon="4.72482">
        <ele>173</ele>
        <time>2017-03-17T09:16:45Z</time>
      </trkpt>
      <trkpt lat="45.93387" lon="4.72476">
        <ele>173</ele>
        <time>2017-03-17T09:16:46Z</time>
      </trkpt>
      <trkpt lat="45.93391" lon="4.7247">
        <ele>173</ele>
        <time>2017-03-17T09:16:47Z</time>
      </trkpt>
      <trkpt lat="45.93395" lon="4.72464">
        <ele>173</ele>
        <time>2017-03-17T09:16:48Z</time>
      </trkpt>
      <trkpt lat="45.93398" lon="4.72457">
        <ele>173</ele>
        <time>2017-03-17T09:16:49Z</time>
      </trkpt>
      <trkpt lat="45.93401" lon="4.72451">
        <ele>173</ele>
        <time>2017-03-17T09:16:50Z</time>
      </trkpt>
      <trkpt lat="45.93403" lon="4.72444">
        <ele>173</ele>
        <time>2017-03-17T09:16:51Z</time>
      </trkpt>
      <trkpt lat="45.93405" lon="4.72438">
        <ele>173</ele>
        <time>2017-03-17T09:16:52Z</time>
      </trkpt>
      <trkpt lat="45.93407" lon="4.72431">
        <ele>173</ele>
        <time>2017-03-17T09:16:53Z</time>
      </trkpt>
      <trkpt lat="45.9341" lon="4.72425">
        <ele>174</ele>
        <time>2017-03-17T09:16:54Z</time>
      </trkpt>
      <trkpt lat="45.93414" lon="4.72419">
        <ele>174</ele>
        <time>2017-03-17T09:16:55Z</time>
      </trkpt>
      <trkpt lat="45.93418" lon="4.72415">
        <ele>174</ele>
        <time>2017-03-17T09:16:56Z</time>
      </trkpt>
      <trkpt lat="45.93423" lon="4.72412">
        <ele>174</ele>
        <time>2017-03-17T09:16:57Z</time>
      </trkpt>
      <trkpt lat="45.93428" lon="4.7241">
        <ele>174</ele>
        <time>2017-03-17T09:16:58Z</time>
      </trkpt>
      <trkpt lat="45.93433" lon="4.72407">
        <ele>174</ele>
        <time>2017-03-17T09:16:59Z</time>
      </trkpt>
      <trkpt lat="45.93438" lon="4.72404">
        <ele>173</ele>
        <time>2017-03-17T09:17:00Z</time>
      </trkpt>
      <trkpt lat="45.93444" lon="4.724">
        <ele>173</ele>
        <time>2017-03-17T09:17:01Z</time>
      </trkpt>
      <trkpt lat="45.93449" lon="4.72397">
        <ele>173</ele>
        <time>2017-03-17T09:17:02Z</time>
      </trkpt>
      <trkpt lat="45.93454" lon="4.72393">
        <ele>173</ele>
        <time>2017-03-17T09:17:03Z</time>
      </trkpt>
      <trkpt lat="45.93459" lon="4.72388">
        <ele>173</ele>
        <time>2017-03-17T09:17:04Z</time>
      </trkpt>
      <trkpt lat="45.93465" lon="4.72383">
        <ele>173</ele>
        <time>2017-03-17T09:17:05Z</time>
      </trkpt>
      <trkpt lat="45.93469" lon="4.72377">
        <ele>173</ele>
        <time>2017-03-17T09:17:06Z</time>
      </trkpt>
      <trkpt lat="45.93474" lon="4.72371">
        <ele>173</ele>
        <time>2017-03-17T09:17:07Z</time>
      </trkpt>
      <trkpt lat="45.93478" lon="4.72365">
        <ele>173</ele>
        <time>2017-03-17T09:17:08Z</time>
      </trkpt>
      <trkpt lat="45.93482" lon="4.72359">
        <ele>173</ele>
        <time>2017-03-17T09:17:09Z</time>
      </trkpt>
      <trkpt lat="45.93487" lon="4.72353">
        <ele>173</ele>
        <time>2017-03-17T09:17:10Z</time>
      </trkpt>
      <trkpt lat="45.93491" lon="4.72346">
        <ele>173</ele>
        <time>2017-03-17T09:17:11Z</time>
      </trkpt>
      <trkpt lat="45.93496" lon="4.7234">
        <ele>173</ele>
        <time>2017-03-17T09:17:12Z</time>
      </trkpt>
      <trkpt lat="45.935" lon="4.72334">
        <ele>173</ele>
        <time>2017-03-17T09:17:13Z</time>
      </trkpt>
      <trkpt lat="45.93504" lon="4.72328">
        <ele>173</ele>
        <time>2017-03-17T09:17:14Z</time>
      </trkpt>
      <trkpt lat="45.93508" lon="4.72322">
        <ele>173</ele>
        <time>2017-03-17T09:17:15Z</time>
      </trkpt>
      <trkpt lat="45.93512" lon="4.72316">
        <ele>173</ele>
        <time>2017-03-17T09:17:16Z</time>
      </trkpt>
      <trkpt lat="45.93516" lon="4.72311">
        <ele>173</ele>
        <time>2017-03-17T09:17:17Z</time>
      </trkpt>
      <trkpt lat="45.9352" lon="4.72305">
        <ele>173</ele>
        <time>2017-03-17T09:17:18Z</time>
      </trkpt>
      <trkpt lat="45.93523" lon="4.72299">
        <ele>172</ele>
        <time>2017-03-17T09:17:19Z</time>
      </trkpt>
      <trkpt lat="45.93526" lon="4.72293">
        <ele>172</ele>
        <time>2017-03-17T09:17:20Z</time>
      </trkpt>
      <trkpt lat="45.93528" lon="4.72286">
        <ele>172</ele>
        <time>2017-03-17T09:17:21Z</time>
      </trkpt>
      <trkpt lat="45.93531" lon="4.7228">
        <ele>172</ele>
        <time>2017-03-17T09:17:22Z</time>
      </trkpt>
      <trkpt lat="45.93533" lon="4.72274">
        <ele>172</ele>
        <time>2017-03-17T09:17:23Z</time>
      </trkpt>
      <trkpt lat="45.93536" lon="4.72267">
        <ele>172</ele>
        <time>2017-03-17T09:17:24Z</time>
      </trkpt>
      <trkpt lat="45.93539" lon="4.72261">
        <ele>172</ele>
        <time>2017-03-17T09:17:25Z</time>
      </trkpt>
      <trkpt lat="45.93541" lon="4.72255">
        <ele>172</ele>
        <time>2017-03-17T09:17:26Z</time>
      </trkpt>
      <trkpt lat="45.93543" lon="4.72249">
        <ele>172</ele>
        <time>2017-03-17T09:17:27Z</time>
      </trkpt>
      <trkpt lat="45.93546" lon="4.72243">
        <ele>172</ele>
        <time>2017-03-17T09:17:28Z</time>
      </trkpt>
      <trkpt lat="45.93548" lon="4.72236">
        <ele>172</ele>
        <time>2017-03-17T09:17:29Z</time>
      </trkpt>
      <trkpt lat="45.93551" lon="4.7223">
        <ele>172</ele>
        <time>2017-03-17T09:17:30Z</time>
      </trkpt>
      <trkpt lat="45.93556" lon="4.72226">
        <ele>173</ele>
        <time>2017-03-17T09:17:31Z</time>
      </trkpt>
      <trkpt lat="45.93562" lon="4.72225">
        <ele>173</ele>
        <time>2017-03-17T09:17:32Z</time>
      </trkpt>
      <trkpt lat="45.93567" lon="4.72226">
        <ele>173</ele>
        <time>2017-03-17T09:17:33Z</time>
      </trkpt>
      <trkpt lat="45.93572" lon="4.7223">
        <ele>173</ele>
        <time>2017-03-17T09:17:34Z</time>
      </trkpt>
      <trkpt lat="45.93576" lon="4.72235">
        <ele>173</ele>
        <time>2017-03-17T09:17:35Z</time>
      </trkpt>
      <trkpt lat="45.9358" lon="4.72241">
        <ele>173</ele>
        <time>2017-03-17T09:17:36Z</time>
      </trkpt>
      <trkpt lat="45.93584" lon="4.72245">
        <ele>173</ele>
        <time>2017-03-17T09:17:37Z</time>
      </trkpt>
      <trkpt lat="45.93588" lon="4.7225">
        <ele>173</ele>
        <time>2017-03-17T09:17:38Z</time>
      </trkpt>
      <trkpt lat="45.93592" lon="4.72254">
        <ele>173</ele>
        <time>2017-03-17T09:17:39Z</time>
      </trkpt>
      <trkpt lat="45.93597" lon="4.72258">
        <ele>173</ele>
        <time>2017-03-17T09:17:40Z</time>
      </trkpt>
      <trkpt lat="45.93601" lon="4.72262">
        <ele>173</ele>
        <time>2017-03-17T09:17:41Z</time>
      </trkpt>
      <trkpt lat="45.93605" lon="4.72266">
        <ele>173</ele>
        <time>2017-03-17T09:17:42Z</time>
      </trkpt>
      <trkpt lat="45.93609" lon="4.7227">
        <ele>172</ele>
        <time>2017-03-17T09:17:43Z</time>
      </trkpt>
      <trkpt lat="45.93614" lon="4.72275">
        <ele>172</ele>
        <time>2017-03-17T09:17:44Z</time>
      </trkpt>
      <trkpt lat="45.93618" lon="4.7228">
        <ele>172</ele>
        <time>2017-03-17T09:17:45Z</time>
      </trkpt>
      <trkpt lat="45.93623" lon="4.72284">
        <ele>172</ele>
        <time>2017-03-17T09:17:46Z</time>
      </trkpt>
      <trkpt lat="45.93627" lon="4.72288">
        <ele>172</ele>
        <time>2017-03-17T09:17:47Z</time>
      </trkpt>
      <trkpt lat="45.93632" lon="4.72292">
        <ele>172</ele>
        <time>2017-03-17T09:17:48Z</time>
      </trkpt>
      <trkpt lat="45.93636" lon="4.72297">
        <ele>172</ele>
        <time>2017-03-17T09:17:49Z</time>
      </trkpt>
      <trkpt lat="45.9364" lon="4.72302">
        <ele>172</ele>
        <time>2017-03-17T09:17:50Z</time>
      </trkpt>
      <trkpt lat="45.93645" lon="4.72306">
        <ele>172</ele>
        <time>2017-03-17T09:17:51Z</time>
      </trkpt>
      <trkpt lat="45.9365" lon="4.7231">
        <ele>172</ele>
        <time>2017-03-17T09:17:52Z</time>
      </trkpt>
      <trkpt lat="45.93655" lon="4.72314">
        <ele>172</ele>
        <time>2017-03-17T09:17:53Z</time>
      </trkpt>
      <trkpt lat="45.9366" lon="4.72317">
        <ele>172</ele>
        <time>2017-03-17T09:17:54Z</time>
      </trkpt>
      <trkpt lat="45.93665" lon="4.72321">
        <ele>171</ele>
        <time>2017-03-17T09:17:55Z</time>
      </trkpt>
      <trkpt lat="45.9367" lon="4.72325">
        <ele>171</ele>
        <time>2017-03-17T09:17:56Z</time>
      </trkpt>
      <trkpt lat="45.93674" lon="4.7233">
        <ele>171</ele>
        <time>2017-03-17T09:17:57Z</time>
      </trkpt>
      <trkpt lat="45.93678" lon="4.72335">
        <ele>171</ele>
        <time>2017-03-17T09:17:58Z</time>
      </trkpt>
      <trkpt lat="45.93682" lon="4.72339">
        <ele>171</ele>
        <time>2017-03-17T09:17:59Z</time>
      </trkpt>
      <trkpt lat="45.93686" lon="4.72343">
        <ele>171</ele>
        <time>2017-03-17T09:18:00Z</time>
      </trkpt>
      <trkpt lat="45.9369" lon="4.72347">
        <ele>171</ele>
        <time>2017-03-17T09:18:01Z</time>
      </trkpt>
      <trkpt lat="45.93697" lon="4.72354">
        <ele>171</ele>
        <time>2017-03-17T09:18:03Z</time>
      </trkpt>
      <trkpt lat="45.93702" lon="4.72359">
        <ele>171</ele>
        <time>2017-03-17T09:18:04Z</time>
      </trkpt>
      <trkpt lat="45.93707" lon="4.72364">
        <ele>171</ele>
        <time>2017-03-17T09:18:05Z</time>
      </trkpt>
      <trkpt lat="45.93711" lon="4.7237">
        <ele>172</ele>
        <time>2017-03-17T09:18:06Z</time>
      </trkpt>
      <trkpt lat="45.93716" lon="4.72375">
        <ele>172</ele>
        <time>2017-03-17T09:18:07Z</time>
      </trkpt>
      <trkpt lat="45.93722" lon="4.7238">
        <ele>171</ele>
        <time>2017-03-17T09:18:08Z</time>
      </trkpt>
      <trkpt lat="45.93727" lon="4.72385">
        <ele>171</ele>
        <time>2017-03-17T09:18:09Z</time>
      </trkpt>
      <trkpt lat="45.93732" lon="4.7239">
        <ele>171</ele>
        <time>2017-03-17T09:18:10Z</time>
      </trkpt>
      <trkpt lat="45.93737" lon="4.72395">
        <ele>171</ele>
        <time>2017-03-17T09:18:11Z</time>
      </trkpt>
      <trkpt lat="45.93742" lon="4.724">
        <ele>171</ele>
        <time>2017-03-17T09:18:12Z</time>
      </trkpt>
      <trkpt lat="45.93747" lon="4.72406">
        <ele>171</ele>
        <time>2017-03-17T09:18:13Z</time>
      </trkpt>
      <trkpt lat="45.93752" lon="4.72411">
        <ele>171</ele>
        <time>2017-03-17T09:18:14Z</time>
      </trkpt>
      <trkpt lat="45.93757" lon="4.72416">
        <ele>171</ele>
        <time>2017-03-17T09:18:15Z</time>
      </trkpt>
      <trkpt lat="45.93763" lon="4.7242">
        <ele>171</ele>
        <time>2017-03-17T09:18:16Z</time>
      </trkpt>
      <trkpt lat="45.93768" lon="4.72425">
        <ele>171</ele>
        <time>2017-03-17T09:18:17Z</time>
      </trkpt>
      <trkpt lat="45.93773" lon="4.7243">
        <ele>171</ele>
        <time>2017-03-17T09:18:18Z</time>
      </trkpt>
      <trkpt lat="45.93778" lon="4.72435">
        <ele>172</ele>
        <time>2017-03-17T09:18:19Z</time>
      </trkpt>
      <trkpt lat="45.93783" lon="4.7244">
        <ele>172</ele>
        <time>2017-03-17T09:18:20Z</time>
      </trkpt>
      <trkpt lat="45.93788" lon="4.72445">
        <ele>172</ele>
        <time>2017-03-17T09:18:21Z</time>
      </trkpt>
      <trkpt lat="45.93793" lon="4.72449">
        <ele>172</ele>
        <time>2017-03-17T09:18:22Z</time>
      </trkpt>
      <trkpt lat="45.93798" lon="4.72453">
        <ele>172</ele>
        <time>2017-03-17T09:18:23Z</time>
      </trkpt>
      <trkpt lat="45.93803" lon="4.72457">
        <ele>172</ele>
        <time>2017-03-17T09:18:24Z</time>
      </trkpt>
      <trkpt lat="45.93807" lon="4.72462">
        <ele>172</ele>
        <time>2017-03-17T09:18:25Z</time>
      </trkpt>
      <trkpt lat="45.93811" lon="4.72466">
        <ele>172</ele>
        <time>2017-03-17T09:18:26Z</time>
      </trkpt>
      <trkpt lat="45.93816" lon="4.7247">
        <ele>172</ele>
        <time>2017-03-17T09:18:27Z</time>
      </trkpt>
      <trkpt lat="45.9382" lon="4.72475">
        <ele>172</ele>
        <time>2017-03-17T09:18:28Z</time>
      </trkpt>
      <trkpt lat="45.93824" lon="4.72479">
        <ele>173</ele>
        <time>2017-03-17T09:18:29Z</time>
      </trkpt>
      <trkpt lat="45.93829" lon="4.72484">
        <ele>173</ele>
        <time>2017-03-17T09:18:30Z</time>
      </trkpt>
      <trkpt lat="45.93836" lon="4.7249">
        <ele>173</ele>
        <time>2017-03-17T09:18:32Z</time>
      </trkpt>
      <trkpt lat="45.9384" lon="4.72491">
        <ele>173</ele>
        <time>2017-03-17T09:18:33Z</time>
      </trkpt>
      <trkpt lat="45.93845" lon="4.72494">
        <ele>173</ele>
        <time>2017-03-17T09:18:34Z</time>
      </trkpt>
      <trkpt lat="45.9385" lon="4.72508">
        <ele>174</ele>
        <time>2017-03-17T09:18:35Z</time>
      </trkpt>
      <trkpt lat="45.93856" lon="4.72513">
        <ele>173</ele>
        <time>2017-03-17T09:18:36Z</time>
      </trkpt>
      <trkpt lat="45.93862" lon="4.72516">
        <ele>173</ele>
        <time>2017-03-17T09:18:37Z</time>
      </trkpt>
      <trkpt lat="45.93869" lon="4.72519">
        <ele>173</ele>
        <time>2017-03-17T09:18:38Z</time>
      </trkpt>
      <trkpt lat="45.93876" lon="4.72518">
        <ele>173</ele>
        <time>2017-03-17T09:18:39Z</time>
      </trkpt>
      <trkpt lat="45.93881" lon="4.72515">
        <ele>173</ele>
        <time>2017-03-17T09:18:40Z</time>
      </trkpt>
      <trkpt lat="45.93885" lon="4.72509">
        <ele>173</ele>
        <time>2017-03-17T09:18:41Z</time>
      </trkpt>
      <trkpt lat="45.93889" lon="4.72504">
        <ele>173</ele>
        <time>2017-03-17T09:18:42Z</time>
      </trkpt>
      <trkpt lat="45.93892" lon="4.72498">
        <ele>172</ele>
        <time>2017-03-17T09:18:43Z</time>
      </trkpt>
      <trkpt lat="45.93896" lon="4.72492">
        <ele>172</ele>
        <time>2017-03-17T09:18:44Z</time>
      </trkpt>
      <trkpt lat="45.93901" lon="4.72487">
        <ele>172</ele>
        <time>2017-03-17T09:18:45Z</time>
      </trkpt>
      <trkpt lat="45.93905" lon="4.72481">
        <ele>172</ele>
        <time>2017-03-17T09:18:46Z</time>
      </trkpt>
      <trkpt lat="45.9391" lon="4.72476">
        <ele>172</ele>
        <time>2017-03-17T09:18:47Z</time>
      </trkpt>
      <trkpt lat="45.93915" lon="4.7247">
        <ele>172</ele>
        <time>2017-03-17T09:18:48Z</time>
      </trkpt>
      <trkpt lat="45.9392" lon="4.72464">
        <ele>171</ele>
        <time>2017-03-17T09:18:49Z</time>
      </trkpt>
      <trkpt lat="45.93925" lon="4.72457">
        <ele>171</ele>
        <time>2017-03-17T09:18:50Z</time>
      </trkpt>
      <trkpt lat="45.9393" lon="4.72451">
        <ele>171</ele>
        <time>2017-03-17T09:18:51Z</time>
      </trkpt>
      <trkpt lat="45.93935" lon="4.72445">
        <ele>171</ele>
        <time>2017-03-17T09:18:52Z</time>
      </trkpt>
      <trkpt lat="45.9394" lon="4.72438">
        <ele>171</ele>
        <time>2017-03-17T09:18:53Z</time>
      </trkpt>
      <trkpt lat="45.93946" lon="4.72432">
        <ele>171</ele>
        <time>2017-03-17T09:18:54Z</time>
      </trkpt>
      <trkpt lat="45.93951" lon="4.72426">
        <ele>171</ele>
        <time>2017-03-17T09:18:55Z</time>
      </trkpt>
      <trkpt lat="45.93957" lon="4.7242">
        <ele>171</ele>
        <time>2017-03-17T09:18:56Z</time>
      </trkpt>
      <trkpt lat="45.93962" lon="4.72414">
        <ele>171</ele>
        <time>2017-03-17T09:18:57Z</time>
      </trkpt>
      <trkpt lat="45.93967" lon="4.72408">
        <ele>171</ele>
        <time>2017-03-17T09:18:58Z</time>
      </trkpt>
      <trkpt lat="45.93973" lon="4.72402">
        <ele>171</ele>
        <time>2017-03-17T09:18:59Z</time>
      </trkpt>
      <trkpt lat="45.93977" lon="4.72396">
        <ele>171</ele>
        <time>2017-03-17T09:19:00Z</time>
      </trkpt>
      <trkpt lat="45.93982" lon="4.72389">
        <ele>171</ele>
        <time>2017-03-17T09:19:01Z</time>
      </trkpt>
      <trkpt lat="45.93987" lon="4.72383">
        <ele>171</ele>
        <time>2017-03-17T09:19:02Z</time>
      </trkpt>
      <trkpt lat="45.93992" lon="4.72377">
        <ele>171</ele>
        <time>2017-03-17T09:19:03Z</time>
      </trkpt>
      <trkpt lat="45.93997" lon="4.72371">
        <ele>171</ele>
        <time>2017-03-17T09:19:04Z</time>
      </trkpt>
      <trkpt lat="45.94002" lon="4.72366">
        <ele>171</ele>
        <time>2017-03-17T09:19:05Z</time>
      </trkpt>
      <trkpt lat="45.94007" lon="4.7236">
        <ele>171</ele>
        <time>2017-03-17T09:19:06Z</time>
      </trkpt>
      <trkpt lat="45.94011" lon="4.72354">
        <ele>171</ele>
        <time>2017-03-17T09:19:07Z</time>
      </trkpt>
      <trkpt lat="45.94016" lon="4.72348">
        <ele>171</ele>
        <time>2017-03-17T09:19:08Z</time>
      </trkpt>
      <trkpt lat="45.94021" lon="4.72343">
        <ele>171</ele>
        <time>2017-03-17T09:19:09Z</time>
      </trkpt>
      <trkpt lat="45.94025" lon="4.72337">
        <ele>171</ele>
        <time>2017-03-17T09:19:10Z</time>
      </trkpt>
      <trkpt lat="45.94029" lon="4.72332">
        <ele>171</ele>
        <time>2017-03-17T09:19:11Z</time>
      </trkpt>
      <trkpt lat="45.94034" lon="4.72326">
        <ele>171</ele>
        <time>2017-03-17T09:19:12Z</time>
      </trkpt>
      <trkpt lat="45.94038" lon="4.72321">
        <ele>171</ele>
        <time>2017-03-17T09:19:13Z</time>
      </trkpt>
      <trkpt lat="45.94043" lon="4.72315">
        <ele>171</ele>
        <time>2017-03-17T09:19:14Z</time>
      </trkpt>
      <trkpt lat="45.94047" lon="4.72309">
        <ele>171</ele>
        <time>2017-03-17T09:19:15Z</time>
      </trkpt>
      <trkpt lat="45.94051" lon="4.72304">
        <ele>171</ele>
        <time>2017-03-17T09:19:16Z</time>
      </trkpt>
      <trkpt lat="45.94055" lon="4.72299">
        <ele>171</ele>
        <time>2017-03-17T09:19:17Z</time>
      </trkpt>
      <trkpt lat="45.94059" lon="4.72294">
        <ele>171</ele>
        <time>2017-03-17T09:19:18Z</time>
      </trkpt>
      <trkpt lat="45.94064" lon="4.72288">
        <ele>171</ele>
        <time>2017-03-17T09:19:19Z</time>
      </trkpt>
      <trkpt lat="45.94068" lon="4.72283">
        <ele>171</ele>
        <time>2017-03-17T09:19:20Z</time>
      </trkpt>
      <trkpt lat="45.94073" lon="4.72279">
        <ele>171</ele>
        <time>2017-03-17T09:19:21Z</time>
      </trkpt>
      <trkpt lat="45.94077" lon="4.72275">
        <ele>171</ele>
        <time>2017-03-17T09:19:22Z</time>
      </trkpt>
      <trkpt lat="45.94082" lon="4.72272">
        <ele>171</ele>
        <time>2017-03-17T09:19:23Z</time>
      </trkpt>
      <trkpt lat="45.94088" lon="4.72269">
        <ele>171</ele>
        <time>2017-03-17T09:19:24Z</time>
      </trkpt>
      <trkpt lat="45.94093" lon="4.72268">
        <ele>171</ele>
        <time>2017-03-17T09:19:25Z</time>
      </trkpt>
      <trkpt lat="45.94099" lon="4.72267">
        <ele>171</ele>
        <time>2017-03-17T09:19:26Z</time>
      </trkpt>
      <trkpt lat="45.94104" lon="4.72268">
        <ele>171</ele>
        <time>2017-03-17T09:19:27Z</time>
      </trkpt>
      <trkpt lat="45.9411" lon="4.72268">
        <ele>171</ele>
        <time>2017-03-17T09:19:28Z</time>
      </trkpt>
      <trkpt lat="45.94115" lon="4.72271">
        <ele>171</ele>
        <time>2017-03-17T09:19:29Z</time>
      </trkpt>
      <trkpt lat="45.9412" lon="4.72273">
        <ele>171</ele>
        <time>2017-03-17T09:19:30Z</time>
      </trkpt>
      <trkpt lat="45.94125" lon="4.72275">
        <ele>171</ele>
        <time>2017-03-17T09:19:31Z</time>
      </trkpt>
      <trkpt lat="45.94131" lon="4.72278">
        <ele>171</ele>
        <time>2017-03-17T09:19:32Z</time>
      </trkpt>
      <trkpt lat="45.94136" lon="4.72281">
        <ele>171</ele>
        <time>2017-03-17T09:19:33Z</time>
      </trkpt>
      <trkpt lat="45.94141" lon="4.72284">
        <ele>171</ele>
        <time>2017-03-17T09:19:34Z</time>
      </trkpt>
      <trkpt lat="45.94147" lon="4.72286">
        <ele>171</ele>
        <time>2017-03-17T09:19:35Z</time>
      </trkpt>
      <trkpt lat="45.94153" lon="4.72288">
        <ele>171</ele>
        <time>2017-03-17T09:19:36Z</time>
      </trkpt>
      <trkpt lat="45.94158" lon="4.72289">
        <ele>171</ele>
        <time>2017-03-17T09:19:37Z</time>
      </trkpt>
      <trkpt lat="45.94164" lon="4.7229">
        <ele>171</ele>
        <time>2017-03-17T09:19:38Z</time>
      </trkpt>
      <trkpt lat="45.9417" lon="4.7229">
        <ele>171</ele>
        <time>2017-03-17T09:19:39Z</time>
      </trkpt>
      <trkpt lat="45.94176" lon="4.72291">
        <ele>171</ele>
        <time>2017-03-17T09:19:40Z</time>
      </trkpt>
      <trkpt lat="45.94182" lon="4.72291">
        <ele>171</ele>
        <time>2017-03-17T09:19:41Z</time>
      </trkpt>
      <trkpt lat="45.94188" lon="4.72291">
        <ele>171</ele>
        <time>2017-03-17T09:19:42Z</time>
      </trkpt>
      <trkpt lat="45.94193" lon="4.72291">
        <ele>171</ele>
        <time>2017-03-17T09:19:43Z</time>
      </trkpt>
      <trkpt lat="45.94199" lon="4.72291">
        <ele>171</ele>
        <time>2017-03-17T09:19:44Z</time>
      </trkpt>
      <trkpt lat="45.94205" lon="4.72291">
        <ele>171</ele>
        <time>2017-03-17T09:19:45Z</time>
      </trkpt>
      <trkpt lat="45.9421" lon="4.7229">
        <ele>171</ele>
        <time>2017-03-17T09:19:46Z</time>
      </trkpt>
      <trkpt lat="45.94216" lon="4.7229">
        <ele>171</ele>
        <time>2017-03-17T09:19:47Z</time>
      </trkpt>
      <trkpt lat="45.94222" lon="4.72289">
        <ele>171</ele>
        <time>2017-03-17T09:19:48Z</time>
      </trkpt>
      <trkpt lat="45.94227" lon="4.72288">
        <ele>171</ele>
        <time>2017-03-17T09:19:49Z</time>
      </trkpt>
      <trkpt lat="45.94233" lon="4.72287">
        <ele>171</ele>
        <time>2017-03-17T09:19:50Z</time>
      </trkpt>
      <trkpt lat="45.94238" lon="4.72285">
        <ele>171</ele>
        <time>2017-03-17T09:19:51Z</time>
      </trkpt>
      <trkpt lat="45.94243" lon="4.72283">
        <ele>171</ele>
        <time>2017-03-17T09:19:52Z</time>
      </trkpt>
      <trkpt lat="45.94248" lon="4.72281">
        <ele>171</ele>
        <time>2017-03-17T09:19:53Z</time>
      </trkpt>
      <trkpt lat="45.94253" lon="4.7228">
        <ele>171</ele>
        <time>2017-03-17T09:19:54Z</time>
      </trkpt>
      <trkpt lat="45.94258" lon="4.72278">
        <ele>171</ele>
        <time>2017-03-17T09:19:55Z</time>
      </trkpt>
      <trkpt lat="45.94263" lon="4.72277">
        <ele>171</ele>
        <time>2017-03-17T09:19:56Z</time>
      </trkpt>
      <trkpt lat="45.94267" lon="4.72275">
        <ele>171</ele>
        <time>2017-03-17T09:19:57Z</time>
      </trkpt>
      <trkpt lat="45.94276" lon="4.72279">
        <ele>171</ele>
        <time>2017-03-17T09:19:59Z</time>
      </trkpt>
      <trkpt lat="45.94279" lon="4.72283">
        <ele>171</ele>
        <time>2017-03-17T09:20:00Z</time>
      </trkpt>
      <trkpt lat="45.94281" lon="4.72289">
        <ele>171</ele>
        <time>2017-03-17T09:20:01Z</time>
      </trkpt>
      <trkpt lat="45.94284" lon="4.72296">
        <ele>171</ele>
        <time>2017-03-17T09:20:02Z</time>
      </trkpt>
      <trkpt lat="45.94286" lon="4.72303">
        <ele>171</ele>
        <time>2017-03-17T09:20:03Z</time>
      </trkpt>
      <trkpt lat="45.9429" lon="4.7231">
        <ele>171</ele>
        <time>2017-03-17T09:20:04Z</time>
      </trkpt>
      <trkpt lat="45.94293" lon="4.72316">
        <ele>171</ele>
        <time>2017-03-17T09:20:05Z</time>
      </trkpt>
      <trkpt lat="45.94296" lon="4.72323">
        <ele>171</ele>
        <time>2017-03-17T09:20:06Z</time>
      </trkpt>
      <trkpt lat="45.94299" lon="4.7233">
        <ele>171</ele>
        <time>2017-03-17T09:20:07Z</time>
      </trkpt>
      <trkpt lat="45.94303" lon="4.72336">
        <ele>172</ele>
        <time>2017-03-17T09:20:08Z</time>
      </trkpt>
      <trkpt lat="45.94306" lon="4.72343">
        <ele>172</ele>
        <time>2017-03-17T09:20:09Z</time>
      </trkpt>
      <trkpt lat="45.9431" lon="4.7235">
        <ele>172</ele>
        <time>2017-03-17T09:20:10Z</time>
      </trkpt>
      <trkpt lat="45.94313" lon="4.72357">
        <ele>172</ele>
        <time>2017-03-17T09:20:11Z</time>
      </trkpt>
      <trkpt lat="45.94316" lon="4.72363">
        <ele>172</ele>
        <time>2017-03-17T09:20:12Z</time>
      </trkpt>
      <trkpt lat="45.94319" lon="4.7237">
        <ele>172</ele>
        <time>2017-03-17T09:20:13Z</time>
      </trkpt>
      <trkpt lat="45.94322" lon="4.72377">
        <ele>172</ele>
        <time>2017-03-17T09:20:14Z</time>
      </trkpt>
      <trkpt lat="45.94325" lon="4.72383">
        <ele>172</ele>
        <time>2017-03-17T09:20:15Z</time>
      </trkpt>
      <trkpt lat="45.94328" lon="4.7239">
        <ele>172</ele>
        <time>2017-03-17T09:20:16Z</time>
      </trkpt>
      <trkpt lat="45.94331" lon="4.72397">
        <ele>172</ele>
        <time>2017-03-17T09:20:17Z</time>
      </trkpt>
      <trkpt lat="45.94334" lon="4.72404">
        <ele>173</ele>
        <time>2017-03-17T09:20:18Z</time>
      </trkpt>
      <trkpt lat="45.94336" lon="4.72411">
        <ele>173</ele>
        <time>2017-03-17T09:20:19Z</time>
      </trkpt>
      <trkpt lat="45.9434" lon="4.72418">
        <ele>173</ele>
        <time>2017-03-17T09:20:20Z</time>
      </trkpt>
      <trkpt lat="45.94343" lon="4.72425">
        <ele>173</ele>
        <time>2017-03-17T09:20:21Z</time>
      </trkpt>
      <trkpt lat="45.94346" lon="4.72432">
        <ele>173</ele>
        <time>2017-03-17T09:20:22Z</time>
      </trkpt>
      <trkpt lat="45.9435" lon="4.72438">
        <ele>173</ele>
        <time>2017-03-17T09:20:23Z</time>
      </trkpt>
      <trkpt lat="45.94353" lon="4.72445">
        <ele>173</ele>
        <time>2017-03-17T09:20:24Z</time>
      </trkpt>
      <trkpt lat="45.94356" lon="4.72452">
        <ele>173</ele>
        <time>2017-03-17T09:20:25Z</time>
      </trkpt>
      <trkpt lat="45.94359" lon="4.72459">
        <ele>173</ele>
        <time>2017-03-17T09:20:26Z</time>
      </trkpt>
      <trkpt lat="45.94362" lon="4.72467">
        <ele>173</ele>
        <time>2017-03-17T09:20:27Z</time>
      </trkpt>
      <trkpt lat="45.94365" lon="4.72474">
        <ele>173</ele>
        <time>2017-03-17T09:20:28Z</time>
      </trkpt>
      <trkpt lat="45.94368" lon="4.72481">
        <ele>173</ele>
        <time>2017-03-17T09:20:29Z</time>
      </trkpt>
      <trkpt lat="45.94371" lon="4.72489">
        <ele>173</ele>
        <time>2017-03-17T09:20:30Z</time>
      </trkpt>
      <trkpt lat="45.94374" lon="4.72497">
        <ele>173</ele>
        <time>2017-03-17T09:20:31Z</time>
      </trkpt>
      <trkpt lat="45.94377" lon="4.72505">
        <ele>174</ele>
        <time>2017-03-17T09:20:32Z</time>
      </trkpt>
      <trkpt lat="45.94379" lon="4.72513">
        <ele>174</ele>
        <time>2017-03-17T09:20:33Z</time>
      </trkpt>
      <trkpt lat="45.94381" lon="4.72521">
        <ele>174</ele>
        <time>2017-03-17T09:20:34Z</time>
      </trkpt>
      <trkpt lat="45.94383" lon="4.72528">
        <ele>174</ele>
        <time>2017-03-17T09:20:35Z</time>
      </trkpt>
      <trkpt lat="45.94386" lon="4.72536">
        <ele>174</ele>
        <time>2017-03-17T09:20:36Z</time>
      </trkpt>
      <trkpt lat="45.94388" lon="4.72543">
        <ele>173</ele>
        <time>2017-03-17T09:20:37Z</time>
      </trkpt>
      <trkpt lat="45.94389" lon="4.7255">
        <ele>173</ele>
        <time>2017-03-17T09:20:38Z</time>
      </trkpt>
      <trkpt lat="45.9439" lon="4.72557">
        <ele>173</ele>
        <time>2017-03-17T09:20:39Z</time>
      </trkpt>
      <trkpt lat="45.94392" lon="4.72564">
        <ele>173</ele>
        <time>2017-03-17T09:20:40Z</time>
      </trkpt>
      <trkpt lat="45.94393" lon="4.72571">
        <ele>173</ele>
        <time>2017-03-17T09:20:41Z</time>
      </trkpt>
      <trkpt lat="45.94394" lon="4.72578">
        <ele>173</ele>
        <time>2017-03-17T09:20:42Z</time>
      </trkpt>
      <trkpt lat="45.94395" lon="4.72586">
        <ele>173</ele>
        <time>2017-03-17T09:20:43Z</time>
      </trkpt>
      <trkpt lat="45.94396" lon="4.72594">
        <ele>173</ele>
        <time>2017-03-17T09:20:44Z</time>
      </trkpt>
      <trkpt lat="45.94397" lon="4.72602">
        <ele>173</ele>
        <time>2017-03-17T09:20:45Z</time>
      </trkpt>
      <trkpt lat="45.94398" lon="4.7261">
        <ele>173</ele>
        <time>2017-03-17T09:20:46Z</time>
      </trkpt>
      <trkpt lat="45.94398" lon="4.72618">
        <ele>173</ele>
        <time>2017-03-17T09:20:47Z</time>
      </trkpt>
      <trkpt lat="45.94399" lon="4.72626">
        <ele>174</ele>
        <time>2017-03-17T09:20:48Z</time>
      </trkpt>
      <trkpt lat="45.944" lon="4.72635">
        <ele>174</ele>
        <time>2017-03-17T09:20:49Z</time>
      </trkpt>
      <trkpt lat="45.94401" lon="4.72643">
        <ele>174</ele>
        <time>2017-03-17T09:20:50Z</time>
      </trkpt>
      <trkpt lat="45.94402" lon="4.72651">
        <ele>174</ele>
        <time>2017-03-17T09:20:51Z</time>
      </trkpt>
      <trkpt lat="45.94403" lon="4.72659">
        <ele>174</ele>
        <time>2017-03-17T09:20:52Z</time>
      </trkpt>
      <trkpt lat="45.94404" lon="4.72667">
        <ele>173</ele>
        <time>2017-03-17T09:20:53Z</time>
      </trkpt>
      <trkpt lat="45.94405" lon="4.72675">
        <ele>173</ele>
        <time>2017-03-17T09:20:54Z</time>
      </trkpt>
      <trkpt lat="45.94406" lon="4.72682">
        <ele>173</ele>
        <time>2017-03-17T09:20:55Z</time>
      </trkpt>
      <trkpt lat="45.94407" lon="4.7269">
        <ele>173</ele>
        <time>2017-03-17T09:20:56Z</time>
      </trkpt>
      <trkpt lat="45.94408" lon="4.72697">
        <ele>172</ele>
        <time>2017-03-17T09:20:57Z</time>
      </trkpt>
      <trkpt lat="45.94409" lon="4.72704">
        <ele>172</ele>
        <time>2017-03-17T09:20:58Z</time>
      </trkpt>
      <trkpt lat="45.9441" lon="4.72712">
        <ele>172</ele>
        <time>2017-03-17T09:20:59Z</time>
      </trkpt>
      <trkpt lat="45.94411" lon="4.7272">
        <ele>172</ele>
        <time>2017-03-17T09:21:00Z</time>
      </trkpt>
      <trkpt lat="45.94412" lon="4.72727">
        <ele>172</ele>
        <time>2017-03-17T09:21:01Z</time>
      </trkpt>
      <trkpt lat="45.94412" lon="4.72735">
        <ele>172</ele>
        <time>2017-03-17T09:21:02Z</time>
      </trkpt>
      <trkpt lat="45.94413" lon="4.72742">
        <ele>171</ele>
        <time>2017-03-17T09:21:03Z</time>
      </trkpt>
      <trkpt lat="45.94414" lon="4.72749">
        <ele>171</ele>
        <time>2017-03-17T09:21:04Z</time>
      </trkpt>
      <trkpt lat="45.94415" lon="4.72755">
        <ele>170</ele>
        <time>2017-03-17T09:21:05Z</time>
      </trkpt>
      <trkpt lat="45.94417" lon="4.72762">
        <ele>169</ele>
        <time>2017-03-17T09:21:06Z</time>
      </trkpt>
      <trkpt lat="45.94419" lon="4.7277">
        <ele>169</ele>
        <time>2017-03-17T09:21:07Z</time>
      </trkpt>
      <trkpt lat="45.9442" lon="4.72777">
        <ele>168</ele>
        <time>2017-03-17T09:21:08Z</time>
      </trkpt>
      <trkpt lat="45.9442" lon="4.72784">
        <ele>168</ele>
        <time>2017-03-17T09:21:09Z</time>
      </trkpt>
      <trkpt lat="45.94421" lon="4.72791">
        <ele>168</ele>
        <time>2017-03-17T09:21:10Z</time>
      </trkpt>
      <trkpt lat="45.94422" lon="4.72797">
        <ele>167</ele>
        <time>2017-03-17T09:21:11Z</time>
      </trkpt>
      <trkpt lat="45.94423" lon="4.72804">
        <ele>167</ele>
        <time>2017-03-17T09:21:12Z</time>
      </trkpt>
      <trkpt lat="45.94424" lon="4.72811">
        <ele>167</ele>
        <time>2017-03-17T09:21:13Z</time>
      </trkpt>
      <trkpt lat="45.94424" lon="4.72817">
        <ele>167</ele>
        <time>2017-03-17T09:21:14Z</time>
      </trkpt>
      <trkpt lat="45.94425" lon="4.72824">
        <ele>167</ele>
        <time>2017-03-17T09:21:15Z</time>
      </trkpt>
      <trkpt lat="45.94426" lon="4.72831">
        <ele>166</ele>
        <time>2017-03-17T09:21:16Z</time>
      </trkpt>
      <trkpt lat="45.94427" lon="4.72837">
        <ele>166</ele>
        <time>2017-03-17T09:21:17Z</time>
      </trkpt>
      <trkpt lat="45.94427" lon="4.72843">
        <ele>166</ele>
        <time>2017-03-17T09:21:18Z</time>
      </trkpt>
      <trkpt lat="45.94428" lon="4.7285">
        <ele>166</ele>
        <time>2017-03-17T09:21:19Z</time>
      </trkpt>
      <trkpt lat="45.94429" lon="4.72856">
        <ele>166</ele>
        <time>2017-03-17T09:21:20Z</time>
      </trkpt>
      <trkpt lat="45.9443" lon="4.72863">
        <ele>166</ele>
        <time>2017-03-17T09:21:21Z</time>
      </trkpt>
      <trkpt lat="45.94431" lon="4.72869">
        <ele>166</ele>
        <time>2017-03-17T09:21:22Z</time>
      </trkpt>
      <trkpt lat="45.94433" lon="4.72881">
        <ele>166</ele>
        <time>2017-03-17T09:21:24Z</time>
      </trkpt>
      <trkpt lat="45.94434" lon="4.72887">
        <ele>166</ele>
        <time>2017-03-17T09:21:25Z</time>
      </trkpt>
      <trkpt lat="45.94435" lon="4.729">
        <ele>166</ele>
        <time>2017-03-17T09:21:27Z</time>
      </trkpt>
      <trkpt lat="45.94436" lon="4.72906">
        <ele>166</ele>
        <time>2017-03-17T09:21:28Z</time>
      </trkpt>
      <trkpt lat="45.94438" lon="4.72918">
        <ele>167</ele>
        <time>2017-03-17T09:21:30Z</time>
      </trkpt>
      <trkpt lat="45.94439" lon="4.72925">
        <ele>167</ele>
        <time>2017-03-17T09:21:31Z</time>
      </trkpt>
      <trkpt lat="45.9444" lon="4.72931">
        <ele>167</ele>
        <time>2017-03-17T09:21:32Z</time>
      </trkpt>
      <trkpt lat="45.94441" lon="4.72938">
        <ele>167</ele>
        <time>2017-03-17T09:21:33Z</time>
      </trkpt>
      <trkpt lat="45.94441" lon="4.72946">
        <ele>167</ele>
        <time>2017-03-17T09:21:34Z</time>
      </trkpt>
      <trkpt lat="45.94442" lon="4.72953">
        <ele>167</ele>
        <time>2017-03-17T09:21:35Z</time>
      </trkpt>
      <trkpt lat="45.94443" lon="4.72961">
        <ele>167</ele>
        <time>2017-03-17T09:21:36Z</time>
      </trkpt>
      <trkpt lat="45.94444" lon="4.7297">
        <ele>167</ele>
        <time>2017-03-17T09:21:37Z</time>
      </trkpt>
      <trkpt lat="45.94445" lon="4.72978">
        <ele>167</ele>
        <time>2017-03-17T09:21:38Z</time>
      </trkpt>
      <trkpt lat="45.94446" lon="4.72987">
        <ele>167</ele>
        <time>2017-03-17T09:21:39Z</time>
      </trkpt>
      <trkpt lat="45.94447" lon="4.72996">
        <ele>167</ele>
        <time>2017-03-17T09:21:40Z</time>
      </trkpt>
      <trkpt lat="45.94448" lon="4.73005">
        <ele>169</ele>
        <time>2017-03-17T09:21:41Z</time>
      </trkpt>
      <trkpt lat="45.9445" lon="4.73014">
        <ele>169</ele>
        <time>2017-03-17T09:21:42Z</time>
      </trkpt>
      <trkpt lat="45.94451" lon="4.73024">
        <ele>169</ele>
        <time>2017-03-17T09:21:43Z</time>
      </trkpt>
      <trkpt lat="45.94452" lon="4.73033">
        <ele>169</ele>
        <time>2017-03-17T09:21:44Z</time>
      </trkpt>
      <trkpt lat="45.94454" lon="4.73043">
        <ele>169</ele>
        <time>2017-03-17T09:21:45Z</time>
      </trkpt>
      <trkpt lat="45.94455" lon="4.73053">
        <ele>170</ele>
        <time>2017-03-17T09:21:46Z</time>
      </trkpt>
      <trkpt lat="45.94456" lon="4.73064">
        <ele>170</ele>
        <time>2017-03-17T09:21:47Z</time>
      </trkpt>
      <trkpt lat="45.94458" lon="4.73074">
        <ele>170</ele>
        <time>2017-03-17T09:21:48Z</time>
      </trkpt>
      <trkpt lat="45.94459" lon="4.73084">
        <ele>171</ele>
        <time>2017-03-17T09:21:49Z</time>
      </trkpt>
      <trkpt lat="45.9446" lon="4.73094">
        <ele>171</ele>
        <time>2017-03-17T09:21:50Z</time>
      </trkpt>
      <trkpt lat="45.94462" lon="4.73103">
        <ele>172</ele>
        <time>2017-03-17T09:21:51Z</time>
      </trkpt>
      <trkpt lat="45.94463" lon="4.73113">
        <ele>172</ele>
        <time>2017-03-17T09:21:52Z</time>
      </trkpt>
      <trkpt lat="45.94465" lon="4.73122">
        <ele>172</ele>
        <time>2017-03-17T09:21:53Z</time>
      </trkpt>
      <trkpt lat="45.94466" lon="4.7313">
        <ele>172</ele>
        <time>2017-03-17T09:21:54Z</time>
      </trkpt>
      <trkpt lat="45.94467" lon="4.73138">
        <ele>172</ele>
        <time>2017-03-17T09:21:55Z</time>
      </trkpt>
      <trkpt lat="45.94469" lon="4.73146">
        <ele>172</ele>
        <time>2017-03-17T09:21:56Z</time>
      </trkpt>
      <trkpt lat="45.9447" lon="4.73154">
        <ele>172</ele>
        <time>2017-03-17T09:21:57Z</time>
      </trkpt>
      <trkpt lat="45.94471" lon="4.73162">
        <ele>172</ele>
        <time>2017-03-17T09:21:58Z</time>
      </trkpt>
      <trkpt lat="45.94472" lon="4.7317">
        <ele>174</ele>
        <time>2017-03-17T09:21:59Z</time>
      </trkpt>
      <trkpt lat="45.94473" lon="4.73178">
        <ele>174</ele>
        <time>2017-03-17T09:22:00Z</time>
      </trkpt>
      <trkpt lat="45.94474" lon="4.73186">
        <ele>174</ele>
        <time>2017-03-17T09:22:01Z</time>
      </trkpt>
      <trkpt lat="45.94475" lon="4.73195">
        <ele>174</ele>
        <time>2017-03-17T09:22:02Z</time>
      </trkpt>
      <trkpt lat="45.94476" lon="4.73203">
        <ele>175</ele>
        <time>2017-03-17T09:22:03Z</time>
      </trkpt>
      <trkpt lat="45.94477" lon="4.73211">
        <ele>175</ele>
        <time>2017-03-17T09:22:04Z</time>
      </trkpt>
      <trkpt lat="45.94478" lon="4.73219">
        <ele>175</ele>
        <time>2017-03-17T09:22:05Z</time>
      </trkpt>
      <trkpt lat="45.94479" lon="4.73226">
        <ele>175</ele>
        <time>2017-03-17T09:22:06Z</time>
      </trkpt>
      <trkpt lat="45.9448" lon="4.73233">
        <ele>175</ele>
        <time>2017-03-17T09:22:07Z</time>
      </trkpt>
      <trkpt lat="45.94481" lon="4.73239">
        <ele>175</ele>
        <time>2017-03-17T09:22:08Z</time>
      </trkpt>
      <trkpt lat="45.94482" lon="4.73246">
        <ele>175</ele>
        <time>2017-03-17T09:22:09Z</time>
      </trkpt>
      <trkpt lat="45.94482" lon="4.73258">
        <ele>176</ele>
        <time>2017-03-17T09:22:11Z</time>
      </trkpt>
      <trkpt lat="45.94483" lon="4.73265">
        <ele>177</ele>
        <time>2017-03-17T09:22:12Z</time>
      </trkpt>
      <trkpt lat="45.94484" lon="4.73271">
        <ele>177</ele>
        <time>2017-03-17T09:22:13Z</time>
      </trkpt>
      <trkpt lat="45.94485" lon="4.73277">
        <ele>177</ele>
        <time>2017-03-17T09:22:14Z</time>
      </trkpt>
      <trkpt lat="45.94487" lon="4.73284">
        <ele>177</ele>
        <time>2017-03-17T09:22:15Z</time>
      </trkpt>
      <trkpt lat="45.94488" lon="4.73291">
        <ele>177</ele>
        <time>2017-03-17T09:22:16Z</time>
      </trkpt>
      <trkpt lat="45.94489" lon="4.73298">
        <ele>177</ele>
        <time>2017-03-17T09:22:17Z</time>
      </trkpt>
      <trkpt lat="45.9449" lon="4.73305">
        <ele>177</ele>
        <time>2017-03-17T09:22:18Z</time>
      </trkpt>
      <trkpt lat="45.94491" lon="4.73312">
        <ele>177</ele>
        <time>2017-03-17T09:22:19Z</time>
      </trkpt>
      <trkpt lat="45.94492" lon="4.73319">
        <ele>177</ele>
        <time>2017-03-17T09:22:20Z</time>
      </trkpt>
      <trkpt lat="45.94492" lon="4.73326">
        <ele>177</ele>
        <time>2017-03-17T09:22:21Z</time>
      </trkpt>
      <trkpt lat="45.94493" lon="4.73333">
        <ele>177</ele>
        <time>2017-03-17T09:22:22Z</time>
      </trkpt>
      <trkpt lat="45.94493" lon="4.73339">
        <ele>178</ele>
        <time>2017-03-17T09:22:23Z</time>
      </trkpt>
      <trkpt lat="45.94494" lon="4.73346">
        <ele>178</ele>
        <time>2017-03-17T09:22:24Z</time>
      </trkpt>
      <trkpt lat="45.94494" lon="4.73353">
        <ele>178</ele>
        <time>2017-03-17T09:22:25Z</time>
      </trkpt>
      <trkpt lat="45.94495" lon="4.7336">
        <ele>179</ele>
        <time>2017-03-17T09:22:26Z</time>
      </trkpt>
      <trkpt lat="45.94495" lon="4.73366">
        <ele>179</ele>
        <time>2017-03-17T09:22:27Z</time>
      </trkpt>
      <trkpt lat="45.94496" lon="4.73373">
        <ele>179</ele>
        <time>2017-03-17T09:22:28Z</time>
      </trkpt>
      <trkpt lat="45.94497" lon="4.73385">
        <ele>179</ele>
        <time>2017-03-17T09:22:30Z</time>
      </trkpt>
      <trkpt lat="45.94497" lon="4.73392">
        <ele>179</ele>
        <time>2017-03-17T09:22:31Z</time>
      </trkpt>
      <trkpt lat="45.94497" lon="4.73398">
        <ele>180</ele>
        <time>2017-03-17T09:22:32Z</time>
      </trkpt>
      <trkpt lat="45.94497" lon="4.73405">
        <ele>180</ele>
        <time>2017-03-17T09:22:33Z</time>
      </trkpt>
      <trkpt lat="45.94497" lon="4.73411">
        <ele>180</ele>
        <time>2017-03-17T09:22:34Z</time>
      </trkpt>
      <trkpt lat="45.94498" lon="4.73418">
        <ele>180</ele>
        <time>2017-03-17T09:22:35Z</time>
      </trkpt>
      <trkpt lat="45.94498" lon="4.7343">
        <ele>181</ele>
        <time>2017-03-17T09:22:37Z</time>
      </trkpt>
      <trkpt lat="45.94499" lon="4.73436">
        <ele>181</ele>
        <time>2017-03-17T09:22:38Z</time>
      </trkpt>
      <trkpt lat="45.94499" lon="4.73448">
        <ele>182</ele>
        <time>2017-03-17T09:22:40Z</time>
      </trkpt>
      <trkpt lat="45.94499" lon="4.73454">
        <ele>182</ele>
        <time>2017-03-17T09:22:41Z</time>
      </trkpt>
      <trkpt lat="45.94499" lon="4.73466">
        <ele>182</ele>
        <time>2017-03-17T09:22:43Z</time>
      </trkpt>
      <trkpt lat="45.945" lon="4.73472">
        <ele>182</ele>
        <time>2017-03-17T09:22:44Z</time>
      </trkpt>
      <trkpt lat="45.94501" lon="4.73484">
        <ele>182</ele>
        <time>2017-03-17T09:22:46Z</time>
      </trkpt>
      <trkpt lat="45.94502" lon="4.7349">
        <ele>182</ele>
        <time>2017-03-17T09:22:47Z</time>
      </trkpt>
      <trkpt lat="45.94502" lon="4.73502">
        <ele>183</ele>
        <time>2017-03-17T09:22:49Z</time>
      </trkpt>
      <trkpt lat="45.94502" lon="4.73508">
        <ele>183</ele>
        <time>2017-03-17T09:22:50Z</time>
      </trkpt>
      <trkpt lat="45.94501" lon="4.7352">
        <ele>183</ele>
        <time>2017-03-17T09:22:52Z</time>
      </trkpt>
      <trkpt lat="45.94501" lon="4.73526">
        <ele>183</ele>
        <time>2017-03-17T09:22:53Z</time>
      </trkpt>
      <trkpt lat="45.94501" lon="4.73537">
        <ele>183</ele>
        <time>2017-03-17T09:22:55Z</time>
      </trkpt>
      <trkpt lat="45.94501" lon="4.73543">
        <ele>183</ele>
        <time>2017-03-17T09:22:56Z</time>
      </trkpt>
      <trkpt lat="45.94501" lon="4.73555">
        <ele>183</ele>
        <time>2017-03-17T09:22:58Z</time>
      </trkpt>
      <trkpt lat="45.94501" lon="4.73561">
        <ele>184</ele>
        <time>2017-03-17T09:22:59Z</time>
      </trkpt>
      <trkpt lat="45.945" lon="4.73574">
        <ele>184</ele>
        <time>2017-03-17T09:23:01Z</time>
      </trkpt>
      <trkpt lat="45.94501" lon="4.7358">
        <ele>185</ele>
        <time>2017-03-17T09:23:02Z</time>
      </trkpt>
      <trkpt lat="45.94501" lon="4.73592">
        <ele>185</ele>
        <time>2017-03-17T09:23:04Z</time>
      </trkpt>
      <trkpt lat="45.94501" lon="4.73599">
        <ele>184</ele>
        <time>2017-03-17T09:23:05Z</time>
      </trkpt>
      <trkpt lat="45.945" lon="4.73606">
        <ele>184</ele>
        <time>2017-03-17T09:23:06Z</time>
      </trkpt>
      <trkpt lat="45.945" lon="4.73612">
        <ele>186</ele>
        <time>2017-03-17T09:23:07Z</time>
      </trkpt>
      <trkpt lat="45.94498" lon="4.73619">
        <ele>186</ele>
        <time>2017-03-17T09:23:08Z</time>
      </trkpt>
      <trkpt lat="45.94498" lon="4.73625">
        <ele>186</ele>
        <time>2017-03-17T09:23:09Z</time>
      </trkpt>
      <trkpt lat="45.94497" lon="4.73632">
        <ele>186</ele>
        <time>2017-03-17T09:23:10Z</time>
      </trkpt>
      <trkpt lat="45.94496" lon="4.73638">
        <ele>186</ele>
        <time>2017-03-17T09:23:11Z</time>
      </trkpt>
      <trkpt lat="45.94495" lon="4.73645">
        <ele>186</ele>
        <time>2017-03-17T09:23:12Z</time>
      </trkpt>
      <trkpt lat="45.94493" lon="4.73651">
        <ele>185</ele>
        <time>2017-03-17T09:23:13Z</time>
      </trkpt>
      <trkpt lat="45.94492" lon="4.73658">
        <ele>185</ele>
        <time>2017-03-17T09:23:14Z</time>
      </trkpt>
      <trkpt lat="45.94491" lon="4.73665">
        <ele>185</ele>
        <time>2017-03-17T09:23:15Z</time>
      </trkpt>
      <trkpt lat="45.9449" lon="4.73672">
        <ele>185</ele>
        <time>2017-03-17T09:23:16Z</time>
      </trkpt>
      <trkpt lat="45.9449" lon="4.7368">
        <ele>186</ele>
        <time>2017-03-17T09:23:17Z</time>
      </trkpt>
      <trkpt lat="45.94489" lon="4.73687">
        <ele>186</ele>
        <time>2017-03-17T09:23:18Z</time>
      </trkpt>
      <trkpt lat="45.94488" lon="4.73695">
        <ele>186</ele>
        <time>2017-03-17T09:23:19Z</time>
      </trkpt>
      <trkpt lat="45.94487" lon="4.73703">
        <ele>186</ele>
        <time>2017-03-17T09:23:20Z</time>
      </trkpt>
      <trkpt lat="45.94486" lon="4.7371">
        <ele>186</ele>
        <time>2017-03-17T09:23:21Z</time>
      </trkpt>
      <trkpt lat="45.94485" lon="4.73718">
        <ele>186</ele>
        <time>2017-03-17T09:23:22Z</time>
      </trkpt>
      <trkpt lat="45.94484" lon="4.73725">
        <ele>186</ele>
        <time>2017-03-17T09:23:23Z</time>
      </trkpt>
      <trkpt lat="45.94483" lon="4.73732">
        <ele>186</ele>
        <time>2017-03-17T09:23:24Z</time>
      </trkpt>
      <trkpt lat="45.94482" lon="4.73739">
        <ele>186</ele>
        <time>2017-03-17T09:23:25Z</time>
      </trkpt>
      <trkpt lat="45.9448" lon="4.73746">
        <ele>186</ele>
        <time>2017-03-17T09:23:26Z</time>
      </trkpt>
      <trkpt lat="45.94478" lon="4.73753">
        <ele>186</ele>
        <time>2017-03-17T09:23:27Z</time>
      </trkpt>
      <trkpt lat="45.94478" lon="4.7376">
        <ele>186</ele>
        <time>2017-03-17T09:23:28Z</time>
      </trkpt>
      <trkpt lat="45.94479" lon="4.73767">
        <ele>186</ele>
        <time>2017-03-17T09:23:29Z</time>
      </trkpt>
      <trkpt lat="45.94482" lon="4.73773">
        <ele>186</ele>
        <time>2017-03-17T09:23:30Z</time>
      </trkpt>
      <trkpt lat="45.94486" lon="4.73776">
        <ele>186</ele>
        <time>2017-03-17T09:23:31Z</time>
      </trkpt>
      <trkpt lat="45.9449" lon="4.73779">
        <ele>186</ele>
        <time>2017-03-17T09:23:32Z</time>
      </trkpt>
      <trkpt lat="45.94495" lon="4.73783">
        <ele>186</ele>
        <time>2017-03-17T09:23:33Z</time>
      </trkpt>
      <trkpt lat="45.94499" lon="4.73787">
        <ele>186</ele>
        <time>2017-03-17T09:23:34Z</time>
      </trkpt>
      <trkpt lat="45.94504" lon="4.73792">
        <ele>186</ele>
        <time>2017-03-17T09:23:35Z</time>
      </trkpt>
      <trkpt lat="45.94508" lon="4.73795">
        <ele>186</ele>
        <time>2017-03-17T09:23:36Z</time>
      </trkpt>
      <trkpt lat="45.94513" lon="4.738">
        <ele>186</ele>
        <time>2017-03-17T09:23:37Z</time>
      </trkpt>
      <trkpt lat="45.94517" lon="4.73803">
        <ele>186</ele>
        <time>2017-03-17T09:23:38Z</time>
      </trkpt>
      <trkpt lat="45.94521" lon="4.73808">
        <ele>186</ele>
        <time>2017-03-17T09:23:39Z</time>
      </trkpt>
      <trkpt lat="45.94525" lon="4.73812">
        <ele>186</ele>
        <time>2017-03-17T09:23:40Z</time>
      </trkpt>
      <trkpt lat="45.94529" lon="4.73816">
        <ele>186</ele>
        <time>2017-03-17T09:23:41Z</time>
      </trkpt>
      <trkpt lat="45.94533" lon="4.7382">
        <ele>186</ele>
        <time>2017-03-17T09:23:42Z</time>
      </trkpt>
      <trkpt lat="45.94537" lon="4.73824">
        <ele>186</ele>
        <time>2017-03-17T09:23:43Z</time>
      </trkpt>
      <trkpt lat="45.94541" lon="4.73828">
        <ele>186</ele>
        <time>2017-03-17T09:23:44Z</time>
      </trkpt>
      <trkpt lat="45.94545" lon="4.73832">
        <ele>186</ele>
        <time>2017-03-17T09:23:45Z</time>
      </trkpt>
      <trkpt lat="45.94549" lon="4.73836">
        <ele>186</ele>
        <time>2017-03-17T09:23:46Z</time>
      </trkpt>
      <trkpt lat="45.94553" lon="4.73841">
        <ele>186</ele>
        <time>2017-03-17T09:23:47Z</time>
      </trkpt>
      <trkpt lat="45.94557" lon="4.73845">
        <ele>186</ele>
        <time>2017-03-17T09:23:48Z</time>
      </trkpt>
      <trkpt lat="45.94561" lon="4.73849">
        <ele>186</ele>
        <time>2017-03-17T09:23:49Z</time>
      </trkpt>
      <trkpt lat="45.94565" lon="4.73853">
        <ele>186</ele>
        <time>2017-03-17T09:23:50Z</time>
      </trkpt>
      <trkpt lat="45.94569" lon="4.73858">
        <ele>186</ele>
        <time>2017-03-17T09:23:51Z</time>
      </trkpt>
      <trkpt lat="45.94573" lon="4.73862">
        <ele>186</ele>
        <time>2017-03-17T09:23:52Z</time>
      </trkpt>
      <trkpt lat="45.94577" lon="4.73866">
        <ele>186</ele>
        <time>2017-03-17T09:23:53Z</time>
      </trkpt>
      <trkpt lat="45.94581" lon="4.73871">
        <ele>186</ele>
        <time>2017-03-17T09:23:54Z</time>
      </trkpt>
      <trkpt lat="45.94585" lon="4.73875">
        <ele>187</ele>
        <time>2017-03-17T09:23:55Z</time>
      </trkpt>
      <trkpt lat="45.94589" lon="4.7388">
        <ele>187</ele>
        <time>2017-03-17T09:23:56Z</time>
      </trkpt>
      <trkpt lat="45.94593" lon="4.73884">
        <ele>187</ele>
        <time>2017-03-17T09:23:57Z</time>
      </trkpt>
      <trkpt lat="45.94597" lon="4.73888">
        <ele>187</ele>
        <time>2017-03-17T09:23:58Z</time>
      </trkpt>
      <trkpt lat="45.94601" lon="4.73893">
        <ele>187</ele>
        <time>2017-03-17T09:23:59Z</time>
      </trkpt>
      <trkpt lat="45.94604" lon="4.73897">
        <ele>187</ele>
        <time>2017-03-17T09:24:00Z</time>
      </trkpt>
      <trkpt lat="45.94608" lon="4.73902">
        <ele>187</ele>
        <time>2017-03-17T09:24:01Z</time>
      </trkpt>
      <trkpt lat="45.94612" lon="4.73907">
        <ele>187</ele>
        <time>2017-03-17T09:24:02Z</time>
      </trkpt>
      <trkpt lat="45.94616" lon="4.73911">
        <ele>187</ele>
        <time>2017-03-17T09:24:03Z</time>
      </trkpt>
      <trkpt lat="45.9462" lon="4.73916">
        <ele>187</ele>
        <time>2017-03-17T09:24:04Z</time>
      </trkpt>
      <trkpt lat="45.94624" lon="4.73921">
        <ele>187</ele>
        <time>2017-03-17T09:24:05Z</time>
      </trkpt>
      <trkpt lat="45.94627" lon="4.73925">
        <ele>187</ele>
        <time>2017-03-17T09:24:06Z</time>
      </trkpt>
      <trkpt lat="45.94631" lon="4.7393">
        <ele>187</ele>
        <time>2017-03-17T09:24:07Z</time>
      </trkpt>
      <trkpt lat="45.94634" lon="4.73935">
        <ele>187</ele>
        <time>2017-03-17T09:24:08Z</time>
      </trkpt>
      <trkpt lat="45.94638" lon="4.7394">
        <ele>187</ele>
        <time>2017-03-17T09:24:09Z</time>
      </trkpt>
      <trkpt lat="45.94642" lon="4.73944">
        <ele>187</ele>
        <time>2017-03-17T09:24:10Z</time>
      </trkpt>
      <trkpt lat="45.94645" lon="4.73949">
        <ele>187</ele>
        <time>2017-03-17T09:24:11Z</time>
      </trkpt>
      <trkpt lat="45.94649" lon="4.73954">
        <ele>187</ele>
        <time>2017-03-17T09:24:12Z</time>
      </trkpt>
      <trkpt lat="45.94653" lon="4.73959">
        <ele>187</ele>
        <time>2017-03-17T09:24:13Z</time>
      </trkpt>
      <trkpt lat="45.94656" lon="4.73964">
        <ele>187</ele>
        <time>2017-03-17T09:24:14Z</time>
      </trkpt>
      <trkpt lat="45.9466" lon="4.73969">
        <ele>187</ele>
        <time>2017-03-17T09:24:15Z</time>
      </trkpt>
      <trkpt lat="45.94664" lon="4.73973">
        <ele>187</ele>
        <time>2017-03-17T09:24:16Z</time>
      </trkpt>
      <trkpt lat="45.94667" lon="4.73978">
        <ele>187</ele>
        <time>2017-03-17T09:24:17Z</time>
      </trkpt>
      <trkpt lat="45.94671" lon="4.73984">
        <ele>187</ele>
        <time>2017-03-17T09:24:18Z</time>
      </trkpt>
      <trkpt lat="45.94675" lon="4.73989">
        <ele>187</ele>
        <time>2017-03-17T09:24:19Z</time>
      </trkpt>
      <trkpt lat="45.94679" lon="4.73994">
        <ele>187</ele>
        <time>2017-03-17T09:24:20Z</time>
      </trkpt>
      <trkpt lat="45.94683" lon="4.73999">
        <ele>187</ele>
        <time>2017-03-17T09:24:21Z</time>
      </trkpt>
      <trkpt lat="45.94687" lon="4.74005">
        <ele>187</ele>
        <time>2017-03-17T09:24:22Z</time>
      </trkpt>
      <trkpt lat="45.9469" lon="4.7401">
        <ele>187</ele>
        <time>2017-03-17T09:24:23Z</time>
      </trkpt>
      <trkpt lat="45.94694" lon="4.74015">
        <ele>187</ele>
        <time>2017-03-17T09:24:24Z</time>
      </trkpt>
      <trkpt lat="45.94698" lon="4.7402">
        <ele>187</ele>
        <time>2017-03-17T09:24:25Z</time>
      </trkpt>
      <trkpt lat="45.94701" lon="4.74025">
        <ele>187</ele>
        <time>2017-03-17T09:24:26Z</time>
      </trkpt>
      <trkpt lat="45.94705" lon="4.7403">
        <ele>187</ele>
        <time>2017-03-17T09:24:27Z</time>
      </trkpt>
      <trkpt lat="45.94708" lon="4.74034">
        <ele>187</ele>
        <time>2017-03-17T09:24:28Z</time>
      </trkpt>
      <trkpt lat="45.94712" lon="4.74039">
        <ele>187</ele>
        <time>2017-03-17T09:24:29Z</time>
      </trkpt>
      <trkpt lat="45.94716" lon="4.74044">
        <ele>187</ele>
        <time>2017-03-17T09:24:30Z</time>
      </trkpt>
      <trkpt lat="45.9472" lon="4.74049">
        <ele>187</ele>
        <time>2017-03-17T09:24:31Z</time>
      </trkpt>
      <trkpt lat="45.94724" lon="4.74054">
        <ele>188</ele>
        <time>2017-03-17T09:24:32Z</time>
      </trkpt>
      <trkpt lat="45.94727" lon="4.74059">
        <ele>188</ele>
        <time>2017-03-17T09:24:33Z</time>
      </trkpt>
      <trkpt lat="45.94732" lon="4.74065">
        <ele>188</ele>
        <time>2017-03-17T09:24:34Z</time>
      </trkpt>
      <trkpt lat="45.94735" lon="4.7407">
        <ele>188</ele>
        <time>2017-03-17T09:24:35Z</time>
      </trkpt>
      <trkpt lat="45.9474" lon="4.74075">
        <ele>188</ele>
        <time>2017-03-17T09:24:36Z</time>
      </trkpt>
      <trkpt lat="45.94743" lon="4.74081">
        <ele>189</ele>
        <time>2017-03-17T09:24:37Z</time>
      </trkpt>
      <trkpt lat="45.94747" lon="4.74086">
        <ele>189</ele>
        <time>2017-03-17T09:24:38Z</time>
      </trkpt>
      <trkpt lat="45.94751" lon="4.74091">
        <ele>189</ele>
        <time>2017-03-17T09:24:39Z</time>
      </trkpt>
      <trkpt lat="45.94755" lon="4.74096">
        <ele>189</ele>
        <time>2017-03-17T09:24:40Z</time>
      </trkpt>
      <trkpt lat="45.94758" lon="4.74101">
        <ele>189</ele>
        <time>2017-03-17T09:24:41Z</time>
      </trkpt>
      <trkpt lat="45.94761" lon="4.74106">
        <ele>189</ele>
        <time>2017-03-17T09:24:42Z</time>
      </trkpt>
      <trkpt lat="45.94765" lon="4.7411">
        <ele>189</ele>
        <time>2017-03-17T09:24:43Z</time>
      </trkpt>
      <trkpt lat="45.94768" lon="4.74115">
        <ele>189</ele>
        <time>2017-03-17T09:24:44Z</time>
      </trkpt>
      <trkpt lat="45.94771" lon="4.74119">
        <ele>189</ele>
        <time>2017-03-17T09:24:45Z</time>
      </trkpt>
      <trkpt lat="45.94775" lon="4.74124">
        <ele>189</ele>
        <time>2017-03-17T09:24:46Z</time>
      </trkpt>
      <trkpt lat="45.94778" lon="4.74128">
        <ele>189</ele>
        <time>2017-03-17T09:24:47Z</time>
      </trkpt>
      <trkpt lat="45.94781" lon="4.74133">
        <ele>189</ele>
        <time>2017-03-17T09:24:48Z</time>
      </trkpt>
      <trkpt lat="45.94785" lon="4.74138">
        <ele>189</ele>
        <time>2017-03-17T09:24:49Z</time>
      </trkpt>
      <trkpt lat="45.94788" lon="4.74143">
        <ele>189</ele>
        <time>2017-03-17T09:24:50Z</time>
      </trkpt>
      <trkpt lat="45.94791" lon="4.74148">
        <ele>189</ele>
        <time>2017-03-17T09:24:51Z</time>
      </trkpt>
      <trkpt lat="45.94794" lon="4.74154">
        <ele>189</ele>
        <time>2017-03-17T09:24:52Z</time>
      </trkpt>
      <trkpt lat="45.94798" lon="4.74159">
        <ele>189</ele>
        <time>2017-03-17T09:24:53Z</time>
      </trkpt>
      <trkpt lat="45.94801" lon="4.74164">
        <ele>189</ele>
        <time>2017-03-17T09:24:54Z</time>
      </trkpt>
      <trkpt lat="45.94804" lon="4.74169">
        <ele>189</ele>
        <time>2017-03-17T09:24:55Z</time>
      </trkpt>
      <trkpt lat="45.94807" lon="4.74175">
        <ele>189</ele>
        <time>2017-03-17T09:24:56Z</time>
      </trkpt>
      <trkpt lat="45.9481" lon="4.74181">
        <ele>189</ele>
        <time>2017-03-17T09:24:57Z</time>
      </trkpt>
      <trkpt lat="45.94813" lon="4.74186">
        <ele>189</ele>
        <time>2017-03-17T09:24:58Z</time>
      </trkpt>
      <trkpt lat="45.94817" lon="4.74192">
        <ele>189</ele>
        <time>2017-03-17T09:24:59Z</time>
      </trkpt>
      <trkpt lat="45.9482" lon="4.74198">
        <ele>189</ele>
        <time>2017-03-17T09:25:00Z</time>
      </trkpt>
      <trkpt lat="45.94823" lon="4.74204">
        <ele>189</ele>
        <time>2017-03-17T09:25:01Z</time>
      </trkpt>
      <trkpt lat="45.94826" lon="4.7421">
        <ele>189</ele>
        <time>2017-03-17T09:25:02Z</time>
      </trkpt>
      <trkpt lat="45.94829" lon="4.74216">
        <ele>188</ele>
        <time>2017-03-17T09:25:03Z</time>
      </trkpt>
      <trkpt lat="45.94832" lon="4.74223">
        <ele>188</ele>
        <time>2017-03-17T09:25:04Z</time>
      </trkpt>
      <trkpt lat="45.94835" lon="4.74229">
        <ele>190</ele>
        <time>2017-03-17T09:25:05Z</time>
      </trkpt>
      <trkpt lat="45.94838" lon="4.74235">
        <ele>190</ele>
        <time>2017-03-17T09:25:06Z</time>
      </trkpt>
      <trkpt lat="45.94841" lon="4.74241">
        <ele>190</ele>
        <time>2017-03-17T09:25:07Z</time>
      </trkpt>
      <trkpt lat="45.94844" lon="4.74247">
        <ele>189</ele>
        <time>2017-03-17T09:25:08Z</time>
      </trkpt>
      <trkpt lat="45.94847" lon="4.74253">
        <ele>190</ele>
        <time>2017-03-17T09:25:09Z</time>
      </trkpt>
      <trkpt lat="45.9485" lon="4.74259">
        <ele>190</ele>
        <time>2017-03-17T09:25:10Z</time>
      </trkpt>
      <trkpt lat="45.94853" lon="4.74265">
        <ele>190</ele>
        <time>2017-03-17T09:25:11Z</time>
      </trkpt>
      <trkpt lat="45.94857" lon="4.74271">
        <ele>190</ele>
        <time>2017-03-17T09:25:12Z</time>
      </trkpt>
      <trkpt lat="45.9486" lon="4.74277">
        <ele>190</ele>
        <time>2017-03-17T09:25:13Z</time>
      </trkpt>
      <trkpt lat="45.94863" lon="4.74283">
        <ele>191</ele>
        <time>2017-03-17T09:25:14Z</time>
      </trkpt>
      <trkpt lat="45.94866" lon="4.74289">
        <ele>191</ele>
        <time>2017-03-17T09:25:15Z</time>
      </trkpt>
      <trkpt lat="45.94869" lon="4.74295">
        <ele>191</ele>
        <time>2017-03-17T09:25:16Z</time>
      </trkpt>
      <trkpt lat="45.94872" lon="4.74301">
        <ele>191</ele>
        <time>2017-03-17T09:25:17Z</time>
      </trkpt>
      <trkpt lat="45.94875" lon="4.74307">
        <ele>191</ele>
        <time>2017-03-17T09:25:18Z</time>
      </trkpt>
      <trkpt lat="45.94878" lon="4.74313">
        <ele>191</ele>
        <time>2017-03-17T09:25:19Z</time>
      </trkpt>
      <trkpt lat="45.94881" lon="4.74318">
        <ele>191</ele>
        <time>2017-03-17T09:25:20Z</time>
      </trkpt>
      <trkpt lat="45.94884" lon="4.74324">
        <ele>191</ele>
        <time>2017-03-17T09:25:21Z</time>
      </trkpt>
      <trkpt lat="45.94887" lon="4.7433">
        <ele>191</ele>
        <time>2017-03-17T09:25:22Z</time>
      </trkpt>
      <trkpt lat="45.9489" lon="4.74336">
        <ele>191</ele>
        <time>2017-03-17T09:25:23Z</time>
      </trkpt>
      <trkpt lat="45.94893" lon="4.74342">
        <ele>191</ele>
        <time>2017-03-17T09:25:24Z</time>
      </trkpt>
      <trkpt lat="45.94896" lon="4.74348">
        <ele>191</ele>
        <time>2017-03-17T09:25:25Z</time>
      </trkpt>
      <trkpt lat="45.94899" lon="4.74354">
        <ele>191</ele>
        <time>2017-03-17T09:25:26Z</time>
      </trkpt>
      <trkpt lat="45.94902" lon="4.7436">
        <ele>191</ele>
        <time>2017-03-17T09:25:27Z</time>
      </trkpt>
      <trkpt lat="45.94905" lon="4.74365">
        <ele>191</ele>
        <time>2017-03-17T09:25:28Z</time>
      </trkpt>
      <trkpt lat="45.94908" lon="4.74371">
        <ele>191</ele>
        <time>2017-03-17T09:25:29Z</time>
      </trkpt>
      <trkpt lat="45.94912" lon="4.74377">
        <ele>191</ele>
        <time>2017-03-17T09:25:30Z</time>
      </trkpt>
      <trkpt lat="45.94915" lon="4.74383">
        <ele>191</ele>
        <time>2017-03-17T09:25:31Z</time>
      </trkpt>
      <trkpt lat="45.94918" lon="4.74389">
        <ele>192</ele>
        <time>2017-03-17T09:25:32Z</time>
      </trkpt>
      <trkpt lat="45.9492" lon="4.74395">
        <ele>192</ele>
        <time>2017-03-17T09:25:33Z</time>
      </trkpt>
      <trkpt lat="45.94924" lon="4.74401">
        <ele>192</ele>
        <time>2017-03-17T09:25:34Z</time>
      </trkpt>
      <trkpt lat="45.94927" lon="4.74407">
        <ele>192</ele>
        <time>2017-03-17T09:25:35Z</time>
      </trkpt>
      <trkpt lat="45.9493" lon="4.74413">
        <ele>192</ele>
        <time>2017-03-17T09:25:36Z</time>
      </trkpt>
      <trkpt lat="45.94933" lon="4.74419">
        <ele>192</ele>
        <time>2017-03-17T09:25:37Z</time>
      </trkpt>
      <trkpt lat="45.94937" lon="4.74425">
        <ele>192</ele>
        <time>2017-03-17T09:25:38Z</time>
      </trkpt>
      <trkpt lat="45.9494" lon="4.74431">
        <ele>192</ele>
        <time>2017-03-17T09:25:39Z</time>
      </trkpt>
      <trkpt lat="45.94943" lon="4.74437">
        <ele>192</ele>
        <time>2017-03-17T09:25:40Z</time>
      </trkpt>
      <trkpt lat="45.94947" lon="4.74442">
        <ele>192</ele>
        <time>2017-03-17T09:25:41Z</time>
      </trkpt>
      <trkpt lat="45.9495" lon="4.74448">
        <ele>192</ele>
        <time>2017-03-17T09:25:42Z</time>
      </trkpt>
      <trkpt lat="45.94953" lon="4.74453">
        <ele>192</ele>
        <time>2017-03-17T09:25:43Z</time>
      </trkpt>
      <trkpt lat="45.94956" lon="4.74459">
        <ele>193</ele>
        <time>2017-03-17T09:25:44Z</time>
      </trkpt>
      <trkpt lat="45.94958" lon="4.74465">
        <ele>193</ele>
        <time>2017-03-17T09:25:45Z</time>
      </trkpt>
      <trkpt lat="45.94961" lon="4.74471">
        <ele>193</ele>
        <time>2017-03-17T09:25:46Z</time>
      </trkpt>
      <trkpt lat="45.94964" lon="4.74477">
        <ele>193</ele>
        <time>2017-03-17T09:25:47Z</time>
      </trkpt>
      <trkpt lat="45.94967" lon="4.74483">
        <ele>193</ele>
        <time>2017-03-17T09:25:48Z</time>
      </trkpt>
      <trkpt lat="45.9497" lon="4.74489">
        <ele>193</ele>
        <time>2017-03-17T09:25:49Z</time>
      </trkpt>
      <trkpt lat="45.94973" lon="4.74495">
        <ele>193</ele>
        <time>2017-03-17T09:25:50Z</time>
      </trkpt>
      <trkpt lat="45.94975" lon="4.74501">
        <ele>193</ele>
        <time>2017-03-17T09:25:51Z</time>
      </trkpt>
      <trkpt lat="45.94978" lon="4.74507">
        <ele>193</ele>
        <time>2017-03-17T09:25:52Z</time>
      </trkpt>
      <trkpt lat="45.94981" lon="4.74512">
        <ele>193</ele>
        <time>2017-03-17T09:25:53Z</time>
      </trkpt>
      <trkpt lat="45.94984" lon="4.74518">
        <ele>193</ele>
        <time>2017-03-17T09:25:54Z</time>
      </trkpt>
      <trkpt lat="45.94988" lon="4.74524">
        <ele>193</ele>
        <time>2017-03-17T09:25:55Z</time>
      </trkpt>
      <trkpt lat="45.94991" lon="4.7453">
        <ele>193</ele>
        <time>2017-03-17T09:25:56Z</time>
      </trkpt>
      <trkpt lat="45.94994" lon="4.74535">
        <ele>193</ele>
        <time>2017-03-17T09:25:57Z</time>
      </trkpt>
      <trkpt lat="45.94997" lon="4.74541">
        <ele>193</ele>
        <time>2017-03-17T09:25:58Z</time>
      </trkpt>
      <trkpt lat="45.95" lon="4.74547">
        <ele>193</ele>
        <time>2017-03-17T09:25:59Z</time>
      </trkpt>
      <trkpt lat="45.95003" lon="4.74552">
        <ele>194</ele>
        <time>2017-03-17T09:26:00Z</time>
      </trkpt>
      <trkpt lat="45.95006" lon="4.74558">
        <ele>194</ele>
        <time>2017-03-17T09:26:01Z</time>
      </trkpt>
      <trkpt lat="45.95009" lon="4.74563">
        <ele>194</ele>
        <time>2017-03-17T09:26:02Z</time>
      </trkpt>
      <trkpt lat="45.95012" lon="4.74569">
        <ele>194</ele>
        <time>2017-03-17T09:26:03Z</time>
      </trkpt>
      <trkpt lat="45.95015" lon="4.74575">
        <ele>194</ele>
        <time>2017-03-17T09:26:04Z</time>
      </trkpt>
      <trkpt lat="45.95019" lon="4.74581">
        <ele>194</ele>
        <time>2017-03-17T09:26:05Z</time>
      </trkpt>
      <trkpt lat="45.95022" lon="4.74587">
        <ele>194</ele>
        <time>2017-03-17T09:26:06Z</time>
      </trkpt>
      <trkpt lat="45.95026" lon="4.74593">
        <ele>194</ele>
        <time>2017-03-17T09:26:07Z</time>
      </trkpt>
      <trkpt lat="45.95029" lon="4.74599">
        <ele>194</ele>
        <time>2017-03-17T09:26:08Z</time>
      </trkpt>
      <trkpt lat="45.95032" lon="4.74605">
        <ele>194</ele>
        <time>2017-03-17T09:26:09Z</time>
      </trkpt>
      <trkpt lat="45.95035" lon="4.74611">
        <ele>194</ele>
        <time>2017-03-17T09:26:10Z</time>
      </trkpt>
      <trkpt lat="45.95038" lon="4.74616">
        <ele>194</ele>
        <time>2017-03-17T09:26:11Z</time>
      </trkpt>
      <trkpt lat="45.95041" lon="4.74622">
        <ele>194</ele>
        <time>2017-03-17T09:26:12Z</time>
      </trkpt>
      <trkpt lat="45.95044" lon="4.74629">
        <ele>194</ele>
        <time>2017-03-17T09:26:13Z</time>
      </trkpt>
      <trkpt lat="45.95048" lon="4.74635">
        <ele>194</ele>
        <time>2017-03-17T09:26:14Z</time>
      </trkpt>
      <trkpt lat="45.95051" lon="4.74642">
        <ele>194</ele>
        <time>2017-03-17T09:26:15Z</time>
      </trkpt>
      <trkpt lat="45.95054" lon="4.74648">
        <ele>194</ele>
        <time>2017-03-17T09:26:16Z</time>
      </trkpt>
      <trkpt lat="45.95058" lon="4.74654">
        <ele>194</ele>
        <time>2017-03-17T09:26:17Z</time>
      </trkpt>
      <trkpt lat="45.95062" lon="4.7466">
        <ele>195</ele>
        <time>2017-03-17T09:26:18Z</time>
      </trkpt>
      <trkpt lat="45.95065" lon="4.74666">
        <ele>195</ele>
        <time>2017-03-17T09:26:19Z</time>
      </trkpt>
      <trkpt lat="45.95068" lon="4.74672">
        <ele>194</ele>
        <time>2017-03-17T09:26:20Z</time>
      </trkpt>
      <trkpt lat="45.95071" lon="4.74678">
        <ele>194</ele>
        <time>2017-03-17T09:26:21Z</time>
      </trkpt>
      <trkpt lat="45.95074" lon="4.74684">
        <ele>194</ele>
        <time>2017-03-17T09:26:22Z</time>
      </trkpt>
      <trkpt lat="45.95077" lon="4.7469">
        <ele>194</ele>
        <time>2017-03-17T09:26:23Z</time>
      </trkpt>
      <trkpt lat="45.95081" lon="4.74696">
        <ele>194</ele>
        <time>2017-03-17T09:26:24Z</time>
      </trkpt>
      <trkpt lat="45.95084" lon="4.74702">
        <ele>194</ele>
        <time>2017-03-17T09:26:25Z</time>
      </trkpt>
      <trkpt lat="45.95088" lon="4.74708">
        <ele>194</ele>
        <time>2017-03-17T09:26:26Z</time>
      </trkpt>
      <trkpt lat="45.95091" lon="4.74714">
        <ele>194</ele>
        <time>2017-03-17T09:26:27Z</time>
      </trkpt>
      <trkpt lat="45.95094" lon="4.7472">
        <ele>194</ele>
        <time>2017-03-17T09:26:28Z</time>
      </trkpt>
      <trkpt lat="45.95097" lon="4.74725">
        <ele>194</ele>
        <time>2017-03-17T09:26:29Z</time>
      </trkpt>
      <trkpt lat="45.95101" lon="4.74731">
        <ele>194</ele>
        <time>2017-03-17T09:26:30Z</time>
      </trkpt>
      <trkpt lat="45.95104" lon="4.74737">
        <ele>194</ele>
        <time>2017-03-17T09:26:31Z</time>
      </trkpt>
      <trkpt lat="45.95107" lon="4.74742">
        <ele>194</ele>
        <time>2017-03-17T09:26:32Z</time>
      </trkpt>
      <trkpt lat="45.95111" lon="4.74748">
        <ele>194</ele>
        <time>2017-03-17T09:26:33Z</time>
      </trkpt>
      <trkpt lat="45.95114" lon="4.74753">
        <ele>194</ele>
        <time>2017-03-17T09:26:34Z</time>
      </trkpt>
      <trkpt lat="45.95118" lon="4.74759">
        <ele>194</ele>
        <time>2017-03-17T09:26:35Z</time>
      </trkpt>
      <trkpt lat="45.95121" lon="4.74764">
        <ele>194</ele>
        <time>2017-03-17T09:26:36Z</time>
      </trkpt>
      <trkpt lat="45.95124" lon="4.74769">
        <ele>194</ele>
        <time>2017-03-17T09:26:37Z</time>
      </trkpt>
      <trkpt lat="45.95127" lon="4.74774">
        <ele>194</ele>
        <time>2017-03-17T09:26:38Z</time>
      </trkpt>
      <trkpt lat="45.9513" lon="4.74779">
        <ele>194</ele>
        <time>2017-03-17T09:26:39Z</time>
      </trkpt>
      <trkpt lat="45.95134" lon="4.74785">
        <ele>194</ele>
        <time>2017-03-17T09:26:40Z</time>
      </trkpt>
      <trkpt lat="45.95138" lon="4.74791">
        <ele>194</ele>
        <time>2017-03-17T09:26:41Z</time>
      </trkpt>
      <trkpt lat="45.95142" lon="4.74797">
        <ele>194</ele>
        <time>2017-03-17T09:26:42Z</time>
      </trkpt>
      <trkpt lat="45.95146" lon="4.74803">
        <ele>194</ele>
        <time>2017-03-17T09:26:43Z</time>
      </trkpt>
      <trkpt lat="45.9515" lon="4.7481">
        <ele>194</ele>
        <time>2017-03-17T09:26:44Z</time>
      </trkpt>
      <trkpt lat="45.95155" lon="4.74816">
        <ele>194</ele>
        <time>2017-03-17T09:26:45Z</time>
      </trkpt>
      <trkpt lat="45.95159" lon="4.74822">
        <ele>194</ele>
        <time>2017-03-17T09:26:46Z</time>
      </trkpt>
      <trkpt lat="45.95163" lon="4.74828">
        <ele>194</ele>
        <time>2017-03-17T09:26:47Z</time>
      </trkpt>
      <trkpt lat="45.95166" lon="4.74834">
        <ele>194</ele>
        <time>2017-03-17T09:26:48Z</time>
      </trkpt>
      <trkpt lat="45.9517" lon="4.7484">
        <ele>194</ele>
        <time>2017-03-17T09:26:49Z</time>
      </trkpt>
      <trkpt lat="45.95173" lon="4.74846">
        <ele>194</ele>
        <time>2017-03-17T09:26:50Z</time>
      </trkpt>
      <trkpt lat="45.95177" lon="4.74852">
        <ele>194</ele>
        <time>2017-03-17T09:26:51Z</time>
      </trkpt>
      <trkpt lat="45.9518" lon="4.74858">
        <ele>194</ele>
        <time>2017-03-17T09:26:52Z</time>
      </trkpt>
      <trkpt lat="45.95184" lon="4.74863">
        <ele>194</ele>
        <time>2017-03-17T09:26:53Z</time>
      </trkpt>
      <trkpt lat="45.95187" lon="4.74868">
        <ele>194</ele>
        <time>2017-03-17T09:26:54Z</time>
      </trkpt>
      <trkpt lat="45.9519" lon="4.74873">
        <ele>194</ele>
        <time>2017-03-17T09:26:55Z</time>
      </trkpt>
      <trkpt lat="45.95193" lon="4.74879">
        <ele>194</ele>
        <time>2017-03-17T09:26:56Z</time>
      </trkpt>
      <trkpt lat="45.95197" lon="4.74884">
        <ele>194</ele>
        <time>2017-03-17T09:26:57Z</time>
      </trkpt>
      <trkpt lat="45.952" lon="4.74889">
        <ele>194</ele>
        <time>2017-03-17T09:26:58Z</time>
      </trkpt>
      <trkpt lat="45.95204" lon="4.74895">
        <ele>194</ele>
        <time>2017-03-17T09:26:59Z</time>
      </trkpt>
      <trkpt lat="45.95208" lon="4.74901">
        <ele>194</ele>
        <time>2017-03-17T09:27:00Z</time>
      </trkpt>
      <trkpt lat="45.95212" lon="4.74908">
        <ele>193</ele>
        <time>2017-03-17T09:27:01Z</time>
      </trkpt>
      <trkpt lat="45.95215" lon="4.74914">
        <ele>193</ele>
        <time>2017-03-17T09:27:02Z</time>
      </trkpt>
      <trkpt lat="45.95219" lon="4.7492">
        <ele>192</ele>
        <time>2017-03-17T09:27:03Z</time>
      </trkpt>
      <trkpt lat="45.95223" lon="4.74926">
        <ele>192</ele>
        <time>2017-03-17T09:27:04Z</time>
      </trkpt>
      <trkpt lat="45.95226" lon="4.74932">
        <ele>192</ele>
        <time>2017-03-17T09:27:05Z</time>
      </trkpt>
      <trkpt lat="45.9523" lon="4.74938">
        <ele>192</ele>
        <time>2017-03-17T09:27:06Z</time>
      </trkpt>
      <trkpt lat="45.95234" lon="4.74943">
        <ele>192</ele>
        <time>2017-03-17T09:27:07Z</time>
      </trkpt>
      <trkpt lat="45.95238" lon="4.74949">
        <ele>192</ele>
        <time>2017-03-17T09:27:08Z</time>
      </trkpt>
      <trkpt lat="45.95241" lon="4.74955">
        <ele>192</ele>
        <time>2017-03-17T09:27:09Z</time>
      </trkpt>
      <trkpt lat="45.95245" lon="4.74961">
        <ele>191</ele>
        <time>2017-03-17T09:27:10Z</time>
      </trkpt>
      <trkpt lat="45.95249" lon="4.74966">
        <ele>191</ele>
        <time>2017-03-17T09:27:11Z</time>
      </trkpt>
      <trkpt lat="45.95253" lon="4.74973">
        <ele>192</ele>
        <time>2017-03-17T09:27:12Z</time>
      </trkpt>
      <trkpt lat="45.95256" lon="4.74979">
        <ele>192</ele>
        <time>2017-03-17T09:27:13Z</time>
      </trkpt>
      <trkpt lat="45.9526" lon="4.74985">
        <ele>192</ele>
        <time>2017-03-17T09:27:14Z</time>
      </trkpt>
      <trkpt lat="45.95264" lon="4.74991">
        <ele>192</ele>
        <time>2017-03-17T09:27:15Z</time>
      </trkpt>
      <trkpt lat="45.95268" lon="4.74997">
        <ele>192</ele>
        <time>2017-03-17T09:27:16Z</time>
      </trkpt>
      <trkpt lat="45.95272" lon="4.75003">
        <ele>191</ele>
        <time>2017-03-17T09:27:17Z</time>
      </trkpt>
      <trkpt lat="45.95276" lon="4.75009">
        <ele>191</ele>
        <time>2017-03-17T09:27:18Z</time>
      </trkpt>
      <trkpt lat="45.9528" lon="4.75016">
        <ele>191</ele>
        <time>2017-03-17T09:27:19Z</time>
      </trkpt>
      <trkpt lat="45.95284" lon="4.75022">
        <ele>191</ele>
        <time>2017-03-17T09:27:20Z</time>
      </trkpt>
      <trkpt lat="45.95288" lon="4.75028">
        <ele>191</ele>
        <time>2017-03-17T09:27:21Z</time>
      </trkpt>
      <trkpt lat="45.95292" lon="4.75034">
        <ele>191</ele>
        <time>2017-03-17T09:27:22Z</time>
      </trkpt>
      <trkpt lat="45.95296" lon="4.75041">
        <ele>191</ele>
        <time>2017-03-17T09:27:23Z</time>
      </trkpt>
      <trkpt lat="45.953" lon="4.75047">
        <ele>191</ele>
        <time>2017-03-17T09:27:24Z</time>
      </trkpt>
      <trkpt lat="45.95304" lon="4.75053">
        <ele>191</ele>
        <time>2017-03-17T09:27:25Z</time>
      </trkpt>
      <trkpt lat="45.95307" lon="4.75059">
        <ele>192</ele>
        <time>2017-03-17T09:27:26Z</time>
      </trkpt>
      <trkpt lat="45.95311" lon="4.75065">
        <ele>192</ele>
        <time>2017-03-17T09:27:27Z</time>
      </trkpt>
      <trkpt lat="45.95315" lon="4.75071">
        <ele>192</ele>
        <time>2017-03-17T09:27:28Z</time>
      </trkpt>
      <trkpt lat="45.95319" lon="4.75077">
        <ele>192</ele>
        <time>2017-03-17T09:27:29Z</time>
      </trkpt>
      <trkpt lat="45.95322" lon="4.75082">
        <ele>192</ele>
        <time>2017-03-17T09:27:30Z</time>
      </trkpt>
      <trkpt lat="45.95326" lon="4.75088">
        <ele>191</ele>
        <time>2017-03-17T09:27:31Z</time>
      </trkpt>
      <trkpt lat="45.95329" lon="4.75094">
        <ele>191</ele>
        <time>2017-03-17T09:27:32Z</time>
      </trkpt>
      <trkpt lat="45.95333" lon="4.75099">
        <ele>191</ele>
        <time>2017-03-17T09:27:33Z</time>
      </trkpt>
      <trkpt lat="45.95337" lon="4.75105">
        <ele>192</ele>
        <time>2017-03-17T09:27:34Z</time>
      </trkpt>
      <trkpt lat="45.95341" lon="4.75111">
        <ele>192</ele>
        <time>2017-03-17T09:27:35Z</time>
      </trkpt>
      <trkpt lat="45.95345" lon="4.75117">
        <ele>191</ele>
        <time>2017-03-17T09:27:36Z</time>
      </trkpt>
      <trkpt lat="45.95349" lon="4.75123">
        <ele>191</ele>
        <time>2017-03-17T09:27:37Z</time>
      </trkpt>
      <trkpt lat="45.95353" lon="4.7513">
        <ele>191</ele>
        <time>2017-03-17T09:27:38Z</time>
      </trkpt>
      <trkpt lat="45.95357" lon="4.75136">
        <ele>191</ele>
        <time>2017-03-17T09:27:39Z</time>
      </trkpt>
      <trkpt lat="45.95361" lon="4.75143">
        <ele>191</ele>
        <time>2017-03-17T09:27:40Z</time>
      </trkpt>
      <trkpt lat="45.95365" lon="4.75149">
        <ele>191</ele>
        <time>2017-03-17T09:27:41Z</time>
      </trkpt>
      <trkpt lat="45.95369" lon="4.75156">
        <ele>191</ele>
        <time>2017-03-17T09:27:42Z</time>
      </trkpt>
      <trkpt lat="45.95373" lon="4.75163">
        <ele>191</ele>
        <time>2017-03-17T09:27:43Z</time>
      </trkpt>
      <trkpt lat="45.95376" lon="4.7517">
        <ele>189</ele>
        <time>2017-03-17T09:27:44Z</time>
      </trkpt>
      <trkpt lat="45.9538" lon="4.75176">
        <ele>189</ele>
        <time>2017-03-17T09:27:45Z</time>
      </trkpt>
      <trkpt lat="45.95384" lon="4.75183">
        <ele>189</ele>
        <time>2017-03-17T09:27:46Z</time>
      </trkpt>
      <trkpt lat="45.95388" lon="4.75189">
        <ele>189</ele>
        <time>2017-03-17T09:27:47Z</time>
      </trkpt>
      <trkpt lat="45.95392" lon="4.75196">
        <ele>189</ele>
        <time>2017-03-17T09:27:48Z</time>
      </trkpt>
      <trkpt lat="45.95396" lon="4.75203">
        <ele>189</ele>
        <time>2017-03-17T09:27:49Z</time>
      </trkpt>
      <trkpt lat="45.95399" lon="4.7521">
        <ele>189</ele>
        <time>2017-03-17T09:27:50Z</time>
      </trkpt>
      <trkpt lat="45.95403" lon="4.75216">
        <ele>188</ele>
        <time>2017-03-17T09:27:51Z</time>
      </trkpt>
      <trkpt lat="45.95407" lon="4.75223">
        <ele>188</ele>
        <time>2017-03-17T09:27:52Z</time>
      </trkpt>
      <trkpt lat="45.95411" lon="4.7523">
        <ele>189</ele>
        <time>2017-03-17T09:27:53Z</time>
      </trkpt>
      <trkpt lat="45.95414" lon="4.75236">
        <ele>189</ele>
        <time>2017-03-17T09:27:54Z</time>
      </trkpt>
      <trkpt lat="45.95418" lon="4.75243">
        <ele>190</ele>
        <time>2017-03-17T09:27:55Z</time>
      </trkpt>
      <trkpt lat="45.95421" lon="4.75249">
        <ele>189</ele>
        <time>2017-03-17T09:27:56Z</time>
      </trkpt>
      <trkpt lat="45.95425" lon="4.75256">
        <ele>189</ele>
        <time>2017-03-17T09:27:57Z</time>
      </trkpt>
      <trkpt lat="45.95429" lon="4.75262">
        <ele>189</ele>
        <time>2017-03-17T09:27:58Z</time>
      </trkpt>
      <trkpt lat="45.95433" lon="4.75268">
        <ele>189</ele>
        <time>2017-03-17T09:27:59Z</time>
      </trkpt>
      <trkpt lat="45.95436" lon="4.75275">
        <ele>188</ele>
        <time>2017-03-17T09:28:00Z</time>
      </trkpt>
      <trkpt lat="45.9544" lon="4.75282">
        <ele>188</ele>
        <time>2017-03-17T09:28:01Z</time>
      </trkpt>
      <trkpt lat="45.95443" lon="4.75288">
        <ele>188</ele>
        <time>2017-03-17T09:28:02Z</time>
      </trkpt>
      <trkpt lat="45.95446" lon="4.75295">
        <ele>188</ele>
        <time>2017-03-17T09:28:03Z</time>
      </trkpt>
      <trkpt lat="45.9545" lon="4.75302">
        <ele>188</ele>
        <time>2017-03-17T09:28:04Z</time>
      </trkpt>
      <trkpt lat="45.95454" lon="4.75308">
        <ele>188</ele>
        <time>2017-03-17T09:28:05Z</time>
      </trkpt>
      <trkpt lat="45.95458" lon="4.75315">
        <ele>188</ele>
        <time>2017-03-17T09:28:06Z</time>
      </trkpt>
      <trkpt lat="45.95462" lon="4.75321">
        <ele>188</ele>
        <time>2017-03-17T09:28:07Z</time>
      </trkpt>
      <trkpt lat="45.95466" lon="4.75328">
        <ele>188</ele>
        <time>2017-03-17T09:28:08Z</time>
      </trkpt>
      <trkpt lat="45.95469" lon="4.75335">
        <ele>186</ele>
        <time>2017-03-17T09:28:09Z</time>
      </trkpt>
      <trkpt lat="45.95473" lon="4.75342">
        <ele>186</ele>
        <time>2017-03-17T09:28:10Z</time>
      </trkpt>
      <trkpt lat="45.95477" lon="4.7535">
        <ele>186</ele>
        <time>2017-03-17T09:28:11Z</time>
      </trkpt>
      <trkpt lat="45.95481" lon="4.75357">
        <ele>186</ele>
        <time>2017-03-17T09:28:12Z</time>
      </trkpt>
      <trkpt lat="45.95484" lon="4.75365">
        <ele>186</ele>
        <time>2017-03-17T09:28:13Z</time>
      </trkpt>
      <trkpt lat="45.95488" lon="4.75372">
        <ele>185</ele>
        <time>2017-03-17T09:28:14Z</time>
      </trkpt>
      <trkpt lat="45.95491" lon="4.7538">
        <ele>185</ele>
        <time>2017-03-17T09:28:15Z</time>
      </trkpt>
      <trkpt lat="45.95494" lon="4.75388">
        <ele>185</ele>
        <time>2017-03-17T09:28:16Z</time>
      </trkpt>
      <trkpt lat="45.95496" lon="4.75397">
        <ele>185</ele>
        <time>2017-03-17T09:28:17Z</time>
      </trkpt>
      <trkpt lat="45.95499" lon="4.75405">
        <ele>185</ele>
        <time>2017-03-17T09:28:18Z</time>
      </trkpt>
      <trkpt lat="45.95502" lon="4.75414">
        <ele>186</ele>
        <time>2017-03-17T09:28:19Z</time>
      </trkpt>
      <trkpt lat="45.95504" lon="4.75423">
        <ele>186</ele>
        <time>2017-03-17T09:28:20Z</time>
      </trkpt>
      <trkpt lat="45.95505" lon="4.75432">
        <ele>186</ele>
        <time>2017-03-17T09:28:21Z</time>
      </trkpt>
      <trkpt lat="45.95507" lon="4.75442">
        <ele>186</ele>
        <time>2017-03-17T09:28:22Z</time>
      </trkpt>
      <trkpt lat="45.95507" lon="4.75452">
        <ele>186</ele>
        <time>2017-03-17T09:28:23Z</time>
      </trkpt>
      <trkpt lat="45.95506" lon="4.75462">
        <ele>186</ele>
        <time>2017-03-17T09:28:24Z</time>
      </trkpt>
      <trkpt lat="45.95507" lon="4.75471">
        <ele>186</ele>
        <time>2017-03-17T09:28:25Z</time>
      </trkpt>
      <trkpt lat="45.95507" lon="4.7548">
        <ele>186</ele>
        <time>2017-03-17T09:28:26Z</time>
      </trkpt>
      <trkpt lat="45.95509" lon="4.75489">
        <ele>186</ele>
        <time>2017-03-17T09:28:27Z</time>
      </trkpt>
      <trkpt lat="45.95513" lon="4.75496">
        <ele>185</ele>
        <time>2017-03-17T09:28:28Z</time>
      </trkpt>
      <trkpt lat="45.95518" lon="4.75501">
        <ele>185</ele>
        <time>2017-03-17T09:28:29Z</time>
      </trkpt>
      <trkpt lat="45.95522" lon="4.75505">
        <ele>185</ele>
        <time>2017-03-17T09:28:30Z</time>
      </trkpt>
      <trkpt lat="45.95527" lon="4.75509">
        <ele>185</ele>
        <time>2017-03-17T09:28:31Z</time>
      </trkpt>
      <trkpt lat="45.95532" lon="4.75512">
        <ele>185</ele>
        <time>2017-03-17T09:28:32Z</time>
      </trkpt>
      <trkpt lat="45.95537" lon="4.75516">
        <ele>186</ele>
        <time>2017-03-17T09:28:33Z</time>
      </trkpt>
      <trkpt lat="45.95542" lon="4.75521">
        <ele>186</ele>
        <time>2017-03-17T09:28:34Z</time>
      </trkpt>
      <trkpt lat="45.95546" lon="4.75526">
        <ele>186</ele>
        <time>2017-03-17T09:28:35Z</time>
      </trkpt>
      <trkpt lat="45.95551" lon="4.75531">
        <ele>186</ele>
        <time>2017-03-17T09:28:36Z</time>
      </trkpt>
      <trkpt lat="45.95556" lon="4.75536">
        <ele>186</ele>
        <time>2017-03-17T09:28:37Z</time>
      </trkpt>
      <trkpt lat="45.95561" lon="4.7554">
        <ele>186</ele>
        <time>2017-03-17T09:28:38Z</time>
      </trkpt>
      <trkpt lat="45.95566" lon="4.75545">
        <ele>186</ele>
        <time>2017-03-17T09:28:39Z</time>
      </trkpt>
      <trkpt lat="45.95571" lon="4.75551">
        <ele>186</ele>
        <time>2017-03-17T09:28:40Z</time>
      </trkpt>
      <trkpt lat="45.95576" lon="4.75556">
        <ele>186</ele>
        <time>2017-03-17T09:28:41Z</time>
      </trkpt>
      <trkpt lat="45.9558" lon="4.75562">
        <ele>186</ele>
        <time>2017-03-17T09:28:42Z</time>
      </trkpt>
      <trkpt lat="45.95585" lon="4.75568">
        <ele>188</ele>
        <time>2017-03-17T09:28:43Z</time>
      </trkpt>
      <trkpt lat="45.95588" lon="4.75575">
        <ele>187</ele>
        <time>2017-03-17T09:28:44Z</time>
      </trkpt>
      <trkpt lat="45.95592" lon="4.75582">
        <ele>187</ele>
        <time>2017-03-17T09:28:45Z</time>
      </trkpt>
      <trkpt lat="45.95595" lon="4.7559">
        <ele>187</ele>
        <time>2017-03-17T09:28:46Z</time>
      </trkpt>
      <trkpt lat="45.95598" lon="4.75598">
        <ele>187</ele>
        <time>2017-03-17T09:28:47Z</time>
      </trkpt>
      <trkpt lat="45.95601" lon="4.75605">
        <ele>187</ele>
        <time>2017-03-17T09:28:48Z</time>
      </trkpt>
      <trkpt lat="45.95604" lon="4.75612">
        <ele>187</ele>
        <time>2017-03-17T09:28:49Z</time>
      </trkpt>
      <trkpt lat="45.95606" lon="4.7562">
        <ele>188</ele>
        <time>2017-03-17T09:28:50Z</time>
      </trkpt>
      <trkpt lat="45.95609" lon="4.75628">
        <ele>188</ele>
        <time>2017-03-17T09:28:51Z</time>
      </trkpt>
      <trkpt lat="45.95611" lon="4.75635">
        <ele>188</ele>
        <time>2017-03-17T09:28:52Z</time>
      </trkpt>
      <trkpt lat="45.95613" lon="4.75643">
        <ele>188</ele>
        <time>2017-03-17T09:28:53Z</time>
      </trkpt>
      <trkpt lat="45.95614" lon="4.7565">
        <ele>188</ele>
        <time>2017-03-17T09:28:54Z</time>
      </trkpt>
      <trkpt lat="45.95616" lon="4.75657">
        <ele>188</ele>
        <time>2017-03-17T09:28:55Z</time>
      </trkpt>
      <trkpt lat="45.95617" lon="4.75665">
        <ele>188</ele>
        <time>2017-03-17T09:28:56Z</time>
      </trkpt>
      <trkpt lat="45.95618" lon="4.75673">
        <ele>187</ele>
        <time>2017-03-17T09:28:57Z</time>
      </trkpt>
      <trkpt lat="45.95619" lon="4.75681">
        <ele>187</ele>
        <time>2017-03-17T09:28:58Z</time>
      </trkpt>
      <trkpt lat="45.9562" lon="4.7569">
        <ele>187</ele>
        <time>2017-03-17T09:28:59Z</time>
      </trkpt>
      <trkpt lat="45.95622" lon="4.75698">
        <ele>187</ele>
        <time>2017-03-17T09:29:00Z</time>
      </trkpt>
      <trkpt lat="45.95623" lon="4.75707">
        <ele>187</ele>
        <time>2017-03-17T09:29:01Z</time>
      </trkpt>
      <trkpt lat="45.95624" lon="4.75715">
        <ele>187</ele>
        <time>2017-03-17T09:29:02Z</time>
      </trkpt>
      <trkpt lat="45.95625" lon="4.75723">
        <ele>187</ele>
        <time>2017-03-17T09:29:03Z</time>
      </trkpt>
      <trkpt lat="45.95626" lon="4.75731">
        <ele>187</ele>
        <time>2017-03-17T09:29:04Z</time>
      </trkpt>
      <trkpt lat="45.95627" lon="4.75739">
        <ele>187</ele>
        <time>2017-03-17T09:29:05Z</time>
      </trkpt>
      <trkpt lat="45.95628" lon="4.75747">
        <ele>187</ele>
        <time>2017-03-17T09:29:06Z</time>
      </trkpt>
      <trkpt lat="45.95629" lon="4.75755">
        <ele>186</ele>
        <time>2017-03-17T09:29:07Z</time>
      </trkpt>
      <trkpt lat="45.95631" lon="4.75762">
        <ele>186</ele>
        <time>2017-03-17T09:29:08Z</time>
      </trkpt>
      <trkpt lat="45.95632" lon="4.7577">
        <ele>185</ele>
        <time>2017-03-17T09:29:09Z</time>
      </trkpt>
      <trkpt lat="45.95633" lon="4.75777">
        <ele>185</ele>
        <time>2017-03-17T09:29:10Z</time>
      </trkpt>
      <trkpt lat="45.95634" lon="4.75785">
        <ele>185</ele>
        <time>2017-03-17T09:29:11Z</time>
      </trkpt>
      <trkpt lat="45.95636" lon="4.75792">
        <ele>185</ele>
        <time>2017-03-17T09:29:12Z</time>
      </trkpt>
      <trkpt lat="45.95637" lon="4.758">
        <ele>185</ele>
        <time>2017-03-17T09:29:13Z</time>
      </trkpt>
      <trkpt lat="45.95639" lon="4.75808">
        <ele>185</ele>
        <time>2017-03-17T09:29:14Z</time>
      </trkpt>
      <trkpt lat="45.9564" lon="4.75816">
        <ele>185</ele>
        <time>2017-03-17T09:29:15Z</time>
      </trkpt>
      <trkpt lat="45.95642" lon="4.75824">
        <ele>185</ele>
        <time>2017-03-17T09:29:16Z</time>
      </trkpt>
      <trkpt lat="45.95644" lon="4.75833">
        <ele>185</ele>
        <time>2017-03-17T09:29:17Z</time>
      </trkpt>
      <trkpt lat="45.95647" lon="4.75841">
        <ele>184</ele>
        <time>2017-03-17T09:29:18Z</time>
      </trkpt>
      <trkpt lat="45.95649" lon="4.75849">
        <ele>184</ele>
        <time>2017-03-17T09:29:19Z</time>
      </trkpt>
      <trkpt lat="45.95651" lon="4.75857">
        <ele>184</ele>
        <time>2017-03-17T09:29:20Z</time>
      </trkpt>
      <trkpt lat="45.95653" lon="4.75865">
        <ele>184</ele>
        <time>2017-03-17T09:29:21Z</time>
      </trkpt>
      <trkpt lat="45.95655" lon="4.75873">
        <ele>184</ele>
        <time>2017-03-17T09:29:22Z</time>
      </trkpt>
      <trkpt lat="45.95658" lon="4.75881">
        <ele>184</ele>
        <time>2017-03-17T09:29:23Z</time>
      </trkpt>
      <trkpt lat="45.9566" lon="4.75888">
        <ele>184</ele>
        <time>2017-03-17T09:29:24Z</time>
      </trkpt>
      <trkpt lat="45.95663" lon="4.75895">
        <ele>184</ele>
        <time>2017-03-17T09:29:25Z</time>
      </trkpt>
      <trkpt lat="45.95666" lon="4.75903">
        <ele>184</ele>
        <time>2017-03-17T09:29:26Z</time>
      </trkpt>
      <trkpt lat="45.95668" lon="4.7591">
        <ele>185</ele>
        <time>2017-03-17T09:29:27Z</time>
      </trkpt>
      <trkpt lat="45.95671" lon="4.75917">
        <ele>184</ele>
        <time>2017-03-17T09:29:28Z</time>
      </trkpt>
      <trkpt lat="45.95675" lon="4.75924">
        <ele>184</ele>
        <time>2017-03-17T09:29:29Z</time>
      </trkpt>
      <trkpt lat="45.95678" lon="4.75932">
        <ele>185</ele>
        <time>2017-03-17T09:29:30Z</time>
      </trkpt>
      <trkpt lat="45.95681" lon="4.75939">
        <ele>185</ele>
        <time>2017-03-17T09:29:31Z</time>
      </trkpt>
      <trkpt lat="45.95684" lon="4.75946">
        <ele>185</ele>
        <time>2017-03-17T09:29:32Z</time>
      </trkpt>
      <trkpt lat="45.95688" lon="4.75952">
        <ele>185</ele>
        <time>2017-03-17T09:29:33Z</time>
      </trkpt>
      <trkpt lat="45.95691" lon="4.75959">
        <ele>185</ele>
        <time>2017-03-17T09:29:34Z</time>
      </trkpt>
      <trkpt lat="45.95694" lon="4.75966">
        <ele>185</ele>
        <time>2017-03-17T09:29:35Z</time>
      </trkpt>
      <trkpt lat="45.95697" lon="4.75973">
        <ele>185</ele>
        <time>2017-03-17T09:29:36Z</time>
      </trkpt>
      <trkpt lat="45.957" lon="4.75979">
        <ele>185</ele>
        <time>2017-03-17T09:29:37Z</time>
      </trkpt>
      <trkpt lat="45.95703" lon="4.75986">
        <ele>185</ele>
        <time>2017-03-17T09:29:38Z</time>
      </trkpt>
      <trkpt lat="45.95706" lon="4.75993">
        <ele>185</ele>
        <time>2017-03-17T09:29:39Z</time>
      </trkpt>
      <trkpt lat="45.95709" lon="4.76">
        <ele>185</ele>
        <time>2017-03-17T09:29:40Z</time>
      </trkpt>
      <trkpt lat="45.95712" lon="4.76007">
        <ele>184</ele>
        <time>2017-03-17T09:29:41Z</time>
      </trkpt>
      <trkpt lat="45.95715" lon="4.76013">
        <ele>184</ele>
        <time>2017-03-17T09:29:42Z</time>
      </trkpt>
      <trkpt lat="45.95718" lon="4.7602">
        <ele>184</ele>
        <time>2017-03-17T09:29:43Z</time>
      </trkpt>
      <trkpt lat="45.95721" lon="4.76027">
        <ele>184</ele>
        <time>2017-03-17T09:29:44Z</time>
      </trkpt>
      <trkpt lat="45.95724" lon="4.76033">
        <ele>184</ele>
        <time>2017-03-17T09:29:45Z</time>
      </trkpt>
      <trkpt lat="45.95727" lon="4.7604">
        <ele>184</ele>
        <time>2017-03-17T09:29:46Z</time>
      </trkpt>
      <trkpt lat="45.95731" lon="4.76047">
        <ele>184</ele>
        <time>2017-03-17T09:29:47Z</time>
      </trkpt>
      <trkpt lat="45.95734" lon="4.76054">
        <ele>184</ele>
        <time>2017-03-17T09:29:48Z</time>
      </trkpt>
      <trkpt lat="45.95737" lon="4.76061">
        <ele>184</ele>
        <time>2017-03-17T09:29:49Z</time>
      </trkpt>
      <trkpt lat="45.9574" lon="4.76068">
        <ele>185</ele>
        <time>2017-03-17T09:29:50Z</time>
      </trkpt>
      <trkpt lat="45.95743" lon="4.76075">
        <ele>185</ele>
        <time>2017-03-17T09:29:51Z</time>
      </trkpt>
      <trkpt lat="45.95746" lon="4.76082">
        <ele>185</ele>
        <time>2017-03-17T09:29:52Z</time>
      </trkpt>
      <trkpt lat="45.95749" lon="4.76089">
        <ele>185</ele>
        <time>2017-03-17T09:29:53Z</time>
      </trkpt>
      <trkpt lat="45.95751" lon="4.76096">
        <ele>186</ele>
        <time>2017-03-17T09:29:54Z</time>
      </trkpt>
      <trkpt lat="45.95753" lon="4.76104">
        <ele>186</ele>
        <time>2017-03-17T09:29:55Z</time>
      </trkpt>
      <trkpt lat="45.95754" lon="4.76111">
        <ele>186</ele>
        <time>2017-03-17T09:29:56Z</time>
      </trkpt>
      <trkpt lat="45.95755" lon="4.76118">
        <ele>186</ele>
        <time>2017-03-17T09:29:57Z</time>
      </trkpt>
      <trkpt lat="45.95756" lon="4.76126">
        <ele>186</ele>
        <time>2017-03-17T09:29:58Z</time>
      </trkpt>
      <trkpt lat="45.95757" lon="4.76134">
        <ele>186</ele>
        <time>2017-03-17T09:29:59Z</time>
      </trkpt>
      <trkpt lat="45.95758" lon="4.76142">
        <ele>186</ele>
        <time>2017-03-17T09:30:00Z</time>
      </trkpt>
      <trkpt lat="45.95759" lon="4.7615">
        <ele>186</ele>
        <time>2017-03-17T09:30:01Z</time>
      </trkpt>
      <trkpt lat="45.95759" lon="4.76157">
        <ele>186</ele>
        <time>2017-03-17T09:30:02Z</time>
      </trkpt>
      <trkpt lat="45.9576" lon="4.76165">
        <ele>185</ele>
        <time>2017-03-17T09:30:03Z</time>
      </trkpt>
      <trkpt lat="45.9576" lon="4.76173">
        <ele>185</ele>
        <time>2017-03-17T09:30:04Z</time>
      </trkpt>
      <trkpt lat="45.95761" lon="4.7618">
        <ele>185</ele>
        <time>2017-03-17T09:30:05Z</time>
      </trkpt>
      <trkpt lat="45.95761" lon="4.76188">
        <ele>186</ele>
        <time>2017-03-17T09:30:06Z</time>
      </trkpt>
      <trkpt lat="45.95761" lon="4.76196">
        <ele>186</ele>
        <time>2017-03-17T09:30:07Z</time>
      </trkpt>
      <trkpt lat="45.95762" lon="4.76203">
        <ele>186</ele>
        <time>2017-03-17T09:30:08Z</time>
      </trkpt>
      <trkpt lat="45.95762" lon="4.76211">
        <ele>186</ele>
        <time>2017-03-17T09:30:09Z</time>
      </trkpt>
      <trkpt lat="45.95762" lon="4.76219">
        <ele>186</ele>
        <time>2017-03-17T09:30:10Z</time>
      </trkpt>
      <trkpt lat="45.95762" lon="4.76226">
        <ele>186</ele>
        <time>2017-03-17T09:30:11Z</time>
      </trkpt>
      <trkpt lat="45.95763" lon="4.76234">
        <ele>186</ele>
        <time>2017-03-17T09:30:12Z</time>
      </trkpt>
      <trkpt lat="45.95763" lon="4.76241">
        <ele>185</ele>
        <time>2017-03-17T09:30:13Z</time>
      </trkpt>
      <trkpt lat="45.95764" lon="4.76249">
        <ele>185</ele>
        <time>2017-03-17T09:30:14Z</time>
      </trkpt>
      <trkpt lat="45.95764" lon="4.76256">
        <ele>185</ele>
        <time>2017-03-17T09:30:15Z</time>
      </trkpt>
      <trkpt lat="45.95764" lon="4.76264">
        <ele>185</ele>
        <time>2017-03-17T09:30:16Z</time>
      </trkpt>
      <trkpt lat="45.95765" lon="4.76271">
        <ele>185</ele>
        <time>2017-03-17T09:30:17Z</time>
      </trkpt>
      <trkpt lat="45.95766" lon="4.76279">
        <ele>186</ele>
        <time>2017-03-17T09:30:18Z</time>
      </trkpt>
      <trkpt lat="45.95766" lon="4.76286">
        <ele>186</ele>
        <time>2017-03-17T09:30:19Z</time>
      </trkpt>
      <trkpt lat="45.95766" lon="4.76293">
        <ele>186</ele>
        <time>2017-03-17T09:30:20Z</time>
      </trkpt>
      <trkpt lat="45.95767" lon="4.76301">
        <ele>186</ele>
        <time>2017-03-17T09:30:21Z</time>
      </trkpt>
      <trkpt lat="45.95767" lon="4.76308">
        <ele>185</ele>
        <time>2017-03-17T09:30:22Z</time>
      </trkpt>
      <trkpt lat="45.95767" lon="4.76315">
        <ele>185</ele>
        <time>2017-03-17T09:30:23Z</time>
      </trkpt>
      <trkpt lat="45.95768" lon="4.76323">
        <ele>185</ele>
        <time>2017-03-17T09:30:24Z</time>
      </trkpt>
      <trkpt lat="45.95768" lon="4.7633">
        <ele>185</ele>
        <time>2017-03-17T09:30:25Z</time>
      </trkpt>
      <trkpt lat="45.95768" lon="4.76338">
        <ele>186</ele>
        <time>2017-03-17T09:30:26Z</time>
      </trkpt>
      <trkpt lat="45.95769" lon="4.76346">
        <ele>186</ele>
        <time>2017-03-17T09:30:27Z</time>
      </trkpt>
      <trkpt lat="45.95769" lon="4.76353">
        <ele>186</ele>
        <time>2017-03-17T09:30:28Z</time>
      </trkpt>
      <trkpt lat="45.9577" lon="4.76361">
        <ele>186</ele>
        <time>2017-03-17T09:30:29Z</time>
      </trkpt>
      <trkpt lat="45.9577" lon="4.76369">
        <ele>186</ele>
        <time>2017-03-17T09:30:30Z</time>
      </trkpt>
      <trkpt lat="45.9577" lon="4.76376">
        <ele>186</ele>
        <time>2017-03-17T09:30:31Z</time>
      </trkpt>
      <trkpt lat="45.95771" lon="4.76384">
        <ele>186</ele>
        <time>2017-03-17T09:30:32Z</time>
      </trkpt>
      <trkpt lat="45.95771" lon="4.76391">
        <ele>186</ele>
        <time>2017-03-17T09:30:33Z</time>
      </trkpt>
      <trkpt lat="45.95772" lon="4.76399">
        <ele>186</ele>
        <time>2017-03-17T09:30:34Z</time>
      </trkpt>
      <trkpt lat="45.95773" lon="4.76406">
        <ele>186</ele>
        <time>2017-03-17T09:30:35Z</time>
      </trkpt>
      <trkpt lat="45.95773" lon="4.76414">
        <ele>186</ele>
        <time>2017-03-17T09:30:36Z</time>
      </trkpt>
      <trkpt lat="45.95774" lon="4.76421">
        <ele>186</ele>
        <time>2017-03-17T09:30:37Z</time>
      </trkpt>
      <trkpt lat="45.95775" lon="4.76429">
        <ele>186</ele>
        <time>2017-03-17T09:30:38Z</time>
      </trkpt>
      <trkpt lat="45.95776" lon="4.76436">
        <ele>186</ele>
        <time>2017-03-17T09:30:39Z</time>
      </trkpt>
      <trkpt lat="45.95777" lon="4.76444">
        <ele>186</ele>
        <time>2017-03-17T09:30:40Z</time>
      </trkpt>
      <trkpt lat="45.95778" lon="4.76451">
        <ele>186</ele>
        <time>2017-03-17T09:30:41Z</time>
      </trkpt>
      <trkpt lat="45.95779" lon="4.76459">
        <ele>186</ele>
        <time>2017-03-17T09:30:42Z</time>
      </trkpt>
      <trkpt lat="45.9578" lon="4.76466">
        <ele>186</ele>
        <time>2017-03-17T09:30:43Z</time>
      </trkpt>
      <trkpt lat="45.95781" lon="4.76474">
        <ele>186</ele>
        <time>2017-03-17T09:30:44Z</time>
      </trkpt>
      <trkpt lat="45.95782" lon="4.76481">
        <ele>186</ele>
        <time>2017-03-17T09:30:45Z</time>
      </trkpt>
      <trkpt lat="45.95783" lon="4.76489">
        <ele>186</ele>
        <time>2017-03-17T09:30:46Z</time>
      </trkpt>
      <trkpt lat="45.95784" lon="4.76497">
        <ele>186</ele>
        <time>2017-03-17T09:30:47Z</time>
      </trkpt>
      <trkpt lat="45.95785" lon="4.76504">
        <ele>186</ele>
        <time>2017-03-17T09:30:48Z</time>
      </trkpt>
      <trkpt lat="45.95786" lon="4.76511">
        <ele>187</ele>
        <time>2017-03-17T09:30:49Z</time>
      </trkpt>
      <trkpt lat="45.95787" lon="4.76519">
        <ele>187</ele>
        <time>2017-03-17T09:30:50Z</time>
      </trkpt>
      <trkpt lat="45.95788" lon="4.76526">
        <ele>187</ele>
        <time>2017-03-17T09:30:51Z</time>
      </trkpt>
      <trkpt lat="45.9579" lon="4.76534">
        <ele>187</ele>
        <time>2017-03-17T09:30:52Z</time>
      </trkpt>
      <trkpt lat="45.95791" lon="4.76542">
        <ele>187</ele>
        <time>2017-03-17T09:30:53Z</time>
      </trkpt>
      <trkpt lat="45.95792" lon="4.7655">
        <ele>187</ele>
        <time>2017-03-17T09:30:54Z</time>
      </trkpt>
      <trkpt lat="45.95793" lon="4.76558">
        <ele>187</ele>
        <time>2017-03-17T09:30:55Z</time>
      </trkpt>
      <trkpt lat="45.95795" lon="4.76565">
        <ele>187</ele>
        <time>2017-03-17T09:30:56Z</time>
      </trkpt>
      <trkpt lat="45.95796" lon="4.76573">
        <ele>187</ele>
        <time>2017-03-17T09:30:57Z</time>
      </trkpt>
      <trkpt lat="45.95797" lon="4.76581">
        <ele>187</ele>
        <time>2017-03-17T09:30:58Z</time>
      </trkpt>
      <trkpt lat="45.95798" lon="4.76588">
        <ele>187</ele>
        <time>2017-03-17T09:30:59Z</time>
      </trkpt>
      <trkpt lat="45.95799" lon="4.76596">
        <ele>187</ele>
        <time>2017-03-17T09:31:00Z</time>
      </trkpt>
      <trkpt lat="45.958" lon="4.76603">
        <ele>187</ele>
        <time>2017-03-17T09:31:01Z</time>
      </trkpt>
      <trkpt lat="45.95801" lon="4.7661">
        <ele>187</ele>
        <time>2017-03-17T09:31:02Z</time>
      </trkpt>
      <trkpt lat="45.95802" lon="4.76617">
        <ele>188</ele>
        <time>2017-03-17T09:31:03Z</time>
      </trkpt>
      <trkpt lat="45.95803" lon="4.76624">
        <ele>188</ele>
        <time>2017-03-17T09:31:04Z</time>
      </trkpt>
      <trkpt lat="45.95804" lon="4.76631">
        <ele>188</ele>
        <time>2017-03-17T09:31:05Z</time>
      </trkpt>
      <trkpt lat="45.95805" lon="4.76639">
        <ele>188</ele>
        <time>2017-03-17T09:31:06Z</time>
      </trkpt>
      <trkpt lat="45.95806" lon="4.76646">
        <ele>188</ele>
        <time>2017-03-17T09:31:07Z</time>
      </trkpt>
      <trkpt lat="45.95807" lon="4.76654">
        <ele>188</ele>
        <time>2017-03-17T09:31:08Z</time>
      </trkpt>
      <trkpt lat="45.95808" lon="4.76662">
        <ele>188</ele>
        <time>2017-03-17T09:31:09Z</time>
      </trkpt>
      <trkpt lat="45.95809" lon="4.7667">
        <ele>189</ele>
        <time>2017-03-17T09:31:10Z</time>
      </trkpt>
      <trkpt lat="45.95811" lon="4.76678">
        <ele>189</ele>
        <time>2017-03-17T09:31:11Z</time>
      </trkpt>
      <trkpt lat="45.95812" lon="4.76685">
        <ele>189</ele>
        <time>2017-03-17T09:31:12Z</time>
      </trkpt>
      <trkpt lat="45.95813" lon="4.76693">
        <ele>189</ele>
        <time>2017-03-17T09:31:13Z</time>
      </trkpt>
      <trkpt lat="45.95814" lon="4.767">
        <ele>189</ele>
        <time>2017-03-17T09:31:14Z</time>
      </trkpt>
      <trkpt lat="45.95815" lon="4.76708">
        <ele>189</ele>
        <time>2017-03-17T09:31:15Z</time>
      </trkpt>
      <trkpt lat="45.95816" lon="4.76715">
        <ele>189</ele>
        <time>2017-03-17T09:31:16Z</time>
      </trkpt>
      <trkpt lat="45.95817" lon="4.76723">
        <ele>189</ele>
        <time>2017-03-17T09:31:17Z</time>
      </trkpt>
      <trkpt lat="45.95818" lon="4.7673">
        <ele>190</ele>
        <time>2017-03-17T09:31:18Z</time>
      </trkpt>
      <trkpt lat="45.95819" lon="4.76737">
        <ele>190</ele>
        <time>2017-03-17T09:31:19Z</time>
      </trkpt>
      <trkpt lat="45.9582" lon="4.76744">
        <ele>190</ele>
        <time>2017-03-17T09:31:20Z</time>
      </trkpt>
      <trkpt lat="45.95821" lon="4.7675">
        <ele>191</ele>
        <time>2017-03-17T09:31:21Z</time>
      </trkpt>
      <trkpt lat="45.95822" lon="4.76756">
        <ele>190</ele>
        <time>2017-03-17T09:31:22Z</time>
      </trkpt>
      <trkpt lat="45.95824" lon="4.76763">
        <ele>190</ele>
        <time>2017-03-17T09:31:23Z</time>
      </trkpt>
      <trkpt lat="45.95825" lon="4.7677">
        <ele>190</ele>
        <time>2017-03-17T09:31:24Z</time>
      </trkpt>
      <trkpt lat="45.95826" lon="4.76776">
        <ele>190</ele>
        <time>2017-03-17T09:31:25Z</time>
      </trkpt>
      <trkpt lat="45.95827" lon="4.76783">
        <ele>190</ele>
        <time>2017-03-17T09:31:26Z</time>
      </trkpt>
      <trkpt lat="45.95827" lon="4.7679">
        <ele>190</ele>
        <time>2017-03-17T09:31:27Z</time>
      </trkpt>
      <trkpt lat="45.95828" lon="4.76797">
        <ele>190</ele>
        <time>2017-03-17T09:31:28Z</time>
      </trkpt>
      <trkpt lat="45.95828" lon="4.76804">
        <ele>190</ele>
        <time>2017-03-17T09:31:29Z</time>
      </trkpt>
      <trkpt lat="45.95827" lon="4.76812">
        <ele>190</ele>
        <time>2017-03-17T09:31:30Z</time>
      </trkpt>
      <trkpt lat="45.95827" lon="4.7682">
        <ele>190</ele>
        <time>2017-03-17T09:31:31Z</time>
      </trkpt>
      <trkpt lat="45.95826" lon="4.76827">
        <ele>190</ele>
        <time>2017-03-17T09:31:32Z</time>
      </trkpt>
      <trkpt lat="45.95824" lon="4.76835">
        <ele>190</ele>
        <time>2017-03-17T09:31:33Z</time>
      </trkpt>
      <trkpt lat="45.95823" lon="4.76843">
        <ele>190</ele>
        <time>2017-03-17T09:31:34Z</time>
      </trkpt>
      <trkpt lat="45.95822" lon="4.76851">
        <ele>189</ele>
        <time>2017-03-17T09:31:35Z</time>
      </trkpt>
      <trkpt lat="45.95821" lon="4.76859">
        <ele>189</ele>
        <time>2017-03-17T09:31:36Z</time>
      </trkpt>
      <trkpt lat="45.95819" lon="4.76867">
        <ele>189</ele>
        <time>2017-03-17T09:31:37Z</time>
      </trkpt>
      <trkpt lat="45.95818" lon="4.76874">
        <ele>189</ele>
        <time>2017-03-17T09:31:38Z</time>
      </trkpt>
      <trkpt lat="45.95816" lon="4.76882">
        <ele>189</ele>
        <time>2017-03-17T09:31:39Z</time>
      </trkpt>
      <trkpt lat="45.95815" lon="4.76889">
        <ele>189</ele>
        <time>2017-03-17T09:31:40Z</time>
      </trkpt>
      <trkpt lat="45.95813" lon="4.76896">
        <ele>189</ele>
        <time>2017-03-17T09:31:41Z</time>
      </trkpt>
      <trkpt lat="45.95812" lon="4.76903">
        <ele>189</ele>
        <time>2017-03-17T09:31:42Z</time>
      </trkpt>
      <trkpt lat="45.9581" lon="4.7691">
        <ele>189</ele>
        <time>2017-03-17T09:31:43Z</time>
      </trkpt>
      <trkpt lat="45.95809" lon="4.76917">
        <ele>189</ele>
        <time>2017-03-17T09:31:44Z</time>
      </trkpt>
      <trkpt lat="45.95808" lon="4.76924">
        <ele>189</ele>
        <time>2017-03-17T09:31:45Z</time>
      </trkpt>
      <trkpt lat="45.95807" lon="4.76931">
        <ele>189</ele>
        <time>2017-03-17T09:31:46Z</time>
      </trkpt>
      <trkpt lat="45.95806" lon="4.76939">
        <ele>189</ele>
        <time>2017-03-17T09:31:47Z</time>
      </trkpt>
      <trkpt lat="45.95804" lon="4.76947">
        <ele>189</ele>
        <time>2017-03-17T09:31:48Z</time>
      </trkpt>
      <trkpt lat="45.95803" lon="4.76954">
        <ele>189</ele>
        <time>2017-03-17T09:31:49Z</time>
      </trkpt>
      <trkpt lat="45.95801" lon="4.76961">
        <ele>189</ele>
        <time>2017-03-17T09:31:50Z</time>
      </trkpt>
      <trkpt lat="45.958" lon="4.76969">
        <ele>189</ele>
        <time>2017-03-17T09:31:51Z</time>
      </trkpt>
      <trkpt lat="45.95799" lon="4.76977">
        <ele>189</ele>
        <time>2017-03-17T09:31:52Z</time>
      </trkpt>
      <trkpt lat="45.95798" lon="4.76984">
        <ele>189</ele>
        <time>2017-03-17T09:31:53Z</time>
      </trkpt>
      <trkpt lat="45.95798" lon="4.76992">
        <ele>189</ele>
        <time>2017-03-17T09:31:54Z</time>
      </trkpt>
      <trkpt lat="45.95798" lon="4.77">
        <ele>189</ele>
        <time>2017-03-17T09:31:55Z</time>
      </trkpt>
      <trkpt lat="45.95799" lon="4.77007">
        <ele>190</ele>
        <time>2017-03-17T09:31:56Z</time>
      </trkpt>
      <trkpt lat="45.95801" lon="4.77015">
        <ele>190</ele>
        <time>2017-03-17T09:31:57Z</time>
      </trkpt>
      <trkpt lat="45.95803" lon="4.77022">
        <ele>190</ele>
        <time>2017-03-17T09:31:58Z</time>
      </trkpt>
      <trkpt lat="45.95805" lon="4.77028">
        <ele>190</ele>
        <time>2017-03-17T09:31:59Z</time>
      </trkpt>
      <trkpt lat="45.95808" lon="4.77035">
        <ele>190</ele>
        <time>2017-03-17T09:32:00Z</time>
      </trkpt>
      <trkpt lat="45.95811" lon="4.77041">
        <ele>190</ele>
        <time>2017-03-17T09:32:01Z</time>
      </trkpt>
      <trkpt lat="45.95814" lon="4.77048">
        <ele>190</ele>
        <time>2017-03-17T09:32:02Z</time>
      </trkpt>
      <trkpt lat="45.95817" lon="4.77054">
        <ele>190</ele>
        <time>2017-03-17T09:32:03Z</time>
      </trkpt>
      <trkpt lat="45.9582" lon="4.77061">
        <ele>190</ele>
        <time>2017-03-17T09:32:04Z</time>
      </trkpt>
      <trkpt lat="45.95822" lon="4.77068">
        <ele>191</ele>
        <time>2017-03-17T09:32:05Z</time>
      </trkpt>
      <trkpt lat="45.95825" lon="4.77074">
        <ele>191</ele>
        <time>2017-03-17T09:32:06Z</time>
      </trkpt>
      <trkpt lat="45.95827" lon="4.77081">
        <ele>191</ele>
        <time>2017-03-17T09:32:07Z</time>
      </trkpt>
      <trkpt lat="45.9583" lon="4.77088">
        <ele>191</ele>
        <time>2017-03-17T09:32:08Z</time>
      </trkpt>
      <trkpt lat="45.95832" lon="4.77094">
        <ele>191</ele>
        <time>2017-03-17T09:32:09Z</time>
      </trkpt>
      <trkpt lat="45.95834" lon="4.771">
        <ele>193</ele>
        <time>2017-03-17T09:32:10Z</time>
      </trkpt>
      <trkpt lat="45.95837" lon="4.77107">
        <ele>193</ele>
        <time>2017-03-17T09:32:11Z</time>
      </trkpt>
      <trkpt lat="45.95839" lon="4.77114">
        <ele>193</ele>
        <time>2017-03-17T09:32:12Z</time>
      </trkpt>
      <trkpt lat="45.95841" lon="4.77121">
        <ele>193</ele>
        <time>2017-03-17T09:32:13Z</time>
      </trkpt>
      <trkpt lat="45.95843" lon="4.77127">
        <ele>193</ele>
        <time>2017-03-17T09:32:14Z</time>
      </trkpt>
      <trkpt lat="45.95845" lon="4.77134">
        <ele>193</ele>
        <time>2017-03-17T09:32:15Z</time>
      </trkpt>
      <trkpt lat="45.95847" lon="4.77141">
        <ele>193</ele>
        <time>2017-03-17T09:32:16Z</time>
      </trkpt>
      <trkpt lat="45.95848" lon="4.77148">
        <ele>192</ele>
        <time>2017-03-17T09:32:17Z</time>
      </trkpt>
      <trkpt lat="45.95851" lon="4.77155">
        <ele>192</ele>
        <time>2017-03-17T09:32:18Z</time>
      </trkpt>
      <trkpt lat="45.95853" lon="4.77162">
        <ele>192</ele>
        <time>2017-03-17T09:32:19Z</time>
      </trkpt>
      <trkpt lat="45.95855" lon="4.7717">
        <ele>192</ele>
        <time>2017-03-17T09:32:20Z</time>
      </trkpt>
      <trkpt lat="45.95857" lon="4.77177">
        <ele>192</ele>
        <time>2017-03-17T09:32:21Z</time>
      </trkpt>
      <trkpt lat="45.95859" lon="4.77184">
        <ele>192</ele>
        <time>2017-03-17T09:32:22Z</time>
      </trkpt>
      <trkpt lat="45.9586" lon="4.77191">
        <ele>192</ele>
        <time>2017-03-17T09:32:23Z</time>
      </trkpt>
      <trkpt lat="45.95862" lon="4.77199">
        <ele>192</ele>
        <time>2017-03-17T09:32:24Z</time>
      </trkpt>
      <trkpt lat="45.95863" lon="4.77206">
        <ele>193</ele>
        <time>2017-03-17T09:32:25Z</time>
      </trkpt>
      <trkpt lat="45.95865" lon="4.77213">
        <ele>193</ele>
        <time>2017-03-17T09:32:26Z</time>
      </trkpt>
      <trkpt lat="45.95866" lon="4.7722">
        <ele>193</ele>
        <time>2017-03-17T09:32:27Z</time>
      </trkpt>
      <trkpt lat="45.95868" lon="4.77227">
        <ele>193</ele>
        <time>2017-03-17T09:32:28Z</time>
      </trkpt>
      <trkpt lat="45.95869" lon="4.77234">
        <ele>193</ele>
        <time>2017-03-17T09:32:29Z</time>
      </trkpt>
      <trkpt lat="45.9587" lon="4.77242">
        <ele>193</ele>
        <time>2017-03-17T09:32:30Z</time>
      </trkpt>
      <trkpt lat="45.95872" lon="4.77249">
        <ele>193</ele>
        <time>2017-03-17T09:32:31Z</time>
      </trkpt>
      <trkpt lat="45.95874" lon="4.77256">
        <ele>193</ele>
        <time>2017-03-17T09:32:32Z</time>
      </trkpt>
      <trkpt lat="45.95875" lon="4.77264">
        <ele>193</ele>
        <time>2017-03-17T09:32:33Z</time>
      </trkpt>
      <trkpt lat="45.95877" lon="4.77271">
        <ele>193</ele>
        <time>2017-03-17T09:32:34Z</time>
      </trkpt>
      <trkpt lat="45.95879" lon="4.77278">
        <ele>193</ele>
        <time>2017-03-17T09:32:35Z</time>
      </trkpt>
      <trkpt lat="45.9588" lon="4.77285">
        <ele>193</ele>
        <time>2017-03-17T09:32:36Z</time>
      </trkpt>
      <trkpt lat="45.95882" lon="4.77292">
        <ele>193</ele>
        <time>2017-03-17T09:32:37Z</time>
      </trkpt>
      <trkpt lat="45.95884" lon="4.77299">
        <ele>193</ele>
        <time>2017-03-17T09:32:38Z</time>
      </trkpt>
      <trkpt lat="45.95886" lon="4.77306">
        <ele>193</ele>
        <time>2017-03-17T09:32:39Z</time>
      </trkpt>
      <trkpt lat="45.95887" lon="4.77313">
        <ele>193</ele>
        <time>2017-03-17T09:32:40Z</time>
      </trkpt>
      <trkpt lat="45.95889" lon="4.77319">
        <ele>193</ele>
        <time>2017-03-17T09:32:41Z</time>
      </trkpt>
      <trkpt lat="45.95891" lon="4.77325">
        <ele>193</ele>
        <time>2017-03-17T09:32:42Z</time>
      </trkpt>
      <trkpt lat="45.95893" lon="4.77331">
        <ele>193</ele>
        <time>2017-03-17T09:32:43Z</time>
      </trkpt>
      <trkpt lat="45.95895" lon="4.77338">
        <ele>193</ele>
        <time>2017-03-17T09:32:44Z</time>
      </trkpt>
      <trkpt lat="45.95897" lon="4.77344">
        <ele>193</ele>
        <time>2017-03-17T09:32:45Z</time>
      </trkpt>
      <trkpt lat="45.95899" lon="4.7735">
        <ele>193</ele>
        <time>2017-03-17T09:32:46Z</time>
      </trkpt>
      <trkpt lat="45.95901" lon="4.77357">
        <ele>193</ele>
        <time>2017-03-17T09:32:47Z</time>
      </trkpt>
      <trkpt lat="45.95903" lon="4.77363">
        <ele>193</ele>
        <time>2017-03-17T09:32:48Z</time>
      </trkpt>
      <trkpt lat="45.95906" lon="4.7737">
        <ele>193</ele>
        <time>2017-03-17T09:32:49Z</time>
      </trkpt>
      <trkpt lat="45.95908" lon="4.77376">
        <ele>193</ele>
        <time>2017-03-17T09:32:50Z</time>
      </trkpt>
      <trkpt lat="45.95911" lon="4.77383">
        <ele>193</ele>
        <time>2017-03-17T09:32:51Z</time>
      </trkpt>
      <trkpt lat="45.95913" lon="4.77389">
        <ele>193</ele>
        <time>2017-03-17T09:32:52Z</time>
      </trkpt>
      <trkpt lat="45.95915" lon="4.77395">
        <ele>193</ele>
        <time>2017-03-17T09:32:53Z</time>
      </trkpt>
      <trkpt lat="45.95917" lon="4.77402">
        <ele>195</ele>
        <time>2017-03-17T09:32:54Z</time>
      </trkpt>
      <trkpt lat="45.95919" lon="4.77409">
        <ele>195</ele>
        <time>2017-03-17T09:32:55Z</time>
      </trkpt>
      <trkpt lat="45.9592" lon="4.77415">
        <ele>195</ele>
        <time>2017-03-17T09:32:56Z</time>
      </trkpt>
      <trkpt lat="45.95922" lon="4.77421">
        <ele>195</ele>
        <time>2017-03-17T09:32:57Z</time>
      </trkpt>
      <trkpt lat="45.95925" lon="4.77428">
        <ele>195</ele>
        <time>2017-03-17T09:32:58Z</time>
      </trkpt>
      <trkpt lat="45.95927" lon="4.77434">
        <ele>195</ele>
        <time>2017-03-17T09:32:59Z</time>
      </trkpt>
      <trkpt lat="45.95929" lon="4.7744">
        <ele>195</ele>
        <time>2017-03-17T09:33:00Z</time>
      </trkpt>
      <trkpt lat="45.95932" lon="4.77446">
        <ele>195</ele>
        <time>2017-03-17T09:33:01Z</time>
      </trkpt>
      <trkpt lat="45.95934" lon="4.77452">
        <ele>195</ele>
        <time>2017-03-17T09:33:02Z</time>
      </trkpt>
      <trkpt lat="45.95936" lon="4.77459">
        <ele>195</ele>
        <time>2017-03-17T09:33:03Z</time>
      </trkpt>
      <trkpt lat="45.95939" lon="4.77465">
        <ele>195</ele>
        <time>2017-03-17T09:33:04Z</time>
      </trkpt>
      <trkpt lat="45.95941" lon="4.77471">
        <ele>195</ele>
        <time>2017-03-17T09:33:05Z</time>
      </trkpt>
      <trkpt lat="45.95944" lon="4.77478">
        <ele>195</ele>
        <time>2017-03-17T09:33:06Z</time>
      </trkpt>
      <trkpt lat="45.95946" lon="4.77484">
        <ele>195</ele>
        <time>2017-03-17T09:33:07Z</time>
      </trkpt>
      <trkpt lat="45.95948" lon="4.77491">
        <ele>195</ele>
        <time>2017-03-17T09:33:08Z</time>
      </trkpt>
      <trkpt lat="45.95951" lon="4.77497">
        <ele>195</ele>
        <time>2017-03-17T09:33:09Z</time>
      </trkpt>
      <trkpt lat="45.95953" lon="4.77503">
        <ele>195</ele>
        <time>2017-03-17T09:33:10Z</time>
      </trkpt>
      <trkpt lat="45.95956" lon="4.77508">
        <ele>195</ele>
        <time>2017-03-17T09:33:11Z</time>
      </trkpt>
      <trkpt lat="45.95958" lon="4.77514">
        <ele>195</ele>
        <time>2017-03-17T09:33:12Z</time>
      </trkpt>
      <trkpt lat="45.95961" lon="4.7752">
        <ele>195</ele>
        <time>2017-03-17T09:33:13Z</time>
      </trkpt>
      <trkpt lat="45.95963" lon="4.77526">
        <ele>195</ele>
        <time>2017-03-17T09:33:14Z</time>
      </trkpt>
      <trkpt lat="45.95966" lon="4.77531">
        <ele>195</ele>
        <time>2017-03-17T09:33:15Z</time>
      </trkpt>
      <trkpt lat="45.95971" lon="4.77541">
        <ele>195</ele>
        <time>2017-03-17T09:33:17Z</time>
      </trkpt>
      <trkpt lat="45.95973" lon="4.77546">
        <ele>195</ele>
        <time>2017-03-17T09:33:18Z</time>
      </trkpt>
      <trkpt lat="45.95976" lon="4.77551">
        <ele>195</ele>
        <time>2017-03-17T09:33:19Z</time>
      </trkpt>
      <trkpt lat="45.95979" lon="4.77557">
        <ele>195</ele>
        <time>2017-03-17T09:33:20Z</time>
      </trkpt>
      <trkpt lat="45.95982" lon="4.77562">
        <ele>196</ele>
        <time>2017-03-17T09:33:21Z</time>
      </trkpt>
      <trkpt lat="45.95985" lon="4.77569">
        <ele>196</ele>
        <time>2017-03-17T09:33:22Z</time>
      </trkpt>
      <trkpt lat="45.95988" lon="4.77577">
        <ele>196</ele>
        <time>2017-03-17T09:33:23Z</time>
      </trkpt>
      <trkpt lat="45.95991" lon="4.77584">
        <ele>196</ele>
        <time>2017-03-17T09:33:24Z</time>
      </trkpt>
      <trkpt lat="45.95994" lon="4.77591">
        <ele>196</ele>
        <time>2017-03-17T09:33:25Z</time>
      </trkpt>
      <trkpt lat="45.95998" lon="4.77596">
        <ele>196</ele>
        <time>2017-03-17T09:33:26Z</time>
      </trkpt>
      <trkpt lat="45.96002" lon="4.77601">
        <ele>198</ele>
        <time>2017-03-17T09:33:27Z</time>
      </trkpt>
      <trkpt lat="45.96006" lon="4.77606">
        <ele>198</ele>
        <time>2017-03-17T09:33:28Z</time>
      </trkpt>
      <trkpt lat="45.96009" lon="4.7761">
        <ele>199</ele>
        <time>2017-03-17T09:33:29Z</time>
      </trkpt>
      <trkpt lat="45.96013" lon="4.77615">
        <ele>199</ele>
        <time>2017-03-17T09:33:30Z</time>
      </trkpt>
      <trkpt lat="45.96017" lon="4.77619">
        <ele>199</ele>
        <time>2017-03-17T09:33:31Z</time>
      </trkpt>
      <trkpt lat="45.9602" lon="4.77624">
        <ele>199</ele>
        <time>2017-03-17T09:33:32Z</time>
      </trkpt>
      <trkpt lat="45.96024" lon="4.77628">
        <ele>199</ele>
        <time>2017-03-17T09:33:33Z</time>
      </trkpt>
      <trkpt lat="45.96027" lon="4.77632">
        <ele>199</ele>
        <time>2017-03-17T09:33:34Z</time>
      </trkpt>
      <trkpt lat="45.96031" lon="4.77637">
        <ele>199</ele>
        <time>2017-03-17T09:33:35Z</time>
      </trkpt>
      <trkpt lat="45.96035" lon="4.7764">
        <ele>199</ele>
        <time>2017-03-17T09:33:36Z</time>
      </trkpt>
      <trkpt lat="45.96039" lon="4.77645">
        <ele>199</ele>
        <time>2017-03-17T09:33:37Z</time>
      </trkpt>
      <trkpt lat="45.96043" lon="4.77649">
        <ele>199</ele>
        <time>2017-03-17T09:33:38Z</time>
      </trkpt>
      <trkpt lat="45.96047" lon="4.77653">
        <ele>199</ele>
        <time>2017-03-17T09:33:39Z</time>
      </trkpt>
      <trkpt lat="45.96051" lon="4.77658">
        <ele>200</ele>
        <time>2017-03-17T09:33:40Z</time>
      </trkpt>
      <trkpt lat="45.96054" lon="4.77663">
        <ele>200</ele>
        <time>2017-03-17T09:33:41Z</time>
      </trkpt>
      <trkpt lat="45.96058" lon="4.77668">
        <ele>198</ele>
        <time>2017-03-17T09:33:42Z</time>
      </trkpt>
      <trkpt lat="45.96062" lon="4.77673">
        <ele>198</ele>
        <time>2017-03-17T09:33:43Z</time>
      </trkpt>
      <trkpt lat="45.96065" lon="4.77678">
        <ele>198</ele>
        <time>2017-03-17T09:33:44Z</time>
      </trkpt>
      <trkpt lat="45.96069" lon="4.77683">
        <ele>198</ele>
        <time>2017-03-17T09:33:45Z</time>
      </trkpt>
      <trkpt lat="45.96072" lon="4.77688">
        <ele>198</ele>
        <time>2017-03-17T09:33:46Z</time>
      </trkpt>
      <trkpt lat="45.96075" lon="4.77693">
        <ele>197</ele>
        <time>2017-03-17T09:33:47Z</time>
      </trkpt>
      <trkpt lat="45.96078" lon="4.77698">
        <ele>197</ele>
        <time>2017-03-17T09:33:48Z</time>
      </trkpt>
      <trkpt lat="45.96082" lon="4.77703">
        <ele>197</ele>
        <time>2017-03-17T09:33:49Z</time>
      </trkpt>
      <trkpt lat="45.96085" lon="4.77708">
        <ele>200</ele>
        <time>2017-03-17T09:33:50Z</time>
      </trkpt>
      <trkpt lat="45.9609" lon="4.77718">
        <ele>199</ele>
        <time>2017-03-17T09:33:52Z</time>
      </trkpt>
      <trkpt lat="45.96093" lon="4.77723">
        <ele>199</ele>
        <time>2017-03-17T09:33:53Z</time>
      </trkpt>
      <trkpt lat="45.96098" lon="4.77733">
        <ele>198</ele>
        <time>2017-03-17T09:33:55Z</time>
      </trkpt>
      <trkpt lat="45.96101" lon="4.77738">
        <ele>198</ele>
        <time>2017-03-17T09:33:56Z</time>
      </trkpt>
      <trkpt lat="45.96106" lon="4.77747">
        <ele>198</ele>
        <time>2017-03-17T09:33:58Z</time>
      </trkpt>
      <trkpt lat="45.96108" lon="4.77751">
        <ele>197</ele>
        <time>2017-03-17T09:33:59Z</time>
      </trkpt>
      <trkpt lat="45.96114" lon="4.77761">
        <ele>197</ele>
        <time>2017-03-17T09:34:01Z</time>
      </trkpt>
      <trkpt lat="45.96117" lon="4.77766">
        <ele>197</ele>
        <time>2017-03-17T09:34:02Z</time>
      </trkpt>
      <trkpt lat="45.9612" lon="4.7777">
        <ele>197</ele>
        <time>2017-03-17T09:34:03Z</time>
      </trkpt>
      <trkpt lat="45.96123" lon="4.77775">
        <ele>197</ele>
        <time>2017-03-17T09:34:04Z</time>
      </trkpt>
      <trkpt lat="45.96126" lon="4.7778">
        <ele>197</ele>
        <time>2017-03-17T09:34:05Z</time>
      </trkpt>
      <trkpt lat="45.9613" lon="4.77785">
        <ele>198</ele>
        <time>2017-03-17T09:34:06Z</time>
      </trkpt>
      <trkpt lat="45.96133" lon="4.7779">
        <ele>198</ele>
        <time>2017-03-17T09:34:07Z</time>
      </trkpt>
      <trkpt lat="45.96136" lon="4.77795">
        <ele>198</ele>
        <time>2017-03-17T09:34:08Z</time>
      </trkpt>
      <trkpt lat="45.9614" lon="4.778">
        <ele>198</ele>
        <time>2017-03-17T09:34:09Z</time>
      </trkpt>
      <trkpt lat="45.96142" lon="4.77806">
        <ele>198</ele>
        <time>2017-03-17T09:34:10Z</time>
      </trkpt>
      <trkpt lat="45.96145" lon="4.77811">
        <ele>198</ele>
        <time>2017-03-17T09:34:11Z</time>
      </trkpt>
      <trkpt lat="45.96148" lon="4.77817">
        <ele>198</ele>
        <time>2017-03-17T09:34:12Z</time>
      </trkpt>
      <trkpt lat="45.96151" lon="4.77822">
        <ele>198</ele>
        <time>2017-03-17T09:34:13Z</time>
      </trkpt>
      <trkpt lat="45.96154" lon="4.77827">
        <ele>198</ele>
        <time>2017-03-17T09:34:14Z</time>
      </trkpt>
      <trkpt lat="45.96157" lon="4.77832">
        <ele>198</ele>
        <time>2017-03-17T09:34:15Z</time>
      </trkpt>
      <trkpt lat="45.96161" lon="4.77837">
        <ele>198</ele>
        <time>2017-03-17T09:34:16Z</time>
      </trkpt>
      <trkpt lat="45.96164" lon="4.77843">
        <ele>197</ele>
        <time>2017-03-17T09:34:17Z</time>
      </trkpt>
      <trkpt lat="45.96167" lon="4.77849">
        <ele>197</ele>
        <time>2017-03-17T09:34:18Z</time>
      </trkpt>
      <trkpt lat="45.9617" lon="4.77854">
        <ele>201</ele>
        <time>2017-03-17T09:34:19Z</time>
      </trkpt>
      <trkpt lat="45.96173" lon="4.7786">
        <ele>201</ele>
        <time>2017-03-17T09:34:20Z</time>
      </trkpt>
      <trkpt lat="45.96176" lon="4.77866">
        <ele>201</ele>
        <time>2017-03-17T09:34:21Z</time>
      </trkpt>
      <trkpt lat="45.9618" lon="4.77872">
        <ele>201</ele>
        <time>2017-03-17T09:34:22Z</time>
      </trkpt>
      <trkpt lat="45.96184" lon="4.77877">
        <ele>201</ele>
        <time>2017-03-17T09:34:23Z</time>
      </trkpt>
      <trkpt lat="45.96187" lon="4.77883">
        <ele>201</ele>
        <time>2017-03-17T09:34:24Z</time>
      </trkpt>
      <trkpt lat="45.9619" lon="4.77889">
        <ele>201</ele>
        <time>2017-03-17T09:34:25Z</time>
      </trkpt>
      <trkpt lat="45.96194" lon="4.77894">
        <ele>201</ele>
        <time>2017-03-17T09:34:26Z</time>
      </trkpt>
      <trkpt lat="45.96197" lon="4.77899">
        <ele>201</ele>
        <time>2017-03-17T09:34:27Z</time>
      </trkpt>
      <trkpt lat="45.962" lon="4.77905">
        <ele>201</ele>
        <time>2017-03-17T09:34:28Z</time>
      </trkpt>
      <trkpt lat="45.96204" lon="4.7791">
        <ele>202</ele>
        <time>2017-03-17T09:34:29Z</time>
      </trkpt>
      <trkpt lat="45.96207" lon="4.77916">
        <ele>202</ele>
        <time>2017-03-17T09:34:30Z</time>
      </trkpt>
      <trkpt lat="45.96211" lon="4.77922">
        <ele>199</ele>
        <time>2017-03-17T09:34:31Z</time>
      </trkpt>
      <trkpt lat="45.96214" lon="4.77927">
        <ele>199</ele>
        <time>2017-03-17T09:34:32Z</time>
      </trkpt>
      <trkpt lat="45.96217" lon="4.77933">
        <ele>200</ele>
        <time>2017-03-17T09:34:33Z</time>
      </trkpt>
      <trkpt lat="45.96221" lon="4.77938">
        <ele>200</ele>
        <time>2017-03-17T09:34:34Z</time>
      </trkpt>
      <trkpt lat="45.96225" lon="4.77942">
        <ele>200</ele>
        <time>2017-03-17T09:34:35Z</time>
      </trkpt>
      <trkpt lat="45.96228" lon="4.77946">
        <ele>200</ele>
        <time>2017-03-17T09:34:36Z</time>
      </trkpt>
      <trkpt lat="45.96232" lon="4.7795">
        <ele>200</ele>
        <time>2017-03-17T09:34:37Z</time>
      </trkpt>
      <trkpt lat="45.96236" lon="4.77954">
        <ele>199</ele>
        <time>2017-03-17T09:34:38Z</time>
      </trkpt>
      <trkpt lat="45.9624" lon="4.77959">
        <ele>199</ele>
        <time>2017-03-17T09:34:39Z</time>
      </trkpt>
      <trkpt lat="45.96244" lon="4.77963">
        <ele>199</ele>
        <time>2017-03-17T09:34:40Z</time>
      </trkpt>
      <trkpt lat="45.96248" lon="4.77967">
        <ele>199</ele>
        <time>2017-03-17T09:34:41Z</time>
      </trkpt>
      <trkpt lat="45.96252" lon="4.77971">
        <ele>203</ele>
        <time>2017-03-17T09:34:42Z</time>
      </trkpt>
      <trkpt lat="45.96256" lon="4.77975">
        <ele>203</ele>
        <time>2017-03-17T09:34:43Z</time>
      </trkpt>
      <trkpt lat="45.9626" lon="4.77978">
        <ele>202</ele>
        <time>2017-03-17T09:34:44Z</time>
      </trkpt>
      <trkpt lat="45.96264" lon="4.77982">
        <ele>202</ele>
        <time>2017-03-17T09:34:45Z</time>
      </trkpt>
      <trkpt lat="45.96268" lon="4.77985">
        <ele>202</ele>
        <time>2017-03-17T09:34:46Z</time>
      </trkpt>
      <trkpt lat="45.96273" lon="4.77989">
        <ele>202</ele>
        <time>2017-03-17T09:34:47Z</time>
      </trkpt>
      <trkpt lat="45.96278" lon="4.77993">
        <ele>203</ele>
        <time>2017-03-17T09:34:48Z</time>
      </trkpt>
      <trkpt lat="45.96283" lon="4.77998">
        <ele>203</ele>
        <time>2017-03-17T09:34:49Z</time>
      </trkpt>
      <trkpt lat="45.96287" lon="4.78003">
        <ele>199</ele>
        <time>2017-03-17T09:34:50Z</time>
      </trkpt>
      <trkpt lat="45.96292" lon="4.78007">
        <ele>199</ele>
        <time>2017-03-17T09:34:51Z</time>
      </trkpt>
      <trkpt lat="45.96296" lon="4.78012">
        <ele>199</ele>
        <time>2017-03-17T09:34:52Z</time>
      </trkpt>
      <trkpt lat="45.96301" lon="4.78016">
        <ele>200</ele>
        <time>2017-03-17T09:34:53Z</time>
      </trkpt>
      <trkpt lat="45.96305" lon="4.78021">
        <ele>200</ele>
        <time>2017-03-17T09:34:54Z</time>
      </trkpt>
      <trkpt lat="45.9631" lon="4.78025">
        <ele>200</ele>
        <time>2017-03-17T09:34:55Z</time>
      </trkpt>
      <trkpt lat="45.96314" lon="4.7803">
        <ele>200</ele>
        <time>2017-03-17T09:34:56Z</time>
      </trkpt>
      <trkpt lat="45.96319" lon="4.78037">
        <ele>199</ele>
        <time>2017-03-17T09:34:57Z</time>
      </trkpt>
      <trkpt lat="45.96324" lon="4.78042">
        <ele>199</ele>
        <time>2017-03-17T09:34:58Z</time>
      </trkpt>
      <trkpt lat="45.96329" lon="4.78048">
        <ele>199</ele>
        <time>2017-03-17T09:34:59Z</time>
      </trkpt>
      <trkpt lat="45.96333" lon="4.78054">
        <ele>199</ele>
        <time>2017-03-17T09:35:00Z</time>
      </trkpt>
      <trkpt lat="45.96338" lon="4.78059">
        <ele>202</ele>
        <time>2017-03-17T09:35:01Z</time>
      </trkpt>
      <trkpt lat="45.96342" lon="4.78065">
        <ele>201</ele>
        <time>2017-03-17T09:35:02Z</time>
      </trkpt>
      <trkpt lat="45.96346" lon="4.7807">
        <ele>201</ele>
        <time>2017-03-17T09:35:03Z</time>
      </trkpt>
      <trkpt lat="45.96351" lon="4.78076">
        <ele>201</ele>
        <time>2017-03-17T09:35:04Z</time>
      </trkpt>
      <trkpt lat="45.96356" lon="4.78081">
        <ele>201</ele>
        <time>2017-03-17T09:35:05Z</time>
      </trkpt>
      <trkpt lat="45.9636" lon="4.78085">
        <ele>199</ele>
        <time>2017-03-17T09:35:06Z</time>
      </trkpt>
      <trkpt lat="45.96364" lon="4.78089">
        <ele>199</ele>
        <time>2017-03-17T09:35:07Z</time>
      </trkpt>
      <trkpt lat="45.96367" lon="4.78092">
        <ele>199</ele>
        <time>2017-03-17T09:35:08Z</time>
      </trkpt>
      <trkpt lat="45.96371" lon="4.78095">
        <ele>199</ele>
        <time>2017-03-17T09:35:09Z</time>
      </trkpt>
      <trkpt lat="45.96375" lon="4.78099">
        <ele>200</ele>
        <time>2017-03-17T09:35:10Z</time>
      </trkpt>
      <trkpt lat="45.96379" lon="4.78103">
        <ele>200</ele>
        <time>2017-03-17T09:35:11Z</time>
      </trkpt>
      <trkpt lat="45.96383" lon="4.78106">
        <ele>200</ele>
        <time>2017-03-17T09:35:12Z</time>
      </trkpt>
      <trkpt lat="45.96387" lon="4.78109">
        <ele>200</ele>
        <time>2017-03-17T09:35:13Z</time>
      </trkpt>
      <trkpt lat="45.9639" lon="4.78114">
        <ele>200</ele>
        <time>2017-03-17T09:35:14Z</time>
      </trkpt>
      <trkpt lat="45.96398" lon="4.78121">
        <ele>200</ele>
        <time>2017-03-17T09:35:16Z</time>
      </trkpt>
      <trkpt lat="45.96402" lon="4.78124">
        <ele>200</ele>
        <time>2017-03-17T09:35:17Z</time>
      </trkpt>
      <trkpt lat="45.96405" lon="4.78128">
        <ele>200</ele>
        <time>2017-03-17T09:35:18Z</time>
      </trkpt>
      <trkpt lat="45.96409" lon="4.78131">
        <ele>199</ele>
        <time>2017-03-17T09:35:19Z</time>
      </trkpt>
      <trkpt lat="45.96414" lon="4.78135">
        <ele>199</ele>
        <time>2017-03-17T09:35:20Z</time>
      </trkpt>
      <trkpt lat="45.96418" lon="4.78139">
        <ele>203</ele>
        <time>2017-03-17T09:35:21Z</time>
      </trkpt>
      <trkpt lat="45.96422" lon="4.78143">
        <ele>203</ele>
        <time>2017-03-17T09:35:22Z</time>
      </trkpt>
      <trkpt lat="45.96426" lon="4.78147">
        <ele>202</ele>
        <time>2017-03-17T09:35:23Z</time>
      </trkpt>
      <trkpt lat="45.9643" lon="4.78151">
        <ele>202</ele>
        <time>2017-03-17T09:35:24Z</time>
      </trkpt>
      <trkpt lat="45.96435" lon="4.78155">
        <ele>202</ele>
        <time>2017-03-17T09:35:25Z</time>
      </trkpt>
      <trkpt lat="45.96439" lon="4.78159">
        <ele>203</ele>
        <time>2017-03-17T09:35:26Z</time>
      </trkpt>
      <trkpt lat="45.96443" lon="4.78163">
        <ele>203</ele>
        <time>2017-03-17T09:35:27Z</time>
      </trkpt>
      <trkpt lat="45.96447" lon="4.78168">
        <ele>199</ele>
        <time>2017-03-17T09:35:28Z</time>
      </trkpt>
      <trkpt lat="45.96452" lon="4.78172">
        <ele>200</ele>
        <time>2017-03-17T09:35:29Z</time>
      </trkpt>
      <trkpt lat="45.96456" lon="4.78176">
        <ele>200</ele>
        <time>2017-03-17T09:35:30Z</time>
      </trkpt>
      <trkpt lat="45.96461" lon="4.7818">
        <ele>200</ele>
        <time>2017-03-17T09:35:31Z</time>
      </trkpt>
      <trkpt lat="45.96466" lon="4.78184">
        <ele>200</ele>
        <time>2017-03-17T09:35:32Z</time>
      </trkpt>
      <trkpt lat="45.96471" lon="4.78186">
        <ele>200</ele>
        <time>2017-03-17T09:35:33Z</time>
      </trkpt>
      <trkpt lat="45.96476" lon="4.78189">
        <ele>200</ele>
        <time>2017-03-17T09:35:34Z</time>
      </trkpt>
      <trkpt lat="45.9648" lon="4.78191">
        <ele>201</ele>
        <time>2017-03-17T09:35:35Z</time>
      </trkpt>
      <trkpt lat="45.96485" lon="4.78194">
        <ele>201</ele>
        <time>2017-03-17T09:35:36Z</time>
      </trkpt>
      <trkpt lat="45.96489" lon="4.78197">
        <ele>201</ele>
        <time>2017-03-17T09:35:37Z</time>
      </trkpt>
      <trkpt lat="45.96494" lon="4.782">
        <ele>200</ele>
        <time>2017-03-17T09:35:38Z</time>
      </trkpt>
      <trkpt lat="45.96498" lon="4.78205">
        <ele>200</ele>
        <time>2017-03-17T09:35:39Z</time>
      </trkpt>
      <trkpt lat="45.96502" lon="4.7821">
        <ele>205</ele>
        <time>2017-03-17T09:35:40Z</time>
      </trkpt>
      <trkpt lat="45.96505" lon="4.78215">
        <ele>205</ele>
        <time>2017-03-17T09:35:41Z</time>
      </trkpt>
      <trkpt lat="45.96508" lon="4.78221">
        <ele>204</ele>
        <time>2017-03-17T09:35:42Z</time>
      </trkpt>
      <trkpt lat="45.96512" lon="4.78226">
        <ele>204</ele>
        <time>2017-03-17T09:35:43Z</time>
      </trkpt>
      <trkpt lat="45.96515" lon="4.78231">
        <ele>203</ele>
        <time>2017-03-17T09:35:44Z</time>
      </trkpt>
      <trkpt lat="45.96518" lon="4.78236">
        <ele>203</ele>
        <time>2017-03-17T09:35:45Z</time>
      </trkpt>
      <trkpt lat="45.96521" lon="4.78241">
        <ele>203</ele>
        <time>2017-03-17T09:35:46Z</time>
      </trkpt>
      <trkpt lat="45.96524" lon="4.78246">
        <ele>203</ele>
        <time>2017-03-17T09:35:47Z</time>
      </trkpt>
      <trkpt lat="45.96528" lon="4.78252">
        <ele>200</ele>
        <time>2017-03-17T09:35:48Z</time>
      </trkpt>
      <trkpt lat="45.96531" lon="4.78257">
        <ele>200</ele>
        <time>2017-03-17T09:35:49Z</time>
      </trkpt>
      <trkpt lat="45.96534" lon="4.78263">
        <ele>200</ele>
        <time>2017-03-17T09:35:50Z</time>
      </trkpt>
      <trkpt lat="45.96538" lon="4.78268">
        <ele>200</ele>
        <time>2017-03-17T09:35:51Z</time>
      </trkpt>
      <trkpt lat="45.96542" lon="4.78273">
        <ele>200</ele>
        <time>2017-03-17T09:35:52Z</time>
      </trkpt>
      <trkpt lat="45.96546" lon="4.78278">
        <ele>200</ele>
        <time>2017-03-17T09:35:53Z</time>
      </trkpt>
      <trkpt lat="45.9655" lon="4.78282">
        <ele>200</ele>
        <time>2017-03-17T09:35:54Z</time>
      </trkpt>
      <trkpt lat="45.96553" lon="4.78287">
        <ele>200</ele>
        <time>2017-03-17T09:35:55Z</time>
      </trkpt>
      <trkpt lat="45.96557" lon="4.78291">
        <ele>200</ele>
        <time>2017-03-17T09:35:56Z</time>
      </trkpt>
      <trkpt lat="45.96561" lon="4.78296">
        <ele>200</ele>
        <time>2017-03-17T09:35:57Z</time>
      </trkpt>
      <trkpt lat="45.96565" lon="4.783">
        <ele>200</ele>
        <time>2017-03-17T09:35:58Z</time>
      </trkpt>
      <trkpt lat="45.96569" lon="4.78305">
        <ele>200</ele>
        <time>2017-03-17T09:35:59Z</time>
      </trkpt>
      <trkpt lat="45.96573" lon="4.7831">
        <ele>199</ele>
        <time>2017-03-17T09:36:00Z</time>
      </trkpt>
      <trkpt lat="45.96577" lon="4.78315">
        <ele>199</ele>
        <time>2017-03-17T09:36:01Z</time>
      </trkpt>
      <trkpt lat="45.96582" lon="4.78319">
        <ele>199</ele>
        <time>2017-03-17T09:36:02Z</time>
      </trkpt>
      <trkpt lat="45.96586" lon="4.78324">
        <ele>201</ele>
        <time>2017-03-17T09:36:03Z</time>
      </trkpt>
      <trkpt lat="45.9659" lon="4.78328">
        <ele>200</ele>
        <time>2017-03-17T09:36:04Z</time>
      </trkpt>
      <trkpt lat="45.96594" lon="4.78333">
        <ele>201</ele>
        <time>2017-03-17T09:36:05Z</time>
      </trkpt>
      <trkpt lat="45.96598" lon="4.78337">
        <ele>199</ele>
        <time>2017-03-17T09:36:06Z</time>
      </trkpt>
      <trkpt lat="45.96602" lon="4.7834">
        <ele>200</ele>
        <time>2017-03-17T09:36:07Z</time>
      </trkpt>
      <trkpt lat="45.96607" lon="4.78344">
        <ele>200</ele>
        <time>2017-03-17T09:36:08Z</time>
      </trkpt>
      <trkpt lat="45.96611" lon="4.78348">
        <ele>200</ele>
        <time>2017-03-17T09:36:09Z</time>
      </trkpt>
      <trkpt lat="45.96615" lon="4.78352">
        <ele>201</ele>
        <time>2017-03-17T09:36:10Z</time>
      </trkpt>
      <trkpt lat="45.96619" lon="4.78356">
        <ele>201</ele>
        <time>2017-03-17T09:36:11Z</time>
      </trkpt>
      <trkpt lat="45.96623" lon="4.7836">
        <ele>201</ele>
        <time>2017-03-17T09:36:12Z</time>
      </trkpt>
      <trkpt lat="45.96627" lon="4.78363">
        <ele>201</ele>
        <time>2017-03-17T09:36:13Z</time>
      </trkpt>
      <trkpt lat="45.96631" lon="4.78367">
        <ele>201</ele>
        <time>2017-03-17T09:36:14Z</time>
      </trkpt>
      <trkpt lat="45.96635" lon="4.7837">
        <ele>201</ele>
        <time>2017-03-17T09:36:15Z</time>
      </trkpt>
      <trkpt lat="45.96639" lon="4.78374">
        <ele>201</ele>
        <time>2017-03-17T09:36:16Z</time>
      </trkpt>
      <trkpt lat="45.96643" lon="4.78378">
        <ele>201</ele>
        <time>2017-03-17T09:36:17Z</time>
      </trkpt>
      <trkpt lat="45.96647" lon="4.78381">
        <ele>201</ele>
        <time>2017-03-17T09:36:18Z</time>
      </trkpt>
      <trkpt lat="45.96651" lon="4.78385">
        <ele>201</ele>
        <time>2017-03-17T09:36:19Z</time>
      </trkpt>
      <trkpt lat="45.96655" lon="4.78389">
        <ele>201</ele>
        <time>2017-03-17T09:36:20Z</time>
      </trkpt>
      <trkpt lat="45.96659" lon="4.78393">
        <ele>201</ele>
        <time>2017-03-17T09:36:21Z</time>
      </trkpt>
      <trkpt lat="45.96663" lon="4.78397">
        <ele>201</ele>
        <time>2017-03-17T09:36:22Z</time>
      </trkpt>
      <trkpt lat="45.96667" lon="4.78401">
        <ele>201</ele>
        <time>2017-03-17T09:36:23Z</time>
      </trkpt>
      <trkpt lat="45.96671" lon="4.78404">
        <ele>203</ele>
        <time>2017-03-17T09:36:24Z</time>
      </trkpt>
      <trkpt lat="45.96674" lon="4.78408">
        <ele>203</ele>
        <time>2017-03-17T09:36:25Z</time>
      </trkpt>
      <trkpt lat="45.96678" lon="4.78412">
        <ele>203</ele>
        <time>2017-03-17T09:36:26Z</time>
      </trkpt>
      <trkpt lat="45.96682" lon="4.78415">
        <ele>204</ele>
        <time>2017-03-17T09:36:27Z</time>
      </trkpt>
      <trkpt lat="45.96689" lon="4.78422">
        <ele>202</ele>
        <time>2017-03-17T09:36:29Z</time>
      </trkpt>
      <trkpt lat="45.96693" lon="4.78426">
        <ele>202</ele>
        <time>2017-03-17T09:36:30Z</time>
      </trkpt>
      <trkpt lat="45.96699" lon="4.78433">
        <ele>203</ele>
        <time>2017-03-17T09:36:32Z</time>
      </trkpt>
      <trkpt lat="45.96702" lon="4.78436">
        <ele>203</ele>
        <time>2017-03-17T09:36:33Z</time>
      </trkpt>
      <trkpt lat="45.96709" lon="4.78443">
        <ele>203</ele>
        <time>2017-03-17T09:36:35Z</time>
      </trkpt>
      <trkpt lat="45.96713" lon="4.78447">
        <ele>203</ele>
        <time>2017-03-17T09:36:36Z</time>
      </trkpt>
      <trkpt lat="45.96721" lon="4.78453">
        <ele>203</ele>
        <time>2017-03-17T09:36:38Z</time>
      </trkpt>
      <trkpt lat="45.96726" lon="4.78457">
        <ele>203</ele>
        <time>2017-03-17T09:36:39Z</time>
      </trkpt>
      <trkpt lat="45.9673" lon="4.78461">
        <ele>203</ele>
        <time>2017-03-17T09:36:40Z</time>
      </trkpt>
      <trkpt lat="45.96735" lon="4.78465">
        <ele>203</ele>
        <time>2017-03-17T09:36:41Z</time>
      </trkpt>
      <trkpt lat="45.96739" lon="4.78469">
        <ele>203</ele>
        <time>2017-03-17T09:36:42Z</time>
      </trkpt>
      <trkpt lat="45.96744" lon="4.78474">
        <ele>203</ele>
        <time>2017-03-17T09:36:43Z</time>
      </trkpt>
      <trkpt lat="45.96749" lon="4.78478">
        <ele>203</ele>
        <time>2017-03-17T09:36:44Z</time>
      </trkpt>
      <trkpt lat="45.96753" lon="4.78482">
        <ele>205</ele>
        <time>2017-03-17T09:36:45Z</time>
      </trkpt>
      <trkpt lat="45.96757" lon="4.78487">
        <ele>205</ele>
        <time>2017-03-17T09:36:46Z</time>
      </trkpt>
      <trkpt lat="45.96761" lon="4.78492">
        <ele>204</ele>
        <time>2017-03-17T09:36:47Z</time>
      </trkpt>
      <trkpt lat="45.96764" lon="4.78497">
        <ele>204</ele>
        <time>2017-03-17T09:36:48Z</time>
      </trkpt>
      <trkpt lat="45.96768" lon="4.78502">
        <ele>203</ele>
        <time>2017-03-17T09:36:49Z</time>
      </trkpt>
      <trkpt lat="45.96771" lon="4.78508">
        <ele>203</ele>
        <time>2017-03-17T09:36:50Z</time>
      </trkpt>
      <trkpt lat="45.96775" lon="4.78514">
        <ele>203</ele>
        <time>2017-03-17T09:36:51Z</time>
      </trkpt>
      <trkpt lat="45.96778" lon="4.78519">
        <ele>203</ele>
        <time>2017-03-17T09:36:52Z</time>
      </trkpt>
      <trkpt lat="45.96782" lon="4.78524">
        <ele>203</ele>
        <time>2017-03-17T09:36:53Z</time>
      </trkpt>
      <trkpt lat="45.96785" lon="4.78529">
        <ele>203</ele>
        <time>2017-03-17T09:36:54Z</time>
      </trkpt>
      <trkpt lat="45.96789" lon="4.78534">
        <ele>203</ele>
        <time>2017-03-17T09:36:55Z</time>
      </trkpt>
      <trkpt lat="45.96795" lon="4.78544">
        <ele>203</ele>
        <time>2017-03-17T09:36:57Z</time>
      </trkpt>
      <trkpt lat="45.96798" lon="4.78548">
        <ele>203</ele>
        <time>2017-03-17T09:36:58Z</time>
      </trkpt>
      <trkpt lat="45.96804" lon="4.78557">
        <ele>203</ele>
        <time>2017-03-17T09:37:00Z</time>
      </trkpt>
      <trkpt lat="45.96806" lon="4.78562">
        <ele>203</ele>
        <time>2017-03-17T09:37:01Z</time>
      </trkpt>
      <trkpt lat="45.96813" lon="4.78568">
        <ele>203</ele>
        <time>2017-03-17T09:37:03Z</time>
      </trkpt>
      <trkpt lat="45.96817" lon="4.7857">
        <ele>203</ele>
        <time>2017-03-17T09:37:04Z</time>
      </trkpt>
      <trkpt lat="45.96823" lon="4.78569">
        <ele>203</ele>
        <time>2017-03-17T09:37:06Z</time>
      </trkpt>
      <trkpt lat="45.96826" lon="4.78568">
        <ele>203</ele>
        <time>2017-03-17T09:37:07Z</time>
      </trkpt>
      <trkpt lat="45.96833" lon="4.78561">
        <ele>203</ele>
        <time>2017-03-17T09:37:10Z</time>
      </trkpt>
      <trkpt lat="45.96835" lon="4.78558">
        <ele>206</ele>
        <time>2017-03-17T09:37:11Z</time>
      </trkpt>
      <trkpt lat="45.96841" lon="4.7855">
        <ele>206</ele>
        <time>2017-03-17T09:37:14Z</time>
      </trkpt>
      <trkpt lat="45.96843" lon="4.78547">
        <ele>206</ele>
        <time>2017-03-17T09:37:15Z</time>
      </trkpt>
      <trkpt lat="45.96849" lon="4.78542">
        <ele>207</ele>
        <time>2017-03-17T09:37:18Z</time>
      </trkpt>
      <trkpt lat="45.96851" lon="4.7854">
        <ele>207</ele>
        <time>2017-03-17T09:37:19Z</time>
      </trkpt>
      <trkpt lat="45.96858" lon="4.78533">
        <ele>207</ele>
        <time>2017-03-17T09:37:23Z</time>
      </trkpt>
      <trkpt lat="45.96859" lon="4.78531">
        <ele>207</ele>
        <time>2017-03-17T09:37:24Z</time>
      </trkpt>
      <trkpt lat="45.96863" lon="4.78523">
        <ele>207</ele>
        <time>2017-03-17T09:37:28Z</time>
      </trkpt>
      <trkpt lat="45.96865" lon="4.78521">
        <ele>207</ele>
        <time>2017-03-17T09:37:29Z</time>
      </trkpt>
      <trkpt lat="45.96871" lon="4.78512">
        <ele>208</ele>
        <time>2017-03-17T09:37:35Z</time>
      </trkpt>
      <trkpt lat="45.96873" lon="4.7851">
        <ele>208</ele>
        <time>2017-03-17T09:37:36Z</time>
      </trkpt>
      <trkpt lat="45.9688" lon="4.78505">
        <ele>209</ele>
        <time>2017-03-17T09:37:41Z</time>
      </trkpt>
      <trkpt lat="45.96882" lon="4.78504">
        <ele>209</ele>
        <time>2017-03-17T09:37:42Z</time>
      </trkpt>
      <trkpt lat="45.96888" lon="4.78495">
        <ele>213</ele>
        <time>2017-03-17T09:37:47Z</time>
      </trkpt>
      <trkpt lat="45.9689" lon="4.78494">
        <ele>213</ele>
        <time>2017-03-17T09:37:48Z</time>
      </trkpt>
      <trkpt lat="45.96896" lon="4.78485">
        <ele>213</ele>
        <time>2017-03-17T09:37:53Z</time>
      </trkpt>
      <trkpt lat="45.96897" lon="4.78484">
        <ele>213</ele>
        <time>2017-03-17T09:37:54Z</time>
      </trkpt>
      <trkpt lat="45.96903" lon="4.78477">
        <ele>214</ele>
        <time>2017-03-17T09:37:59Z</time>
      </trkpt>
      <trkpt lat="45.96904" lon="4.78475">
        <ele>214</ele>
        <time>2017-03-17T09:38:00Z</time>
      </trkpt>
      <trkpt lat="45.9691" lon="4.78467">
        <ele>214</ele>
        <time>2017-03-17T09:38:05Z</time>
      </trkpt>
      <trkpt lat="45.96912" lon="4.78465">
        <ele>214</ele>
        <time>2017-03-17T09:38:06Z</time>
      </trkpt>
      <trkpt lat="45.96918" lon="4.78457">
        <ele>220</ele>
        <time>2017-03-17T09:38:11Z</time>
      </trkpt>
      <trkpt lat="45.9692" lon="4.78455">
        <ele>221</ele>
        <time>2017-03-17T09:38:12Z</time>
      </trkpt>
      <trkpt lat="45.96926" lon="4.78448">
        <ele>221</ele>
        <time>2017-03-17T09:38:17Z</time>
      </trkpt>
      <trkpt lat="45.96927" lon="4.78447">
        <ele>221</ele>
        <time>2017-03-17T09:38:18Z</time>
      </trkpt>
      <trkpt lat="45.96934" lon="4.7844">
        <ele>221</ele>
        <time>2017-03-17T09:38:23Z</time>
      </trkpt>
      <trkpt lat="45.96935" lon="4.78439">
        <ele>221</ele>
        <time>2017-03-17T09:38:24Z</time>
      </trkpt>
      <trkpt lat="45.96942" lon="4.78432">
        <ele>222</ele>
        <time>2017-03-17T09:38:29Z</time>
      </trkpt>
      <trkpt lat="45.96944" lon="4.78431">
        <ele>222</ele>
        <time>2017-03-17T09:38:30Z</time>
      </trkpt>
      <trkpt lat="45.96952" lon="4.7843">
        <ele>222</ele>
        <time>2017-03-17T09:38:35Z</time>
      </trkpt>
      <trkpt lat="45.96954" lon="4.78429">
        <ele>222</ele>
        <time>2017-03-17T09:38:36Z</time>
      </trkpt>
      <trkpt lat="45.96962" lon="4.78428">
        <ele>223</ele>
        <time>2017-03-17T09:38:41Z</time>
      </trkpt>
      <trkpt lat="45.96963" lon="4.78428">
        <ele>223</ele>
        <time>2017-03-17T09:38:42Z</time>
      </trkpt>
      <trkpt lat="45.96971" lon="4.78429">
        <ele>223</ele>
        <time>2017-03-17T09:38:47Z</time>
      </trkpt>
      <trkpt lat="45.96973" lon="4.78429">
        <ele>223</ele>
        <time>2017-03-17T09:38:48Z</time>
      </trkpt>
      <trkpt lat="45.96981" lon="4.78428">
        <ele>224</ele>
        <time>2017-03-17T09:38:53Z</time>
      </trkpt>
      <trkpt lat="45.96983" lon="4.78428">
        <ele>224</ele>
        <time>2017-03-17T09:38:54Z</time>
      </trkpt>
      <trkpt lat="45.9699" lon="4.78425">
        <ele>225</ele>
        <time>2017-03-17T09:38:59Z</time>
      </trkpt>
      <trkpt lat="45.96992" lon="4.78425">
        <ele>225</ele>
        <time>2017-03-17T09:39:00Z</time>
      </trkpt>
      <trkpt lat="45.96999" lon="4.78419">
        <ele>227</ele>
        <time>2017-03-17T09:39:05Z</time>
      </trkpt>
      <trkpt lat="45.97001" lon="4.78417">
        <ele>227</ele>
        <time>2017-03-17T09:39:06Z</time>
      </trkpt>
      <trkpt lat="45.97008" lon="4.78414">
        <ele>228</ele>
        <time>2017-03-17T09:39:11Z</time>
      </trkpt>
      <trkpt lat="45.9701" lon="4.78413">
        <ele>228</ele>
        <time>2017-03-17T09:39:12Z</time>
      </trkpt>
      <trkpt lat="45.97017" lon="4.78407">
        <ele>228</ele>
        <time>2017-03-17T09:39:17Z</time>
      </trkpt>
      <trkpt lat="45.97018" lon="4.78406">
        <ele>228</ele>
        <time>2017-03-17T09:39:18Z</time>
      </trkpt>
      <trkpt lat="45.97025" lon="4.78401">
        <ele>229</ele>
        <time>2017-03-17T09:39:22Z</time>
      </trkpt>
      <trkpt lat="45.97026" lon="4.784">
        <ele>229</ele>
        <time>2017-03-17T09:39:23Z</time>
      </trkpt>
      <trkpt lat="45.97033" lon="4.78394">
        <ele>229</ele>
        <time>2017-03-17T09:39:27Z</time>
      </trkpt>
      <trkpt lat="45.97034" lon="4.78392">
        <ele>229</ele>
        <time>2017-03-17T09:39:28Z</time>
      </trkpt>
      <trkpt lat="45.97041" lon="4.78386">
        <ele>229</ele>
        <time>2017-03-17T09:39:32Z</time>
      </trkpt>
      <trkpt lat="45.97042" lon="4.78384">
        <ele>229</ele>
        <time>2017-03-17T09:39:33Z</time>
      </trkpt>
      <trkpt lat="45.9705" lon="4.78378">
        <ele>229</ele>
        <time>2017-03-17T09:39:37Z</time>
      </trkpt>
      <trkpt lat="45.97051" lon="4.78377">
        <ele>229</ele>
        <time>2017-03-17T09:39:38Z</time>
      </trkpt>
      <trkpt lat="45.97059" lon="4.7837">
        <ele>230</ele>
        <time>2017-03-17T09:39:42Z</time>
      </trkpt>
      <trkpt lat="45.97061" lon="4.78368">
        <ele>230</ele>
        <time>2017-03-17T09:39:43Z</time>
      </trkpt>
      <trkpt lat="45.97067" lon="4.78363">
        <ele>230</ele>
        <time>2017-03-17T09:39:46Z</time>
      </trkpt>
      <trkpt lat="45.97069" lon="4.78362">
        <ele>230</ele>
        <time>2017-03-17T09:39:47Z</time>
      </trkpt>
      <trkpt lat="45.97075" lon="4.78356">
        <ele>230</ele>
        <time>2017-03-17T09:39:50Z</time>
      </trkpt>
      <trkpt lat="45.97078" lon="4.78354">
        <ele>230</ele>
        <time>2017-03-17T09:39:51Z</time>
      </trkpt>
      <trkpt lat="45.97085" lon="4.78349">
        <ele>231</ele>
        <time>2017-03-17T09:39:54Z</time>
      </trkpt>
      <trkpt lat="45.97087" lon="4.78347">
        <ele>231</ele>
        <time>2017-03-17T09:39:55Z</time>
      </trkpt>
      <trkpt lat="45.97095" lon="4.78341">
        <ele>231</ele>
        <time>2017-03-17T09:39:58Z</time>
      </trkpt>
      <trkpt lat="45.97097" lon="4.78339">
        <ele>231</ele>
        <time>2017-03-17T09:39:59Z</time>
      </trkpt>
      <trkpt lat="45.97104" lon="4.78334">
        <ele>231</ele>
        <time>2017-03-17T09:40:02Z</time>
      </trkpt>
      <trkpt lat="45.97107" lon="4.78332">
        <ele>231</ele>
        <time>2017-03-17T09:40:03Z</time>
      </trkpt>
      <trkpt lat="45.97114" lon="4.78325">
        <ele>231</ele>
        <time>2017-03-17T09:40:06Z</time>
      </trkpt>
      <trkpt lat="45.97117" lon="4.78323">
        <ele>231</ele>
        <time>2017-03-17T09:40:07Z</time>
      </trkpt>
      <trkpt lat="45.97122" lon="4.78319">
        <ele>231</ele>
        <time>2017-03-17T09:40:09Z</time>
      </trkpt>
      <trkpt lat="45.97125" lon="4.78317">
        <ele>231</ele>
        <time>2017-03-17T09:40:10Z</time>
      </trkpt>
      <trkpt lat="45.9713" lon="4.78312">
        <ele>230</ele>
        <time>2017-03-17T09:40:12Z</time>
      </trkpt>
      <trkpt lat="45.97133" lon="4.7831">
        <ele>230</ele>
        <time>2017-03-17T09:40:13Z</time>
      </trkpt>
      <trkpt lat="45.97139" lon="4.78306">
        <ele>230</ele>
        <time>2017-03-17T09:40:15Z</time>
      </trkpt>
      <trkpt lat="45.97141" lon="4.78304">
        <ele>230</ele>
        <time>2017-03-17T09:40:16Z</time>
      </trkpt>
      <trkpt lat="45.97147" lon="4.78299">
        <ele>230</ele>
        <time>2017-03-17T09:40:18Z</time>
      </trkpt>
      <trkpt lat="45.9715" lon="4.78297">
        <ele>230</ele>
        <time>2017-03-17T09:40:19Z</time>
      </trkpt>
      <trkpt lat="45.97155" lon="4.78293">
        <ele>230</ele>
        <time>2017-03-17T09:40:21Z</time>
      </trkpt>
      <trkpt lat="45.97159" lon="4.78291">
        <ele>230</ele>
        <time>2017-03-17T09:40:22Z</time>
      </trkpt>
      <trkpt lat="45.97164" lon="4.78286">
        <ele>230</ele>
        <time>2017-03-17T09:40:24Z</time>
      </trkpt>
      <trkpt lat="45.97167" lon="4.78284">
        <ele>230</ele>
        <time>2017-03-17T09:40:25Z</time>
      </trkpt>
      <trkpt lat="45.97173" lon="4.78279">
        <ele>230</ele>
        <time>2017-03-17T09:40:27Z</time>
      </trkpt>
      <trkpt lat="45.97176" lon="4.78277">
        <ele>230</ele>
        <time>2017-03-17T09:40:28Z</time>
      </trkpt>
      <trkpt lat="45.97182" lon="4.78272">
        <ele>230</ele>
        <time>2017-03-17T09:40:30Z</time>
      </trkpt>
      <trkpt lat="45.97185" lon="4.78269">
        <ele>230</ele>
        <time>2017-03-17T09:40:31Z</time>
      </trkpt>
      <trkpt lat="45.97191" lon="4.78265">
        <ele>230</ele>
        <time>2017-03-17T09:40:33Z</time>
      </trkpt>
      <trkpt lat="45.97194" lon="4.78263">
        <ele>230</ele>
        <time>2017-03-17T09:40:34Z</time>
      </trkpt>
      <trkpt lat="45.97199" lon="4.78259">
        <ele>230</ele>
        <time>2017-03-17T09:40:36Z</time>
      </trkpt>
      <trkpt lat="45.97202" lon="4.78257">
        <ele>230</ele>
        <time>2017-03-17T09:40:37Z</time>
      </trkpt>
      <trkpt lat="45.97208" lon="4.78253">
        <ele>230</ele>
        <time>2017-03-17T09:40:39Z</time>
      </trkpt>
      <trkpt lat="45.97211" lon="4.7825">
        <ele>231</ele>
        <time>2017-03-17T09:40:40Z</time>
      </trkpt>
      <trkpt lat="45.97217" lon="4.78246">
        <ele>231</ele>
        <time>2017-03-17T09:40:42Z</time>
      </trkpt>
      <trkpt lat="45.9722" lon="4.78245">
        <ele>231</ele>
        <time>2017-03-17T09:40:43Z</time>
      </trkpt>
      <trkpt lat="45.97226" lon="4.78244">
        <ele>231</ele>
        <time>2017-03-17T09:40:45Z</time>
      </trkpt>
      <trkpt lat="45.97229" lon="4.78245">
        <ele>231</ele>
        <time>2017-03-17T09:40:46Z</time>
      </trkpt>
      <trkpt lat="45.97234" lon="4.78252">
        <ele>231</ele>
        <time>2017-03-17T09:40:48Z</time>
      </trkpt>
      <trkpt lat="45.97236" lon="4.78256">
        <ele>231</ele>
        <time>2017-03-17T09:40:49Z</time>
      </trkpt>
      <trkpt lat="45.97241" lon="4.78264">
        <ele>231</ele>
        <time>2017-03-17T09:40:51Z</time>
      </trkpt>
      <trkpt lat="45.97243" lon="4.78268">
        <ele>231</ele>
        <time>2017-03-17T09:40:52Z</time>
      </trkpt>
      <trkpt lat="45.97248" lon="4.78276">
        <ele>231</ele>
        <time>2017-03-17T09:40:54Z</time>
      </trkpt>
      <trkpt lat="45.97251" lon="4.7828">
        <ele>232</ele>
        <time>2017-03-17T09:40:55Z</time>
      </trkpt>
      <trkpt lat="45.97256" lon="4.78289">
        <ele>232</ele>
        <time>2017-03-17T09:40:57Z</time>
      </trkpt>
      <trkpt lat="45.97259" lon="4.78293">
        <ele>232</ele>
        <time>2017-03-17T09:40:58Z</time>
      </trkpt>
      <trkpt lat="45.97265" lon="4.78301">
        <ele>232</ele>
        <time>2017-03-17T09:41:00Z</time>
      </trkpt>
      <trkpt lat="45.97268" lon="4.78305">
        <ele>232</ele>
        <time>2017-03-17T09:41:01Z</time>
      </trkpt>
      <trkpt lat="45.97273" lon="4.78314">
        <ele>232</ele>
        <time>2017-03-17T09:41:03Z</time>
      </trkpt>
      <trkpt lat="45.97276" lon="4.78318">
        <ele>232</ele>
        <time>2017-03-17T09:41:04Z</time>
      </trkpt>
      <trkpt lat="45.97282" lon="4.78327">
        <ele>232</ele>
        <time>2017-03-17T09:41:06Z</time>
      </trkpt>
      <trkpt lat="45.97285" lon="4.78331">
        <ele>232</ele>
        <time>2017-03-17T09:41:07Z</time>
      </trkpt>
      <trkpt lat="45.97291" lon="4.7834">
        <ele>232</ele>
        <time>2017-03-17T09:41:09Z</time>
      </trkpt>
      <trkpt lat="45.97295" lon="4.78344">
        <ele>232</ele>
        <time>2017-03-17T09:41:10Z</time>
      </trkpt>
      <trkpt lat="45.97301" lon="4.78352">
        <ele>232</ele>
        <time>2017-03-17T09:41:12Z</time>
      </trkpt>
      <trkpt lat="45.97304" lon="4.78356">
        <ele>232</ele>
        <time>2017-03-17T09:41:13Z</time>
      </trkpt>
      <trkpt lat="45.97311" lon="4.78364">
        <ele>232</ele>
        <time>2017-03-17T09:41:15Z</time>
      </trkpt>
      <trkpt lat="45.97315" lon="4.78368">
        <ele>232</ele>
        <time>2017-03-17T09:41:16Z</time>
      </trkpt>
      <trkpt lat="45.97318" lon="4.78372">
        <ele>232</ele>
        <time>2017-03-17T09:41:17Z</time>
      </trkpt>
      <trkpt lat="45.97322" lon="4.78377">
        <ele>232</ele>
        <time>2017-03-17T09:41:18Z</time>
      </trkpt>
      <trkpt lat="45.97325" lon="4.78381">
        <ele>232</ele>
        <time>2017-03-17T09:41:19Z</time>
      </trkpt>
      <trkpt lat="45.97329" lon="4.78385">
        <ele>232</ele>
        <time>2017-03-17T09:41:20Z</time>
      </trkpt>
      <trkpt lat="45.97333" lon="4.78389">
        <ele>232</ele>
        <time>2017-03-17T09:41:21Z</time>
      </trkpt>
      <trkpt lat="45.97337" lon="4.78394">
        <ele>232</ele>
        <time>2017-03-17T09:41:22Z</time>
      </trkpt>
      <trkpt lat="45.97343" lon="4.78401">
        <ele>232</ele>
        <time>2017-03-17T09:41:24Z</time>
      </trkpt>
      <trkpt lat="45.97346" lon="4.78404">
        <ele>232</ele>
        <time>2017-03-17T09:41:25Z</time>
      </trkpt>
      <trkpt lat="45.97353" lon="4.78407">
        <ele>232</ele>
        <time>2017-03-17T09:41:28Z</time>
      </trkpt>
      <trkpt lat="45.97355" lon="4.78405">
        <ele>232</ele>
        <time>2017-03-17T09:41:29Z</time>
      </trkpt>
      <trkpt lat="45.97361" lon="4.78399">
        <ele>233</ele>
        <time>2017-03-17T09:41:31Z</time>
      </trkpt>
      <trkpt lat="45.97364" lon="4.78395">
        <ele>233</ele>
        <time>2017-03-17T09:41:32Z</time>
      </trkpt>
      <trkpt lat="45.9737" lon="4.78387">
        <ele>233</ele>
        <time>2017-03-17T09:41:34Z</time>
      </trkpt>
      <trkpt lat="45.97374" lon="4.78383">
        <ele>233</ele>
        <time>2017-03-17T09:41:35Z</time>
      </trkpt>
      <trkpt lat="45.9738" lon="4.78376">
        <ele>233</ele>
        <time>2017-03-17T09:41:37Z</time>
      </trkpt>
      <trkpt lat="45.97384" lon="4.78372">
        <ele>233</ele>
        <time>2017-03-17T09:41:38Z</time>
      </trkpt>
      <trkpt lat="45.9739" lon="4.78364">
        <ele>233</ele>
        <time>2017-03-17T09:41:40Z</time>
      </trkpt>
      <trkpt lat="45.97394" lon="4.7836">
        <ele>233</ele>
        <time>2017-03-17T09:41:41Z</time>
      </trkpt>
      <trkpt lat="45.974" lon="4.78352">
        <ele>233</ele>
        <time>2017-03-17T09:41:43Z</time>
      </trkpt>
      <trkpt lat="45.97404" lon="4.78348">
        <ele>233</ele>
        <time>2017-03-17T09:41:44Z</time>
      </trkpt>
      <trkpt lat="45.9741" lon="4.7834">
        <ele>233</ele>
        <time>2017-03-17T09:41:46Z</time>
      </trkpt>
      <trkpt lat="45.97414" lon="4.78337">
        <ele>233</ele>
        <time>2017-03-17T09:41:47Z</time>
      </trkpt>
      <trkpt lat="45.9742" lon="4.78329">
        <ele>233</ele>
        <time>2017-03-17T09:41:49Z</time>
      </trkpt>
      <trkpt lat="45.97423" lon="4.78325">
        <ele>233</ele>
        <time>2017-03-17T09:41:50Z</time>
      </trkpt>
      <trkpt lat="45.9743" lon="4.78318">
        <ele>234</ele>
        <time>2017-03-17T09:41:52Z</time>
      </trkpt>
      <trkpt lat="45.97433" lon="4.78315">
        <ele>234</ele>
        <time>2017-03-17T09:41:53Z</time>
      </trkpt>
      <trkpt lat="45.9744" lon="4.78307">
        <ele>234</ele>
        <time>2017-03-17T09:41:55Z</time>
      </trkpt>
      <trkpt lat="45.97443" lon="4.78304">
        <ele>234</ele>
        <time>2017-03-17T09:41:56Z</time>
      </trkpt>
      <trkpt lat="45.9745" lon="4.78297">
        <ele>234</ele>
        <time>2017-03-17T09:41:58Z</time>
      </trkpt>
      <trkpt lat="45.97453" lon="4.78293">
        <ele>234</ele>
        <time>2017-03-17T09:41:59Z</time>
      </trkpt>
      <trkpt lat="45.97459" lon="4.78286">
        <ele>234</ele>
        <time>2017-03-17T09:42:01Z</time>
      </trkpt>
      <trkpt lat="45.97462" lon="4.78282">
        <ele>234</ele>
        <time>2017-03-17T09:42:02Z</time>
      </trkpt>
      <trkpt lat="45.97469" lon="4.78275">
        <ele>234</ele>
        <time>2017-03-17T09:42:04Z</time>
      </trkpt>
      <trkpt lat="45.97472" lon="4.78271">
        <ele>235</ele>
        <time>2017-03-17T09:42:05Z</time>
      </trkpt>
      <trkpt lat="45.97478" lon="4.78264">
        <ele>235</ele>
        <time>2017-03-17T09:42:07Z</time>
      </trkpt>
      <trkpt lat="45.97481" lon="4.78261">
        <ele>235</ele>
        <time>2017-03-17T09:42:08Z</time>
      </trkpt>
      <trkpt lat="45.97487" lon="4.78254">
        <ele>235</ele>
        <time>2017-03-17T09:42:10Z</time>
      </trkpt>
      <trkpt lat="45.9749" lon="4.78251">
        <ele>235</ele>
        <time>2017-03-17T09:42:11Z</time>
      </trkpt>
      <trkpt lat="45.97495" lon="4.78244">
        <ele>236</ele>
        <time>2017-03-17T09:42:13Z</time>
      </trkpt>
      <trkpt lat="45.97498" lon="4.7824">
        <ele>236</ele>
        <time>2017-03-17T09:42:14Z</time>
      </trkpt>
      <trkpt lat="45.97503" lon="4.78233">
        <ele>237</ele>
        <time>2017-03-17T09:42:16Z</time>
      </trkpt>
      <trkpt lat="45.97506" lon="4.7823">
        <ele>237</ele>
        <time>2017-03-17T09:42:17Z</time>
      </trkpt>
      <trkpt lat="45.97512" lon="4.78224">
        <ele>238</ele>
        <time>2017-03-17T09:42:19Z</time>
      </trkpt>
      <trkpt lat="45.97514" lon="4.78221">
        <ele>238</ele>
        <time>2017-03-17T09:42:20Z</time>
      </trkpt>
      <trkpt lat="45.9752" lon="4.78215">
        <ele>238</ele>
        <time>2017-03-17T09:42:22Z</time>
      </trkpt>
      <trkpt lat="45.97522" lon="4.78211">
        <ele>238</ele>
        <time>2017-03-17T09:42:23Z</time>
      </trkpt>
      <trkpt lat="45.97526" lon="4.78205">
        <ele>238</ele>
        <time>2017-03-17T09:42:25Z</time>
      </trkpt>
      <trkpt lat="45.97529" lon="4.78202">
        <ele>238</ele>
        <time>2017-03-17T09:42:26Z</time>
      </trkpt>
      <trkpt lat="45.97534" lon="4.78198">
        <ele>239</ele>
        <time>2017-03-17T09:42:28Z</time>
      </trkpt>
      <trkpt lat="45.97537" lon="4.78196">
        <ele>239</ele>
        <time>2017-03-17T09:42:29Z</time>
      </trkpt>
      <trkpt lat="45.97542" lon="4.7819">
        <ele>239</ele>
        <time>2017-03-17T09:42:31Z</time>
      </trkpt>
      <trkpt lat="45.97544" lon="4.78187">
        <ele>239</ele>
        <time>2017-03-17T09:42:32Z</time>
      </trkpt>
      <trkpt lat="45.97549" lon="4.78182">
        <ele>239</ele>
        <time>2017-03-17T09:42:34Z</time>
      </trkpt>
      <trkpt lat="45.97551" lon="4.7818">
        <ele>239</ele>
        <time>2017-03-17T09:42:35Z</time>
      </trkpt>
      <trkpt lat="45.97558" lon="4.78172">
        <ele>240</ele>
        <time>2017-03-17T09:42:38Z</time>
      </trkpt>
      <trkpt lat="45.9756" lon="4.78169">
        <ele>240</ele>
        <time>2017-03-17T09:42:39Z</time>
      </trkpt>
      <trkpt lat="45.97568" lon="4.78161">
        <ele>242</ele>
        <time>2017-03-17T09:42:42Z</time>
      </trkpt>
      <trkpt lat="45.9757" lon="4.78159">
        <ele>242</ele>
        <time>2017-03-17T09:42:43Z</time>
      </trkpt>
      <trkpt lat="45.97576" lon="4.78151">
        <ele>242</ele>
        <time>2017-03-17T09:42:46Z</time>
      </trkpt>
      <trkpt lat="45.97578" lon="4.78149">
        <ele>242</ele>
        <time>2017-03-17T09:42:47Z</time>
      </trkpt>
      <trkpt lat="45.97585" lon="4.78141">
        <ele>244</ele>
        <time>2017-03-17T09:42:50Z</time>
      </trkpt>
      <trkpt lat="45.97587" lon="4.78139">
        <ele>245</ele>
        <time>2017-03-17T09:42:51Z</time>
      </trkpt>
      <trkpt lat="45.97594" lon="4.78131">
        <ele>245</ele>
        <time>2017-03-17T09:42:54Z</time>
      </trkpt>
      <trkpt lat="45.97596" lon="4.78129">
        <ele>245</ele>
        <time>2017-03-17T09:42:55Z</time>
      </trkpt>
      <trkpt lat="45.97603" lon="4.78121">
        <ele>245</ele>
        <time>2017-03-17T09:42:58Z</time>
      </trkpt>
      <trkpt lat="45.97605" lon="4.78118">
        <ele>246</ele>
        <time>2017-03-17T09:42:59Z</time>
      </trkpt>
      <trkpt lat="45.9761" lon="4.78113">
        <ele>246</ele>
        <time>2017-03-17T09:43:01Z</time>
      </trkpt>
      <trkpt lat="45.97612" lon="4.7811">
        <ele>246</ele>
        <time>2017-03-17T09:43:02Z</time>
      </trkpt>
      <trkpt lat="45.97617" lon="4.78104">
        <ele>246</ele>
        <time>2017-03-17T09:43:04Z</time>
      </trkpt>
      <trkpt lat="45.97619" lon="4.78101">
        <ele>246</ele>
        <time>2017-03-17T09:43:05Z</time>
      </trkpt>
      <trkpt lat="45.97625" lon="4.78095">
        <ele>246</ele>
        <time>2017-03-17T09:43:07Z</time>
      </trkpt>
      <trkpt lat="45.97627" lon="4.78092">
        <ele>246</ele>
        <time>2017-03-17T09:43:08Z</time>
      </trkpt>
      <trkpt lat="45.97632" lon="4.78086">
        <ele>247</ele>
        <time>2017-03-17T09:43:10Z</time>
      </trkpt>
      <trkpt lat="45.97635" lon="4.78083">
        <ele>247</ele>
        <time>2017-03-17T09:43:11Z</time>
      </trkpt>
      <trkpt lat="45.9764" lon="4.78077">
        <ele>247</ele>
        <time>2017-03-17T09:43:13Z</time>
      </trkpt>
      <trkpt lat="45.97643" lon="4.78075">
        <ele>247</ele>
        <time>2017-03-17T09:43:14Z</time>
      </trkpt>
      <trkpt lat="45.9765" lon="4.7807">
        <ele>247</ele>
        <time>2017-03-17T09:43:16Z</time>
      </trkpt>
      <trkpt lat="45.97653" lon="4.78067">
        <ele>247</ele>
        <time>2017-03-17T09:43:17Z</time>
      </trkpt>
      <trkpt lat="45.97661" lon="4.78063">
        <ele>247</ele>
        <time>2017-03-17T09:43:19Z</time>
      </trkpt>
      <trkpt lat="45.97664" lon="4.7806">
        <ele>247</ele>
        <time>2017-03-17T09:43:20Z</time>
      </trkpt>
      <trkpt lat="45.97672" lon="4.78057">
        <ele>248</ele>
        <time>2017-03-17T09:43:22Z</time>
      </trkpt>
      <trkpt lat="45.97676" lon="4.78055">
        <ele>248</ele>
        <time>2017-03-17T09:43:23Z</time>
      </trkpt>
      <trkpt lat="45.97681" lon="4.78053">
        <ele>247</ele>
        <time>2017-03-17T09:43:24Z</time>
      </trkpt>
      <trkpt lat="45.97685" lon="4.78051">
        <ele>247</ele>
        <time>2017-03-17T09:43:25Z</time>
      </trkpt>
      <trkpt lat="45.9769" lon="4.78049">
        <ele>247</ele>
        <time>2017-03-17T09:43:26Z</time>
      </trkpt>
      <trkpt lat="45.97694" lon="4.78047">
        <ele>247</ele>
        <time>2017-03-17T09:43:27Z</time>
      </trkpt>
      <trkpt lat="45.97699" lon="4.78045">
        <ele>247</ele>
        <time>2017-03-17T09:43:28Z</time>
      </trkpt>
      <trkpt lat="45.97703" lon="4.78043">
        <ele>247</ele>
        <time>2017-03-17T09:43:29Z</time>
      </trkpt>
      <trkpt lat="45.97708" lon="4.78041">
        <ele>247</ele>
        <time>2017-03-17T09:43:30Z</time>
      </trkpt>
      <trkpt lat="45.97712" lon="4.78039">
        <ele>247</ele>
        <time>2017-03-17T09:43:31Z</time>
      </trkpt>
      <trkpt lat="45.97717" lon="4.78037">
        <ele>247</ele>
        <time>2017-03-17T09:43:32Z</time>
      </trkpt>
      <trkpt lat="45.97721" lon="4.78036">
        <ele>247</ele>
        <time>2017-03-17T09:43:33Z</time>
      </trkpt>
      <trkpt lat="45.9773" lon="4.78032">
        <ele>247</ele>
        <time>2017-03-17T09:43:35Z</time>
      </trkpt>
      <trkpt lat="45.97734" lon="4.7803">
        <ele>247</ele>
        <time>2017-03-17T09:43:36Z</time>
      </trkpt>
      <trkpt lat="45.97743" lon="4.78026">
        <ele>247</ele>
        <time>2017-03-17T09:43:38Z</time>
      </trkpt>
      <trkpt lat="45.97747" lon="4.78025">
        <ele>247</ele>
        <time>2017-03-17T09:43:39Z</time>
      </trkpt>
      <trkpt lat="45.97755" lon="4.78021">
        <ele>246</ele>
        <time>2017-03-17T09:43:41Z</time>
      </trkpt>
      <trkpt lat="45.97759" lon="4.78019">
        <ele>246</ele>
        <time>2017-03-17T09:43:42Z</time>
      </trkpt>
      <trkpt lat="45.97764" lon="4.78017">
        <ele>246</ele>
        <time>2017-03-17T09:43:43Z</time>
      </trkpt>
      <trkpt lat="45.97769" lon="4.78015">
        <ele>246</ele>
        <time>2017-03-17T09:43:44Z</time>
      </trkpt>
      <trkpt lat="45.97774" lon="4.78013">
        <ele>246</ele>
        <time>2017-03-17T09:43:45Z</time>
      </trkpt>
      <trkpt lat="45.97779" lon="4.78011">
        <ele>246</ele>
        <time>2017-03-17T09:43:46Z</time>
      </trkpt>
      <trkpt lat="45.97784" lon="4.78009">
        <ele>246</ele>
        <time>2017-03-17T09:43:47Z</time>
      </trkpt>
      <trkpt lat="45.9779" lon="4.78007">
        <ele>246</ele>
        <time>2017-03-17T09:43:48Z</time>
      </trkpt>
      <trkpt lat="45.97795" lon="4.78005">
        <ele>246</ele>
        <time>2017-03-17T09:43:49Z</time>
      </trkpt>
      <trkpt lat="45.978" lon="4.78003">
        <ele>246</ele>
        <time>2017-03-17T09:43:50Z</time>
      </trkpt>
      <trkpt lat="45.97805" lon="4.78001">
        <ele>246</ele>
        <time>2017-03-17T09:43:51Z</time>
      </trkpt>
      <trkpt lat="45.97811" lon="4.77999">
        <ele>246</ele>
        <time>2017-03-17T09:43:52Z</time>
      </trkpt>
      <trkpt lat="45.97816" lon="4.77997">
        <ele>246</ele>
        <time>2017-03-17T09:43:53Z</time>
      </trkpt>
      <trkpt lat="45.97821" lon="4.77994">
        <ele>246</ele>
        <time>2017-03-17T09:43:54Z</time>
      </trkpt>
      <trkpt lat="45.97825" lon="4.77992">
        <ele>246</ele>
        <time>2017-03-17T09:43:55Z</time>
      </trkpt>
      <trkpt lat="45.9783" lon="4.7799">
        <ele>246</ele>
        <time>2017-03-17T09:43:56Z</time>
      </trkpt>
      <trkpt lat="45.97835" lon="4.77988">
        <ele>246</ele>
        <time>2017-03-17T09:43:57Z</time>
      </trkpt>
      <trkpt lat="45.9784" lon="4.77986">
        <ele>246</ele>
        <time>2017-03-17T09:43:58Z</time>
      </trkpt>
      <trkpt lat="45.97845" lon="4.77984">
        <ele>246</ele>
        <time>2017-03-17T09:43:59Z</time>
      </trkpt>
      <trkpt lat="45.9785" lon="4.77982">
        <ele>246</ele>
        <time>2017-03-17T09:44:00Z</time>
      </trkpt>
      <trkpt lat="45.97856" lon="4.7798">
        <ele>246</ele>
        <time>2017-03-17T09:44:01Z</time>
      </trkpt>
      <trkpt lat="45.97862" lon="4.77977">
        <ele>246</ele>
        <time>2017-03-17T09:44:02Z</time>
      </trkpt>
      <trkpt lat="45.97867" lon="4.77975">
        <ele>246</ele>
        <time>2017-03-17T09:44:03Z</time>
      </trkpt>
      <trkpt lat="45.97873" lon="4.77973">
        <ele>246</ele>
        <time>2017-03-17T09:44:04Z</time>
      </trkpt>
      <trkpt lat="45.97879" lon="4.77971">
        <ele>246</ele>
        <time>2017-03-17T09:44:05Z</time>
      </trkpt>
      <trkpt lat="45.97885" lon="4.77969">
        <ele>246</ele>
        <time>2017-03-17T09:44:06Z</time>
      </trkpt>
      <trkpt lat="45.97891" lon="4.77967">
        <ele>246</ele>
        <time>2017-03-17T09:44:07Z</time>
      </trkpt>
      <trkpt lat="45.97897" lon="4.77965">
        <ele>246</ele>
        <time>2017-03-17T09:44:08Z</time>
      </trkpt>
      <trkpt lat="45.97903" lon="4.77964">
        <ele>246</ele>
        <time>2017-03-17T09:44:09Z</time>
      </trkpt>
      <trkpt lat="45.97908" lon="4.77962">
        <ele>246</ele>
        <time>2017-03-17T09:44:10Z</time>
      </trkpt>
      <trkpt lat="45.97914" lon="4.77961">
        <ele>246</ele>
        <time>2017-03-17T09:44:11Z</time>
      </trkpt>
      <trkpt lat="45.9792" lon="4.7796">
        <ele>246</ele>
        <time>2017-03-17T09:44:12Z</time>
      </trkpt>
      <trkpt lat="45.97926" lon="4.77959">
        <ele>246</ele>
        <time>2017-03-17T09:44:13Z</time>
      </trkpt>
      <trkpt lat="45.97931" lon="4.77958">
        <ele>246</ele>
        <time>2017-03-17T09:44:14Z</time>
      </trkpt>
      <trkpt lat="45.97937" lon="4.77957">
        <ele>246</ele>
        <time>2017-03-17T09:44:15Z</time>
      </trkpt>
      <trkpt lat="45.97943" lon="4.77957">
        <ele>246</ele>
        <time>2017-03-17T09:44:16Z</time>
      </trkpt>
      <trkpt lat="45.97948" lon="4.77956">
        <ele>246</ele>
        <time>2017-03-17T09:44:17Z</time>
      </trkpt>
      <trkpt lat="45.97954" lon="4.77955">
        <ele>246</ele>
        <time>2017-03-17T09:44:18Z</time>
      </trkpt>
      <trkpt lat="45.97959" lon="4.77954">
        <ele>246</ele>
        <time>2017-03-17T09:44:19Z</time>
      </trkpt>
      <trkpt lat="45.97965" lon="4.77953">
        <ele>246</ele>
        <time>2017-03-17T09:44:20Z</time>
      </trkpt>
      <trkpt lat="45.97971" lon="4.77952">
        <ele>246</ele>
        <time>2017-03-17T09:44:21Z</time>
      </trkpt>
      <trkpt lat="45.97977" lon="4.77952">
        <ele>246</ele>
        <time>2017-03-17T09:44:22Z</time>
      </trkpt>
      <trkpt lat="45.97983" lon="4.77951">
        <ele>246</ele>
        <time>2017-03-17T09:44:23Z</time>
      </trkpt>
      <trkpt lat="45.97989" lon="4.7795">
        <ele>246</ele>
        <time>2017-03-17T09:44:24Z</time>
      </trkpt>
      <trkpt lat="45.97995" lon="4.77949">
        <ele>246</ele>
        <time>2017-03-17T09:44:25Z</time>
      </trkpt>
      <trkpt lat="45.98001" lon="4.77948">
        <ele>247</ele>
        <time>2017-03-17T09:44:26Z</time>
      </trkpt>
      <trkpt lat="45.98008" lon="4.77948">
        <ele>247</ele>
        <time>2017-03-17T09:44:27Z</time>
      </trkpt>
      <trkpt lat="45.98014" lon="4.77947">
        <ele>247</ele>
        <time>2017-03-17T09:44:28Z</time>
      </trkpt>
      <trkpt lat="45.9802" lon="4.77946">
        <ele>247</ele>
        <time>2017-03-17T09:44:29Z</time>
      </trkpt>
      <trkpt lat="45.98025" lon="4.77946">
        <ele>247</ele>
        <time>2017-03-17T09:44:30Z</time>
      </trkpt>
      <trkpt lat="45.98031" lon="4.77945">
        <ele>247</ele>
        <time>2017-03-17T09:44:31Z</time>
      </trkpt>
      <trkpt lat="45.98037" lon="4.77944">
        <ele>247</ele>
        <time>2017-03-17T09:44:32Z</time>
      </trkpt>
      <trkpt lat="45.98042" lon="4.77944">
        <ele>247</ele>
        <time>2017-03-17T09:44:33Z</time>
      </trkpt>
      <trkpt lat="45.98048" lon="4.77943">
        <ele>247</ele>
        <time>2017-03-17T09:44:34Z</time>
      </trkpt>
      <trkpt lat="45.98053" lon="4.77942">
        <ele>247</ele>
        <time>2017-03-17T09:44:35Z</time>
      </trkpt>
      <trkpt lat="45.98059" lon="4.77941">
        <ele>247</ele>
        <time>2017-03-17T09:44:36Z</time>
      </trkpt>
      <trkpt lat="45.98065" lon="4.7794">
        <ele>247</ele>
        <time>2017-03-17T09:44:37Z</time>
      </trkpt>
      <trkpt lat="45.9807" lon="4.7794">
        <ele>247</ele>
        <time>2017-03-17T09:44:38Z</time>
      </trkpt>
      <trkpt lat="45.98075" lon="4.77939">
        <ele>247</ele>
        <time>2017-03-17T09:44:39Z</time>
      </trkpt>
      <trkpt lat="45.98081" lon="4.77938">
        <ele>247</ele>
        <time>2017-03-17T09:44:40Z</time>
      </trkpt>
      <trkpt lat="45.98086" lon="4.77938">
        <ele>246</ele>
        <time>2017-03-17T09:44:41Z</time>
      </trkpt>
      <trkpt lat="45.98092" lon="4.77937">
        <ele>246</ele>
        <time>2017-03-17T09:44:42Z</time>
      </trkpt>
      <trkpt lat="45.98097" lon="4.77936">
        <ele>246</ele>
        <time>2017-03-17T09:44:43Z</time>
      </trkpt>
      <trkpt lat="45.98102" lon="4.77935">
        <ele>246</ele>
        <time>2017-03-17T09:44:44Z</time>
      </trkpt>
      <trkpt lat="45.98108" lon="4.77934">
        <ele>246</ele>
        <time>2017-03-17T09:44:45Z</time>
      </trkpt>
      <trkpt lat="45.98113" lon="4.77933">
        <ele>246</ele>
        <time>2017-03-17T09:44:46Z</time>
      </trkpt>
      <trkpt lat="45.98118" lon="4.77932">
        <ele>246</ele>
        <time>2017-03-17T09:44:47Z</time>
      </trkpt>
      <trkpt lat="45.98124" lon="4.77931">
        <ele>246</ele>
        <time>2017-03-17T09:44:48Z</time>
      </trkpt>
      <trkpt lat="45.9813" lon="4.7793">
        <ele>246</ele>
        <time>2017-03-17T09:44:49Z</time>
      </trkpt>
      <trkpt lat="45.98136" lon="4.77929">
        <ele>246</ele>
        <time>2017-03-17T09:44:50Z</time>
      </trkpt>
      <trkpt lat="45.98142" lon="4.77928">
        <ele>246</ele>
        <time>2017-03-17T09:44:51Z</time>
      </trkpt>
      <trkpt lat="45.98148" lon="4.77926">
        <ele>246</ele>
        <time>2017-03-17T09:44:52Z</time>
      </trkpt>
      <trkpt lat="45.98154" lon="4.77924">
        <ele>245</ele>
        <time>2017-03-17T09:44:53Z</time>
      </trkpt>
      <trkpt lat="45.9816" lon="4.77922">
        <ele>245</ele>
        <time>2017-03-17T09:44:54Z</time>
      </trkpt>
      <trkpt lat="45.98166" lon="4.7792">
        <ele>245</ele>
        <time>2017-03-17T09:44:55Z</time>
      </trkpt>
      <trkpt lat="45.98172" lon="4.77918">
        <ele>245</ele>
        <time>2017-03-17T09:44:56Z</time>
      </trkpt>
      <trkpt lat="45.98178" lon="4.77916">
        <ele>245</ele>
        <time>2017-03-17T09:44:57Z</time>
      </trkpt>
      <trkpt lat="45.98184" lon="4.77914">
        <ele>245</ele>
        <time>2017-03-17T09:44:58Z</time>
      </trkpt>
      <trkpt lat="45.98189" lon="4.77912">
        <ele>245</ele>
        <time>2017-03-17T09:44:59Z</time>
      </trkpt>
      <trkpt lat="45.98195" lon="4.7791">
        <ele>244</ele>
        <time>2017-03-17T09:45:00Z</time>
      </trkpt>
      <trkpt lat="45.98201" lon="4.77908">
        <ele>244</ele>
        <time>2017-03-17T09:45:01Z</time>
      </trkpt>
      <trkpt lat="45.98207" lon="4.77906">
        <ele>244</ele>
        <time>2017-03-17T09:45:02Z</time>
      </trkpt>
      <trkpt lat="45.98213" lon="4.77904">
        <ele>244</ele>
        <time>2017-03-17T09:45:03Z</time>
      </trkpt>
      <trkpt lat="45.98219" lon="4.77903">
        <ele>244</ele>
        <time>2017-03-17T09:45:04Z</time>
      </trkpt>
      <trkpt lat="45.98225" lon="4.77901">
        <ele>244</ele>
        <time>2017-03-17T09:45:05Z</time>
      </trkpt>
      <trkpt lat="45.98231" lon="4.77899">
        <ele>244</ele>
        <time>2017-03-17T09:45:06Z</time>
      </trkpt>
      <trkpt lat="45.98237" lon="4.77897">
        <ele>244</ele>
        <time>2017-03-17T09:45:07Z</time>
      </trkpt>
      <trkpt lat="45.98243" lon="4.77895">
        <ele>244</ele>
        <time>2017-03-17T09:45:08Z</time>
      </trkpt>
      <trkpt lat="45.98249" lon="4.77893">
        <ele>244</ele>
        <time>2017-03-17T09:45:09Z</time>
      </trkpt>
      <trkpt lat="45.98255" lon="4.77891">
        <ele>244</ele>
        <time>2017-03-17T09:45:10Z</time>
      </trkpt>
      <trkpt lat="45.98261" lon="4.77889">
        <ele>244</ele>
        <time>2017-03-17T09:45:11Z</time>
      </trkpt>
      <trkpt lat="45.98267" lon="4.77887">
        <ele>244</ele>
        <time>2017-03-17T09:45:12Z</time>
      </trkpt>
      <trkpt lat="45.98273" lon="4.77885">
        <ele>244</ele>
        <time>2017-03-17T09:45:13Z</time>
      </trkpt>
      <trkpt lat="45.98279" lon="4.77882">
        <ele>244</ele>
        <time>2017-03-17T09:45:14Z</time>
      </trkpt>
      <trkpt lat="45.98285" lon="4.7788">
        <ele>244</ele>
        <time>2017-03-17T09:45:15Z</time>
      </trkpt>
      <trkpt lat="45.98291" lon="4.77877">
        <ele>244</ele>
        <time>2017-03-17T09:45:16Z</time>
      </trkpt>
      <trkpt lat="45.98297" lon="4.77874">
        <ele>243</ele>
        <time>2017-03-17T09:45:17Z</time>
      </trkpt>
      <trkpt lat="45.98303" lon="4.77872">
        <ele>243</ele>
        <time>2017-03-17T09:45:18Z</time>
      </trkpt>
      <trkpt lat="45.9831" lon="4.77869">
        <ele>243</ele>
        <time>2017-03-17T09:45:19Z</time>
      </trkpt>
      <trkpt lat="45.98316" lon="4.77867">
        <ele>243</ele>
        <time>2017-03-17T09:45:20Z</time>
      </trkpt>
      <trkpt lat="45.98322" lon="4.77864">
        <ele>243</ele>
        <time>2017-03-17T09:45:21Z</time>
      </trkpt>
      <trkpt lat="45.98328" lon="4.77861">
        <ele>243</ele>
        <time>2017-03-17T09:45:22Z</time>
      </trkpt>
      <trkpt lat="45.98334" lon="4.77858">
        <ele>242</ele>
        <time>2017-03-17T09:45:23Z</time>
      </trkpt>
      <trkpt lat="45.9834" lon="4.77855">
        <ele>242</ele>
        <time>2017-03-17T09:45:24Z</time>
      </trkpt>
      <trkpt lat="45.98346" lon="4.77853">
        <ele>242</ele>
        <time>2017-03-17T09:45:25Z</time>
      </trkpt>
      <trkpt lat="45.98351" lon="4.7785">
        <ele>242</ele>
        <time>2017-03-17T09:45:26Z</time>
      </trkpt>
      <trkpt lat="45.98357" lon="4.77847">
        <ele>242</ele>
        <time>2017-03-17T09:45:27Z</time>
      </trkpt>
      <trkpt lat="45.98364" lon="4.77845">
        <ele>242</ele>
        <time>2017-03-17T09:45:28Z</time>
      </trkpt>
      <trkpt lat="45.9837" lon="4.77842">
        <ele>242</ele>
        <time>2017-03-17T09:45:29Z</time>
      </trkpt>
      <trkpt lat="45.98376" lon="4.77839">
        <ele>242</ele>
        <time>2017-03-17T09:45:30Z</time>
      </trkpt>
      <trkpt lat="45.98382" lon="4.77837">
        <ele>242</ele>
        <time>2017-03-17T09:45:31Z</time>
      </trkpt>
      <trkpt lat="45.98388" lon="4.77834">
        <ele>242</ele>
        <time>2017-03-17T09:45:32Z</time>
      </trkpt>
      <trkpt lat="45.98394" lon="4.77831">
        <ele>241</ele>
        <time>2017-03-17T09:45:33Z</time>
      </trkpt>
      <trkpt lat="45.984" lon="4.77828">
        <ele>241</ele>
        <time>2017-03-17T09:45:34Z</time>
      </trkpt>
      <trkpt lat="45.98407" lon="4.77825">
        <ele>241</ele>
        <time>2017-03-17T09:45:35Z</time>
      </trkpt>
      <trkpt lat="45.98412" lon="4.77823">
        <ele>241</ele>
        <time>2017-03-17T09:45:36Z</time>
      </trkpt>
      <trkpt lat="45.98419" lon="4.7782">
        <ele>240</ele>
        <time>2017-03-17T09:45:37Z</time>
      </trkpt>
      <trkpt lat="45.98425" lon="4.77817">
        <ele>240</ele>
        <time>2017-03-17T09:45:38Z</time>
      </trkpt>
      <trkpt lat="45.98431" lon="4.77815">
        <ele>239</ele>
        <time>2017-03-17T09:45:39Z</time>
      </trkpt>
      <trkpt lat="45.98437" lon="4.77812">
        <ele>239</ele>
        <time>2017-03-17T09:45:40Z</time>
      </trkpt>
      <trkpt lat="45.98443" lon="4.7781">
        <ele>239</ele>
        <time>2017-03-17T09:45:41Z</time>
      </trkpt>
      <trkpt lat="45.98449" lon="4.77807">
        <ele>239</ele>
        <time>2017-03-17T09:45:42Z</time>
      </trkpt>
      <trkpt lat="45.98456" lon="4.77805">
        <ele>239</ele>
        <time>2017-03-17T09:45:43Z</time>
      </trkpt>
      <trkpt lat="45.98462" lon="4.77803">
        <ele>239</ele>
        <time>2017-03-17T09:45:44Z</time>
      </trkpt>
      <trkpt lat="45.98468" lon="4.778">
        <ele>238</ele>
        <time>2017-03-17T09:45:45Z</time>
      </trkpt>
      <trkpt lat="45.98474" lon="4.77798">
        <ele>238</ele>
        <time>2017-03-17T09:45:46Z</time>
      </trkpt>
      <trkpt lat="45.9848" lon="4.77795">
        <ele>238</ele>
        <time>2017-03-17T09:45:47Z</time>
      </trkpt>
      <trkpt lat="45.98487" lon="4.77792">
        <ele>238</ele>
        <time>2017-03-17T09:45:48Z</time>
      </trkpt>
      <trkpt lat="45.98492" lon="4.77789">
        <ele>238</ele>
        <time>2017-03-17T09:45:49Z</time>
      </trkpt>
      <trkpt lat="45.98498" lon="4.77787">
        <ele>238</ele>
        <time>2017-03-17T09:45:50Z</time>
      </trkpt>
      <trkpt lat="45.98503" lon="4.77784">
        <ele>236</ele>
        <time>2017-03-17T09:45:51Z</time>
      </trkpt>
      <trkpt lat="45.98508" lon="4.77782">
        <ele>236</ele>
        <time>2017-03-17T09:45:52Z</time>
      </trkpt>
      <trkpt lat="45.98516" lon="4.77779">
        <ele>236</ele>
        <time>2017-03-17T09:45:54Z</time>
      </trkpt>
      <trkpt lat="45.98518" lon="4.77778">
        <ele>236</ele>
        <time>2017-03-17T09:45:55Z</time>
      </trkpt>
      <trkpt lat="45.98522" lon="4.77777">
        <ele>236</ele>
        <time>2017-03-17T09:45:57Z</time>
      </trkpt>
      <trkpt lat="45.98523" lon="4.77777">
        <ele>236</ele>
        <time>2017-03-17T09:45:58Z</time>
      </trkpt>
      <trkpt lat="45.98525" lon="4.77777">
        <ele>236</ele>
        <time>2017-03-17T09:46:01Z</time>
      </trkpt>
      <trkpt lat="45.98527" lon="4.77776">
        <ele>236</ele>
        <time>2017-03-17T09:46:02Z</time>
      </trkpt>
      <trkpt lat="45.98533" lon="4.7777">
        <ele>236</ele>
        <time>2017-03-17T09:46:05Z</time>
      </trkpt>
      <trkpt lat="45.98536" lon="4.77768">
        <ele>236</ele>
        <time>2017-03-17T09:46:06Z</time>
      </trkpt>
      <trkpt lat="45.98542" lon="4.77763">
        <ele>235</ele>
        <time>2017-03-17T09:46:08Z</time>
      </trkpt>
      <trkpt lat="45.98546" lon="4.7776">
        <ele>235</ele>
        <time>2017-03-17T09:46:09Z</time>
      </trkpt>
      <trkpt lat="45.98554" lon="4.77755">
        <ele>235</ele>
        <time>2017-03-17T09:46:11Z</time>
      </trkpt>
      <trkpt lat="45.98558" lon="4.77753">
        <ele>235</ele>
        <time>2017-03-17T09:46:12Z</time>
      </trkpt>
      <trkpt lat="45.98563" lon="4.7775">
        <ele>235</ele>
        <time>2017-03-17T09:46:13Z</time>
      </trkpt>
      <trkpt lat="45.98567" lon="4.77747">
        <ele>233</ele>
        <time>2017-03-17T09:46:14Z</time>
      </trkpt>
      <trkpt lat="45.98572" lon="4.77744">
        <ele>233</ele>
        <time>2017-03-17T09:46:15Z</time>
      </trkpt>
      <trkpt lat="45.98578" lon="4.7774">
        <ele>233</ele>
        <time>2017-03-17T09:46:16Z</time>
      </trkpt>
      <trkpt lat="45.98584" lon="4.77737">
        <ele>232</ele>
        <time>2017-03-17T09:46:17Z</time>
      </trkpt>
      <trkpt lat="45.9859" lon="4.77733">
        <ele>232</ele>
        <time>2017-03-17T09:46:18Z</time>
      </trkpt>
      <trkpt lat="45.98596" lon="4.7773">
        <ele>231</ele>
        <time>2017-03-17T09:46:19Z</time>
      </trkpt>
      <trkpt lat="45.98603" lon="4.77727">
        <ele>231</ele>
        <time>2017-03-17T09:46:20Z</time>
      </trkpt>
      <trkpt lat="45.9861" lon="4.77724">
        <ele>231</ele>
        <time>2017-03-17T09:46:21Z</time>
      </trkpt>
      <trkpt lat="45.98617" lon="4.77719">
        <ele>231</ele>
        <time>2017-03-17T09:46:22Z</time>
      </trkpt>
      <trkpt lat="45.98624" lon="4.77713">
        <ele>231</ele>
        <time>2017-03-17T09:46:23Z</time>
      </trkpt>
      <trkpt lat="45.98632" lon="4.77707">
        <ele>230</ele>
        <time>2017-03-17T09:46:24Z</time>
      </trkpt>
      <trkpt lat="45.9864" lon="4.777">
        <ele>230</ele>
        <time>2017-03-17T09:46:25Z</time>
      </trkpt>
      <trkpt lat="45.98648" lon="4.77693">
        <ele>230</ele>
        <time>2017-03-17T09:46:26Z</time>
      </trkpt>
      <trkpt lat="45.98655" lon="4.77686">
        <ele>229</ele>
        <time>2017-03-17T09:46:27Z</time>
      </trkpt>
      <trkpt lat="45.98663" lon="4.77677">
        <ele>229</ele>
        <time>2017-03-17T09:46:28Z</time>
      </trkpt>
      <trkpt lat="45.98671" lon="4.77667">
        <ele>228</ele>
        <time>2017-03-17T09:46:29Z</time>
      </trkpt>
      <trkpt lat="45.98678" lon="4.77657">
        <ele>226</ele>
        <time>2017-03-17T09:46:30Z</time>
      </trkpt>
      <trkpt lat="45.98686" lon="4.77648">
        <ele>225</ele>
        <time>2017-03-17T09:46:31Z</time>
      </trkpt>
      <trkpt lat="45.98695" lon="4.77639">
        <ele>224</ele>
        <time>2017-03-17T09:46:32Z</time>
      </trkpt>
      <trkpt lat="45.98704" lon="4.7763">
        <ele>224</ele>
        <time>2017-03-17T09:46:33Z</time>
      </trkpt>
      <trkpt lat="45.98713" lon="4.77621">
        <ele>223</ele>
        <time>2017-03-17T09:46:34Z</time>
      </trkpt>
      <trkpt lat="45.98722" lon="4.77612">
        <ele>223</ele>
        <time>2017-03-17T09:46:35Z</time>
      </trkpt>
      <trkpt lat="45.98731" lon="4.77603">
        <ele>222</ele>
        <time>2017-03-17T09:46:36Z</time>
      </trkpt>
      <trkpt lat="45.9874" lon="4.77594">
        <ele>222</ele>
        <time>2017-03-17T09:46:37Z</time>
      </trkpt>
      <trkpt lat="45.98749" lon="4.77586">
        <ele>220</ele>
        <time>2017-03-17T09:46:38Z</time>
      </trkpt>
      <trkpt lat="45.98758" lon="4.77578">
        <ele>219</ele>
        <time>2017-03-17T09:46:39Z</time>
      </trkpt>
      <trkpt lat="45.98767" lon="4.7757">
        <ele>218</ele>
        <time>2017-03-17T09:46:40Z</time>
      </trkpt>
      <trkpt lat="45.98776" lon="4.77562">
        <ele>218</ele>
        <time>2017-03-17T09:46:41Z</time>
      </trkpt>
      <trkpt lat="45.98785" lon="4.77554">
        <ele>218</ele>
        <time>2017-03-17T09:46:42Z</time>
      </trkpt>
      <trkpt lat="45.98793" lon="4.77547">
        <ele>217</ele>
        <time>2017-03-17T09:46:43Z</time>
      </trkpt>
      <trkpt lat="45.988" lon="4.77539">
        <ele>217</ele>
        <time>2017-03-17T09:46:44Z</time>
      </trkpt>
      <trkpt lat="45.98806" lon="4.77531">
        <ele>217</ele>
        <time>2017-03-17T09:46:45Z</time>
      </trkpt>
      <trkpt lat="45.98812" lon="4.77521">
        <ele>217</ele>
        <time>2017-03-17T09:46:46Z</time>
      </trkpt>
      <trkpt lat="45.98816" lon="4.7751">
        <ele>216</ele>
        <time>2017-03-17T09:46:47Z</time>
      </trkpt>
      <trkpt lat="45.9882" lon="4.77499">
        <ele>214</ele>
        <time>2017-03-17T09:46:48Z</time>
      </trkpt>
      <trkpt lat="45.98824" lon="4.77489">
        <ele>214</ele>
        <time>2017-03-17T09:46:49Z</time>
      </trkpt>
      <trkpt lat="45.98829" lon="4.77479">
        <ele>213</ele>
        <time>2017-03-17T09:46:50Z</time>
      </trkpt>
      <trkpt lat="45.98832" lon="4.77469">
        <ele>213</ele>
        <time>2017-03-17T09:46:51Z</time>
      </trkpt>
      <trkpt lat="45.98838" lon="4.77462">
        <ele>210</ele>
        <time>2017-03-17T09:46:52Z</time>
      </trkpt>
      <trkpt lat="45.98845" lon="4.77458">
        <ele>210</ele>
        <time>2017-03-17T09:46:53Z</time>
      </trkpt>
      <trkpt lat="45.98853" lon="4.77455">
        <ele>209</ele>
        <time>2017-03-17T09:46:54Z</time>
      </trkpt>
      <trkpt lat="45.98861" lon="4.77452">
        <ele>209</ele>
        <time>2017-03-17T09:46:55Z</time>
      </trkpt>
      <trkpt lat="45.9887" lon="4.77449">
        <ele>209</ele>
        <time>2017-03-17T09:46:56Z</time>
      </trkpt>
      <trkpt lat="45.98879" lon="4.77446">
        <ele>208</ele>
        <time>2017-03-17T09:46:57Z</time>
      </trkpt>
      <trkpt lat="45.98889" lon="4.77441">
        <ele>208</ele>
        <time>2017-03-17T09:46:58Z</time>
      </trkpt>
      <trkpt lat="45.98898" lon="4.77437">
        <ele>207</ele>
        <time>2017-03-17T09:46:59Z</time>
      </trkpt>
      <trkpt lat="45.98908" lon="4.77432">
        <ele>207</ele>
        <time>2017-03-17T09:47:00Z</time>
      </trkpt>
      <trkpt lat="45.98918" lon="4.77428">
        <ele>205</ele>
        <time>2017-03-17T09:47:01Z</time>
      </trkpt>
      <trkpt lat="45.98927" lon="4.77424">
        <ele>205</ele>
        <time>2017-03-17T09:47:02Z</time>
      </trkpt>
      <trkpt lat="45.98936" lon="4.7742">
        <ele>205</ele>
        <time>2017-03-17T09:47:03Z</time>
      </trkpt>
      <trkpt lat="45.98944" lon="4.77416">
        <ele>203</ele>
        <time>2017-03-17T09:47:04Z</time>
      </trkpt>
      <trkpt lat="45.98952" lon="4.77412">
        <ele>203</ele>
        <time>2017-03-17T09:47:05Z</time>
      </trkpt>
      <trkpt lat="45.98958" lon="4.77408">
        <ele>203</ele>
        <time>2017-03-17T09:47:06Z</time>
      </trkpt>
      <trkpt lat="45.98965" lon="4.77405">
        <ele>202</ele>
        <time>2017-03-17T09:47:07Z</time>
      </trkpt>
      <trkpt lat="45.9897" lon="4.77402">
        <ele>202</ele>
        <time>2017-03-17T09:47:08Z</time>
      </trkpt>
      <trkpt lat="45.98975" lon="4.774">
        <ele>202</ele>
        <time>2017-03-17T09:47:09Z</time>
      </trkpt>
      <trkpt lat="45.98979" lon="4.77397">
        <ele>202</ele>
        <time>2017-03-17T09:47:10Z</time>
      </trkpt>
      <trkpt lat="45.98984" lon="4.77396">
        <ele>202</ele>
        <time>2017-03-17T09:47:11Z</time>
      </trkpt>
      <trkpt lat="45.98989" lon="4.77394">
        <ele>202</ele>
        <time>2017-03-17T09:47:12Z</time>
      </trkpt>
      <trkpt lat="45.98994" lon="4.77393">
        <ele>202</ele>
        <time>2017-03-17T09:47:13Z</time>
      </trkpt>
      <trkpt lat="45.98998" lon="4.7739">
        <ele>202</ele>
        <time>2017-03-17T09:47:14Z</time>
      </trkpt>
      <trkpt lat="45.99003" lon="4.77387">
        <ele>201</ele>
        <time>2017-03-17T09:47:15Z</time>
      </trkpt>
      <trkpt lat="45.99007" lon="4.77384">
        <ele>201</ele>
        <time>2017-03-17T09:47:16Z</time>
      </trkpt>
      <trkpt lat="45.99012" lon="4.77381">
        <ele>201</ele>
        <time>2017-03-17T09:47:17Z</time>
      </trkpt>
      <trkpt lat="45.99017" lon="4.77378">
        <ele>201</ele>
        <time>2017-03-17T09:47:18Z</time>
      </trkpt>
      <trkpt lat="45.99022" lon="4.77376">
        <ele>201</ele>
        <time>2017-03-17T09:47:19Z</time>
      </trkpt>
      <trkpt lat="45.99028" lon="4.77374">
        <ele>200</ele>
        <time>2017-03-17T09:47:20Z</time>
      </trkpt>
      <trkpt lat="45.99033" lon="4.77371">
        <ele>200</ele>
        <time>2017-03-17T09:47:21Z</time>
      </trkpt>
      <trkpt lat="45.99038" lon="4.77368">
        <ele>200</ele>
        <time>2017-03-17T09:47:22Z</time>
      </trkpt>
      <trkpt lat="45.99043" lon="4.77367">
        <ele>200</ele>
        <time>2017-03-17T09:47:23Z</time>
      </trkpt>
      <trkpt lat="45.99048" lon="4.77366">
        <ele>200</ele>
        <time>2017-03-17T09:47:24Z</time>
      </trkpt>
      <trkpt lat="45.99053" lon="4.77365">
        <ele>200</ele>
        <time>2017-03-17T09:47:25Z</time>
      </trkpt>
      <trkpt lat="45.99058" lon="4.77364">
        <ele>200</ele>
        <time>2017-03-17T09:47:26Z</time>
      </trkpt>
      <trkpt lat="45.99063" lon="4.77364">
        <ele>200</ele>
        <time>2017-03-17T09:47:27Z</time>
      </trkpt>
      <trkpt lat="45.99068" lon="4.77364">
        <ele>200</ele>
        <time>2017-03-17T09:47:28Z</time>
      </trkpt>
      <trkpt lat="45.99073" lon="4.77364">
        <ele>200</ele>
        <time>2017-03-17T09:47:29Z</time>
      </trkpt>
      <trkpt lat="45.99078" lon="4.77363">
        <ele>200</ele>
        <time>2017-03-17T09:47:30Z</time>
      </trkpt>
      <trkpt lat="45.99082" lon="4.77363">
        <ele>200</ele>
        <time>2017-03-17T09:47:31Z</time>
      </trkpt>
      <trkpt lat="45.99086" lon="4.77362">
        <ele>201</ele>
        <time>2017-03-17T09:47:32Z</time>
      </trkpt>
      <trkpt lat="45.99091" lon="4.77362">
        <ele>201</ele>
        <time>2017-03-17T09:47:33Z</time>
      </trkpt>
      <trkpt lat="45.99097" lon="4.77361">
        <ele>201</ele>
        <time>2017-03-17T09:47:34Z</time>
      </trkpt>
      <trkpt lat="45.99102" lon="4.7736">
        <ele>201</ele>
        <time>2017-03-17T09:47:35Z</time>
      </trkpt>
      <trkpt lat="45.99107" lon="4.77359">
        <ele>201</ele>
        <time>2017-03-17T09:47:36Z</time>
      </trkpt>
      <trkpt lat="45.99113" lon="4.77358">
        <ele>201</ele>
        <time>2017-03-17T09:47:37Z</time>
      </trkpt>
      <trkpt lat="45.99118" lon="4.77357">
        <ele>201</ele>
        <time>2017-03-17T09:47:38Z</time>
      </trkpt>
      <trkpt lat="45.99123" lon="4.77356">
        <ele>201</ele>
        <time>2017-03-17T09:47:39Z</time>
      </trkpt>
      <trkpt lat="45.99128" lon="4.77355">
        <ele>201</ele>
        <time>2017-03-17T09:47:40Z</time>
      </trkpt>
      <trkpt lat="45.99133" lon="4.77354">
        <ele>201</ele>
        <time>2017-03-17T09:47:41Z</time>
      </trkpt>
      <trkpt lat="45.99141" lon="4.77351">
        <ele>201</ele>
        <time>2017-03-17T09:47:43Z</time>
      </trkpt>
      <trkpt lat="45.99144" lon="4.7735">
        <ele>201</ele>
        <time>2017-03-17T09:47:44Z</time>
      </trkpt>
      <trkpt lat="45.9915" lon="4.77346">
        <ele>201</ele>
        <time>2017-03-17T09:47:46Z</time>
      </trkpt>
      <trkpt lat="45.99152" lon="4.77342">
        <ele>201</ele>
        <time>2017-03-17T09:47:47Z</time>
      </trkpt>
      <trkpt lat="45.99154" lon="4.77331">
        <ele>201</ele>
        <time>2017-03-17T09:47:49Z</time>
      </trkpt>
      <trkpt lat="45.99154" lon="4.77324">
        <ele>201</ele>
        <time>2017-03-17T09:47:50Z</time>
      </trkpt>
      <trkpt lat="45.99155" lon="4.77316">
        <ele>200</ele>
        <time>2017-03-17T09:47:51Z</time>
      </trkpt>
      <trkpt lat="45.99155" lon="4.77308">
        <ele>200</ele>
        <time>2017-03-17T09:47:52Z</time>
      </trkpt>
      <trkpt lat="45.99156" lon="4.773">
        <ele>200</ele>
        <time>2017-03-17T09:47:53Z</time>
      </trkpt>
      <trkpt lat="45.99157" lon="4.77291">
        <ele>200</ele>
        <time>2017-03-17T09:47:54Z</time>
      </trkpt>
      <trkpt lat="45.99157" lon="4.77283">
        <ele>200</ele>
        <time>2017-03-17T09:47:55Z</time>
      </trkpt>
      <trkpt lat="45.99158" lon="4.77275">
        <ele>200</ele>
        <time>2017-03-17T09:47:56Z</time>
      </trkpt>
      <trkpt lat="45.99159" lon="4.77268">
        <ele>200</ele>
        <time>2017-03-17T09:47:57Z</time>
      </trkpt>
      <trkpt lat="45.9916" lon="4.77261">
        <ele>200</ele>
        <time>2017-03-17T09:47:58Z</time>
      </trkpt>
      <trkpt lat="45.99161" lon="4.77254">
        <ele>200</ele>
        <time>2017-03-17T09:47:59Z</time>
      </trkpt>
      <trkpt lat="45.99162" lon="4.77247">
        <ele>200</ele>
        <time>2017-03-17T09:48:00Z</time>
      </trkpt>
      <trkpt lat="45.99163" lon="4.7724">
        <ele>200</ele>
        <time>2017-03-17T09:48:01Z</time>
      </trkpt>
      <trkpt lat="45.99163" lon="4.77232">
        <ele>200</ele>
        <time>2017-03-17T09:48:02Z</time>
      </trkpt>
      <trkpt lat="45.99163" lon="4.77224">
        <ele>200</ele>
        <time>2017-03-17T09:48:03Z</time>
      </trkpt>
      <trkpt lat="45.99162" lon="4.77215">
        <ele>200</ele>
        <time>2017-03-17T09:48:04Z</time>
      </trkpt>
      <trkpt lat="45.99161" lon="4.77206">
        <ele>200</ele>
        <time>2017-03-17T09:48:05Z</time>
      </trkpt>
      <trkpt lat="45.99159" lon="4.77197">
        <ele>200</ele>
        <time>2017-03-17T09:48:06Z</time>
      </trkpt>
      <trkpt lat="45.99157" lon="4.77188">
        <ele>200</ele>
        <time>2017-03-17T09:48:07Z</time>
      </trkpt>
      <trkpt lat="45.99154" lon="4.7718">
        <ele>200</ele>
        <time>2017-03-17T09:48:08Z</time>
      </trkpt>
      <trkpt lat="45.99152" lon="4.77171">
        <ele>200</ele>
        <time>2017-03-17T09:48:09Z</time>
      </trkpt>
      <trkpt lat="45.99149" lon="4.77163">
        <ele>201</ele>
        <time>2017-03-17T09:48:10Z</time>
      </trkpt>
      <trkpt lat="45.99147" lon="4.77155">
        <ele>201</ele>
        <time>2017-03-17T09:48:11Z</time>
      </trkpt>
      <trkpt lat="45.99145" lon="4.77147">
        <ele>201</ele>
        <time>2017-03-17T09:48:12Z</time>
      </trkpt>
      <trkpt lat="45.99142" lon="4.77139">
        <ele>201</ele>
        <time>2017-03-17T09:48:13Z</time>
      </trkpt>
      <trkpt lat="45.9914" lon="4.77131">
        <ele>201</ele>
        <time>2017-03-17T09:48:14Z</time>
      </trkpt>
      <trkpt lat="45.99137" lon="4.77124">
        <ele>201</ele>
        <time>2017-03-17T09:48:15Z</time>
      </trkpt>
      <trkpt lat="45.99135" lon="4.77116">
        <ele>201</ele>
        <time>2017-03-17T09:48:16Z</time>
      </trkpt>
      <trkpt lat="45.99132" lon="4.77108">
        <ele>201</ele>
        <time>2017-03-17T09:48:17Z</time>
      </trkpt>
      <trkpt lat="45.9913" lon="4.771">
        <ele>201</ele>
        <time>2017-03-17T09:48:18Z</time>
      </trkpt>
      <trkpt lat="45.99127" lon="4.77091">
        <ele>201</ele>
        <time>2017-03-17T09:48:19Z</time>
      </trkpt>
      <trkpt lat="45.99125" lon="4.77083">
        <ele>202</ele>
        <time>2017-03-17T09:48:20Z</time>
      </trkpt>
      <trkpt lat="45.99122" lon="4.77075">
        <ele>202</ele>
        <time>2017-03-17T09:48:21Z</time>
      </trkpt>
      <trkpt lat="45.9912" lon="4.77067">
        <ele>202</ele>
        <time>2017-03-17T09:48:22Z</time>
      </trkpt>
      <trkpt lat="45.99118" lon="4.77059">
        <ele>202</ele>
        <time>2017-03-17T09:48:23Z</time>
      </trkpt>
      <trkpt lat="45.99115" lon="4.77051">
        <ele>202</ele>
        <time>2017-03-17T09:48:24Z</time>
      </trkpt>
      <trkpt lat="45.99113" lon="4.77044">
        <ele>202</ele>
        <time>2017-03-17T09:48:25Z</time>
      </trkpt>
      <trkpt lat="45.9911" lon="4.77037">
        <ele>202</ele>
        <time>2017-03-17T09:48:26Z</time>
      </trkpt>
      <trkpt lat="45.99107" lon="4.77029">
        <ele>202</ele>
        <time>2017-03-17T09:48:27Z</time>
      </trkpt>
      <trkpt lat="45.99104" lon="4.77022">
        <ele>202</ele>
        <time>2017-03-17T09:48:28Z</time>
      </trkpt>
      <trkpt lat="45.991" lon="4.77014">
        <ele>201</ele>
        <time>2017-03-17T09:48:29Z</time>
      </trkpt>
      <trkpt lat="45.99096" lon="4.77006">
        <ele>201</ele>
        <time>2017-03-17T09:48:30Z</time>
      </trkpt>
      <trkpt lat="45.99093" lon="4.76999">
        <ele>201</ele>
        <time>2017-03-17T09:48:31Z</time>
      </trkpt>
      <trkpt lat="45.99089" lon="4.76991">
        <ele>201</ele>
        <time>2017-03-17T09:48:32Z</time>
      </trkpt>
      <trkpt lat="45.99086" lon="4.76984">
        <ele>201</ele>
        <time>2017-03-17T09:48:33Z</time>
      </trkpt>
      <trkpt lat="45.99082" lon="4.76977">
        <ele>198</ele>
        <time>2017-03-17T09:48:34Z</time>
      </trkpt>
      <trkpt lat="45.99079" lon="4.7697">
        <ele>198</ele>
        <time>2017-03-17T09:48:35Z</time>
      </trkpt>
      <trkpt lat="45.99075" lon="4.76963">
        <ele>198</ele>
        <time>2017-03-17T09:48:36Z</time>
      </trkpt>
      <trkpt lat="45.99072" lon="4.76956">
        <ele>198</ele>
        <time>2017-03-17T09:48:37Z</time>
      </trkpt>
      <trkpt lat="45.99069" lon="4.76949">
        <ele>198</ele>
        <time>2017-03-17T09:48:38Z</time>
      </trkpt>
      <trkpt lat="45.99065" lon="4.76942">
        <ele>198</ele>
        <time>2017-03-17T09:48:39Z</time>
      </trkpt>
      <trkpt lat="45.99061" lon="4.76936">
        <ele>198</ele>
        <time>2017-03-17T09:48:40Z</time>
      </trkpt>
      <trkpt lat="45.99058" lon="4.76929">
        <ele>198</ele>
        <time>2017-03-17T09:48:41Z</time>
      </trkpt>
      <trkpt lat="45.99054" lon="4.76922">
        <ele>198</ele>
        <time>2017-03-17T09:48:42Z</time>
      </trkpt>
      <trkpt lat="45.99051" lon="4.76915">
        <ele>199</ele>
        <time>2017-03-17T09:48:43Z</time>
      </trkpt>
      <trkpt lat="45.99047" lon="4.76909">
        <ele>199</ele>
        <time>2017-03-17T09:48:44Z</time>
      </trkpt>
      <trkpt lat="45.99044" lon="4.76902">
        <ele>199</ele>
        <time>2017-03-17T09:48:45Z</time>
      </trkpt>
      <trkpt lat="45.9904" lon="4.76895">
        <ele>199</ele>
        <time>2017-03-17T09:48:46Z</time>
      </trkpt>
      <trkpt lat="45.99037" lon="4.76888">
        <ele>199</ele>
        <time>2017-03-17T09:48:47Z</time>
      </trkpt>
      <trkpt lat="45.99033" lon="4.7688">
        <ele>199</ele>
        <time>2017-03-17T09:48:48Z</time>
      </trkpt>
      <trkpt lat="45.99029" lon="4.76873">
        <ele>199</ele>
        <time>2017-03-17T09:48:49Z</time>
      </trkpt>
      <trkpt lat="45.99025" lon="4.76866">
        <ele>199</ele>
        <time>2017-03-17T09:48:50Z</time>
      </trkpt>
      <trkpt lat="45.99021" lon="4.76858">
        <ele>199</ele>
        <time>2017-03-17T09:48:51Z</time>
      </trkpt>
      <trkpt lat="45.99018" lon="4.7685">
        <ele>199</ele>
        <time>2017-03-17T09:48:52Z</time>
      </trkpt>
      <trkpt lat="45.99015" lon="4.76843">
        <ele>199</ele>
        <time>2017-03-17T09:48:53Z</time>
      </trkpt>
      <trkpt lat="45.99012" lon="4.76835">
        <ele>199</ele>
        <time>2017-03-17T09:48:54Z</time>
      </trkpt>
      <trkpt lat="45.99009" lon="4.76827">
        <ele>200</ele>
        <time>2017-03-17T09:48:55Z</time>
      </trkpt>
      <trkpt lat="45.99005" lon="4.7682">
        <ele>200</ele>
        <time>2017-03-17T09:48:56Z</time>
      </trkpt>
      <trkpt lat="45.99002" lon="4.76812">
        <ele>200</ele>
        <time>2017-03-17T09:48:57Z</time>
      </trkpt>
      <trkpt lat="45.98999" lon="4.76805">
        <ele>197</ele>
        <time>2017-03-17T09:48:58Z</time>
      </trkpt>
      <trkpt lat="45.98995" lon="4.76797">
        <ele>197</ele>
        <time>2017-03-17T09:48:59Z</time>
      </trkpt>
      <trkpt lat="45.98992" lon="4.76789">
        <ele>197</ele>
        <time>2017-03-17T09:49:00Z</time>
      </trkpt>
      <trkpt lat="45.9899" lon="4.76782">
        <ele>197</ele>
        <time>2017-03-17T09:49:01Z</time>
      </trkpt>
      <trkpt lat="45.98987" lon="4.76776">
        <ele>197</ele>
        <time>2017-03-17T09:49:02Z</time>
      </trkpt>
      <trkpt lat="45.98984" lon="4.76769">
        <ele>197</ele>
        <time>2017-03-17T09:49:03Z</time>
      </trkpt>
      <trkpt lat="45.9898" lon="4.76763">
        <ele>197</ele>
        <time>2017-03-17T09:49:04Z</time>
      </trkpt>
      <trkpt lat="45.98976" lon="4.76757">
        <ele>197</ele>
        <time>2017-03-17T09:49:05Z</time>
      </trkpt>
      <trkpt lat="45.98971" lon="4.76751">
        <ele>196</ele>
        <time>2017-03-17T09:49:06Z</time>
      </trkpt>
      <trkpt lat="45.98967" lon="4.76746">
        <ele>198</ele>
        <time>2017-03-17T09:49:07Z</time>
      </trkpt>
      <trkpt lat="45.98962" lon="4.7674">
        <ele>198</ele>
        <time>2017-03-17T09:49:08Z</time>
      </trkpt>
      <trkpt lat="45.98958" lon="4.76735">
        <ele>198</ele>
        <time>2017-03-17T09:49:09Z</time>
      </trkpt>
      <trkpt lat="45.98953" lon="4.7673">
        <ele>198</ele>
        <time>2017-03-17T09:49:10Z</time>
      </trkpt>
      <trkpt lat="45.98948" lon="4.76724">
        <ele>198</ele>
        <time>2017-03-17T09:49:11Z</time>
      </trkpt>
      <trkpt lat="45.98943" lon="4.76719">
        <ele>198</ele>
        <time>2017-03-17T09:49:12Z</time>
      </trkpt>
      <trkpt lat="45.98937" lon="4.76713">
        <ele>198</ele>
        <time>2017-03-17T09:49:13Z</time>
      </trkpt>
      <trkpt lat="45.98932" lon="4.76708">
        <ele>198</ele>
        <time>2017-03-17T09:49:14Z</time>
      </trkpt>
      <trkpt lat="45.98927" lon="4.76703">
        <ele>198</ele>
        <time>2017-03-17T09:49:15Z</time>
      </trkpt>
      <trkpt lat="45.98921" lon="4.76698">
        <ele>198</ele>
        <time>2017-03-17T09:49:16Z</time>
      </trkpt>
      <trkpt lat="45.98917" lon="4.76693">
        <ele>195</ele>
        <time>2017-03-17T09:49:17Z</time>
      </trkpt>
      <trkpt lat="45.98912" lon="4.76688">
        <ele>195</ele>
        <time>2017-03-17T09:49:18Z</time>
      </trkpt>
      <trkpt lat="45.98907" lon="4.76683">
        <ele>195</ele>
        <time>2017-03-17T09:49:19Z</time>
      </trkpt>
      <trkpt lat="45.98902" lon="4.76678">
        <ele>195</ele>
        <time>2017-03-17T09:49:20Z</time>
      </trkpt>
      <trkpt lat="45.98898" lon="4.76673">
        <ele>195</ele>
        <time>2017-03-17T09:49:21Z</time>
      </trkpt>
      <trkpt lat="45.98893" lon="4.76668">
        <ele>195</ele>
        <time>2017-03-17T09:49:22Z</time>
      </trkpt>
      <trkpt lat="45.98888" lon="4.76663">
        <ele>196</ele>
        <time>2017-03-17T09:49:23Z</time>
      </trkpt>
      <trkpt lat="45.98883" lon="4.76659">
        <ele>196</ele>
        <time>2017-03-17T09:49:24Z</time>
      </trkpt>
      <trkpt lat="45.98878" lon="4.76654">
        <ele>196</ele>
        <time>2017-03-17T09:49:25Z</time>
      </trkpt>
      <trkpt lat="45.98873" lon="4.76649">
        <ele>196</ele>
        <time>2017-03-17T09:49:26Z</time>
      </trkpt>
      <trkpt lat="45.98869" lon="4.76644">
        <ele>196</ele>
        <time>2017-03-17T09:49:27Z</time>
      </trkpt>
      <trkpt lat="45.98864" lon="4.76639">
        <ele>196</ele>
        <time>2017-03-17T09:49:28Z</time>
      </trkpt>
      <trkpt lat="45.9886" lon="4.76634">
        <ele>196</ele>
        <time>2017-03-17T09:49:29Z</time>
      </trkpt>
      <trkpt lat="45.98855" lon="4.76629">
        <ele>196</ele>
        <time>2017-03-17T09:49:30Z</time>
      </trkpt>
      <trkpt lat="45.9885" lon="4.76624">
        <ele>196</ele>
        <time>2017-03-17T09:49:31Z</time>
      </trkpt>
      <trkpt lat="45.98845" lon="4.76619">
        <ele>196</ele>
        <time>2017-03-17T09:49:32Z</time>
      </trkpt>
      <trkpt lat="45.98841" lon="4.76614">
        <ele>196</ele>
        <time>2017-03-17T09:49:33Z</time>
      </trkpt>
      <trkpt lat="45.98836" lon="4.76609">
        <ele>196</ele>
        <time>2017-03-17T09:49:34Z</time>
      </trkpt>
      <trkpt lat="45.98832" lon="4.76604">
        <ele>193</ele>
        <time>2017-03-17T09:49:35Z</time>
      </trkpt>
      <trkpt lat="45.98826" lon="4.76599">
        <ele>193</ele>
        <time>2017-03-17T09:49:36Z</time>
      </trkpt>
      <trkpt lat="45.98821" lon="4.76594">
        <ele>193</ele>
        <time>2017-03-17T09:49:37Z</time>
      </trkpt>
      <trkpt lat="45.98816" lon="4.76589">
        <ele>193</ele>
        <time>2017-03-17T09:49:38Z</time>
      </trkpt>
      <trkpt lat="45.98811" lon="4.76583">
        <ele>193</ele>
        <time>2017-03-17T09:49:39Z</time>
      </trkpt>
      <trkpt lat="45.98805" lon="4.76577">
        <ele>192</ele>
        <time>2017-03-17T09:49:40Z</time>
      </trkpt>
      <trkpt lat="45.98799" lon="4.76571">
        <ele>192</ele>
        <time>2017-03-17T09:49:41Z</time>
      </trkpt>
      <trkpt lat="45.98793" lon="4.76566">
        <ele>192</ele>
        <time>2017-03-17T09:49:42Z</time>
      </trkpt>
      <trkpt lat="45.98787" lon="4.7656">
        <ele>191</ele>
        <time>2017-03-17T09:49:43Z</time>
      </trkpt>
      <trkpt lat="45.98781" lon="4.76553">
        <ele>191</ele>
        <time>2017-03-17T09:49:44Z</time>
      </trkpt>
      <trkpt lat="45.98775" lon="4.76547">
        <ele>191</ele>
        <time>2017-03-17T09:49:45Z</time>
      </trkpt>
      <trkpt lat="45.98769" lon="4.7654">
        <ele>191</ele>
        <time>2017-03-17T09:49:46Z</time>
      </trkpt>
      <trkpt lat="45.98762" lon="4.76534">
        <ele>190</ele>
        <time>2017-03-17T09:49:47Z</time>
      </trkpt>
      <trkpt lat="45.98755" lon="4.76528">
        <ele>190</ele>
        <time>2017-03-17T09:49:48Z</time>
      </trkpt>
      <trkpt lat="45.98749" lon="4.76521">
        <ele>188</ele>
        <time>2017-03-17T09:49:49Z</time>
      </trkpt>
      <trkpt lat="45.98742" lon="4.76515">
        <ele>188</ele>
        <time>2017-03-17T09:49:50Z</time>
      </trkpt>
      <trkpt lat="45.98735" lon="4.76508">
        <ele>188</ele>
        <time>2017-03-17T09:49:51Z</time>
      </trkpt>
      <trkpt lat="45.98729" lon="4.76501">
        <ele>188</ele>
        <time>2017-03-17T09:49:52Z</time>
      </trkpt>
      <trkpt lat="45.98722" lon="4.76494">
        <ele>187</ele>
        <time>2017-03-17T09:49:53Z</time>
      </trkpt>
      <trkpt lat="45.98716" lon="4.76487">
        <ele>187</ele>
        <time>2017-03-17T09:49:54Z</time>
      </trkpt>
      <trkpt lat="45.98709" lon="4.76481">
        <ele>187</ele>
        <time>2017-03-17T09:49:55Z</time>
      </trkpt>
      <trkpt lat="45.98703" lon="4.76475">
        <ele>187</ele>
        <time>2017-03-17T09:49:56Z</time>
      </trkpt>
      <trkpt lat="45.98697" lon="4.76468">
        <ele>187</ele>
        <time>2017-03-17T09:49:57Z</time>
      </trkpt>
      <trkpt lat="45.9869" lon="4.76463">
        <ele>187</ele>
        <time>2017-03-17T09:49:58Z</time>
      </trkpt>
      <trkpt lat="45.98684" lon="4.76457">
        <ele>187</ele>
        <time>2017-03-17T09:49:59Z</time>
      </trkpt>
      <trkpt lat="45.98678" lon="4.76451">
        <ele>187</ele>
        <time>2017-03-17T09:50:00Z</time>
      </trkpt>
      <trkpt lat="45.98673" lon="4.76446">
        <ele>187</ele>
        <time>2017-03-17T09:50:01Z</time>
      </trkpt>
      <trkpt lat="45.98667" lon="4.76443">
        <ele>187</ele>
        <time>2017-03-17T09:50:02Z</time>
      </trkpt>
      <trkpt lat="45.98661" lon="4.76439">
        <ele>188</ele>
        <time>2017-03-17T09:50:03Z</time>
      </trkpt>
      <trkpt lat="45.98656" lon="4.76434">
        <ele>188</ele>
        <time>2017-03-17T09:50:04Z</time>
      </trkpt>
      <trkpt lat="45.98651" lon="4.76431">
        <ele>188</ele>
        <time>2017-03-17T09:50:05Z</time>
      </trkpt>
      <trkpt lat="45.98646" lon="4.76427">
        <ele>188</ele>
        <time>2017-03-17T09:50:06Z</time>
      </trkpt>
      <trkpt lat="45.98642" lon="4.76424">
        <ele>188</ele>
        <time>2017-03-17T09:50:07Z</time>
      </trkpt>
      <trkpt lat="45.98637" lon="4.76419">
        <ele>188</ele>
        <time>2017-03-17T09:50:08Z</time>
      </trkpt>
      <trkpt lat="45.98633" lon="4.76414">
        <ele>188</ele>
        <time>2017-03-17T09:50:09Z</time>
      </trkpt>
      <trkpt lat="45.98629" lon="4.76408">
        <ele>188</ele>
        <time>2017-03-17T09:50:10Z</time>
      </trkpt>
      <trkpt lat="45.98626" lon="4.76402">
        <ele>188</ele>
        <time>2017-03-17T09:50:11Z</time>
      </trkpt>
      <trkpt lat="45.98623" lon="4.76394">
        <ele>188</ele>
        <time>2017-03-17T09:50:12Z</time>
      </trkpt>
      <trkpt lat="45.98621" lon="4.76386">
        <ele>188</ele>
        <time>2017-03-17T09:50:13Z</time>
      </trkpt>
      <trkpt lat="45.98619" lon="4.76377">
        <ele>188</ele>
        <time>2017-03-17T09:50:14Z</time>
      </trkpt>
      <trkpt lat="45.98618" lon="4.76368">
        <ele>188</ele>
        <time>2017-03-17T09:50:15Z</time>
      </trkpt>
      <trkpt lat="45.98616" lon="4.76359">
        <ele>188</ele>
        <time>2017-03-17T09:50:16Z</time>
      </trkpt>
      <trkpt lat="45.98614" lon="4.76349">
        <ele>188</ele>
        <time>2017-03-17T09:50:17Z</time>
      </trkpt>
      <trkpt lat="45.98612" lon="4.7634">
        <ele>188</ele>
        <time>2017-03-17T09:50:18Z</time>
      </trkpt>
      <trkpt lat="45.98609" lon="4.7633">
        <ele>187</ele>
        <time>2017-03-17T09:50:19Z</time>
      </trkpt>
      <trkpt lat="45.98606" lon="4.7632">
        <ele>187</ele>
        <time>2017-03-17T09:50:20Z</time>
      </trkpt>
      <trkpt lat="45.98604" lon="4.7631">
        <ele>187</ele>
        <time>2017-03-17T09:50:21Z</time>
      </trkpt>
      <trkpt lat="45.98604" lon="4.763">
        <ele>187</ele>
        <time>2017-03-17T09:50:22Z</time>
      </trkpt>
      <trkpt lat="45.98604" lon="4.7629">
        <ele>187</ele>
        <time>2017-03-17T09:50:23Z</time>
      </trkpt>
      <trkpt lat="45.98605" lon="4.7628">
        <ele>187</ele>
        <time>2017-03-17T09:50:24Z</time>
      </trkpt>
      <trkpt lat="45.98605" lon="4.76269">
        <ele>187</ele>
        <time>2017-03-17T09:50:25Z</time>
      </trkpt>
      <trkpt lat="45.98606" lon="4.76259">
        <ele>187</ele>
        <time>2017-03-17T09:50:26Z</time>
      </trkpt>
      <trkpt lat="45.98606" lon="4.76249">
        <ele>187</ele>
        <time>2017-03-17T09:50:27Z</time>
      </trkpt>
      <trkpt lat="45.98607" lon="4.76239">
        <ele>187</ele>
        <time>2017-03-17T09:50:28Z</time>
      </trkpt>
      <trkpt lat="45.98607" lon="4.76231">
        <ele>187</ele>
        <time>2017-03-17T09:50:29Z</time>
      </trkpt>
      <trkpt lat="45.98608" lon="4.76224">
        <ele>187</ele>
        <time>2017-03-17T09:50:30Z</time>
      </trkpt>
      <trkpt lat="45.98612" lon="4.76219">
        <ele>186</ele>
        <time>2017-03-17T09:50:31Z</time>
      </trkpt>
      <trkpt lat="45.98617" lon="4.76218">
        <ele>186</ele>
        <time>2017-03-17T09:50:32Z</time>
      </trkpt>
      <trkpt lat="45.98622" lon="4.76221">
        <ele>186</ele>
        <time>2017-03-17T09:50:33Z</time>
      </trkpt>
      <trkpt lat="45.98627" lon="4.76225">
        <ele>186</ele>
        <time>2017-03-17T09:50:34Z</time>
      </trkpt>
      <trkpt lat="45.98632" lon="4.76228">
        <ele>186</ele>
        <time>2017-03-17T09:50:35Z</time>
      </trkpt>
      <trkpt lat="45.98638" lon="4.7623">
        <ele>185</ele>
        <time>2017-03-17T09:50:36Z</time>
      </trkpt>
      <trkpt lat="45.98644" lon="4.76232">
        <ele>185</ele>
        <time>2017-03-17T09:50:37Z</time>
      </trkpt>
      <trkpt lat="45.98649" lon="4.76232">
        <ele>185</ele>
        <time>2017-03-17T09:50:38Z</time>
      </trkpt>
      <trkpt lat="45.98655" lon="4.76233">
        <ele>185</ele>
        <time>2017-03-17T09:50:39Z</time>
      </trkpt>
      <trkpt lat="45.9866" lon="4.76233">
        <ele>185</ele>
        <time>2017-03-17T09:50:40Z</time>
      </trkpt>
      <trkpt lat="45.98667" lon="4.76234">
        <ele>184</ele>
        <time>2017-03-17T09:50:41Z</time>
      </trkpt>
      <trkpt lat="45.98673" lon="4.76234">
        <ele>184</ele>
        <time>2017-03-17T09:50:42Z</time>
      </trkpt>
      <trkpt lat="45.98678" lon="4.76234">
        <ele>184</ele>
        <time>2017-03-17T09:50:43Z</time>
      </trkpt>
      <trkpt lat="45.98684" lon="4.76234">
        <ele>184</ele>
        <time>2017-03-17T09:50:44Z</time>
      </trkpt>
      <trkpt lat="45.98691" lon="4.76233">
        <ele>184</ele>
        <time>2017-03-17T09:50:45Z</time>
      </trkpt>
      <trkpt lat="45.98697" lon="4.7623">
        <ele>184</ele>
        <time>2017-03-17T09:50:46Z</time>
      </trkpt>
      <trkpt lat="45.98701" lon="4.76225">
        <ele>184</ele>
        <time>2017-03-17T09:50:47Z</time>
      </trkpt>
      <trkpt lat="45.98704" lon="4.76218">
        <ele>184</ele>
        <time>2017-03-17T09:50:48Z</time>
      </trkpt>
      <trkpt lat="45.98707" lon="4.76211">
        <ele>184</ele>
        <time>2017-03-17T09:50:49Z</time>
      </trkpt>
      <trkpt lat="45.98709" lon="4.76204">
        <ele>184</ele>
        <time>2017-03-17T09:50:50Z</time>
      </trkpt>
      <trkpt lat="45.9871" lon="4.76196">
        <ele>184</ele>
        <time>2017-03-17T09:50:51Z</time>
      </trkpt>
      <trkpt lat="45.9871" lon="4.76187">
        <ele>184</ele>
        <time>2017-03-17T09:50:52Z</time>
      </trkpt>
      <trkpt lat="45.98711" lon="4.76177">
        <ele>184</ele>
        <time>2017-03-17T09:50:53Z</time>
      </trkpt>
      <trkpt lat="45.98712" lon="4.76168">
        <ele>184</ele>
        <time>2017-03-17T09:50:54Z</time>
      </trkpt>
      <trkpt lat="45.98712" lon="4.76159">
        <ele>184</ele>
        <time>2017-03-17T09:50:55Z</time>
      </trkpt>
      <trkpt lat="45.98713" lon="4.7615">
        <ele>183</ele>
        <time>2017-03-17T09:50:56Z</time>
      </trkpt>
      <trkpt lat="45.98714" lon="4.76141">
        <ele>183</ele>
        <time>2017-03-17T09:50:57Z</time>
      </trkpt>
      <trkpt lat="45.98715" lon="4.76132">
        <ele>183</ele>
        <time>2017-03-17T09:50:58Z</time>
      </trkpt>
      <trkpt lat="45.98715" lon="4.76124">
        <ele>183</ele>
        <time>2017-03-17T09:50:59Z</time>
      </trkpt>
      <trkpt lat="45.98716" lon="4.76115">
        <ele>183</ele>
        <time>2017-03-17T09:51:00Z</time>
      </trkpt>
      <trkpt lat="45.98717" lon="4.76106">
        <ele>183</ele>
        <time>2017-03-17T09:51:01Z</time>
      </trkpt>
      <trkpt lat="45.98717" lon="4.76097">
        <ele>183</ele>
        <time>2017-03-17T09:51:02Z</time>
      </trkpt>
      <trkpt lat="45.98718" lon="4.76088">
        <ele>183</ele>
        <time>2017-03-17T09:51:03Z</time>
      </trkpt>
      <trkpt lat="45.98719" lon="4.76079">
        <ele>182</ele>
        <time>2017-03-17T09:51:04Z</time>
      </trkpt>
      <trkpt lat="45.9872" lon="4.7607">
        <ele>182</ele>
        <time>2017-03-17T09:51:05Z</time>
      </trkpt>
      <trkpt lat="45.98721" lon="4.76061">
        <ele>182</ele>
        <time>2017-03-17T09:51:06Z</time>
      </trkpt>
      <trkpt lat="45.98722" lon="4.76052">
        <ele>182</ele>
        <time>2017-03-17T09:51:07Z</time>
      </trkpt>
      <trkpt lat="45.98723" lon="4.76044">
        <ele>182</ele>
        <time>2017-03-17T09:51:08Z</time>
      </trkpt>
      <trkpt lat="45.98724" lon="4.76035">
        <ele>182</ele>
        <time>2017-03-17T09:51:09Z</time>
      </trkpt>
      <trkpt lat="45.98725" lon="4.76026">
        <ele>182</ele>
        <time>2017-03-17T09:51:10Z</time>
      </trkpt>
      <trkpt lat="45.98726" lon="4.76017">
        <ele>181</ele>
        <time>2017-03-17T09:51:11Z</time>
      </trkpt>
      <trkpt lat="45.98727" lon="4.76007">
        <ele>181</ele>
        <time>2017-03-17T09:51:12Z</time>
      </trkpt>
      <trkpt lat="45.98728" lon="4.75997">
        <ele>181</ele>
        <time>2017-03-17T09:51:13Z</time>
      </trkpt>
      <trkpt lat="45.98729" lon="4.75987">
        <ele>181</ele>
        <time>2017-03-17T09:51:14Z</time>
      </trkpt>
      <trkpt lat="45.98729" lon="4.75978">
        <ele>181</ele>
        <time>2017-03-17T09:51:15Z</time>
      </trkpt>
      <trkpt lat="45.9873" lon="4.75969">
        <ele>181</ele>
        <time>2017-03-17T09:51:16Z</time>
      </trkpt>
      <trkpt lat="45.98731" lon="4.7596">
        <ele>181</ele>
        <time>2017-03-17T09:51:17Z</time>
      </trkpt>
      <trkpt lat="45.98732" lon="4.75951">
        <ele>180</ele>
        <time>2017-03-17T09:51:18Z</time>
      </trkpt>
      <trkpt lat="45.98733" lon="4.75942">
        <ele>180</ele>
        <time>2017-03-17T09:51:19Z</time>
      </trkpt>
      <trkpt lat="45.98735" lon="4.75934">
        <ele>180</ele>
        <time>2017-03-17T09:51:20Z</time>
      </trkpt>
      <trkpt lat="45.98736" lon="4.75925">
        <ele>180</ele>
        <time>2017-03-17T09:51:21Z</time>
      </trkpt>
      <trkpt lat="45.98738" lon="4.75916">
        <ele>180</ele>
        <time>2017-03-17T09:51:22Z</time>
      </trkpt>
      <trkpt lat="45.98739" lon="4.75908">
        <ele>180</ele>
        <time>2017-03-17T09:51:23Z</time>
      </trkpt>
      <trkpt lat="45.98741" lon="4.759">
        <ele>179</ele>
        <time>2017-03-17T09:51:24Z</time>
      </trkpt>
      <trkpt lat="45.98743" lon="4.75892">
        <ele>179</ele>
        <time>2017-03-17T09:51:25Z</time>
      </trkpt>
      <trkpt lat="45.98745" lon="4.75883">
        <ele>179</ele>
        <time>2017-03-17T09:51:26Z</time>
      </trkpt>
      <trkpt lat="45.98747" lon="4.75874">
        <ele>179</ele>
        <time>2017-03-17T09:51:27Z</time>
      </trkpt>
      <trkpt lat="45.98748" lon="4.75864">
        <ele>179</ele>
        <time>2017-03-17T09:51:28Z</time>
      </trkpt>
      <trkpt lat="45.9875" lon="4.75855">
        <ele>179</ele>
        <time>2017-03-17T09:51:29Z</time>
      </trkpt>
      <trkpt lat="45.98751" lon="4.75846">
        <ele>179</ele>
        <time>2017-03-17T09:51:30Z</time>
      </trkpt>
      <trkpt lat="45.98753" lon="4.75837">
        <ele>178</ele>
        <time>2017-03-17T09:51:31Z</time>
      </trkpt>
      <trkpt lat="45.98754" lon="4.75827">
        <ele>178</ele>
        <time>2017-03-17T09:51:32Z</time>
      </trkpt>
      <trkpt lat="45.98755" lon="4.75818">
        <ele>179</ele>
        <time>2017-03-17T09:51:33Z</time>
      </trkpt>
      <trkpt lat="45.98756" lon="4.75809">
        <ele>179</ele>
        <time>2017-03-17T09:51:34Z</time>
      </trkpt>
      <trkpt lat="45.98758" lon="4.75801">
        <ele>179</ele>
        <time>2017-03-17T09:51:35Z</time>
      </trkpt>
      <trkpt lat="45.9876" lon="4.75792">
        <ele>179</ele>
        <time>2017-03-17T09:51:36Z</time>
      </trkpt>
      <trkpt lat="45.98762" lon="4.75783">
        <ele>179</ele>
        <time>2017-03-17T09:51:37Z</time>
      </trkpt>
      <trkpt lat="45.98763" lon="4.75774">
        <ele>179</ele>
        <time>2017-03-17T09:51:38Z</time>
      </trkpt>
      <trkpt lat="45.98765" lon="4.75766">
        <ele>179</ele>
        <time>2017-03-17T09:51:39Z</time>
      </trkpt>
      <trkpt lat="45.98766" lon="4.75757">
        <ele>179</ele>
        <time>2017-03-17T09:51:40Z</time>
      </trkpt>
      <trkpt lat="45.98768" lon="4.75749">
        <ele>178</ele>
        <time>2017-03-17T09:51:41Z</time>
      </trkpt>
      <trkpt lat="45.9877" lon="4.75741">
        <ele>178</ele>
        <time>2017-03-17T09:51:42Z</time>
      </trkpt>
      <trkpt lat="45.98774" lon="4.75735">
        <ele>178</ele>
        <time>2017-03-17T09:51:43Z</time>
      </trkpt>
      <trkpt lat="45.98779" lon="4.7573">
        <ele>178</ele>
        <time>2017-03-17T09:51:44Z</time>
      </trkpt>
      <trkpt lat="45.98784" lon="4.75726">
        <ele>178</ele>
        <time>2017-03-17T09:51:45Z</time>
      </trkpt>
      <trkpt lat="45.9879" lon="4.75726">
        <ele>178</ele>
        <time>2017-03-17T09:51:46Z</time>
      </trkpt>
      <trkpt lat="45.98796" lon="4.75726">
        <ele>179</ele>
        <time>2017-03-17T09:51:47Z</time>
      </trkpt>
      <trkpt lat="45.98802" lon="4.75726">
        <ele>179</ele>
        <time>2017-03-17T09:51:48Z</time>
      </trkpt>
      <trkpt lat="45.98808" lon="4.75725">
        <ele>179</ele>
        <time>2017-03-17T09:51:49Z</time>
      </trkpt>
      <trkpt lat="45.98815" lon="4.75725">
        <ele>179</ele>
        <time>2017-03-17T09:51:50Z</time>
      </trkpt>
      <trkpt lat="45.98822" lon="4.75723">
        <ele>179</ele>
        <time>2017-03-17T09:51:51Z</time>
      </trkpt>
      <trkpt lat="45.98828" lon="4.75722">
        <ele>179</ele>
        <time>2017-03-17T09:51:52Z</time>
      </trkpt>
      <trkpt lat="45.98835" lon="4.75721">
        <ele>180</ele>
        <time>2017-03-17T09:51:53Z</time>
      </trkpt>
      <trkpt lat="45.98841" lon="4.7572">
        <ele>180</ele>
        <time>2017-03-17T09:51:54Z</time>
      </trkpt>
      <trkpt lat="45.98848" lon="4.75719">
        <ele>180</ele>
        <time>2017-03-17T09:51:55Z</time>
      </trkpt>
      <trkpt lat="45.98854" lon="4.75718">
        <ele>180</ele>
        <time>2017-03-17T09:51:56Z</time>
      </trkpt>
      <trkpt lat="45.98861" lon="4.75716">
        <ele>180</ele>
        <time>2017-03-17T09:51:57Z</time>
      </trkpt>
      <trkpt lat="45.98866" lon="4.75715">
        <ele>180</ele>
        <time>2017-03-17T09:51:58Z</time>
      </trkpt>
      <trkpt lat="45.98873" lon="4.75713">
        <ele>180</ele>
        <time>2017-03-17T09:51:59Z</time>
      </trkpt>
      <trkpt lat="45.98878" lon="4.75711">
        <ele>180</ele>
        <time>2017-03-17T09:52:00Z</time>
      </trkpt>
      <trkpt lat="45.98885" lon="4.75708">
        <ele>180</ele>
        <time>2017-03-17T09:52:01Z</time>
      </trkpt>
      <trkpt lat="45.98891" lon="4.75704">
        <ele>180</ele>
        <time>2017-03-17T09:52:02Z</time>
      </trkpt>
      <trkpt lat="45.98897" lon="4.75701">
        <ele>180</ele>
        <time>2017-03-17T09:52:03Z</time>
      </trkpt>
      <trkpt lat="45.98903" lon="4.75698">
        <ele>180</ele>
        <time>2017-03-17T09:52:04Z</time>
      </trkpt>
      <trkpt lat="45.9891" lon="4.75694">
        <ele>179</ele>
        <time>2017-03-17T09:52:05Z</time>
      </trkpt>
      <trkpt lat="45.98916" lon="4.75691">
        <ele>179</ele>
        <time>2017-03-17T09:52:06Z</time>
      </trkpt>
      <trkpt lat="45.98922" lon="4.75688">
        <ele>180</ele>
        <time>2017-03-17T09:52:07Z</time>
      </trkpt>
      <trkpt lat="45.98928" lon="4.75684">
        <ele>180</ele>
        <time>2017-03-17T09:52:08Z</time>
      </trkpt>
      <trkpt lat="45.98934" lon="4.75682">
        <ele>180</ele>
        <time>2017-03-17T09:52:09Z</time>
      </trkpt>
      <trkpt lat="45.9894" lon="4.75679">
        <ele>180</ele>
        <time>2017-03-17T09:52:10Z</time>
      </trkpt>
      <trkpt lat="45.98946" lon="4.75676">
        <ele>181</ele>
        <time>2017-03-17T09:52:11Z</time>
      </trkpt>
      <trkpt lat="45.98952" lon="4.75673">
        <ele>181</ele>
        <time>2017-03-17T09:52:12Z</time>
      </trkpt>
      <trkpt lat="45.98958" lon="4.7567">
        <ele>181</ele>
        <time>2017-03-17T09:52:13Z</time>
      </trkpt>
      <trkpt lat="45.98964" lon="4.75668">
        <ele>181</ele>
        <time>2017-03-17T09:52:14Z</time>
      </trkpt>
      <trkpt lat="45.98969" lon="4.75667">
        <ele>177</ele>
        <time>2017-03-17T09:52:15Z</time>
      </trkpt>
      <trkpt lat="45.98975" lon="4.75665">
        <ele>177</ele>
        <time>2017-03-17T09:52:16Z</time>
      </trkpt>
      <trkpt lat="45.9898" lon="4.75663">
        <ele>178</ele>
        <time>2017-03-17T09:52:17Z</time>
      </trkpt>
      <trkpt lat="45.98986" lon="4.75662">
        <ele>178</ele>
        <time>2017-03-17T09:52:18Z</time>
      </trkpt>
      <trkpt lat="45.98992" lon="4.75662">
        <ele>179</ele>
        <time>2017-03-17T09:52:19Z</time>
      </trkpt>
      <trkpt lat="45.98998" lon="4.75661">
        <ele>179</ele>
        <time>2017-03-17T09:52:20Z</time>
      </trkpt>
      <trkpt lat="45.99004" lon="4.75661">
        <ele>179</ele>
        <time>2017-03-17T09:52:21Z</time>
      </trkpt>
      <trkpt lat="45.99009" lon="4.75661">
        <ele>179</ele>
        <time>2017-03-17T09:52:22Z</time>
      </trkpt>
      <trkpt lat="45.99015" lon="4.75661">
        <ele>178</ele>
        <time>2017-03-17T09:52:23Z</time>
      </trkpt>
      <trkpt lat="45.99021" lon="4.75661">
        <ele>178</ele>
        <time>2017-03-17T09:52:24Z</time>
      </trkpt>
      <trkpt lat="45.99028" lon="4.75661">
        <ele>178</ele>
        <time>2017-03-17T09:52:25Z</time>
      </trkpt>
      <trkpt lat="45.99034" lon="4.75662">
        <ele>178</ele>
        <time>2017-03-17T09:52:26Z</time>
      </trkpt>
      <trkpt lat="45.99041" lon="4.75662">
        <ele>178</ele>
        <time>2017-03-17T09:52:27Z</time>
      </trkpt>
      <trkpt lat="45.99047" lon="4.75662">
        <ele>178</ele>
        <time>2017-03-17T09:52:28Z</time>
      </trkpt>
      <trkpt lat="45.99054" lon="4.75662">
        <ele>178</ele>
        <time>2017-03-17T09:52:29Z</time>
      </trkpt>
      <trkpt lat="45.9906" lon="4.75662">
        <ele>178</ele>
        <time>2017-03-17T09:52:30Z</time>
      </trkpt>
      <trkpt lat="45.99066" lon="4.75662">
        <ele>178</ele>
        <time>2017-03-17T09:52:31Z</time>
      </trkpt>
      <trkpt lat="45.99072" lon="4.75661">
        <ele>179</ele>
        <time>2017-03-17T09:52:32Z</time>
      </trkpt>
      <trkpt lat="45.99077" lon="4.75662">
        <ele>179</ele>
        <time>2017-03-17T09:52:33Z</time>
      </trkpt>
      <trkpt lat="45.99084" lon="4.75661">
        <ele>179</ele>
        <time>2017-03-17T09:52:34Z</time>
      </trkpt>
      <trkpt lat="45.99091" lon="4.75658">
        <ele>179</ele>
        <time>2017-03-17T09:52:35Z</time>
      </trkpt>
      <trkpt lat="45.99098" lon="4.75656">
        <ele>178</ele>
        <time>2017-03-17T09:52:36Z</time>
      </trkpt>
      <trkpt lat="45.99104" lon="4.75652">
        <ele>178</ele>
        <time>2017-03-17T09:52:37Z</time>
      </trkpt>
      <trkpt lat="45.99111" lon="4.75648">
        <ele>178</ele>
        <time>2017-03-17T09:52:38Z</time>
      </trkpt>
      <trkpt lat="45.99117" lon="4.75644">
        <ele>178</ele>
        <time>2017-03-17T09:52:39Z</time>
      </trkpt>
      <trkpt lat="45.99124" lon="4.75641">
        <ele>178</ele>
        <time>2017-03-17T09:52:40Z</time>
      </trkpt>
      <trkpt lat="45.9913" lon="4.75638">
        <ele>177</ele>
        <time>2017-03-17T09:52:41Z</time>
      </trkpt>
      <trkpt lat="45.99137" lon="4.75634">
        <ele>177</ele>
        <time>2017-03-17T09:52:42Z</time>
      </trkpt>
      <trkpt lat="45.99143" lon="4.75629">
        <ele>177</ele>
        <time>2017-03-17T09:52:43Z</time>
      </trkpt>
      <trkpt lat="45.99149" lon="4.75624">
        <ele>177</ele>
        <time>2017-03-17T09:52:44Z</time>
      </trkpt>
      <trkpt lat="45.99154" lon="4.75619">
        <ele>177</ele>
        <time>2017-03-17T09:52:45Z</time>
      </trkpt>
      <trkpt lat="45.99161" lon="4.75615">
        <ele>177</ele>
        <time>2017-03-17T09:52:46Z</time>
      </trkpt>
      <trkpt lat="45.99167" lon="4.75611">
        <ele>178</ele>
        <time>2017-03-17T09:52:47Z</time>
      </trkpt>
      <trkpt lat="45.99174" lon="4.75606">
        <ele>178</ele>
        <time>2017-03-17T09:52:48Z</time>
      </trkpt>
      <trkpt lat="45.9918" lon="4.75601">
        <ele>177</ele>
        <time>2017-03-17T09:52:49Z</time>
      </trkpt>
      <trkpt lat="45.99187" lon="4.75596">
        <ele>178</ele>
        <time>2017-03-17T09:52:50Z</time>
      </trkpt>
      <trkpt lat="45.99194" lon="4.75592">
        <ele>178</ele>
        <time>2017-03-17T09:52:51Z</time>
      </trkpt>
      <trkpt lat="45.992" lon="4.75588">
        <ele>178</ele>
        <time>2017-03-17T09:52:52Z</time>
      </trkpt>
      <trkpt lat="45.99207" lon="4.75584">
        <ele>178</ele>
        <time>2017-03-17T09:52:53Z</time>
      </trkpt>
      <trkpt lat="45.99213" lon="4.75579">
        <ele>175</ele>
        <time>2017-03-17T09:52:54Z</time>
      </trkpt>
      <trkpt lat="45.99219" lon="4.75575">
        <ele>175</ele>
        <time>2017-03-17T09:52:55Z</time>
      </trkpt>
      <trkpt lat="45.99226" lon="4.75571">
        <ele>175</ele>
        <time>2017-03-17T09:52:56Z</time>
      </trkpt>
      <trkpt lat="45.99232" lon="4.75567">
        <ele>175</ele>
        <time>2017-03-17T09:52:57Z</time>
      </trkpt>
      <trkpt lat="45.99238" lon="4.75563">
        <ele>175</ele>
        <time>2017-03-17T09:52:58Z</time>
      </trkpt>
      <trkpt lat="45.99245" lon="4.75559">
        <ele>175</ele>
        <time>2017-03-17T09:52:59Z</time>
      </trkpt>
      <trkpt lat="45.99251" lon="4.75554">
        <ele>177</ele>
        <time>2017-03-17T09:53:00Z</time>
      </trkpt>
      <trkpt lat="45.99257" lon="4.7555">
        <ele>177</ele>
        <time>2017-03-17T09:53:01Z</time>
      </trkpt>
      <trkpt lat="45.99263" lon="4.75546">
        <ele>177</ele>
        <time>2017-03-17T09:53:02Z</time>
      </trkpt>
      <trkpt lat="45.99269" lon="4.75542">
        <ele>176</ele>
        <time>2017-03-17T09:53:03Z</time>
      </trkpt>
      <trkpt lat="45.99276" lon="4.75537">
        <ele>176</ele>
        <time>2017-03-17T09:53:04Z</time>
      </trkpt>
      <trkpt lat="45.99282" lon="4.75533">
        <ele>177</ele>
        <time>2017-03-17T09:53:05Z</time>
      </trkpt>
      <trkpt lat="45.99288" lon="4.75528">
        <ele>177</ele>
        <time>2017-03-17T09:53:06Z</time>
      </trkpt>
      <trkpt lat="45.99293" lon="4.75522">
        <ele>177</ele>
        <time>2017-03-17T09:53:07Z</time>
      </trkpt>
      <trkpt lat="45.99298" lon="4.75515">
        <ele>177</ele>
        <time>2017-03-17T09:53:08Z</time>
      </trkpt>
      <trkpt lat="45.99303" lon="4.75509">
        <ele>177</ele>
        <time>2017-03-17T09:53:09Z</time>
      </trkpt>
      <trkpt lat="45.99308" lon="4.75503">
        <ele>177</ele>
        <time>2017-03-17T09:53:10Z</time>
      </trkpt>
      <trkpt lat="45.99313" lon="4.75496">
        <ele>175</ele>
        <time>2017-03-17T09:53:11Z</time>
      </trkpt>
      <trkpt lat="45.99318" lon="4.7549">
        <ele>175</ele>
        <time>2017-03-17T09:53:12Z</time>
      </trkpt>
      <trkpt lat="45.99323" lon="4.75483">
        <ele>175</ele>
        <time>2017-03-17T09:53:13Z</time>
      </trkpt>
      <trkpt lat="45.99327" lon="4.75475">
        <ele>174</ele>
        <time>2017-03-17T09:53:14Z</time>
      </trkpt>
      <trkpt lat="45.99331" lon="4.75468">
        <ele>174</ele>
        <time>2017-03-17T09:53:15Z</time>
      </trkpt>
      <trkpt lat="45.99334" lon="4.7546">
        <ele>177</ele>
        <time>2017-03-17T09:53:16Z</time>
      </trkpt>
      <trkpt lat="45.99338" lon="4.75453">
        <ele>177</ele>
        <time>2017-03-17T09:53:17Z</time>
      </trkpt>
      <trkpt lat="45.99342" lon="4.75446">
        <ele>176</ele>
        <time>2017-03-17T09:53:18Z</time>
      </trkpt>
      <trkpt lat="45.99346" lon="4.75441">
        <ele>176</ele>
        <time>2017-03-17T09:53:19Z</time>
      </trkpt>
      <trkpt lat="45.99351" lon="4.75436">
        <ele>176</ele>
        <time>2017-03-17T09:53:20Z</time>
      </trkpt>
      <trkpt lat="45.99356" lon="4.7543">
        <ele>176</ele>
        <time>2017-03-17T09:53:21Z</time>
      </trkpt>
      <trkpt lat="45.9936" lon="4.75423">
        <ele>176</ele>
        <time>2017-03-17T09:53:22Z</time>
      </trkpt>
      <trkpt lat="45.99362" lon="4.75414">
        <ele>173</ele>
        <time>2017-03-17T09:53:23Z</time>
      </trkpt>
      <trkpt lat="45.99362" lon="4.75404">
        <ele>173</ele>
        <time>2017-03-17T09:53:24Z</time>
      </trkpt>
      <trkpt lat="45.99362" lon="4.75394">
        <ele>173</ele>
        <time>2017-03-17T09:53:25Z</time>
      </trkpt>
      <trkpt lat="45.99363" lon="4.75384">
        <ele>172</ele>
        <time>2017-03-17T09:53:26Z</time>
      </trkpt>
      <trkpt lat="45.99365" lon="4.75375">
        <ele>172</ele>
        <time>2017-03-17T09:53:27Z</time>
      </trkpt>
      <trkpt lat="45.99369" lon="4.75366">
        <ele>172</ele>
        <time>2017-03-17T09:53:28Z</time>
      </trkpt>
      <trkpt lat="45.99374" lon="4.75358">
        <ele>172</ele>
        <time>2017-03-17T09:53:29Z</time>
      </trkpt>
      <trkpt lat="45.99379" lon="4.7535">
        <ele>172</ele>
        <time>2017-03-17T09:53:30Z</time>
      </trkpt>
      <trkpt lat="45.99384" lon="4.75343">
        <ele>171</ele>
        <time>2017-03-17T09:53:31Z</time>
      </trkpt>
      <trkpt lat="45.9939" lon="4.75338">
        <ele>171</ele>
        <time>2017-03-17T09:53:32Z</time>
      </trkpt>
      <trkpt lat="45.99395" lon="4.75333">
        <ele>170</ele>
        <time>2017-03-17T09:53:33Z</time>
      </trkpt>
      <trkpt lat="45.99401" lon="4.75329">
        <ele>170</ele>
        <time>2017-03-17T09:53:34Z</time>
      </trkpt>
      <trkpt lat="45.99406" lon="4.75326">
        <ele>170</ele>
        <time>2017-03-17T09:53:35Z</time>
      </trkpt>
      <trkpt lat="45.99411" lon="4.75323">
        <ele>170</ele>
        <time>2017-03-17T09:53:36Z</time>
      </trkpt>
      <trkpt lat="45.99417" lon="4.75321">
        <ele>170</ele>
        <time>2017-03-17T09:53:37Z</time>
      </trkpt>
      <trkpt lat="45.99423" lon="4.7532">
        <ele>170</ele>
        <time>2017-03-17T09:53:38Z</time>
      </trkpt>
      <trkpt lat="45.99429" lon="4.75318">
        <ele>171</ele>
        <time>2017-03-17T09:53:39Z</time>
      </trkpt>
      <trkpt lat="45.99435" lon="4.75318">
        <ele>171</ele>
        <time>2017-03-17T09:53:40Z</time>
      </trkpt>
      <trkpt lat="45.99441" lon="4.75317">
        <ele>171</ele>
        <time>2017-03-17T09:53:41Z</time>
      </trkpt>
      <trkpt lat="45.99448" lon="4.75316">
        <ele>171</ele>
        <time>2017-03-17T09:53:42Z</time>
      </trkpt>
      <trkpt lat="45.99454" lon="4.75315">
        <ele>171</ele>
        <time>2017-03-17T09:53:43Z</time>
      </trkpt>
      <trkpt lat="45.9946" lon="4.75314">
        <ele>171</ele>
        <time>2017-03-17T09:53:44Z</time>
      </trkpt>
      <trkpt lat="45.99466" lon="4.75313">
        <ele>171</ele>
        <time>2017-03-17T09:53:45Z</time>
      </trkpt>
      <trkpt lat="45.99471" lon="4.75313">
        <ele>171</ele>
        <time>2017-03-17T09:53:46Z</time>
      </trkpt>
      <trkpt lat="45.99477" lon="4.75312">
        <ele>171</ele>
        <time>2017-03-17T09:53:47Z</time>
      </trkpt>
      <trkpt lat="45.99483" lon="4.75311">
        <ele>171</ele>
        <time>2017-03-17T09:53:48Z</time>
      </trkpt>
      <trkpt lat="45.99489" lon="4.75311">
        <ele>171</ele>
        <time>2017-03-17T09:53:49Z</time>
      </trkpt>
      <trkpt lat="45.99494" lon="4.7531">
        <ele>171</ele>
        <time>2017-03-17T09:53:50Z</time>
      </trkpt>
      <trkpt lat="45.99499" lon="4.75309">
        <ele>171</ele>
        <time>2017-03-17T09:53:51Z</time>
      </trkpt>
      <trkpt lat="45.99504" lon="4.75309">
        <ele>172</ele>
        <time>2017-03-17T09:53:52Z</time>
      </trkpt>
      <trkpt lat="45.99509" lon="4.75308">
        <ele>172</ele>
        <time>2017-03-17T09:53:53Z</time>
      </trkpt>
      <trkpt lat="45.99514" lon="4.75308">
        <ele>172</ele>
        <time>2017-03-17T09:53:54Z</time>
      </trkpt>
      <trkpt lat="45.99519" lon="4.75308">
        <ele>172</ele>
        <time>2017-03-17T09:53:55Z</time>
      </trkpt>
      <trkpt lat="45.99524" lon="4.75308">
        <ele>172</ele>
        <time>2017-03-17T09:53:56Z</time>
      </trkpt>
      <trkpt lat="45.9953" lon="4.75307">
        <ele>172</ele>
        <time>2017-03-17T09:53:57Z</time>
      </trkpt>
      <trkpt lat="45.99535" lon="4.75308">
        <ele>172</ele>
        <time>2017-03-17T09:53:58Z</time>
      </trkpt>
      <trkpt lat="45.99541" lon="4.75308">
        <ele>172</ele>
        <time>2017-03-17T09:53:59Z</time>
      </trkpt>
      <trkpt lat="45.99546" lon="4.7531">
        <ele>172</ele>
        <time>2017-03-17T09:54:00Z</time>
      </trkpt>
      <trkpt lat="45.99551" lon="4.75313">
        <ele>172</ele>
        <time>2017-03-17T09:54:01Z</time>
      </trkpt>
      <trkpt lat="45.99556" lon="4.75317">
        <ele>172</ele>
        <time>2017-03-17T09:54:02Z</time>
      </trkpt>
      <trkpt lat="45.99561" lon="4.75321">
        <ele>172</ele>
        <time>2017-03-17T09:54:03Z</time>
      </trkpt>
      <trkpt lat="45.99566" lon="4.75324">
        <ele>172</ele>
        <time>2017-03-17T09:54:04Z</time>
      </trkpt>
      <trkpt lat="45.99572" lon="4.75325">
        <ele>173</ele>
        <time>2017-03-17T09:54:05Z</time>
      </trkpt>
      <trkpt lat="45.99577" lon="4.75324">
        <ele>173</ele>
        <time>2017-03-17T09:54:06Z</time>
      </trkpt>
      <trkpt lat="45.99582" lon="4.75321">
        <ele>173</ele>
        <time>2017-03-17T09:54:07Z</time>
      </trkpt>
      <trkpt lat="45.99586" lon="4.75318">
        <ele>173</ele>
        <time>2017-03-17T09:54:08Z</time>
      </trkpt>
      <trkpt lat="45.9959" lon="4.75313">
        <ele>174</ele>
        <time>2017-03-17T09:54:09Z</time>
      </trkpt>
      <trkpt lat="45.99594" lon="4.75307">
        <ele>174</ele>
        <time>2017-03-17T09:54:10Z</time>
      </trkpt>
      <trkpt lat="45.99597" lon="4.75301">
        <ele>174</ele>
        <time>2017-03-17T09:54:11Z</time>
      </trkpt>
      <trkpt lat="45.996" lon="4.75294">
        <ele>174</ele>
        <time>2017-03-17T09:54:12Z</time>
      </trkpt>
      <trkpt lat="45.99604" lon="4.75289">
        <ele>174</ele>
        <time>2017-03-17T09:54:13Z</time>
      </trkpt>
      <trkpt lat="45.99609" lon="4.75284">
        <ele>174</ele>
        <time>2017-03-17T09:54:14Z</time>
      </trkpt>
      <trkpt lat="45.99615" lon="4.75281">
        <ele>174</ele>
        <time>2017-03-17T09:54:15Z</time>
      </trkpt>
      <trkpt lat="45.99621" lon="4.75279">
        <ele>174</ele>
        <time>2017-03-17T09:54:16Z</time>
      </trkpt>
      <trkpt lat="45.99628" lon="4.75278">
        <ele>174</ele>
        <time>2017-03-17T09:54:17Z</time>
      </trkpt>
      <trkpt lat="45.99635" lon="4.75278">
        <ele>174</ele>
        <time>2017-03-17T09:54:18Z</time>
      </trkpt>
      <trkpt lat="45.99643" lon="4.75278">
        <ele>174</ele>
        <time>2017-03-17T09:54:19Z</time>
      </trkpt>
      <trkpt lat="45.99651" lon="4.75277">
        <ele>174</ele>
        <time>2017-03-17T09:54:20Z</time>
      </trkpt>
      <trkpt lat="45.99658" lon="4.75276">
        <ele>174</ele>
        <time>2017-03-17T09:54:21Z</time>
      </trkpt>
      <trkpt lat="45.99666" lon="4.75274">
        <ele>174</ele>
        <time>2017-03-17T09:54:22Z</time>
      </trkpt>
      <trkpt lat="45.99673" lon="4.7527">
        <ele>175</ele>
        <time>2017-03-17T09:54:23Z</time>
      </trkpt>
      <trkpt lat="45.9968" lon="4.75267">
        <ele>175</ele>
        <time>2017-03-17T09:54:24Z</time>
      </trkpt>
      <trkpt lat="45.99687" lon="4.75264">
        <ele>176</ele>
        <time>2017-03-17T09:54:25Z</time>
      </trkpt>
      <trkpt lat="45.99694" lon="4.7526">
        <ele>176</ele>
        <time>2017-03-17T09:54:26Z</time>
      </trkpt>
      <trkpt lat="45.997" lon="4.75257">
        <ele>176</ele>
        <time>2017-03-17T09:54:27Z</time>
      </trkpt>
      <trkpt lat="45.99706" lon="4.75254">
        <ele>176</ele>
        <time>2017-03-17T09:54:28Z</time>
      </trkpt>
      <trkpt lat="45.99712" lon="4.75252">
        <ele>176</ele>
        <time>2017-03-17T09:54:29Z</time>
      </trkpt>
      <trkpt lat="45.99718" lon="4.75249">
        <ele>174</ele>
        <time>2017-03-17T09:54:30Z</time>
      </trkpt>
      <trkpt lat="45.99724" lon="4.75246">
        <ele>175</ele>
        <time>2017-03-17T09:54:31Z</time>
      </trkpt>
      <trkpt lat="45.9973" lon="4.75243">
        <ele>175</ele>
        <time>2017-03-17T09:54:32Z</time>
      </trkpt>
      <trkpt lat="45.99736" lon="4.75241">
        <ele>175</ele>
        <time>2017-03-17T09:54:33Z</time>
      </trkpt>
      <trkpt lat="45.99742" lon="4.75238">
        <ele>175</ele>
        <time>2017-03-17T09:54:34Z</time>
      </trkpt>
      <trkpt lat="45.99748" lon="4.75235">
        <ele>175</ele>
        <time>2017-03-17T09:54:35Z</time>
      </trkpt>
      <trkpt lat="45.99754" lon="4.75232">
        <ele>175</ele>
        <time>2017-03-17T09:54:36Z</time>
      </trkpt>
      <trkpt lat="45.99759" lon="4.7523">
        <ele>175</ele>
        <time>2017-03-17T09:54:37Z</time>
      </trkpt>
      <trkpt lat="45.99765" lon="4.75227">
        <ele>175</ele>
        <time>2017-03-17T09:54:38Z</time>
      </trkpt>
      <trkpt lat="45.99771" lon="4.75225">
        <ele>175</ele>
        <time>2017-03-17T09:54:39Z</time>
      </trkpt>
      <trkpt lat="45.99777" lon="4.75222">
        <ele>175</ele>
        <time>2017-03-17T09:54:40Z</time>
      </trkpt>
      <trkpt lat="45.99782" lon="4.75219">
        <ele>174</ele>
        <time>2017-03-17T09:54:41Z</time>
      </trkpt>
      <trkpt lat="45.99788" lon="4.75216">
        <ele>174</ele>
        <time>2017-03-17T09:54:42Z</time>
      </trkpt>
      <trkpt lat="45.99794" lon="4.75213">
        <ele>174</ele>
        <time>2017-03-17T09:54:43Z</time>
      </trkpt>
      <trkpt lat="45.99801" lon="4.7521">
        <ele>174</ele>
        <time>2017-03-17T09:54:44Z</time>
      </trkpt>
      <trkpt lat="45.99807" lon="4.75207">
        <ele>174</ele>
        <time>2017-03-17T09:54:45Z</time>
      </trkpt>
      <trkpt lat="45.99813" lon="4.75204">
        <ele>174</ele>
        <time>2017-03-17T09:54:46Z</time>
      </trkpt>
      <trkpt lat="45.99819" lon="4.75202">
        <ele>174</ele>
        <time>2017-03-17T09:54:47Z</time>
      </trkpt>
      <trkpt lat="45.99825" lon="4.75199">
        <ele>174</ele>
        <time>2017-03-17T09:54:48Z</time>
      </trkpt>
      <trkpt lat="45.99831" lon="4.75197">
        <ele>174</ele>
        <time>2017-03-17T09:54:49Z</time>
      </trkpt>
      <trkpt lat="45.99836" lon="4.75194">
        <ele>174</ele>
        <time>2017-03-17T09:54:50Z</time>
      </trkpt>
      <trkpt lat="45.99841" lon="4.75191">
        <ele>174</ele>
        <time>2017-03-17T09:54:51Z</time>
      </trkpt>
      <trkpt lat="45.99847" lon="4.75189">
        <ele>174</ele>
        <time>2017-03-17T09:54:52Z</time>
      </trkpt>
      <trkpt lat="45.99852" lon="4.75186">
        <ele>174</ele>
        <time>2017-03-17T09:54:53Z</time>
      </trkpt>
      <trkpt lat="45.99857" lon="4.75184">
        <ele>174</ele>
        <time>2017-03-17T09:54:54Z</time>
      </trkpt>
      <trkpt lat="45.99862" lon="4.75182">
        <ele>174</ele>
        <time>2017-03-17T09:54:55Z</time>
      </trkpt>
      <trkpt lat="45.99867" lon="4.7518">
        <ele>174</ele>
        <time>2017-03-17T09:54:56Z</time>
      </trkpt>
      <trkpt lat="45.99872" lon="4.75177">
        <ele>174</ele>
        <time>2017-03-17T09:54:57Z</time>
      </trkpt>
      <trkpt lat="45.99878" lon="4.75175">
        <ele>174</ele>
        <time>2017-03-17T09:54:58Z</time>
      </trkpt>
      <trkpt lat="45.99883" lon="4.75172">
        <ele>174</ele>
        <time>2017-03-17T09:54:59Z</time>
      </trkpt>
      <trkpt lat="45.99889" lon="4.7517">
        <ele>174</ele>
        <time>2017-03-17T09:55:00Z</time>
      </trkpt>
      <trkpt lat="45.99895" lon="4.75168">
        <ele>174</ele>
        <time>2017-03-17T09:55:01Z</time>
      </trkpt>
      <trkpt lat="45.99901" lon="4.75165">
        <ele>172</ele>
        <time>2017-03-17T09:55:02Z</time>
      </trkpt>
      <trkpt lat="45.99908" lon="4.75162">
        <ele>173</ele>
        <time>2017-03-17T09:55:03Z</time>
      </trkpt>
      <trkpt lat="45.99914" lon="4.75159">
        <ele>173</ele>
        <time>2017-03-17T09:55:04Z</time>
      </trkpt>
      <trkpt lat="45.9992" lon="4.75156">
        <ele>173</ele>
        <time>2017-03-17T09:55:05Z</time>
      </trkpt>
      <trkpt lat="45.99926" lon="4.75153">
        <ele>173</ele>
        <time>2017-03-17T09:55:06Z</time>
      </trkpt>
      <trkpt lat="45.99932" lon="4.75151">
        <ele>173</ele>
        <time>2017-03-17T09:55:07Z</time>
      </trkpt>
      <trkpt lat="45.99938" lon="4.75148">
        <ele>173</ele>
        <time>2017-03-17T09:55:08Z</time>
      </trkpt>
      <trkpt lat="45.99943" lon="4.75145">
        <ele>173</ele>
        <time>2017-03-17T09:55:09Z</time>
      </trkpt>
      <trkpt lat="45.99949" lon="4.75142">
        <ele>173</ele>
        <time>2017-03-17T09:55:10Z</time>
      </trkpt>
      <trkpt lat="45.99954" lon="4.7514">
        <ele>173</ele>
        <time>2017-03-17T09:55:11Z</time>
      </trkpt>
      <trkpt lat="45.9996" lon="4.75137">
        <ele>173</ele>
        <time>2017-03-17T09:55:12Z</time>
      </trkpt>
      <trkpt lat="45.99966" lon="4.75135">
        <ele>173</ele>
        <time>2017-03-17T09:55:13Z</time>
      </trkpt>
      <trkpt lat="45.99971" lon="4.75132">
        <ele>173</ele>
        <time>2017-03-17T09:55:14Z</time>
      </trkpt>
      <trkpt lat="45.99976" lon="4.7513">
        <ele>173</ele>
        <time>2017-03-17T09:55:15Z</time>
      </trkpt>
      <trkpt lat="45.99981" lon="4.75127">
        <ele>173</ele>
        <time>2017-03-17T09:55:16Z</time>
      </trkpt>
      <trkpt lat="45.99987" lon="4.75125">
        <ele>173</ele>
        <time>2017-03-17T09:55:17Z</time>
      </trkpt>
      <trkpt lat="45.99992" lon="4.75124">
        <ele>173</ele>
        <time>2017-03-17T09:55:18Z</time>
      </trkpt>
      <trkpt lat="45.99998" lon="4.75123">
        <ele>173</ele>
        <time>2017-03-17T09:55:19Z</time>
      </trkpt>
      <trkpt lat="46.00004" lon="4.75122">
        <ele>174</ele>
        <time>2017-03-17T09:55:20Z</time>
      </trkpt>
      <trkpt lat="46.00009" lon="4.75121">
        <ele>174</ele>
        <time>2017-03-17T09:55:21Z</time>
      </trkpt>
      <trkpt lat="46.00015" lon="4.7512">
        <ele>174</ele>
        <time>2017-03-17T09:55:22Z</time>
      </trkpt>
      <trkpt lat="46.00021" lon="4.75118">
        <ele>174</ele>
        <time>2017-03-17T09:55:23Z</time>
      </trkpt>
      <trkpt lat="46.00027" lon="4.75116">
        <ele>174</ele>
        <time>2017-03-17T09:55:24Z</time>
      </trkpt>
      <trkpt lat="46.00033" lon="4.75115">
        <ele>174</ele>
        <time>2017-03-17T09:55:25Z</time>
      </trkpt>
      <trkpt lat="46.00038" lon="4.75113">
        <ele>174</ele>
        <time>2017-03-17T09:55:26Z</time>
      </trkpt>
      <trkpt lat="46.00044" lon="4.75112">
        <ele>174</ele>
        <time>2017-03-17T09:55:27Z</time>
      </trkpt>
      <trkpt lat="46.00051" lon="4.75112">
        <ele>174</ele>
        <time>2017-03-17T09:55:28Z</time>
      </trkpt>
      <trkpt lat="46.00057" lon="4.75112">
        <ele>174</ele>
        <time>2017-03-17T09:55:29Z</time>
      </trkpt>
      <trkpt lat="46.00063" lon="4.75112">
        <ele>174</ele>
        <time>2017-03-17T09:55:30Z</time>
      </trkpt>
      <trkpt lat="46.00068" lon="4.75111">
        <ele>174</ele>
        <time>2017-03-17T09:55:31Z</time>
      </trkpt>
      <trkpt lat="46.00074" lon="4.75111">
        <ele>174</ele>
        <time>2017-03-17T09:55:32Z</time>
      </trkpt>
      <trkpt lat="46.0008" lon="4.75111">
        <ele>174</ele>
        <time>2017-03-17T09:55:33Z</time>
      </trkpt>
      <trkpt lat="46.00086" lon="4.75111">
        <ele>175</ele>
        <time>2017-03-17T09:55:34Z</time>
      </trkpt>
      <trkpt lat="46.00091" lon="4.75111">
        <ele>175</ele>
        <time>2017-03-17T09:55:35Z</time>
      </trkpt>
      <trkpt lat="46.00096" lon="4.7511">
        <ele>175</ele>
        <time>2017-03-17T09:55:36Z</time>
      </trkpt>
      <trkpt lat="46.001" lon="4.7511">
        <ele>175</ele>
        <time>2017-03-17T09:55:37Z</time>
      </trkpt>
      <trkpt lat="46.00105" lon="4.75111">
        <ele>175</ele>
        <time>2017-03-17T09:55:38Z</time>
      </trkpt>
      <trkpt lat="46.00111" lon="4.75111">
        <ele>175</ele>
        <time>2017-03-17T09:55:39Z</time>
      </trkpt>
      <trkpt lat="46.00117" lon="4.75112">
        <ele>175</ele>
        <time>2017-03-17T09:55:40Z</time>
      </trkpt>
      <trkpt lat="46.00124" lon="4.75111">
        <ele>175</ele>
        <time>2017-03-17T09:55:41Z</time>
      </trkpt>
      <trkpt lat="46.0013" lon="4.75111">
        <ele>175</ele>
        <time>2017-03-17T09:55:42Z</time>
      </trkpt>
      <trkpt lat="46.00136" lon="4.75111">
        <ele>175</ele>
        <time>2017-03-17T09:55:43Z</time>
      </trkpt>
      <trkpt lat="46.00141" lon="4.75111">
        <ele>175</ele>
        <time>2017-03-17T09:55:44Z</time>
      </trkpt>
      <trkpt lat="46.00146" lon="4.75111">
        <ele>175</ele>
        <time>2017-03-17T09:55:45Z</time>
      </trkpt>
      <trkpt lat="46.00151" lon="4.75111">
        <ele>175</ele>
        <time>2017-03-17T09:55:46Z</time>
      </trkpt>
      <trkpt lat="46.00157" lon="4.7511">
        <ele>175</ele>
        <time>2017-03-17T09:55:47Z</time>
      </trkpt>
      <trkpt lat="46.00163" lon="4.7511">
        <ele>175</ele>
        <time>2017-03-17T09:55:48Z</time>
      </trkpt>
      <trkpt lat="46.00169" lon="4.7511">
        <ele>176</ele>
        <time>2017-03-17T09:55:49Z</time>
      </trkpt>
      <trkpt lat="46.00174" lon="4.7511">
        <ele>176</ele>
        <time>2017-03-17T09:55:50Z</time>
      </trkpt>
      <trkpt lat="46.00179" lon="4.7511">
        <ele>176</ele>
        <time>2017-03-17T09:55:51Z</time>
      </trkpt>
      <trkpt lat="46.00185" lon="4.7511">
        <ele>176</ele>
        <time>2017-03-17T09:55:52Z</time>
      </trkpt>
      <trkpt lat="46.00189" lon="4.7511">
        <ele>176</ele>
        <time>2017-03-17T09:55:53Z</time>
      </trkpt>
      <trkpt lat="46.00194" lon="4.7511">
        <ele>176</ele>
        <time>2017-03-17T09:55:54Z</time>
      </trkpt>
      <trkpt lat="46.00203" lon="4.7511">
        <ele>176</ele>
        <time>2017-03-17T09:55:56Z</time>
      </trkpt>
      <trkpt lat="46.00206" lon="4.75112">
        <ele>176</ele>
        <time>2017-03-17T09:55:57Z</time>
      </trkpt>
      <trkpt lat="46.00205" lon="4.75122">
        <ele>176</ele>
        <time>2017-03-17T09:55:59Z</time>
      </trkpt>
      <trkpt lat="46.00205" lon="4.75128">
        <ele>176</ele>
        <time>2017-03-17T09:56:00Z</time>
      </trkpt>
      <trkpt lat="46.00205" lon="4.75135">
        <ele>176</ele>
        <time>2017-03-17T09:56:01Z</time>
      </trkpt>
      <trkpt lat="46.00205" lon="4.75142">
        <ele>176</ele>
        <time>2017-03-17T09:56:02Z</time>
      </trkpt>
      <trkpt lat="46.00205" lon="4.7515">
        <ele>177</ele>
        <time>2017-03-17T09:56:03Z</time>
      </trkpt>
      <trkpt lat="46.00206" lon="4.75158">
        <ele>177</ele>
        <time>2017-03-17T09:56:04Z</time>
      </trkpt>
      <trkpt lat="46.00206" lon="4.75165">
        <ele>177</ele>
        <time>2017-03-17T09:56:05Z</time>
      </trkpt>
      <trkpt lat="46.00206" lon="4.75172">
        <ele>179</ele>
        <time>2017-03-17T09:56:06Z</time>
      </trkpt>
      <trkpt lat="46.00206" lon="4.75179">
        <ele>179</ele>
        <time>2017-03-17T09:56:07Z</time>
      </trkpt>
      <trkpt lat="46.00206" lon="4.75185">
        <ele>179</ele>
        <time>2017-03-17T09:56:08Z</time>
      </trkpt>
      <trkpt lat="46.00206" lon="4.75197">
        <ele>179</ele>
        <time>2017-03-17T09:56:10Z</time>
      </trkpt>
      <trkpt lat="46.00205" lon="4.75202">
        <ele>179</ele>
        <time>2017-03-17T09:56:11Z</time>
      </trkpt>
      <trkpt lat="46.00205" lon="4.75211">
        <ele>180</ele>
        <time>2017-03-17T09:56:13Z</time>
      </trkpt>
      <trkpt lat="46.00206" lon="4.75215">
        <ele>180</ele>
        <time>2017-03-17T09:56:14Z</time>
      </trkpt>
      <trkpt lat="46.00207" lon="4.75228">
        <ele>180</ele>
        <time>2017-03-17T09:56:17Z</time>
      </trkpt>
      <trkpt lat="46.00208" lon="4.75232">
        <ele>180</ele>
        <time>2017-03-17T09:56:18Z</time>
      </trkpt>
      <trkpt lat="46.00208" lon="4.75244">
        <ele>180</ele>
        <time>2017-03-17T09:56:21Z</time>
      </trkpt>
      <trkpt lat="46.00208" lon="4.75248">
        <ele>180</ele>
        <time>2017-03-17T09:56:22Z</time>
      </trkpt>
      <trkpt lat="46.00209" lon="4.75259">
        <ele>184</ele>
        <time>2017-03-17T09:56:25Z</time>
      </trkpt>
      <trkpt lat="46.00209" lon="4.75264">
        <ele>184</ele>
        <time>2017-03-17T09:56:26Z</time>
      </trkpt>
      <trkpt lat="46.00209" lon="4.75275">
        <ele>184</ele>
        <time>2017-03-17T09:56:29Z</time>
      </trkpt>
      <trkpt lat="46.00209" lon="4.75279">
        <ele>184</ele>
        <time>2017-03-17T09:56:30Z</time>
      </trkpt>
      <trkpt lat="46.00209" lon="4.7529">
        <ele>185</ele>
        <time>2017-03-17T09:56:33Z</time>
      </trkpt>
      <trkpt lat="46.00209" lon="4.75293">
        <ele>185</ele>
        <time>2017-03-17T09:56:34Z</time>
      </trkpt>
      <trkpt lat="46.00211" lon="4.75303">
        <ele>185</ele>
        <time>2017-03-17T09:56:37Z</time>
      </trkpt>
      <trkpt lat="46.00211" lon="4.75307">
        <ele>186</ele>
        <time>2017-03-17T09:56:38Z</time>
      </trkpt>
      <trkpt lat="46.00211" lon="4.75318">
        <ele>186</ele>
        <time>2017-03-17T09:56:41Z</time>
      </trkpt>
      <trkpt lat="46.00211" lon="4.75322">
        <ele>186</ele>
        <time>2017-03-17T09:56:42Z</time>
      </trkpt>
      <trkpt lat="46.00211" lon="4.75334">
        <ele>190</ele>
        <time>2017-03-17T09:56:45Z</time>
      </trkpt>
      <trkpt lat="46.00211" lon="4.75337">
        <ele>190</ele>
        <time>2017-03-17T09:56:46Z</time>
      </trkpt>
      <trkpt lat="46.00212" lon="4.75349">
        <ele>191</ele>
        <time>2017-03-17T09:56:49Z</time>
      </trkpt>
      <trkpt lat="46.00212" lon="4.75353">
        <ele>191</ele>
        <time>2017-03-17T09:56:50Z</time>
      </trkpt>
      <trkpt lat="46.00212" lon="4.75365">
        <ele>191</ele>
        <time>2017-03-17T09:56:53Z</time>
      </trkpt>
      <trkpt lat="46.00213" lon="4.75369">
        <ele>191</ele>
        <time>2017-03-17T09:56:54Z</time>
      </trkpt>
      <trkpt lat="46.00212" lon="4.7538">
        <ele>192</ele>
        <time>2017-03-17T09:56:57Z</time>
      </trkpt>
      <trkpt lat="46.00211" lon="4.75384">
        <ele>192</ele>
        <time>2017-03-17T09:56:58Z</time>
      </trkpt>
      <trkpt lat="46.0021" lon="4.75396">
        <ele>192</ele>
        <time>2017-03-17T09:57:01Z</time>
      </trkpt>
      <trkpt lat="46.0021" lon="4.754">
        <ele>192</ele>
        <time>2017-03-17T09:57:02Z</time>
      </trkpt>
      <trkpt lat="46.00211" lon="4.75412">
        <ele>193</ele>
        <time>2017-03-17T09:57:05Z</time>
      </trkpt>
      <trkpt lat="46.0021" lon="4.75416">
        <ele>193</ele>
        <time>2017-03-17T09:57:06Z</time>
      </trkpt>
      <trkpt lat="46.0021" lon="4.75428">
        <ele>196</ele>
        <time>2017-03-17T09:57:09Z</time>
      </trkpt>
      <trkpt lat="46.0021" lon="4.75431">
        <ele>197</ele>
        <time>2017-03-17T09:57:10Z</time>
      </trkpt>
      <trkpt lat="46.0021" lon="4.75441">
        <ele>197</ele>
        <time>2017-03-17T09:57:13Z</time>
      </trkpt>
      <trkpt lat="46.0021" lon="4.75445">
        <ele>197</ele>
        <time>2017-03-17T09:57:14Z</time>
      </trkpt>
      <trkpt lat="46.0021" lon="4.75456">
        <ele>197</ele>
        <time>2017-03-17T09:57:17Z</time>
      </trkpt>
      <trkpt lat="46.0021" lon="4.75461">
        <ele>198</ele>
        <time>2017-03-17T09:57:18Z</time>
      </trkpt>
      <trkpt lat="46.00209" lon="4.75471">
        <ele>198</ele>
        <time>2017-03-17T09:57:21Z</time>
      </trkpt>
      <trkpt lat="46.0021" lon="4.75475">
        <ele>198</ele>
        <time>2017-03-17T09:57:22Z</time>
      </trkpt>
      <trkpt lat="46.00211" lon="4.75486">
        <ele>198</ele>
        <time>2017-03-17T09:57:25Z</time>
      </trkpt>
      <trkpt lat="46.0021" lon="4.7549">
        <ele>198</ele>
        <time>2017-03-17T09:57:26Z</time>
      </trkpt>
      <trkpt lat="46.00212" lon="4.755">
        <ele>198</ele>
        <time>2017-03-17T09:57:29Z</time>
      </trkpt>
      <trkpt lat="46.00212" lon="4.75503">
        <ele>204</ele>
        <time>2017-03-17T09:57:30Z</time>
      </trkpt>
      <trkpt lat="46.00212" lon="4.75515">
        <ele>204</ele>
        <time>2017-03-17T09:57:33Z</time>
      </trkpt>
      <trkpt lat="46.00213" lon="4.75519">
        <ele>205</ele>
        <time>2017-03-17T09:57:34Z</time>
      </trkpt>
      <trkpt lat="46.00214" lon="4.75529">
        <ele>205</ele>
        <time>2017-03-17T09:57:37Z</time>
      </trkpt>
      <trkpt lat="46.00215" lon="4.75532">
        <ele>205</ele>
        <time>2017-03-17T09:57:38Z</time>
      </trkpt>
      <trkpt lat="46.00217" lon="4.75543">
        <ele>206</ele>
        <time>2017-03-17T09:57:41Z</time>
      </trkpt>
      <trkpt lat="46.00218" lon="4.75547">
        <ele>206</ele>
        <time>2017-03-17T09:57:42Z</time>
      </trkpt>
      <trkpt lat="46.0022" lon="4.75557">
        <ele>206</ele>
        <time>2017-03-17T09:57:45Z</time>
      </trkpt>
      <trkpt lat="46.00222" lon="4.7556">
        <ele>206</ele>
        <time>2017-03-17T09:57:46Z</time>
      </trkpt>
      <trkpt lat="46.00227" lon="4.75568">
        <ele>206</ele>
        <time>2017-03-17T09:57:49Z</time>
      </trkpt>
      <trkpt lat="46.00229" lon="4.7557">
        <ele>206</ele>
        <time>2017-03-17T09:57:50Z</time>
      </trkpt>
      <trkpt lat="46.00235" lon="4.75578">
        <ele>206</ele>
        <time>2017-03-17T09:57:53Z</time>
      </trkpt>
      <trkpt lat="46.00236" lon="4.75581">
        <ele>205</ele>
        <time>2017-03-17T09:57:54Z</time>
      </trkpt>
      <trkpt lat="46.00241" lon="4.75588">
        <ele>208</ele>
        <time>2017-03-17T09:57:57Z</time>
      </trkpt>
      <trkpt lat="46.00243" lon="4.7559">
        <ele>208</ele>
        <time>2017-03-17T09:57:58Z</time>
      </trkpt>
      <trkpt lat="46.00248" lon="4.75599">
        <ele>209</ele>
        <time>2017-03-17T09:58:02Z</time>
      </trkpt>
      <trkpt lat="46.0025" lon="4.75601">
        <ele>209</ele>
        <time>2017-03-17T09:58:03Z</time>
      </trkpt>
      <trkpt lat="46.00255" lon="4.75611">
        <ele>206</ele>
        <time>2017-03-17T09:58:07Z</time>
      </trkpt>
      <trkpt lat="46.00255" lon="4.75613">
        <ele>206</ele>
        <time>2017-03-17T09:58:08Z</time>
      </trkpt>
      <trkpt lat="46.0026" lon="4.75622">
        <ele>206</ele>
        <time>2017-03-17T09:58:13Z</time>
      </trkpt>
      <trkpt lat="46.00261" lon="4.75624">
        <ele>206</ele>
        <time>2017-03-17T09:58:14Z</time>
      </trkpt>
      <trkpt lat="46.00268" lon="4.75632">
        <ele>207</ele>
        <time>2017-03-17T09:58:17Z</time>
      </trkpt>
      <trkpt lat="46.00269" lon="4.75635">
        <ele>207</ele>
        <time>2017-03-17T09:58:18Z</time>
      </trkpt>
      <trkpt lat="46.00274" lon="4.75643">
        <ele>207</ele>
        <time>2017-03-17T09:58:21Z</time>
      </trkpt>
      <trkpt lat="46.00276" lon="4.75646">
        <ele>207</ele>
        <time>2017-03-17T09:58:22Z</time>
      </trkpt>
      <trkpt lat="46.00282" lon="4.75652">
        <ele>207</ele>
        <time>2017-03-17T09:58:25Z</time>
      </trkpt>
      <trkpt lat="46.00283" lon="4.75654">
        <ele>207</ele>
        <time>2017-03-17T09:58:26Z</time>
      </trkpt>
      <trkpt lat="46.00287" lon="4.75665">
        <ele>207</ele>
        <time>2017-03-17T09:58:30Z</time>
      </trkpt>
      <trkpt lat="46.00289" lon="4.75668">
        <ele>209</ele>
        <time>2017-03-17T09:58:31Z</time>
      </trkpt>
      <trkpt lat="46.00295" lon="4.75674">
        <ele>208</ele>
        <time>2017-03-17T09:58:34Z</time>
      </trkpt>
      <trkpt lat="46.00297" lon="4.75677">
        <ele>208</ele>
        <time>2017-03-17T09:58:35Z</time>
      </trkpt>
      <trkpt lat="46.00303" lon="4.75685">
        <ele>208</ele>
        <time>2017-03-17T09:58:38Z</time>
      </trkpt>
      <trkpt lat="46.00304" lon="4.75688">
        <ele>208</ele>
        <time>2017-03-17T09:58:39Z</time>
      </trkpt>
      <trkpt lat="46.00309" lon="4.75698">
        <ele>208</ele>
        <time>2017-03-17T09:58:42Z</time>
      </trkpt>
      <trkpt lat="46.00311" lon="4.75701">
        <ele>208</ele>
        <time>2017-03-17T09:58:43Z</time>
      </trkpt>
      <trkpt lat="46.00316" lon="4.75709">
        <ele>208</ele>
        <time>2017-03-17T09:58:46Z</time>
      </trkpt>
      <trkpt lat="46.00318" lon="4.75711">
        <ele>208</ele>
        <time>2017-03-17T09:58:47Z</time>
      </trkpt>
      <trkpt lat="46.00323" lon="4.75718">
        <ele>208</ele>
        <time>2017-03-17T09:58:50Z</time>
      </trkpt>
      <trkpt lat="46.00325" lon="4.7572">
        <ele>208</ele>
        <time>2017-03-17T09:58:51Z</time>
      </trkpt>
      <trkpt lat="46.0033" lon="4.75729">
        <ele>208</ele>
        <time>2017-03-17T09:58:54Z</time>
      </trkpt>
      <trkpt lat="46.00331" lon="4.75731">
        <ele>208</ele>
        <time>2017-03-17T09:58:55Z</time>
      </trkpt>
      <trkpt lat="46.00337" lon="4.7574">
        <ele>209</ele>
        <time>2017-03-17T09:58:59Z</time>
      </trkpt>
      <trkpt lat="46.00338" lon="4.75743">
        <ele>209</ele>
        <time>2017-03-17T09:59:00Z</time>
      </trkpt>
      <trkpt lat="46.00343" lon="4.7575">
        <ele>210</ele>
        <time>2017-03-17T09:59:03Z</time>
      </trkpt>
      <trkpt lat="46.00345" lon="4.75753">
        <ele>210</ele>
        <time>2017-03-17T09:59:04Z</time>
      </trkpt>
      <trkpt lat="46.0035" lon="4.7576">
        <ele>211</ele>
        <time>2017-03-17T09:59:07Z</time>
      </trkpt>
      <trkpt lat="46.00352" lon="4.75762">
        <ele>211</ele>
        <time>2017-03-17T09:59:08Z</time>
      </trkpt>
      <trkpt lat="46.00357" lon="4.75769">
        <ele>212</ele>
        <time>2017-03-17T09:59:11Z</time>
      </trkpt>
      <trkpt lat="46.00359" lon="4.75772">
        <ele>212</ele>
        <time>2017-03-17T09:59:12Z</time>
      </trkpt>
      <trkpt lat="46.00363" lon="4.7578">
        <ele>212</ele>
        <time>2017-03-17T09:59:15Z</time>
      </trkpt>
      <trkpt lat="46.00364" lon="4.75784">
        <ele>213</ele>
        <time>2017-03-17T09:59:16Z</time>
      </trkpt>
      <trkpt lat="46.00369" lon="4.75792">
        <ele>213</ele>
        <time>2017-03-17T09:59:19Z</time>
      </trkpt>
      <trkpt lat="46.00371" lon="4.75794">
        <ele>213</ele>
        <time>2017-03-17T09:59:20Z</time>
      </trkpt>
      <trkpt lat="46.00377" lon="4.75804">
        <ele>213</ele>
        <time>2017-03-17T09:59:24Z</time>
      </trkpt>
      <trkpt lat="46.00378" lon="4.75807">
        <ele>213</ele>
        <time>2017-03-17T09:59:25Z</time>
      </trkpt>
      <trkpt lat="46.00383" lon="4.75816">
        <ele>213</ele>
        <time>2017-03-17T09:59:28Z</time>
      </trkpt>
      <trkpt lat="46.00386" lon="4.75819">
        <ele>213</ele>
        <time>2017-03-17T09:59:29Z</time>
      </trkpt>
      <trkpt lat="46.00391" lon="4.75829">
        <ele>213</ele>
        <time>2017-03-17T09:59:32Z</time>
      </trkpt>
      <trkpt lat="46.00393" lon="4.75832">
        <ele>213</ele>
        <time>2017-03-17T09:59:33Z</time>
      </trkpt>
      <trkpt lat="46.00398" lon="4.75841">
        <ele>214</ele>
        <time>2017-03-17T09:59:36Z</time>
      </trkpt>
      <trkpt lat="46.00399" lon="4.75843">
        <ele>214</ele>
        <time>2017-03-17T09:59:37Z</time>
      </trkpt>
      <trkpt lat="46.00404" lon="4.7585">
        <ele>214</ele>
        <time>2017-03-17T09:59:40Z</time>
      </trkpt>
      <trkpt lat="46.00406" lon="4.75853">
        <ele>215</ele>
        <time>2017-03-17T09:59:41Z</time>
      </trkpt>
      <trkpt lat="46.0041" lon="4.75863">
        <ele>215</ele>
        <time>2017-03-17T09:59:44Z</time>
      </trkpt>
      <trkpt lat="46.00412" lon="4.75866">
        <ele>215</ele>
        <time>2017-03-17T09:59:45Z</time>
      </trkpt>
      <trkpt lat="46.00417" lon="4.75876">
        <ele>217</ele>
        <time>2017-03-17T09:59:48Z</time>
      </trkpt>
      <trkpt lat="46.00418" lon="4.75879">
        <ele>217</ele>
        <time>2017-03-17T09:59:49Z</time>
      </trkpt>
      <trkpt lat="46.00423" lon="4.75888">
        <ele>217</ele>
        <time>2017-03-17T09:59:52Z</time>
      </trkpt>
      <trkpt lat="46.00424" lon="4.75891">
        <ele>217</ele>
        <time>2017-03-17T09:59:53Z</time>
      </trkpt>
      <trkpt lat="46.00429" lon="4.759">
        <ele>217</ele>
        <time>2017-03-17T09:59:56Z</time>
      </trkpt>
      <trkpt lat="46.0043" lon="4.75902">
        <ele>217</ele>
        <time>2017-03-17T09:59:57Z</time>
      </trkpt>
      <trkpt lat="46.00435" lon="4.75911">
        <ele>217</ele>
        <time>2017-03-17T10:00:00Z</time>
      </trkpt>
      <trkpt lat="46.00436" lon="4.75914">
        <ele>217</ele>
        <time>2017-03-17T10:00:01Z</time>
      </trkpt>
      <trkpt lat="46.00439" lon="4.75923">
        <ele>218</ele>
        <time>2017-03-17T10:00:04Z</time>
      </trkpt>
      <trkpt lat="46.0044" lon="4.75926">
        <ele>218</ele>
        <time>2017-03-17T10:00:05Z</time>
      </trkpt>
      <trkpt lat="46.00441" lon="4.75938">
        <ele>218</ele>
        <time>2017-03-17T10:00:09Z</time>
      </trkpt>
      <trkpt lat="46.00442" lon="4.75941">
        <ele>218</ele>
        <time>2017-03-17T10:00:10Z</time>
      </trkpt>
      <trkpt lat="46.0044" lon="4.75951">
        <ele>219</ele>
        <time>2017-03-17T10:00:13Z</time>
      </trkpt>
      <trkpt lat="46.00439" lon="4.75954">
        <ele>219</ele>
        <time>2017-03-17T10:00:14Z</time>
      </trkpt>
      <trkpt lat="46.00435" lon="4.75963">
        <ele>219</ele>
        <time>2017-03-17T10:00:17Z</time>
      </trkpt>
      <trkpt lat="46.00433" lon="4.75965">
        <ele>219</ele>
        <time>2017-03-17T10:00:18Z</time>
      </trkpt>
      <trkpt lat="46.00428" lon="4.75972">
        <ele>219</ele>
        <time>2017-03-17T10:00:21Z</time>
      </trkpt>
      <trkpt lat="46.00426" lon="4.75974">
        <ele>219</ele>
        <time>2017-03-17T10:00:22Z</time>
      </trkpt>
      <trkpt lat="46.0042" lon="4.75983">
        <ele>220</ele>
        <time>2017-03-17T10:00:26Z</time>
      </trkpt>
      <trkpt lat="46.00419" lon="4.75985">
        <ele>220</ele>
        <time>2017-03-17T10:00:27Z</time>
      </trkpt>
      <trkpt lat="46.00412" lon="4.75992">
        <ele>221</ele>
        <time>2017-03-17T10:00:31Z</time>
      </trkpt>
      <trkpt lat="46.0041" lon="4.75994">
        <ele>221</ele>
        <time>2017-03-17T10:00:32Z</time>
      </trkpt>
      <trkpt lat="46.00404" lon="4.76001">
        <ele>223</ele>
        <time>2017-03-17T10:00:36Z</time>
      </trkpt>
      <trkpt lat="46.00402" lon="4.76003">
        <ele>223</ele>
        <time>2017-03-17T10:00:37Z</time>
      </trkpt>
      <trkpt lat="46.00395" lon="4.76012">
        <ele>224</ele>
        <time>2017-03-17T10:00:41Z</time>
      </trkpt>
      <trkpt lat="46.00394" lon="4.76014">
        <ele>224</ele>
        <time>2017-03-17T10:00:42Z</time>
      </trkpt>
      <trkpt lat="46.00388" lon="4.76023">
        <ele>224</ele>
        <time>2017-03-17T10:00:46Z</time>
      </trkpt>
      <trkpt lat="46.00386" lon="4.76025">
        <ele>225</ele>
        <time>2017-03-17T10:00:47Z</time>
      </trkpt>
      <trkpt lat="46.00379" lon="4.76033">
        <ele>225</ele>
        <time>2017-03-17T10:00:51Z</time>
      </trkpt>
      <trkpt lat="46.00377" lon="4.76034">
        <ele>225</ele>
        <time>2017-03-17T10:00:52Z</time>
      </trkpt>
      <trkpt lat="46.00373" lon="4.76042">
        <ele>225</ele>
        <time>2017-03-17T10:00:55Z</time>
      </trkpt>
      <trkpt lat="46.00371" lon="4.76045">
        <ele>225</ele>
        <time>2017-03-17T10:00:56Z</time>
      </trkpt>
      <trkpt lat="46.00369" lon="4.76055">
        <ele>226</ele>
        <time>2017-03-17T10:00:59Z</time>
      </trkpt>
      <trkpt lat="46.0037" lon="4.76058">
        <ele>226</ele>
        <time>2017-03-17T10:01:00Z</time>
      </trkpt>
      <trkpt lat="46.00376" lon="4.76066">
        <ele>226</ele>
        <time>2017-03-17T10:01:04Z</time>
      </trkpt>
      <trkpt lat="46.00378" lon="4.76066">
        <ele>226</ele>
        <time>2017-03-17T10:01:05Z</time>
      </trkpt>
      <trkpt lat="46.00384" lon="4.76066">
        <ele>226</ele>
        <time>2017-03-17T10:01:08Z</time>
      </trkpt>
      <trkpt lat="46.00387" lon="4.76066">
        <ele>226</ele>
        <time>2017-03-17T10:01:09Z</time>
      </trkpt>
      <trkpt lat="46.00393" lon="4.76065">
        <ele>225</ele>
        <time>2017-03-17T10:01:11Z</time>
      </trkpt>
      <trkpt lat="46.00396" lon="4.76066">
        <ele>225</ele>
        <time>2017-03-17T10:01:12Z</time>
      </trkpt>
      <trkpt lat="46.00402" lon="4.76067">
        <ele>225</ele>
        <time>2017-03-17T10:01:14Z</time>
      </trkpt>
      <trkpt lat="46.00405" lon="4.76068">
        <ele>226</ele>
        <time>2017-03-17T10:01:15Z</time>
      </trkpt>
      <trkpt lat="46.00413" lon="4.76071">
        <ele>226</ele>
        <time>2017-03-17T10:01:18Z</time>
      </trkpt>
      <trkpt lat="46.00415" lon="4.76072">
        <ele>226</ele>
        <time>2017-03-17T10:01:19Z</time>
      </trkpt>
      <trkpt lat="46.00422" lon="4.76077">
        <ele>225</ele>
        <time>2017-03-17T10:01:22Z</time>
      </trkpt>
      <trkpt lat="46.00424" lon="4.76078">
        <ele>225</ele>
        <time>2017-03-17T10:01:23Z</time>
      </trkpt>
      <trkpt lat="46.00431" lon="4.76081">
        <ele>225</ele>
        <time>2017-03-17T10:01:26Z</time>
      </trkpt>
      <trkpt lat="46.00433" lon="4.76083">
        <ele>224</ele>
        <time>2017-03-17T10:01:27Z</time>
      </trkpt>
      <trkpt lat="46.00441" lon="4.76086">
        <ele>227</ele>
        <time>2017-03-17T10:01:31Z</time>
      </trkpt>
      <trkpt lat="46.00443" lon="4.76087">
        <ele>227</ele>
        <time>2017-03-17T10:01:32Z</time>
      </trkpt>
      <trkpt lat="46.00449" lon="4.76091">
        <ele>227</ele>
        <time>2017-03-17T10:01:35Z</time>
      </trkpt>
      <trkpt lat="46.00451" lon="4.76093">
        <ele>227</ele>
        <time>2017-03-17T10:01:36Z</time>
      </trkpt>
      <trkpt lat="46.00459" lon="4.76099">
        <ele>227</ele>
        <time>2017-03-17T10:01:40Z</time>
      </trkpt>
      <trkpt lat="46.00461" lon="4.76101">
        <ele>227</ele>
        <time>2017-03-17T10:01:41Z</time>
      </trkpt>
      <trkpt lat="46.00468" lon="4.76104">
        <ele>227</ele>
        <time>2017-03-17T10:01:44Z</time>
      </trkpt>
      <trkpt lat="46.00469" lon="4.76106">
        <ele>227</ele>
        <time>2017-03-17T10:01:45Z</time>
      </trkpt>
      <trkpt lat="46.00475" lon="4.76113">
        <ele>227</ele>
        <time>2017-03-17T10:01:48Z</time>
      </trkpt>
      <trkpt lat="46.00477" lon="4.76114">
        <ele>227</ele>
        <time>2017-03-17T10:01:49Z</time>
      </trkpt>
      <trkpt lat="46.00485" lon="4.7612">
        <ele>227</ele>
        <time>2017-03-17T10:01:52Z</time>
      </trkpt>
      <trkpt lat="46.00487" lon="4.76123">
        <ele>227</ele>
        <time>2017-03-17T10:01:53Z</time>
      </trkpt>
      <trkpt lat="46.00493" lon="4.76131">
        <ele>228</ele>
        <time>2017-03-17T10:01:56Z</time>
      </trkpt>
      <trkpt lat="46.00495" lon="4.76133">
        <ele>228</ele>
        <time>2017-03-17T10:01:57Z</time>
      </trkpt>
      <trkpt lat="46.00501" lon="4.7614">
        <ele>227</ele>
        <time>2017-03-17T10:02:00Z</time>
      </trkpt>
      <trkpt lat="46.00503" lon="4.76143">
        <ele>228</ele>
        <time>2017-03-17T10:02:01Z</time>
      </trkpt>
      <trkpt lat="46.00509" lon="4.7615">
        <ele>228</ele>
        <time>2017-03-17T10:02:04Z</time>
      </trkpt>
      <trkpt lat="46.00511" lon="4.76152">
        <ele>228</ele>
        <time>2017-03-17T10:02:05Z</time>
      </trkpt>
      <trkpt lat="46.00518" lon="4.7616">
        <ele>228</ele>
        <time>2017-03-17T10:02:08Z</time>
      </trkpt>
      <trkpt lat="46.0052" lon="4.76162">
        <ele>228</ele>
        <time>2017-03-17T10:02:09Z</time>
      </trkpt>
      <trkpt lat="46.00525" lon="4.76167">
        <ele>230</ele>
        <time>2017-03-17T10:02:11Z</time>
      </trkpt>
      <trkpt lat="46.00528" lon="4.76169">
        <ele>230</ele>
        <time>2017-03-17T10:02:12Z</time>
      </trkpt>
      <trkpt lat="46.00535" lon="4.76173">
        <ele>230</ele>
        <time>2017-03-17T10:02:14Z</time>
      </trkpt>
      <trkpt lat="46.00537" lon="4.76175">
        <ele>230</ele>
        <time>2017-03-17T10:02:15Z</time>
      </trkpt>
      <trkpt lat="46.00546" lon="4.76179">
        <ele>230</ele>
        <time>2017-03-17T10:02:18Z</time>
      </trkpt>
      <trkpt lat="46.00549" lon="4.7618">
        <ele>230</ele>
        <time>2017-03-17T10:02:19Z</time>
      </trkpt>
      <trkpt lat="46.00556" lon="4.76183">
        <ele>230</ele>
        <time>2017-03-17T10:02:22Z</time>
      </trkpt>
      <trkpt lat="46.00559" lon="4.76185">
        <ele>230</ele>
        <time>2017-03-17T10:02:23Z</time>
      </trkpt>
      <trkpt lat="46.00567" lon="4.76187">
        <ele>230</ele>
        <time>2017-03-17T10:02:26Z</time>
      </trkpt>
      <trkpt lat="46.0057" lon="4.76188">
        <ele>230</ele>
        <time>2017-03-17T10:02:27Z</time>
      </trkpt>
      <trkpt lat="46.00577" lon="4.7619">
        <ele>231</ele>
        <time>2017-03-17T10:02:30Z</time>
      </trkpt>
      <trkpt lat="46.0058" lon="4.76191">
        <ele>231</ele>
        <time>2017-03-17T10:02:31Z</time>
      </trkpt>
      <trkpt lat="46.00588" lon="4.76192">
        <ele>230</ele>
        <time>2017-03-17T10:02:34Z</time>
      </trkpt>
      <trkpt lat="46.00591" lon="4.76193">
        <ele>230</ele>
        <time>2017-03-17T10:02:35Z</time>
      </trkpt>
      <trkpt lat="46.00599" lon="4.76196">
        <ele>230</ele>
        <time>2017-03-17T10:02:38Z</time>
      </trkpt>
      <trkpt lat="46.00601" lon="4.76197">
        <ele>230</ele>
        <time>2017-03-17T10:02:39Z</time>
      </trkpt>
      <trkpt lat="46.00608" lon="4.76201">
        <ele>230</ele>
        <time>2017-03-17T10:02:42Z</time>
      </trkpt>
      <trkpt lat="46.00611" lon="4.76202">
        <ele>230</ele>
        <time>2017-03-17T10:02:43Z</time>
      </trkpt>
      <trkpt lat="46.0062" lon="4.76204">
        <ele>230</ele>
        <time>2017-03-17T10:02:46Z</time>
      </trkpt>
      <trkpt lat="46.00622" lon="4.76202">
        <ele>230</ele>
        <time>2017-03-17T10:02:47Z</time>
      </trkpt>
      <trkpt lat="46.00626" lon="4.76195">
        <ele>230</ele>
        <time>2017-03-17T10:02:49Z</time>
      </trkpt>
      <trkpt lat="46.00626" lon="4.7619">
        <ele>230</ele>
        <time>2017-03-17T10:02:50Z</time>
      </trkpt>
      <trkpt lat="46.00627" lon="4.76179">
        <ele>230</ele>
        <time>2017-03-17T10:02:52Z</time>
      </trkpt>
      <trkpt lat="46.00629" lon="4.76174">
        <ele>230</ele>
        <time>2017-03-17T10:02:53Z</time>
      </trkpt>
      <trkpt lat="46.00631" lon="4.76169">
        <ele>230</ele>
        <time>2017-03-17T10:02:54Z</time>
      </trkpt>
      <trkpt lat="46.00634" lon="4.76164">
        <ele>228</ele>
        <time>2017-03-17T10:02:55Z</time>
      </trkpt>
      <trkpt lat="46.00639" lon="4.76159">
        <ele>228</ele>
        <time>2017-03-17T10:02:56Z</time>
      </trkpt>
      <trkpt lat="46.00644" lon="4.76153">
        <ele>228</ele>
        <time>2017-03-17T10:02:57Z</time>
      </trkpt>
      <trkpt lat="46.00649" lon="4.76147">
        <ele>228</ele>
        <time>2017-03-17T10:02:58Z</time>
      </trkpt>
      <trkpt lat="46.00655" lon="4.7614">
        <ele>228</ele>
        <time>2017-03-17T10:02:59Z</time>
      </trkpt>
      <trkpt lat="46.00663" lon="4.76134">
        <ele>228</ele>
        <time>2017-03-17T10:03:00Z</time>
      </trkpt>
      <trkpt lat="46.00671" lon="4.76128">
        <ele>226</ele>
        <time>2017-03-17T10:03:01Z</time>
      </trkpt>
      <trkpt lat="46.0068" lon="4.76124">
        <ele>226</ele>
        <time>2017-03-17T10:03:02Z</time>
      </trkpt>
      <trkpt lat="46.0069" lon="4.76121">
        <ele>225</ele>
        <time>2017-03-17T10:03:03Z</time>
      </trkpt>
      <trkpt lat="46.00701" lon="4.76118">
        <ele>225</ele>
        <time>2017-03-17T10:03:04Z</time>
      </trkpt>
      <trkpt lat="46.00712" lon="4.76117">
        <ele>224</ele>
        <time>2017-03-17T10:03:05Z</time>
      </trkpt>
      <trkpt lat="46.00723" lon="4.76116">
        <ele>224</ele>
        <time>2017-03-17T10:03:06Z</time>
      </trkpt>
      <trkpt lat="46.00735" lon="4.76115">
        <ele>223</ele>
        <time>2017-03-17T10:03:07Z</time>
      </trkpt>
      <trkpt lat="46.00746" lon="4.76115">
        <ele>223</ele>
        <time>2017-03-17T10:03:08Z</time>
      </trkpt>
      <trkpt lat="46.00758" lon="4.76113">
        <ele>219</ele>
        <time>2017-03-17T10:03:09Z</time>
      </trkpt>
      <trkpt lat="46.0077" lon="4.76112">
        <ele>219</ele>
        <time>2017-03-17T10:03:10Z</time>
      </trkpt>
      <trkpt lat="46.00781" lon="4.76111">
        <ele>219</ele>
        <time>2017-03-17T10:03:11Z</time>
      </trkpt>
      <trkpt lat="46.00793" lon="4.7611">
        <ele>219</ele>
        <time>2017-03-17T10:03:12Z</time>
      </trkpt>
      <trkpt lat="46.00804" lon="4.76109">
        <ele>218</ele>
        <time>2017-03-17T10:03:13Z</time>
      </trkpt>
      <trkpt lat="46.00816" lon="4.76108">
        <ele>218</ele>
        <time>2017-03-17T10:03:14Z</time>
      </trkpt>
      <trkpt lat="46.00828" lon="4.76106">
        <ele>218</ele>
        <time>2017-03-17T10:03:15Z</time>
      </trkpt>
      <trkpt lat="46.00839" lon="4.76104">
        <ele>216</ele>
        <time>2017-03-17T10:03:16Z</time>
      </trkpt>
      <trkpt lat="46.00851" lon="4.76102">
        <ele>216</ele>
        <time>2017-03-17T10:03:17Z</time>
      </trkpt>
      <trkpt lat="46.00862" lon="4.76099">
        <ele>215</ele>
        <time>2017-03-17T10:03:18Z</time>
      </trkpt>
      <trkpt lat="46.00874" lon="4.76096">
        <ele>215</ele>
        <time>2017-03-17T10:03:19Z</time>
      </trkpt>
      <trkpt lat="46.00886" lon="4.76093">
        <ele>215</ele>
        <time>2017-03-17T10:03:20Z</time>
      </trkpt>
      <trkpt lat="46.00897" lon="4.76091">
        <ele>214</ele>
        <time>2017-03-17T10:03:21Z</time>
      </trkpt>
      <trkpt lat="46.00909" lon="4.76088">
        <ele>214</ele>
        <time>2017-03-17T10:03:22Z</time>
      </trkpt>
      <trkpt lat="46.0092" lon="4.76085">
        <ele>213</ele>
        <time>2017-03-17T10:03:23Z</time>
      </trkpt>
      <trkpt lat="46.00931" lon="4.76083">
        <ele>213</ele>
        <time>2017-03-17T10:03:24Z</time>
      </trkpt>
      <trkpt lat="46.00943" lon="4.7608">
        <ele>212</ele>
        <time>2017-03-17T10:03:25Z</time>
      </trkpt>
      <trkpt lat="46.00954" lon="4.76078">
        <ele>212</ele>
        <time>2017-03-17T10:03:26Z</time>
      </trkpt>
      <trkpt lat="46.00966" lon="4.76075">
        <ele>212</ele>
        <time>2017-03-17T10:03:27Z</time>
      </trkpt>
      <trkpt lat="46.00976" lon="4.76073">
        <ele>212</ele>
        <time>2017-03-17T10:03:28Z</time>
      </trkpt>
      <trkpt lat="46.00987" lon="4.76071">
        <ele>212</ele>
        <time>2017-03-17T10:03:29Z</time>
      </trkpt>
      <trkpt lat="46.00998" lon="4.76069">
        <ele>212</ele>
        <time>2017-03-17T10:03:30Z</time>
      </trkpt>
      <trkpt lat="46.01009" lon="4.76068">
        <ele>211</ele>
        <time>2017-03-17T10:03:31Z</time>
      </trkpt>
      <trkpt lat="46.0102" lon="4.76067">
        <ele>210</ele>
        <time>2017-03-17T10:03:32Z</time>
      </trkpt>
      <trkpt lat="46.0103" lon="4.76066">
        <ele>210</ele>
        <time>2017-03-17T10:03:33Z</time>
      </trkpt>
      <trkpt lat="46.0104" lon="4.76066">
        <ele>210</ele>
        <time>2017-03-17T10:03:34Z</time>
      </trkpt>
      <trkpt lat="46.01051" lon="4.76065">
        <ele>210</ele>
        <time>2017-03-17T10:03:35Z</time>
      </trkpt>
      <trkpt lat="46.01061" lon="4.76064">
        <ele>209</ele>
        <time>2017-03-17T10:03:36Z</time>
      </trkpt>
      <trkpt lat="46.01071" lon="4.76063">
        <ele>209</ele>
        <time>2017-03-17T10:03:37Z</time>
      </trkpt>
      <trkpt lat="46.01081" lon="4.76062">
        <ele>209</ele>
        <time>2017-03-17T10:03:38Z</time>
      </trkpt>
      <trkpt lat="46.01091" lon="4.7606">
        <ele>208</ele>
        <time>2017-03-17T10:03:39Z</time>
      </trkpt>
      <trkpt lat="46.01101" lon="4.76058">
        <ele>208</ele>
        <time>2017-03-17T10:03:40Z</time>
      </trkpt>
      <trkpt lat="46.0111" lon="4.76056">
        <ele>208</ele>
        <time>2017-03-17T10:03:41Z</time>
      </trkpt>
      <trkpt lat="46.0112" lon="4.76055">
        <ele>208</ele>
        <time>2017-03-17T10:03:42Z</time>
      </trkpt>
      <trkpt lat="46.01129" lon="4.76053">
        <ele>208</ele>
        <time>2017-03-17T10:03:43Z</time>
      </trkpt>
      <trkpt lat="46.01139" lon="4.76053">
        <ele>208</ele>
        <time>2017-03-17T10:03:44Z</time>
      </trkpt>
      <trkpt lat="46.01148" lon="4.76052">
        <ele>208</ele>
        <time>2017-03-17T10:03:45Z</time>
      </trkpt>
      <trkpt lat="46.01157" lon="4.76052">
        <ele>208</ele>
        <time>2017-03-17T10:03:46Z</time>
      </trkpt>
      <trkpt lat="46.01165" lon="4.76053">
        <ele>208</ele>
        <time>2017-03-17T10:03:47Z</time>
      </trkpt>
      <trkpt lat="46.01173" lon="4.76054">
        <ele>207</ele>
        <time>2017-03-17T10:03:48Z</time>
      </trkpt>
      <trkpt lat="46.01182" lon="4.76056">
        <ele>207</ele>
        <time>2017-03-17T10:03:49Z</time>
      </trkpt>
      <trkpt lat="46.0119" lon="4.76058">
        <ele>206</ele>
        <time>2017-03-17T10:03:50Z</time>
      </trkpt>
      <trkpt lat="46.01198" lon="4.76061">
        <ele>206</ele>
        <time>2017-03-17T10:03:51Z</time>
      </trkpt>
      <trkpt lat="46.01206" lon="4.76063">
        <ele>206</ele>
        <time>2017-03-17T10:03:52Z</time>
      </trkpt>
      <trkpt lat="46.01215" lon="4.76065">
        <ele>206</ele>
        <time>2017-03-17T10:03:53Z</time>
      </trkpt>
      <trkpt lat="46.01223" lon="4.76067">
        <ele>206</ele>
        <time>2017-03-17T10:03:54Z</time>
      </trkpt>
      <trkpt lat="46.01232" lon="4.76068">
        <ele>205</ele>
        <time>2017-03-17T10:03:55Z</time>
      </trkpt>
      <trkpt lat="46.0124" lon="4.76069">
        <ele>205</ele>
        <time>2017-03-17T10:03:56Z</time>
      </trkpt>
      <trkpt lat="46.01248" lon="4.7607">
        <ele>205</ele>
        <time>2017-03-17T10:03:57Z</time>
      </trkpt>
      <trkpt lat="46.01257" lon="4.76069">
        <ele>204</ele>
        <time>2017-03-17T10:03:58Z</time>
      </trkpt>
      <trkpt lat="46.01265" lon="4.76068">
        <ele>204</ele>
        <time>2017-03-17T10:03:59Z</time>
      </trkpt>
      <trkpt lat="46.01273" lon="4.76067">
        <ele>204</ele>
        <time>2017-03-17T10:04:00Z</time>
      </trkpt>
      <trkpt lat="46.01281" lon="4.76065">
        <ele>204</ele>
        <time>2017-03-17T10:04:01Z</time>
      </trkpt>
      <trkpt lat="46.01289" lon="4.76062">
        <ele>204</ele>
        <time>2017-03-17T10:04:02Z</time>
      </trkpt>
      <trkpt lat="46.01297" lon="4.7606">
        <ele>204</ele>
        <time>2017-03-17T10:04:03Z</time>
      </trkpt>
      <trkpt lat="46.01305" lon="4.76057">
        <ele>203</ele>
        <time>2017-03-17T10:04:04Z</time>
      </trkpt>
      <trkpt lat="46.01312" lon="4.76055">
        <ele>203</ele>
        <time>2017-03-17T10:04:05Z</time>
      </trkpt>
      <trkpt lat="46.0132" lon="4.76053">
        <ele>203</ele>
        <time>2017-03-17T10:04:06Z</time>
      </trkpt>
      <trkpt lat="46.01327" lon="4.76051">
        <ele>203</ele>
        <time>2017-03-17T10:04:07Z</time>
      </trkpt>
      <trkpt lat="46.01334" lon="4.7605">
        <ele>203</ele>
        <time>2017-03-17T10:04:08Z</time>
      </trkpt>
      <trkpt lat="46.01342" lon="4.76048">
        <ele>203</ele>
        <time>2017-03-17T10:04:09Z</time>
      </trkpt>
      <trkpt lat="46.01349" lon="4.76046">
        <ele>203</ele>
        <time>2017-03-17T10:04:10Z</time>
      </trkpt>
      <trkpt lat="46.01356" lon="4.76044">
        <ele>203</ele>
        <time>2017-03-17T10:04:11Z</time>
      </trkpt>
      <trkpt lat="46.01363" lon="4.76042">
        <ele>203</ele>
        <time>2017-03-17T10:04:12Z</time>
      </trkpt>
      <trkpt lat="46.01369" lon="4.7604">
        <ele>203</ele>
        <time>2017-03-17T10:04:13Z</time>
      </trkpt>
      <trkpt lat="46.01376" lon="4.76039">
        <ele>203</ele>
        <time>2017-03-17T10:04:14Z</time>
      </trkpt>
      <trkpt lat="46.01383" lon="4.76038">
        <ele>203</ele>
        <time>2017-03-17T10:04:15Z</time>
      </trkpt>
      <trkpt lat="46.01389" lon="4.76037">
        <ele>203</ele>
        <time>2017-03-17T10:04:16Z</time>
      </trkpt>
      <trkpt lat="46.01396" lon="4.76038">
        <ele>203</ele>
        <time>2017-03-17T10:04:17Z</time>
      </trkpt>
      <trkpt lat="46.01403" lon="4.76039">
        <ele>204</ele>
        <time>2017-03-17T10:04:18Z</time>
      </trkpt>
      <trkpt lat="46.01409" lon="4.76042">
        <ele>204</ele>
        <time>2017-03-17T10:04:19Z</time>
      </trkpt>
      <trkpt lat="46.01415" lon="4.76045">
        <ele>203</ele>
        <time>2017-03-17T10:04:20Z</time>
      </trkpt>
      <trkpt lat="46.01421" lon="4.76049">
        <ele>204</ele>
        <time>2017-03-17T10:04:21Z</time>
      </trkpt>
      <trkpt lat="46.01426" lon="4.76053">
        <ele>204</ele>
        <time>2017-03-17T10:04:22Z</time>
      </trkpt>
      <trkpt lat="46.01432" lon="4.76057">
        <ele>203</ele>
        <time>2017-03-17T10:04:23Z</time>
      </trkpt>
      <trkpt lat="46.01437" lon="4.76061">
        <ele>203</ele>
        <time>2017-03-17T10:04:24Z</time>
      </trkpt>
      <trkpt lat="46.01443" lon="4.76064">
        <ele>203</ele>
        <time>2017-03-17T10:04:25Z</time>
      </trkpt>
      <trkpt lat="46.01448" lon="4.76066">
        <ele>203</ele>
        <time>2017-03-17T10:04:26Z</time>
      </trkpt>
      <trkpt lat="46.01453" lon="4.76069">
        <ele>203</ele>
        <time>2017-03-17T10:04:27Z</time>
      </trkpt>
      <trkpt lat="46.01459" lon="4.7607">
        <ele>203</ele>
        <time>2017-03-17T10:04:28Z</time>
      </trkpt>
      <trkpt lat="46.01464" lon="4.76071">
        <ele>203</ele>
        <time>2017-03-17T10:04:29Z</time>
      </trkpt>
      <trkpt lat="46.0147" lon="4.76073">
        <ele>203</ele>
        <time>2017-03-17T10:04:30Z</time>
      </trkpt>
      <trkpt lat="46.01476" lon="4.76074">
        <ele>203</ele>
        <time>2017-03-17T10:04:31Z</time>
      </trkpt>
      <trkpt lat="46.01482" lon="4.76076">
        <ele>203</ele>
        <time>2017-03-17T10:04:32Z</time>
      </trkpt>
      <trkpt lat="46.01487" lon="4.76078">
        <ele>203</ele>
        <time>2017-03-17T10:04:33Z</time>
      </trkpt>
      <trkpt lat="46.01492" lon="4.7608">
        <ele>203</ele>
        <time>2017-03-17T10:04:34Z</time>
      </trkpt>
      <trkpt lat="46.01498" lon="4.76082">
        <ele>203</ele>
        <time>2017-03-17T10:04:35Z</time>
      </trkpt>
      <trkpt lat="46.01504" lon="4.76084">
        <ele>203</ele>
        <time>2017-03-17T10:04:36Z</time>
      </trkpt>
      <trkpt lat="46.01509" lon="4.76085">
        <ele>203</ele>
        <time>2017-03-17T10:04:37Z</time>
      </trkpt>
      <trkpt lat="46.01515" lon="4.76086">
        <ele>203</ele>
        <time>2017-03-17T10:04:38Z</time>
      </trkpt>
      <trkpt lat="46.0152" lon="4.76087">
        <ele>203</ele>
        <time>2017-03-17T10:04:39Z</time>
      </trkpt>
      <trkpt lat="46.01526" lon="4.76088">
        <ele>202</ele>
        <time>2017-03-17T10:04:40Z</time>
      </trkpt>
      <trkpt lat="46.01532" lon="4.76091">
        <ele>202</ele>
        <time>2017-03-17T10:04:41Z</time>
      </trkpt>
      <trkpt lat="46.01538" lon="4.76093">
        <ele>202</ele>
        <time>2017-03-17T10:04:42Z</time>
      </trkpt>
      <trkpt lat="46.01544" lon="4.76095">
        <ele>202</ele>
        <time>2017-03-17T10:04:43Z</time>
      </trkpt>
      <trkpt lat="46.0155" lon="4.76098">
        <ele>202</ele>
        <time>2017-03-17T10:04:44Z</time>
      </trkpt>
      <trkpt lat="46.01556" lon="4.761">
        <ele>202</ele>
        <time>2017-03-17T10:04:45Z</time>
      </trkpt>
      <trkpt lat="46.01562" lon="4.76102">
        <ele>202</ele>
        <time>2017-03-17T10:04:46Z</time>
      </trkpt>
      <trkpt lat="46.01567" lon="4.76104">
        <ele>202</ele>
        <time>2017-03-17T10:04:47Z</time>
      </trkpt>
      <trkpt lat="46.01573" lon="4.76106">
        <ele>202</ele>
        <time>2017-03-17T10:04:48Z</time>
      </trkpt>
      <trkpt lat="46.01578" lon="4.76108">
        <ele>202</ele>
        <time>2017-03-17T10:04:49Z</time>
      </trkpt>
      <trkpt lat="46.01584" lon="4.7611">
        <ele>200</ele>
        <time>2017-03-17T10:04:50Z</time>
      </trkpt>
      <trkpt lat="46.0159" lon="4.76111">
        <ele>200</ele>
        <time>2017-03-17T10:04:51Z</time>
      </trkpt>
      <trkpt lat="46.01596" lon="4.76111">
        <ele>200</ele>
        <time>2017-03-17T10:04:52Z</time>
      </trkpt>
      <trkpt lat="46.01603" lon="4.76111">
        <ele>200</ele>
        <time>2017-03-17T10:04:53Z</time>
      </trkpt>
      <trkpt lat="46.01609" lon="4.76112">
        <ele>200</ele>
        <time>2017-03-17T10:04:54Z</time>
      </trkpt>
      <trkpt lat="46.01616" lon="4.76113">
        <ele>200</ele>
        <time>2017-03-17T10:04:55Z</time>
      </trkpt>
      <trkpt lat="46.01622" lon="4.76114">
        <ele>200</ele>
        <time>2017-03-17T10:04:56Z</time>
      </trkpt>
      <trkpt lat="46.01629" lon="4.76114">
        <ele>199</ele>
        <time>2017-03-17T10:04:57Z</time>
      </trkpt>
      <trkpt lat="46.01635" lon="4.76115">
        <ele>199</ele>
        <time>2017-03-17T10:04:58Z</time>
      </trkpt>
      <trkpt lat="46.01642" lon="4.76116">
        <ele>199</ele>
        <time>2017-03-17T10:04:59Z</time>
      </trkpt>
      <trkpt lat="46.01649" lon="4.76118">
        <ele>199</ele>
        <time>2017-03-17T10:05:00Z</time>
      </trkpt>
      <trkpt lat="46.01655" lon="4.76118">
        <ele>199</ele>
        <time>2017-03-17T10:05:01Z</time>
      </trkpt>
      <trkpt lat="46.01661" lon="4.76118">
        <ele>199</ele>
        <time>2017-03-17T10:05:02Z</time>
      </trkpt>
      <trkpt lat="46.01668" lon="4.76117">
        <ele>198</ele>
        <time>2017-03-17T10:05:03Z</time>
      </trkpt>
      <trkpt lat="46.01674" lon="4.76118">
        <ele>198</ele>
        <time>2017-03-17T10:05:04Z</time>
      </trkpt>
      <trkpt lat="46.01681" lon="4.76119">
        <ele>198</ele>
        <time>2017-03-17T10:05:05Z</time>
      </trkpt>
      <trkpt lat="46.01687" lon="4.7612">
        <ele>198</ele>
        <time>2017-03-17T10:05:06Z</time>
      </trkpt>
      <trkpt lat="46.01693" lon="4.76121">
        <ele>198</ele>
        <time>2017-03-17T10:05:07Z</time>
      </trkpt>
      <trkpt lat="46.01699" lon="4.76122">
        <ele>198</ele>
        <time>2017-03-17T10:05:08Z</time>
      </trkpt>
      <trkpt lat="46.01705" lon="4.76123">
        <ele>198</ele>
        <time>2017-03-17T10:05:09Z</time>
      </trkpt>
      <trkpt lat="46.01712" lon="4.76123">
        <ele>197</ele>
        <time>2017-03-17T10:05:10Z</time>
      </trkpt>
      <trkpt lat="46.01718" lon="4.76124">
        <ele>197</ele>
        <time>2017-03-17T10:05:11Z</time>
      </trkpt>
      <trkpt lat="46.01725" lon="4.76124">
        <ele>197</ele>
        <time>2017-03-17T10:05:12Z</time>
      </trkpt>
      <trkpt lat="46.01732" lon="4.76125">
        <ele>197</ele>
        <time>2017-03-17T10:05:13Z</time>
      </trkpt>
      <trkpt lat="46.01738" lon="4.76125">
        <ele>197</ele>
        <time>2017-03-17T10:05:14Z</time>
      </trkpt>
      <trkpt lat="46.01744" lon="4.76126">
        <ele>197</ele>
        <time>2017-03-17T10:05:15Z</time>
      </trkpt>
      <trkpt lat="46.0175" lon="4.76127">
        <ele>198</ele>
        <time>2017-03-17T10:05:16Z</time>
      </trkpt>
      <trkpt lat="46.01757" lon="4.76129">
        <ele>198</ele>
        <time>2017-03-17T10:05:17Z</time>
      </trkpt>
      <trkpt lat="46.01763" lon="4.76129">
        <ele>198</ele>
        <time>2017-03-17T10:05:18Z</time>
      </trkpt>
      <trkpt lat="46.0177" lon="4.7613">
        <ele>198</ele>
        <time>2017-03-17T10:05:19Z</time>
      </trkpt>
      <trkpt lat="46.01776" lon="4.7613">
        <ele>198</ele>
        <time>2017-03-17T10:05:20Z</time>
      </trkpt>
      <trkpt lat="46.01782" lon="4.76131">
        <ele>198</ele>
        <time>2017-03-17T10:05:21Z</time>
      </trkpt>
      <trkpt lat="46.01788" lon="4.76132">
        <ele>198</ele>
        <time>2017-03-17T10:05:22Z</time>
      </trkpt>
      <trkpt lat="46.01794" lon="4.76133">
        <ele>198</ele>
        <time>2017-03-17T10:05:23Z</time>
      </trkpt>
      <trkpt lat="46.018" lon="4.76133">
        <ele>198</ele>
        <time>2017-03-17T10:05:24Z</time>
      </trkpt>
      <trkpt lat="46.01805" lon="4.76134">
        <ele>198</ele>
        <time>2017-03-17T10:05:25Z</time>
      </trkpt>
      <trkpt lat="46.01811" lon="4.76135">
        <ele>198</ele>
        <time>2017-03-17T10:05:26Z</time>
      </trkpt>
      <trkpt lat="46.01817" lon="4.76136">
        <ele>198</ele>
        <time>2017-03-17T10:05:27Z</time>
      </trkpt>
      <trkpt lat="46.01822" lon="4.76136">
        <ele>198</ele>
        <time>2017-03-17T10:05:28Z</time>
      </trkpt>
      <trkpt lat="46.01828" lon="4.76136">
        <ele>198</ele>
        <time>2017-03-17T10:05:29Z</time>
      </trkpt>
      <trkpt lat="46.01834" lon="4.76136">
        <ele>199</ele>
        <time>2017-03-17T10:05:30Z</time>
      </trkpt>
      <trkpt lat="46.0184" lon="4.76136">
        <ele>199</ele>
        <time>2017-03-17T10:05:31Z</time>
      </trkpt>
      <trkpt lat="46.01846" lon="4.76136">
        <ele>199</ele>
        <time>2017-03-17T10:05:32Z</time>
      </trkpt>
      <trkpt lat="46.01851" lon="4.76136">
        <ele>199</ele>
        <time>2017-03-17T10:05:33Z</time>
      </trkpt>
      <trkpt lat="46.01857" lon="4.76137">
        <ele>199</ele>
        <time>2017-03-17T10:05:34Z</time>
      </trkpt>
      <trkpt lat="46.01863" lon="4.76137">
        <ele>199</ele>
        <time>2017-03-17T10:05:35Z</time>
      </trkpt>
      <trkpt lat="46.01868" lon="4.76137">
        <ele>199</ele>
        <time>2017-03-17T10:05:36Z</time>
      </trkpt>
      <trkpt lat="46.01873" lon="4.76136">
        <ele>199</ele>
        <time>2017-03-17T10:05:37Z</time>
      </trkpt>
      <trkpt lat="46.01878" lon="4.76135">
        <ele>199</ele>
        <time>2017-03-17T10:05:38Z</time>
      </trkpt>
      <trkpt lat="46.01884" lon="4.76134">
        <ele>199</ele>
        <time>2017-03-17T10:05:39Z</time>
      </trkpt>
      <trkpt lat="46.0189" lon="4.76133">
        <ele>199</ele>
        <time>2017-03-17T10:05:40Z</time>
      </trkpt>
      <trkpt lat="46.01895" lon="4.76131">
        <ele>199</ele>
        <time>2017-03-17T10:05:41Z</time>
      </trkpt>
      <trkpt lat="46.01901" lon="4.7613">
        <ele>199</ele>
        <time>2017-03-17T10:05:42Z</time>
      </trkpt>
      <trkpt lat="46.01907" lon="4.76129">
        <ele>199</ele>
        <time>2017-03-17T10:05:43Z</time>
      </trkpt>
      <trkpt lat="46.01912" lon="4.76128">
        <ele>199</ele>
        <time>2017-03-17T10:05:44Z</time>
      </trkpt>
      <trkpt lat="46.01918" lon="4.76126">
        <ele>199</ele>
        <time>2017-03-17T10:05:45Z</time>
      </trkpt>
      <trkpt lat="46.01923" lon="4.76125">
        <ele>198</ele>
        <time>2017-03-17T10:05:46Z</time>
      </trkpt>
      <trkpt lat="46.01928" lon="4.76123">
        <ele>198</ele>
        <time>2017-03-17T10:05:47Z</time>
      </trkpt>
      <trkpt lat="46.01934" lon="4.76122">
        <ele>198</ele>
        <time>2017-03-17T10:05:48Z</time>
      </trkpt>
      <trkpt lat="46.01939" lon="4.7612">
        <ele>198</ele>
        <time>2017-03-17T10:05:49Z</time>
      </trkpt>
      <trkpt lat="46.01944" lon="4.76119">
        <ele>198</ele>
        <time>2017-03-17T10:05:50Z</time>
      </trkpt>
      <trkpt lat="46.01949" lon="4.76117">
        <ele>198</ele>
        <time>2017-03-17T10:05:51Z</time>
      </trkpt>
      <trkpt lat="46.01953" lon="4.76115">
        <ele>198</ele>
        <time>2017-03-17T10:05:52Z</time>
      </trkpt>
      <trkpt lat="46.01958" lon="4.76113">
        <ele>198</ele>
        <time>2017-03-17T10:05:53Z</time>
      </trkpt>
      <trkpt lat="46.01963" lon="4.76112">
        <ele>198</ele>
        <time>2017-03-17T10:05:54Z</time>
      </trkpt>
      <trkpt lat="46.01967" lon="4.76111">
        <ele>198</ele>
        <time>2017-03-17T10:05:55Z</time>
      </trkpt>
      <trkpt lat="46.01972" lon="4.7611">
        <ele>198</ele>
        <time>2017-03-17T10:05:56Z</time>
      </trkpt>
      <trkpt lat="46.01977" lon="4.76108">
        <ele>198</ele>
        <time>2017-03-17T10:05:57Z</time>
      </trkpt>
      <trkpt lat="46.01981" lon="4.76107">
        <ele>198</ele>
        <time>2017-03-17T10:05:58Z</time>
      </trkpt>
      <trkpt lat="46.01986" lon="4.76107">
        <ele>198</ele>
        <time>2017-03-17T10:05:59Z</time>
      </trkpt>
      <trkpt lat="46.01991" lon="4.76106">
        <ele>198</ele>
        <time>2017-03-17T10:06:00Z</time>
      </trkpt>
      <trkpt lat="46.01996" lon="4.76105">
        <ele>198</ele>
        <time>2017-03-17T10:06:01Z</time>
      </trkpt>
      <trkpt lat="46.02001" lon="4.76104">
        <ele>197</ele>
        <time>2017-03-17T10:06:02Z</time>
      </trkpt>
      <trkpt lat="46.02006" lon="4.76102">
        <ele>197</ele>
        <time>2017-03-17T10:06:03Z</time>
      </trkpt>
      <trkpt lat="46.02012" lon="4.761">
        <ele>197</ele>
        <time>2017-03-17T10:06:04Z</time>
      </trkpt>
      <trkpt lat="46.02018" lon="4.76098">
        <ele>197</ele>
        <time>2017-03-17T10:06:05Z</time>
      </trkpt>
      <trkpt lat="46.02024" lon="4.76097">
        <ele>197</ele>
        <time>2017-03-17T10:06:06Z</time>
      </trkpt>
      <trkpt lat="46.02031" lon="4.76095">
        <ele>197</ele>
        <time>2017-03-17T10:06:07Z</time>
      </trkpt>
      <trkpt lat="46.02037" lon="4.76093">
        <ele>197</ele>
        <time>2017-03-17T10:06:08Z</time>
      </trkpt>
      <trkpt lat="46.02044" lon="4.76091">
        <ele>197</ele>
        <time>2017-03-17T10:06:09Z</time>
      </trkpt>
      <trkpt lat="46.0205" lon="4.76089">
        <ele>197</ele>
        <time>2017-03-17T10:06:10Z</time>
      </trkpt>
      <trkpt lat="46.02057" lon="4.76087">
        <ele>197</ele>
        <time>2017-03-17T10:06:11Z</time>
      </trkpt>
      <trkpt lat="46.02062" lon="4.76085">
        <ele>197</ele>
        <time>2017-03-17T10:06:12Z</time>
      </trkpt>
      <trkpt lat="46.02069" lon="4.76083">
        <ele>196</ele>
        <time>2017-03-17T10:06:13Z</time>
      </trkpt>
      <trkpt lat="46.02076" lon="4.76081">
        <ele>196</ele>
        <time>2017-03-17T10:06:14Z</time>
      </trkpt>
      <trkpt lat="46.02083" lon="4.76078">
        <ele>196</ele>
        <time>2017-03-17T10:06:15Z</time>
      </trkpt>
      <trkpt lat="46.0209" lon="4.76074">
        <ele>195</ele>
        <time>2017-03-17T10:06:16Z</time>
      </trkpt>
      <trkpt lat="46.02097" lon="4.7607">
        <ele>195</ele>
        <time>2017-03-17T10:06:17Z</time>
      </trkpt>
      <trkpt lat="46.02103" lon="4.76065">
        <ele>194</ele>
        <time>2017-03-17T10:06:18Z</time>
      </trkpt>
      <trkpt lat="46.02109" lon="4.76061">
        <ele>194</ele>
        <time>2017-03-17T10:06:19Z</time>
      </trkpt>
      <trkpt lat="46.02115" lon="4.76057">
        <ele>194</ele>
        <time>2017-03-17T10:06:20Z</time>
      </trkpt>
      <trkpt lat="46.02121" lon="4.76052">
        <ele>194</ele>
        <time>2017-03-17T10:06:21Z</time>
      </trkpt>
      <trkpt lat="46.02125" lon="4.76047">
        <ele>194</ele>
        <time>2017-03-17T10:06:22Z</time>
      </trkpt>
      <trkpt lat="46.02129" lon="4.76042">
        <ele>193</ele>
        <time>2017-03-17T10:06:23Z</time>
      </trkpt>
      <trkpt lat="46.02133" lon="4.76037">
        <ele>193</ele>
        <time>2017-03-17T10:06:24Z</time>
      </trkpt>
      <trkpt lat="46.02136" lon="4.76033">
        <ele>193</ele>
        <time>2017-03-17T10:06:25Z</time>
      </trkpt>
      <trkpt lat="46.02142" lon="4.76026">
        <ele>193</ele>
        <time>2017-03-17T10:06:27Z</time>
      </trkpt>
      <trkpt lat="46.02145" lon="4.76024">
        <ele>193</ele>
        <time>2017-03-17T10:06:28Z</time>
      </trkpt>
      <trkpt lat="46.02151" lon="4.76019">
        <ele>193</ele>
        <time>2017-03-17T10:06:30Z</time>
      </trkpt>
      <trkpt lat="46.02154" lon="4.76016">
        <ele>193</ele>
        <time>2017-03-17T10:06:31Z</time>
      </trkpt>
      <trkpt lat="46.02159" lon="4.7601">
        <ele>193</ele>
        <time>2017-03-17T10:06:33Z</time>
      </trkpt>
      <trkpt lat="46.02162" lon="4.76007">
        <ele>192</ele>
        <time>2017-03-17T10:06:34Z</time>
      </trkpt>
      <trkpt lat="46.0217" lon="4.76002">
        <ele>192</ele>
        <time>2017-03-17T10:06:36Z</time>
      </trkpt>
      <trkpt lat="46.02174" lon="4.76">
        <ele>192</ele>
        <time>2017-03-17T10:06:37Z</time>
      </trkpt>
      <trkpt lat="46.02179" lon="4.75997">
        <ele>192</ele>
        <time>2017-03-17T10:06:38Z</time>
      </trkpt>
      <trkpt lat="46.02184" lon="4.75995">
        <ele>192</ele>
        <time>2017-03-17T10:06:39Z</time>
      </trkpt>
      <trkpt lat="46.0219" lon="4.75992">
        <ele>192</ele>
        <time>2017-03-17T10:06:40Z</time>
      </trkpt>
      <trkpt lat="46.02195" lon="4.75988">
        <ele>192</ele>
        <time>2017-03-17T10:06:41Z</time>
      </trkpt>
      <trkpt lat="46.022" lon="4.75983">
        <ele>192</ele>
        <time>2017-03-17T10:06:42Z</time>
      </trkpt>
      <trkpt lat="46.02205" lon="4.75978">
        <ele>192</ele>
        <time>2017-03-17T10:06:43Z</time>
      </trkpt>
      <trkpt lat="46.02209" lon="4.75972">
        <ele>192</ele>
        <time>2017-03-17T10:06:44Z</time>
      </trkpt>
      <trkpt lat="46.02214" lon="4.75967">
        <ele>192</ele>
        <time>2017-03-17T10:06:45Z</time>
      </trkpt>
      <trkpt lat="46.02219" lon="4.75963">
        <ele>193</ele>
        <time>2017-03-17T10:06:46Z</time>
      </trkpt>
      <trkpt lat="46.02223" lon="4.75959">
        <ele>193</ele>
        <time>2017-03-17T10:06:47Z</time>
      </trkpt>
      <trkpt lat="46.02228" lon="4.75956">
        <ele>193</ele>
        <time>2017-03-17T10:06:48Z</time>
      </trkpt>
      <trkpt lat="46.02232" lon="4.75952">
        <ele>193</ele>
        <time>2017-03-17T10:06:49Z</time>
      </trkpt>
      <trkpt lat="46.02237" lon="4.75949">
        <ele>193</ele>
        <time>2017-03-17T10:06:50Z</time>
      </trkpt>
      <trkpt lat="46.02241" lon="4.75945">
        <ele>193</ele>
        <time>2017-03-17T10:06:51Z</time>
      </trkpt>
      <trkpt lat="46.02245" lon="4.75941">
        <ele>193</ele>
        <time>2017-03-17T10:06:52Z</time>
      </trkpt>
      <trkpt lat="46.02249" lon="4.75937">
        <ele>193</ele>
        <time>2017-03-17T10:06:53Z</time>
      </trkpt>
      <trkpt lat="46.02252" lon="4.75932">
        <ele>193</ele>
        <time>2017-03-17T10:06:54Z</time>
      </trkpt>
      <trkpt lat="46.02257" lon="4.75928">
        <ele>193</ele>
        <time>2017-03-17T10:06:55Z</time>
      </trkpt>
      <trkpt lat="46.02262" lon="4.75925">
        <ele>193</ele>
        <time>2017-03-17T10:06:56Z</time>
      </trkpt>
      <trkpt lat="46.02267" lon="4.75922">
        <ele>193</ele>
        <time>2017-03-17T10:06:57Z</time>
      </trkpt>
      <trkpt lat="46.02272" lon="4.75919">
        <ele>193</ele>
        <time>2017-03-17T10:06:58Z</time>
      </trkpt>
      <trkpt lat="46.02277" lon="4.75915">
        <ele>193</ele>
        <time>2017-03-17T10:06:59Z</time>
      </trkpt>
      <trkpt lat="46.02282" lon="4.75911">
        <ele>193</ele>
        <time>2017-03-17T10:07:00Z</time>
      </trkpt>
      <trkpt lat="46.02287" lon="4.75906">
        <ele>193</ele>
        <time>2017-03-17T10:07:01Z</time>
      </trkpt>
      <trkpt lat="46.02292" lon="4.75902">
        <ele>193</ele>
        <time>2017-03-17T10:07:02Z</time>
      </trkpt>
      <trkpt lat="46.02297" lon="4.75897">
        <ele>193</ele>
        <time>2017-03-17T10:07:03Z</time>
      </trkpt>
      <trkpt lat="46.02302" lon="4.75893">
        <ele>193</ele>
        <time>2017-03-17T10:07:04Z</time>
      </trkpt>
      <trkpt lat="46.02307" lon="4.75888">
        <ele>193</ele>
        <time>2017-03-17T10:07:05Z</time>
      </trkpt>
      <trkpt lat="46.02312" lon="4.75883">
        <ele>193</ele>
        <time>2017-03-17T10:07:06Z</time>
      </trkpt>
      <trkpt lat="46.02317" lon="4.75877">
        <ele>193</ele>
        <time>2017-03-17T10:07:07Z</time>
      </trkpt>
      <trkpt lat="46.02322" lon="4.75873">
        <ele>193</ele>
        <time>2017-03-17T10:07:08Z</time>
      </trkpt>
      <trkpt lat="46.02327" lon="4.75868">
        <ele>193</ele>
        <time>2017-03-17T10:07:09Z</time>
      </trkpt>
      <trkpt lat="46.02331" lon="4.75864">
        <ele>193</ele>
        <time>2017-03-17T10:07:10Z</time>
      </trkpt>
      <trkpt lat="46.02336" lon="4.7586">
        <ele>193</ele>
        <time>2017-03-17T10:07:11Z</time>
      </trkpt>
      <trkpt lat="46.0234" lon="4.75856">
        <ele>193</ele>
        <time>2017-03-17T10:07:12Z</time>
      </trkpt>
      <trkpt lat="46.02344" lon="4.75852">
        <ele>193</ele>
        <time>2017-03-17T10:07:13Z</time>
      </trkpt>
      <trkpt lat="46.02348" lon="4.75848">
        <ele>193</ele>
        <time>2017-03-17T10:07:14Z</time>
      </trkpt>
      <trkpt lat="46.02352" lon="4.75845">
        <ele>193</ele>
        <time>2017-03-17T10:07:15Z</time>
      </trkpt>
      <trkpt lat="46.02357" lon="4.75842">
        <ele>193</ele>
        <time>2017-03-17T10:07:16Z</time>
      </trkpt>
      <trkpt lat="46.02361" lon="4.75838">
        <ele>193</ele>
        <time>2017-03-17T10:07:17Z</time>
      </trkpt>
      <trkpt lat="46.02366" lon="4.75835">
        <ele>193</ele>
        <time>2017-03-17T10:07:18Z</time>
      </trkpt>
      <trkpt lat="46.0237" lon="4.75831">
        <ele>192</ele>
        <time>2017-03-17T10:07:19Z</time>
      </trkpt>
      <trkpt lat="46.02375" lon="4.75827">
        <ele>192</ele>
        <time>2017-03-17T10:07:20Z</time>
      </trkpt>
      <trkpt lat="46.0238" lon="4.75823">
        <ele>192</ele>
        <time>2017-03-17T10:07:21Z</time>
      </trkpt>
      <trkpt lat="46.02385" lon="4.75819">
        <ele>192</ele>
        <time>2017-03-17T10:07:22Z</time>
      </trkpt>
      <trkpt lat="46.0239" lon="4.75815">
        <ele>192</ele>
        <time>2017-03-17T10:07:23Z</time>
      </trkpt>
      <trkpt lat="46.02395" lon="4.75811">
        <ele>192</ele>
        <time>2017-03-17T10:07:24Z</time>
      </trkpt>
      <trkpt lat="46.024" lon="4.75807">
        <ele>192</ele>
        <time>2017-03-17T10:07:25Z</time>
      </trkpt>
      <trkpt lat="46.02405" lon="4.75803">
        <ele>192</ele>
        <time>2017-03-17T10:07:26Z</time>
      </trkpt>
      <trkpt lat="46.02411" lon="4.75799">
        <ele>192</ele>
        <time>2017-03-17T10:07:27Z</time>
      </trkpt>
      <trkpt lat="46.02417" lon="4.75796">
        <ele>192</ele>
        <time>2017-03-17T10:07:28Z</time>
      </trkpt>
      <trkpt lat="46.02422" lon="4.75793">
        <ele>192</ele>
        <time>2017-03-17T10:07:29Z</time>
      </trkpt>
      <trkpt lat="46.02428" lon="4.75789">
        <ele>191</ele>
        <time>2017-03-17T10:07:30Z</time>
      </trkpt>
      <trkpt lat="46.02434" lon="4.75787">
        <ele>191</ele>
        <time>2017-03-17T10:07:31Z</time>
      </trkpt>
      <trkpt lat="46.0244" lon="4.75783">
        <ele>191</ele>
        <time>2017-03-17T10:07:32Z</time>
      </trkpt>
      <trkpt lat="46.02446" lon="4.7578">
        <ele>191</ele>
        <time>2017-03-17T10:07:33Z</time>
      </trkpt>
      <trkpt lat="46.02453" lon="4.75776">
        <ele>191</ele>
        <time>2017-03-17T10:07:34Z</time>
      </trkpt>
      <trkpt lat="46.02459" lon="4.75773">
        <ele>191</ele>
        <time>2017-03-17T10:07:35Z</time>
      </trkpt>
      <trkpt lat="46.02466" lon="4.7577">
        <ele>191</ele>
        <time>2017-03-17T10:07:36Z</time>
      </trkpt>
      <trkpt lat="46.02473" lon="4.75766">
        <ele>191</ele>
        <time>2017-03-17T10:07:37Z</time>
      </trkpt>
      <trkpt lat="46.0248" lon="4.75763">
        <ele>191</ele>
        <time>2017-03-17T10:07:38Z</time>
      </trkpt>
      <trkpt lat="46.02488" lon="4.7576">
        <ele>190</ele>
        <time>2017-03-17T10:07:39Z</time>
      </trkpt>
      <trkpt lat="46.02495" lon="4.75757">
        <ele>190</ele>
        <time>2017-03-17T10:07:40Z</time>
      </trkpt>
      <trkpt lat="46.02504" lon="4.75753">
        <ele>189</ele>
        <time>2017-03-17T10:07:41Z</time>
      </trkpt>
      <trkpt lat="46.02512" lon="4.7575">
        <ele>188</ele>
        <time>2017-03-17T10:07:42Z</time>
      </trkpt>
      <trkpt lat="46.02521" lon="4.75747">
        <ele>188</ele>
        <time>2017-03-17T10:07:43Z</time>
      </trkpt>
      <trkpt lat="46.0253" lon="4.75744">
        <ele>187</ele>
        <time>2017-03-17T10:07:44Z</time>
      </trkpt>
      <trkpt lat="46.0254" lon="4.75743">
        <ele>186</ele>
        <time>2017-03-17T10:07:45Z</time>
      </trkpt>
      <trkpt lat="46.0255" lon="4.75742">
        <ele>186</ele>
        <time>2017-03-17T10:07:46Z</time>
      </trkpt>
      <trkpt lat="46.0256" lon="4.75743">
        <ele>185</ele>
        <time>2017-03-17T10:07:47Z</time>
      </trkpt>
      <trkpt lat="46.02571" lon="4.75743">
        <ele>185</ele>
        <time>2017-03-17T10:07:48Z</time>
      </trkpt>
      <trkpt lat="46.02581" lon="4.75744">
        <ele>184</ele>
        <time>2017-03-17T10:07:49Z</time>
      </trkpt>
      <trkpt lat="46.02592" lon="4.75745">
        <ele>183</ele>
        <time>2017-03-17T10:07:50Z</time>
      </trkpt>
      <trkpt lat="46.02603" lon="4.75746">
        <ele>183</ele>
        <time>2017-03-17T10:07:51Z</time>
      </trkpt>
      <trkpt lat="46.02614" lon="4.75746">
        <ele>182</ele>
        <time>2017-03-17T10:07:52Z</time>
      </trkpt>
      <trkpt lat="46.02626" lon="4.75747">
        <ele>182</ele>
        <time>2017-03-17T10:07:53Z</time>
      </trkpt>
      <trkpt lat="46.02637" lon="4.75747">
        <ele>182</ele>
        <time>2017-03-17T10:07:54Z</time>
      </trkpt>
      <trkpt lat="46.02649" lon="4.75747">
        <ele>182</ele>
        <time>2017-03-17T10:07:55Z</time>
      </trkpt>
      <trkpt lat="46.02661" lon="4.75746">
        <ele>181</ele>
        <time>2017-03-17T10:07:56Z</time>
      </trkpt>
      <trkpt lat="46.02673" lon="4.75744">
        <ele>181</ele>
        <time>2017-03-17T10:07:57Z</time>
      </trkpt>
      <trkpt lat="46.02684" lon="4.75742">
        <ele>181</ele>
        <time>2017-03-17T10:07:58Z</time>
      </trkpt>
      <trkpt lat="46.02695" lon="4.75739">
        <ele>182</ele>
        <time>2017-03-17T10:07:59Z</time>
      </trkpt>
      <trkpt lat="46.02705" lon="4.75734">
        <ele>182</ele>
        <time>2017-03-17T10:08:00Z</time>
      </trkpt>
      <trkpt lat="46.02716" lon="4.75729">
        <ele>182</ele>
        <time>2017-03-17T10:08:01Z</time>
      </trkpt>
      <trkpt lat="46.02725" lon="4.75725">
        <ele>182</ele>
        <time>2017-03-17T10:08:02Z</time>
      </trkpt>
      <trkpt lat="46.02735" lon="4.75721">
        <ele>182</ele>
        <time>2017-03-17T10:08:03Z</time>
      </trkpt>
      <trkpt lat="46.02745" lon="4.75719">
        <ele>183</ele>
        <time>2017-03-17T10:08:04Z</time>
      </trkpt>
      <trkpt lat="46.02754" lon="4.75718">
        <ele>183</ele>
        <time>2017-03-17T10:08:05Z</time>
      </trkpt>
      <trkpt lat="46.02763" lon="4.75717">
        <ele>183</ele>
        <time>2017-03-17T10:08:06Z</time>
      </trkpt>
      <trkpt lat="46.02772" lon="4.75717">
        <ele>183</ele>
        <time>2017-03-17T10:08:07Z</time>
      </trkpt>
      <trkpt lat="46.02781" lon="4.75717">
        <ele>183</ele>
        <time>2017-03-17T10:08:08Z</time>
      </trkpt>
      <trkpt lat="46.0279" lon="4.75718">
        <ele>183</ele>
        <time>2017-03-17T10:08:09Z</time>
      </trkpt>
      <trkpt lat="46.02797" lon="4.75719">
        <ele>183</ele>
        <time>2017-03-17T10:08:10Z</time>
      </trkpt>
      <trkpt lat="46.02804" lon="4.7572">
        <ele>183</ele>
        <time>2017-03-17T10:08:11Z</time>
      </trkpt>
      <trkpt lat="46.0281" lon="4.75722">
        <ele>184</ele>
        <time>2017-03-17T10:08:12Z</time>
      </trkpt>
      <trkpt lat="46.02816" lon="4.75723">
        <ele>184</ele>
        <time>2017-03-17T10:08:13Z</time>
      </trkpt>
      <trkpt lat="46.02822" lon="4.75724">
        <ele>184</ele>
        <time>2017-03-17T10:08:14Z</time>
      </trkpt>
      <trkpt lat="46.02828" lon="4.75724">
        <ele>184</ele>
        <time>2017-03-17T10:08:15Z</time>
      </trkpt>
      <trkpt lat="46.02834" lon="4.75724">
        <ele>184</ele>
        <time>2017-03-17T10:08:16Z</time>
      </trkpt>
      <trkpt lat="46.0284" lon="4.75725">
        <ele>184</ele>
        <time>2017-03-17T10:08:17Z</time>
      </trkpt>
      <trkpt lat="46.02845" lon="4.75725">
        <ele>184</ele>
        <time>2017-03-17T10:08:18Z</time>
      </trkpt>
      <trkpt lat="46.02851" lon="4.75725">
        <ele>184</ele>
        <time>2017-03-17T10:08:19Z</time>
      </trkpt>
      <trkpt lat="46.02857" lon="4.75725">
        <ele>184</ele>
        <time>2017-03-17T10:08:20Z</time>
      </trkpt>
      <trkpt lat="46.02863" lon="4.75725">
        <ele>183</ele>
        <time>2017-03-17T10:08:21Z</time>
      </trkpt>
      <trkpt lat="46.02868" lon="4.75725">
        <ele>183</ele>
        <time>2017-03-17T10:08:22Z</time>
      </trkpt>
      <trkpt lat="46.02874" lon="4.75724">
        <ele>183</ele>
        <time>2017-03-17T10:08:23Z</time>
      </trkpt>
      <trkpt lat="46.02879" lon="4.75723">
        <ele>183</ele>
        <time>2017-03-17T10:08:24Z</time>
      </trkpt>
      <trkpt lat="46.02886" lon="4.75722">
        <ele>183</ele>
        <time>2017-03-17T10:08:25Z</time>
      </trkpt>
      <trkpt lat="46.02891" lon="4.75721">
        <ele>183</ele>
        <time>2017-03-17T10:08:26Z</time>
      </trkpt>
      <trkpt lat="46.02896" lon="4.7572">
        <ele>183</ele>
        <time>2017-03-17T10:08:27Z</time>
      </trkpt>
      <trkpt lat="46.02902" lon="4.7572">
        <ele>183</ele>
        <time>2017-03-17T10:08:28Z</time>
      </trkpt>
      <trkpt lat="46.02908" lon="4.75719">
        <ele>183</ele>
        <time>2017-03-17T10:08:29Z</time>
      </trkpt>
      <trkpt lat="46.02914" lon="4.75719">
        <ele>183</ele>
        <time>2017-03-17T10:08:30Z</time>
      </trkpt>
      <trkpt lat="46.0292" lon="4.75718">
        <ele>183</ele>
        <time>2017-03-17T10:08:31Z</time>
      </trkpt>
      <trkpt lat="46.02926" lon="4.75717">
        <ele>183</ele>
        <time>2017-03-17T10:08:32Z</time>
      </trkpt>
      <trkpt lat="46.02931" lon="4.75716">
        <ele>183</ele>
        <time>2017-03-17T10:08:33Z</time>
      </trkpt>
      <trkpt lat="46.02937" lon="4.75714">
        <ele>183</ele>
        <time>2017-03-17T10:08:34Z</time>
      </trkpt>
      <trkpt lat="46.02943" lon="4.75714">
        <ele>183</ele>
        <time>2017-03-17T10:08:35Z</time>
      </trkpt>
      <trkpt lat="46.02948" lon="4.75712">
        <ele>183</ele>
        <time>2017-03-17T10:08:36Z</time>
      </trkpt>
      <trkpt lat="46.02953" lon="4.75712">
        <ele>183</ele>
        <time>2017-03-17T10:08:37Z</time>
      </trkpt>
      <trkpt lat="46.02959" lon="4.75711">
        <ele>183</ele>
        <time>2017-03-17T10:08:38Z</time>
      </trkpt>
      <trkpt lat="46.02964" lon="4.7571">
        <ele>183</ele>
        <time>2017-03-17T10:08:39Z</time>
      </trkpt>
      <trkpt lat="46.02969" lon="4.75709">
        <ele>183</ele>
        <time>2017-03-17T10:08:40Z</time>
      </trkpt>
      <trkpt lat="46.02974" lon="4.75708">
        <ele>183</ele>
        <time>2017-03-17T10:08:41Z</time>
      </trkpt>
      <trkpt lat="46.02979" lon="4.75706">
        <ele>183</ele>
        <time>2017-03-17T10:08:42Z</time>
      </trkpt>
      <trkpt lat="46.02986" lon="4.75706">
        <ele>183</ele>
        <time>2017-03-17T10:08:43Z</time>
      </trkpt>
      <trkpt lat="46.02991" lon="4.75705">
        <ele>183</ele>
        <time>2017-03-17T10:08:44Z</time>
      </trkpt>
      <trkpt lat="46.02997" lon="4.75703">
        <ele>183</ele>
        <time>2017-03-17T10:08:45Z</time>
      </trkpt>
      <trkpt lat="46.03002" lon="4.75702">
        <ele>183</ele>
        <time>2017-03-17T10:08:46Z</time>
      </trkpt>
      <trkpt lat="46.03006" lon="4.75701">
        <ele>183</ele>
        <time>2017-03-17T10:08:47Z</time>
      </trkpt>
      <trkpt lat="46.03011" lon="4.757">
        <ele>183</ele>
        <time>2017-03-17T10:08:48Z</time>
      </trkpt>
      <trkpt lat="46.03016" lon="4.75699">
        <ele>183</ele>
        <time>2017-03-17T10:08:49Z</time>
      </trkpt>
      <trkpt lat="46.0302" lon="4.75697">
        <ele>183</ele>
        <time>2017-03-17T10:08:50Z</time>
      </trkpt>
      <trkpt lat="46.03025" lon="4.75695">
        <ele>183</ele>
        <time>2017-03-17T10:08:51Z</time>
      </trkpt>
      <trkpt lat="46.0303" lon="4.75694">
        <ele>184</ele>
        <time>2017-03-17T10:08:52Z</time>
      </trkpt>
      <trkpt lat="46.03034" lon="4.75693">
        <ele>184</ele>
        <time>2017-03-17T10:08:53Z</time>
      </trkpt>
      <trkpt lat="46.03038" lon="4.75691">
        <ele>184</ele>
        <time>2017-03-17T10:08:54Z</time>
      </trkpt>
      <trkpt lat="46.03043" lon="4.75689">
        <ele>184</ele>
        <time>2017-03-17T10:08:55Z</time>
      </trkpt>
      <trkpt lat="46.03048" lon="4.75687">
        <ele>184</ele>
        <time>2017-03-17T10:08:56Z</time>
      </trkpt>
      <trkpt lat="46.03052" lon="4.75686">
        <ele>184</ele>
        <time>2017-03-17T10:08:57Z</time>
      </trkpt>
      <trkpt lat="46.03057" lon="4.75685">
        <ele>184</ele>
        <time>2017-03-17T10:08:58Z</time>
      </trkpt>
      <trkpt lat="46.03061" lon="4.75684">
        <ele>184</ele>
        <time>2017-03-17T10:08:59Z</time>
      </trkpt>
      <trkpt lat="46.03066" lon="4.75684">
        <ele>184</ele>
        <time>2017-03-17T10:09:00Z</time>
      </trkpt>
      <trkpt lat="46.03071" lon="4.75683">
        <ele>184</ele>
        <time>2017-03-17T10:09:01Z</time>
      </trkpt>
      <trkpt lat="46.03075" lon="4.75683">
        <ele>184</ele>
        <time>2017-03-17T10:09:02Z</time>
      </trkpt>
      <trkpt lat="46.0308" lon="4.75682">
        <ele>184</ele>
        <time>2017-03-17T10:09:03Z</time>
      </trkpt>
      <trkpt lat="46.03085" lon="4.75681">
        <ele>185</ele>
        <time>2017-03-17T10:09:04Z</time>
      </trkpt>
      <trkpt lat="46.03089" lon="4.75681">
        <ele>185</ele>
        <time>2017-03-17T10:09:05Z</time>
      </trkpt>
      <trkpt lat="46.03094" lon="4.75681">
        <ele>185</ele>
        <time>2017-03-17T10:09:06Z</time>
      </trkpt>
      <trkpt lat="46.03099" lon="4.75681">
        <ele>185</ele>
        <time>2017-03-17T10:09:07Z</time>
      </trkpt>
      <trkpt lat="46.03103" lon="4.7568">
        <ele>186</ele>
        <time>2017-03-17T10:09:08Z</time>
      </trkpt>
      <trkpt lat="46.03108" lon="4.7568">
        <ele>186</ele>
        <time>2017-03-17T10:09:09Z</time>
      </trkpt>
      <trkpt lat="46.03112" lon="4.75679">
        <ele>186</ele>
        <time>2017-03-17T10:09:10Z</time>
      </trkpt>
      <trkpt lat="46.03117" lon="4.75678">
        <ele>186</ele>
        <time>2017-03-17T10:09:11Z</time>
      </trkpt>
      <trkpt lat="46.03122" lon="4.75678">
        <ele>186</ele>
        <time>2017-03-17T10:09:12Z</time>
      </trkpt>
      <trkpt lat="46.03127" lon="4.75676">
        <ele>187</ele>
        <time>2017-03-17T10:09:13Z</time>
      </trkpt>
      <trkpt lat="46.03133" lon="4.75676">
        <ele>187</ele>
        <time>2017-03-17T10:09:14Z</time>
      </trkpt>
      <trkpt lat="46.03137" lon="4.75675">
        <ele>187</ele>
        <time>2017-03-17T10:09:15Z</time>
      </trkpt>
      <trkpt lat="46.03142" lon="4.75674">
        <ele>187</ele>
        <time>2017-03-17T10:09:16Z</time>
      </trkpt>
      <trkpt lat="46.03148" lon="4.75674">
        <ele>187</ele>
        <time>2017-03-17T10:09:17Z</time>
      </trkpt>
      <trkpt lat="46.03153" lon="4.75673">
        <ele>187</ele>
        <time>2017-03-17T10:09:18Z</time>
      </trkpt>
      <trkpt lat="46.03157" lon="4.75673">
        <ele>188</ele>
        <time>2017-03-17T10:09:19Z</time>
      </trkpt>
      <trkpt lat="46.03162" lon="4.75672">
        <ele>188</ele>
        <time>2017-03-17T10:09:20Z</time>
      </trkpt>
      <trkpt lat="46.03166" lon="4.75671">
        <ele>188</ele>
        <time>2017-03-17T10:09:21Z</time>
      </trkpt>
      <trkpt lat="46.03171" lon="4.75671">
        <ele>189</ele>
        <time>2017-03-17T10:09:22Z</time>
      </trkpt>
      <trkpt lat="46.03176" lon="4.7567">
        <ele>190</ele>
        <time>2017-03-17T10:09:23Z</time>
      </trkpt>
      <trkpt lat="46.03181" lon="4.7567">
        <ele>190</ele>
        <time>2017-03-17T10:09:24Z</time>
      </trkpt>
      <trkpt lat="46.03186" lon="4.7567">
        <ele>191</ele>
        <time>2017-03-17T10:09:25Z</time>
      </trkpt>
      <trkpt lat="46.03191" lon="4.75669">
        <ele>191</ele>
        <time>2017-03-17T10:09:26Z</time>
      </trkpt>
      <trkpt lat="46.03195" lon="4.75669">
        <ele>192</ele>
        <time>2017-03-17T10:09:27Z</time>
      </trkpt>
      <trkpt lat="46.03204" lon="4.75667">
        <ele>192</ele>
        <time>2017-03-17T10:09:29Z</time>
      </trkpt>
      <trkpt lat="46.03208" lon="4.75666">
        <ele>190</ele>
        <time>2017-03-17T10:09:30Z</time>
      </trkpt>
      <trkpt lat="46.03216" lon="4.75664">
        <ele>190</ele>
        <time>2017-03-17T10:09:32Z</time>
      </trkpt>
      <trkpt lat="46.0322" lon="4.75663">
        <ele>191</ele>
        <time>2017-03-17T10:09:33Z</time>
      </trkpt>
      <trkpt lat="46.03224" lon="4.75663">
        <ele>191</ele>
        <time>2017-03-17T10:09:34Z</time>
      </trkpt>
      <trkpt lat="46.03229" lon="4.75662">
        <ele>191</ele>
        <time>2017-03-17T10:09:35Z</time>
      </trkpt>
      <trkpt lat="46.03234" lon="4.75661">
        <ele>192</ele>
        <time>2017-03-17T10:09:36Z</time>
      </trkpt>
      <trkpt lat="46.03239" lon="4.75661">
        <ele>192</ele>
        <time>2017-03-17T10:09:37Z</time>
      </trkpt>
      <trkpt lat="46.03244" lon="4.75661">
        <ele>193</ele>
        <time>2017-03-17T10:09:38Z</time>
      </trkpt>
      <trkpt lat="46.03249" lon="4.75661">
        <ele>194</ele>
        <time>2017-03-17T10:09:39Z</time>
      </trkpt>
      <trkpt lat="46.03253" lon="4.7566">
        <ele>193</ele>
        <time>2017-03-17T10:09:40Z</time>
      </trkpt>
      <trkpt lat="46.03258" lon="4.75659">
        <ele>193</ele>
        <time>2017-03-17T10:09:41Z</time>
      </trkpt>
      <trkpt lat="46.03262" lon="4.75658">
        <ele>192</ele>
        <time>2017-03-17T10:09:42Z</time>
      </trkpt>
      <trkpt lat="46.03268" lon="4.75656">
        <ele>192</ele>
        <time>2017-03-17T10:09:43Z</time>
      </trkpt>
      <trkpt lat="46.03272" lon="4.75653">
        <ele>191</ele>
        <time>2017-03-17T10:09:44Z</time>
      </trkpt>
      <trkpt lat="46.03279" lon="4.75651">
        <ele>191</ele>
        <time>2017-03-17T10:09:45Z</time>
      </trkpt>
      <trkpt lat="46.03284" lon="4.75646">
        <ele>190</ele>
        <time>2017-03-17T10:09:46Z</time>
      </trkpt>
      <trkpt lat="46.03289" lon="4.75643">
        <ele>190</ele>
        <time>2017-03-17T10:09:47Z</time>
      </trkpt>
      <trkpt lat="46.03294" lon="4.75641">
        <ele>190</ele>
        <time>2017-03-17T10:09:48Z</time>
      </trkpt>
      <trkpt lat="46.03299" lon="4.75638">
        <ele>189</ele>
        <time>2017-03-17T10:09:49Z</time>
      </trkpt>
      <trkpt lat="46.03304" lon="4.75635">
        <ele>189</ele>
        <time>2017-03-17T10:09:50Z</time>
      </trkpt>
      <trkpt lat="46.03309" lon="4.75634">
        <ele>189</ele>
        <time>2017-03-17T10:09:51Z</time>
      </trkpt>
      <trkpt lat="46.03314" lon="4.75635">
        <ele>189</ele>
        <time>2017-03-17T10:09:52Z</time>
      </trkpt>
      <trkpt lat="46.03319" lon="4.75636">
        <ele>189</ele>
        <time>2017-03-17T10:09:53Z</time>
      </trkpt>
      <trkpt lat="46.03323" lon="4.75637">
        <ele>189</ele>
        <time>2017-03-17T10:09:54Z</time>
      </trkpt>
      <trkpt lat="46.03328" lon="4.75637">
        <ele>189</ele>
        <time>2017-03-17T10:09:55Z</time>
      </trkpt>
      <trkpt lat="46.03333" lon="4.75637">
        <ele>189</ele>
        <time>2017-03-17T10:09:56Z</time>
      </trkpt>
      <trkpt lat="46.03338" lon="4.75637">
        <ele>188</ele>
        <time>2017-03-17T10:09:57Z</time>
      </trkpt>
      <trkpt lat="46.03343" lon="4.75637">
        <ele>188</ele>
        <time>2017-03-17T10:09:58Z</time>
      </trkpt>
      <trkpt lat="46.03348" lon="4.75637">
        <ele>188</ele>
        <time>2017-03-17T10:09:59Z</time>
      </trkpt>
      <trkpt lat="46.03354" lon="4.75637">
        <ele>188</ele>
        <time>2017-03-17T10:10:00Z</time>
      </trkpt>
      <trkpt lat="46.03359" lon="4.75636">
        <ele>188</ele>
        <time>2017-03-17T10:10:01Z</time>
      </trkpt>
      <trkpt lat="46.03364" lon="4.75636">
        <ele>188</ele>
        <time>2017-03-17T10:10:02Z</time>
      </trkpt>
      <trkpt lat="46.03369" lon="4.75636">
        <ele>188</ele>
        <time>2017-03-17T10:10:03Z</time>
      </trkpt>
      <trkpt lat="46.03374" lon="4.75635">
        <ele>188</ele>
        <time>2017-03-17T10:10:04Z</time>
      </trkpt>
      <trkpt lat="46.03379" lon="4.75634">
        <ele>188</ele>
        <time>2017-03-17T10:10:05Z</time>
      </trkpt>
      <trkpt lat="46.03384" lon="4.75634">
        <ele>188</ele>
        <time>2017-03-17T10:10:06Z</time>
      </trkpt>
      <trkpt lat="46.03389" lon="4.75633">
        <ele>188</ele>
        <time>2017-03-17T10:10:07Z</time>
      </trkpt>
      <trkpt lat="46.03394" lon="4.75632">
        <ele>188</ele>
        <time>2017-03-17T10:10:08Z</time>
      </trkpt>
      <trkpt lat="46.03399" lon="4.75631">
        <ele>188</ele>
        <time>2017-03-17T10:10:09Z</time>
      </trkpt>
      <trkpt lat="46.03404" lon="4.7563">
        <ele>188</ele>
        <time>2017-03-17T10:10:10Z</time>
      </trkpt>
      <trkpt lat="46.03408" lon="4.75629">
        <ele>188</ele>
        <time>2017-03-17T10:10:11Z</time>
      </trkpt>
      <trkpt lat="46.03413" lon="4.75628">
        <ele>188</ele>
        <time>2017-03-17T10:10:12Z</time>
      </trkpt>
      <trkpt lat="46.03418" lon="4.75627">
        <ele>188</ele>
        <time>2017-03-17T10:10:13Z</time>
      </trkpt>
      <trkpt lat="46.03422" lon="4.75626">
        <ele>188</ele>
        <time>2017-03-17T10:10:14Z</time>
      </trkpt>
      <trkpt lat="46.03427" lon="4.75626">
        <ele>188</ele>
        <time>2017-03-17T10:10:15Z</time>
      </trkpt>
      <trkpt lat="46.03433" lon="4.75628">
        <ele>188</ele>
        <time>2017-03-17T10:10:16Z</time>
      </trkpt>
      <trkpt lat="46.03437" lon="4.75631">
        <ele>188</ele>
        <time>2017-03-17T10:10:17Z</time>
      </trkpt>
      <trkpt lat="46.03441" lon="4.75636">
        <ele>188</ele>
        <time>2017-03-17T10:10:18Z</time>
      </trkpt>
      <trkpt lat="46.03444" lon="4.75642">
        <ele>188</ele>
        <time>2017-03-17T10:10:19Z</time>
      </trkpt>
      <trkpt lat="46.03447" lon="4.75649">
        <ele>188</ele>
        <time>2017-03-17T10:10:20Z</time>
      </trkpt>
      <trkpt lat="46.0345" lon="4.75656">
        <ele>188</ele>
        <time>2017-03-17T10:10:21Z</time>
      </trkpt>
      <trkpt lat="46.03452" lon="4.75663">
        <ele>188</ele>
        <time>2017-03-17T10:10:22Z</time>
      </trkpt>
      <trkpt lat="46.03454" lon="4.7567">
        <ele>189</ele>
        <time>2017-03-17T10:10:23Z</time>
      </trkpt>
      <trkpt lat="46.03457" lon="4.75676">
        <ele>189</ele>
        <time>2017-03-17T10:10:24Z</time>
      </trkpt>
      <trkpt lat="46.03459" lon="4.75682">
        <ele>189</ele>
        <time>2017-03-17T10:10:25Z</time>
      </trkpt>
      <trkpt lat="46.03461" lon="4.75689">
        <ele>189</ele>
        <time>2017-03-17T10:10:26Z</time>
      </trkpt>
      <trkpt lat="46.03464" lon="4.75695">
        <ele>189</ele>
        <time>2017-03-17T10:10:27Z</time>
      </trkpt>
      <trkpt lat="46.03466" lon="4.75701">
        <ele>189</ele>
        <time>2017-03-17T10:10:28Z</time>
      </trkpt>
      <trkpt lat="46.03468" lon="4.75708">
        <ele>189</ele>
        <time>2017-03-17T10:10:29Z</time>
      </trkpt>
      <trkpt lat="46.0347" lon="4.75714">
        <ele>189</ele>
        <time>2017-03-17T10:10:30Z</time>
      </trkpt>
      <trkpt lat="46.03472" lon="4.75721">
        <ele>189</ele>
        <time>2017-03-17T10:10:31Z</time>
      </trkpt>
      <trkpt lat="46.03475" lon="4.75727">
        <ele>189</ele>
        <time>2017-03-17T10:10:32Z</time>
      </trkpt>
      <trkpt lat="46.03477" lon="4.75733">
        <ele>189</ele>
        <time>2017-03-17T10:10:33Z</time>
      </trkpt>
      <trkpt lat="46.0348" lon="4.75739">
        <ele>189</ele>
        <time>2017-03-17T10:10:34Z</time>
      </trkpt>
      <trkpt lat="46.03482" lon="4.75746">
        <ele>189</ele>
        <time>2017-03-17T10:10:35Z</time>
      </trkpt>
      <trkpt lat="46.03485" lon="4.75753">
        <ele>189</ele>
        <time>2017-03-17T10:10:36Z</time>
      </trkpt>
      <trkpt lat="46.03488" lon="4.75759">
        <ele>189</ele>
        <time>2017-03-17T10:10:37Z</time>
      </trkpt>
      <trkpt lat="46.03491" lon="4.75766">
        <ele>189</ele>
        <time>2017-03-17T10:10:38Z</time>
      </trkpt>
      <trkpt lat="46.03494" lon="4.75772">
        <ele>189</ele>
        <time>2017-03-17T10:10:39Z</time>
      </trkpt>
      <trkpt lat="46.03496" lon="4.75779">
        <ele>190</ele>
        <time>2017-03-17T10:10:40Z</time>
      </trkpt>
      <trkpt lat="46.03499" lon="4.75785">
        <ele>190</ele>
        <time>2017-03-17T10:10:41Z</time>
      </trkpt>
      <trkpt lat="46.03502" lon="4.75792">
        <ele>189</ele>
        <time>2017-03-17T10:10:42Z</time>
      </trkpt>
      <trkpt lat="46.03505" lon="4.75798">
        <ele>189</ele>
        <time>2017-03-17T10:10:43Z</time>
      </trkpt>
      <trkpt lat="46.03508" lon="4.75805">
        <ele>189</ele>
        <time>2017-03-17T10:10:44Z</time>
      </trkpt>
      <trkpt lat="46.03511" lon="4.75812">
        <ele>190</ele>
        <time>2017-03-17T10:10:45Z</time>
      </trkpt>
      <trkpt lat="46.03513" lon="4.75818">
        <ele>190</ele>
        <time>2017-03-17T10:10:46Z</time>
      </trkpt>
      <trkpt lat="46.03516" lon="4.75825">
        <ele>190</ele>
        <time>2017-03-17T10:10:47Z</time>
      </trkpt>
      <trkpt lat="46.03519" lon="4.75831">
        <ele>190</ele>
        <time>2017-03-17T10:10:48Z</time>
      </trkpt>
      <trkpt lat="46.03522" lon="4.75838">
        <ele>190</ele>
        <time>2017-03-17T10:10:49Z</time>
      </trkpt>
      <trkpt lat="46.03525" lon="4.75844">
        <ele>190</ele>
        <time>2017-03-17T10:10:50Z</time>
      </trkpt>
      <trkpt lat="46.03528" lon="4.75851">
        <ele>190</ele>
        <time>2017-03-17T10:10:51Z</time>
      </trkpt>
      <trkpt lat="46.03531" lon="4.75857">
        <ele>190</ele>
        <time>2017-03-17T10:10:52Z</time>
      </trkpt>
      <trkpt lat="46.03534" lon="4.75863">
        <ele>190</ele>
        <time>2017-03-17T10:10:53Z</time>
      </trkpt>
      <trkpt lat="46.03536" lon="4.75869">
        <ele>190</ele>
        <time>2017-03-17T10:10:54Z</time>
      </trkpt>
      <trkpt lat="46.03539" lon="4.75875">
        <ele>190</ele>
        <time>2017-03-17T10:10:55Z</time>
      </trkpt>
      <trkpt lat="46.03542" lon="4.75881">
        <ele>189</ele>
        <time>2017-03-17T10:10:56Z</time>
      </trkpt>
      <trkpt lat="46.03545" lon="4.75887">
        <ele>189</ele>
        <time>2017-03-17T10:10:57Z</time>
      </trkpt>
      <trkpt lat="46.03547" lon="4.75892">
        <ele>189</ele>
        <time>2017-03-17T10:10:58Z</time>
      </trkpt>
      <trkpt lat="46.0355" lon="4.75898">
        <ele>189</ele>
        <time>2017-03-17T10:10:59Z</time>
      </trkpt>
      <trkpt lat="46.03553" lon="4.75904">
        <ele>189</ele>
        <time>2017-03-17T10:11:00Z</time>
      </trkpt>
      <trkpt lat="46.03555" lon="4.7591">
        <ele>189</ele>
        <time>2017-03-17T10:11:01Z</time>
      </trkpt>
      <trkpt lat="46.03559" lon="4.75916">
        <ele>189</ele>
        <time>2017-03-17T10:11:02Z</time>
      </trkpt>
      <trkpt lat="46.03561" lon="4.75922">
        <ele>190</ele>
        <time>2017-03-17T10:11:03Z</time>
      </trkpt>
      <trkpt lat="46.03564" lon="4.75928">
        <ele>190</ele>
        <time>2017-03-17T10:11:04Z</time>
      </trkpt>
      <trkpt lat="46.03566" lon="4.75934">
        <ele>190</ele>
        <time>2017-03-17T10:11:05Z</time>
      </trkpt>
      <trkpt lat="46.03569" lon="4.7594">
        <ele>190</ele>
        <time>2017-03-17T10:11:06Z</time>
      </trkpt>
      <trkpt lat="46.03571" lon="4.75946">
        <ele>190</ele>
        <time>2017-03-17T10:11:07Z</time>
      </trkpt>
      <trkpt lat="46.03574" lon="4.75951">
        <ele>190</ele>
        <time>2017-03-17T10:11:08Z</time>
      </trkpt>
      <trkpt lat="46.03577" lon="4.75958">
        <ele>190</ele>
        <time>2017-03-17T10:11:09Z</time>
      </trkpt>
      <trkpt lat="46.03579" lon="4.75964">
        <ele>190</ele>
        <time>2017-03-17T10:11:10Z</time>
      </trkpt>
      <trkpt lat="46.03582" lon="4.75971">
        <ele>190</ele>
        <time>2017-03-17T10:11:11Z</time>
      </trkpt>
      <trkpt lat="46.03585" lon="4.75977">
        <ele>190</ele>
        <time>2017-03-17T10:11:12Z</time>
      </trkpt>
      <trkpt lat="46.03588" lon="4.75984">
        <ele>190</ele>
        <time>2017-03-17T10:11:13Z</time>
      </trkpt>
      <trkpt lat="46.03591" lon="4.7599">
        <ele>190</ele>
        <time>2017-03-17T10:11:14Z</time>
      </trkpt>
      <trkpt lat="46.03593" lon="4.75996">
        <ele>191</ele>
        <time>2017-03-17T10:11:15Z</time>
      </trkpt>
      <trkpt lat="46.03595" lon="4.76002">
        <ele>191</ele>
        <time>2017-03-17T10:11:16Z</time>
      </trkpt>
      <trkpt lat="46.03597" lon="4.76009">
        <ele>191</ele>
        <time>2017-03-17T10:11:17Z</time>
      </trkpt>
      <trkpt lat="46.03599" lon="4.76016">
        <ele>191</ele>
        <time>2017-03-17T10:11:18Z</time>
      </trkpt>
      <trkpt lat="46.03601" lon="4.76022">
        <ele>191</ele>
        <time>2017-03-17T10:11:19Z</time>
      </trkpt>
      <trkpt lat="46.03603" lon="4.76029">
        <ele>191</ele>
        <time>2017-03-17T10:11:20Z</time>
      </trkpt>
      <trkpt lat="46.03605" lon="4.76036">
        <ele>191</ele>
        <time>2017-03-17T10:11:21Z</time>
      </trkpt>
      <trkpt lat="46.03607" lon="4.76042">
        <ele>191</ele>
        <time>2017-03-17T10:11:22Z</time>
      </trkpt>
      <trkpt lat="46.03609" lon="4.76048">
        <ele>191</ele>
        <time>2017-03-17T10:11:23Z</time>
      </trkpt>
      <trkpt lat="46.03611" lon="4.76054">
        <ele>191</ele>
        <time>2017-03-17T10:11:24Z</time>
      </trkpt>
      <trkpt lat="46.03613" lon="4.76061">
        <ele>191</ele>
        <time>2017-03-17T10:11:25Z</time>
      </trkpt>
      <trkpt lat="46.03615" lon="4.76067">
        <ele>191</ele>
        <time>2017-03-17T10:11:26Z</time>
      </trkpt>
      <trkpt lat="46.03617" lon="4.76073">
        <ele>191</ele>
        <time>2017-03-17T10:11:27Z</time>
      </trkpt>
      <trkpt lat="46.03618" lon="4.7608">
        <ele>191</ele>
        <time>2017-03-17T10:11:28Z</time>
      </trkpt>
      <trkpt lat="46.03619" lon="4.76086">
        <ele>192</ele>
        <time>2017-03-17T10:11:29Z</time>
      </trkpt>
      <trkpt lat="46.0362" lon="4.76093">
        <ele>192</ele>
        <time>2017-03-17T10:11:30Z</time>
      </trkpt>
      <trkpt lat="46.03621" lon="4.761">
        <ele>192</ele>
        <time>2017-03-17T10:11:31Z</time>
      </trkpt>
      <trkpt lat="46.03622" lon="4.76107">
        <ele>192</ele>
        <time>2017-03-17T10:11:32Z</time>
      </trkpt>
      <trkpt lat="46.03623" lon="4.76115">
        <ele>192</ele>
        <time>2017-03-17T10:11:33Z</time>
      </trkpt>
      <trkpt lat="46.03623" lon="4.76122">
        <ele>192</ele>
        <time>2017-03-17T10:11:34Z</time>
      </trkpt>
      <trkpt lat="46.03624" lon="4.7613">
        <ele>192</ele>
        <time>2017-03-17T10:11:35Z</time>
      </trkpt>
      <trkpt lat="46.03624" lon="4.76138">
        <ele>192</ele>
        <time>2017-03-17T10:11:36Z</time>
      </trkpt>
      <trkpt lat="46.03624" lon="4.76146">
        <ele>192</ele>
        <time>2017-03-17T10:11:37Z</time>
      </trkpt>
      <trkpt lat="46.03624" lon="4.76154">
        <ele>192</ele>
        <time>2017-03-17T10:11:38Z</time>
      </trkpt>
      <trkpt lat="46.03623" lon="4.76162">
        <ele>192</ele>
        <time>2017-03-17T10:11:39Z</time>
      </trkpt>
      <trkpt lat="46.03623" lon="4.76169">
        <ele>192</ele>
        <time>2017-03-17T10:11:40Z</time>
      </trkpt>
      <trkpt lat="46.03622" lon="4.76177">
        <ele>193</ele>
        <time>2017-03-17T10:11:41Z</time>
      </trkpt>
      <trkpt lat="46.03622" lon="4.76184">
        <ele>193</ele>
        <time>2017-03-17T10:11:42Z</time>
      </trkpt>
      <trkpt lat="46.03621" lon="4.76191">
        <ele>193</ele>
        <time>2017-03-17T10:11:43Z</time>
      </trkpt>
      <trkpt lat="46.0362" lon="4.76198">
        <ele>193</ele>
        <time>2017-03-17T10:11:44Z</time>
      </trkpt>
      <trkpt lat="46.03619" lon="4.76205">
        <ele>193</ele>
        <time>2017-03-17T10:11:45Z</time>
      </trkpt>
      <trkpt lat="46.03617" lon="4.76211">
        <ele>193</ele>
        <time>2017-03-17T10:11:46Z</time>
      </trkpt>
      <trkpt lat="46.03616" lon="4.76218">
        <ele>193</ele>
        <time>2017-03-17T10:11:47Z</time>
      </trkpt>
      <trkpt lat="46.03616" lon="4.76224">
        <ele>193</ele>
        <time>2017-03-17T10:11:48Z</time>
      </trkpt>
      <trkpt lat="46.03615" lon="4.76231">
        <ele>193</ele>
        <time>2017-03-17T10:11:49Z</time>
      </trkpt>
      <trkpt lat="46.03614" lon="4.76238">
        <ele>193</ele>
        <time>2017-03-17T10:11:50Z</time>
      </trkpt>
      <trkpt lat="46.03613" lon="4.76244">
        <ele>193</ele>
        <time>2017-03-17T10:11:51Z</time>
      </trkpt>
      <trkpt lat="46.03613" lon="4.76251">
        <ele>194</ele>
        <time>2017-03-17T10:11:52Z</time>
      </trkpt>
      <trkpt lat="46.03612" lon="4.76257">
        <ele>194</ele>
        <time>2017-03-17T10:11:53Z</time>
      </trkpt>
      <trkpt lat="46.03611" lon="4.76264">
        <ele>194</ele>
        <time>2017-03-17T10:11:54Z</time>
      </trkpt>
      <trkpt lat="46.0361" lon="4.76271">
        <ele>194</ele>
        <time>2017-03-17T10:11:55Z</time>
      </trkpt>
      <trkpt lat="46.03609" lon="4.76277">
        <ele>194</ele>
        <time>2017-03-17T10:11:56Z</time>
      </trkpt>
      <trkpt lat="46.03608" lon="4.76284">
        <ele>194</ele>
        <time>2017-03-17T10:11:57Z</time>
      </trkpt>
      <trkpt lat="46.03607" lon="4.76296">
        <ele>195</ele>
        <time>2017-03-17T10:11:59Z</time>
      </trkpt>
      <trkpt lat="46.03606" lon="4.76303">
        <ele>195</ele>
        <time>2017-03-17T10:12:00Z</time>
      </trkpt>
      <trkpt lat="46.03605" lon="4.76309">
        <ele>195</ele>
        <time>2017-03-17T10:12:01Z</time>
      </trkpt>
      <trkpt lat="46.03605" lon="4.76316">
        <ele>195</ele>
        <time>2017-03-17T10:12:02Z</time>
      </trkpt>
      <trkpt lat="46.03604" lon="4.76328">
        <ele>195</ele>
        <time>2017-03-17T10:12:04Z</time>
      </trkpt>
      <trkpt lat="46.03603" lon="4.76335">
        <ele>196</ele>
        <time>2017-03-17T10:12:05Z</time>
      </trkpt>
      <trkpt lat="46.03601" lon="4.76347">
        <ele>196</ele>
        <time>2017-03-17T10:12:07Z</time>
      </trkpt>
      <trkpt lat="46.036" lon="4.76353">
        <ele>196</ele>
        <time>2017-03-17T10:12:08Z</time>
      </trkpt>
      <trkpt lat="46.03598" lon="4.76365">
        <ele>197</ele>
        <time>2017-03-17T10:12:10Z</time>
      </trkpt>
      <trkpt lat="46.03598" lon="4.76371">
        <ele>197</ele>
        <time>2017-03-17T10:12:11Z</time>
      </trkpt>
      <trkpt lat="46.03597" lon="4.76382">
        <ele>197</ele>
        <time>2017-03-17T10:12:13Z</time>
      </trkpt>
      <trkpt lat="46.03597" lon="4.76388">
        <ele>197</ele>
        <time>2017-03-17T10:12:14Z</time>
      </trkpt>
      <trkpt lat="46.03595" lon="4.76399">
        <ele>198</ele>
        <time>2017-03-17T10:12:16Z</time>
      </trkpt>
      <trkpt lat="46.03594" lon="4.76405">
        <ele>198</ele>
        <time>2017-03-17T10:12:17Z</time>
      </trkpt>
      <trkpt lat="46.03593" lon="4.76416">
        <ele>198</ele>
        <time>2017-03-17T10:12:19Z</time>
      </trkpt>
      <trkpt lat="46.03592" lon="4.76421">
        <ele>199</ele>
        <time>2017-03-17T10:12:20Z</time>
      </trkpt>
      <trkpt lat="46.03591" lon="4.76433">
        <ele>199</ele>
        <time>2017-03-17T10:12:22Z</time>
      </trkpt>
      <trkpt lat="46.0359" lon="4.76439">
        <ele>199</ele>
        <time>2017-03-17T10:12:23Z</time>
      </trkpt>
      <trkpt lat="46.0359" lon="4.76446">
        <ele>199</ele>
        <time>2017-03-17T10:12:24Z</time>
      </trkpt>
      <trkpt lat="46.0359" lon="4.76452">
        <ele>199</ele>
        <time>2017-03-17T10:12:25Z</time>
      </trkpt>
      <trkpt lat="46.0359" lon="4.76459">
        <ele>199</ele>
        <time>2017-03-17T10:12:26Z</time>
      </trkpt>
      <trkpt lat="46.03592" lon="4.76465">
        <ele>199</ele>
        <time>2017-03-17T10:12:27Z</time>
      </trkpt>
      <trkpt lat="46.03597" lon="4.76476">
        <ele>199</ele>
        <time>2017-03-17T10:12:29Z</time>
      </trkpt>
      <trkpt lat="46.03601" lon="4.7648">
        <ele>199</ele>
        <time>2017-03-17T10:12:30Z</time>
      </trkpt>
      <trkpt lat="46.03607" lon="4.76489">
        <ele>199</ele>
        <time>2017-03-17T10:12:32Z</time>
      </trkpt>
      <trkpt lat="46.03611" lon="4.76493">
        <ele>199</ele>
        <time>2017-03-17T10:12:33Z</time>
      </trkpt>
      <trkpt lat="46.03615" lon="4.76498">
        <ele>199</ele>
        <time>2017-03-17T10:12:34Z</time>
      </trkpt>
      <trkpt lat="46.03618" lon="4.76503">
        <ele>200</ele>
        <time>2017-03-17T10:12:35Z</time>
      </trkpt>
      <trkpt lat="46.0362" lon="4.76508">
        <ele>200</ele>
        <time>2017-03-17T10:12:36Z</time>
      </trkpt>
      <trkpt lat="46.03623" lon="4.76514">
        <ele>200</ele>
        <time>2017-03-17T10:12:37Z</time>
      </trkpt>
      <trkpt lat="46.03625" lon="4.7652">
        <ele>200</ele>
        <time>2017-03-17T10:12:38Z</time>
      </trkpt>
      <trkpt lat="46.03628" lon="4.76525">
        <ele>200</ele>
        <time>2017-03-17T10:12:39Z</time>
      </trkpt>
      <trkpt lat="46.03632" lon="4.76535">
        <ele>200</ele>
        <time>2017-03-17T10:12:41Z</time>
      </trkpt>
      <trkpt lat="46.03634" lon="4.76541">
        <ele>200</ele>
        <time>2017-03-17T10:12:42Z</time>
      </trkpt>
      <trkpt lat="46.03638" lon="4.76552">
        <ele>200</ele>
        <time>2017-03-17T10:12:44Z</time>
      </trkpt>
      <trkpt lat="46.0364" lon="4.76558">
        <ele>201</ele>
        <time>2017-03-17T10:12:45Z</time>
      </trkpt>
      <trkpt lat="46.03643" lon="4.76563">
        <ele>201</ele>
        <time>2017-03-17T10:12:46Z</time>
      </trkpt>
      <trkpt lat="46.03646" lon="4.76568">
        <ele>201</ele>
        <time>2017-03-17T10:12:47Z</time>
      </trkpt>
      <trkpt lat="46.03652" lon="4.76577">
        <ele>201</ele>
        <time>2017-03-17T10:12:49Z</time>
      </trkpt>
      <trkpt lat="46.03656" lon="4.7658">
        <ele>201</ele>
        <time>2017-03-17T10:12:50Z</time>
      </trkpt>
      <trkpt lat="46.03663" lon="4.76587">
        <ele>202</ele>
        <time>2017-03-17T10:12:52Z</time>
      </trkpt>
      <trkpt lat="46.03666" lon="4.76591">
        <ele>202</ele>
        <time>2017-03-17T10:12:53Z</time>
      </trkpt>
      <trkpt lat="46.03669" lon="4.76596">
        <ele>203</ele>
        <time>2017-03-17T10:12:54Z</time>
      </trkpt>
      <trkpt lat="46.0367" lon="4.76603">
        <ele>203</ele>
        <time>2017-03-17T10:12:55Z</time>
      </trkpt>
      <trkpt lat="46.03672" lon="4.76609">
        <ele>203</ele>
        <time>2017-03-17T10:12:56Z</time>
      </trkpt>
      <trkpt lat="46.03672" lon="4.76616">
        <ele>203</ele>
        <time>2017-03-17T10:12:57Z</time>
      </trkpt>
      <trkpt lat="46.03673" lon="4.76622">
        <ele>203</ele>
        <time>2017-03-17T10:12:58Z</time>
      </trkpt>
      <trkpt lat="46.03674" lon="4.76629">
        <ele>203</ele>
        <time>2017-03-17T10:12:59Z</time>
      </trkpt>
      <trkpt lat="46.03676" lon="4.76641">
        <ele>204</ele>
        <time>2017-03-17T10:13:01Z</time>
      </trkpt>
      <trkpt lat="46.03677" lon="4.76647">
        <ele>204</ele>
        <time>2017-03-17T10:13:02Z</time>
      </trkpt>
      <trkpt lat="46.03679" lon="4.76653">
        <ele>204</ele>
        <time>2017-03-17T10:13:03Z</time>
      </trkpt>
      <trkpt lat="46.03682" lon="4.76659">
        <ele>204</ele>
        <time>2017-03-17T10:13:04Z</time>
      </trkpt>
      <trkpt lat="46.03684" lon="4.76664">
        <ele>204</ele>
        <time>2017-03-17T10:13:05Z</time>
      </trkpt>
      <trkpt lat="46.03687" lon="4.76669">
        <ele>205</ele>
        <time>2017-03-17T10:13:06Z</time>
      </trkpt>
      <trkpt lat="46.03691" lon="4.76674">
        <ele>205</ele>
        <time>2017-03-17T10:13:07Z</time>
      </trkpt>
      <trkpt lat="46.03695" lon="4.76677">
        <ele>205</ele>
        <time>2017-03-17T10:13:08Z</time>
      </trkpt>
      <trkpt lat="46.03703" lon="4.76683">
        <ele>205</ele>
        <time>2017-03-17T10:13:10Z</time>
      </trkpt>
      <trkpt lat="46.03707" lon="4.76686">
        <ele>205</ele>
        <time>2017-03-17T10:13:11Z</time>
      </trkpt>
      <trkpt lat="46.03715" lon="4.76691">
        <ele>205</ele>
        <time>2017-03-17T10:13:13Z</time>
      </trkpt>
      <trkpt lat="46.03719" lon="4.76693">
        <ele>205</ele>
        <time>2017-03-17T10:13:14Z</time>
      </trkpt>
      <trkpt lat="46.03726" lon="4.76696">
        <ele>205</ele>
        <time>2017-03-17T10:13:16Z</time>
      </trkpt>
      <trkpt lat="46.0373" lon="4.76697">
        <ele>205</ele>
        <time>2017-03-17T10:13:17Z</time>
      </trkpt>
      <trkpt lat="46.03738" lon="4.767">
        <ele>205</ele>
        <time>2017-03-17T10:13:19Z</time>
      </trkpt>
      <trkpt lat="46.03743" lon="4.76701">
        <ele>205</ele>
        <time>2017-03-17T10:13:20Z</time>
      </trkpt>
      <trkpt lat="46.03747" lon="4.76702">
        <ele>205</ele>
        <time>2017-03-17T10:13:21Z</time>
      </trkpt>
      <trkpt lat="46.03752" lon="4.76705">
        <ele>205</ele>
        <time>2017-03-17T10:13:22Z</time>
      </trkpt>
      <trkpt lat="46.03758" lon="4.76708">
        <ele>205</ele>
        <time>2017-03-17T10:13:23Z</time>
      </trkpt>
      <trkpt lat="46.03762" lon="4.7671">
        <ele>205</ele>
        <time>2017-03-17T10:13:24Z</time>
      </trkpt>
      <trkpt lat="46.03771" lon="4.76712">
        <ele>205</ele>
        <time>2017-03-17T10:13:26Z</time>
      </trkpt>
      <trkpt lat="46.03776" lon="4.76712">
        <ele>205</ele>
        <time>2017-03-17T10:13:27Z</time>
      </trkpt>
      <trkpt lat="46.03781" lon="4.76711">
        <ele>205</ele>
        <time>2017-03-17T10:13:28Z</time>
      </trkpt>
      <trkpt lat="46.03785" lon="4.76711">
        <ele>205</ele>
        <time>2017-03-17T10:13:29Z</time>
      </trkpt>
      <trkpt lat="46.03794" lon="4.76711">
        <ele>205</ele>
        <time>2017-03-17T10:13:31Z</time>
      </trkpt>
      <trkpt lat="46.03798" lon="4.76711">
        <ele>205</ele>
        <time>2017-03-17T10:13:32Z</time>
      </trkpt>
      <trkpt lat="46.03803" lon="4.76712">
        <ele>205</ele>
        <time>2017-03-17T10:13:33Z</time>
      </trkpt>
      <trkpt lat="46.03807" lon="4.76712">
        <ele>205</ele>
        <time>2017-03-17T10:13:34Z</time>
      </trkpt>
      <trkpt lat="46.03816" lon="4.76712">
        <ele>205</ele>
        <time>2017-03-17T10:13:36Z</time>
      </trkpt>
      <trkpt lat="46.0382" lon="4.76711">
        <ele>205</ele>
        <time>2017-03-17T10:13:37Z</time>
      </trkpt>
      <trkpt lat="46.03829" lon="4.76711">
        <ele>205</ele>
        <time>2017-03-17T10:13:39Z</time>
      </trkpt>
      <trkpt lat="46.03834" lon="4.7671">
        <ele>205</ele>
        <time>2017-03-17T10:13:40Z</time>
      </trkpt>
      <trkpt lat="46.03838" lon="4.7671">
        <ele>205</ele>
        <time>2017-03-17T10:13:41Z</time>
      </trkpt>
      <trkpt lat="46.03843" lon="4.76709">
        <ele>205</ele>
        <time>2017-03-17T10:13:42Z</time>
      </trkpt>
      <trkpt lat="46.03851" lon="4.76706">
        <ele>205</ele>
        <time>2017-03-17T10:13:44Z</time>
      </trkpt>
      <trkpt lat="46.03855" lon="4.76704">
        <ele>205</ele>
        <time>2017-03-17T10:13:45Z</time>
      </trkpt>
      <trkpt lat="46.0386" lon="4.76702">
        <ele>205</ele>
        <time>2017-03-17T10:13:46Z</time>
      </trkpt>
      <trkpt lat="46.03864" lon="4.76701">
        <ele>205</ele>
        <time>2017-03-17T10:13:47Z</time>
      </trkpt>
      <trkpt lat="46.03869" lon="4.76701">
        <ele>205</ele>
        <time>2017-03-17T10:13:48Z</time>
      </trkpt>
      <trkpt lat="46.03873" lon="4.76699">
        <ele>205</ele>
        <time>2017-03-17T10:13:49Z</time>
      </trkpt>
      <trkpt lat="46.03878" lon="4.76698">
        <ele>205</ele>
        <time>2017-03-17T10:13:50Z</time>
      </trkpt>
      <trkpt lat="46.03883" lon="4.76697">
        <ele>205</ele>
        <time>2017-03-17T10:13:51Z</time>
      </trkpt>
      <trkpt lat="46.03887" lon="4.76696">
        <ele>205</ele>
        <time>2017-03-17T10:13:52Z</time>
      </trkpt>
      <trkpt lat="46.03892" lon="4.76695">
        <ele>205</ele>
        <time>2017-03-17T10:13:53Z</time>
      </trkpt>
      <trkpt lat="46.03897" lon="4.76694">
        <ele>205</ele>
        <time>2017-03-17T10:13:54Z</time>
      </trkpt>
      <trkpt lat="46.03901" lon="4.76692">
        <ele>205</ele>
        <time>2017-03-17T10:13:55Z</time>
      </trkpt>
      <trkpt lat="46.03906" lon="4.76689">
        <ele>205</ele>
        <time>2017-03-17T10:13:56Z</time>
      </trkpt>
      <trkpt lat="46.0391" lon="4.76687">
        <ele>205</ele>
        <time>2017-03-17T10:13:57Z</time>
      </trkpt>
      <trkpt lat="46.03915" lon="4.76687">
        <ele>205</ele>
        <time>2017-03-17T10:13:58Z</time>
      </trkpt>
      <trkpt lat="46.0392" lon="4.76687">
        <ele>204</ele>
        <time>2017-03-17T10:13:59Z</time>
      </trkpt>
      <trkpt lat="46.03925" lon="4.76686">
        <ele>204</ele>
        <time>2017-03-17T10:14:00Z</time>
      </trkpt>
      <trkpt lat="46.0393" lon="4.76685">
        <ele>204</ele>
        <time>2017-03-17T10:14:01Z</time>
      </trkpt>
      <trkpt lat="46.03935" lon="4.76684">
        <ele>204</ele>
        <time>2017-03-17T10:14:02Z</time>
      </trkpt>
      <trkpt lat="46.0394" lon="4.76683">
        <ele>204</ele>
        <time>2017-03-17T10:14:03Z</time>
      </trkpt>
      <trkpt lat="46.03945" lon="4.76681">
        <ele>204</ele>
        <time>2017-03-17T10:14:04Z</time>
      </trkpt>
      <trkpt lat="46.0395" lon="4.76679">
        <ele>204</ele>
        <time>2017-03-17T10:14:05Z</time>
      </trkpt>
      <trkpt lat="46.03954" lon="4.76678">
        <ele>204</ele>
        <time>2017-03-17T10:14:06Z</time>
      </trkpt>
      <trkpt lat="46.03959" lon="4.76676">
        <ele>203</ele>
        <time>2017-03-17T10:14:07Z</time>
      </trkpt>
      <trkpt lat="46.03964" lon="4.76675">
        <ele>203</ele>
        <time>2017-03-17T10:14:08Z</time>
      </trkpt>
      <trkpt lat="46.03969" lon="4.76674">
        <ele>203</ele>
        <time>2017-03-17T10:14:09Z</time>
      </trkpt>
      <trkpt lat="46.03975" lon="4.76673">
        <ele>203</ele>
        <time>2017-03-17T10:14:10Z</time>
      </trkpt>
      <trkpt lat="46.03981" lon="4.76672">
        <ele>203</ele>
        <time>2017-03-17T10:14:11Z</time>
      </trkpt>
      <trkpt lat="46.03987" lon="4.7667">
        <ele>203</ele>
        <time>2017-03-17T10:14:12Z</time>
      </trkpt>
      <trkpt lat="46.03993" lon="4.76669">
        <ele>202</ele>
        <time>2017-03-17T10:14:13Z</time>
      </trkpt>
      <trkpt lat="46.03998" lon="4.76669">
        <ele>202</ele>
        <time>2017-03-17T10:14:14Z</time>
      </trkpt>
      <trkpt lat="46.04004" lon="4.76668">
        <ele>202</ele>
        <time>2017-03-17T10:14:15Z</time>
      </trkpt>
      <trkpt lat="46.0401" lon="4.76667">
        <ele>202</ele>
        <time>2017-03-17T10:14:16Z</time>
      </trkpt>
      <trkpt lat="46.04015" lon="4.76666">
        <ele>201</ele>
        <time>2017-03-17T10:14:17Z</time>
      </trkpt>
      <trkpt lat="46.04021" lon="4.76666">
        <ele>201</ele>
        <time>2017-03-17T10:14:18Z</time>
      </trkpt>
      <trkpt lat="46.04026" lon="4.76665">
        <ele>201</ele>
        <time>2017-03-17T10:14:19Z</time>
      </trkpt>
      <trkpt lat="46.04031" lon="4.76665">
        <ele>201</ele>
        <time>2017-03-17T10:14:20Z</time>
      </trkpt>
      <trkpt lat="46.04036" lon="4.76664">
        <ele>201</ele>
        <time>2017-03-17T10:14:21Z</time>
      </trkpt>
      <trkpt lat="46.04042" lon="4.76662">
        <ele>201</ele>
        <time>2017-03-17T10:14:22Z</time>
      </trkpt>
      <trkpt lat="46.04048" lon="4.76662">
        <ele>201</ele>
        <time>2017-03-17T10:14:23Z</time>
      </trkpt>
      <trkpt lat="46.04053" lon="4.7666">
        <ele>201</ele>
        <time>2017-03-17T10:14:24Z</time>
      </trkpt>
      <trkpt lat="46.04058" lon="4.76659">
        <ele>201</ele>
        <time>2017-03-17T10:14:25Z</time>
      </trkpt>
      <trkpt lat="46.04064" lon="4.76658">
        <ele>201</ele>
        <time>2017-03-17T10:14:26Z</time>
      </trkpt>
      <trkpt lat="46.0407" lon="4.76658">
        <ele>201</ele>
        <time>2017-03-17T10:14:27Z</time>
      </trkpt>
      <trkpt lat="46.04075" lon="4.76658">
        <ele>201</ele>
        <time>2017-03-17T10:14:28Z</time>
      </trkpt>
      <trkpt lat="46.04081" lon="4.76657">
        <ele>202</ele>
        <time>2017-03-17T10:14:29Z</time>
      </trkpt>
      <trkpt lat="46.04087" lon="4.76656">
        <ele>201</ele>
        <time>2017-03-17T10:14:30Z</time>
      </trkpt>
      <trkpt lat="46.04093" lon="4.76655">
        <ele>201</ele>
        <time>2017-03-17T10:14:31Z</time>
      </trkpt>
      <trkpt lat="46.04099" lon="4.76653">
        <ele>201</ele>
        <time>2017-03-17T10:14:32Z</time>
      </trkpt>
      <trkpt lat="46.04106" lon="4.76652">
        <ele>200</ele>
        <time>2017-03-17T10:14:33Z</time>
      </trkpt>
      <trkpt lat="46.04112" lon="4.7665">
        <ele>200</ele>
        <time>2017-03-17T10:14:34Z</time>
      </trkpt>
      <trkpt lat="46.04119" lon="4.76648">
        <ele>200</ele>
        <time>2017-03-17T10:14:35Z</time>
      </trkpt>
      <trkpt lat="46.04125" lon="4.76647">
        <ele>200</ele>
        <time>2017-03-17T10:14:36Z</time>
      </trkpt>
      <trkpt lat="46.04131" lon="4.76645">
        <ele>200</ele>
        <time>2017-03-17T10:14:37Z</time>
      </trkpt>
      <trkpt lat="46.04138" lon="4.76642">
        <ele>200</ele>
        <time>2017-03-17T10:14:38Z</time>
      </trkpt>
      <trkpt lat="46.04144" lon="4.76639">
        <ele>200</ele>
        <time>2017-03-17T10:14:39Z</time>
      </trkpt>
      <trkpt lat="46.0415" lon="4.76634">
        <ele>200</ele>
        <time>2017-03-17T10:14:40Z</time>
      </trkpt>
      <trkpt lat="46.04155" lon="4.76629">
        <ele>200</ele>
        <time>2017-03-17T10:14:41Z</time>
      </trkpt>
      <trkpt lat="46.04161" lon="4.76623">
        <ele>199</ele>
        <time>2017-03-17T10:14:42Z</time>
      </trkpt>
      <trkpt lat="46.04166" lon="4.76618">
        <ele>199</ele>
        <time>2017-03-17T10:14:43Z</time>
      </trkpt>
      <trkpt lat="46.04172" lon="4.76612">
        <ele>198</ele>
        <time>2017-03-17T10:14:44Z</time>
      </trkpt>
      <trkpt lat="46.04178" lon="4.76607">
        <ele>198</ele>
        <time>2017-03-17T10:14:45Z</time>
      </trkpt>
      <trkpt lat="46.04184" lon="4.76603">
        <ele>198</ele>
        <time>2017-03-17T10:14:46Z</time>
      </trkpt>
      <trkpt lat="46.0419" lon="4.76599">
        <ele>198</ele>
        <time>2017-03-17T10:14:47Z</time>
      </trkpt>
      <trkpt lat="46.04197" lon="4.76596">
        <ele>198</ele>
        <time>2017-03-17T10:14:48Z</time>
      </trkpt>
      <trkpt lat="46.04204" lon="4.76593">
        <ele>198</ele>
        <time>2017-03-17T10:14:49Z</time>
      </trkpt>
      <trkpt lat="46.04212" lon="4.76591">
        <ele>198</ele>
        <time>2017-03-17T10:14:50Z</time>
      </trkpt>
      <trkpt lat="46.04219" lon="4.7659">
        <ele>198</ele>
        <time>2017-03-17T10:14:51Z</time>
      </trkpt>
      <trkpt lat="46.04226" lon="4.76589">
        <ele>198</ele>
        <time>2017-03-17T10:14:52Z</time>
      </trkpt>
      <trkpt lat="46.04234" lon="4.76588">
        <ele>198</ele>
        <time>2017-03-17T10:14:53Z</time>
      </trkpt>
      <trkpt lat="46.04241" lon="4.76587">
        <ele>197</ele>
        <time>2017-03-17T10:14:54Z</time>
      </trkpt>
      <trkpt lat="46.04248" lon="4.76587">
        <ele>197</ele>
        <time>2017-03-17T10:14:55Z</time>
      </trkpt>
      <trkpt lat="46.04256" lon="4.76586">
        <ele>197</ele>
        <time>2017-03-17T10:14:56Z</time>
      </trkpt>
      <trkpt lat="46.04264" lon="4.76585">
        <ele>197</ele>
        <time>2017-03-17T10:14:57Z</time>
      </trkpt>
      <trkpt lat="46.04273" lon="4.76585">
        <ele>198</ele>
        <time>2017-03-17T10:14:58Z</time>
      </trkpt>
      <trkpt lat="46.04281" lon="4.76585">
        <ele>198</ele>
        <time>2017-03-17T10:14:59Z</time>
      </trkpt>
      <trkpt lat="46.04289" lon="4.76584">
        <ele>198</ele>
        <time>2017-03-17T10:15:00Z</time>
      </trkpt>
      <trkpt lat="46.04298" lon="4.76583">
        <ele>197</ele>
        <time>2017-03-17T10:15:01Z</time>
      </trkpt>
      <trkpt lat="46.04306" lon="4.76582">
        <ele>197</ele>
        <time>2017-03-17T10:15:02Z</time>
      </trkpt>
      <trkpt lat="46.04314" lon="4.76581">
        <ele>197</ele>
        <time>2017-03-17T10:15:03Z</time>
      </trkpt>
      <trkpt lat="46.04322" lon="4.7658">
        <ele>198</ele>
        <time>2017-03-17T10:15:04Z</time>
      </trkpt>
      <trkpt lat="46.0433" lon="4.7658">
        <ele>198</ele>
        <time>2017-03-17T10:15:05Z</time>
      </trkpt>
      <trkpt lat="46.04338" lon="4.76579">
        <ele>198</ele>
        <time>2017-03-17T10:15:06Z</time>
      </trkpt>
      <trkpt lat="46.04346" lon="4.76577">
        <ele>198</ele>
        <time>2017-03-17T10:15:07Z</time>
      </trkpt>
      <trkpt lat="46.04355" lon="4.76576">
        <ele>198</ele>
        <time>2017-03-17T10:15:08Z</time>
      </trkpt>
      <trkpt lat="46.04363" lon="4.76575">
        <ele>197</ele>
        <time>2017-03-17T10:15:09Z</time>
      </trkpt>
      <trkpt lat="46.04371" lon="4.76574">
        <ele>197</ele>
        <time>2017-03-17T10:15:10Z</time>
      </trkpt>
      <trkpt lat="46.0438" lon="4.76574">
        <ele>197</ele>
        <time>2017-03-17T10:15:11Z</time>
      </trkpt>
      <trkpt lat="46.04388" lon="4.76573">
        <ele>197</ele>
        <time>2017-03-17T10:15:12Z</time>
      </trkpt>
      <trkpt lat="46.04396" lon="4.76572">
        <ele>198</ele>
        <time>2017-03-17T10:15:13Z</time>
      </trkpt>
      <trkpt lat="46.04404" lon="4.76572">
        <ele>198</ele>
        <time>2017-03-17T10:15:14Z</time>
      </trkpt>
      <trkpt lat="46.04412" lon="4.76571">
        <ele>198</ele>
        <time>2017-03-17T10:15:15Z</time>
      </trkpt>
      <trkpt lat="46.04419" lon="4.76571">
        <ele>197</ele>
        <time>2017-03-17T10:15:16Z</time>
      </trkpt>
      <trkpt lat="46.04426" lon="4.76571">
        <ele>196</ele>
        <time>2017-03-17T10:15:17Z</time>
      </trkpt>
      <trkpt lat="46.04433" lon="4.76571">
        <ele>196</ele>
        <time>2017-03-17T10:15:18Z</time>
      </trkpt>
      <trkpt lat="46.0444" lon="4.76572">
        <ele>195</ele>
        <time>2017-03-17T10:15:19Z</time>
      </trkpt>
      <trkpt lat="46.04447" lon="4.76573">
        <ele>195</ele>
        <time>2017-03-17T10:15:20Z</time>
      </trkpt>
      <trkpt lat="46.04454" lon="4.76573">
        <ele>194</ele>
        <time>2017-03-17T10:15:21Z</time>
      </trkpt>
      <trkpt lat="46.04461" lon="4.76572">
        <ele>194</ele>
        <time>2017-03-17T10:15:22Z</time>
      </trkpt>
      <trkpt lat="46.04468" lon="4.76571">
        <ele>193</ele>
        <time>2017-03-17T10:15:23Z</time>
      </trkpt>
      <trkpt lat="46.04474" lon="4.7657">
        <ele>193</ele>
        <time>2017-03-17T10:15:24Z</time>
      </trkpt>
      <trkpt lat="46.04481" lon="4.7657">
        <ele>193</ele>
        <time>2017-03-17T10:15:25Z</time>
      </trkpt>
      <trkpt lat="46.04488" lon="4.76569">
        <ele>192</ele>
        <time>2017-03-17T10:15:26Z</time>
      </trkpt>
      <trkpt lat="46.04494" lon="4.76568">
        <ele>192</ele>
        <time>2017-03-17T10:15:27Z</time>
      </trkpt>
      <trkpt lat="46.04499" lon="4.76568">
        <ele>192</ele>
        <time>2017-03-17T10:15:28Z</time>
      </trkpt>
      <trkpt lat="46.04504" lon="4.76567">
        <ele>190</ele>
        <time>2017-03-17T10:15:29Z</time>
      </trkpt>
      <trkpt lat="46.04511" lon="4.76566">
        <ele>189</ele>
        <time>2017-03-17T10:15:31Z</time>
      </trkpt>
      <trkpt lat="46.04514" lon="4.76566">
        <ele>189</ele>
        <time>2017-03-17T10:15:32Z</time>
      </trkpt>
      <trkpt lat="46.0452" lon="4.76568">
        <ele>189</ele>
        <time>2017-03-17T10:15:34Z</time>
      </trkpt>
      <trkpt lat="46.04525" lon="4.76568">
        <ele>189</ele>
        <time>2017-03-17T10:15:35Z</time>
      </trkpt>
      <trkpt lat="46.04529" lon="4.76567">
        <ele>189</ele>
        <time>2017-03-17T10:15:36Z</time>
      </trkpt>
      <trkpt lat="46.04534" lon="4.76564">
        <ele>188</ele>
        <time>2017-03-17T10:15:37Z</time>
      </trkpt>
      <trkpt lat="46.04538" lon="4.76561">
        <ele>188</ele>
        <time>2017-03-17T10:15:38Z</time>
      </trkpt>
      <trkpt lat="46.04544" lon="4.76557">
        <ele>188</ele>
        <time>2017-03-17T10:15:39Z</time>
      </trkpt>
      <trkpt lat="46.04549" lon="4.76554">
        <ele>188</ele>
        <time>2017-03-17T10:15:40Z</time>
      </trkpt>
      <trkpt lat="46.04555" lon="4.76551">
        <ele>188</ele>
        <time>2017-03-17T10:15:41Z</time>
      </trkpt>
      <trkpt lat="46.04561" lon="4.76548">
        <ele>187</ele>
        <time>2017-03-17T10:15:42Z</time>
      </trkpt>
      <trkpt lat="46.04567" lon="4.76546">
        <ele>187</ele>
        <time>2017-03-17T10:15:43Z</time>
      </trkpt>
      <trkpt lat="46.04573" lon="4.76544">
        <ele>187</ele>
        <time>2017-03-17T10:15:44Z</time>
      </trkpt>
      <trkpt lat="46.04578" lon="4.76541">
        <ele>187</ele>
        <time>2017-03-17T10:15:45Z</time>
      </trkpt>
      <trkpt lat="46.04584" lon="4.76538">
        <ele>186</ele>
        <time>2017-03-17T10:15:46Z</time>
      </trkpt>
      <trkpt lat="46.0459" lon="4.76536">
        <ele>186</ele>
        <time>2017-03-17T10:15:47Z</time>
      </trkpt>
      <trkpt lat="46.04596" lon="4.76534">
        <ele>186</ele>
        <time>2017-03-17T10:15:48Z</time>
      </trkpt>
      <trkpt lat="46.04601" lon="4.76531">
        <ele>186</ele>
        <time>2017-03-17T10:15:49Z</time>
      </trkpt>
      <trkpt lat="46.04607" lon="4.76528">
        <ele>186</ele>
        <time>2017-03-17T10:15:50Z</time>
      </trkpt>
      <trkpt lat="46.04613" lon="4.76525">
        <ele>186</ele>
        <time>2017-03-17T10:15:51Z</time>
      </trkpt>
      <trkpt lat="46.04619" lon="4.76523">
        <ele>186</ele>
        <time>2017-03-17T10:15:52Z</time>
      </trkpt>
      <trkpt lat="46.04625" lon="4.76521">
        <ele>186</ele>
        <time>2017-03-17T10:15:53Z</time>
      </trkpt>
      <trkpt lat="46.0463" lon="4.76519">
        <ele>186</ele>
        <time>2017-03-17T10:15:54Z</time>
      </trkpt>
      <trkpt lat="46.04635" lon="4.76516">
        <ele>186</ele>
        <time>2017-03-17T10:15:55Z</time>
      </trkpt>
      <trkpt lat="46.0464" lon="4.76514">
        <ele>186</ele>
        <time>2017-03-17T10:15:56Z</time>
      </trkpt>
      <trkpt lat="46.04644" lon="4.76513">
        <ele>186</ele>
        <time>2017-03-17T10:15:57Z</time>
      </trkpt>
      <trkpt lat="46.04653" lon="4.7651">
        <ele>186</ele>
        <time>2017-03-17T10:15:59Z</time>
      </trkpt>
      <trkpt lat="46.04657" lon="4.76509">
        <ele>186</ele>
        <time>2017-03-17T10:16:00Z</time>
      </trkpt>
      <trkpt lat="46.04664" lon="4.76504">
        <ele>186</ele>
        <time>2017-03-17T10:16:03Z</time>
      </trkpt>
      <trkpt lat="46.04665" lon="4.76501">
        <ele>186</ele>
        <time>2017-03-17T10:16:04Z</time>
      </trkpt>
      <trkpt lat="46.04668" lon="4.76491">
        <ele>187</ele>
        <time>2017-03-17T10:16:09Z</time>
      </trkpt>
      <trkpt lat="46.04669" lon="4.76489">
        <ele>187</ele>
        <time>2017-03-17T10:16:10Z</time>
      </trkpt>
      <trkpt lat="46.04676" lon="4.76488">
        <ele>187</ele>
        <time>2017-03-17T10:16:14Z</time>
      </trkpt>
      <trkpt lat="46.04678" lon="4.7649">
        <ele>187</ele>
        <time>2017-03-17T10:16:15Z</time>
      </trkpt>
      <trkpt lat="46.04686" lon="4.76491">
        <ele>188</ele>
        <time>2017-03-17T10:16:19Z</time>
      </trkpt>
      <trkpt lat="46.04689" lon="4.7649">
        <ele>188</ele>
        <time>2017-03-17T10:16:20Z</time>
      </trkpt>
      <trkpt lat="46.04697" lon="4.76488">
        <ele>188</ele>
        <time>2017-03-17T10:16:24Z</time>
      </trkpt>
      <trkpt lat="46.04698" lon="4.76487">
        <ele>188</ele>
        <time>2017-03-17T10:16:25Z</time>
      </trkpt>
      <trkpt lat="46.04707" lon="4.76484">
        <ele>189</ele>
        <time>2017-03-17T10:16:29Z</time>
      </trkpt>
      <trkpt lat="46.04709" lon="4.76483">
        <ele>189</ele>
        <time>2017-03-17T10:16:30Z</time>
      </trkpt>
      <trkpt lat="46.04715" lon="4.76483">
        <ele>189</ele>
        <time>2017-03-17T10:16:32Z</time>
      </trkpt>
      <trkpt lat="46.04718" lon="4.76483">
        <ele>189</ele>
        <time>2017-03-17T10:16:33Z</time>
      </trkpt>
      <trkpt lat="46.04725" lon="4.76481">
        <ele>189</ele>
        <time>2017-03-17T10:16:35Z</time>
      </trkpt>
      <trkpt lat="46.04728" lon="4.76479">
        <ele>189</ele>
        <time>2017-03-17T10:16:36Z</time>
      </trkpt>
      <trkpt lat="46.04736" lon="4.76476">
        <ele>190</ele>
        <time>2017-03-17T10:16:38Z</time>
      </trkpt>
      <trkpt lat="46.0474" lon="4.76475">
        <ele>190</ele>
        <time>2017-03-17T10:16:39Z</time>
      </trkpt>
      <trkpt lat="46.04746" lon="4.76471">
        <ele>190</ele>
        <time>2017-03-17T10:16:41Z</time>
      </trkpt>
      <trkpt lat="46.0475" lon="4.76469">
        <ele>190</ele>
        <time>2017-03-17T10:16:42Z</time>
      </trkpt>
      <trkpt lat="46.04757" lon="4.76465">
        <ele>192</ele>
        <time>2017-03-17T10:16:44Z</time>
      </trkpt>
      <trkpt lat="46.04761" lon="4.76462">
        <ele>192</ele>
        <time>2017-03-17T10:16:45Z</time>
      </trkpt>
      <trkpt lat="46.04769" lon="4.76458">
        <ele>192</ele>
        <time>2017-03-17T10:16:47Z</time>
      </trkpt>
      <trkpt lat="46.04773" lon="4.76455">
        <ele>192</ele>
        <time>2017-03-17T10:16:48Z</time>
      </trkpt>
      <trkpt lat="46.04781" lon="4.76448">
        <ele>192</ele>
        <time>2017-03-17T10:16:50Z</time>
      </trkpt>
      <trkpt lat="46.04784" lon="4.76446">
        <ele>192</ele>
        <time>2017-03-17T10:16:51Z</time>
      </trkpt>
      <trkpt lat="46.04789" lon="4.76443">
        <ele>192</ele>
        <time>2017-03-17T10:16:52Z</time>
      </trkpt>
      <trkpt lat="46.04793" lon="4.76442">
        <ele>193</ele>
        <time>2017-03-17T10:16:53Z</time>
      </trkpt>
      <trkpt lat="46.04801" lon="4.7644">
        <ele>193</ele>
        <time>2017-03-17T10:16:55Z</time>
      </trkpt>
      <trkpt lat="46.04805" lon="4.7644">
        <ele>193</ele>
        <time>2017-03-17T10:16:56Z</time>
      </trkpt>
      <trkpt lat="46.04812" lon="4.76439">
        <ele>193</ele>
        <time>2017-03-17T10:16:58Z</time>
      </trkpt>
      <trkpt lat="46.04815" lon="4.76442">
        <ele>193</ele>
        <time>2017-03-17T10:16:59Z</time>
      </trkpt>
      <trkpt lat="46.04821" lon="4.76446">
        <ele>193</ele>
        <time>2017-03-17T10:17:01Z</time>
      </trkpt>
      <trkpt lat="46.04825" lon="4.76448">
        <ele>193</ele>
        <time>2017-03-17T10:17:02Z</time>
      </trkpt>
      <trkpt lat="46.04832" lon="4.76449">
        <ele>193</ele>
        <time>2017-03-17T10:17:04Z</time>
      </trkpt>
      <trkpt lat="46.04836" lon="4.76449">
        <ele>194</ele>
        <time>2017-03-17T10:17:05Z</time>
      </trkpt>
      <trkpt lat="46.04843" lon="4.76452">
        <ele>193</ele>
        <time>2017-03-17T10:17:07Z</time>
      </trkpt>
      <trkpt lat="46.04847" lon="4.76453">
        <ele>193</ele>
        <time>2017-03-17T10:17:08Z</time>
      </trkpt>
      <trkpt lat="46.04856" lon="4.76454">
        <ele>193</ele>
        <time>2017-03-17T10:17:10Z</time>
      </trkpt>
      <trkpt lat="46.0486" lon="4.76454">
        <ele>193</ele>
        <time>2017-03-17T10:17:11Z</time>
      </trkpt>
      <trkpt lat="46.04869" lon="4.76454">
        <ele>193</ele>
        <time>2017-03-17T10:17:13Z</time>
      </trkpt>
      <trkpt lat="46.04873" lon="4.76453">
        <ele>193</ele>
        <time>2017-03-17T10:17:14Z</time>
      </trkpt>
      <trkpt lat="46.04878" lon="4.76453">
        <ele>193</ele>
        <time>2017-03-17T10:17:15Z</time>
      </trkpt>
      <trkpt lat="46.04883" lon="4.76452">
        <ele>193</ele>
        <time>2017-03-17T10:17:16Z</time>
      </trkpt>
      <trkpt lat="46.04888" lon="4.76451">
        <ele>193</ele>
        <time>2017-03-17T10:17:17Z</time>
      </trkpt>
      <trkpt lat="46.04893" lon="4.76451">
        <ele>193</ele>
        <time>2017-03-17T10:17:18Z</time>
      </trkpt>
      <trkpt lat="46.04898" lon="4.7645">
        <ele>193</ele>
        <time>2017-03-17T10:17:19Z</time>
      </trkpt>
      <trkpt lat="46.04903" lon="4.76448">
        <ele>193</ele>
        <time>2017-03-17T10:17:20Z</time>
      </trkpt>
      <trkpt lat="46.04908" lon="4.76446">
        <ele>193</ele>
        <time>2017-03-17T10:17:21Z</time>
      </trkpt>
      <trkpt lat="46.04913" lon="4.76443">
        <ele>193</ele>
        <time>2017-03-17T10:17:22Z</time>
      </trkpt>
      <trkpt lat="46.04919" lon="4.7644">
        <ele>191</ele>
        <time>2017-03-17T10:17:23Z</time>
      </trkpt>
      <trkpt lat="46.04924" lon="4.76437">
        <ele>191</ele>
        <time>2017-03-17T10:17:24Z</time>
      </trkpt>
      <trkpt lat="46.0493" lon="4.76435">
        <ele>191</ele>
        <time>2017-03-17T10:17:25Z</time>
      </trkpt>
      <trkpt lat="46.04936" lon="4.76435">
        <ele>191</ele>
        <time>2017-03-17T10:17:26Z</time>
      </trkpt>
      <trkpt lat="46.04942" lon="4.76436">
        <ele>191</ele>
        <time>2017-03-17T10:17:27Z</time>
      </trkpt>
      <trkpt lat="46.04948" lon="4.76439">
        <ele>191</ele>
        <time>2017-03-17T10:17:28Z</time>
      </trkpt>
      <trkpt lat="46.04953" lon="4.76444">
        <ele>191</ele>
        <time>2017-03-17T10:17:29Z</time>
      </trkpt>
      <trkpt lat="46.04958" lon="4.7645">
        <ele>191</ele>
        <time>2017-03-17T10:17:30Z</time>
      </trkpt>
      <trkpt lat="46.04962" lon="4.76455">
        <ele>191</ele>
        <time>2017-03-17T10:17:31Z</time>
      </trkpt>
      <trkpt lat="46.04966" lon="4.76461">
        <ele>191</ele>
        <time>2017-03-17T10:17:32Z</time>
      </trkpt>
      <trkpt lat="46.04968" lon="4.76466">
        <ele>191</ele>
        <time>2017-03-17T10:17:33Z</time>
      </trkpt>
      <trkpt lat="46.0497" lon="4.76472">
        <ele>191</ele>
        <time>2017-03-17T10:17:34Z</time>
      </trkpt>
      <trkpt lat="46.04973" lon="4.76478">
        <ele>191</ele>
        <time>2017-03-17T10:17:35Z</time>
      </trkpt>
      <trkpt lat="46.04975" lon="4.76484">
        <ele>191</ele>
        <time>2017-03-17T10:17:36Z</time>
      </trkpt>
      <trkpt lat="46.04979" lon="4.76496">
        <ele>191</ele>
        <time>2017-03-17T10:17:38Z</time>
      </trkpt>
      <trkpt lat="46.04982" lon="4.76502">
        <ele>191</ele>
        <time>2017-03-17T10:17:39Z</time>
      </trkpt>
      <trkpt lat="46.04984" lon="4.76508">
        <ele>191</ele>
        <time>2017-03-17T10:17:40Z</time>
      </trkpt>
      <trkpt lat="46.04986" lon="4.76514">
        <ele>191</ele>
        <time>2017-03-17T10:17:41Z</time>
      </trkpt>
      <trkpt lat="46.04988" lon="4.76519">
        <ele>191</ele>
        <time>2017-03-17T10:17:42Z</time>
      </trkpt>
      <trkpt lat="46.04991" lon="4.76525">
        <ele>191</ele>
        <time>2017-03-17T10:17:43Z</time>
      </trkpt>
      <trkpt lat="46.04994" lon="4.76536">
        <ele>191</ele>
        <time>2017-03-17T10:17:45Z</time>
      </trkpt>
      <trkpt lat="46.04996" lon="4.7654">
        <ele>191</ele>
        <time>2017-03-17T10:17:46Z</time>
      </trkpt>
      <trkpt lat="46.05" lon="4.76549">
        <ele>192</ele>
        <time>2017-03-17T10:17:48Z</time>
      </trkpt>
      <trkpt lat="46.05001" lon="4.76554">
        <ele>190</ele>
        <time>2017-03-17T10:17:49Z</time>
      </trkpt>
      <trkpt lat="46.05005" lon="4.76563">
        <ele>191</ele>
        <time>2017-03-17T10:17:51Z</time>
      </trkpt>
      <trkpt lat="46.05009" lon="4.76568">
        <ele>191</ele>
        <time>2017-03-17T10:17:52Z</time>
      </trkpt>
      <trkpt lat="46.05014" lon="4.7657">
        <ele>191</ele>
        <time>2017-03-17T10:17:53Z</time>
      </trkpt>
      <trkpt lat="46.05019" lon="4.76572">
        <ele>191</ele>
        <time>2017-03-17T10:17:54Z</time>
      </trkpt>
      <trkpt lat="46.05024" lon="4.76573">
        <ele>190</ele>
        <time>2017-03-17T10:17:55Z</time>
      </trkpt>
      <trkpt lat="46.05029" lon="4.76576">
        <ele>190</ele>
        <time>2017-03-17T10:17:56Z</time>
      </trkpt>
      <trkpt lat="46.05034" lon="4.76579">
        <ele>190</ele>
        <time>2017-03-17T10:17:57Z</time>
      </trkpt>
      <trkpt lat="46.05038" lon="4.76582">
        <ele>190</ele>
        <time>2017-03-17T10:17:58Z</time>
      </trkpt>
      <trkpt lat="46.05043" lon="4.76585">
        <ele>191</ele>
        <time>2017-03-17T10:17:59Z</time>
      </trkpt>
      <trkpt lat="46.05047" lon="4.76588">
        <ele>191</ele>
        <time>2017-03-17T10:18:00Z</time>
      </trkpt>
      <trkpt lat="46.05051" lon="4.76592">
        <ele>191</ele>
        <time>2017-03-17T10:18:01Z</time>
      </trkpt>
      <trkpt lat="46.05056" lon="4.76595">
        <ele>191</ele>
        <time>2017-03-17T10:18:02Z</time>
      </trkpt>
      <trkpt lat="46.0506" lon="4.76599">
        <ele>191</ele>
        <time>2017-03-17T10:18:03Z</time>
      </trkpt>
      <trkpt lat="46.05064" lon="4.76603">
        <ele>191</ele>
        <time>2017-03-17T10:18:04Z</time>
      </trkpt>
      <trkpt lat="46.05068" lon="4.76608">
        <ele>191</ele>
        <time>2017-03-17T10:18:05Z</time>
      </trkpt>
      <trkpt lat="46.05071" lon="4.76614">
        <ele>191</ele>
        <time>2017-03-17T10:18:06Z</time>
      </trkpt>
      <trkpt lat="46.05072" lon="4.7662">
        <ele>192</ele>
        <time>2017-03-17T10:18:07Z</time>
      </trkpt>
      <trkpt lat="46.05073" lon="4.76627">
        <ele>192</ele>
        <time>2017-03-17T10:18:08Z</time>
      </trkpt>
      <trkpt lat="46.05074" lon="4.76634">
        <ele>192</ele>
        <time>2017-03-17T10:18:09Z</time>
      </trkpt>
      <trkpt lat="46.05074" lon="4.76641">
        <ele>192</ele>
        <time>2017-03-17T10:18:10Z</time>
      </trkpt>
      <trkpt lat="46.05076" lon="4.76654">
        <ele>192</ele>
        <time>2017-03-17T10:18:12Z</time>
      </trkpt>
      <trkpt lat="46.05077" lon="4.7666">
        <ele>193</ele>
        <time>2017-03-17T10:18:13Z</time>
      </trkpt>
      <trkpt lat="46.05079" lon="4.76672">
        <ele>193</ele>
        <time>2017-03-17T10:18:15Z</time>
      </trkpt>
      <trkpt lat="46.0508" lon="4.76678">
        <ele>193</ele>
        <time>2017-03-17T10:18:16Z</time>
      </trkpt>
      <trkpt lat="46.05081" lon="4.7669">
        <ele>193</ele>
        <time>2017-03-17T10:18:18Z</time>
      </trkpt>
      <trkpt lat="46.05082" lon="4.76697">
        <ele>193</ele>
        <time>2017-03-17T10:18:19Z</time>
      </trkpt>
      <trkpt lat="46.05083" lon="4.76704">
        <ele>193</ele>
        <time>2017-03-17T10:18:20Z</time>
      </trkpt>
      <trkpt lat="46.05085" lon="4.76712">
        <ele>193</ele>
        <time>2017-03-17T10:18:21Z</time>
      </trkpt>
      <trkpt lat="46.05086" lon="4.76719">
        <ele>193</ele>
        <time>2017-03-17T10:18:22Z</time>
      </trkpt>
      <trkpt lat="46.05087" lon="4.76726">
        <ele>193</ele>
        <time>2017-03-17T10:18:23Z</time>
      </trkpt>
      <trkpt lat="46.05088" lon="4.76733">
        <ele>193</ele>
        <time>2017-03-17T10:18:24Z</time>
      </trkpt>
      <trkpt lat="46.05089" lon="4.76739">
        <ele>193</ele>
        <time>2017-03-17T10:18:25Z</time>
      </trkpt>
      <trkpt lat="46.05091" lon="4.76751">
        <ele>194</ele>
        <time>2017-03-17T10:18:27Z</time>
      </trkpt>
      <trkpt lat="46.05092" lon="4.76757">
        <ele>194</ele>
        <time>2017-03-17T10:18:28Z</time>
      </trkpt>
      <trkpt lat="46.05095" lon="4.76768">
        <ele>194</ele>
        <time>2017-03-17T10:18:30Z</time>
      </trkpt>
      <trkpt lat="46.05096" lon="4.76774">
        <ele>194</ele>
        <time>2017-03-17T10:18:31Z</time>
      </trkpt>
      <trkpt lat="46.05097" lon="4.76781">
        <ele>194</ele>
        <time>2017-03-17T10:18:32Z</time>
      </trkpt>
      <trkpt lat="46.05099" lon="4.76787">
        <ele>194</ele>
        <time>2017-03-17T10:18:33Z</time>
      </trkpt>
      <trkpt lat="46.05101" lon="4.76799">
        <ele>194</ele>
        <time>2017-03-17T10:18:35Z</time>
      </trkpt>
      <trkpt lat="46.05103" lon="4.76804">
        <ele>194</ele>
        <time>2017-03-17T10:18:36Z</time>
      </trkpt>
      <trkpt lat="46.05107" lon="4.76815">
        <ele>194</ele>
        <time>2017-03-17T10:18:38Z</time>
      </trkpt>
      <trkpt lat="46.0511" lon="4.7682">
        <ele>194</ele>
        <time>2017-03-17T10:18:39Z</time>
      </trkpt>
      <trkpt lat="46.05115" lon="4.76829">
        <ele>194</ele>
        <time>2017-03-17T10:18:41Z</time>
      </trkpt>
      <trkpt lat="46.05117" lon="4.76836">
        <ele>195</ele>
        <time>2017-03-17T10:18:42Z</time>
      </trkpt>
      <trkpt lat="46.05122" lon="4.76847">
        <ele>195</ele>
        <time>2017-03-17T10:18:44Z</time>
      </trkpt>
      <trkpt lat="46.05124" lon="4.76852">
        <ele>195</ele>
        <time>2017-03-17T10:18:45Z</time>
      </trkpt>
      <trkpt lat="46.05129" lon="4.76862">
        <ele>195</ele>
        <time>2017-03-17T10:18:47Z</time>
      </trkpt>
      <trkpt lat="46.05131" lon="4.76867">
        <ele>195</ele>
        <time>2017-03-17T10:18:48Z</time>
      </trkpt>
      <trkpt lat="46.05136" lon="4.76877">
        <ele>195</ele>
        <time>2017-03-17T10:18:50Z</time>
      </trkpt>
      <trkpt lat="46.05138" lon="4.76882">
        <ele>195</ele>
        <time>2017-03-17T10:18:51Z</time>
      </trkpt>
      <trkpt lat="46.05143" lon="4.76892">
        <ele>195</ele>
        <time>2017-03-17T10:18:53Z</time>
      </trkpt>
      <trkpt lat="46.05145" lon="4.76896">
        <ele>195</ele>
        <time>2017-03-17T10:18:54Z</time>
      </trkpt>
      <trkpt lat="46.0515" lon="4.76906">
        <ele>195</ele>
        <time>2017-03-17T10:18:56Z</time>
      </trkpt>
      <trkpt lat="46.05153" lon="4.7691">
        <ele>195</ele>
        <time>2017-03-17T10:18:57Z</time>
      </trkpt>
      <trkpt lat="46.05158" lon="4.76919">
        <ele>196</ele>
        <time>2017-03-17T10:18:59Z</time>
      </trkpt>
      <trkpt lat="46.0516" lon="4.76923">
        <ele>196</ele>
        <time>2017-03-17T10:19:00Z</time>
      </trkpt>
      <trkpt lat="46.05165" lon="4.76933">
        <ele>196</ele>
        <time>2017-03-17T10:19:02Z</time>
      </trkpt>
      <trkpt lat="46.05167" lon="4.76938">
        <ele>197</ele>
        <time>2017-03-17T10:19:03Z</time>
      </trkpt>
      <trkpt lat="46.05172" lon="4.76948">
        <ele>197</ele>
        <time>2017-03-17T10:19:05Z</time>
      </trkpt>
      <trkpt lat="46.05173" lon="4.76953">
        <ele>197</ele>
        <time>2017-03-17T10:19:06Z</time>
      </trkpt>
      <trkpt lat="46.05178" lon="4.76962">
        <ele>198</ele>
        <time>2017-03-17T10:19:08Z</time>
      </trkpt>
      <trkpt lat="46.05179" lon="4.76967">
        <ele>198</ele>
        <time>2017-03-17T10:19:09Z</time>
      </trkpt>
      <trkpt lat="46.05183" lon="4.76978">
        <ele>198</ele>
        <time>2017-03-17T10:19:11Z</time>
      </trkpt>
      <trkpt lat="46.05185" lon="4.76983">
        <ele>198</ele>
        <time>2017-03-17T10:19:12Z</time>
      </trkpt>
      <trkpt lat="46.05188" lon="4.76995">
        <ele>198</ele>
        <time>2017-03-17T10:19:14Z</time>
      </trkpt>
      <trkpt lat="46.05189" lon="4.77">
        <ele>199</ele>
        <time>2017-03-17T10:19:15Z</time>
      </trkpt>
      <trkpt lat="46.05193" lon="4.77011">
        <ele>200</ele>
        <time>2017-03-17T10:19:17Z</time>
      </trkpt>
      <trkpt lat="46.05194" lon="4.77015">
        <ele>200</ele>
        <time>2017-03-17T10:19:18Z</time>
      </trkpt>
      <trkpt lat="46.05198" lon="4.77025">
        <ele>200</ele>
        <time>2017-03-17T10:19:20Z</time>
      </trkpt>
      <trkpt lat="46.052" lon="4.7703">
        <ele>200</ele>
        <time>2017-03-17T10:19:21Z</time>
      </trkpt>
      <trkpt lat="46.05203" lon="4.7704">
        <ele>200</ele>
        <time>2017-03-17T10:19:23Z</time>
      </trkpt>
      <trkpt lat="46.05205" lon="4.77044">
        <ele>201</ele>
        <time>2017-03-17T10:19:24Z</time>
      </trkpt>
      <trkpt lat="46.05209" lon="4.77054">
        <ele>201</ele>
        <time>2017-03-17T10:19:26Z</time>
      </trkpt>
      <trkpt lat="46.0521" lon="4.77059">
        <ele>201</ele>
        <time>2017-03-17T10:19:27Z</time>
      </trkpt>
      <trkpt lat="46.05214" lon="4.77068">
        <ele>201</ele>
        <time>2017-03-17T10:19:29Z</time>
      </trkpt>
      <trkpt lat="46.05216" lon="4.77072">
        <ele>201</ele>
        <time>2017-03-17T10:19:30Z</time>
      </trkpt>
      <trkpt lat="46.05219" lon="4.77083">
        <ele>201</ele>
        <time>2017-03-17T10:19:32Z</time>
      </trkpt>
      <trkpt lat="46.0522" lon="4.77088">
        <ele>203</ele>
        <time>2017-03-17T10:19:33Z</time>
      </trkpt>
      <trkpt lat="46.05222" lon="4.771">
        <ele>203</ele>
        <time>2017-03-17T10:19:35Z</time>
      </trkpt>
      <trkpt lat="46.05224" lon="4.77104">
        <ele>203</ele>
        <time>2017-03-17T10:19:36Z</time>
      </trkpt>
      <trkpt lat="46.0523" lon="4.77111">
        <ele>203</ele>
        <time>2017-03-17T10:19:38Z</time>
      </trkpt>
      <trkpt lat="46.05233" lon="4.77114">
        <ele>203</ele>
        <time>2017-03-17T10:19:39Z</time>
      </trkpt>
      <trkpt lat="46.05239" lon="4.7712">
        <ele>204</ele>
        <time>2017-03-17T10:19:41Z</time>
      </trkpt>
      <trkpt lat="46.05242" lon="4.77123">
        <ele>204</ele>
        <time>2017-03-17T10:19:42Z</time>
      </trkpt>
      <trkpt lat="46.05249" lon="4.77128">
        <ele>204</ele>
        <time>2017-03-17T10:19:44Z</time>
      </trkpt>
      <trkpt lat="46.05252" lon="4.7713">
        <ele>204</ele>
        <time>2017-03-17T10:19:45Z</time>
      </trkpt>
      <trkpt lat="46.05258" lon="4.77134">
        <ele>204</ele>
        <time>2017-03-17T10:19:47Z</time>
      </trkpt>
      <trkpt lat="46.05261" lon="4.77138">
        <ele>204</ele>
        <time>2017-03-17T10:19:48Z</time>
      </trkpt>
      <trkpt lat="46.05266" lon="4.77145">
        <ele>204</ele>
        <time>2017-03-17T10:19:50Z</time>
      </trkpt>
      <trkpt lat="46.05268" lon="4.77148">
        <ele>204</ele>
        <time>2017-03-17T10:19:51Z</time>
      </trkpt>
      <trkpt lat="46.05274" lon="4.77155">
        <ele>204</ele>
        <time>2017-03-17T10:19:53Z</time>
      </trkpt>
      <trkpt lat="46.05278" lon="4.77158">
        <ele>204</ele>
        <time>2017-03-17T10:19:54Z</time>
      </trkpt>
      <trkpt lat="46.05284" lon="4.77165">
        <ele>204</ele>
        <time>2017-03-17T10:19:56Z</time>
      </trkpt>
      <trkpt lat="46.05286" lon="4.77168">
        <ele>206</ele>
        <time>2017-03-17T10:19:57Z</time>
      </trkpt>
      <trkpt lat="46.05293" lon="4.77174">
        <ele>205</ele>
        <time>2017-03-17T10:19:59Z</time>
      </trkpt>
      <trkpt lat="46.05296" lon="4.77178">
        <ele>205</ele>
        <time>2017-03-17T10:20:00Z</time>
      </trkpt>
      <trkpt lat="46.05302" lon="4.77184">
        <ele>205</ele>
        <time>2017-03-17T10:20:02Z</time>
      </trkpt>
      <trkpt lat="46.05306" lon="4.77187">
        <ele>205</ele>
        <time>2017-03-17T10:20:03Z</time>
      </trkpt>
      <trkpt lat="46.05309" lon="4.77191">
        <ele>205</ele>
        <time>2017-03-17T10:20:04Z</time>
      </trkpt>
      <trkpt lat="46.05313" lon="4.77194">
        <ele>205</ele>
        <time>2017-03-17T10:20:05Z</time>
      </trkpt>
      <trkpt lat="46.05321" lon="4.772">
        <ele>205</ele>
        <time>2017-03-17T10:20:07Z</time>
      </trkpt>
      <trkpt lat="46.05324" lon="4.77202">
        <ele>205</ele>
        <time>2017-03-17T10:20:08Z</time>
      </trkpt>
      <trkpt lat="46.0533" lon="4.77206">
        <ele>205</ele>
        <time>2017-03-17T10:20:10Z</time>
      </trkpt>
      <trkpt lat="46.05333" lon="4.77208">
        <ele>205</ele>
        <time>2017-03-17T10:20:11Z</time>
      </trkpt>
      <trkpt lat="46.05339" lon="4.77213">
        <ele>203</ele>
        <time>2017-03-17T10:20:13Z</time>
      </trkpt>
      <trkpt lat="46.05342" lon="4.77215">
        <ele>203</ele>
        <time>2017-03-17T10:20:14Z</time>
      </trkpt>
      <trkpt lat="46.05348" lon="4.7722">
        <ele>203</ele>
        <time>2017-03-17T10:20:16Z</time>
      </trkpt>
      <trkpt lat="46.05352" lon="4.77223">
        <ele>203</ele>
        <time>2017-03-17T10:20:17Z</time>
      </trkpt>
      <trkpt lat="46.05356" lon="4.77226">
        <ele>203</ele>
        <time>2017-03-17T10:20:18Z</time>
      </trkpt>
      <trkpt lat="46.05361" lon="4.77228">
        <ele>203</ele>
        <time>2017-03-17T10:20:19Z</time>
      </trkpt>
      <trkpt lat="46.05365" lon="4.77231">
        <ele>203</ele>
        <time>2017-03-17T10:20:20Z</time>
      </trkpt>
      <trkpt lat="46.0537" lon="4.77233">
        <ele>203</ele>
        <time>2017-03-17T10:20:21Z</time>
      </trkpt>
      <trkpt lat="46.05374" lon="4.77236">
        <ele>203</ele>
        <time>2017-03-17T10:20:22Z</time>
      </trkpt>
      <trkpt lat="46.05379" lon="4.77238">
        <ele>203</ele>
        <time>2017-03-17T10:20:23Z</time>
      </trkpt>
      <trkpt lat="46.05384" lon="4.77241">
        <ele>202</ele>
        <time>2017-03-17T10:20:24Z</time>
      </trkpt>
      <trkpt lat="46.05389" lon="4.77245">
        <ele>202</ele>
        <time>2017-03-17T10:20:25Z</time>
      </trkpt>
      <trkpt lat="46.05394" lon="4.77248">
        <ele>202</ele>
        <time>2017-03-17T10:20:26Z</time>
      </trkpt>
      <trkpt lat="46.05399" lon="4.7725">
        <ele>203</ele>
        <time>2017-03-17T10:20:27Z</time>
      </trkpt>
      <trkpt lat="46.05405" lon="4.77253">
        <ele>202</ele>
        <time>2017-03-17T10:20:28Z</time>
      </trkpt>
      <trkpt lat="46.05411" lon="4.77256">
        <ele>202</ele>
        <time>2017-03-17T10:20:29Z</time>
      </trkpt>
      <trkpt lat="46.05416" lon="4.77259">
        <ele>202</ele>
        <time>2017-03-17T10:20:30Z</time>
      </trkpt>
      <trkpt lat="46.05421" lon="4.77261">
        <ele>201</ele>
        <time>2017-03-17T10:20:31Z</time>
      </trkpt>
      <trkpt lat="46.05427" lon="4.77263">
        <ele>201</ele>
        <time>2017-03-17T10:20:32Z</time>
      </trkpt>
      <trkpt lat="46.05432" lon="4.77266">
        <ele>201</ele>
        <time>2017-03-17T10:20:33Z</time>
      </trkpt>
      <trkpt lat="46.05438" lon="4.77268">
        <ele>201</ele>
        <time>2017-03-17T10:20:34Z</time>
      </trkpt>
      <trkpt lat="46.05444" lon="4.77271">
        <ele>201</ele>
        <time>2017-03-17T10:20:35Z</time>
      </trkpt>
      <trkpt lat="46.0545" lon="4.77274">
        <ele>201</ele>
        <time>2017-03-17T10:20:36Z</time>
      </trkpt>
      <trkpt lat="46.05456" lon="4.77277">
        <ele>201</ele>
        <time>2017-03-17T10:20:37Z</time>
      </trkpt>
      <trkpt lat="46.05463" lon="4.7728">
        <ele>201</ele>
        <time>2017-03-17T10:20:38Z</time>
      </trkpt>
      <trkpt lat="46.05469" lon="4.77282">
        <ele>201</ele>
        <time>2017-03-17T10:20:39Z</time>
      </trkpt>
      <trkpt lat="46.05475" lon="4.77285">
        <ele>201</ele>
        <time>2017-03-17T10:20:40Z</time>
      </trkpt>
      <trkpt lat="46.05481" lon="4.77289">
        <ele>201</ele>
        <time>2017-03-17T10:20:41Z</time>
      </trkpt>
      <trkpt lat="46.05487" lon="4.77292">
        <ele>201</ele>
        <time>2017-03-17T10:20:42Z</time>
      </trkpt>
      <trkpt lat="46.05492" lon="4.77295">
        <ele>201</ele>
        <time>2017-03-17T10:20:43Z</time>
      </trkpt>
      <trkpt lat="46.05498" lon="4.77299">
        <ele>201</ele>
        <time>2017-03-17T10:20:44Z</time>
      </trkpt>
      <trkpt lat="46.05503" lon="4.77302">
        <ele>200</ele>
        <time>2017-03-17T10:20:45Z</time>
      </trkpt>
      <trkpt lat="46.05508" lon="4.77305">
        <ele>200</ele>
        <time>2017-03-17T10:20:46Z</time>
      </trkpt>
      <trkpt lat="46.05513" lon="4.77308">
        <ele>200</ele>
        <time>2017-03-17T10:20:47Z</time>
      </trkpt>
      <trkpt lat="46.05518" lon="4.7731">
        <ele>200</ele>
        <time>2017-03-17T10:20:48Z</time>
      </trkpt>
      <trkpt lat="46.05523" lon="4.77313">
        <ele>200</ele>
        <time>2017-03-17T10:20:49Z</time>
      </trkpt>
      <trkpt lat="46.05528" lon="4.77316">
        <ele>200</ele>
        <time>2017-03-17T10:20:50Z</time>
      </trkpt>
      <trkpt lat="46.05532" lon="4.77319">
        <ele>200</ele>
        <time>2017-03-17T10:20:51Z</time>
      </trkpt>
      <trkpt lat="46.05537" lon="4.77321">
        <ele>200</ele>
        <time>2017-03-17T10:20:52Z</time>
      </trkpt>
      <trkpt lat="46.05541" lon="4.77324">
        <ele>200</ele>
        <time>2017-03-17T10:20:53Z</time>
      </trkpt>
      <trkpt lat="46.05546" lon="4.77327">
        <ele>200</ele>
        <time>2017-03-17T10:20:54Z</time>
      </trkpt>
      <trkpt lat="46.05551" lon="4.7733">
        <ele>200</ele>
        <time>2017-03-17T10:20:55Z</time>
      </trkpt>
      <trkpt lat="46.05555" lon="4.77334">
        <ele>201</ele>
        <time>2017-03-17T10:20:56Z</time>
      </trkpt>
      <trkpt lat="46.0556" lon="4.77337">
        <ele>201</ele>
        <time>2017-03-17T10:20:57Z</time>
      </trkpt>
      <trkpt lat="46.05566" lon="4.77341">
        <ele>201</ele>
        <time>2017-03-17T10:20:58Z</time>
      </trkpt>
      <trkpt lat="46.05571" lon="4.77344">
        <ele>201</ele>
        <time>2017-03-17T10:20:59Z</time>
      </trkpt>
      <trkpt lat="46.05576" lon="4.77347">
        <ele>201</ele>
        <time>2017-03-17T10:21:00Z</time>
      </trkpt>
      <trkpt lat="46.05581" lon="4.7735">
        <ele>201</ele>
        <time>2017-03-17T10:21:01Z</time>
      </trkpt>
      <trkpt lat="46.05586" lon="4.77354">
        <ele>202</ele>
        <time>2017-03-17T10:21:02Z</time>
      </trkpt>
      <trkpt lat="46.05592" lon="4.77358">
        <ele>202</ele>
        <time>2017-03-17T10:21:03Z</time>
      </trkpt>
      <trkpt lat="46.05597" lon="4.77362">
        <ele>202</ele>
        <time>2017-03-17T10:21:04Z</time>
      </trkpt>
      <trkpt lat="46.05602" lon="4.77365">
        <ele>202</ele>
        <time>2017-03-17T10:21:05Z</time>
      </trkpt>
      <trkpt lat="46.05607" lon="4.77368">
        <ele>202</ele>
        <time>2017-03-17T10:21:06Z</time>
      </trkpt>
      <trkpt lat="46.05612" lon="4.77372">
        <ele>203</ele>
        <time>2017-03-17T10:21:07Z</time>
      </trkpt>
      <trkpt lat="46.05617" lon="4.77376">
        <ele>203</ele>
        <time>2017-03-17T10:21:08Z</time>
      </trkpt>
      <trkpt lat="46.05621" lon="4.7738">
        <ele>203</ele>
        <time>2017-03-17T10:21:09Z</time>
      </trkpt>
      <trkpt lat="46.05626" lon="4.77384">
        <ele>203</ele>
        <time>2017-03-17T10:21:10Z</time>
      </trkpt>
      <trkpt lat="46.0563" lon="4.77389">
        <ele>203</ele>
        <time>2017-03-17T10:21:11Z</time>
      </trkpt>
      <trkpt lat="46.05635" lon="4.77393">
        <ele>203</ele>
        <time>2017-03-17T10:21:12Z</time>
      </trkpt>
      <trkpt lat="46.05639" lon="4.77397">
        <ele>203</ele>
        <time>2017-03-17T10:21:13Z</time>
      </trkpt>
      <trkpt lat="46.05644" lon="4.77401">
        <ele>204</ele>
        <time>2017-03-17T10:21:14Z</time>
      </trkpt>
      <trkpt lat="46.05648" lon="4.77405">
        <ele>204</ele>
        <time>2017-03-17T10:21:15Z</time>
      </trkpt>
      <trkpt lat="46.05653" lon="4.7741">
        <ele>204</ele>
        <time>2017-03-17T10:21:16Z</time>
      </trkpt>
      <trkpt lat="46.05657" lon="4.77414">
        <ele>204</ele>
        <time>2017-03-17T10:21:17Z</time>
      </trkpt>
      <trkpt lat="46.05661" lon="4.77418">
        <ele>205</ele>
        <time>2017-03-17T10:21:18Z</time>
      </trkpt>
      <trkpt lat="46.05665" lon="4.77421">
        <ele>205</ele>
        <time>2017-03-17T10:21:19Z</time>
      </trkpt>
      <trkpt lat="46.05669" lon="4.77426">
        <ele>206</ele>
        <time>2017-03-17T10:21:20Z</time>
      </trkpt>
      <trkpt lat="46.05674" lon="4.7743">
        <ele>206</ele>
        <time>2017-03-17T10:21:21Z</time>
      </trkpt>
      <trkpt lat="46.05678" lon="4.77434">
        <ele>206</ele>
        <time>2017-03-17T10:21:22Z</time>
      </trkpt>
      <trkpt lat="46.05683" lon="4.77437">
        <ele>206</ele>
        <time>2017-03-17T10:21:23Z</time>
      </trkpt>
      <trkpt lat="46.05687" lon="4.77441">
        <ele>206</ele>
        <time>2017-03-17T10:21:24Z</time>
      </trkpt>
      <trkpt lat="46.05691" lon="4.77445">
        <ele>206</ele>
        <time>2017-03-17T10:21:25Z</time>
      </trkpt>
      <trkpt lat="46.05696" lon="4.77448">
        <ele>207</ele>
        <time>2017-03-17T10:21:26Z</time>
      </trkpt>
      <trkpt lat="46.057" lon="4.77451">
        <ele>207</ele>
        <time>2017-03-17T10:21:27Z</time>
      </trkpt>
      <trkpt lat="46.05705" lon="4.77454">
        <ele>207</ele>
        <time>2017-03-17T10:21:28Z</time>
      </trkpt>
      <trkpt lat="46.05709" lon="4.77457">
        <ele>207</ele>
        <time>2017-03-17T10:21:29Z</time>
      </trkpt>
      <trkpt lat="46.05716" lon="4.77464">
        <ele>207</ele>
        <time>2017-03-17T10:21:31Z</time>
      </trkpt>
      <trkpt lat="46.0572" lon="4.77468">
        <ele>207</ele>
        <time>2017-03-17T10:21:32Z</time>
      </trkpt>
      <trkpt lat="46.05723" lon="4.77472">
        <ele>207</ele>
        <time>2017-03-17T10:21:33Z</time>
      </trkpt>
      <trkpt lat="46.05727" lon="4.77476">
        <ele>207</ele>
        <time>2017-03-17T10:21:34Z</time>
      </trkpt>
      <trkpt lat="46.05731" lon="4.7748">
        <ele>207</ele>
        <time>2017-03-17T10:21:35Z</time>
      </trkpt>
      <trkpt lat="46.05734" lon="4.77485">
        <ele>207</ele>
        <time>2017-03-17T10:21:36Z</time>
      </trkpt>
      <trkpt lat="46.05738" lon="4.77489">
        <ele>207</ele>
        <time>2017-03-17T10:21:37Z</time>
      </trkpt>
      <trkpt lat="46.05741" lon="4.77494">
        <ele>208</ele>
        <time>2017-03-17T10:21:38Z</time>
      </trkpt>
      <trkpt lat="46.05748" lon="4.77502">
        <ele>208</ele>
        <time>2017-03-17T10:21:40Z</time>
      </trkpt>
      <trkpt lat="46.05751" lon="4.77506">
        <ele>208</ele>
        <time>2017-03-17T10:21:41Z</time>
      </trkpt>
      <trkpt lat="46.05756" lon="4.77514">
        <ele>208</ele>
        <time>2017-03-17T10:21:43Z</time>
      </trkpt>
      <trkpt lat="46.05758" lon="4.77518">
        <ele>208</ele>
        <time>2017-03-17T10:21:44Z</time>
      </trkpt>
      <trkpt lat="46.05764" lon="4.77526">
        <ele>208</ele>
        <time>2017-03-17T10:21:46Z</time>
      </trkpt>
      <trkpt lat="46.05767" lon="4.77531">
        <ele>208</ele>
        <time>2017-03-17T10:21:47Z</time>
      </trkpt>
      <trkpt lat="46.05772" lon="4.7754">
        <ele>208</ele>
        <time>2017-03-17T10:21:49Z</time>
      </trkpt>
      <trkpt lat="46.05775" lon="4.77545">
        <ele>208</ele>
        <time>2017-03-17T10:21:50Z</time>
      </trkpt>
      <trkpt lat="46.0578" lon="4.77555">
        <ele>208</ele>
        <time>2017-03-17T10:21:52Z</time>
      </trkpt>
      <trkpt lat="46.05784" lon="4.77559">
        <ele>208</ele>
        <time>2017-03-17T10:21:53Z</time>
      </trkpt>
      <trkpt lat="46.0579" lon="4.77567">
        <ele>208</ele>
        <time>2017-03-17T10:21:55Z</time>
      </trkpt>
      <trkpt lat="46.05793" lon="4.77571">
        <ele>208</ele>
        <time>2017-03-17T10:21:56Z</time>
      </trkpt>
      <trkpt lat="46.058" lon="4.77578">
        <ele>208</ele>
        <time>2017-03-17T10:21:58Z</time>
      </trkpt>
      <trkpt lat="46.05804" lon="4.77583">
        <ele>208</ele>
        <time>2017-03-17T10:21:59Z</time>
      </trkpt>
      <trkpt lat="46.05808" lon="4.77587">
        <ele>209</ele>
        <time>2017-03-17T10:22:00Z</time>
      </trkpt>
      <trkpt lat="46.05812" lon="4.77592">
        <ele>208</ele>
        <time>2017-03-17T10:22:01Z</time>
      </trkpt>
      <trkpt lat="46.05816" lon="4.77596">
        <ele>208</ele>
        <time>2017-03-17T10:22:02Z</time>
      </trkpt>
      <trkpt lat="46.0582" lon="4.77601">
        <ele>208</ele>
        <time>2017-03-17T10:22:03Z</time>
      </trkpt>
      <trkpt lat="46.05825" lon="4.77606">
        <ele>208</ele>
        <time>2017-03-17T10:22:04Z</time>
      </trkpt>
      <trkpt lat="46.05829" lon="4.77611">
        <ele>209</ele>
        <time>2017-03-17T10:22:05Z</time>
      </trkpt>
      <trkpt lat="46.05833" lon="4.77615">
        <ele>209</ele>
        <time>2017-03-17T10:22:06Z</time>
      </trkpt>
      <trkpt lat="46.05838" lon="4.77619">
        <ele>208</ele>
        <time>2017-03-17T10:22:07Z</time>
      </trkpt>
      <trkpt lat="46.05842" lon="4.77624">
        <ele>208</ele>
        <time>2017-03-17T10:22:08Z</time>
      </trkpt>
      <trkpt lat="46.05845" lon="4.77629">
        <ele>208</ele>
        <time>2017-03-17T10:22:09Z</time>
      </trkpt>
      <trkpt lat="46.05849" lon="4.77633">
        <ele>208</ele>
        <time>2017-03-17T10:22:10Z</time>
      </trkpt>
      <trkpt lat="46.05853" lon="4.77638">
        <ele>208</ele>
        <time>2017-03-17T10:22:11Z</time>
      </trkpt>
      <trkpt lat="46.05857" lon="4.77642">
        <ele>208</ele>
        <time>2017-03-17T10:22:12Z</time>
      </trkpt>
      <trkpt lat="46.05862" lon="4.77647">
        <ele>208</ele>
        <time>2017-03-17T10:22:13Z</time>
      </trkpt>
      <trkpt lat="46.05866" lon="4.77652">
        <ele>208</ele>
        <time>2017-03-17T10:22:14Z</time>
      </trkpt>
      <trkpt lat="46.0587" lon="4.77658">
        <ele>208</ele>
        <time>2017-03-17T10:22:15Z</time>
      </trkpt>
      <trkpt lat="46.05874" lon="4.77664">
        <ele>208</ele>
        <time>2017-03-17T10:22:16Z</time>
      </trkpt>
      <trkpt lat="46.05878" lon="4.77671">
        <ele>208</ele>
        <time>2017-03-17T10:22:17Z</time>
      </trkpt>
      <trkpt lat="46.0588" lon="4.77678">
        <ele>208</ele>
        <time>2017-03-17T10:22:18Z</time>
      </trkpt>
      <trkpt lat="46.05883" lon="4.77686">
        <ele>208</ele>
        <time>2017-03-17T10:22:19Z</time>
      </trkpt>
      <trkpt lat="46.05885" lon="4.77693">
        <ele>208</ele>
        <time>2017-03-17T10:22:20Z</time>
      </trkpt>
      <trkpt lat="46.05887" lon="4.77701">
        <ele>208</ele>
        <time>2017-03-17T10:22:21Z</time>
      </trkpt>
      <trkpt lat="46.05888" lon="4.77708">
        <ele>208</ele>
        <time>2017-03-17T10:22:22Z</time>
      </trkpt>
      <trkpt lat="46.05889" lon="4.77716">
        <ele>208</ele>
        <time>2017-03-17T10:22:23Z</time>
      </trkpt>
      <trkpt lat="46.0589" lon="4.77724">
        <ele>209</ele>
        <time>2017-03-17T10:22:24Z</time>
      </trkpt>
      <trkpt lat="46.05891" lon="4.77731">
        <ele>209</ele>
        <time>2017-03-17T10:22:25Z</time>
      </trkpt>
      <trkpt lat="46.05892" lon="4.77739">
        <ele>209</ele>
        <time>2017-03-17T10:22:26Z</time>
      </trkpt>
      <trkpt lat="46.05893" lon="4.77747">
        <ele>209</ele>
        <time>2017-03-17T10:22:27Z</time>
      </trkpt>
      <trkpt lat="46.05895" lon="4.77755">
        <ele>209</ele>
        <time>2017-03-17T10:22:28Z</time>
      </trkpt>
      <trkpt lat="46.05897" lon="4.77762">
        <ele>209</ele>
        <time>2017-03-17T10:22:29Z</time>
      </trkpt>
      <trkpt lat="46.05899" lon="4.77769">
        <ele>210</ele>
        <time>2017-03-17T10:22:30Z</time>
      </trkpt>
      <trkpt lat="46.05902" lon="4.77776">
        <ele>210</ele>
        <time>2017-03-17T10:22:31Z</time>
      </trkpt>
      <trkpt lat="46.05906" lon="4.77783">
        <ele>210</ele>
        <time>2017-03-17T10:22:32Z</time>
      </trkpt>
      <trkpt lat="46.05909" lon="4.77789">
        <ele>210</ele>
        <time>2017-03-17T10:22:33Z</time>
      </trkpt>
      <trkpt lat="46.05912" lon="4.77795">
        <ele>210</ele>
        <time>2017-03-17T10:22:34Z</time>
      </trkpt>
      <trkpt lat="46.05916" lon="4.77801">
        <ele>210</ele>
        <time>2017-03-17T10:22:35Z</time>
      </trkpt>
      <trkpt lat="46.0592" lon="4.77808">
        <ele>210</ele>
        <time>2017-03-17T10:22:36Z</time>
      </trkpt>
      <trkpt lat="46.05924" lon="4.77814">
        <ele>210</ele>
        <time>2017-03-17T10:22:37Z</time>
      </trkpt>
      <trkpt lat="46.05928" lon="4.7782">
        <ele>210</ele>
        <time>2017-03-17T10:22:38Z</time>
      </trkpt>
      <trkpt lat="46.05932" lon="4.77826">
        <ele>210</ele>
        <time>2017-03-17T10:22:39Z</time>
      </trkpt>
      <trkpt lat="46.05935" lon="4.77831">
        <ele>210</ele>
        <time>2017-03-17T10:22:40Z</time>
      </trkpt>
      <trkpt lat="46.05939" lon="4.77836">
        <ele>211</ele>
        <time>2017-03-17T10:22:41Z</time>
      </trkpt>
      <trkpt lat="46.05942" lon="4.77842">
        <ele>211</ele>
        <time>2017-03-17T10:22:42Z</time>
      </trkpt>
      <trkpt lat="46.05945" lon="4.77847">
        <ele>211</ele>
        <time>2017-03-17T10:22:43Z</time>
      </trkpt>
      <trkpt lat="46.05947" lon="4.77852">
        <ele>211</ele>
        <time>2017-03-17T10:22:44Z</time>
      </trkpt>
      <trkpt lat="46.0595" lon="4.77857">
        <ele>211</ele>
        <time>2017-03-17T10:22:45Z</time>
      </trkpt>
      <trkpt lat="46.05956" lon="4.77867">
        <ele>211</ele>
        <time>2017-03-17T10:22:47Z</time>
      </trkpt>
      <trkpt lat="46.05958" lon="4.77872">
        <ele>211</ele>
        <time>2017-03-17T10:22:48Z</time>
      </trkpt>
      <trkpt lat="46.05961" lon="4.77877">
        <ele>211</ele>
        <time>2017-03-17T10:22:49Z</time>
      </trkpt>
      <trkpt lat="46.05965" lon="4.77882">
        <ele>211</ele>
        <time>2017-03-17T10:22:50Z</time>
      </trkpt>
      <trkpt lat="46.05968" lon="4.77887">
        <ele>211</ele>
        <time>2017-03-17T10:22:51Z</time>
      </trkpt>
      <trkpt lat="46.05971" lon="4.77893">
        <ele>211</ele>
        <time>2017-03-17T10:22:52Z</time>
      </trkpt>
      <trkpt lat="46.05974" lon="4.77898">
        <ele>211</ele>
        <time>2017-03-17T10:22:53Z</time>
      </trkpt>
      <trkpt lat="46.05977" lon="4.77903">
        <ele>211</ele>
        <time>2017-03-17T10:22:54Z</time>
      </trkpt>
      <trkpt lat="46.0598" lon="4.77909">
        <ele>211</ele>
        <time>2017-03-17T10:22:55Z</time>
      </trkpt>
      <trkpt lat="46.05982" lon="4.77915">
        <ele>211</ele>
        <time>2017-03-17T10:22:56Z</time>
      </trkpt>
      <trkpt lat="46.05984" lon="4.7792">
        <ele>212</ele>
        <time>2017-03-17T10:22:57Z</time>
      </trkpt>
      <trkpt lat="46.05987" lon="4.77926">
        <ele>212</ele>
        <time>2017-03-17T10:22:58Z</time>
      </trkpt>
      <trkpt lat="46.05989" lon="4.77932">
        <ele>212</ele>
        <time>2017-03-17T10:22:59Z</time>
      </trkpt>
      <trkpt lat="46.05991" lon="4.77939">
        <ele>212</ele>
        <time>2017-03-17T10:23:00Z</time>
      </trkpt>
      <trkpt lat="46.05994" lon="4.77945">
        <ele>212</ele>
        <time>2017-03-17T10:23:01Z</time>
      </trkpt>
      <trkpt lat="46.05996" lon="4.7795">
        <ele>212</ele>
        <time>2017-03-17T10:23:02Z</time>
      </trkpt>
      <trkpt lat="46.06" lon="4.77956">
        <ele>212</ele>
        <time>2017-03-17T10:23:03Z</time>
      </trkpt>
      <trkpt lat="46.06003" lon="4.77961">
        <ele>211</ele>
        <time>2017-03-17T10:23:04Z</time>
      </trkpt>
      <trkpt lat="46.06007" lon="4.77965">
        <ele>211</ele>
        <time>2017-03-17T10:23:05Z</time>
      </trkpt>
      <trkpt lat="46.06011" lon="4.77969">
        <ele>211</ele>
        <time>2017-03-17T10:23:06Z</time>
      </trkpt>
      <trkpt lat="46.06016" lon="4.77973">
        <ele>211</ele>
        <time>2017-03-17T10:23:07Z</time>
      </trkpt>
      <trkpt lat="46.0602" lon="4.77977">
        <ele>211</ele>
        <time>2017-03-17T10:23:08Z</time>
      </trkpt>
      <trkpt lat="46.06023" lon="4.77982">
        <ele>211</ele>
        <time>2017-03-17T10:23:09Z</time>
      </trkpt>
      <trkpt lat="46.06027" lon="4.77987">
        <ele>211</ele>
        <time>2017-03-17T10:23:10Z</time>
      </trkpt>
      <trkpt lat="46.0603" lon="4.77992">
        <ele>211</ele>
        <time>2017-03-17T10:23:11Z</time>
      </trkpt>
      <trkpt lat="46.06033" lon="4.77997">
        <ele>211</ele>
        <time>2017-03-17T10:23:12Z</time>
      </trkpt>
      <trkpt lat="46.06036" lon="4.78002">
        <ele>211</ele>
        <time>2017-03-17T10:23:13Z</time>
      </trkpt>
      <trkpt lat="46.0604" lon="4.78008">
        <ele>211</ele>
        <time>2017-03-17T10:23:14Z</time>
      </trkpt>
      <trkpt lat="46.06043" lon="4.78013">
        <ele>211</ele>
        <time>2017-03-17T10:23:15Z</time>
      </trkpt>
      <trkpt lat="46.06047" lon="4.78018">
        <ele>211</ele>
        <time>2017-03-17T10:23:16Z</time>
      </trkpt>
      <trkpt lat="46.06052" lon="4.78022">
        <ele>211</ele>
        <time>2017-03-17T10:23:17Z</time>
      </trkpt>
      <trkpt lat="46.06056" lon="4.78027">
        <ele>211</ele>
        <time>2017-03-17T10:23:18Z</time>
      </trkpt>
      <trkpt lat="46.0606" lon="4.78031">
        <ele>211</ele>
        <time>2017-03-17T10:23:19Z</time>
      </trkpt>
      <trkpt lat="46.06065" lon="4.78034">
        <ele>211</ele>
        <time>2017-03-17T10:23:20Z</time>
      </trkpt>
      <trkpt lat="46.0607" lon="4.78037">
        <ele>211</ele>
        <time>2017-03-17T10:23:21Z</time>
      </trkpt>
      <trkpt lat="46.06075" lon="4.78041">
        <ele>211</ele>
        <time>2017-03-17T10:23:22Z</time>
      </trkpt>
      <trkpt lat="46.06079" lon="4.78044">
        <ele>211</ele>
        <time>2017-03-17T10:23:23Z</time>
      </trkpt>
      <trkpt lat="46.06083" lon="4.78048">
        <ele>211</ele>
        <time>2017-03-17T10:23:24Z</time>
      </trkpt>
      <trkpt lat="46.06087" lon="4.78052">
        <ele>210</ele>
        <time>2017-03-17T10:23:25Z</time>
      </trkpt>
      <trkpt lat="46.06091" lon="4.78056">
        <ele>210</ele>
        <time>2017-03-17T10:23:26Z</time>
      </trkpt>
      <trkpt lat="46.06095" lon="4.7806">
        <ele>210</ele>
        <time>2017-03-17T10:23:27Z</time>
      </trkpt>
      <trkpt lat="46.06099" lon="4.78065">
        <ele>210</ele>
        <time>2017-03-17T10:23:28Z</time>
      </trkpt>
      <trkpt lat="46.06104" lon="4.78069">
        <ele>210</ele>
        <time>2017-03-17T10:23:29Z</time>
      </trkpt>
      <trkpt lat="46.06108" lon="4.78074">
        <ele>210</ele>
        <time>2017-03-17T10:23:30Z</time>
      </trkpt>
      <trkpt lat="46.06112" lon="4.78079">
        <ele>210</ele>
        <time>2017-03-17T10:23:31Z</time>
      </trkpt>
      <trkpt lat="46.06117" lon="4.78085">
        <ele>209</ele>
        <time>2017-03-17T10:23:32Z</time>
      </trkpt>
      <trkpt lat="46.06122" lon="4.78091">
        <ele>209</ele>
        <time>2017-03-17T10:23:33Z</time>
      </trkpt>
      <trkpt lat="46.06127" lon="4.78097">
        <ele>209</ele>
        <time>2017-03-17T10:23:34Z</time>
      </trkpt>
      <trkpt lat="46.06133" lon="4.78103">
        <ele>209</ele>
        <time>2017-03-17T10:23:35Z</time>
      </trkpt>
      <trkpt lat="46.06138" lon="4.78109">
        <ele>208</ele>
        <time>2017-03-17T10:23:36Z</time>
      </trkpt>
      <trkpt lat="46.06145" lon="4.78115">
        <ele>208</ele>
        <time>2017-03-17T10:23:37Z</time>
      </trkpt>
      <trkpt lat="46.06151" lon="4.7812">
        <ele>208</ele>
        <time>2017-03-17T10:23:38Z</time>
      </trkpt>
      <trkpt lat="46.06158" lon="4.78125">
        <ele>208</ele>
        <time>2017-03-17T10:23:39Z</time>
      </trkpt>
      <trkpt lat="46.06165" lon="4.7813">
        <ele>208</ele>
        <time>2017-03-17T10:23:40Z</time>
      </trkpt>
      <trkpt lat="46.06173" lon="4.78135">
        <ele>206</ele>
        <time>2017-03-17T10:23:41Z</time>
      </trkpt>
      <trkpt lat="46.06181" lon="4.7814">
        <ele>206</ele>
        <time>2017-03-17T10:23:42Z</time>
      </trkpt>
      <trkpt lat="46.06188" lon="4.78145">
        <ele>206</ele>
        <time>2017-03-17T10:23:43Z</time>
      </trkpt>
      <trkpt lat="46.06196" lon="4.7815">
        <ele>205</ele>
        <time>2017-03-17T10:23:44Z</time>
      </trkpt>
      <trkpt lat="46.06202" lon="4.78154">
        <ele>205</ele>
        <time>2017-03-17T10:23:45Z</time>
      </trkpt>
      <trkpt lat="46.06209" lon="4.78159">
        <ele>205</ele>
        <time>2017-03-17T10:23:46Z</time>
      </trkpt>
      <trkpt lat="46.06216" lon="4.78163">
        <ele>205</ele>
        <time>2017-03-17T10:23:47Z</time>
      </trkpt>
      <trkpt lat="46.06223" lon="4.78168">
        <ele>206</ele>
        <time>2017-03-17T10:23:48Z</time>
      </trkpt>
      <trkpt lat="46.0623" lon="4.78172">
        <ele>206</ele>
        <time>2017-03-17T10:23:49Z</time>
      </trkpt>
      <trkpt lat="46.06237" lon="4.78176">
        <ele>206</ele>
        <time>2017-03-17T10:23:50Z</time>
      </trkpt>
      <trkpt lat="46.06244" lon="4.78181">
        <ele>206</ele>
        <time>2017-03-17T10:23:51Z</time>
      </trkpt>
      <trkpt lat="46.06251" lon="4.78186">
        <ele>205</ele>
        <time>2017-03-17T10:23:52Z</time>
      </trkpt>
      <trkpt lat="46.06257" lon="4.78191">
        <ele>205</ele>
        <time>2017-03-17T10:23:53Z</time>
      </trkpt>
      <trkpt lat="46.06263" lon="4.78196">
        <ele>205</ele>
        <time>2017-03-17T10:23:54Z</time>
      </trkpt>
      <trkpt lat="46.06269" lon="4.78201">
        <ele>205</ele>
        <time>2017-03-17T10:23:55Z</time>
      </trkpt>
      <trkpt lat="46.06274" lon="4.78205">
        <ele>205</ele>
        <time>2017-03-17T10:23:56Z</time>
      </trkpt>
      <trkpt lat="46.0628" lon="4.78208">
        <ele>205</ele>
        <time>2017-03-17T10:23:57Z</time>
      </trkpt>
      <trkpt lat="46.06286" lon="4.78212">
        <ele>205</ele>
        <time>2017-03-17T10:23:58Z</time>
      </trkpt>
      <trkpt lat="46.06292" lon="4.78216">
        <ele>205</ele>
        <time>2017-03-17T10:23:59Z</time>
      </trkpt>
      <trkpt lat="46.06298" lon="4.78221">
        <ele>205</ele>
        <time>2017-03-17T10:24:00Z</time>
      </trkpt>
      <trkpt lat="46.06304" lon="4.78226">
        <ele>205</ele>
        <time>2017-03-17T10:24:01Z</time>
      </trkpt>
      <trkpt lat="46.06309" lon="4.7823">
        <ele>205</ele>
        <time>2017-03-17T10:24:02Z</time>
      </trkpt>
      <trkpt lat="46.06315" lon="4.78234">
        <ele>206</ele>
        <time>2017-03-17T10:24:03Z</time>
      </trkpt>
      <trkpt lat="46.06322" lon="4.78237">
        <ele>206</ele>
        <time>2017-03-17T10:24:04Z</time>
      </trkpt>
      <trkpt lat="46.06328" lon="4.78239">
        <ele>206</ele>
        <time>2017-03-17T10:24:05Z</time>
      </trkpt>
      <trkpt lat="46.06333" lon="4.7824">
        <ele>206</ele>
        <time>2017-03-17T10:24:06Z</time>
      </trkpt>
      <trkpt lat="46.06339" lon="4.78241">
        <ele>205</ele>
        <time>2017-03-17T10:24:07Z</time>
      </trkpt>
      <trkpt lat="46.06344" lon="4.78239">
        <ele>205</ele>
        <time>2017-03-17T10:24:08Z</time>
      </trkpt>
      <trkpt lat="46.06348" lon="4.78236">
        <ele>205</ele>
        <time>2017-03-17T10:24:09Z</time>
      </trkpt>
      <trkpt lat="46.06353" lon="4.78232">
        <ele>205</ele>
        <time>2017-03-17T10:24:10Z</time>
      </trkpt>
      <trkpt lat="46.06358" lon="4.78227">
        <ele>205</ele>
        <time>2017-03-17T10:24:11Z</time>
      </trkpt>
      <trkpt lat="46.06363" lon="4.78223">
        <ele>205</ele>
        <time>2017-03-17T10:24:12Z</time>
      </trkpt>
      <trkpt lat="46.06368" lon="4.78217">
        <ele>204</ele>
        <time>2017-03-17T10:24:13Z</time>
      </trkpt>
      <trkpt lat="46.06373" lon="4.78211">
        <ele>204</ele>
        <time>2017-03-17T10:24:14Z</time>
      </trkpt>
      <trkpt lat="46.06379" lon="4.78205">
        <ele>204</ele>
        <time>2017-03-17T10:24:15Z</time>
      </trkpt>
      <trkpt lat="46.06383" lon="4.78199">
        <ele>204</ele>
        <time>2017-03-17T10:24:16Z</time>
      </trkpt>
      <trkpt lat="46.06385" lon="4.78193">
        <ele>204</ele>
        <time>2017-03-17T10:24:17Z</time>
      </trkpt>
      <trkpt lat="46.06386" lon="4.78186">
        <ele>204</ele>
        <time>2017-03-17T10:24:18Z</time>
      </trkpt>
      <trkpt lat="46.06385" lon="4.78178">
        <ele>204</ele>
        <time>2017-03-17T10:24:19Z</time>
      </trkpt>
      <trkpt lat="46.06384" lon="4.7817">
        <ele>204</ele>
        <time>2017-03-17T10:24:20Z</time>
      </trkpt>
      <trkpt lat="46.06384" lon="4.78162">
        <ele>201</ele>
        <time>2017-03-17T10:24:21Z</time>
      </trkpt>
      <trkpt lat="46.06384" lon="4.78153">
        <ele>201</ele>
        <time>2017-03-17T10:24:22Z</time>
      </trkpt>
      <trkpt lat="46.06384" lon="4.78144">
        <ele>201</ele>
        <time>2017-03-17T10:24:23Z</time>
      </trkpt>
      <trkpt lat="46.06384" lon="4.78136">
        <ele>201</ele>
        <time>2017-03-17T10:24:24Z</time>
      </trkpt>
      <trkpt lat="46.06385" lon="4.78127">
        <ele>201</ele>
        <time>2017-03-17T10:24:25Z</time>
      </trkpt>
      <trkpt lat="46.06386" lon="4.78118">
        <ele>200</ele>
        <time>2017-03-17T10:24:26Z</time>
      </trkpt>
      <trkpt lat="46.06387" lon="4.7811">
        <ele>200</ele>
        <time>2017-03-17T10:24:27Z</time>
      </trkpt>
      <trkpt lat="46.06388" lon="4.78102">
        <ele>200</ele>
        <time>2017-03-17T10:24:28Z</time>
      </trkpt>
      <trkpt lat="46.0639" lon="4.78094">
        <ele>200</ele>
        <time>2017-03-17T10:24:29Z</time>
      </trkpt>
      <trkpt lat="46.06393" lon="4.78087">
        <ele>200</ele>
        <time>2017-03-17T10:24:30Z</time>
      </trkpt>
      <trkpt lat="46.06396" lon="4.78079">
        <ele>198</ele>
        <time>2017-03-17T10:24:31Z</time>
      </trkpt>
      <trkpt lat="46.06398" lon="4.78072">
        <ele>198</ele>
        <time>2017-03-17T10:24:32Z</time>
      </trkpt>
      <trkpt lat="46.06402" lon="4.78065">
        <ele>198</ele>
        <time>2017-03-17T10:24:33Z</time>
      </trkpt>
      <trkpt lat="46.06405" lon="4.78059">
        <ele>198</ele>
        <time>2017-03-17T10:24:34Z</time>
      </trkpt>
      <trkpt lat="46.06409" lon="4.78053">
        <ele>198</ele>
        <time>2017-03-17T10:24:35Z</time>
      </trkpt>
      <trkpt lat="46.06413" lon="4.78047">
        <ele>197</ele>
        <time>2017-03-17T10:24:36Z</time>
      </trkpt>
      <trkpt lat="46.06418" lon="4.78042">
        <ele>198</ele>
        <time>2017-03-17T10:24:37Z</time>
      </trkpt>
      <trkpt lat="46.06423" lon="4.78037">
        <ele>198</ele>
        <time>2017-03-17T10:24:38Z</time>
      </trkpt>
      <trkpt lat="46.06428" lon="4.7803">
        <ele>198</ele>
        <time>2017-03-17T10:24:39Z</time>
      </trkpt>
      <trkpt lat="46.06433" lon="4.78023">
        <ele>198</ele>
        <time>2017-03-17T10:24:40Z</time>
      </trkpt>
      <trkpt lat="46.06437" lon="4.78015">
        <ele>197</ele>
        <time>2017-03-17T10:24:41Z</time>
      </trkpt>
      <trkpt lat="46.0644" lon="4.78006">
        <ele>197</ele>
        <time>2017-03-17T10:24:42Z</time>
      </trkpt>
      <trkpt lat="46.06442" lon="4.77996">
        <ele>195</ele>
        <time>2017-03-17T10:24:43Z</time>
      </trkpt>
      <trkpt lat="46.06444" lon="4.77986">
        <ele>195</ele>
        <time>2017-03-17T10:24:44Z</time>
      </trkpt>
      <trkpt lat="46.06446" lon="4.77976">
        <ele>195</ele>
        <time>2017-03-17T10:24:45Z</time>
      </trkpt>
      <trkpt lat="46.06448" lon="4.77964">
        <ele>195</ele>
        <time>2017-03-17T10:24:46Z</time>
      </trkpt>
      <trkpt lat="46.06451" lon="4.77953">
        <ele>195</ele>
        <time>2017-03-17T10:24:47Z</time>
      </trkpt>
      <trkpt lat="46.06454" lon="4.77942">
        <ele>195</ele>
        <time>2017-03-17T10:24:48Z</time>
      </trkpt>
      <trkpt lat="46.06457" lon="4.7793">
        <ele>195</ele>
        <time>2017-03-17T10:24:49Z</time>
      </trkpt>
      <trkpt lat="46.06461" lon="4.77919">
        <ele>194</ele>
        <time>2017-03-17T10:24:50Z</time>
      </trkpt>
      <trkpt lat="46.06465" lon="4.77908">
        <ele>193</ele>
        <time>2017-03-17T10:24:51Z</time>
      </trkpt>
      <trkpt lat="46.06469" lon="4.77896">
        <ele>193</ele>
        <time>2017-03-17T10:24:52Z</time>
      </trkpt>
      <trkpt lat="46.06473" lon="4.77885">
        <ele>193</ele>
        <time>2017-03-17T10:24:53Z</time>
      </trkpt>
      <trkpt lat="46.06478" lon="4.77873">
        <ele>193</ele>
        <time>2017-03-17T10:24:54Z</time>
      </trkpt>
      <trkpt lat="46.06482" lon="4.77861">
        <ele>192</ele>
        <time>2017-03-17T10:24:55Z</time>
      </trkpt>
      <trkpt lat="46.06486" lon="4.77849">
        <ele>192</ele>
        <time>2017-03-17T10:24:56Z</time>
      </trkpt>
      <trkpt lat="46.06491" lon="4.77838">
        <ele>192</ele>
        <time>2017-03-17T10:24:57Z</time>
      </trkpt>
      <trkpt lat="46.06495" lon="4.77826">
        <ele>192</ele>
        <time>2017-03-17T10:24:58Z</time>
      </trkpt>
      <trkpt lat="46.065" lon="4.77815">
        <ele>192</ele>
        <time>2017-03-17T10:24:59Z</time>
      </trkpt>
      <trkpt lat="46.06505" lon="4.77803">
        <ele>192</ele>
        <time>2017-03-17T10:25:00Z</time>
      </trkpt>
      <trkpt lat="46.06511" lon="4.77792">
        <ele>192</ele>
        <time>2017-03-17T10:25:01Z</time>
      </trkpt>
      <trkpt lat="46.06517" lon="4.77782">
        <ele>192</ele>
        <time>2017-03-17T10:25:02Z</time>
      </trkpt>
      <trkpt lat="46.06523" lon="4.77772">
        <ele>192</ele>
        <time>2017-03-17T10:25:03Z</time>
      </trkpt>
      <trkpt lat="46.06529" lon="4.77761">
        <ele>192</ele>
        <time>2017-03-17T10:25:04Z</time>
      </trkpt>
      <trkpt lat="46.06534" lon="4.77751">
        <ele>191</ele>
        <time>2017-03-17T10:25:05Z</time>
      </trkpt>
      <trkpt lat="46.06539" lon="4.7774">
        <ele>190</ele>
        <time>2017-03-17T10:25:06Z</time>
      </trkpt>
      <trkpt lat="46.06544" lon="4.7773">
        <ele>190</ele>
        <time>2017-03-17T10:25:07Z</time>
      </trkpt>
      <trkpt lat="46.06549" lon="4.7772">
        <ele>189</ele>
        <time>2017-03-17T10:25:08Z</time>
      </trkpt>
      <trkpt lat="46.06555" lon="4.77712">
        <ele>189</ele>
        <time>2017-03-17T10:25:09Z</time>
      </trkpt>
      <trkpt lat="46.06562" lon="4.77704">
        <ele>189</ele>
        <time>2017-03-17T10:25:10Z</time>
      </trkpt>
      <trkpt lat="46.0657" lon="4.77699">
        <ele>188</ele>
        <time>2017-03-17T10:25:11Z</time>
      </trkpt>
      <trkpt lat="46.06577" lon="4.77695">
        <ele>188</ele>
        <time>2017-03-17T10:25:12Z</time>
      </trkpt>
      <trkpt lat="46.06585" lon="4.77691">
        <ele>187</ele>
        <time>2017-03-17T10:25:13Z</time>
      </trkpt>
      <trkpt lat="46.06593" lon="4.77687">
        <ele>187</ele>
        <time>2017-03-17T10:25:14Z</time>
      </trkpt>
      <trkpt lat="46.066" lon="4.77683">
        <ele>187</ele>
        <time>2017-03-17T10:25:15Z</time>
      </trkpt>
      <trkpt lat="46.06607" lon="4.77678">
        <ele>187</ele>
        <time>2017-03-17T10:25:16Z</time>
      </trkpt>
      <trkpt lat="46.06613" lon="4.77671">
        <ele>187</ele>
        <time>2017-03-17T10:25:17Z</time>
      </trkpt>
      <trkpt lat="46.06618" lon="4.77661">
        <ele>185</ele>
        <time>2017-03-17T10:25:18Z</time>
      </trkpt>
      <trkpt lat="46.06622" lon="4.7765">
        <ele>185</ele>
        <time>2017-03-17T10:25:19Z</time>
      </trkpt>
      <trkpt lat="46.06625" lon="4.77638">
        <ele>185</ele>
        <time>2017-03-17T10:25:20Z</time>
      </trkpt>
      <trkpt lat="46.06627" lon="4.77627">
        <ele>185</ele>
        <time>2017-03-17T10:25:21Z</time>
      </trkpt>
      <trkpt lat="46.06628" lon="4.77615">
        <ele>185</ele>
        <time>2017-03-17T10:25:22Z</time>
      </trkpt>
      <trkpt lat="46.06629" lon="4.77602">
        <ele>185</ele>
        <time>2017-03-17T10:25:23Z</time>
      </trkpt>
      <trkpt lat="46.0663" lon="4.7759">
        <ele>185</ele>
        <time>2017-03-17T10:25:24Z</time>
      </trkpt>
      <trkpt lat="46.0663" lon="4.77577">
        <ele>183</ele>
        <time>2017-03-17T10:25:25Z</time>
      </trkpt>
      <trkpt lat="46.06629" lon="4.77564">
        <ele>183</ele>
        <time>2017-03-17T10:25:26Z</time>
      </trkpt>
      <trkpt lat="46.06628" lon="4.77551">
        <ele>183</ele>
        <time>2017-03-17T10:25:27Z</time>
      </trkpt>
      <trkpt lat="46.06625" lon="4.77538">
        <ele>183</ele>
        <time>2017-03-17T10:25:28Z</time>
      </trkpt>
      <trkpt lat="46.06621" lon="4.77526">
        <ele>183</ele>
        <time>2017-03-17T10:25:29Z</time>
      </trkpt>
      <trkpt lat="46.06617" lon="4.77514">
        <ele>183</ele>
        <time>2017-03-17T10:25:30Z</time>
      </trkpt>
      <trkpt lat="46.06611" lon="4.77502">
        <ele>183</ele>
        <time>2017-03-17T10:25:31Z</time>
      </trkpt>
      <trkpt lat="46.06606" lon="4.77491">
        <ele>181</ele>
        <time>2017-03-17T10:25:32Z</time>
      </trkpt>
      <trkpt lat="46.066" lon="4.7748">
        <ele>181</ele>
        <time>2017-03-17T10:25:33Z</time>
      </trkpt>
      <trkpt lat="46.06596" lon="4.77468">
        <ele>181</ele>
        <time>2017-03-17T10:25:34Z</time>
      </trkpt>
      <trkpt lat="46.06594" lon="4.77456">
        <ele>180</ele>
        <time>2017-03-17T10:25:35Z</time>
      </trkpt>
      <trkpt lat="46.06596" lon="4.77444">
        <ele>180</ele>
        <time>2017-03-17T10:25:36Z</time>
      </trkpt>
      <trkpt lat="46.06599" lon="4.77434">
        <ele>179</ele>
        <time>2017-03-17T10:25:37Z</time>
      </trkpt>
      <trkpt lat="46.06604" lon="4.77424">
        <ele>179</ele>
        <time>2017-03-17T10:25:38Z</time>
      </trkpt>
      <trkpt lat="46.06608" lon="4.77415">
        <ele>177</ele>
        <time>2017-03-17T10:25:39Z</time>
      </trkpt>
      <trkpt lat="46.06613" lon="4.77404">
        <ele>177</ele>
        <time>2017-03-17T10:25:40Z</time>
      </trkpt>
      <trkpt lat="46.06617" lon="4.77394">
        <ele>177</ele>
        <time>2017-03-17T10:25:41Z</time>
      </trkpt>
      <trkpt lat="46.0662" lon="4.77384">
        <ele>176</ele>
        <time>2017-03-17T10:25:42Z</time>
      </trkpt>
      <trkpt lat="46.06624" lon="4.77374">
        <ele>176</ele>
        <time>2017-03-17T10:25:43Z</time>
      </trkpt>
      <trkpt lat="46.06628" lon="4.77363">
        <ele>176</ele>
        <time>2017-03-17T10:25:44Z</time>
      </trkpt>
      <trkpt lat="46.06632" lon="4.77354">
        <ele>176</ele>
        <time>2017-03-17T10:25:45Z</time>
      </trkpt>
      <trkpt lat="46.06636" lon="4.77344">
        <ele>176</ele>
        <time>2017-03-17T10:25:46Z</time>
      </trkpt>
      <trkpt lat="46.0664" lon="4.77334">
        <ele>175</ele>
        <time>2017-03-17T10:25:47Z</time>
      </trkpt>
      <trkpt lat="46.06644" lon="4.77324">
        <ele>174</ele>
        <time>2017-03-17T10:25:48Z</time>
      </trkpt>
      <trkpt lat="46.06648" lon="4.77314">
        <ele>174</ele>
        <time>2017-03-17T10:25:49Z</time>
      </trkpt>
      <trkpt lat="46.06651" lon="4.77304">
        <ele>174</ele>
        <time>2017-03-17T10:25:50Z</time>
      </trkpt>
      <trkpt lat="46.06655" lon="4.77295">
        <ele>174</ele>
        <time>2017-03-17T10:25:51Z</time>
      </trkpt>
      <trkpt lat="46.06658" lon="4.77286">
        <ele>174</ele>
        <time>2017-03-17T10:25:52Z</time>
      </trkpt>
      <trkpt lat="46.06662" lon="4.77277">
        <ele>174</ele>
        <time>2017-03-17T10:25:53Z</time>
      </trkpt>
      <trkpt lat="46.06666" lon="4.77268">
        <ele>173</ele>
        <time>2017-03-17T10:25:54Z</time>
      </trkpt>
      <trkpt lat="46.06669" lon="4.7726">
        <ele>173</ele>
        <time>2017-03-17T10:25:55Z</time>
      </trkpt>
      <trkpt lat="46.06672" lon="4.77251">
        <ele>173</ele>
        <time>2017-03-17T10:25:56Z</time>
      </trkpt>
      <trkpt lat="46.06675" lon="4.77242">
        <ele>173</ele>
        <time>2017-03-17T10:25:57Z</time>
      </trkpt>
      <trkpt lat="46.06678" lon="4.77233">
        <ele>172</ele>
        <time>2017-03-17T10:25:58Z</time>
      </trkpt>
      <trkpt lat="46.06681" lon="4.77225">
        <ele>172</ele>
        <time>2017-03-17T10:25:59Z</time>
      </trkpt>
      <trkpt lat="46.06683" lon="4.77216">
        <ele>172</ele>
        <time>2017-03-17T10:26:00Z</time>
      </trkpt>
      <trkpt lat="46.06687" lon="4.77209">
        <ele>172</ele>
        <time>2017-03-17T10:26:01Z</time>
      </trkpt>
      <trkpt lat="46.06691" lon="4.77203">
        <ele>172</ele>
        <time>2017-03-17T10:26:02Z</time>
      </trkpt>
      <trkpt lat="46.06696" lon="4.77199">
        <ele>172</ele>
        <time>2017-03-17T10:26:03Z</time>
      </trkpt>
      <trkpt lat="46.06702" lon="4.77197">
        <ele>172</ele>
        <time>2017-03-17T10:26:04Z</time>
      </trkpt>
      <trkpt lat="46.06708" lon="4.77196">
        <ele>172</ele>
        <time>2017-03-17T10:26:05Z</time>
      </trkpt>
      <trkpt lat="46.06713" lon="4.77195">
        <ele>172</ele>
        <time>2017-03-17T10:26:06Z</time>
      </trkpt>
      <trkpt lat="46.06719" lon="4.77194">
        <ele>172</ele>
        <time>2017-03-17T10:26:07Z</time>
      </trkpt>
      <trkpt lat="46.06724" lon="4.77191">
        <ele>172</ele>
        <time>2017-03-17T10:26:08Z</time>
      </trkpt>
      <trkpt lat="46.06729" lon="4.77188">
        <ele>172</ele>
        <time>2017-03-17T10:26:09Z</time>
      </trkpt>
      <trkpt lat="46.06734" lon="4.77185">
        <ele>172</ele>
        <time>2017-03-17T10:26:10Z</time>
      </trkpt>
      <trkpt lat="46.06739" lon="4.77181">
        <ele>172</ele>
        <time>2017-03-17T10:26:11Z</time>
      </trkpt>
      <trkpt lat="46.06744" lon="4.77177">
        <ele>172</ele>
        <time>2017-03-17T10:26:12Z</time>
      </trkpt>
      <trkpt lat="46.06749" lon="4.77173">
        <ele>172</ele>
        <time>2017-03-17T10:26:13Z</time>
      </trkpt>
      <trkpt lat="46.06754" lon="4.77168">
        <ele>172</ele>
        <time>2017-03-17T10:26:14Z</time>
      </trkpt>
      <trkpt lat="46.06759" lon="4.77162">
        <ele>172</ele>
        <time>2017-03-17T10:26:15Z</time>
      </trkpt>
      <trkpt lat="46.06764" lon="4.77157">
        <ele>172</ele>
        <time>2017-03-17T10:26:16Z</time>
      </trkpt>
      <trkpt lat="46.06769" lon="4.77152">
        <ele>172</ele>
        <time>2017-03-17T10:26:17Z</time>
      </trkpt>
      <trkpt lat="46.06773" lon="4.77146">
        <ele>172</ele>
        <time>2017-03-17T10:26:18Z</time>
      </trkpt>
      <trkpt lat="46.06778" lon="4.77141">
        <ele>172</ele>
        <time>2017-03-17T10:26:19Z</time>
      </trkpt>
      <trkpt lat="46.06782" lon="4.77136">
        <ele>172</ele>
        <time>2017-03-17T10:26:20Z</time>
      </trkpt>
      <trkpt lat="46.06787" lon="4.77131">
        <ele>172</ele>
        <time>2017-03-17T10:26:21Z</time>
      </trkpt>
      <trkpt lat="46.06791" lon="4.77126">
        <ele>172</ele>
        <time>2017-03-17T10:26:22Z</time>
      </trkpt>
      <trkpt lat="46.06796" lon="4.77121">
        <ele>172</ele>
        <time>2017-03-17T10:26:23Z</time>
      </trkpt>
      <trkpt lat="46.06801" lon="4.77116">
        <ele>172</ele>
        <time>2017-03-17T10:26:24Z</time>
      </trkpt>
      <trkpt lat="46.06807" lon="4.77111">
        <ele>172</ele>
        <time>2017-03-17T10:26:25Z</time>
      </trkpt>
      <trkpt lat="46.06812" lon="4.77106">
        <ele>172</ele>
        <time>2017-03-17T10:26:26Z</time>
      </trkpt>
      <trkpt lat="46.06818" lon="4.77102">
        <ele>173</ele>
        <time>2017-03-17T10:26:27Z</time>
      </trkpt>
      <trkpt lat="46.06823" lon="4.77097">
        <ele>173</ele>
        <time>2017-03-17T10:26:28Z</time>
      </trkpt>
      <trkpt lat="46.06829" lon="4.77093">
        <ele>173</ele>
        <time>2017-03-17T10:26:29Z</time>
      </trkpt>
      <trkpt lat="46.06835" lon="4.7709">
        <ele>173</ele>
        <time>2017-03-17T10:26:30Z</time>
      </trkpt>
      <trkpt lat="46.06841" lon="4.77086">
        <ele>173</ele>
        <time>2017-03-17T10:26:31Z</time>
      </trkpt>
      <trkpt lat="46.06847" lon="4.77084">
        <ele>173</ele>
        <time>2017-03-17T10:26:32Z</time>
      </trkpt>
      <trkpt lat="46.06853" lon="4.77081">
        <ele>173</ele>
        <time>2017-03-17T10:26:33Z</time>
      </trkpt>
      <trkpt lat="46.06859" lon="4.77079">
        <ele>173</ele>
        <time>2017-03-17T10:26:34Z</time>
      </trkpt>
      <trkpt lat="46.06865" lon="4.77078">
        <ele>173</ele>
        <time>2017-03-17T10:26:35Z</time>
      </trkpt>
      <trkpt lat="46.06871" lon="4.77077">
        <ele>173</ele>
        <time>2017-03-17T10:26:36Z</time>
      </trkpt>
      <trkpt lat="46.06877" lon="4.77076">
        <ele>173</ele>
        <time>2017-03-17T10:26:37Z</time>
      </trkpt>
      <trkpt lat="46.06883" lon="4.77074">
        <ele>173</ele>
        <time>2017-03-17T10:26:38Z</time>
      </trkpt>
      <trkpt lat="46.0689" lon="4.77073">
        <ele>173</ele>
        <time>2017-03-17T10:26:39Z</time>
      </trkpt>
      <trkpt lat="46.06896" lon="4.77071">
        <ele>173</ele>
        <time>2017-03-17T10:26:40Z</time>
      </trkpt>
      <trkpt lat="46.06903" lon="4.77071">
        <ele>173</ele>
        <time>2017-03-17T10:26:41Z</time>
      </trkpt>
      <trkpt lat="46.0691" lon="4.77072">
        <ele>173</ele>
        <time>2017-03-17T10:26:42Z</time>
      </trkpt>
      <trkpt lat="46.06916" lon="4.77072">
        <ele>173</ele>
        <time>2017-03-17T10:26:43Z</time>
      </trkpt>
      <trkpt lat="46.06923" lon="4.77072">
        <ele>173</ele>
        <time>2017-03-17T10:26:44Z</time>
      </trkpt>
      <trkpt lat="46.06929" lon="4.77072">
        <ele>173</ele>
        <time>2017-03-17T10:26:45Z</time>
      </trkpt>
      <trkpt lat="46.06936" lon="4.77073">
        <ele>173</ele>
        <time>2017-03-17T10:26:46Z</time>
      </trkpt>
      <trkpt lat="46.06942" lon="4.77072">
        <ele>173</ele>
        <time>2017-03-17T10:26:47Z</time>
      </trkpt>
      <trkpt lat="46.06947" lon="4.77072">
        <ele>173</ele>
        <time>2017-03-17T10:26:48Z</time>
      </trkpt>
      <trkpt lat="46.06953" lon="4.77072">
        <ele>173</ele>
        <time>2017-03-17T10:26:49Z</time>
      </trkpt>
      <trkpt lat="46.06958" lon="4.77071">
        <ele>173</ele>
        <time>2017-03-17T10:26:50Z</time>
      </trkpt>
      <trkpt lat="46.06964" lon="4.77071">
        <ele>173</ele>
        <time>2017-03-17T10:26:51Z</time>
      </trkpt>
      <trkpt lat="46.06969" lon="4.7707">
        <ele>173</ele>
        <time>2017-03-17T10:26:52Z</time>
      </trkpt>
      <trkpt lat="46.06975" lon="4.77068">
        <ele>173</ele>
        <time>2017-03-17T10:26:53Z</time>
      </trkpt>
      <trkpt lat="46.0698" lon="4.77065">
        <ele>173</ele>
        <time>2017-03-17T10:26:54Z</time>
      </trkpt>
      <trkpt lat="46.06984" lon="4.7706">
        <ele>173</ele>
        <time>2017-03-17T10:26:55Z</time>
      </trkpt>
      <trkpt lat="46.06987" lon="4.77053">
        <ele>173</ele>
        <time>2017-03-17T10:26:56Z</time>
      </trkpt>
      <trkpt lat="46.0699" lon="4.77046">
        <ele>173</ele>
        <time>2017-03-17T10:26:57Z</time>
      </trkpt>
      <trkpt lat="46.06992" lon="4.77037">
        <ele>173</ele>
        <time>2017-03-17T10:26:58Z</time>
      </trkpt>
      <trkpt lat="46.06995" lon="4.7703">
        <ele>173</ele>
        <time>2017-03-17T10:26:59Z</time>
      </trkpt>
      <trkpt lat="46.06998" lon="4.77023">
        <ele>173</ele>
        <time>2017-03-17T10:27:00Z</time>
      </trkpt>
      <trkpt lat="46.07002" lon="4.77015">
        <ele>174</ele>
        <time>2017-03-17T10:27:01Z</time>
      </trkpt>
      <trkpt lat="46.07005" lon="4.77008">
        <ele>173</ele>
        <time>2017-03-17T10:27:02Z</time>
      </trkpt>
      <trkpt lat="46.07009" lon="4.77">
        <ele>173</ele>
        <time>2017-03-17T10:27:03Z</time>
      </trkpt>
      <trkpt lat="46.07013" lon="4.76992">
        <ele>173</ele>
        <time>2017-03-17T10:27:04Z</time>
      </trkpt>
      <trkpt lat="46.07017" lon="4.76985">
        <ele>173</ele>
        <time>2017-03-17T10:27:05Z</time>
      </trkpt>
      <trkpt lat="46.07021" lon="4.76978">
        <ele>173</ele>
        <time>2017-03-17T10:27:06Z</time>
      </trkpt>
      <trkpt lat="46.07024" lon="4.76971">
        <ele>173</ele>
        <time>2017-03-17T10:27:07Z</time>
      </trkpt>
      <trkpt lat="46.07028" lon="4.76964">
        <ele>173</ele>
        <time>2017-03-17T10:27:08Z</time>
      </trkpt>
      <trkpt lat="46.07031" lon="4.76956">
        <ele>173</ele>
        <time>2017-03-17T10:27:09Z</time>
      </trkpt>
      <trkpt lat="46.07035" lon="4.76949">
        <ele>173</ele>
        <time>2017-03-17T10:27:10Z</time>
      </trkpt>
      <trkpt lat="46.07039" lon="4.76942">
        <ele>173</ele>
        <time>2017-03-17T10:27:11Z</time>
      </trkpt>
      <trkpt lat="46.07042" lon="4.76936">
        <ele>173</ele>
        <time>2017-03-17T10:27:12Z</time>
      </trkpt>
      <trkpt lat="46.07046" lon="4.76929">
        <ele>173</ele>
        <time>2017-03-17T10:27:13Z</time>
      </trkpt>
      <trkpt lat="46.07049" lon="4.76922">
        <ele>173</ele>
        <time>2017-03-17T10:27:14Z</time>
      </trkpt>
      <trkpt lat="46.07053" lon="4.76915">
        <ele>172</ele>
        <time>2017-03-17T10:27:15Z</time>
      </trkpt>
      <trkpt lat="46.07056" lon="4.76908">
        <ele>172</ele>
        <time>2017-03-17T10:27:16Z</time>
      </trkpt>
      <trkpt lat="46.07059" lon="4.76901">
        <ele>172</ele>
        <time>2017-03-17T10:27:17Z</time>
      </trkpt>
      <trkpt lat="46.07063" lon="4.76894">
        <ele>172</ele>
        <time>2017-03-17T10:27:18Z</time>
      </trkpt>
      <trkpt lat="46.07067" lon="4.76887">
        <ele>172</ele>
        <time>2017-03-17T10:27:19Z</time>
      </trkpt>
      <trkpt lat="46.07071" lon="4.76879">
        <ele>172</ele>
        <time>2017-03-17T10:27:20Z</time>
      </trkpt>
      <trkpt lat="46.07074" lon="4.76872">
        <ele>172</ele>
        <time>2017-03-17T10:27:21Z</time>
      </trkpt>
      <trkpt lat="46.07077" lon="4.76865">
        <ele>172</ele>
        <time>2017-03-17T10:27:22Z</time>
      </trkpt>
      <trkpt lat="46.07081" lon="4.76858">
        <ele>172</ele>
        <time>2017-03-17T10:27:23Z</time>
      </trkpt>
      <trkpt lat="46.07084" lon="4.76851">
        <ele>172</ele>
        <time>2017-03-17T10:27:24Z</time>
      </trkpt>
      <trkpt lat="46.07088" lon="4.76845">
        <ele>172</ele>
        <time>2017-03-17T10:27:25Z</time>
      </trkpt>
      <trkpt lat="46.07091" lon="4.76838">
        <ele>172</ele>
        <time>2017-03-17T10:27:26Z</time>
      </trkpt>
      <trkpt lat="46.07094" lon="4.76832">
        <ele>172</ele>
        <time>2017-03-17T10:27:27Z</time>
      </trkpt>
      <trkpt lat="46.07098" lon="4.76824">
        <ele>172</ele>
        <time>2017-03-17T10:27:28Z</time>
      </trkpt>
      <trkpt lat="46.07101" lon="4.76817">
        <ele>172</ele>
        <time>2017-03-17T10:27:29Z</time>
      </trkpt>
      <trkpt lat="46.07105" lon="4.76809">
        <ele>172</ele>
        <time>2017-03-17T10:27:30Z</time>
      </trkpt>
      <trkpt lat="46.07109" lon="4.76801">
        <ele>172</ele>
        <time>2017-03-17T10:27:31Z</time>
      </trkpt>
      <trkpt lat="46.07113" lon="4.76793">
        <ele>172</ele>
        <time>2017-03-17T10:27:32Z</time>
      </trkpt>
      <trkpt lat="46.07117" lon="4.76785">
        <ele>171</ele>
        <time>2017-03-17T10:27:33Z</time>
      </trkpt>
      <trkpt lat="46.07121" lon="4.76778">
        <ele>171</ele>
        <time>2017-03-17T10:27:34Z</time>
      </trkpt>
      <trkpt lat="46.07125" lon="4.7677">
        <ele>171</ele>
        <time>2017-03-17T10:27:35Z</time>
      </trkpt>
      <trkpt lat="46.07129" lon="4.76762">
        <ele>171</ele>
        <time>2017-03-17T10:27:36Z</time>
      </trkpt>
      <trkpt lat="46.07133" lon="4.76755">
        <ele>171</ele>
        <time>2017-03-17T10:27:37Z</time>
      </trkpt>
      <trkpt lat="46.07136" lon="4.76748">
        <ele>171</ele>
        <time>2017-03-17T10:27:38Z</time>
      </trkpt>
      <trkpt lat="46.0714" lon="4.7674">
        <ele>171</ele>
        <time>2017-03-17T10:27:39Z</time>
      </trkpt>
      <trkpt lat="46.07143" lon="4.76733">
        <ele>171</ele>
        <time>2017-03-17T10:27:40Z</time>
      </trkpt>
      <trkpt lat="46.07147" lon="4.76727">
        <ele>170</ele>
        <time>2017-03-17T10:27:41Z</time>
      </trkpt>
      <trkpt lat="46.0715" lon="4.7672">
        <ele>170</ele>
        <time>2017-03-17T10:27:42Z</time>
      </trkpt>
      <trkpt lat="46.07154" lon="4.76714">
        <ele>170</ele>
        <time>2017-03-17T10:27:43Z</time>
      </trkpt>
      <trkpt lat="46.07157" lon="4.76708">
        <ele>170</ele>
        <time>2017-03-17T10:27:44Z</time>
      </trkpt>
      <trkpt lat="46.07161" lon="4.76701">
        <ele>170</ele>
        <time>2017-03-17T10:27:45Z</time>
      </trkpt>
      <trkpt lat="46.07164" lon="4.76695">
        <ele>170</ele>
        <time>2017-03-17T10:27:46Z</time>
      </trkpt>
      <trkpt lat="46.07167" lon="4.76688">
        <ele>170</ele>
        <time>2017-03-17T10:27:47Z</time>
      </trkpt>
      <trkpt lat="46.07171" lon="4.76682">
        <ele>170</ele>
        <time>2017-03-17T10:27:48Z</time>
      </trkpt>
      <trkpt lat="46.07174" lon="4.76675">
        <ele>170</ele>
        <time>2017-03-17T10:27:49Z</time>
      </trkpt>
      <trkpt lat="46.07178" lon="4.76668">
        <ele>170</ele>
        <time>2017-03-17T10:27:50Z</time>
      </trkpt>
      <trkpt lat="46.07181" lon="4.76661">
        <ele>170</ele>
        <time>2017-03-17T10:27:51Z</time>
      </trkpt>
      <trkpt lat="46.07185" lon="4.76654">
        <ele>170</ele>
        <time>2017-03-17T10:27:52Z</time>
      </trkpt>
      <trkpt lat="46.07189" lon="4.76647">
        <ele>170</ele>
        <time>2017-03-17T10:27:53Z</time>
      </trkpt>
      <trkpt lat="46.07194" lon="4.7664">
        <ele>170</ele>
        <time>2017-03-17T10:27:54Z</time>
      </trkpt>
      <trkpt lat="46.07198" lon="4.76634">
        <ele>170</ele>
        <time>2017-03-17T10:27:55Z</time>
      </trkpt>
      <trkpt lat="46.07202" lon="4.76628">
        <ele>170</ele>
        <time>2017-03-17T10:27:56Z</time>
      </trkpt>
      <trkpt lat="46.07206" lon="4.76621">
        <ele>171</ele>
        <time>2017-03-17T10:27:57Z</time>
      </trkpt>
      <trkpt lat="46.0721" lon="4.76616">
        <ele>170</ele>
        <time>2017-03-17T10:27:58Z</time>
      </trkpt>
      <trkpt lat="46.07215" lon="4.7661">
        <ele>170</ele>
        <time>2017-03-17T10:27:59Z</time>
      </trkpt>
      <trkpt lat="46.0722" lon="4.76604">
        <ele>170</ele>
        <time>2017-03-17T10:28:00Z</time>
      </trkpt>
      <trkpt lat="46.07224" lon="4.76598">
        <ele>170</ele>
        <time>2017-03-17T10:28:01Z</time>
      </trkpt>
      <trkpt lat="46.07229" lon="4.76592">
        <ele>170</ele>
        <time>2017-03-17T10:28:02Z</time>
      </trkpt>
      <trkpt lat="46.07233" lon="4.76586">
        <ele>170</ele>
        <time>2017-03-17T10:28:03Z</time>
      </trkpt>
      <trkpt lat="46.07238" lon="4.7658">
        <ele>170</ele>
        <time>2017-03-17T10:28:04Z</time>
      </trkpt>
      <trkpt lat="46.07243" lon="4.76574">
        <ele>170</ele>
        <time>2017-03-17T10:28:05Z</time>
      </trkpt>
      <trkpt lat="46.07247" lon="4.76569">
        <ele>170</ele>
        <time>2017-03-17T10:28:06Z</time>
      </trkpt>
      <trkpt lat="46.07252" lon="4.76563">
        <ele>170</ele>
        <time>2017-03-17T10:28:07Z</time>
      </trkpt>
      <trkpt lat="46.07257" lon="4.76558">
        <ele>170</ele>
        <time>2017-03-17T10:28:08Z</time>
      </trkpt>
      <trkpt lat="46.07262" lon="4.76552">
        <ele>170</ele>
        <time>2017-03-17T10:28:09Z</time>
      </trkpt>
      <trkpt lat="46.07267" lon="4.76546">
        <ele>170</ele>
        <time>2017-03-17T10:28:10Z</time>
      </trkpt>
      <trkpt lat="46.07272" lon="4.7654">
        <ele>170</ele>
        <time>2017-03-17T10:28:11Z</time>
      </trkpt>
      <trkpt lat="46.07277" lon="4.76535">
        <ele>170</ele>
        <time>2017-03-17T10:28:12Z</time>
      </trkpt>
      <trkpt lat="46.07282" lon="4.76529">
        <ele>170</ele>
        <time>2017-03-17T10:28:13Z</time>
      </trkpt>
      <trkpt lat="46.07288" lon="4.76524">
        <ele>170</ele>
        <time>2017-03-17T10:28:14Z</time>
      </trkpt>
      <trkpt lat="46.07293" lon="4.76519">
        <ele>170</ele>
        <time>2017-03-17T10:28:15Z</time>
      </trkpt>
      <trkpt lat="46.07297" lon="4.76514">
        <ele>170</ele>
        <time>2017-03-17T10:28:16Z</time>
      </trkpt>
      <trkpt lat="46.07302" lon="4.76508">
        <ele>170</ele>
        <time>2017-03-17T10:28:17Z</time>
      </trkpt>
      <trkpt lat="46.07307" lon="4.76503">
        <ele>170</ele>
        <time>2017-03-17T10:28:18Z</time>
      </trkpt>
      <trkpt lat="46.07311" lon="4.76499">
        <ele>170</ele>
        <time>2017-03-17T10:28:19Z</time>
      </trkpt>
      <trkpt lat="46.07315" lon="4.76495">
        <ele>170</ele>
        <time>2017-03-17T10:28:20Z</time>
      </trkpt>
      <trkpt lat="46.0732" lon="4.7649">
        <ele>170</ele>
        <time>2017-03-17T10:28:21Z</time>
      </trkpt>
      <trkpt lat="46.07325" lon="4.76486">
        <ele>170</ele>
        <time>2017-03-17T10:28:22Z</time>
      </trkpt>
      <trkpt lat="46.07329" lon="4.76482">
        <ele>170</ele>
        <time>2017-03-17T10:28:23Z</time>
      </trkpt>
      <trkpt lat="46.07333" lon="4.76477">
        <ele>170</ele>
        <time>2017-03-17T10:28:24Z</time>
      </trkpt>
      <trkpt lat="46.07338" lon="4.76472">
        <ele>171</ele>
        <time>2017-03-17T10:28:25Z</time>
      </trkpt>
      <trkpt lat="46.07343" lon="4.76468">
        <ele>171</ele>
        <time>2017-03-17T10:28:26Z</time>
      </trkpt>
      <trkpt lat="46.07348" lon="4.76463">
        <ele>171</ele>
        <time>2017-03-17T10:28:27Z</time>
      </trkpt>
      <trkpt lat="46.07353" lon="4.76457">
        <ele>171</ele>
        <time>2017-03-17T10:28:28Z</time>
      </trkpt>
      <trkpt lat="46.07358" lon="4.76452">
        <ele>171</ele>
        <time>2017-03-17T10:28:29Z</time>
      </trkpt>
      <trkpt lat="46.07363" lon="4.76446">
        <ele>171</ele>
        <time>2017-03-17T10:28:30Z</time>
      </trkpt>
      <trkpt lat="46.07368" lon="4.76441">
        <ele>171</ele>
        <time>2017-03-17T10:28:31Z</time>
      </trkpt>
      <trkpt lat="46.07373" lon="4.76435">
        <ele>171</ele>
        <time>2017-03-17T10:28:32Z</time>
      </trkpt>
      <trkpt lat="46.07378" lon="4.76429">
        <ele>171</ele>
        <time>2017-03-17T10:28:33Z</time>
      </trkpt>
      <trkpt lat="46.07384" lon="4.76423">
        <ele>171</ele>
        <time>2017-03-17T10:28:34Z</time>
      </trkpt>
      <trkpt lat="46.07389" lon="4.76417">
        <ele>171</ele>
        <time>2017-03-17T10:28:35Z</time>
      </trkpt>
      <trkpt lat="46.07394" lon="4.76412">
        <ele>170</ele>
        <time>2017-03-17T10:28:36Z</time>
      </trkpt>
      <trkpt lat="46.07399" lon="4.76407">
        <ele>171</ele>
        <time>2017-03-17T10:28:37Z</time>
      </trkpt>
      <trkpt lat="46.07404" lon="4.76401">
        <ele>170</ele>
        <time>2017-03-17T10:28:38Z</time>
      </trkpt>
      <trkpt lat="46.07409" lon="4.76396">
        <ele>170</ele>
        <time>2017-03-17T10:28:39Z</time>
      </trkpt>
      <trkpt lat="46.07414" lon="4.76391">
        <ele>170</ele>
        <time>2017-03-17T10:28:40Z</time>
      </trkpt>
      <trkpt lat="46.07418" lon="4.76386">
        <ele>171</ele>
        <time>2017-03-17T10:28:41Z</time>
      </trkpt>
      <trkpt lat="46.07423" lon="4.76381">
        <ele>171</ele>
        <time>2017-03-17T10:28:42Z</time>
      </trkpt>
      <trkpt lat="46.07427" lon="4.76375">
        <ele>171</ele>
        <time>2017-03-17T10:28:43Z</time>
      </trkpt>
      <trkpt lat="46.07431" lon="4.7637">
        <ele>171</ele>
        <time>2017-03-17T10:28:44Z</time>
      </trkpt>
      <trkpt lat="46.07436" lon="4.76365">
        <ele>171</ele>
        <time>2017-03-17T10:28:45Z</time>
      </trkpt>
      <trkpt lat="46.0744" lon="4.76361">
        <ele>171</ele>
        <time>2017-03-17T10:28:46Z</time>
      </trkpt>
      <trkpt lat="46.07444" lon="4.76356">
        <ele>171</ele>
        <time>2017-03-17T10:28:47Z</time>
      </trkpt>
      <trkpt lat="46.07448" lon="4.76352">
        <ele>172</ele>
        <time>2017-03-17T10:28:48Z</time>
      </trkpt>
      <trkpt lat="46.07452" lon="4.76348">
        <ele>172</ele>
        <time>2017-03-17T10:28:49Z</time>
      </trkpt>
      <trkpt lat="46.07457" lon="4.76345">
        <ele>172</ele>
        <time>2017-03-17T10:28:50Z</time>
      </trkpt>
      <trkpt lat="46.07461" lon="4.76342">
        <ele>172</ele>
        <time>2017-03-17T10:28:51Z</time>
      </trkpt>
      <trkpt lat="46.07467" lon="4.76343">
        <ele>172</ele>
        <time>2017-03-17T10:28:52Z</time>
      </trkpt>
      <trkpt lat="46.07473" lon="4.76342">
        <ele>172</ele>
        <time>2017-03-17T10:28:53Z</time>
      </trkpt>
      <trkpt lat="46.07478" lon="4.7634">
        <ele>173</ele>
        <time>2017-03-17T10:28:54Z</time>
      </trkpt>
      <trkpt lat="46.07482" lon="4.76336">
        <ele>173</ele>
        <time>2017-03-17T10:28:55Z</time>
      </trkpt>
      <trkpt lat="46.07485" lon="4.7633">
        <ele>173</ele>
        <time>2017-03-17T10:28:56Z</time>
      </trkpt>
      <trkpt lat="46.07487" lon="4.76323">
        <ele>173</ele>
        <time>2017-03-17T10:28:57Z</time>
      </trkpt>
      <trkpt lat="46.07489" lon="4.76316">
        <ele>173</ele>
        <time>2017-03-17T10:28:58Z</time>
      </trkpt>
      <trkpt lat="46.07492" lon="4.7631">
        <ele>173</ele>
        <time>2017-03-17T10:28:59Z</time>
      </trkpt>
      <trkpt lat="46.07495" lon="4.76305">
        <ele>173</ele>
        <time>2017-03-17T10:29:00Z</time>
      </trkpt>
      <trkpt lat="46.075" lon="4.763">
        <ele>173</ele>
        <time>2017-03-17T10:29:01Z</time>
      </trkpt>
      <trkpt lat="46.07504" lon="4.76296">
        <ele>174</ele>
        <time>2017-03-17T10:29:02Z</time>
      </trkpt>
      <trkpt lat="46.07509" lon="4.76292">
        <ele>174</ele>
        <time>2017-03-17T10:29:03Z</time>
      </trkpt>
      <trkpt lat="46.07513" lon="4.76287">
        <ele>174</ele>
        <time>2017-03-17T10:29:04Z</time>
      </trkpt>
      <trkpt lat="46.07518" lon="4.76282">
        <ele>174</ele>
        <time>2017-03-17T10:29:05Z</time>
      </trkpt>
      <trkpt lat="46.07522" lon="4.76277">
        <ele>174</ele>
        <time>2017-03-17T10:29:06Z</time>
      </trkpt>
      <trkpt lat="46.07527" lon="4.76271">
        <ele>174</ele>
        <time>2017-03-17T10:29:07Z</time>
      </trkpt>
      <trkpt lat="46.07532" lon="4.76266">
        <ele>174</ele>
        <time>2017-03-17T10:29:08Z</time>
      </trkpt>
      <trkpt lat="46.07538" lon="4.76261">
        <ele>174</ele>
        <time>2017-03-17T10:29:09Z</time>
      </trkpt>
      <trkpt lat="46.07543" lon="4.76255">
        <ele>174</ele>
        <time>2017-03-17T10:29:10Z</time>
      </trkpt>
      <trkpt lat="46.07547" lon="4.7625">
        <ele>173</ele>
        <time>2017-03-17T10:29:11Z</time>
      </trkpt>
      <trkpt lat="46.07552" lon="4.76244">
        <ele>173</ele>
        <time>2017-03-17T10:29:12Z</time>
      </trkpt>
      <trkpt lat="46.07557" lon="4.76238">
        <ele>173</ele>
        <time>2017-03-17T10:29:13Z</time>
      </trkpt>
      <trkpt lat="46.07562" lon="4.76233">
        <ele>173</ele>
        <time>2017-03-17T10:29:14Z</time>
      </trkpt>
      <trkpt lat="46.07566" lon="4.76228">
        <ele>173</ele>
        <time>2017-03-17T10:29:15Z</time>
      </trkpt>
      <trkpt lat="46.07571" lon="4.76224">
        <ele>173</ele>
        <time>2017-03-17T10:29:16Z</time>
      </trkpt>
      <trkpt lat="46.07575" lon="4.76219">
        <ele>173</ele>
        <time>2017-03-17T10:29:17Z</time>
      </trkpt>
      <trkpt lat="46.0758" lon="4.76215">
        <ele>173</ele>
        <time>2017-03-17T10:29:18Z</time>
      </trkpt>
      <trkpt lat="46.07584" lon="4.76211">
        <ele>173</ele>
        <time>2017-03-17T10:29:19Z</time>
      </trkpt>
      <trkpt lat="46.07589" lon="4.76206">
        <ele>173</ele>
        <time>2017-03-17T10:29:20Z</time>
      </trkpt>
      <trkpt lat="46.07593" lon="4.76202">
        <ele>173</ele>
        <time>2017-03-17T10:29:21Z</time>
      </trkpt>
      <trkpt lat="46.07598" lon="4.76197">
        <ele>173</ele>
        <time>2017-03-17T10:29:22Z</time>
      </trkpt>
      <trkpt lat="46.07602" lon="4.76192">
        <ele>173</ele>
        <time>2017-03-17T10:29:23Z</time>
      </trkpt>
      <trkpt lat="46.07606" lon="4.76187">
        <ele>173</ele>
        <time>2017-03-17T10:29:24Z</time>
      </trkpt>
      <trkpt lat="46.07611" lon="4.76181">
        <ele>173</ele>
        <time>2017-03-17T10:29:25Z</time>
      </trkpt>
      <trkpt lat="46.07615" lon="4.76177">
        <ele>173</ele>
        <time>2017-03-17T10:29:26Z</time>
      </trkpt>
      <trkpt lat="46.0762" lon="4.76173">
        <ele>173</ele>
        <time>2017-03-17T10:29:27Z</time>
      </trkpt>
      <trkpt lat="46.07624" lon="4.76168">
        <ele>173</ele>
        <time>2017-03-17T10:29:28Z</time>
      </trkpt>
      <trkpt lat="46.07629" lon="4.76163">
        <ele>172</ele>
        <time>2017-03-17T10:29:29Z</time>
      </trkpt>
      <trkpt lat="46.07633" lon="4.76158">
        <ele>172</ele>
        <time>2017-03-17T10:29:30Z</time>
      </trkpt>
      <trkpt lat="46.07638" lon="4.76152">
        <ele>172</ele>
        <time>2017-03-17T10:29:31Z</time>
      </trkpt>
      <trkpt lat="46.07642" lon="4.76146">
        <ele>172</ele>
        <time>2017-03-17T10:29:32Z</time>
      </trkpt>
      <trkpt lat="46.07647" lon="4.76141">
        <ele>172</ele>
        <time>2017-03-17T10:29:33Z</time>
      </trkpt>
      <trkpt lat="46.07652" lon="4.76136">
        <ele>172</ele>
        <time>2017-03-17T10:29:34Z</time>
      </trkpt>
      <trkpt lat="46.07658" lon="4.76131">
        <ele>172</ele>
        <time>2017-03-17T10:29:35Z</time>
      </trkpt>
      <trkpt lat="46.07663" lon="4.76125">
        <ele>172</ele>
        <time>2017-03-17T10:29:36Z</time>
      </trkpt>
      <trkpt lat="46.07668" lon="4.76119">
        <ele>173</ele>
        <time>2017-03-17T10:29:37Z</time>
      </trkpt>
      <trkpt lat="46.07673" lon="4.76114">
        <ele>173</ele>
        <time>2017-03-17T10:29:38Z</time>
      </trkpt>
      <trkpt lat="46.07679" lon="4.76108">
        <ele>173</ele>
        <time>2017-03-17T10:29:39Z</time>
      </trkpt>
      <trkpt lat="46.07683" lon="4.76102">
        <ele>173</ele>
        <time>2017-03-17T10:29:40Z</time>
      </trkpt>
      <trkpt lat="46.07688" lon="4.76097">
        <ele>173</ele>
        <time>2017-03-17T10:29:41Z</time>
      </trkpt>
      <trkpt lat="46.07693" lon="4.76093">
        <ele>174</ele>
        <time>2017-03-17T10:29:42Z</time>
      </trkpt>
      <trkpt lat="46.07698" lon="4.76088">
        <ele>174</ele>
        <time>2017-03-17T10:29:43Z</time>
      </trkpt>
      <trkpt lat="46.07702" lon="4.76083">
        <ele>174</ele>
        <time>2017-03-17T10:29:44Z</time>
      </trkpt>
      <trkpt lat="46.07706" lon="4.76078">
        <ele>175</ele>
        <time>2017-03-17T10:29:45Z</time>
      </trkpt>
      <trkpt lat="46.0771" lon="4.76074">
        <ele>175</ele>
        <time>2017-03-17T10:29:46Z</time>
      </trkpt>
      <trkpt lat="46.07714" lon="4.7607">
        <ele>175</ele>
        <time>2017-03-17T10:29:47Z</time>
      </trkpt>
      <trkpt lat="46.07718" lon="4.76066">
        <ele>175</ele>
        <time>2017-03-17T10:29:48Z</time>
      </trkpt>
      <trkpt lat="46.07722" lon="4.76062">
        <ele>175</ele>
        <time>2017-03-17T10:29:49Z</time>
      </trkpt>
      <trkpt lat="46.07726" lon="4.76058">
        <ele>175</ele>
        <time>2017-03-17T10:29:50Z</time>
      </trkpt>
      <trkpt lat="46.0773" lon="4.76054">
        <ele>175</ele>
        <time>2017-03-17T10:29:51Z</time>
      </trkpt>
      <trkpt lat="46.07734" lon="4.7605">
        <ele>175</ele>
        <time>2017-03-17T10:29:52Z</time>
      </trkpt>
      <trkpt lat="46.07739" lon="4.76047">
        <ele>175</ele>
        <time>2017-03-17T10:29:53Z</time>
      </trkpt>
      <trkpt lat="46.07743" lon="4.76043">
        <ele>175</ele>
        <time>2017-03-17T10:29:54Z</time>
      </trkpt>
      <trkpt lat="46.07747" lon="4.76039">
        <ele>175</ele>
        <time>2017-03-17T10:29:55Z</time>
      </trkpt>
      <trkpt lat="46.07752" lon="4.76035">
        <ele>176</ele>
        <time>2017-03-17T10:29:56Z</time>
      </trkpt>
      <trkpt lat="46.07757" lon="4.76031">
        <ele>176</ele>
        <time>2017-03-17T10:29:57Z</time>
      </trkpt>
      <trkpt lat="46.07762" lon="4.76027">
        <ele>176</ele>
        <time>2017-03-17T10:29:58Z</time>
      </trkpt>
      <trkpt lat="46.07767" lon="4.76024">
        <ele>176</ele>
        <time>2017-03-17T10:29:59Z</time>
      </trkpt>
      <trkpt lat="46.07772" lon="4.7602">
        <ele>176</ele>
        <time>2017-03-17T10:30:00Z</time>
      </trkpt>
      <trkpt lat="46.07777" lon="4.76017">
        <ele>176</ele>
        <time>2017-03-17T10:30:01Z</time>
      </trkpt>
      <trkpt lat="46.07782" lon="4.76013">
        <ele>176</ele>
        <time>2017-03-17T10:30:02Z</time>
      </trkpt>
      <trkpt lat="46.07787" lon="4.7601">
        <ele>176</ele>
        <time>2017-03-17T10:30:03Z</time>
      </trkpt>
      <trkpt lat="46.07792" lon="4.76006">
        <ele>176</ele>
        <time>2017-03-17T10:30:04Z</time>
      </trkpt>
      <trkpt lat="46.07797" lon="4.76003">
        <ele>176</ele>
        <time>2017-03-17T10:30:05Z</time>
      </trkpt>
      <trkpt lat="46.07801" lon="4.75998">
        <ele>176</ele>
        <time>2017-03-17T10:30:06Z</time>
      </trkpt>
      <trkpt lat="46.07805" lon="4.75995">
        <ele>176</ele>
        <time>2017-03-17T10:30:07Z</time>
      </trkpt>
      <trkpt lat="46.07809" lon="4.75991">
        <ele>176</ele>
        <time>2017-03-17T10:30:08Z</time>
      </trkpt>
      <trkpt lat="46.07814" lon="4.75988">
        <ele>176</ele>
        <time>2017-03-17T10:30:09Z</time>
      </trkpt>
      <trkpt lat="46.07819" lon="4.75984">
        <ele>176</ele>
        <time>2017-03-17T10:30:10Z</time>
      </trkpt>
      <trkpt lat="46.07823" lon="4.75981">
        <ele>176</ele>
        <time>2017-03-17T10:30:11Z</time>
      </trkpt>
      <trkpt lat="46.07828" lon="4.75978">
        <ele>176</ele>
        <time>2017-03-17T10:30:12Z</time>
      </trkpt>
      <trkpt lat="46.07832" lon="4.75976">
        <ele>176</ele>
        <time>2017-03-17T10:30:13Z</time>
      </trkpt>
      <trkpt lat="46.07836" lon="4.75969">
        <ele>176</ele>
        <time>2017-03-17T10:30:14Z</time>
      </trkpt>
      <trkpt lat="46.0784" lon="4.75967">
        <ele>176</ele>
        <time>2017-03-17T10:30:15Z</time>
      </trkpt>
      <trkpt lat="46.07845" lon="4.75963">
        <ele>176</ele>
        <time>2017-03-17T10:30:16Z</time>
      </trkpt>
      <trkpt lat="46.07851" lon="4.75959">
        <ele>176</ele>
        <time>2017-03-17T10:30:17Z</time>
      </trkpt>
      <trkpt lat="46.07857" lon="4.75955">
        <ele>176</ele>
        <time>2017-03-17T10:30:18Z</time>
      </trkpt>
      <trkpt lat="46.07863" lon="4.75952">
        <ele>176</ele>
        <time>2017-03-17T10:30:19Z</time>
      </trkpt>
      <trkpt lat="46.07868" lon="4.7595">
        <ele>176</ele>
        <time>2017-03-17T10:30:20Z</time>
      </trkpt>
      <trkpt lat="46.07874" lon="4.75947">
        <ele>176</ele>
        <time>2017-03-17T10:30:21Z</time>
      </trkpt>
      <trkpt lat="46.07879" lon="4.75943">
        <ele>176</ele>
        <time>2017-03-17T10:30:22Z</time>
      </trkpt>
      <trkpt lat="46.07885" lon="4.7594">
        <ele>176</ele>
        <time>2017-03-17T10:30:23Z</time>
      </trkpt>
      <trkpt lat="46.0789" lon="4.75936">
        <ele>176</ele>
        <time>2017-03-17T10:30:24Z</time>
      </trkpt>
      <trkpt lat="46.07896" lon="4.75932">
        <ele>176</ele>
        <time>2017-03-17T10:30:25Z</time>
      </trkpt>
      <trkpt lat="46.07901" lon="4.75928">
        <ele>176</ele>
        <time>2017-03-17T10:30:26Z</time>
      </trkpt>
      <trkpt lat="46.07905" lon="4.75927">
        <ele>176</ele>
        <time>2017-03-17T10:30:27Z</time>
      </trkpt>
      <trkpt lat="46.07911" lon="4.75925">
        <ele>176</ele>
        <time>2017-03-17T10:30:28Z</time>
      </trkpt>
      <trkpt lat="46.07916" lon="4.75923">
        <ele>176</ele>
        <time>2017-03-17T10:30:29Z</time>
      </trkpt>
      <trkpt lat="46.07921" lon="4.7592">
        <ele>176</ele>
        <time>2017-03-17T10:30:30Z</time>
      </trkpt>
      <trkpt lat="46.07925" lon="4.75917">
        <ele>176</ele>
        <time>2017-03-17T10:30:31Z</time>
      </trkpt>
      <trkpt lat="46.07929" lon="4.75913">
        <ele>176</ele>
        <time>2017-03-17T10:30:32Z</time>
      </trkpt>
      <trkpt lat="46.07934" lon="4.7591">
        <ele>176</ele>
        <time>2017-03-17T10:30:33Z</time>
      </trkpt>
      <trkpt lat="46.07938" lon="4.75906">
        <ele>176</ele>
        <time>2017-03-17T10:30:34Z</time>
      </trkpt>
      <trkpt lat="46.07942" lon="4.75902">
        <ele>176</ele>
        <time>2017-03-17T10:30:35Z</time>
      </trkpt>
      <trkpt lat="46.07946" lon="4.75898">
        <ele>176</ele>
        <time>2017-03-17T10:30:36Z</time>
      </trkpt>
      <trkpt lat="46.07952" lon="4.75893">
        <ele>176</ele>
        <time>2017-03-17T10:30:37Z</time>
      </trkpt>
      <trkpt lat="46.07957" lon="4.75889">
        <ele>175</ele>
        <time>2017-03-17T10:30:38Z</time>
      </trkpt>
      <trkpt lat="46.07963" lon="4.75886">
        <ele>176</ele>
        <time>2017-03-17T10:30:39Z</time>
      </trkpt>
      <trkpt lat="46.07968" lon="4.75882">
        <ele>176</ele>
        <time>2017-03-17T10:30:40Z</time>
      </trkpt>
      <trkpt lat="46.07973" lon="4.75878">
        <ele>176</ele>
        <time>2017-03-17T10:30:41Z</time>
      </trkpt>
      <trkpt lat="46.07978" lon="4.75874">
        <ele>176</ele>
        <time>2017-03-17T10:30:42Z</time>
      </trkpt>
      <trkpt lat="46.07982" lon="4.75871">
        <ele>176</ele>
        <time>2017-03-17T10:30:43Z</time>
      </trkpt>
      <trkpt lat="46.07987" lon="4.75868">
        <ele>176</ele>
        <time>2017-03-17T10:30:44Z</time>
      </trkpt>
      <trkpt lat="46.07992" lon="4.75865">
        <ele>176</ele>
        <time>2017-03-17T10:30:45Z</time>
      </trkpt>
      <trkpt lat="46.07996" lon="4.75862">
        <ele>176</ele>
        <time>2017-03-17T10:30:46Z</time>
      </trkpt>
      <trkpt lat="46.08" lon="4.75858">
        <ele>177</ele>
        <time>2017-03-17T10:30:47Z</time>
      </trkpt>
      <trkpt lat="46.08007" lon="4.75853">
        <ele>177</ele>
        <time>2017-03-17T10:30:49Z</time>
      </trkpt>
      <trkpt lat="46.08011" lon="4.75853">
        <ele>177</ele>
        <time>2017-03-17T10:30:50Z</time>
      </trkpt>
      <trkpt lat="46.08016" lon="4.75856">
        <ele>177</ele>
        <time>2017-03-17T10:30:51Z</time>
      </trkpt>
      <trkpt lat="46.08021" lon="4.75857">
        <ele>177</ele>
        <time>2017-03-17T10:30:52Z</time>
      </trkpt>
      <trkpt lat="46.08026" lon="4.75857">
        <ele>178</ele>
        <time>2017-03-17T10:30:53Z</time>
      </trkpt>
      <trkpt lat="46.08031" lon="4.75857">
        <ele>178</ele>
        <time>2017-03-17T10:30:54Z</time>
      </trkpt>
      <trkpt lat="46.08035" lon="4.75858">
        <ele>178</ele>
        <time>2017-03-17T10:30:55Z</time>
      </trkpt>
      <trkpt lat="46.0804" lon="4.7586">
        <ele>178</ele>
        <time>2017-03-17T10:30:56Z</time>
      </trkpt>
      <trkpt lat="46.08047" lon="4.75866">
        <ele>178</ele>
        <time>2017-03-17T10:30:57Z</time>
      </trkpt>
      <trkpt lat="46.08052" lon="4.75868">
        <ele>178</ele>
        <time>2017-03-17T10:30:58Z</time>
      </trkpt>
      <trkpt lat="46.08057" lon="4.75868">
        <ele>178</ele>
        <time>2017-03-17T10:30:59Z</time>
      </trkpt>
      <trkpt lat="46.08061" lon="4.75867">
        <ele>178</ele>
        <time>2017-03-17T10:31:00Z</time>
      </trkpt>
      <trkpt lat="46.08066" lon="4.7587">
        <ele>178</ele>
        <time>2017-03-17T10:31:01Z</time>
      </trkpt>
      <trkpt lat="46.0807" lon="4.75872">
        <ele>178</ele>
        <time>2017-03-17T10:31:02Z</time>
      </trkpt>
      <trkpt lat="46.08078" lon="4.75867">
        <ele>178</ele>
        <time>2017-03-17T10:31:05Z</time>
      </trkpt>
      <trkpt lat="46.08078" lon="4.75862">
        <ele>178</ele>
        <time>2017-03-17T10:31:06Z</time>
      </trkpt>
      <trkpt lat="46.08077" lon="4.75852">
        <ele>178</ele>
        <time>2017-03-17T10:31:08Z</time>
      </trkpt>
      <trkpt lat="46.08076" lon="4.75846">
        <ele>179</ele>
        <time>2017-03-17T10:31:09Z</time>
      </trkpt>
      <trkpt lat="46.08075" lon="4.75834">
        <ele>179</ele>
        <time>2017-03-17T10:31:11Z</time>
      </trkpt>
      <trkpt lat="46.08075" lon="4.75827">
        <ele>178</ele>
        <time>2017-03-17T10:31:12Z</time>
      </trkpt>
      <trkpt lat="46.08074" lon="4.7582">
        <ele>178</ele>
        <time>2017-03-17T10:31:13Z</time>
      </trkpt>
      <trkpt lat="46.08073" lon="4.75814">
        <ele>178</ele>
        <time>2017-03-17T10:31:14Z</time>
      </trkpt>
      <trkpt lat="46.08073" lon="4.75807">
        <ele>178</ele>
        <time>2017-03-17T10:31:15Z</time>
      </trkpt>
      <trkpt lat="46.08075" lon="4.758">
        <ele>178</ele>
        <time>2017-03-17T10:31:16Z</time>
      </trkpt>
      <trkpt lat="46.08078" lon="4.75795">
        <ele>178</ele>
        <time>2017-03-17T10:31:17Z</time>
      </trkpt>
      <trkpt lat="46.08081" lon="4.7579">
        <ele>178</ele>
        <time>2017-03-17T10:31:18Z</time>
      </trkpt>
      <trkpt lat="46.08085" lon="4.75785">
        <ele>178</ele>
        <time>2017-03-17T10:31:19Z</time>
      </trkpt>
      <trkpt lat="46.08089" lon="4.7578">
        <ele>178</ele>
        <time>2017-03-17T10:31:20Z</time>
      </trkpt>
      <trkpt lat="46.08092" lon="4.75774">
        <ele>178</ele>
        <time>2017-03-17T10:31:21Z</time>
      </trkpt>
      <trkpt lat="46.08095" lon="4.75768">
        <ele>178</ele>
        <time>2017-03-17T10:31:22Z</time>
      </trkpt>
      <trkpt lat="46.08098" lon="4.75763">
        <ele>178</ele>
        <time>2017-03-17T10:31:23Z</time>
      </trkpt>
      <trkpt lat="46.081" lon="4.75757">
        <ele>178</ele>
        <time>2017-03-17T10:31:24Z</time>
      </trkpt>
      <trkpt lat="46.08103" lon="4.75751">
        <ele>178</ele>
        <time>2017-03-17T10:31:25Z</time>
      </trkpt>
      <trkpt lat="46.08106" lon="4.75745">
        <ele>177</ele>
        <time>2017-03-17T10:31:26Z</time>
      </trkpt>
      <trkpt lat="46.0811" lon="4.7574">
        <ele>177</ele>
        <time>2017-03-17T10:31:27Z</time>
      </trkpt>
      <trkpt lat="46.08113" lon="4.75733">
        <ele>177</ele>
        <time>2017-03-17T10:31:28Z</time>
      </trkpt>
      <trkpt lat="46.08117" lon="4.75727">
        <ele>177</ele>
        <time>2017-03-17T10:31:29Z</time>
      </trkpt>
      <trkpt lat="46.0812" lon="4.75721">
        <ele>177</ele>
        <time>2017-03-17T10:31:30Z</time>
      </trkpt>
      <trkpt lat="46.08124" lon="4.75715">
        <ele>177</ele>
        <time>2017-03-17T10:31:31Z</time>
      </trkpt>
      <trkpt lat="46.08127" lon="4.75709">
        <ele>177</ele>
        <time>2017-03-17T10:31:32Z</time>
      </trkpt>
      <trkpt lat="46.08131" lon="4.75703">
        <ele>177</ele>
        <time>2017-03-17T10:31:33Z</time>
      </trkpt>
      <trkpt lat="46.08134" lon="4.75698">
        <ele>177</ele>
        <time>2017-03-17T10:31:34Z</time>
      </trkpt>
      <trkpt lat="46.0814" lon="4.75692">
        <ele>177</ele>
        <time>2017-03-17T10:31:36Z</time>
      </trkpt>
      <trkpt lat="46.08142" lon="4.75689">
        <ele>177</ele>
        <time>2017-03-17T10:31:37Z</time>
      </trkpt>
      <trkpt lat="46.08138" lon="4.75682">
        <ele>177</ele>
        <time>2017-03-17T10:31:38Z</time>
      </trkpt>
      <trkpt lat="46.08137" lon="4.75678">
        <ele>177</ele>
        <time>2017-03-17T10:31:39Z</time>
      </trkpt>
      <trkpt lat="46.08132" lon="4.75671">
        <ele>176</ele>
        <time>2017-03-17T10:31:41Z</time>
      </trkpt>
      <trkpt lat="46.08129" lon="4.75666">
        <ele>176</ele>
        <time>2017-03-17T10:31:42Z</time>
      </trkpt>
      <trkpt lat="46.08125" lon="4.75658">
        <ele>176</ele>
        <time>2017-03-17T10:31:44Z</time>
      </trkpt>
      <trkpt lat="46.08123" lon="4.75656">
        <ele>175</ele>
        <time>2017-03-17T10:31:45Z</time>
      </trkpt>
      <trkpt lat="46.08119" lon="4.75648">
        <ele>175</ele>
        <time>2017-03-17T10:31:47Z</time>
      </trkpt>
      <trkpt lat="46.08117" lon="4.75644">
        <ele>175</ele>
        <time>2017-03-17T10:31:48Z</time>
      </trkpt>
      <trkpt lat="46.08113" lon="4.75636">
        <ele>175</ele>
        <time>2017-03-17T10:31:50Z</time>
      </trkpt>
      <trkpt lat="46.0811" lon="4.75633">
        <ele>175</ele>
        <time>2017-03-17T10:31:51Z</time>
      </trkpt>
      <trkpt lat="46.08106" lon="4.75623">
        <ele>175</ele>
        <time>2017-03-17T10:31:53Z</time>
      </trkpt>
      <trkpt lat="46.08104" lon="4.75619">
        <ele>175</ele>
        <time>2017-03-17T10:31:54Z</time>
      </trkpt>
      <trkpt lat="46.081" lon="4.75608">
        <ele>175</ele>
        <time>2017-03-17T10:31:56Z</time>
      </trkpt>
      <trkpt lat="46.08098" lon="4.75603">
        <ele>175</ele>
        <time>2017-03-17T10:31:57Z</time>
      </trkpt>
      <trkpt lat="46.08094" lon="4.75592">
        <ele>175</ele>
        <time>2017-03-17T10:31:59Z</time>
      </trkpt>
      <trkpt lat="46.08096" lon="4.75588">
        <ele>175</ele>
        <time>2017-03-17T10:32:00Z</time>
      </trkpt>
      <trkpt lat="46.08096" lon="4.75575">
        <ele>173</ele>
        <time>2017-03-17T10:38:50Z</time>
      </trkpt>
      <trkpt lat="46.08098" lon="4.75575">
        <ele>173</ele>
        <time>2017-03-17T10:38:51Z</time>
      </trkpt>
      <trkpt lat="46.08106" lon="4.75573">
        <ele>173</ele>
        <time>2017-03-17T10:39:26Z</time>
      </trkpt>
      <trkpt lat="46.08108" lon="4.75572">
        <ele>173</ele>
        <time>2017-03-17T10:39:27Z</time>
      </trkpt>
      <trkpt lat="46.08114" lon="4.75566">
        <ele>173</ele>
        <time>2017-03-17T10:39:30Z</time>
      </trkpt>
      <trkpt lat="46.08116" lon="4.75565">
        <ele>173</ele>
        <time>2017-03-17T10:39:31Z</time>
      </trkpt>
      <trkpt lat="46.08121" lon="4.75555">
        <ele>173</ele>
        <time>2017-03-17T10:39:39Z</time>
      </trkpt>
      <trkpt lat="46.08122" lon="4.75554">
        <ele>173</ele>
        <time>2017-03-17T10:39:40Z</time>
      </trkpt>
      <trkpt lat="46.08116" lon="4.75562">
        <ele>173</ele>
        <time>2017-03-17T10:40:11Z</time>
      </trkpt>
      <trkpt lat="46.08114" lon="4.75562">
        <ele>173</ele>
        <time>2017-03-17T10:40:12Z</time>
      </trkpt>
      <trkpt lat="46.08106" lon="4.75567">
        <ele>173</ele>
        <time>2017-03-17T10:40:16Z</time>
      </trkpt>
      <trkpt lat="46.08104" lon="4.75569">
        <ele>173</ele>
        <time>2017-03-17T10:40:17Z</time>
      </trkpt>
      <trkpt lat="46.08098" lon="4.75577">
        <ele>173</ele>
        <time>2017-03-17T10:40:20Z</time>
      </trkpt>
      <trkpt lat="46.08095" lon="4.75579">
        <ele>173</ele>
        <time>2017-03-17T10:40:21Z</time>
      </trkpt>
      <trkpt lat="46.08089" lon="4.75575">
        <ele>173</ele>
        <time>2017-03-17T10:40:24Z</time>
      </trkpt>
      <trkpt lat="46.08088" lon="4.75571">
        <ele>173</ele>
        <time>2017-03-17T10:40:25Z</time>
      </trkpt>
      <trkpt lat="46.08082" lon="4.75562">
        <ele>170</ele>
        <time>2017-03-17T10:40:28Z</time>
      </trkpt>
      <trkpt lat="46.0808" lon="4.75558">
        <ele>170</ele>
        <time>2017-03-17T10:40:29Z</time>
      </trkpt>
      <trkpt lat="46.08077" lon="4.7555">
        <ele>169</ele>
        <time>2017-03-17T10:40:31Z</time>
      </trkpt>
      <trkpt lat="46.08076" lon="4.75547">
        <ele>169</ele>
        <time>2017-03-17T10:40:32Z</time>
      </trkpt>
      <trkpt lat="46.08072" lon="4.75539">
        <ele>168</ele>
        <time>2017-03-17T10:40:34Z</time>
      </trkpt>
      <trkpt lat="46.08071" lon="4.75535">
        <ele>168</ele>
        <time>2017-03-17T10:40:35Z</time>
      </trkpt>
      <trkpt lat="46.08065" lon="4.75524">
        <ele>168</ele>
        <time>2017-03-17T10:40:38Z</time>
      </trkpt>
      <trkpt lat="46.08063" lon="4.75521">
        <ele>168</ele>
        <time>2017-03-17T10:40:39Z</time>
      </trkpt>
      <trkpt lat="46.08059" lon="4.75513">
        <ele>167</ele>
        <time>2017-03-17T10:40:41Z</time>
      </trkpt>
      <trkpt lat="46.08057" lon="4.75509">
        <ele>167</ele>
        <time>2017-03-17T10:40:42Z</time>
      </trkpt>
      <trkpt lat="46.08053" lon="4.75498">
        <ele>166</ele>
        <time>2017-03-17T10:40:45Z</time>
      </trkpt>
      <trkpt lat="46.08052" lon="4.75494">
        <ele>166</ele>
        <time>2017-03-17T10:40:46Z</time>
      </trkpt>
      <trkpt lat="46.08047" lon="4.75483">
        <ele>166</ele>
        <time>2017-03-17T10:40:49Z</time>
      </trkpt>
      <trkpt lat="46.08046" lon="4.7548">
        <ele>166</ele>
        <time>2017-03-17T10:40:50Z</time>
      </trkpt>
      <trkpt lat="46.08042" lon="4.75471">
        <ele>166</ele>
        <time>2017-03-17T10:40:52Z</time>
      </trkpt>
      <trkpt lat="46.0804" lon="4.75467">
        <ele>166</ele>
        <time>2017-03-17T10:40:53Z</time>
      </trkpt>
      <trkpt lat="46.08036" lon="4.75458">
        <ele>166</ele>
        <time>2017-03-17T10:40:55Z</time>
      </trkpt>
      <trkpt lat="46.08034" lon="4.75453">
        <ele>166</ele>
        <time>2017-03-17T10:40:56Z</time>
      </trkpt>
      <trkpt lat="46.08029" lon="4.75443">
        <ele>166</ele>
        <time>2017-03-17T10:40:58Z</time>
      </trkpt>
      <trkpt lat="46.08026" lon="4.75437">
        <ele>166</ele>
        <time>2017-03-17T10:40:59Z</time>
      </trkpt>
      <trkpt lat="46.08023" lon="4.75431">
        <ele>166</ele>
        <time>2017-03-17T10:41:00Z</time>
      </trkpt>
      <trkpt lat="46.08021" lon="4.75425">
        <ele>166</ele>
        <time>2017-03-17T10:41:01Z</time>
      </trkpt>
      <trkpt lat="46.08018" lon="4.7542">
        <ele>166</ele>
        <time>2017-03-17T10:41:02Z</time>
      </trkpt>
      <trkpt lat="46.08015" lon="4.75414">
        <ele>166</ele>
        <time>2017-03-17T10:41:03Z</time>
      </trkpt>
      <trkpt lat="46.08012" lon="4.75408">
        <ele>166</ele>
        <time>2017-03-17T10:41:04Z</time>
      </trkpt>
      <trkpt lat="46.08009" lon="4.75401">
        <ele>166</ele>
        <time>2017-03-17T10:41:05Z</time>
      </trkpt>
      <trkpt lat="46.08006" lon="4.75394">
        <ele>167</ele>
        <time>2017-03-17T10:41:06Z</time>
      </trkpt>
      <trkpt lat="46.08003" lon="4.75387">
        <ele>167</ele>
        <time>2017-03-17T10:41:07Z</time>
      </trkpt>
      <trkpt lat="46.07999" lon="4.75379">
        <ele>168</ele>
        <time>2017-03-17T10:41:08Z</time>
      </trkpt>
      <trkpt lat="46.07996" lon="4.75371">
        <ele>168</ele>
        <time>2017-03-17T10:41:09Z</time>
      </trkpt>
      <trkpt lat="46.07992" lon="4.75362">
        <ele>168</ele>
        <time>2017-03-17T10:41:10Z</time>
      </trkpt>
      <trkpt lat="46.07988" lon="4.75353">
        <ele>168</ele>
        <time>2017-03-17T10:41:11Z</time>
      </trkpt>
      <trkpt lat="46.07984" lon="4.75345">
        <ele>168</ele>
        <time>2017-03-17T10:41:12Z</time>
      </trkpt>
      <trkpt lat="46.0798" lon="4.75337">
        <ele>168</ele>
        <time>2017-03-17T10:41:13Z</time>
      </trkpt>
      <trkpt lat="46.07976" lon="4.75328">
        <ele>169</ele>
        <time>2017-03-17T10:41:14Z</time>
      </trkpt>
      <trkpt lat="46.07971" lon="4.75319">
        <ele>169</ele>
        <time>2017-03-17T10:41:15Z</time>
      </trkpt>
      <trkpt lat="46.07967" lon="4.75311">
        <ele>169</ele>
        <time>2017-03-17T10:41:16Z</time>
      </trkpt>
      <trkpt lat="46.07964" lon="4.75303">
        <ele>169</ele>
        <time>2017-03-17T10:41:17Z</time>
      </trkpt>
      <trkpt lat="46.07959" lon="4.75296">
        <ele>169</ele>
        <time>2017-03-17T10:41:18Z</time>
      </trkpt>
      <trkpt lat="46.07956" lon="4.75288">
        <ele>169</ele>
        <time>2017-03-17T10:41:19Z</time>
      </trkpt>
      <trkpt lat="46.07952" lon="4.75281">
        <ele>169</ele>
        <time>2017-03-17T10:41:20Z</time>
      </trkpt>
      <trkpt lat="46.07948" lon="4.75273">
        <ele>169</ele>
        <time>2017-03-17T10:41:21Z</time>
      </trkpt>
      <trkpt lat="46.07945" lon="4.75266">
        <ele>169</ele>
        <time>2017-03-17T10:41:22Z</time>
      </trkpt>
      <trkpt lat="46.07942" lon="4.7526">
        <ele>170</ele>
        <time>2017-03-17T10:41:23Z</time>
      </trkpt>
      <trkpt lat="46.07938" lon="4.75253">
        <ele>170</ele>
        <time>2017-03-17T10:41:24Z</time>
      </trkpt>
      <trkpt lat="46.07935" lon="4.75246">
        <ele>170</ele>
        <time>2017-03-17T10:41:25Z</time>
      </trkpt>
      <trkpt lat="46.07932" lon="4.75238">
        <ele>170</ele>
        <time>2017-03-17T10:41:26Z</time>
      </trkpt>
      <trkpt lat="46.07929" lon="4.75231">
        <ele>170</ele>
        <time>2017-03-17T10:41:27Z</time>
      </trkpt>
      <trkpt lat="46.07926" lon="4.75224">
        <ele>171</ele>
        <time>2017-03-17T10:41:28Z</time>
      </trkpt>
      <trkpt lat="46.07922" lon="4.75217">
        <ele>171</ele>
        <time>2017-03-17T10:41:29Z</time>
      </trkpt>
      <trkpt lat="46.07919" lon="4.7521">
        <ele>171</ele>
        <time>2017-03-17T10:41:30Z</time>
      </trkpt>
      <trkpt lat="46.07915" lon="4.75203">
        <ele>171</ele>
        <time>2017-03-17T10:41:31Z</time>
      </trkpt>
      <trkpt lat="46.07912" lon="4.75195">
        <ele>171</ele>
        <time>2017-03-17T10:41:32Z</time>
      </trkpt>
      <trkpt lat="46.07908" lon="4.75188">
        <ele>171</ele>
        <time>2017-03-17T10:41:33Z</time>
      </trkpt>
      <trkpt lat="46.07904" lon="4.75181">
        <ele>171</ele>
        <time>2017-03-17T10:41:34Z</time>
      </trkpt>
      <trkpt lat="46.079" lon="4.75174">
        <ele>171</ele>
        <time>2017-03-17T10:41:35Z</time>
      </trkpt>
      <trkpt lat="46.07896" lon="4.75167">
        <ele>171</ele>
        <time>2017-03-17T10:41:36Z</time>
      </trkpt>
      <trkpt lat="46.07892" lon="4.7516">
        <ele>171</ele>
        <time>2017-03-17T10:41:37Z</time>
      </trkpt>
      <trkpt lat="46.07888" lon="4.75153">
        <ele>171</ele>
        <time>2017-03-17T10:41:38Z</time>
      </trkpt>
      <trkpt lat="46.07883" lon="4.75146">
        <ele>171</ele>
        <time>2017-03-17T10:41:39Z</time>
      </trkpt>
      <trkpt lat="46.07879" lon="4.75139">
        <ele>171</ele>
        <time>2017-03-17T10:41:40Z</time>
      </trkpt>
      <trkpt lat="46.07875" lon="4.75133">
        <ele>171</ele>
        <time>2017-03-17T10:41:41Z</time>
      </trkpt>
      <trkpt lat="46.07871" lon="4.75127">
        <ele>171</ele>
        <time>2017-03-17T10:41:42Z</time>
      </trkpt>
      <trkpt lat="46.07868" lon="4.7512">
        <ele>171</ele>
        <time>2017-03-17T10:41:43Z</time>
      </trkpt>
      <trkpt lat="46.07864" lon="4.75114">
        <ele>171</ele>
        <time>2017-03-17T10:41:44Z</time>
      </trkpt>
      <trkpt lat="46.0786" lon="4.75108">
        <ele>171</ele>
        <time>2017-03-17T10:41:45Z</time>
      </trkpt>
      <trkpt lat="46.07856" lon="4.75103">
        <ele>171</ele>
        <time>2017-03-17T10:41:46Z</time>
      </trkpt>
      <trkpt lat="46.07853" lon="4.75097">
        <ele>171</ele>
        <time>2017-03-17T10:41:47Z</time>
      </trkpt>
      <trkpt lat="46.07849" lon="4.75091">
        <ele>171</ele>
        <time>2017-03-17T10:41:48Z</time>
      </trkpt>
      <trkpt lat="46.07845" lon="4.75085">
        <ele>171</ele>
        <time>2017-03-17T10:41:49Z</time>
      </trkpt>
      <trkpt lat="46.07842" lon="4.75079">
        <ele>171</ele>
        <time>2017-03-17T10:41:50Z</time>
      </trkpt>
      <trkpt lat="46.07837" lon="4.75073">
        <ele>171</ele>
        <time>2017-03-17T10:41:51Z</time>
      </trkpt>
      <trkpt lat="46.07833" lon="4.75067">
        <ele>171</ele>
        <time>2017-03-17T10:41:52Z</time>
      </trkpt>
      <trkpt lat="46.07828" lon="4.75061">
        <ele>171</ele>
        <time>2017-03-17T10:41:53Z</time>
      </trkpt>
      <trkpt lat="46.07823" lon="4.75056">
        <ele>171</ele>
        <time>2017-03-17T10:41:54Z</time>
      </trkpt>
      <trkpt lat="46.07819" lon="4.7505">
        <ele>171</ele>
        <time>2017-03-17T10:41:55Z</time>
      </trkpt>
      <trkpt lat="46.07814" lon="4.75045">
        <ele>171</ele>
        <time>2017-03-17T10:41:56Z</time>
      </trkpt>
      <trkpt lat="46.07809" lon="4.7504">
        <ele>171</ele>
        <time>2017-03-17T10:41:57Z</time>
      </trkpt>
      <trkpt lat="46.07804" lon="4.75036">
        <ele>171</ele>
        <time>2017-03-17T10:41:58Z</time>
      </trkpt>
      <trkpt lat="46.07799" lon="4.75031">
        <ele>171</ele>
        <time>2017-03-17T10:41:59Z</time>
      </trkpt>
      <trkpt lat="46.07794" lon="4.75027">
        <ele>171</ele>
        <time>2017-03-17T10:42:00Z</time>
      </trkpt>
      <trkpt lat="46.07789" lon="4.75023">
        <ele>172</ele>
        <time>2017-03-17T10:42:01Z</time>
      </trkpt>
      <trkpt lat="46.07785" lon="4.75019">
        <ele>172</ele>
        <time>2017-03-17T10:42:02Z</time>
      </trkpt>
      <trkpt lat="46.0778" lon="4.75016">
        <ele>172</ele>
        <time>2017-03-17T10:42:03Z</time>
      </trkpt>
      <trkpt lat="46.07776" lon="4.75012">
        <ele>172</ele>
        <time>2017-03-17T10:42:04Z</time>
      </trkpt>
      <trkpt lat="46.07771" lon="4.75009">
        <ele>172</ele>
        <time>2017-03-17T10:42:05Z</time>
      </trkpt>
      <trkpt lat="46.07767" lon="4.75005">
        <ele>172</ele>
        <time>2017-03-17T10:42:06Z</time>
      </trkpt>
      <trkpt lat="46.07762" lon="4.75001">
        <ele>172</ele>
        <time>2017-03-17T10:42:07Z</time>
      </trkpt>
      <trkpt lat="46.07757" lon="4.74997">
        <ele>172</ele>
        <time>2017-03-17T10:42:08Z</time>
      </trkpt>
      <trkpt lat="46.07752" lon="4.74993">
        <ele>173</ele>
        <time>2017-03-17T10:42:09Z</time>
      </trkpt>
      <trkpt lat="46.07747" lon="4.74989">
        <ele>173</ele>
        <time>2017-03-17T10:42:10Z</time>
      </trkpt>
      <trkpt lat="46.07742" lon="4.74985">
        <ele>173</ele>
        <time>2017-03-17T10:42:11Z</time>
      </trkpt>
      <trkpt lat="46.07737" lon="4.74981">
        <ele>172</ele>
        <time>2017-03-17T10:42:12Z</time>
      </trkpt>
      <trkpt lat="46.07731" lon="4.74976">
        <ele>172</ele>
        <time>2017-03-17T10:42:13Z</time>
      </trkpt>
      <trkpt lat="46.07726" lon="4.74972">
        <ele>172</ele>
        <time>2017-03-17T10:42:14Z</time>
      </trkpt>
      <trkpt lat="46.0772" lon="4.74968">
        <ele>172</ele>
        <time>2017-03-17T10:42:15Z</time>
      </trkpt>
      <trkpt lat="46.07716" lon="4.74964">
        <ele>172</ele>
        <time>2017-03-17T10:42:16Z</time>
      </trkpt>
      <trkpt lat="46.07711" lon="4.74961">
        <ele>172</ele>
        <time>2017-03-17T10:42:17Z</time>
      </trkpt>
      <trkpt lat="46.07706" lon="4.74957">
        <ele>172</ele>
        <time>2017-03-17T10:42:18Z</time>
      </trkpt>
      <trkpt lat="46.07702" lon="4.74953">
        <ele>172</ele>
        <time>2017-03-17T10:42:19Z</time>
      </trkpt>
      <trkpt lat="46.07697" lon="4.74949">
        <ele>172</ele>
        <time>2017-03-17T10:42:20Z</time>
      </trkpt>
      <trkpt lat="46.07692" lon="4.74945">
        <ele>172</ele>
        <time>2017-03-17T10:42:21Z</time>
      </trkpt>
      <trkpt lat="46.07687" lon="4.74941">
        <ele>172</ele>
        <time>2017-03-17T10:42:22Z</time>
      </trkpt>
      <trkpt lat="46.07682" lon="4.74937">
        <ele>172</ele>
        <time>2017-03-17T10:42:23Z</time>
      </trkpt>
      <trkpt lat="46.07678" lon="4.74933">
        <ele>172</ele>
        <time>2017-03-17T10:42:24Z</time>
      </trkpt>
      <trkpt lat="46.07673" lon="4.74929">
        <ele>172</ele>
        <time>2017-03-17T10:42:25Z</time>
      </trkpt>
      <trkpt lat="46.07668" lon="4.74925">
        <ele>172</ele>
        <time>2017-03-17T10:42:26Z</time>
      </trkpt>
      <trkpt lat="46.07664" lon="4.74921">
        <ele>172</ele>
        <time>2017-03-17T10:42:27Z</time>
      </trkpt>
      <trkpt lat="46.07659" lon="4.74917">
        <ele>172</ele>
        <time>2017-03-17T10:42:28Z</time>
      </trkpt>
      <trkpt lat="46.07654" lon="4.74914">
        <ele>172</ele>
        <time>2017-03-17T10:42:29Z</time>
      </trkpt>
      <trkpt lat="46.0765" lon="4.7491">
        <ele>171</ele>
        <time>2017-03-17T10:42:30Z</time>
      </trkpt>
      <trkpt lat="46.07645" lon="4.74906">
        <ele>171</ele>
        <time>2017-03-17T10:42:31Z</time>
      </trkpt>
      <trkpt lat="46.0764" lon="4.74903">
        <ele>171</ele>
        <time>2017-03-17T10:42:32Z</time>
      </trkpt>
      <trkpt lat="46.07636" lon="4.74899">
        <ele>171</ele>
        <time>2017-03-17T10:42:33Z</time>
      </trkpt>
      <trkpt lat="46.07631" lon="4.74895">
        <ele>171</ele>
        <time>2017-03-17T10:42:34Z</time>
      </trkpt>
      <trkpt lat="46.07627" lon="4.74892">
        <ele>171</ele>
        <time>2017-03-17T10:42:35Z</time>
      </trkpt>
      <trkpt lat="46.07623" lon="4.74889">
        <ele>171</ele>
        <time>2017-03-17T10:42:36Z</time>
      </trkpt>
      <trkpt lat="46.07619" lon="4.74885">
        <ele>171</ele>
        <time>2017-03-17T10:42:37Z</time>
      </trkpt>
      <trkpt lat="46.07615" lon="4.74882">
        <ele>171</ele>
        <time>2017-03-17T10:42:38Z</time>
      </trkpt>
      <trkpt lat="46.0761" lon="4.74879">
        <ele>171</ele>
        <time>2017-03-17T10:42:39Z</time>
      </trkpt>
      <trkpt lat="46.07606" lon="4.74876">
        <ele>171</ele>
        <time>2017-03-17T10:42:40Z</time>
      </trkpt>
      <trkpt lat="46.07601" lon="4.74871">
        <ele>171</ele>
        <time>2017-03-17T10:42:41Z</time>
      </trkpt>
      <trkpt lat="46.07597" lon="4.74867">
        <ele>171</ele>
        <time>2017-03-17T10:42:42Z</time>
      </trkpt>
      <trkpt lat="46.07592" lon="4.74862">
        <ele>171</ele>
        <time>2017-03-17T10:42:43Z</time>
      </trkpt>
      <trkpt lat="46.07587" lon="4.74858">
        <ele>171</ele>
        <time>2017-03-17T10:42:44Z</time>
      </trkpt>
      <trkpt lat="46.07582" lon="4.74854">
        <ele>171</ele>
        <time>2017-03-17T10:42:45Z</time>
      </trkpt>
      <trkpt lat="46.07577" lon="4.7485">
        <ele>171</ele>
        <time>2017-03-17T10:42:46Z</time>
      </trkpt>
      <trkpt lat="46.07572" lon="4.74846">
        <ele>171</ele>
        <time>2017-03-17T10:42:47Z</time>
      </trkpt>
      <trkpt lat="46.07566" lon="4.74842">
        <ele>171</ele>
        <time>2017-03-17T10:42:48Z</time>
      </trkpt>
      <trkpt lat="46.07561" lon="4.74838">
        <ele>171</ele>
        <time>2017-03-17T10:42:49Z</time>
      </trkpt>
      <trkpt lat="46.07557" lon="4.74834">
        <ele>171</ele>
        <time>2017-03-17T10:42:50Z</time>
      </trkpt>
      <trkpt lat="46.07552" lon="4.74829">
        <ele>172</ele>
        <time>2017-03-17T10:42:51Z</time>
      </trkpt>
      <trkpt lat="46.07547" lon="4.74825">
        <ele>172</ele>
        <time>2017-03-17T10:42:52Z</time>
      </trkpt>
      <trkpt lat="46.07542" lon="4.74822">
        <ele>172</ele>
        <time>2017-03-17T10:42:53Z</time>
      </trkpt>
      <trkpt lat="46.07537" lon="4.74818">
        <ele>172</ele>
        <time>2017-03-17T10:42:54Z</time>
      </trkpt>
      <trkpt lat="46.07532" lon="4.74815">
        <ele>172</ele>
        <time>2017-03-17T10:42:55Z</time>
      </trkpt>
      <trkpt lat="46.07527" lon="4.74811">
        <ele>172</ele>
        <time>2017-03-17T10:42:56Z</time>
      </trkpt>
      <trkpt lat="46.07522" lon="4.74807">
        <ele>172</ele>
        <time>2017-03-17T10:42:57Z</time>
      </trkpt>
      <trkpt lat="46.07517" lon="4.74803">
        <ele>172</ele>
        <time>2017-03-17T10:42:58Z</time>
      </trkpt>
      <trkpt lat="46.07512" lon="4.74799">
        <ele>172</ele>
        <time>2017-03-17T10:42:59Z</time>
      </trkpt>
      <trkpt lat="46.07507" lon="4.74795">
        <ele>172</ele>
        <time>2017-03-17T10:43:00Z</time>
      </trkpt>
      <trkpt lat="46.07501" lon="4.74791">
        <ele>172</ele>
        <time>2017-03-17T10:43:01Z</time>
      </trkpt>
      <trkpt lat="46.07496" lon="4.74787">
        <ele>173</ele>
        <time>2017-03-17T10:43:02Z</time>
      </trkpt>
      <trkpt lat="46.07491" lon="4.74782">
        <ele>173</ele>
        <time>2017-03-17T10:43:03Z</time>
      </trkpt>
      <trkpt lat="46.07487" lon="4.74778">
        <ele>173</ele>
        <time>2017-03-17T10:43:04Z</time>
      </trkpt>
      <trkpt lat="46.07482" lon="4.74773">
        <ele>173</ele>
        <time>2017-03-17T10:43:05Z</time>
      </trkpt>
      <trkpt lat="46.07477" lon="4.74769">
        <ele>173</ele>
        <time>2017-03-17T10:43:06Z</time>
      </trkpt>
      <trkpt lat="46.07472" lon="4.74764">
        <ele>173</ele>
        <time>2017-03-17T10:43:07Z</time>
      </trkpt>
      <trkpt lat="46.07468" lon="4.74758">
        <ele>173</ele>
        <time>2017-03-17T10:43:08Z</time>
      </trkpt>
      <trkpt lat="46.07463" lon="4.74753">
        <ele>173</ele>
        <time>2017-03-17T10:43:09Z</time>
      </trkpt>
      <trkpt lat="46.07458" lon="4.74747">
        <ele>173</ele>
        <time>2017-03-17T10:43:10Z</time>
      </trkpt>
      <trkpt lat="46.07453" lon="4.74741">
        <ele>173</ele>
        <time>2017-03-17T10:43:11Z</time>
      </trkpt>
      <trkpt lat="46.07448" lon="4.74735">
        <ele>173</ele>
        <time>2017-03-17T10:43:12Z</time>
      </trkpt>
      <trkpt lat="46.07444" lon="4.74728">
        <ele>173</ele>
        <time>2017-03-17T10:43:13Z</time>
      </trkpt>
      <trkpt lat="46.0744" lon="4.74722">
        <ele>173</ele>
        <time>2017-03-17T10:43:14Z</time>
      </trkpt>
      <trkpt lat="46.07437" lon="4.74715">
        <ele>173</ele>
        <time>2017-03-17T10:43:15Z</time>
      </trkpt>
      <trkpt lat="46.07434" lon="4.74709">
        <ele>173</ele>
        <time>2017-03-17T10:43:16Z</time>
      </trkpt>
      <trkpt lat="46.07431" lon="4.74703">
        <ele>173</ele>
        <time>2017-03-17T10:43:17Z</time>
      </trkpt>
      <trkpt lat="46.07428" lon="4.74697">
        <ele>173</ele>
        <time>2017-03-17T10:43:18Z</time>
      </trkpt>
      <trkpt lat="46.07425" lon="4.74691">
        <ele>173</ele>
        <time>2017-03-17T10:43:19Z</time>
      </trkpt>
      <trkpt lat="46.07422" lon="4.74685">
        <ele>172</ele>
        <time>2017-03-17T10:43:20Z</time>
      </trkpt>
      <trkpt lat="46.07418" lon="4.74679">
        <ele>172</ele>
        <time>2017-03-17T10:43:21Z</time>
      </trkpt>
      <trkpt lat="46.07415" lon="4.74673">
        <ele>172</ele>
        <time>2017-03-17T10:43:22Z</time>
      </trkpt>
      <trkpt lat="46.07412" lon="4.74666">
        <ele>172</ele>
        <time>2017-03-17T10:43:23Z</time>
      </trkpt>
      <trkpt lat="46.07408" lon="4.74659">
        <ele>173</ele>
        <time>2017-03-17T10:43:24Z</time>
      </trkpt>
      <trkpt lat="46.07405" lon="4.74653">
        <ele>173</ele>
        <time>2017-03-17T10:43:25Z</time>
      </trkpt>
      <trkpt lat="46.07402" lon="4.74646">
        <ele>173</ele>
        <time>2017-03-17T10:43:26Z</time>
      </trkpt>
      <trkpt lat="46.07399" lon="4.74639">
        <ele>174</ele>
        <time>2017-03-17T10:43:27Z</time>
      </trkpt>
      <trkpt lat="46.07396" lon="4.74632">
        <ele>174</ele>
        <time>2017-03-17T10:43:28Z</time>
      </trkpt>
      <trkpt lat="46.07392" lon="4.74625">
        <ele>174</ele>
        <time>2017-03-17T10:43:29Z</time>
      </trkpt>
      <trkpt lat="46.07389" lon="4.74619">
        <ele>174</ele>
        <time>2017-03-17T10:43:30Z</time>
      </trkpt>
      <trkpt lat="46.07386" lon="4.74613">
        <ele>174</ele>
        <time>2017-03-17T10:43:31Z</time>
      </trkpt>
      <trkpt lat="46.07383" lon="4.74607">
        <ele>174</ele>
        <time>2017-03-17T10:43:32Z</time>
      </trkpt>
      <trkpt lat="46.07381" lon="4.746">
        <ele>174</ele>
        <time>2017-03-17T10:43:33Z</time>
      </trkpt>
      <trkpt lat="46.07378" lon="4.74594">
        <ele>174</ele>
        <time>2017-03-17T10:43:34Z</time>
      </trkpt>
      <trkpt lat="46.07375" lon="4.74589">
        <ele>175</ele>
        <time>2017-03-17T10:43:35Z</time>
      </trkpt>
      <trkpt lat="46.07372" lon="4.74583">
        <ele>175</ele>
        <time>2017-03-17T10:43:36Z</time>
      </trkpt>
      <trkpt lat="46.0737" lon="4.74577">
        <ele>175</ele>
        <time>2017-03-17T10:43:37Z</time>
      </trkpt>
      <trkpt lat="46.07367" lon="4.74571">
        <ele>175</ele>
        <time>2017-03-17T10:43:38Z</time>
      </trkpt>
      <trkpt lat="46.07364" lon="4.74566">
        <ele>175</ele>
        <time>2017-03-17T10:43:39Z</time>
      </trkpt>
      <trkpt lat="46.0736" lon="4.7456">
        <ele>175</ele>
        <time>2017-03-17T10:43:40Z</time>
      </trkpt>
      <trkpt lat="46.07357" lon="4.74555">
        <ele>175</ele>
        <time>2017-03-17T10:43:41Z</time>
      </trkpt>
      <trkpt lat="46.07353" lon="4.74549">
        <ele>175</ele>
        <time>2017-03-17T10:43:42Z</time>
      </trkpt>
      <trkpt lat="46.07349" lon="4.74544">
        <ele>175</ele>
        <time>2017-03-17T10:43:43Z</time>
      </trkpt>
      <trkpt lat="46.07345" lon="4.74538">
        <ele>175</ele>
        <time>2017-03-17T10:43:44Z</time>
      </trkpt>
      <trkpt lat="46.07341" lon="4.74532">
        <ele>175</ele>
        <time>2017-03-17T10:43:45Z</time>
      </trkpt>
      <trkpt lat="46.07338" lon="4.74527">
        <ele>175</ele>
        <time>2017-03-17T10:43:46Z</time>
      </trkpt>
      <trkpt lat="46.07334" lon="4.74521">
        <ele>175</ele>
        <time>2017-03-17T10:43:47Z</time>
      </trkpt>
      <trkpt lat="46.07331" lon="4.74516">
        <ele>176</ele>
        <time>2017-03-17T10:43:48Z</time>
      </trkpt>
      <trkpt lat="46.07328" lon="4.7451">
        <ele>176</ele>
        <time>2017-03-17T10:43:49Z</time>
      </trkpt>
      <trkpt lat="46.07325" lon="4.74504">
        <ele>176</ele>
        <time>2017-03-17T10:43:50Z</time>
      </trkpt>
      <trkpt lat="46.07323" lon="4.74498">
        <ele>176</ele>
        <time>2017-03-17T10:43:51Z</time>
      </trkpt>
      <trkpt lat="46.0732" lon="4.74492">
        <ele>175</ele>
        <time>2017-03-17T10:43:52Z</time>
      </trkpt>
      <trkpt lat="46.07317" lon="4.74485">
        <ele>175</ele>
        <time>2017-03-17T10:43:53Z</time>
      </trkpt>
      <trkpt lat="46.07315" lon="4.74478">
        <ele>175</ele>
        <time>2017-03-17T10:43:54Z</time>
      </trkpt>
      <trkpt lat="46.07312" lon="4.74471">
        <ele>175</ele>
        <time>2017-03-17T10:43:55Z</time>
      </trkpt>
      <trkpt lat="46.0731" lon="4.74464">
        <ele>175</ele>
        <time>2017-03-17T10:43:56Z</time>
      </trkpt>
      <trkpt lat="46.07308" lon="4.74456">
        <ele>175</ele>
        <time>2017-03-17T10:43:57Z</time>
      </trkpt>
      <trkpt lat="46.07306" lon="4.74449">
        <ele>175</ele>
        <time>2017-03-17T10:43:58Z</time>
      </trkpt>
      <trkpt lat="46.07304" lon="4.74441">
        <ele>175</ele>
        <time>2017-03-17T10:43:59Z</time>
      </trkpt>
      <trkpt lat="46.07302" lon="4.74433">
        <ele>175</ele>
        <time>2017-03-17T10:44:00Z</time>
      </trkpt>
      <trkpt lat="46.07301" lon="4.74425">
        <ele>175</ele>
        <time>2017-03-17T10:44:01Z</time>
      </trkpt>
      <trkpt lat="46.073" lon="4.74417">
        <ele>175</ele>
        <time>2017-03-17T10:44:02Z</time>
      </trkpt>
      <trkpt lat="46.07299" lon="4.74409">
        <ele>174</ele>
        <time>2017-03-17T10:44:03Z</time>
      </trkpt>
      <trkpt lat="46.07298" lon="4.74401">
        <ele>174</ele>
        <time>2017-03-17T10:44:04Z</time>
      </trkpt>
      <trkpt lat="46.07297" lon="4.74394">
        <ele>174</ele>
        <time>2017-03-17T10:44:05Z</time>
      </trkpt>
      <trkpt lat="46.07296" lon="4.74386">
        <ele>174</ele>
        <time>2017-03-17T10:44:06Z</time>
      </trkpt>
      <trkpt lat="46.07295" lon="4.74378">
        <ele>174</ele>
        <time>2017-03-17T10:44:07Z</time>
      </trkpt>
      <trkpt lat="46.07294" lon="4.7437">
        <ele>174</ele>
        <time>2017-03-17T10:44:08Z</time>
      </trkpt>
      <trkpt lat="46.07294" lon="4.74362">
        <ele>174</ele>
        <time>2017-03-17T10:44:09Z</time>
      </trkpt>
      <trkpt lat="46.07293" lon="4.74354">
        <ele>174</ele>
        <time>2017-03-17T10:44:10Z</time>
      </trkpt>
      <trkpt lat="46.07292" lon="4.74346">
        <ele>174</ele>
        <time>2017-03-17T10:44:11Z</time>
      </trkpt>
      <trkpt lat="46.07291" lon="4.74339">
        <ele>174</ele>
        <time>2017-03-17T10:44:12Z</time>
      </trkpt>
      <trkpt lat="46.0729" lon="4.74331">
        <ele>174</ele>
        <time>2017-03-17T10:44:13Z</time>
      </trkpt>
      <trkpt lat="46.0729" lon="4.74323">
        <ele>174</ele>
        <time>2017-03-17T10:44:14Z</time>
      </trkpt>
      <trkpt lat="46.07289" lon="4.74316">
        <ele>174</ele>
        <time>2017-03-17T10:44:15Z</time>
      </trkpt>
      <trkpt lat="46.07288" lon="4.74309">
        <ele>174</ele>
        <time>2017-03-17T10:44:16Z</time>
      </trkpt>
      <trkpt lat="46.07286" lon="4.74301">
        <ele>174</ele>
        <time>2017-03-17T10:44:17Z</time>
      </trkpt>
      <trkpt lat="46.07285" lon="4.74294">
        <ele>174</ele>
        <time>2017-03-17T10:44:18Z</time>
      </trkpt>
      <trkpt lat="46.07283" lon="4.74288">
        <ele>174</ele>
        <time>2017-03-17T10:44:19Z</time>
      </trkpt>
      <trkpt lat="46.07281" lon="4.74281">
        <ele>175</ele>
        <time>2017-03-17T10:44:20Z</time>
      </trkpt>
      <trkpt lat="46.0728" lon="4.74275">
        <ele>175</ele>
        <time>2017-03-17T10:44:21Z</time>
      </trkpt>
      <trkpt lat="46.07279" lon="4.74268">
        <ele>175</ele>
        <time>2017-03-17T10:44:22Z</time>
      </trkpt>
      <trkpt lat="46.07277" lon="4.74261">
        <ele>175</ele>
        <time>2017-03-17T10:44:23Z</time>
      </trkpt>
      <trkpt lat="46.07275" lon="4.74255">
        <ele>175</ele>
        <time>2017-03-17T10:44:24Z</time>
      </trkpt>
      <trkpt lat="46.07273" lon="4.74248">
        <ele>175</ele>
        <time>2017-03-17T10:44:25Z</time>
      </trkpt>
      <trkpt lat="46.0727" lon="4.74242">
        <ele>175</ele>
        <time>2017-03-17T10:44:26Z</time>
      </trkpt>
      <trkpt lat="46.07268" lon="4.74236">
        <ele>175</ele>
        <time>2017-03-17T10:44:27Z</time>
      </trkpt>
      <trkpt lat="46.07265" lon="4.74224">
        <ele>176</ele>
        <time>2017-03-17T10:44:29Z</time>
      </trkpt>
      <trkpt lat="46.07263" lon="4.74219">
        <ele>176</ele>
        <time>2017-03-17T10:44:30Z</time>
      </trkpt>
      <trkpt lat="46.07259" lon="4.74208">
        <ele>176</ele>
        <time>2017-03-17T10:44:32Z</time>
      </trkpt>
      <trkpt lat="46.07256" lon="4.74202">
        <ele>176</ele>
        <time>2017-03-17T10:44:33Z</time>
      </trkpt>
      <trkpt lat="46.07252" lon="4.74191">
        <ele>176</ele>
        <time>2017-03-17T10:44:35Z</time>
      </trkpt>
      <trkpt lat="46.0725" lon="4.74186">
        <ele>176</ele>
        <time>2017-03-17T10:44:36Z</time>
      </trkpt>
      <trkpt lat="46.07246" lon="4.74176">
        <ele>176</ele>
        <time>2017-03-17T10:44:38Z</time>
      </trkpt>
      <trkpt lat="46.07244" lon="4.74171">
        <ele>177</ele>
        <time>2017-03-17T10:44:39Z</time>
      </trkpt>
      <trkpt lat="46.07241" lon="4.7416">
        <ele>177</ele>
        <time>2017-03-17T10:44:41Z</time>
      </trkpt>
      <trkpt lat="46.07239" lon="4.74155">
        <ele>177</ele>
        <time>2017-03-17T10:44:42Z</time>
      </trkpt>
      <trkpt lat="46.07236" lon="4.74146">
        <ele>177</ele>
        <time>2017-03-17T10:44:44Z</time>
      </trkpt>
      <trkpt lat="46.07233" lon="4.74142">
        <ele>177</ele>
        <time>2017-03-17T10:44:45Z</time>
      </trkpt>
      <trkpt lat="46.07229" lon="4.74131">
        <ele>177</ele>
        <time>2017-03-17T10:44:47Z</time>
      </trkpt>
      <trkpt lat="46.07227" lon="4.74126">
        <ele>177</ele>
        <time>2017-03-17T10:44:48Z</time>
      </trkpt>
      <trkpt lat="46.07224" lon="4.74116">
        <ele>177</ele>
        <time>2017-03-17T10:44:50Z</time>
      </trkpt>
      <trkpt lat="46.07222" lon="4.74111">
        <ele>177</ele>
        <time>2017-03-17T10:44:51Z</time>
      </trkpt>
      <trkpt lat="46.07219" lon="4.74101">
        <ele>177</ele>
        <time>2017-03-17T10:44:53Z</time>
      </trkpt>
      <trkpt lat="46.07217" lon="4.74096">
        <ele>177</ele>
        <time>2017-03-17T10:44:54Z</time>
      </trkpt>
      <trkpt lat="46.07213" lon="4.74085">
        <ele>177</ele>
        <time>2017-03-17T10:44:56Z</time>
      </trkpt>
      <trkpt lat="46.07211" lon="4.7408">
        <ele>177</ele>
        <time>2017-03-17T10:44:57Z</time>
      </trkpt>
      <trkpt lat="46.07207" lon="4.74069">
        <ele>178</ele>
        <time>2017-03-17T10:44:59Z</time>
      </trkpt>
      <trkpt lat="46.07205" lon="4.74063">
        <ele>178</ele>
        <time>2017-03-17T10:45:00Z</time>
      </trkpt>
      <trkpt lat="46.07203" lon="4.74057">
        <ele>178</ele>
        <time>2017-03-17T10:45:01Z</time>
      </trkpt>
      <trkpt lat="46.07201" lon="4.74051">
        <ele>178</ele>
        <time>2017-03-17T10:45:02Z</time>
      </trkpt>
      <trkpt lat="46.07199" lon="4.74045">
        <ele>178</ele>
        <time>2017-03-17T10:45:03Z</time>
      </trkpt>
      <trkpt lat="46.07196" lon="4.74038">
        <ele>178</ele>
        <time>2017-03-17T10:45:04Z</time>
      </trkpt>
      <trkpt lat="46.07194" lon="4.74032">
        <ele>178</ele>
        <time>2017-03-17T10:45:05Z</time>
      </trkpt>
      <trkpt lat="46.07192" lon="4.74025">
        <ele>178</ele>
        <time>2017-03-17T10:45:06Z</time>
      </trkpt>
      <trkpt lat="46.07189" lon="4.74017">
        <ele>178</ele>
        <time>2017-03-17T10:45:07Z</time>
      </trkpt>
      <trkpt lat="46.07187" lon="4.74009">
        <ele>178</ele>
        <time>2017-03-17T10:45:08Z</time>
      </trkpt>
      <trkpt lat="46.07184" lon="4.74001">
        <ele>178</ele>
        <time>2017-03-17T10:45:09Z</time>
      </trkpt>
      <trkpt lat="46.07182" lon="4.73993">
        <ele>178</ele>
        <time>2017-03-17T10:45:10Z</time>
      </trkpt>
      <trkpt lat="46.07179" lon="4.73984">
        <ele>178</ele>
        <time>2017-03-17T10:45:11Z</time>
      </trkpt>
      <trkpt lat="46.07176" lon="4.73975">
        <ele>178</ele>
        <time>2017-03-17T10:45:12Z</time>
      </trkpt>
      <trkpt lat="46.07172" lon="4.73965">
        <ele>178</ele>
        <time>2017-03-17T10:45:13Z</time>
      </trkpt>
      <trkpt lat="46.07169" lon="4.73956">
        <ele>177</ele>
        <time>2017-03-17T10:45:14Z</time>
      </trkpt>
      <trkpt lat="46.07166" lon="4.73946">
        <ele>177</ele>
        <time>2017-03-17T10:45:15Z</time>
      </trkpt>
      <trkpt lat="46.07164" lon="4.73937">
        <ele>177</ele>
        <time>2017-03-17T10:45:16Z</time>
      </trkpt>
      <trkpt lat="46.07161" lon="4.73928">
        <ele>177</ele>
        <time>2017-03-17T10:45:17Z</time>
      </trkpt>
      <trkpt lat="46.07158" lon="4.73919">
        <ele>177</ele>
        <time>2017-03-17T10:45:18Z</time>
      </trkpt>
      <trkpt lat="46.07155" lon="4.73911">
        <ele>177</ele>
        <time>2017-03-17T10:45:19Z</time>
      </trkpt>
      <trkpt lat="46.07153" lon="4.73903">
        <ele>177</ele>
        <time>2017-03-17T10:45:20Z</time>
      </trkpt>
      <trkpt lat="46.0715" lon="4.73895">
        <ele>177</ele>
        <time>2017-03-17T10:45:21Z</time>
      </trkpt>
      <trkpt lat="46.07146" lon="4.73887">
        <ele>176</ele>
        <time>2017-03-17T10:45:22Z</time>
      </trkpt>
      <trkpt lat="46.07143" lon="4.7388">
        <ele>176</ele>
        <time>2017-03-17T10:45:23Z</time>
      </trkpt>
      <trkpt lat="46.0714" lon="4.73874">
        <ele>176</ele>
        <time>2017-03-17T10:45:24Z</time>
      </trkpt>
      <trkpt lat="46.07136" lon="4.73868">
        <ele>176</ele>
        <time>2017-03-17T10:45:25Z</time>
      </trkpt>
      <trkpt lat="46.07133" lon="4.73862">
        <ele>176</ele>
        <time>2017-03-17T10:45:26Z</time>
      </trkpt>
      <trkpt lat="46.07129" lon="4.73857">
        <ele>176</ele>
        <time>2017-03-17T10:45:27Z</time>
      </trkpt>
      <trkpt lat="46.07126" lon="4.73852">
        <ele>176</ele>
        <time>2017-03-17T10:45:28Z</time>
      </trkpt>
      <trkpt lat="46.07122" lon="4.73847">
        <ele>177</ele>
        <time>2017-03-17T10:45:29Z</time>
      </trkpt>
      <trkpt lat="46.07119" lon="4.73841">
        <ele>177</ele>
        <time>2017-03-17T10:45:30Z</time>
      </trkpt>
      <trkpt lat="46.07115" lon="4.73836">
        <ele>177</ele>
        <time>2017-03-17T10:45:31Z</time>
      </trkpt>
      <trkpt lat="46.0711" lon="4.73831">
        <ele>177</ele>
        <time>2017-03-17T10:45:32Z</time>
      </trkpt>
      <trkpt lat="46.07105" lon="4.73826">
        <ele>178</ele>
        <time>2017-03-17T10:45:33Z</time>
      </trkpt>
      <trkpt lat="46.07101" lon="4.73822">
        <ele>178</ele>
        <time>2017-03-17T10:45:34Z</time>
      </trkpt>
      <trkpt lat="46.07095" lon="4.73818">
        <ele>178</ele>
        <time>2017-03-17T10:45:35Z</time>
      </trkpt>
      <trkpt lat="46.07089" lon="4.73813">
        <ele>178</ele>
        <time>2017-03-17T10:45:36Z</time>
      </trkpt>
      <trkpt lat="46.07084" lon="4.73809">
        <ele>178</ele>
        <time>2017-03-17T10:45:37Z</time>
      </trkpt>
      <trkpt lat="46.07078" lon="4.73806">
        <ele>178</ele>
        <time>2017-03-17T10:45:38Z</time>
      </trkpt>
      <trkpt lat="46.07072" lon="4.73802">
        <ele>178</ele>
        <time>2017-03-17T10:45:39Z</time>
      </trkpt>
      <trkpt lat="46.07067" lon="4.73799">
        <ele>178</ele>
        <time>2017-03-17T10:45:40Z</time>
      </trkpt>
      <trkpt lat="46.07061" lon="4.73797">
        <ele>178</ele>
        <time>2017-03-17T10:45:41Z</time>
      </trkpt>
      <trkpt lat="46.07055" lon="4.73795">
        <ele>177</ele>
        <time>2017-03-17T10:45:42Z</time>
      </trkpt>
      <trkpt lat="46.0705" lon="4.73794">
        <ele>177</ele>
        <time>2017-03-17T10:45:43Z</time>
      </trkpt>
      <trkpt lat="46.07044" lon="4.73793">
        <ele>177</ele>
        <time>2017-03-17T10:45:44Z</time>
      </trkpt>
      <trkpt lat="46.07038" lon="4.73791">
        <ele>177</ele>
        <time>2017-03-17T10:45:45Z</time>
      </trkpt>
      <trkpt lat="46.07032" lon="4.7379">
        <ele>177</ele>
        <time>2017-03-17T10:45:46Z</time>
      </trkpt>
      <trkpt lat="46.07026" lon="4.73789">
        <ele>177</ele>
        <time>2017-03-17T10:45:47Z</time>
      </trkpt>
      <trkpt lat="46.07021" lon="4.73789">
        <ele>177</ele>
        <time>2017-03-17T10:45:48Z</time>
      </trkpt>
      <trkpt lat="46.07015" lon="4.73788">
        <ele>177</ele>
        <time>2017-03-17T10:45:49Z</time>
      </trkpt>
      <trkpt lat="46.07009" lon="4.73787">
        <ele>177</ele>
        <time>2017-03-17T10:45:50Z</time>
      </trkpt>
      <trkpt lat="46.07003" lon="4.73787">
        <ele>177</ele>
        <time>2017-03-17T10:45:51Z</time>
      </trkpt>
      <trkpt lat="46.06997" lon="4.73786">
        <ele>176</ele>
        <time>2017-03-17T10:45:52Z</time>
      </trkpt>
      <trkpt lat="46.0699" lon="4.73786">
        <ele>176</ele>
        <time>2017-03-17T10:45:53Z</time>
      </trkpt>
      <trkpt lat="46.06984" lon="4.73785">
        <ele>176</ele>
        <time>2017-03-17T10:45:54Z</time>
      </trkpt>
      <trkpt lat="46.06978" lon="4.73784">
        <ele>176</ele>
        <time>2017-03-17T10:45:55Z</time>
      </trkpt>
      <trkpt lat="46.06973" lon="4.73783">
        <ele>176</ele>
        <time>2017-03-17T10:45:56Z</time>
      </trkpt>
      <trkpt lat="46.06968" lon="4.73782">
        <ele>176</ele>
        <time>2017-03-17T10:45:57Z</time>
      </trkpt>
      <trkpt lat="46.06962" lon="4.7378">
        <ele>176</ele>
        <time>2017-03-17T10:45:58Z</time>
      </trkpt>
      <trkpt lat="46.06957" lon="4.73778">
        <ele>176</ele>
        <time>2017-03-17T10:45:59Z</time>
      </trkpt>
      <trkpt lat="46.06952" lon="4.73776">
        <ele>176</ele>
        <time>2017-03-17T10:46:00Z</time>
      </trkpt>
      <trkpt lat="46.06946" lon="4.73773">
        <ele>176</ele>
        <time>2017-03-17T10:46:01Z</time>
      </trkpt>
      <trkpt lat="46.06941" lon="4.7377">
        <ele>176</ele>
        <time>2017-03-17T10:46:02Z</time>
      </trkpt>
      <trkpt lat="46.06936" lon="4.73766">
        <ele>176</ele>
        <time>2017-03-17T10:46:03Z</time>
      </trkpt>
      <trkpt lat="46.06931" lon="4.73762">
        <ele>177</ele>
        <time>2017-03-17T10:46:04Z</time>
      </trkpt>
      <trkpt lat="46.06926" lon="4.73758">
        <ele>177</ele>
        <time>2017-03-17T10:46:05Z</time>
      </trkpt>
      <trkpt lat="46.06922" lon="4.73754">
        <ele>177</ele>
        <time>2017-03-17T10:46:06Z</time>
      </trkpt>
      <trkpt lat="46.06917" lon="4.73749">
        <ele>177</ele>
        <time>2017-03-17T10:46:07Z</time>
      </trkpt>
      <trkpt lat="46.06913" lon="4.73744">
        <ele>177</ele>
        <time>2017-03-17T10:46:08Z</time>
      </trkpt>
      <trkpt lat="46.06909" lon="4.73739">
        <ele>177</ele>
        <time>2017-03-17T10:46:09Z</time>
      </trkpt>
      <trkpt lat="46.06905" lon="4.73734">
        <ele>177</ele>
        <time>2017-03-17T10:46:10Z</time>
      </trkpt>
      <trkpt lat="46.06901" lon="4.73728">
        <ele>176</ele>
        <time>2017-03-17T10:46:11Z</time>
      </trkpt>
      <trkpt lat="46.06897" lon="4.73722">
        <ele>176</ele>
        <time>2017-03-17T10:46:12Z</time>
      </trkpt>
      <trkpt lat="46.06893" lon="4.73716">
        <ele>176</ele>
        <time>2017-03-17T10:46:13Z</time>
      </trkpt>
      <trkpt lat="46.0689" lon="4.73711">
        <ele>176</ele>
        <time>2017-03-17T10:46:14Z</time>
      </trkpt>
      <trkpt lat="46.06885" lon="4.73705">
        <ele>176</ele>
        <time>2017-03-17T10:46:15Z</time>
      </trkpt>
      <trkpt lat="46.06881" lon="4.737">
        <ele>176</ele>
        <time>2017-03-17T10:46:16Z</time>
      </trkpt>
      <trkpt lat="46.06877" lon="4.73695">
        <ele>176</ele>
        <time>2017-03-17T10:46:17Z</time>
      </trkpt>
      <trkpt lat="46.06872" lon="4.73689">
        <ele>176</ele>
        <time>2017-03-17T10:46:18Z</time>
      </trkpt>
      <trkpt lat="46.06868" lon="4.73684">
        <ele>176</ele>
        <time>2017-03-17T10:46:19Z</time>
      </trkpt>
      <trkpt lat="46.06864" lon="4.7368">
        <ele>176</ele>
        <time>2017-03-17T10:46:20Z</time>
      </trkpt>
      <trkpt lat="46.0686" lon="4.73675">
        <ele>176</ele>
        <time>2017-03-17T10:46:21Z</time>
      </trkpt>
      <trkpt lat="46.06855" lon="4.7367">
        <ele>176</ele>
        <time>2017-03-17T10:46:22Z</time>
      </trkpt>
      <trkpt lat="46.06851" lon="4.73666">
        <ele>176</ele>
        <time>2017-03-17T10:46:23Z</time>
      </trkpt>
      <trkpt lat="46.06847" lon="4.73662">
        <ele>176</ele>
        <time>2017-03-17T10:46:24Z</time>
      </trkpt>
      <trkpt lat="46.06844" lon="4.73658">
        <ele>176</ele>
        <time>2017-03-17T10:46:25Z</time>
      </trkpt>
      <trkpt lat="46.0684" lon="4.73653">
        <ele>176</ele>
        <time>2017-03-17T10:46:26Z</time>
      </trkpt>
      <trkpt lat="46.06836" lon="4.73649">
        <ele>176</ele>
        <time>2017-03-17T10:46:27Z</time>
      </trkpt>
      <trkpt lat="46.06832" lon="4.73645">
        <ele>177</ele>
        <time>2017-03-17T10:46:28Z</time>
      </trkpt>
      <trkpt lat="46.06828" lon="4.7364">
        <ele>177</ele>
        <time>2017-03-17T10:46:29Z</time>
      </trkpt>
      <trkpt lat="46.06824" lon="4.73636">
        <ele>178</ele>
        <time>2017-03-17T10:46:30Z</time>
      </trkpt>
      <trkpt lat="46.0682" lon="4.73631">
        <ele>178</ele>
        <time>2017-03-17T10:46:31Z</time>
      </trkpt>
      <trkpt lat="46.06816" lon="4.73626">
        <ele>178</ele>
        <time>2017-03-17T10:46:32Z</time>
      </trkpt>
      <trkpt lat="46.06812" lon="4.73621">
        <ele>178</ele>
        <time>2017-03-17T10:46:33Z</time>
      </trkpt>
      <trkpt lat="46.06808" lon="4.73616">
        <ele>178</ele>
        <time>2017-03-17T10:46:34Z</time>
      </trkpt>
      <trkpt lat="46.06803" lon="4.73611">
        <ele>178</ele>
        <time>2017-03-17T10:46:35Z</time>
      </trkpt>
      <trkpt lat="46.06799" lon="4.73606">
        <ele>178</ele>
        <time>2017-03-17T10:46:36Z</time>
      </trkpt>
      <trkpt lat="46.06796" lon="4.73601">
        <ele>178</ele>
        <time>2017-03-17T10:46:37Z</time>
      </trkpt>
      <trkpt lat="46.06792" lon="4.73597">
        <ele>179</ele>
        <time>2017-03-17T10:46:38Z</time>
      </trkpt>
      <trkpt lat="46.06789" lon="4.73592">
        <ele>179</ele>
        <time>2017-03-17T10:46:39Z</time>
      </trkpt>
      <trkpt lat="46.06786" lon="4.73587">
        <ele>179</ele>
        <time>2017-03-17T10:46:40Z</time>
      </trkpt>
      <trkpt lat="46.06782" lon="4.73582">
        <ele>179</ele>
        <time>2017-03-17T10:46:41Z</time>
      </trkpt>
      <trkpt lat="46.06779" lon="4.73576">
        <ele>180</ele>
        <time>2017-03-17T10:46:42Z</time>
      </trkpt>
      <trkpt lat="46.06775" lon="4.73571">
        <ele>180</ele>
        <time>2017-03-17T10:46:43Z</time>
      </trkpt>
      <trkpt lat="46.06773" lon="4.73565">
        <ele>180</ele>
        <time>2017-03-17T10:46:44Z</time>
      </trkpt>
      <trkpt lat="46.0677" lon="4.73558">
        <ele>179</ele>
        <time>2017-03-17T10:46:45Z</time>
      </trkpt>
      <trkpt lat="46.06768" lon="4.73551">
        <ele>179</ele>
        <time>2017-03-17T10:46:46Z</time>
      </trkpt>
      <trkpt lat="46.06765" lon="4.73545">
        <ele>179</ele>
        <time>2017-03-17T10:46:47Z</time>
      </trkpt>
      <trkpt lat="46.06763" lon="4.73538">
        <ele>179</ele>
        <time>2017-03-17T10:46:48Z</time>
      </trkpt>
      <trkpt lat="46.06761" lon="4.73531">
        <ele>179</ele>
        <time>2017-03-17T10:46:49Z</time>
      </trkpt>
      <trkpt lat="46.06758" lon="4.73524">
        <ele>179</ele>
        <time>2017-03-17T10:46:50Z</time>
      </trkpt>
      <trkpt lat="46.06754" lon="4.73518">
        <ele>179</ele>
        <time>2017-03-17T10:46:51Z</time>
      </trkpt>
      <trkpt lat="46.0675" lon="4.73512">
        <ele>180</ele>
        <time>2017-03-17T10:46:52Z</time>
      </trkpt>
      <trkpt lat="46.06745" lon="4.73506">
        <ele>179</ele>
        <time>2017-03-17T10:46:53Z</time>
      </trkpt>
      <trkpt lat="46.06741" lon="4.73501">
        <ele>179</ele>
        <time>2017-03-17T10:46:54Z</time>
      </trkpt>
      <trkpt lat="46.06737" lon="4.73496">
        <ele>180</ele>
        <time>2017-03-17T10:46:55Z</time>
      </trkpt>
      <trkpt lat="46.06732" lon="4.73491">
        <ele>180</ele>
        <time>2017-03-17T10:46:56Z</time>
      </trkpt>
      <trkpt lat="46.06728" lon="4.73487">
        <ele>180</ele>
        <time>2017-03-17T10:46:57Z</time>
      </trkpt>
      <trkpt lat="46.06723" lon="4.73482">
        <ele>180</ele>
        <time>2017-03-17T10:46:58Z</time>
      </trkpt>
      <trkpt lat="46.0672" lon="4.73477">
        <ele>180</ele>
        <time>2017-03-17T10:46:59Z</time>
      </trkpt>
      <trkpt lat="46.06716" lon="4.73471">
        <ele>180</ele>
        <time>2017-03-17T10:47:00Z</time>
      </trkpt>
      <trkpt lat="46.06712" lon="4.73466">
        <ele>180</ele>
        <time>2017-03-17T10:47:01Z</time>
      </trkpt>
      <trkpt lat="46.06708" lon="4.7346">
        <ele>180</ele>
        <time>2017-03-17T10:47:02Z</time>
      </trkpt>
      <trkpt lat="46.06704" lon="4.73454">
        <ele>180</ele>
        <time>2017-03-17T10:47:03Z</time>
      </trkpt>
      <trkpt lat="46.067" lon="4.73448">
        <ele>180</ele>
        <time>2017-03-17T10:47:04Z</time>
      </trkpt>
      <trkpt lat="46.06696" lon="4.73442">
        <ele>181</ele>
        <time>2017-03-17T10:47:05Z</time>
      </trkpt>
      <trkpt lat="46.06692" lon="4.73437">
        <ele>181</ele>
        <time>2017-03-17T10:47:06Z</time>
      </trkpt>
      <trkpt lat="46.06688" lon="4.73431">
        <ele>181</ele>
        <time>2017-03-17T10:47:07Z</time>
      </trkpt>
      <trkpt lat="46.06684" lon="4.73425">
        <ele>181</ele>
        <time>2017-03-17T10:47:08Z</time>
      </trkpt>
      <trkpt lat="46.0668" lon="4.73419">
        <ele>181</ele>
        <time>2017-03-17T10:47:09Z</time>
      </trkpt>
      <trkpt lat="46.06676" lon="4.73413">
        <ele>181</ele>
        <time>2017-03-17T10:47:10Z</time>
      </trkpt>
      <trkpt lat="46.06672" lon="4.73407">
        <ele>181</ele>
        <time>2017-03-17T10:47:11Z</time>
      </trkpt>
      <trkpt lat="46.06668" lon="4.73401">
        <ele>181</ele>
        <time>2017-03-17T10:47:12Z</time>
      </trkpt>
      <trkpt lat="46.06664" lon="4.73395">
        <ele>182</ele>
        <time>2017-03-17T10:47:13Z</time>
      </trkpt>
      <trkpt lat="46.0666" lon="4.7339">
        <ele>182</ele>
        <time>2017-03-17T10:47:14Z</time>
      </trkpt>
      <trkpt lat="46.06656" lon="4.73384">
        <ele>182</ele>
        <time>2017-03-17T10:47:15Z</time>
      </trkpt>
      <trkpt lat="46.06652" lon="4.73378">
        <ele>182</ele>
        <time>2017-03-17T10:47:16Z</time>
      </trkpt>
      <trkpt lat="46.06647" lon="4.73373">
        <ele>182</ele>
        <time>2017-03-17T10:47:17Z</time>
      </trkpt>
      <trkpt lat="46.06643" lon="4.73368">
        <ele>182</ele>
        <time>2017-03-17T10:47:18Z</time>
      </trkpt>
      <trkpt lat="46.06638" lon="4.73364">
        <ele>182</ele>
        <time>2017-03-17T10:47:19Z</time>
      </trkpt>
      <trkpt lat="46.06634" lon="4.7336">
        <ele>182</ele>
        <time>2017-03-17T10:47:20Z</time>
      </trkpt>
      <trkpt lat="46.06629" lon="4.73357">
        <ele>182</ele>
        <time>2017-03-17T10:47:21Z</time>
      </trkpt>
      <trkpt lat="46.06626" lon="4.73354">
        <ele>182</ele>
        <time>2017-03-17T10:47:22Z</time>
      </trkpt>
      <trkpt lat="46.06621" lon="4.73352">
        <ele>182</ele>
        <time>2017-03-17T10:47:23Z</time>
      </trkpt>
      <trkpt lat="46.06617" lon="4.7335">
        <ele>182</ele>
        <time>2017-03-17T10:47:24Z</time>
      </trkpt>
      <trkpt lat="46.06612" lon="4.73348">
        <ele>182</ele>
        <time>2017-03-17T10:47:25Z</time>
      </trkpt>
      <trkpt lat="46.06608" lon="4.73345">
        <ele>182</ele>
        <time>2017-03-17T10:47:26Z</time>
      </trkpt>
      <trkpt lat="46.06601" lon="4.73337">
        <ele>182</ele>
        <time>2017-03-17T10:47:28Z</time>
      </trkpt>
      <trkpt lat="46.06599" lon="4.73332">
        <ele>182</ele>
        <time>2017-03-17T10:47:29Z</time>
      </trkpt>
      <trkpt lat="46.06596" lon="4.73326">
        <ele>182</ele>
        <time>2017-03-17T10:47:30Z</time>
      </trkpt>
      <trkpt lat="46.06593" lon="4.73321">
        <ele>182</ele>
        <time>2017-03-17T10:47:31Z</time>
      </trkpt>
      <trkpt lat="46.0659" lon="4.73316">
        <ele>182</ele>
        <time>2017-03-17T10:47:32Z</time>
      </trkpt>
      <trkpt lat="46.06587" lon="4.73311">
        <ele>182</ele>
        <time>2017-03-17T10:47:33Z</time>
      </trkpt>
      <trkpt lat="46.06583" lon="4.73305">
        <ele>183</ele>
        <time>2017-03-17T10:47:34Z</time>
      </trkpt>
      <trkpt lat="46.0658" lon="4.733">
        <ele>183</ele>
        <time>2017-03-17T10:47:35Z</time>
      </trkpt>
      <trkpt lat="46.06578" lon="4.73294">
        <ele>184</ele>
        <time>2017-03-17T10:47:36Z</time>
      </trkpt>
      <trkpt lat="46.06576" lon="4.73288">
        <ele>184</ele>
        <time>2017-03-17T10:47:37Z</time>
      </trkpt>
      <trkpt lat="46.06573" lon="4.73282">
        <ele>184</ele>
        <time>2017-03-17T10:47:38Z</time>
      </trkpt>
      <trkpt lat="46.06571" lon="4.73276">
        <ele>184</ele>
        <time>2017-03-17T10:47:39Z</time>
      </trkpt>
      <trkpt lat="46.06569" lon="4.7327">
        <ele>184</ele>
        <time>2017-03-17T10:47:40Z</time>
      </trkpt>
      <trkpt lat="46.06567" lon="4.73264">
        <ele>184</ele>
        <time>2017-03-17T10:47:41Z</time>
      </trkpt>
      <trkpt lat="46.06563" lon="4.73253">
        <ele>184</ele>
        <time>2017-03-17T10:47:43Z</time>
      </trkpt>
      <trkpt lat="46.06561" lon="4.73247">
        <ele>186</ele>
        <time>2017-03-17T10:47:44Z</time>
      </trkpt>
      <trkpt lat="46.06557" lon="4.73236">
        <ele>186</ele>
        <time>2017-03-17T10:47:46Z</time>
      </trkpt>
      <trkpt lat="46.06555" lon="4.7323">
        <ele>186</ele>
        <time>2017-03-17T10:47:47Z</time>
      </trkpt>
      <trkpt lat="46.06553" lon="4.73224">
        <ele>186</ele>
        <time>2017-03-17T10:47:48Z</time>
      </trkpt>
      <trkpt lat="46.06552" lon="4.73218">
        <ele>186</ele>
        <time>2017-03-17T10:47:49Z</time>
      </trkpt>
      <trkpt lat="46.06549" lon="4.73206">
        <ele>186</ele>
        <time>2017-03-17T10:47:51Z</time>
      </trkpt>
      <trkpt lat="46.06548" lon="4.732">
        <ele>187</ele>
        <time>2017-03-17T10:47:52Z</time>
      </trkpt>
      <trkpt lat="46.06547" lon="4.73193">
        <ele>187</ele>
        <time>2017-03-17T10:47:53Z</time>
      </trkpt>
      <trkpt lat="46.06547" lon="4.73186">
        <ele>187</ele>
        <time>2017-03-17T10:47:54Z</time>
      </trkpt>
      <trkpt lat="46.06546" lon="4.73179">
        <ele>187</ele>
        <time>2017-03-17T10:47:55Z</time>
      </trkpt>
      <trkpt lat="46.06546" lon="4.73173">
        <ele>187</ele>
        <time>2017-03-17T10:47:56Z</time>
      </trkpt>
      <trkpt lat="46.06545" lon="4.73166">
        <ele>187</ele>
        <time>2017-03-17T10:47:57Z</time>
      </trkpt>
      <trkpt lat="46.06544" lon="4.73159">
        <ele>187</ele>
        <time>2017-03-17T10:47:58Z</time>
      </trkpt>
      <trkpt lat="46.06544" lon="4.73152">
        <ele>187</ele>
        <time>2017-03-17T10:47:59Z</time>
      </trkpt>
      <trkpt lat="46.06543" lon="4.73145">
        <ele>187</ele>
        <time>2017-03-17T10:48:00Z</time>
      </trkpt>
      <trkpt lat="46.06542" lon="4.73138">
        <ele>187</ele>
        <time>2017-03-17T10:48:01Z</time>
      </trkpt>
      <trkpt lat="46.06541" lon="4.73131">
        <ele>188</ele>
        <time>2017-03-17T10:48:02Z</time>
      </trkpt>
      <trkpt lat="46.06539" lon="4.73125">
        <ele>188</ele>
        <time>2017-03-17T10:48:03Z</time>
      </trkpt>
      <trkpt lat="46.06537" lon="4.73119">
        <ele>188</ele>
        <time>2017-03-17T10:48:04Z</time>
      </trkpt>
      <trkpt lat="46.06535" lon="4.73113">
        <ele>188</ele>
        <time>2017-03-17T10:48:05Z</time>
      </trkpt>
      <trkpt lat="46.06532" lon="4.73107">
        <ele>188</ele>
        <time>2017-03-17T10:48:06Z</time>
      </trkpt>
      <trkpt lat="46.06529" lon="4.73096">
        <ele>188</ele>
        <time>2017-03-17T10:48:08Z</time>
      </trkpt>
      <trkpt lat="46.06527" lon="4.7309">
        <ele>188</ele>
        <time>2017-03-17T10:48:09Z</time>
      </trkpt>
      <trkpt lat="46.06523" lon="4.73079">
        <ele>188</ele>
        <time>2017-03-17T10:48:11Z</time>
      </trkpt>
      <trkpt lat="46.06521" lon="4.73073">
        <ele>188</ele>
        <time>2017-03-17T10:48:12Z</time>
      </trkpt>
      <trkpt lat="46.06517" lon="4.73062">
        <ele>188</ele>
        <time>2017-03-17T10:48:14Z</time>
      </trkpt>
      <trkpt lat="46.06515" lon="4.73056">
        <ele>188</ele>
        <time>2017-03-17T10:48:15Z</time>
      </trkpt>
      <trkpt lat="46.0651" lon="4.73045">
        <ele>188</ele>
        <time>2017-03-17T10:48:17Z</time>
      </trkpt>
      <trkpt lat="46.06508" lon="4.73039">
        <ele>189</ele>
        <time>2017-03-17T10:48:18Z</time>
      </trkpt>
      <trkpt lat="46.06506" lon="4.73033">
        <ele>189</ele>
        <time>2017-03-17T10:48:19Z</time>
      </trkpt>
      <trkpt lat="46.06503" lon="4.73027">
        <ele>189</ele>
        <time>2017-03-17T10:48:20Z</time>
      </trkpt>
      <trkpt lat="46.06501" lon="4.73021">
        <ele>189</ele>
        <time>2017-03-17T10:48:21Z</time>
      </trkpt>
      <trkpt lat="46.06497" lon="4.73016">
        <ele>189</ele>
        <time>2017-03-17T10:48:22Z</time>
      </trkpt>
      <trkpt lat="46.06494" lon="4.7301">
        <ele>189</ele>
        <time>2017-03-17T10:48:23Z</time>
      </trkpt>
      <trkpt lat="46.06491" lon="4.73004">
        <ele>189</ele>
        <time>2017-03-17T10:48:24Z</time>
      </trkpt>
      <trkpt lat="46.06488" lon="4.72998">
        <ele>189</ele>
        <time>2017-03-17T10:48:25Z</time>
      </trkpt>
      <trkpt lat="46.06486" lon="4.72991">
        <ele>189</ele>
        <time>2017-03-17T10:48:26Z</time>
      </trkpt>
      <trkpt lat="46.06483" lon="4.7298">
        <ele>189</ele>
        <time>2017-03-17T10:48:28Z</time>
      </trkpt>
      <trkpt lat="46.06481" lon="4.72975">
        <ele>188</ele>
        <time>2017-03-17T10:48:29Z</time>
      </trkpt>
      <trkpt lat="46.06479" lon="4.72964">
        <ele>188</ele>
        <time>2017-03-17T10:48:31Z</time>
      </trkpt>
      <trkpt lat="46.06479" lon="4.72959">
        <ele>188</ele>
        <time>2017-03-17T10:48:32Z</time>
      </trkpt>
      <trkpt lat="46.06477" lon="4.72948">
        <ele>188</ele>
        <time>2017-03-17T10:48:34Z</time>
      </trkpt>
      <trkpt lat="46.06476" lon="4.72942">
        <ele>188</ele>
        <time>2017-03-17T10:48:35Z</time>
      </trkpt>
      <trkpt lat="46.06474" lon="4.7293">
        <ele>188</ele>
        <time>2017-03-17T10:48:37Z</time>
      </trkpt>
      <trkpt lat="46.06473" lon="4.72924">
        <ele>188</ele>
        <time>2017-03-17T10:48:38Z</time>
      </trkpt>
      <trkpt lat="46.06471" lon="4.72912">
        <ele>188</ele>
        <time>2017-03-17T10:48:40Z</time>
      </trkpt>
      <trkpt lat="46.0647" lon="4.72906">
        <ele>188</ele>
        <time>2017-03-17T10:48:41Z</time>
      </trkpt>
      <trkpt lat="46.06469" lon="4.72899">
        <ele>188</ele>
        <time>2017-03-17T10:48:42Z</time>
      </trkpt>
      <trkpt lat="46.06467" lon="4.72893">
        <ele>188</ele>
        <time>2017-03-17T10:48:43Z</time>
      </trkpt>
      <trkpt lat="46.06465" lon="4.72887">
        <ele>188</ele>
        <time>2017-03-17T10:48:44Z</time>
      </trkpt>
      <trkpt lat="46.06464" lon="4.7288">
        <ele>188</ele>
        <time>2017-03-17T10:48:45Z</time>
      </trkpt>
      <trkpt lat="46.06462" lon="4.72872">
        <ele>188</ele>
        <time>2017-03-17T10:48:46Z</time>
      </trkpt>
      <trkpt lat="46.06462" lon="4.72864">
        <ele>188</ele>
        <time>2017-03-17T10:48:47Z</time>
      </trkpt>
      <trkpt lat="46.06461" lon="4.72855">
        <ele>188</ele>
        <time>2017-03-17T10:48:48Z</time>
      </trkpt>
      <trkpt lat="46.0646" lon="4.72847">
        <ele>188</ele>
        <time>2017-03-17T10:48:49Z</time>
      </trkpt>
      <trkpt lat="46.06459" lon="4.72839">
        <ele>188</ele>
        <time>2017-03-17T10:48:50Z</time>
      </trkpt>
      <trkpt lat="46.06458" lon="4.72832">
        <ele>188</ele>
        <time>2017-03-17T10:48:51Z</time>
      </trkpt>
      <trkpt lat="46.06457" lon="4.72823">
        <ele>188</ele>
        <time>2017-03-17T10:48:52Z</time>
      </trkpt>
      <trkpt lat="46.06456" lon="4.72814">
        <ele>188</ele>
        <time>2017-03-17T10:48:53Z</time>
      </trkpt>
      <trkpt lat="46.06455" lon="4.72806">
        <ele>188</ele>
        <time>2017-03-17T10:48:54Z</time>
      </trkpt>
      <trkpt lat="46.06453" lon="4.72798">
        <ele>188</ele>
        <time>2017-03-17T10:48:55Z</time>
      </trkpt>
      <trkpt lat="46.06452" lon="4.72791">
        <ele>188</ele>
        <time>2017-03-17T10:48:56Z</time>
      </trkpt>
      <trkpt lat="46.06451" lon="4.72785">
        <ele>188</ele>
        <time>2017-03-17T10:48:57Z</time>
      </trkpt>
      <trkpt lat="46.0645" lon="4.72778">
        <ele>188</ele>
        <time>2017-03-17T10:48:58Z</time>
      </trkpt>
      <trkpt lat="46.06449" lon="4.72771">
        <ele>188</ele>
        <time>2017-03-17T10:48:59Z</time>
      </trkpt>
      <trkpt lat="46.06448" lon="4.72765">
        <ele>188</ele>
        <time>2017-03-17T10:49:00Z</time>
      </trkpt>
      <trkpt lat="46.06447" lon="4.72758">
        <ele>188</ele>
        <time>2017-03-17T10:49:01Z</time>
      </trkpt>
      <trkpt lat="46.06446" lon="4.72752">
        <ele>188</ele>
        <time>2017-03-17T10:49:02Z</time>
      </trkpt>
      <trkpt lat="46.06445" lon="4.72745">
        <ele>189</ele>
        <time>2017-03-17T10:49:03Z</time>
      </trkpt>
      <trkpt lat="46.06444" lon="4.72739">
        <ele>189</ele>
        <time>2017-03-17T10:49:04Z</time>
      </trkpt>
      <trkpt lat="46.06442" lon="4.72732">
        <ele>189</ele>
        <time>2017-03-17T10:49:05Z</time>
      </trkpt>
      <trkpt lat="46.06441" lon="4.7272">
        <ele>190</ele>
        <time>2017-03-17T10:49:07Z</time>
      </trkpt>
      <trkpt lat="46.0644" lon="4.72713">
        <ele>190</ele>
        <time>2017-03-17T10:49:08Z</time>
      </trkpt>
      <trkpt lat="46.06439" lon="4.72707">
        <ele>190</ele>
        <time>2017-03-17T10:49:09Z</time>
      </trkpt>
      <trkpt lat="46.06438" lon="4.727">
        <ele>190</ele>
        <time>2017-03-17T10:49:10Z</time>
      </trkpt>
      <trkpt lat="46.06437" lon="4.72693">
        <ele>190</ele>
        <time>2017-03-17T10:49:11Z</time>
      </trkpt>
      <trkpt lat="46.06436" lon="4.72687">
        <ele>190</ele>
        <time>2017-03-17T10:49:12Z</time>
      </trkpt>
      <trkpt lat="46.06435" lon="4.7268">
        <ele>191</ele>
        <time>2017-03-17T10:49:13Z</time>
      </trkpt>
      <trkpt lat="46.06434" lon="4.72674">
        <ele>191</ele>
        <time>2017-03-17T10:49:14Z</time>
      </trkpt>
      <trkpt lat="46.06433" lon="4.72667">
        <ele>191</ele>
        <time>2017-03-17T10:49:15Z</time>
      </trkpt>
      <trkpt lat="46.06432" lon="4.72661">
        <ele>192</ele>
        <time>2017-03-17T10:49:16Z</time>
      </trkpt>
      <trkpt lat="46.06431" lon="4.72654">
        <ele>192</ele>
        <time>2017-03-17T10:49:17Z</time>
      </trkpt>
      <trkpt lat="46.0643" lon="4.72647">
        <ele>192</ele>
        <time>2017-03-17T10:49:18Z</time>
      </trkpt>
      <trkpt lat="46.06428" lon="4.72641">
        <ele>192</ele>
        <time>2017-03-17T10:49:19Z</time>
      </trkpt>
      <trkpt lat="46.06427" lon="4.72635">
        <ele>192</ele>
        <time>2017-03-17T10:49:20Z</time>
      </trkpt>
      <trkpt lat="46.06425" lon="4.72622">
        <ele>193</ele>
        <time>2017-03-17T10:49:22Z</time>
      </trkpt>
      <trkpt lat="46.06424" lon="4.72616">
        <ele>193</ele>
        <time>2017-03-17T10:49:23Z</time>
      </trkpt>
      <trkpt lat="46.06423" lon="4.72605">
        <ele>193</ele>
        <time>2017-03-17T10:49:25Z</time>
      </trkpt>
      <trkpt lat="46.06422" lon="4.72599">
        <ele>194</ele>
        <time>2017-03-17T10:49:26Z</time>
      </trkpt>
      <trkpt lat="46.06419" lon="4.72588">
        <ele>194</ele>
        <time>2017-03-17T10:49:28Z</time>
      </trkpt>
      <trkpt lat="46.06418" lon="4.72583">
        <ele>195</ele>
        <time>2017-03-17T10:49:29Z</time>
      </trkpt>
      <trkpt lat="46.06416" lon="4.72572">
        <ele>195</ele>
        <time>2017-03-17T10:49:31Z</time>
      </trkpt>
      <trkpt lat="46.06415" lon="4.72566">
        <ele>196</ele>
        <time>2017-03-17T10:49:32Z</time>
      </trkpt>
      <trkpt lat="46.06413" lon="4.72554">
        <ele>196</ele>
        <time>2017-03-17T10:49:34Z</time>
      </trkpt>
      <trkpt lat="46.06412" lon="4.72548">
        <ele>196</ele>
        <time>2017-03-17T10:49:35Z</time>
      </trkpt>
      <trkpt lat="46.0641" lon="4.72536">
        <ele>197</ele>
        <time>2017-03-17T10:49:37Z</time>
      </trkpt>
      <trkpt lat="46.06409" lon="4.7253">
        <ele>197</ele>
        <time>2017-03-17T10:49:38Z</time>
      </trkpt>
      <trkpt lat="46.06406" lon="4.72518">
        <ele>198</ele>
        <time>2017-03-17T10:49:40Z</time>
      </trkpt>
      <trkpt lat="46.06404" lon="4.72513">
        <ele>198</ele>
        <time>2017-03-17T10:49:41Z</time>
      </trkpt>
      <trkpt lat="46.06401" lon="4.72502">
        <ele>198</ele>
        <time>2017-03-17T10:49:43Z</time>
      </trkpt>
      <trkpt lat="46.064" lon="4.72497">
        <ele>198</ele>
        <time>2017-03-17T10:49:44Z</time>
      </trkpt>
      <trkpt lat="46.06396" lon="4.72486">
        <ele>198</ele>
        <time>2017-03-17T10:49:46Z</time>
      </trkpt>
      <trkpt lat="46.06395" lon="4.7248">
        <ele>198</ele>
        <time>2017-03-17T10:49:47Z</time>
      </trkpt>
      <trkpt lat="46.06391" lon="4.72469">
        <ele>197</ele>
        <time>2017-03-17T10:49:49Z</time>
      </trkpt>
      <trkpt lat="46.06389" lon="4.72464">
        <ele>197</ele>
        <time>2017-03-17T10:49:50Z</time>
      </trkpt>
      <trkpt lat="46.06383" lon="4.72455">
        <ele>197</ele>
        <time>2017-03-17T10:49:52Z</time>
      </trkpt>
      <trkpt lat="46.06381" lon="4.72449">
        <ele>197</ele>
        <time>2017-03-17T10:49:53Z</time>
      </trkpt>
      <trkpt lat="46.06379" lon="4.72443">
        <ele>197</ele>
        <time>2017-03-17T10:49:54Z</time>
      </trkpt>
      <trkpt lat="46.06376" lon="4.72438">
        <ele>197</ele>
        <time>2017-03-17T10:49:55Z</time>
      </trkpt>
      <trkpt lat="46.06374" lon="4.72432">
        <ele>197</ele>
        <time>2017-03-17T10:49:56Z</time>
      </trkpt>
      <trkpt lat="46.06371" lon="4.72427">
        <ele>197</ele>
        <time>2017-03-17T10:49:57Z</time>
      </trkpt>
      <trkpt lat="46.06367" lon="4.72417">
        <ele>196</ele>
        <time>2017-03-17T10:49:59Z</time>
      </trkpt>
      <trkpt lat="46.06364" lon="4.72412">
        <ele>196</ele>
        <time>2017-03-17T10:50:00Z</time>
      </trkpt>
      <trkpt lat="46.0636" lon="4.72403">
        <ele>196</ele>
        <time>2017-03-17T10:50:02Z</time>
      </trkpt>
      <trkpt lat="46.06359" lon="4.72398">
        <ele>196</ele>
        <time>2017-03-17T10:50:03Z</time>
      </trkpt>
      <trkpt lat="46.0636" lon="4.72387">
        <ele>196</ele>
        <time>2017-03-17T10:50:05Z</time>
      </trkpt>
      <trkpt lat="46.06361" lon="4.72381">
        <ele>196</ele>
        <time>2017-03-17T10:50:06Z</time>
      </trkpt>
      <trkpt lat="46.06363" lon="4.72368">
        <ele>196</ele>
        <time>2017-03-17T10:50:08Z</time>
      </trkpt>
      <trkpt lat="46.06363" lon="4.72361">
        <ele>196</ele>
        <time>2017-03-17T10:50:09Z</time>
      </trkpt>
      <trkpt lat="46.06363" lon="4.72354">
        <ele>195</ele>
        <time>2017-03-17T10:50:10Z</time>
      </trkpt>
      <trkpt lat="46.06364" lon="4.72346">
        <ele>195</ele>
        <time>2017-03-17T10:50:11Z</time>
      </trkpt>
      <trkpt lat="46.06365" lon="4.72339">
        <ele>195</ele>
        <time>2017-03-17T10:50:12Z</time>
      </trkpt>
      <trkpt lat="46.06365" lon="4.72331">
        <ele>194</ele>
        <time>2017-03-17T10:50:13Z</time>
      </trkpt>
      <trkpt lat="46.06366" lon="4.72324">
        <ele>194</ele>
        <time>2017-03-17T10:50:14Z</time>
      </trkpt>
      <trkpt lat="46.06366" lon="4.72317">
        <ele>194</ele>
        <time>2017-03-17T10:50:15Z</time>
      </trkpt>
      <trkpt lat="46.06366" lon="4.72305">
        <ele>193</ele>
        <time>2017-03-17T10:50:17Z</time>
      </trkpt>
      <trkpt lat="46.06366" lon="4.723">
        <ele>193</ele>
        <time>2017-03-17T10:50:18Z</time>
      </trkpt>
      <trkpt lat="46.06368" lon="4.72292">
        <ele>193</ele>
        <time>2017-03-17T10:50:20Z</time>
      </trkpt>
      <trkpt lat="46.06371" lon="4.72289">
        <ele>193</ele>
        <time>2017-03-17T10:50:21Z</time>
      </trkpt>
      <trkpt lat="46.06375" lon="4.72287">
        <ele>193</ele>
        <time>2017-03-17T10:50:22Z</time>
      </trkpt>
      <trkpt lat="46.0638" lon="4.72286">
        <ele>193</ele>
        <time>2017-03-17T10:50:23Z</time>
      </trkpt>
      <trkpt lat="46.06385" lon="4.72285">
        <ele>193</ele>
        <time>2017-03-17T10:50:24Z</time>
      </trkpt>
      <trkpt lat="46.06391" lon="4.72285">
        <ele>192</ele>
        <time>2017-03-17T10:50:25Z</time>
      </trkpt>
      <trkpt lat="46.06396" lon="4.72284">
        <ele>192</ele>
        <time>2017-03-17T10:50:26Z</time>
      </trkpt>
      <trkpt lat="46.06402" lon="4.72284">
        <ele>192</ele>
        <time>2017-03-17T10:50:27Z</time>
      </trkpt>
      <trkpt lat="46.06407" lon="4.72285">
        <ele>192</ele>
        <time>2017-03-17T10:50:28Z</time>
      </trkpt>
      <trkpt lat="46.06413" lon="4.72286">
        <ele>192</ele>
        <time>2017-03-17T10:50:29Z</time>
      </trkpt>
      <trkpt lat="46.06419" lon="4.72286">
        <ele>190</ele>
        <time>2017-03-17T10:50:30Z</time>
      </trkpt>
      <trkpt lat="46.06424" lon="4.72284">
        <ele>190</ele>
        <time>2017-03-17T10:50:31Z</time>
      </trkpt>
      <trkpt lat="46.06427" lon="4.72279">
        <ele>190</ele>
        <time>2017-03-17T10:50:32Z</time>
      </trkpt>
      <trkpt lat="46.06429" lon="4.72272">
        <ele>190</ele>
        <time>2017-03-17T10:50:33Z</time>
      </trkpt>
      <trkpt lat="46.06428" lon="4.72265">
        <ele>189</ele>
        <time>2017-03-17T10:50:34Z</time>
      </trkpt>
      <trkpt lat="46.06427" lon="4.72258">
        <ele>189</ele>
        <time>2017-03-17T10:50:35Z</time>
      </trkpt>
      <trkpt lat="46.06424" lon="4.72253">
        <ele>189</ele>
        <time>2017-03-17T10:50:36Z</time>
      </trkpt>
      <trkpt lat="46.0642" lon="4.72249">
        <ele>189</ele>
        <time>2017-03-17T10:50:37Z</time>
      </trkpt>
      <trkpt lat="46.06417" lon="4.72244">
        <ele>188</ele>
        <time>2017-03-17T10:50:38Z</time>
      </trkpt>
      <trkpt lat="46.06414" lon="4.72238">
        <ele>189</ele>
        <time>2017-03-17T10:50:39Z</time>
      </trkpt>
      <trkpt lat="46.06412" lon="4.72231">
        <ele>190</ele>
        <time>2017-03-17T10:50:40Z</time>
      </trkpt>
      <trkpt lat="46.06409" lon="4.72224">
        <ele>190</ele>
        <time>2017-03-17T10:50:41Z</time>
      </trkpt>
      <trkpt lat="46.06406" lon="4.72217">
        <ele>190</ele>
        <time>2017-03-17T10:50:42Z</time>
      </trkpt>
      <trkpt lat="46.06403" lon="4.72209">
        <ele>190</ele>
        <time>2017-03-17T10:50:43Z</time>
      </trkpt>
      <trkpt lat="46.06399" lon="4.722">
        <ele>189</ele>
        <time>2017-03-17T10:50:44Z</time>
      </trkpt>
      <trkpt lat="46.06396" lon="4.72191">
        <ele>189</ele>
        <time>2017-03-17T10:50:45Z</time>
      </trkpt>
      <trkpt lat="46.06393" lon="4.72181">
        <ele>189</ele>
        <time>2017-03-17T10:50:46Z</time>
      </trkpt>
      <trkpt lat="46.06389" lon="4.72172">
        <ele>189</ele>
        <time>2017-03-17T10:50:47Z</time>
      </trkpt>
      <trkpt lat="46.06385" lon="4.72162">
        <ele>189</ele>
        <time>2017-03-17T10:50:48Z</time>
      </trkpt>
      <trkpt lat="46.06382" lon="4.72152">
        <ele>189</ele>
        <time>2017-03-17T10:50:49Z</time>
      </trkpt>
      <trkpt lat="46.06379" lon="4.72142">
        <ele>189</ele>
        <time>2017-03-17T10:50:50Z</time>
      </trkpt>
      <trkpt lat="46.06376" lon="4.72132">
        <ele>189</ele>
        <time>2017-03-17T10:50:51Z</time>
      </trkpt>
      <trkpt lat="46.06372" lon="4.72122">
        <ele>189</ele>
        <time>2017-03-17T10:50:52Z</time>
      </trkpt>
      <trkpt lat="46.06369" lon="4.72112">
        <ele>189</ele>
        <time>2017-03-17T10:50:53Z</time>
      </trkpt>
      <trkpt lat="46.06366" lon="4.72103">
        <ele>189</ele>
        <time>2017-03-17T10:50:54Z</time>
      </trkpt>
      <trkpt lat="46.06363" lon="4.72093">
        <ele>189</ele>
        <time>2017-03-17T10:50:55Z</time>
      </trkpt>
      <trkpt lat="46.0636" lon="4.72084">
        <ele>189</ele>
        <time>2017-03-17T10:50:56Z</time>
      </trkpt>
      <trkpt lat="46.06358" lon="4.72075">
        <ele>189</ele>
        <time>2017-03-17T10:50:57Z</time>
      </trkpt>
      <trkpt lat="46.06356" lon="4.72067">
        <ele>189</ele>
        <time>2017-03-17T10:50:58Z</time>
      </trkpt>
      <trkpt lat="46.06353" lon="4.72058">
        <ele>189</ele>
        <time>2017-03-17T10:50:59Z</time>
      </trkpt>
      <trkpt lat="46.06351" lon="4.7205">
        <ele>189</ele>
        <time>2017-03-17T10:51:00Z</time>
      </trkpt>
      <trkpt lat="46.06348" lon="4.72042">
        <ele>189</ele>
        <time>2017-03-17T10:51:01Z</time>
      </trkpt>
      <trkpt lat="46.06345" lon="4.72034">
        <ele>189</ele>
        <time>2017-03-17T10:51:02Z</time>
      </trkpt>
      <trkpt lat="46.06343" lon="4.72027">
        <ele>189</ele>
        <time>2017-03-17T10:51:03Z</time>
      </trkpt>
      <trkpt lat="46.0634" lon="4.72019">
        <ele>189</ele>
        <time>2017-03-17T10:51:04Z</time>
      </trkpt>
      <trkpt lat="46.06338" lon="4.72011">
        <ele>189</ele>
        <time>2017-03-17T10:51:05Z</time>
      </trkpt>
      <trkpt lat="46.06336" lon="4.72004">
        <ele>189</ele>
        <time>2017-03-17T10:51:06Z</time>
      </trkpt>
      <trkpt lat="46.06333" lon="4.71996">
        <ele>189</ele>
        <time>2017-03-17T10:51:07Z</time>
      </trkpt>
      <trkpt lat="46.0633" lon="4.71988">
        <ele>189</ele>
        <time>2017-03-17T10:51:08Z</time>
      </trkpt>
      <trkpt lat="46.06328" lon="4.71981">
        <ele>190</ele>
        <time>2017-03-17T10:51:09Z</time>
      </trkpt>
      <trkpt lat="46.06326" lon="4.71973">
        <ele>190</ele>
        <time>2017-03-17T10:51:10Z</time>
      </trkpt>
      <trkpt lat="46.06323" lon="4.71965">
        <ele>190</ele>
        <time>2017-03-17T10:51:11Z</time>
      </trkpt>
      <trkpt lat="46.06321" lon="4.71958">
        <ele>190</ele>
        <time>2017-03-17T10:51:12Z</time>
      </trkpt>
      <trkpt lat="46.06318" lon="4.7195">
        <ele>190</ele>
        <time>2017-03-17T10:51:13Z</time>
      </trkpt>
      <trkpt lat="46.06316" lon="4.71942">
        <ele>190</ele>
        <time>2017-03-17T10:51:14Z</time>
      </trkpt>
      <trkpt lat="46.06313" lon="4.71933">
        <ele>190</ele>
        <time>2017-03-17T10:51:15Z</time>
      </trkpt>
      <trkpt lat="46.06311" lon="4.71924">
        <ele>190</ele>
        <time>2017-03-17T10:51:16Z</time>
      </trkpt>
      <trkpt lat="46.06309" lon="4.71915">
        <ele>189</ele>
        <time>2017-03-17T10:51:17Z</time>
      </trkpt>
      <trkpt lat="46.06306" lon="4.71905">
        <ele>189</ele>
        <time>2017-03-17T10:51:18Z</time>
      </trkpt>
      <trkpt lat="46.06304" lon="4.71896">
        <ele>189</ele>
        <time>2017-03-17T10:51:19Z</time>
      </trkpt>
      <trkpt lat="46.06301" lon="4.71888">
        <ele>189</ele>
        <time>2017-03-17T10:51:20Z</time>
      </trkpt>
      <trkpt lat="46.06298" lon="4.7188">
        <ele>189</ele>
        <time>2017-03-17T10:51:21Z</time>
      </trkpt>
      <trkpt lat="46.06296" lon="4.71872">
        <ele>189</ele>
        <time>2017-03-17T10:51:22Z</time>
      </trkpt>
      <trkpt lat="46.06294" lon="4.71864">
        <ele>189</ele>
        <time>2017-03-17T10:51:23Z</time>
      </trkpt>
      <trkpt lat="46.06292" lon="4.71857">
        <ele>189</ele>
        <time>2017-03-17T10:51:24Z</time>
      </trkpt>
      <trkpt lat="46.0629" lon="4.71849">
        <ele>189</ele>
        <time>2017-03-17T10:51:25Z</time>
      </trkpt>
      <trkpt lat="46.06289" lon="4.71841">
        <ele>189</ele>
        <time>2017-03-17T10:51:26Z</time>
      </trkpt>
      <trkpt lat="46.06288" lon="4.71833">
        <ele>189</ele>
        <time>2017-03-17T10:51:27Z</time>
      </trkpt>
      <trkpt lat="46.06286" lon="4.71825">
        <ele>189</ele>
        <time>2017-03-17T10:51:28Z</time>
      </trkpt>
      <trkpt lat="46.06284" lon="4.71818">
        <ele>189</ele>
        <time>2017-03-17T10:51:29Z</time>
      </trkpt>
      <trkpt lat="46.06282" lon="4.71811">
        <ele>190</ele>
        <time>2017-03-17T10:51:30Z</time>
      </trkpt>
      <trkpt lat="46.0628" lon="4.71805">
        <ele>190</ele>
        <time>2017-03-17T10:51:31Z</time>
      </trkpt>
      <trkpt lat="46.06278" lon="4.71799">
        <ele>190</ele>
        <time>2017-03-17T10:51:32Z</time>
      </trkpt>
      <trkpt lat="46.06277" lon="4.71791">
        <ele>190</ele>
        <time>2017-03-17T10:51:33Z</time>
      </trkpt>
      <trkpt lat="46.06275" lon="4.71784">
        <ele>190</ele>
        <time>2017-03-17T10:51:34Z</time>
      </trkpt>
      <trkpt lat="46.06272" lon="4.71777">
        <ele>190</ele>
        <time>2017-03-17T10:51:35Z</time>
      </trkpt>
      <trkpt lat="46.0627" lon="4.7177">
        <ele>190</ele>
        <time>2017-03-17T10:51:36Z</time>
      </trkpt>
      <trkpt lat="46.06267" lon="4.71763">
        <ele>190</ele>
        <time>2017-03-17T10:51:37Z</time>
      </trkpt>
      <trkpt lat="46.06265" lon="4.71755">
        <ele>190</ele>
        <time>2017-03-17T10:51:38Z</time>
      </trkpt>
      <trkpt lat="46.06262" lon="4.71749">
        <ele>190</ele>
        <time>2017-03-17T10:51:39Z</time>
      </trkpt>
      <trkpt lat="46.06259" lon="4.71742">
        <ele>190</ele>
        <time>2017-03-17T10:51:40Z</time>
      </trkpt>
      <trkpt lat="46.06256" lon="4.71735">
        <ele>190</ele>
        <time>2017-03-17T10:51:41Z</time>
      </trkpt>
      <trkpt lat="46.06255" lon="4.71728">
        <ele>190</ele>
        <time>2017-03-17T10:51:42Z</time>
      </trkpt>
      <trkpt lat="46.06253" lon="4.71721">
        <ele>190</ele>
        <time>2017-03-17T10:51:43Z</time>
      </trkpt>
      <trkpt lat="46.06251" lon="4.71715">
        <ele>190</ele>
        <time>2017-03-17T10:51:44Z</time>
      </trkpt>
      <trkpt lat="46.06248" lon="4.71709">
        <ele>191</ele>
        <time>2017-03-17T10:51:45Z</time>
      </trkpt>
      <trkpt lat="46.06246" lon="4.71703">
        <ele>191</ele>
        <time>2017-03-17T10:51:46Z</time>
      </trkpt>
      <trkpt lat="46.06244" lon="4.71696">
        <ele>191</ele>
        <time>2017-03-17T10:51:47Z</time>
      </trkpt>
      <trkpt lat="46.06241" lon="4.7169">
        <ele>191</ele>
        <time>2017-03-17T10:51:48Z</time>
      </trkpt>
      <trkpt lat="46.06239" lon="4.71684">
        <ele>191</ele>
        <time>2017-03-17T10:51:49Z</time>
      </trkpt>
      <trkpt lat="46.06236" lon="4.71677">
        <ele>191</ele>
        <time>2017-03-17T10:51:50Z</time>
      </trkpt>
      <trkpt lat="46.06234" lon="4.71671">
        <ele>191</ele>
        <time>2017-03-17T10:51:51Z</time>
      </trkpt>
      <trkpt lat="46.06232" lon="4.71664">
        <ele>191</ele>
        <time>2017-03-17T10:51:52Z</time>
      </trkpt>
      <trkpt lat="46.06229" lon="4.71658">
        <ele>191</ele>
        <time>2017-03-17T10:51:53Z</time>
      </trkpt>
      <trkpt lat="46.06226" lon="4.71652">
        <ele>191</ele>
        <time>2017-03-17T10:51:54Z</time>
      </trkpt>
      <trkpt lat="46.06223" lon="4.71647">
        <ele>191</ele>
        <time>2017-03-17T10:51:55Z</time>
      </trkpt>
      <trkpt lat="46.06217" lon="4.71637">
        <ele>191</ele>
        <time>2017-03-17T10:51:57Z</time>
      </trkpt>
      <trkpt lat="46.06215" lon="4.71633">
        <ele>191</ele>
        <time>2017-03-17T10:51:58Z</time>
      </trkpt>
      <trkpt lat="46.0621" lon="4.71625">
        <ele>191</ele>
        <time>2017-03-17T10:52:00Z</time>
      </trkpt>
      <trkpt lat="46.06208" lon="4.7162">
        <ele>191</ele>
        <time>2017-03-17T10:52:01Z</time>
      </trkpt>
      <trkpt lat="46.06203" lon="4.71611">
        <ele>191</ele>
        <time>2017-03-17T10:52:03Z</time>
      </trkpt>
      <trkpt lat="46.062" lon="4.71607">
        <ele>191</ele>
        <time>2017-03-17T10:52:04Z</time>
      </trkpt>
      <trkpt lat="46.06194" lon="4.71597">
        <ele>191</ele>
        <time>2017-03-17T10:52:06Z</time>
      </trkpt>
      <trkpt lat="46.06192" lon="4.71592">
        <ele>191</ele>
        <time>2017-03-17T10:52:07Z</time>
      </trkpt>
      <trkpt lat="46.06189" lon="4.71587">
        <ele>191</ele>
        <time>2017-03-17T10:52:08Z</time>
      </trkpt>
      <trkpt lat="46.06185" lon="4.71581">
        <ele>191</ele>
        <time>2017-03-17T10:52:09Z</time>
      </trkpt>
      <trkpt lat="46.06182" lon="4.71576">
        <ele>191</ele>
        <time>2017-03-17T10:52:10Z</time>
      </trkpt>
      <trkpt lat="46.06178" lon="4.71571">
        <ele>191</ele>
        <time>2017-03-17T10:52:11Z</time>
      </trkpt>
      <trkpt lat="46.06174" lon="4.71566">
        <ele>191</ele>
        <time>2017-03-17T10:52:12Z</time>
      </trkpt>
      <trkpt lat="46.0617" lon="4.71561">
        <ele>191</ele>
        <time>2017-03-17T10:52:13Z</time>
      </trkpt>
      <trkpt lat="46.06165" lon="4.71556">
        <ele>192</ele>
        <time>2017-03-17T10:52:14Z</time>
      </trkpt>
      <trkpt lat="46.06161" lon="4.71551">
        <ele>192</ele>
        <time>2017-03-17T10:52:15Z</time>
      </trkpt>
      <trkpt lat="46.06157" lon="4.71546">
        <ele>192</ele>
        <time>2017-03-17T10:52:16Z</time>
      </trkpt>
      <trkpt lat="46.06154" lon="4.7154">
        <ele>192</ele>
        <time>2017-03-17T10:52:17Z</time>
      </trkpt>
      <trkpt lat="46.06151" lon="4.71535">
        <ele>192</ele>
        <time>2017-03-17T10:52:18Z</time>
      </trkpt>
      <trkpt lat="46.06148" lon="4.71529">
        <ele>192</ele>
        <time>2017-03-17T10:52:19Z</time>
      </trkpt>
      <trkpt lat="46.06144" lon="4.71524">
        <ele>192</ele>
        <time>2017-03-17T10:52:20Z</time>
      </trkpt>
      <trkpt lat="46.06141" lon="4.71518">
        <ele>192</ele>
        <time>2017-03-17T10:52:21Z</time>
      </trkpt>
      <trkpt lat="46.06139" lon="4.71513">
        <ele>192</ele>
        <time>2017-03-17T10:52:22Z</time>
      </trkpt>
      <trkpt lat="46.06136" lon="4.71507">
        <ele>192</ele>
        <time>2017-03-17T10:52:23Z</time>
      </trkpt>
      <trkpt lat="46.06134" lon="4.71501">
        <ele>192</ele>
        <time>2017-03-17T10:52:24Z</time>
      </trkpt>
      <trkpt lat="46.06131" lon="4.71495">
        <ele>192</ele>
        <time>2017-03-17T10:52:25Z</time>
      </trkpt>
      <trkpt lat="46.06129" lon="4.71489">
        <ele>192</ele>
        <time>2017-03-17T10:52:26Z</time>
      </trkpt>
      <trkpt lat="46.06126" lon="4.71482">
        <ele>192</ele>
        <time>2017-03-17T10:52:27Z</time>
      </trkpt>
      <trkpt lat="46.06124" lon="4.71476">
        <ele>193</ele>
        <time>2017-03-17T10:52:28Z</time>
      </trkpt>
      <trkpt lat="46.06122" lon="4.71469">
        <ele>193</ele>
        <time>2017-03-17T10:52:29Z</time>
      </trkpt>
      <trkpt lat="46.06121" lon="4.71463">
        <ele>193</ele>
        <time>2017-03-17T10:52:30Z</time>
      </trkpt>
      <trkpt lat="46.0612" lon="4.71457">
        <ele>193</ele>
        <time>2017-03-17T10:52:31Z</time>
      </trkpt>
      <trkpt lat="46.06119" lon="4.7145">
        <ele>193</ele>
        <time>2017-03-17T10:52:32Z</time>
      </trkpt>
      <trkpt lat="46.06118" lon="4.71444">
        <ele>193</ele>
        <time>2017-03-17T10:52:33Z</time>
      </trkpt>
      <trkpt lat="46.06116" lon="4.71437">
        <ele>193</ele>
        <time>2017-03-17T10:52:34Z</time>
      </trkpt>
      <trkpt lat="46.06114" lon="4.71431">
        <ele>193</ele>
        <time>2017-03-17T10:52:35Z</time>
      </trkpt>
      <trkpt lat="46.06112" lon="4.71425">
        <ele>193</ele>
        <time>2017-03-17T10:52:36Z</time>
      </trkpt>
      <trkpt lat="46.0611" lon="4.71419">
        <ele>193</ele>
        <time>2017-03-17T10:52:37Z</time>
      </trkpt>
      <trkpt lat="46.06106" lon="4.71407">
        <ele>193</ele>
        <time>2017-03-17T10:52:39Z</time>
      </trkpt>
      <trkpt lat="46.06105" lon="4.71402">
        <ele>193</ele>
        <time>2017-03-17T10:52:40Z</time>
      </trkpt>
      <trkpt lat="46.06102" lon="4.71392">
        <ele>193</ele>
        <time>2017-03-17T10:52:42Z</time>
      </trkpt>
      <trkpt lat="46.06101" lon="4.71387">
        <ele>193</ele>
        <time>2017-03-17T10:52:43Z</time>
      </trkpt>
      <trkpt lat="46.06097" lon="4.71376">
        <ele>193</ele>
        <time>2017-03-17T10:52:45Z</time>
      </trkpt>
      <trkpt lat="46.06095" lon="4.71371">
        <ele>193</ele>
        <time>2017-03-17T10:52:46Z</time>
      </trkpt>
      <trkpt lat="46.06092" lon="4.71361">
        <ele>193</ele>
        <time>2017-03-17T10:52:48Z</time>
      </trkpt>
      <trkpt lat="46.0609" lon="4.71356">
        <ele>193</ele>
        <time>2017-03-17T10:52:49Z</time>
      </trkpt>
      <trkpt lat="46.06088" lon="4.71347">
        <ele>193</ele>
        <time>2017-03-17T10:52:51Z</time>
      </trkpt>
      <trkpt lat="46.06087" lon="4.71344">
        <ele>193</ele>
        <time>2017-03-17T10:52:52Z</time>
      </trkpt>
      <trkpt lat="46.06084" lon="4.71336">
        <ele>193</ele>
        <time>2017-03-17T10:52:54Z</time>
      </trkpt>
      <trkpt lat="46.06082" lon="4.71332">
        <ele>193</ele>
        <time>2017-03-17T10:52:55Z</time>
      </trkpt>
      <trkpt lat="46.06079" lon="4.71325">
        <ele>193</ele>
        <time>2017-03-17T10:52:57Z</time>
      </trkpt>
      <trkpt lat="46.06078" lon="4.71321">
        <ele>193</ele>
        <time>2017-03-17T10:52:58Z</time>
      </trkpt>
      <trkpt lat="46.06073" lon="4.71311">
        <ele>193</ele>
        <time>2017-03-17T10:53:01Z</time>
      </trkpt>
      <trkpt lat="46.06071" lon="4.71308">
        <ele>193</ele>
        <time>2017-03-17T10:53:02Z</time>
      </trkpt>
      <trkpt lat="46.06066" lon="4.713">
        <ele>193</ele>
        <time>2017-03-17T10:53:05Z</time>
      </trkpt>
      <trkpt lat="46.06064" lon="4.71297">
        <ele>193</ele>
        <time>2017-03-17T10:53:06Z</time>
      </trkpt>
      <trkpt lat="46.06058" lon="4.71292">
        <ele>193</ele>
        <time>2017-03-17T10:53:11Z</time>
      </trkpt>
      <trkpt lat="46.06055" lon="4.71293">
        <ele>193</ele>
        <time>2017-03-17T10:53:12Z</time>
      </trkpt>
      <trkpt lat="46.06048" lon="4.71286">
        <ele>193</ele>
        <time>2017-03-17T10:53:15Z</time>
      </trkpt>
      <trkpt lat="46.06046" lon="4.7128">
        <ele>193</ele>
        <time>2017-03-17T10:53:16Z</time>
      </trkpt>
      <trkpt lat="46.06044" lon="4.71274">
        <ele>193</ele>
        <time>2017-03-17T10:53:17Z</time>
      </trkpt>
      <trkpt lat="46.06043" lon="4.71268">
        <ele>193</ele>
        <time>2017-03-17T10:53:18Z</time>
      </trkpt>
      <trkpt lat="46.06042" lon="4.71261">
        <ele>193</ele>
        <time>2017-03-17T10:53:19Z</time>
      </trkpt>
      <trkpt lat="46.0604" lon="4.71254">
        <ele>193</ele>
        <time>2017-03-17T10:53:20Z</time>
      </trkpt>
      <trkpt lat="46.06038" lon="4.71247">
        <ele>193</ele>
        <time>2017-03-17T10:53:21Z</time>
      </trkpt>
      <trkpt lat="46.06036" lon="4.7124">
        <ele>193</ele>
        <time>2017-03-17T10:53:22Z</time>
      </trkpt>
      <trkpt lat="46.06033" lon="4.71233">
        <ele>193</ele>
        <time>2017-03-17T10:53:23Z</time>
      </trkpt>
      <trkpt lat="46.06031" lon="4.71225">
        <ele>193</ele>
        <time>2017-03-17T10:53:24Z</time>
      </trkpt>
      <trkpt lat="46.06029" lon="4.71218">
        <ele>193</ele>
        <time>2017-03-17T10:53:25Z</time>
      </trkpt>
      <trkpt lat="46.06026" lon="4.7121">
        <ele>193</ele>
        <time>2017-03-17T10:53:26Z</time>
      </trkpt>
      <trkpt lat="46.06023" lon="4.71202">
        <ele>193</ele>
        <time>2017-03-17T10:53:27Z</time>
      </trkpt>
      <trkpt lat="46.06021" lon="4.71194">
        <ele>193</ele>
        <time>2017-03-17T10:53:28Z</time>
      </trkpt>
      <trkpt lat="46.06019" lon="4.71186">
        <ele>193</ele>
        <time>2017-03-17T10:53:29Z</time>
      </trkpt>
      <trkpt lat="46.06017" lon="4.71177">
        <ele>194</ele>
        <time>2017-03-17T10:53:30Z</time>
      </trkpt>
      <trkpt lat="46.06016" lon="4.71169">
        <ele>194</ele>
        <time>2017-03-17T10:53:31Z</time>
      </trkpt>
      <trkpt lat="46.06015" lon="4.7116">
        <ele>194</ele>
        <time>2017-03-17T10:53:32Z</time>
      </trkpt>
      <trkpt lat="46.06014" lon="4.71151">
        <ele>194</ele>
        <time>2017-03-17T10:53:33Z</time>
      </trkpt>
      <trkpt lat="46.06012" lon="4.71143">
        <ele>193</ele>
        <time>2017-03-17T10:53:34Z</time>
      </trkpt>
      <trkpt lat="46.0601" lon="4.71135">
        <ele>193</ele>
        <time>2017-03-17T10:53:35Z</time>
      </trkpt>
      <trkpt lat="46.06008" lon="4.71127">
        <ele>193</ele>
        <time>2017-03-17T10:53:36Z</time>
      </trkpt>
      <trkpt lat="46.06005" lon="4.7112">
        <ele>193</ele>
        <time>2017-03-17T10:53:37Z</time>
      </trkpt>
      <trkpt lat="46.06002" lon="4.71113">
        <ele>193</ele>
        <time>2017-03-17T10:53:38Z</time>
      </trkpt>
      <trkpt lat="46.06" lon="4.71105">
        <ele>193</ele>
        <time>2017-03-17T10:53:39Z</time>
      </trkpt>
      <trkpt lat="46.05997" lon="4.71098">
        <ele>193</ele>
        <time>2017-03-17T10:53:40Z</time>
      </trkpt>
      <trkpt lat="46.05993" lon="4.71091">
        <ele>193</ele>
        <time>2017-03-17T10:53:41Z</time>
      </trkpt>
      <trkpt lat="46.0599" lon="4.71084">
        <ele>193</ele>
        <time>2017-03-17T10:53:42Z</time>
      </trkpt>
      <trkpt lat="46.05987" lon="4.71076">
        <ele>193</ele>
        <time>2017-03-17T10:53:43Z</time>
      </trkpt>
      <trkpt lat="46.05984" lon="4.71068">
        <ele>193</ele>
        <time>2017-03-17T10:53:44Z</time>
      </trkpt>
      <trkpt lat="46.05981" lon="4.71061">
        <ele>193</ele>
        <time>2017-03-17T10:53:45Z</time>
      </trkpt>
      <trkpt lat="46.05978" lon="4.71053">
        <ele>193</ele>
        <time>2017-03-17T10:53:46Z</time>
      </trkpt>
      <trkpt lat="46.05975" lon="4.71044">
        <ele>193</ele>
        <time>2017-03-17T10:53:47Z</time>
      </trkpt>
      <trkpt lat="46.05971" lon="4.71036">
        <ele>193</ele>
        <time>2017-03-17T10:53:48Z</time>
      </trkpt>
      <trkpt lat="46.05968" lon="4.71028">
        <ele>193</ele>
        <time>2017-03-17T10:53:49Z</time>
      </trkpt>
      <trkpt lat="46.05965" lon="4.71021">
        <ele>193</ele>
        <time>2017-03-17T10:53:50Z</time>
      </trkpt>
      <trkpt lat="46.05962" lon="4.71013">
        <ele>193</ele>
        <time>2017-03-17T10:53:51Z</time>
      </trkpt>
      <trkpt lat="46.05959" lon="4.71005">
        <ele>193</ele>
        <time>2017-03-17T10:53:52Z</time>
      </trkpt>
      <trkpt lat="46.05957" lon="4.70998">
        <ele>193</ele>
        <time>2017-03-17T10:53:53Z</time>
      </trkpt>
      <trkpt lat="46.05954" lon="4.70991">
        <ele>193</ele>
        <time>2017-03-17T10:53:54Z</time>
      </trkpt>
      <trkpt lat="46.05952" lon="4.70984">
        <ele>193</ele>
        <time>2017-03-17T10:53:55Z</time>
      </trkpt>
      <trkpt lat="46.0595" lon="4.70976">
        <ele>193</ele>
        <time>2017-03-17T10:53:56Z</time>
      </trkpt>
      <trkpt lat="46.05948" lon="4.70969">
        <ele>193</ele>
        <time>2017-03-17T10:53:57Z</time>
      </trkpt>
      <trkpt lat="46.05946" lon="4.70961">
        <ele>193</ele>
        <time>2017-03-17T10:53:58Z</time>
      </trkpt>
      <trkpt lat="46.05944" lon="4.70954">
        <ele>193</ele>
        <time>2017-03-17T10:53:59Z</time>
      </trkpt>
      <trkpt lat="46.05942" lon="4.70947">
        <ele>193</ele>
        <time>2017-03-17T10:54:00Z</time>
      </trkpt>
      <trkpt lat="46.0594" lon="4.70939">
        <ele>193</ele>
        <time>2017-03-17T10:54:01Z</time>
      </trkpt>
      <trkpt lat="46.05938" lon="4.70932">
        <ele>194</ele>
        <time>2017-03-17T10:54:02Z</time>
      </trkpt>
      <trkpt lat="46.05937" lon="4.70924">
        <ele>194</ele>
        <time>2017-03-17T10:54:03Z</time>
      </trkpt>
      <trkpt lat="46.05935" lon="4.70917">
        <ele>194</ele>
        <time>2017-03-17T10:54:04Z</time>
      </trkpt>
      <trkpt lat="46.05934" lon="4.70909">
        <ele>194</ele>
        <time>2017-03-17T10:54:05Z</time>
      </trkpt>
      <trkpt lat="46.05933" lon="4.70901">
        <ele>194</ele>
        <time>2017-03-17T10:54:06Z</time>
      </trkpt>
      <trkpt lat="46.05932" lon="4.70893">
        <ele>194</ele>
        <time>2017-03-17T10:54:07Z</time>
      </trkpt>
      <trkpt lat="46.05931" lon="4.70886">
        <ele>194</ele>
        <time>2017-03-17T10:54:08Z</time>
      </trkpt>
      <trkpt lat="46.0593" lon="4.70878">
        <ele>194</ele>
        <time>2017-03-17T10:54:09Z</time>
      </trkpt>
      <trkpt lat="46.0593" lon="4.7087">
        <ele>194</ele>
        <time>2017-03-17T10:54:10Z</time>
      </trkpt>
      <trkpt lat="46.0593" lon="4.70862">
        <ele>194</ele>
        <time>2017-03-17T10:54:11Z</time>
      </trkpt>
      <trkpt lat="46.05929" lon="4.70853">
        <ele>194</ele>
        <time>2017-03-17T10:54:12Z</time>
      </trkpt>
      <trkpt lat="46.05929" lon="4.70845">
        <ele>194</ele>
        <time>2017-03-17T10:54:13Z</time>
      </trkpt>
      <trkpt lat="46.05928" lon="4.70837">
        <ele>194</ele>
        <time>2017-03-17T10:54:14Z</time>
      </trkpt>
      <trkpt lat="46.05928" lon="4.70828">
        <ele>195</ele>
        <time>2017-03-17T10:54:15Z</time>
      </trkpt>
      <trkpt lat="46.05927" lon="4.7082">
        <ele>194</ele>
        <time>2017-03-17T10:54:16Z</time>
      </trkpt>
      <trkpt lat="46.05926" lon="4.70811">
        <ele>194</ele>
        <time>2017-03-17T10:54:17Z</time>
      </trkpt>
      <trkpt lat="46.05925" lon="4.70803">
        <ele>194</ele>
        <time>2017-03-17T10:54:18Z</time>
      </trkpt>
      <trkpt lat="46.05924" lon="4.70796">
        <ele>194</ele>
        <time>2017-03-17T10:54:19Z</time>
      </trkpt>
      <trkpt lat="46.05923" lon="4.70788">
        <ele>194</ele>
        <time>2017-03-17T10:54:20Z</time>
      </trkpt>
      <trkpt lat="46.05922" lon="4.7078">
        <ele>194</ele>
        <time>2017-03-17T10:54:21Z</time>
      </trkpt>
      <trkpt lat="46.05921" lon="4.70773">
        <ele>194</ele>
        <time>2017-03-17T10:54:22Z</time>
      </trkpt>
      <trkpt lat="46.0592" lon="4.70766">
        <ele>194</ele>
        <time>2017-03-17T10:54:23Z</time>
      </trkpt>
      <trkpt lat="46.05918" lon="4.70758">
        <ele>194</ele>
        <time>2017-03-17T10:54:24Z</time>
      </trkpt>
      <trkpt lat="46.05917" lon="4.7075">
        <ele>194</ele>
        <time>2017-03-17T10:54:25Z</time>
      </trkpt>
      <trkpt lat="46.05915" lon="4.70742">
        <ele>194</ele>
        <time>2017-03-17T10:54:26Z</time>
      </trkpt>
      <trkpt lat="46.05913" lon="4.70734">
        <ele>194</ele>
        <time>2017-03-17T10:54:27Z</time>
      </trkpt>
      <trkpt lat="46.05912" lon="4.70726">
        <ele>194</ele>
        <time>2017-03-17T10:54:28Z</time>
      </trkpt>
      <trkpt lat="46.0591" lon="4.70718">
        <ele>194</ele>
        <time>2017-03-17T10:54:29Z</time>
      </trkpt>
      <trkpt lat="46.05909" lon="4.7071">
        <ele>194</ele>
        <time>2017-03-17T10:54:30Z</time>
      </trkpt>
      <trkpt lat="46.05907" lon="4.70702">
        <ele>194</ele>
        <time>2017-03-17T10:54:31Z</time>
      </trkpt>
      <trkpt lat="46.05906" lon="4.70693">
        <ele>194</ele>
        <time>2017-03-17T10:54:32Z</time>
      </trkpt>
      <trkpt lat="46.05905" lon="4.70685">
        <ele>194</ele>
        <time>2017-03-17T10:54:33Z</time>
      </trkpt>
      <trkpt lat="46.05905" lon="4.70677">
        <ele>194</ele>
        <time>2017-03-17T10:54:34Z</time>
      </trkpt>
      <trkpt lat="46.05904" lon="4.70668">
        <ele>194</ele>
        <time>2017-03-17T10:54:35Z</time>
      </trkpt>
      <trkpt lat="46.05904" lon="4.7066">
        <ele>194</ele>
        <time>2017-03-17T10:54:36Z</time>
      </trkpt>
      <trkpt lat="46.05904" lon="4.70651">
        <ele>194</ele>
        <time>2017-03-17T10:54:37Z</time>
      </trkpt>
      <trkpt lat="46.05904" lon="4.70643">
        <ele>194</ele>
        <time>2017-03-17T10:54:38Z</time>
      </trkpt>
      <trkpt lat="46.05905" lon="4.70635">
        <ele>194</ele>
        <time>2017-03-17T10:54:39Z</time>
      </trkpt>
      <trkpt lat="46.05905" lon="4.70626">
        <ele>194</ele>
        <time>2017-03-17T10:54:40Z</time>
      </trkpt>
      <trkpt lat="46.05906" lon="4.70618">
        <ele>194</ele>
        <time>2017-03-17T10:54:41Z</time>
      </trkpt>
      <trkpt lat="46.05907" lon="4.7061">
        <ele>194</ele>
        <time>2017-03-17T10:54:42Z</time>
      </trkpt>
      <trkpt lat="46.05908" lon="4.70602">
        <ele>194</ele>
        <time>2017-03-17T10:54:43Z</time>
      </trkpt>
      <trkpt lat="46.05908" lon="4.70595">
        <ele>194</ele>
        <time>2017-03-17T10:54:44Z</time>
      </trkpt>
      <trkpt lat="46.05909" lon="4.70587">
        <ele>195</ele>
        <time>2017-03-17T10:54:45Z</time>
      </trkpt>
      <trkpt lat="46.0591" lon="4.7058">
        <ele>195</ele>
        <time>2017-03-17T10:54:46Z</time>
      </trkpt>
      <trkpt lat="46.05914" lon="4.70569">
        <ele>195</ele>
        <time>2017-03-17T10:54:48Z</time>
      </trkpt>
      <trkpt lat="46.05916" lon="4.70562">
        <ele>195</ele>
        <time>2017-03-17T10:54:49Z</time>
      </trkpt>
      <trkpt lat="46.05918" lon="4.70556">
        <ele>195</ele>
        <time>2017-03-17T10:54:50Z</time>
      </trkpt>
      <trkpt lat="46.0592" lon="4.70549">
        <ele>195</ele>
        <time>2017-03-17T10:54:51Z</time>
      </trkpt>
      <trkpt lat="46.05922" lon="4.70541">
        <ele>195</ele>
        <time>2017-03-17T10:54:52Z</time>
      </trkpt>
      <trkpt lat="46.05925" lon="4.70533">
        <ele>195</ele>
        <time>2017-03-17T10:54:53Z</time>
      </trkpt>
      <trkpt lat="46.05927" lon="4.70525">
        <ele>195</ele>
        <time>2017-03-17T10:54:54Z</time>
      </trkpt>
      <trkpt lat="46.05929" lon="4.70516">
        <ele>195</ele>
        <time>2017-03-17T10:54:55Z</time>
      </trkpt>
      <trkpt lat="46.0593" lon="4.70507">
        <ele>195</ele>
        <time>2017-03-17T10:54:56Z</time>
      </trkpt>
      <trkpt lat="46.0593" lon="4.70497">
        <ele>196</ele>
        <time>2017-03-17T10:54:57Z</time>
      </trkpt>
      <trkpt lat="46.05929" lon="4.70488">
        <ele>195</ele>
        <time>2017-03-17T10:54:58Z</time>
      </trkpt>
      <trkpt lat="46.05926" lon="4.7048">
        <ele>195</ele>
        <time>2017-03-17T10:54:59Z</time>
      </trkpt>
      <trkpt lat="46.05924" lon="4.70472">
        <ele>195</ele>
        <time>2017-03-17T10:55:00Z</time>
      </trkpt>
      <trkpt lat="46.0592" lon="4.70465">
        <ele>195</ele>
        <time>2017-03-17T10:55:01Z</time>
      </trkpt>
      <trkpt lat="46.05916" lon="4.70458">
        <ele>195</ele>
        <time>2017-03-17T10:55:02Z</time>
      </trkpt>
      <trkpt lat="46.05913" lon="4.70452">
        <ele>195</ele>
        <time>2017-03-17T10:55:03Z</time>
      </trkpt>
      <trkpt lat="46.05909" lon="4.70445">
        <ele>195</ele>
        <time>2017-03-17T10:55:04Z</time>
      </trkpt>
      <trkpt lat="46.05906" lon="4.70438">
        <ele>195</ele>
        <time>2017-03-17T10:55:05Z</time>
      </trkpt>
      <trkpt lat="46.05903" lon="4.70431">
        <ele>195</ele>
        <time>2017-03-17T10:55:06Z</time>
      </trkpt>
      <trkpt lat="46.05898" lon="4.70425">
        <ele>195</ele>
        <time>2017-03-17T10:55:07Z</time>
      </trkpt>
      <trkpt lat="46.05894" lon="4.70419">
        <ele>195</ele>
        <time>2017-03-17T10:55:08Z</time>
      </trkpt>
      <trkpt lat="46.0589" lon="4.70413">
        <ele>196</ele>
        <time>2017-03-17T10:55:09Z</time>
      </trkpt>
      <trkpt lat="46.05886" lon="4.70407">
        <ele>196</ele>
        <time>2017-03-17T10:55:10Z</time>
      </trkpt>
      <trkpt lat="46.05882" lon="4.70401">
        <ele>196</ele>
        <time>2017-03-17T10:55:11Z</time>
      </trkpt>
      <trkpt lat="46.05879" lon="4.70394">
        <ele>196</ele>
        <time>2017-03-17T10:55:12Z</time>
      </trkpt>
      <trkpt lat="46.05875" lon="4.70388">
        <ele>196</ele>
        <time>2017-03-17T10:55:13Z</time>
      </trkpt>
      <trkpt lat="46.05871" lon="4.70382">
        <ele>196</ele>
        <time>2017-03-17T10:55:14Z</time>
      </trkpt>
      <trkpt lat="46.05867" lon="4.70376">
        <ele>196</ele>
        <time>2017-03-17T10:55:15Z</time>
      </trkpt>
      <trkpt lat="46.05862" lon="4.7037">
        <ele>196</ele>
        <time>2017-03-17T10:55:16Z</time>
      </trkpt>
      <trkpt lat="46.05858" lon="4.70364">
        <ele>196</ele>
        <time>2017-03-17T10:55:17Z</time>
      </trkpt>
      <trkpt lat="46.05854" lon="4.70357">
        <ele>196</ele>
        <time>2017-03-17T10:55:18Z</time>
      </trkpt>
      <trkpt lat="46.0585" lon="4.70351">
        <ele>196</ele>
        <time>2017-03-17T10:55:19Z</time>
      </trkpt>
      <trkpt lat="46.05845" lon="4.70344">
        <ele>197</ele>
        <time>2017-03-17T10:55:20Z</time>
      </trkpt>
      <trkpt lat="46.05841" lon="4.70338">
        <ele>197</ele>
        <time>2017-03-17T10:55:21Z</time>
      </trkpt>
      <trkpt lat="46.05837" lon="4.70333">
        <ele>197</ele>
        <time>2017-03-17T10:55:22Z</time>
      </trkpt>
      <trkpt lat="46.05833" lon="4.70327">
        <ele>197</ele>
        <time>2017-03-17T10:55:23Z</time>
      </trkpt>
      <trkpt lat="46.05829" lon="4.70322">
        <ele>197</ele>
        <time>2017-03-17T10:55:24Z</time>
      </trkpt>
      <trkpt lat="46.05825" lon="4.70317">
        <ele>197</ele>
        <time>2017-03-17T10:55:25Z</time>
      </trkpt>
      <trkpt lat="46.05822" lon="4.70311">
        <ele>197</ele>
        <time>2017-03-17T10:55:26Z</time>
      </trkpt>
      <trkpt lat="46.05818" lon="4.70306">
        <ele>197</ele>
        <time>2017-03-17T10:55:27Z</time>
      </trkpt>
      <trkpt lat="46.05815" lon="4.70301">
        <ele>197</ele>
        <time>2017-03-17T10:55:28Z</time>
      </trkpt>
      <trkpt lat="46.05811" lon="4.70295">
        <ele>197</ele>
        <time>2017-03-17T10:55:29Z</time>
      </trkpt>
      <trkpt lat="46.05807" lon="4.7029">
        <ele>197</ele>
        <time>2017-03-17T10:55:30Z</time>
      </trkpt>
      <trkpt lat="46.05804" lon="4.70284">
        <ele>197</ele>
        <time>2017-03-17T10:55:31Z</time>
      </trkpt>
      <trkpt lat="46.058" lon="4.70279">
        <ele>197</ele>
        <time>2017-03-17T10:55:32Z</time>
      </trkpt>
      <trkpt lat="46.05796" lon="4.70273">
        <ele>197</ele>
        <time>2017-03-17T10:55:33Z</time>
      </trkpt>
      <trkpt lat="46.05792" lon="4.70267">
        <ele>197</ele>
        <time>2017-03-17T10:55:34Z</time>
      </trkpt>
      <trkpt lat="46.05788" lon="4.70261">
        <ele>198</ele>
        <time>2017-03-17T10:55:35Z</time>
      </trkpt>
      <trkpt lat="46.05784" lon="4.70256">
        <ele>198</ele>
        <time>2017-03-17T10:55:36Z</time>
      </trkpt>
      <trkpt lat="46.0578" lon="4.7025">
        <ele>198</ele>
        <time>2017-03-17T10:55:37Z</time>
      </trkpt>
      <trkpt lat="46.05777" lon="4.70243">
        <ele>198</ele>
        <time>2017-03-17T10:55:38Z</time>
      </trkpt>
      <trkpt lat="46.05774" lon="4.70237">
        <ele>198</ele>
        <time>2017-03-17T10:55:39Z</time>
      </trkpt>
      <trkpt lat="46.0577" lon="4.7023">
        <ele>198</ele>
        <time>2017-03-17T10:55:40Z</time>
      </trkpt>
      <trkpt lat="46.05766" lon="4.70224">
        <ele>198</ele>
        <time>2017-03-17T10:55:41Z</time>
      </trkpt>
      <trkpt lat="46.05763" lon="4.70217">
        <ele>198</ele>
        <time>2017-03-17T10:55:42Z</time>
      </trkpt>
      <trkpt lat="46.05759" lon="4.70211">
        <ele>198</ele>
        <time>2017-03-17T10:55:43Z</time>
      </trkpt>
      <trkpt lat="46.05756" lon="4.70205">
        <ele>198</ele>
        <time>2017-03-17T10:55:44Z</time>
      </trkpt>
      <trkpt lat="46.05753" lon="4.70199">
        <ele>198</ele>
        <time>2017-03-17T10:55:45Z</time>
      </trkpt>
      <trkpt lat="46.0575" lon="4.70193">
        <ele>198</ele>
        <time>2017-03-17T10:55:46Z</time>
      </trkpt>
      <trkpt lat="46.05747" lon="4.70188">
        <ele>198</ele>
        <time>2017-03-17T10:55:47Z</time>
      </trkpt>
      <trkpt lat="46.05744" lon="4.70183">
        <ele>198</ele>
        <time>2017-03-17T10:55:48Z</time>
      </trkpt>
      <trkpt lat="46.05741" lon="4.70177">
        <ele>198</ele>
        <time>2017-03-17T10:55:49Z</time>
      </trkpt>
      <trkpt lat="46.05737" lon="4.70171">
        <ele>198</ele>
        <time>2017-03-17T10:55:50Z</time>
      </trkpt>
      <trkpt lat="46.05734" lon="4.70165">
        <ele>199</ele>
        <time>2017-03-17T10:55:51Z</time>
      </trkpt>
      <trkpt lat="46.05731" lon="4.70159">
        <ele>198</ele>
        <time>2017-03-17T10:55:52Z</time>
      </trkpt>
      <trkpt lat="46.05727" lon="4.70153">
        <ele>198</ele>
        <time>2017-03-17T10:55:53Z</time>
      </trkpt>
      <trkpt lat="46.05724" lon="4.70148">
        <ele>198</ele>
        <time>2017-03-17T10:55:54Z</time>
      </trkpt>
      <trkpt lat="46.05721" lon="4.70142">
        <ele>198</ele>
        <time>2017-03-17T10:55:55Z</time>
      </trkpt>
      <trkpt lat="46.05719" lon="4.70137">
        <ele>198</ele>
        <time>2017-03-17T10:55:56Z</time>
      </trkpt>
      <trkpt lat="46.05716" lon="4.70132">
        <ele>198</ele>
        <time>2017-03-17T10:55:57Z</time>
      </trkpt>
      <trkpt lat="46.05713" lon="4.70127">
        <ele>198</ele>
        <time>2017-03-17T10:55:58Z</time>
      </trkpt>
      <trkpt lat="46.0571" lon="4.70121">
        <ele>198</ele>
        <time>2017-03-17T10:55:59Z</time>
      </trkpt>
      <trkpt lat="46.05707" lon="4.70116">
        <ele>198</ele>
        <time>2017-03-17T10:56:00Z</time>
      </trkpt>
      <trkpt lat="46.05704" lon="4.7011">
        <ele>198</ele>
        <time>2017-03-17T10:56:01Z</time>
      </trkpt>
      <trkpt lat="46.05701" lon="4.70104">
        <ele>198</ele>
        <time>2017-03-17T10:56:02Z</time>
      </trkpt>
      <trkpt lat="46.05697" lon="4.70099">
        <ele>198</ele>
        <time>2017-03-17T10:56:03Z</time>
      </trkpt>
      <trkpt lat="46.05694" lon="4.70093">
        <ele>198</ele>
        <time>2017-03-17T10:56:04Z</time>
      </trkpt>
      <trkpt lat="46.05691" lon="4.70087">
        <ele>198</ele>
        <time>2017-03-17T10:56:05Z</time>
      </trkpt>
      <trkpt lat="46.05688" lon="4.70081">
        <ele>199</ele>
        <time>2017-03-17T10:56:06Z</time>
      </trkpt>
      <trkpt lat="46.05685" lon="4.70076">
        <ele>199</ele>
        <time>2017-03-17T10:56:07Z</time>
      </trkpt>
      <trkpt lat="46.05682" lon="4.7007">
        <ele>199</ele>
        <time>2017-03-17T10:56:08Z</time>
      </trkpt>
      <trkpt lat="46.05679" lon="4.70064">
        <ele>199</ele>
        <time>2017-03-17T10:56:09Z</time>
      </trkpt>
      <trkpt lat="46.05676" lon="4.70058">
        <ele>199</ele>
        <time>2017-03-17T10:56:10Z</time>
      </trkpt>
      <trkpt lat="46.05673" lon="4.70052">
        <ele>199</ele>
        <time>2017-03-17T10:56:11Z</time>
      </trkpt>
      <trkpt lat="46.0567" lon="4.70046">
        <ele>199</ele>
        <time>2017-03-17T10:56:12Z</time>
      </trkpt>
      <trkpt lat="46.05667" lon="4.7004">
        <ele>200</ele>
        <time>2017-03-17T10:56:13Z</time>
      </trkpt>
      <trkpt lat="46.05664" lon="4.70034">
        <ele>200</ele>
        <time>2017-03-17T10:56:14Z</time>
      </trkpt>
      <trkpt lat="46.0566" lon="4.70028">
        <ele>200</ele>
        <time>2017-03-17T10:56:15Z</time>
      </trkpt>
      <trkpt lat="46.05657" lon="4.70023">
        <ele>200</ele>
        <time>2017-03-17T10:56:16Z</time>
      </trkpt>
      <trkpt lat="46.05654" lon="4.70017">
        <ele>200</ele>
        <time>2017-03-17T10:56:17Z</time>
      </trkpt>
      <trkpt lat="46.05652" lon="4.70012">
        <ele>200</ele>
        <time>2017-03-17T10:56:18Z</time>
      </trkpt>
      <trkpt lat="46.05649" lon="4.70006">
        <ele>200</ele>
        <time>2017-03-17T10:56:19Z</time>
      </trkpt>
      <trkpt lat="46.05646" lon="4.70001">
        <ele>200</ele>
        <time>2017-03-17T10:56:20Z</time>
      </trkpt>
      <trkpt lat="46.05643" lon="4.69995">
        <ele>200</ele>
        <time>2017-03-17T10:56:21Z</time>
      </trkpt>
      <trkpt lat="46.0564" lon="4.69989">
        <ele>200</ele>
        <time>2017-03-17T10:56:22Z</time>
      </trkpt>
      <trkpt lat="46.05637" lon="4.69983">
        <ele>200</ele>
        <time>2017-03-17T10:56:23Z</time>
      </trkpt>
      <trkpt lat="46.05634" lon="4.69976">
        <ele>200</ele>
        <time>2017-03-17T10:56:24Z</time>
      </trkpt>
      <trkpt lat="46.05631" lon="4.6997">
        <ele>200</ele>
        <time>2017-03-17T10:56:25Z</time>
      </trkpt>
      <trkpt lat="46.05627" lon="4.69963">
        <ele>201</ele>
        <time>2017-03-17T10:56:26Z</time>
      </trkpt>
      <trkpt lat="46.05624" lon="4.69956">
        <ele>200</ele>
        <time>2017-03-17T10:56:27Z</time>
      </trkpt>
      <trkpt lat="46.05621" lon="4.6995">
        <ele>201</ele>
        <time>2017-03-17T10:56:28Z</time>
      </trkpt>
      <trkpt lat="46.05617" lon="4.69944">
        <ele>201</ele>
        <time>2017-03-17T10:56:29Z</time>
      </trkpt>
      <trkpt lat="46.05614" lon="4.69938">
        <ele>201</ele>
        <time>2017-03-17T10:56:30Z</time>
      </trkpt>
      <trkpt lat="46.05611" lon="4.69932">
        <ele>201</ele>
        <time>2017-03-17T10:56:31Z</time>
      </trkpt>
      <trkpt lat="46.05607" lon="4.69926">
        <ele>201</ele>
        <time>2017-03-17T10:56:32Z</time>
      </trkpt>
      <trkpt lat="46.05604" lon="4.69921">
        <ele>201</ele>
        <time>2017-03-17T10:56:33Z</time>
      </trkpt>
      <trkpt lat="46.05601" lon="4.69915">
        <ele>201</ele>
        <time>2017-03-17T10:56:34Z</time>
      </trkpt>
      <trkpt lat="46.05598" lon="4.69909">
        <ele>201</ele>
        <time>2017-03-17T10:56:35Z</time>
      </trkpt>
      <trkpt lat="46.05594" lon="4.69903">
        <ele>201</ele>
        <time>2017-03-17T10:56:36Z</time>
      </trkpt>
      <trkpt lat="46.05591" lon="4.69897">
        <ele>201</ele>
        <time>2017-03-17T10:56:37Z</time>
      </trkpt>
      <trkpt lat="46.05587" lon="4.6989">
        <ele>201</ele>
        <time>2017-03-17T10:56:38Z</time>
      </trkpt>
      <trkpt lat="46.05583" lon="4.69883">
        <ele>200</ele>
        <time>2017-03-17T10:56:39Z</time>
      </trkpt>
      <trkpt lat="46.0558" lon="4.69877">
        <ele>200</ele>
        <time>2017-03-17T10:56:40Z</time>
      </trkpt>
      <trkpt lat="46.05576" lon="4.6987">
        <ele>200</ele>
        <time>2017-03-17T10:56:41Z</time>
      </trkpt>
      <trkpt lat="46.05573" lon="4.69864">
        <ele>200</ele>
        <time>2017-03-17T10:56:42Z</time>
      </trkpt>
      <trkpt lat="46.05569" lon="4.69858">
        <ele>200</ele>
        <time>2017-03-17T10:56:43Z</time>
      </trkpt>
      <trkpt lat="46.05564" lon="4.69853">
        <ele>200</ele>
        <time>2017-03-17T10:56:44Z</time>
      </trkpt>
      <trkpt lat="46.05559" lon="4.6985">
        <ele>200</ele>
        <time>2017-03-17T10:56:45Z</time>
      </trkpt>
      <trkpt lat="46.05554" lon="4.6985">
        <ele>200</ele>
        <time>2017-03-17T10:56:46Z</time>
      </trkpt>
      <trkpt lat="46.05549" lon="4.69852">
        <ele>200</ele>
        <time>2017-03-17T10:56:47Z</time>
      </trkpt>
      <trkpt lat="46.05545" lon="4.69854">
        <ele>200</ele>
        <time>2017-03-17T10:56:48Z</time>
      </trkpt>
      <trkpt lat="46.05541" lon="4.69857">
        <ele>200</ele>
        <time>2017-03-17T10:56:49Z</time>
      </trkpt>
      <trkpt lat="46.05536" lon="4.69859">
        <ele>200</ele>
        <time>2017-03-17T10:56:50Z</time>
      </trkpt>
      <trkpt lat="46.05532" lon="4.69861">
        <ele>200</ele>
        <time>2017-03-17T10:56:51Z</time>
      </trkpt>
      <trkpt lat="46.05527" lon="4.69862">
        <ele>200</ele>
        <time>2017-03-17T10:56:52Z</time>
      </trkpt>
      <trkpt lat="46.05523" lon="4.69864">
        <ele>200</ele>
        <time>2017-03-17T10:56:53Z</time>
      </trkpt>
      <trkpt lat="46.05518" lon="4.69866">
        <ele>199</ele>
        <time>2017-03-17T10:56:54Z</time>
      </trkpt>
      <trkpt lat="46.05513" lon="4.69868">
        <ele>199</ele>
        <time>2017-03-17T10:56:55Z</time>
      </trkpt>
      <trkpt lat="46.05508" lon="4.6987">
        <ele>199</ele>
        <time>2017-03-17T10:56:56Z</time>
      </trkpt>
      <trkpt lat="46.05503" lon="4.69872">
        <ele>199</ele>
        <time>2017-03-17T10:56:57Z</time>
      </trkpt>
      <trkpt lat="46.05498" lon="4.69874">
        <ele>199</ele>
        <time>2017-03-17T10:56:58Z</time>
      </trkpt>
      <trkpt lat="46.05493" lon="4.69876">
        <ele>199</ele>
        <time>2017-03-17T10:56:59Z</time>
      </trkpt>
      <trkpt lat="46.05487" lon="4.69878">
        <ele>199</ele>
        <time>2017-03-17T10:57:00Z</time>
      </trkpt>
      <trkpt lat="46.05482" lon="4.6988">
        <ele>199</ele>
        <time>2017-03-17T10:57:01Z</time>
      </trkpt>
      <trkpt lat="46.05477" lon="4.69882">
        <ele>199</ele>
        <time>2017-03-17T10:57:02Z</time>
      </trkpt>
      <trkpt lat="46.05471" lon="4.69884">
        <ele>199</ele>
        <time>2017-03-17T10:57:03Z</time>
      </trkpt>
      <trkpt lat="46.05466" lon="4.69885">
        <ele>199</ele>
        <time>2017-03-17T10:57:04Z</time>
      </trkpt>
      <trkpt lat="46.05461" lon="4.69887">
        <ele>199</ele>
        <time>2017-03-17T10:57:05Z</time>
      </trkpt>
      <trkpt lat="46.05456" lon="4.69889">
        <ele>199</ele>
        <time>2017-03-17T10:57:06Z</time>
      </trkpt>
      <trkpt lat="46.05451" lon="4.69891">
        <ele>199</ele>
        <time>2017-03-17T10:57:07Z</time>
      </trkpt>
      <trkpt lat="46.05446" lon="4.69893">
        <ele>199</ele>
        <time>2017-03-17T10:57:08Z</time>
      </trkpt>
      <trkpt lat="46.05441" lon="4.69895">
        <ele>199</ele>
        <time>2017-03-17T10:57:09Z</time>
      </trkpt>
      <trkpt lat="46.05436" lon="4.69897">
        <ele>199</ele>
        <time>2017-03-17T10:57:10Z</time>
      </trkpt>
      <trkpt lat="46.05431" lon="4.69899">
        <ele>199</ele>
        <time>2017-03-17T10:57:11Z</time>
      </trkpt>
      <trkpt lat="46.05425" lon="4.69901">
        <ele>199</ele>
        <time>2017-03-17T10:57:12Z</time>
      </trkpt>
      <trkpt lat="46.05419" lon="4.69902">
        <ele>199</ele>
        <time>2017-03-17T10:57:13Z</time>
      </trkpt>
      <trkpt lat="46.05413" lon="4.69903">
        <ele>199</ele>
        <time>2017-03-17T10:57:14Z</time>
      </trkpt>
      <trkpt lat="46.05407" lon="4.69903">
        <ele>199</ele>
        <time>2017-03-17T10:57:15Z</time>
      </trkpt>
      <trkpt lat="46.054" lon="4.69903">
        <ele>199</ele>
        <time>2017-03-17T10:57:16Z</time>
      </trkpt>
      <trkpt lat="46.05394" lon="4.69903">
        <ele>199</ele>
        <time>2017-03-17T10:57:17Z</time>
      </trkpt>
      <trkpt lat="46.05389" lon="4.69901">
        <ele>199</ele>
        <time>2017-03-17T10:57:18Z</time>
      </trkpt>
      <trkpt lat="46.05383" lon="4.69899">
        <ele>199</ele>
        <time>2017-03-17T10:57:19Z</time>
      </trkpt>
      <trkpt lat="46.05378" lon="4.69897">
        <ele>199</ele>
        <time>2017-03-17T10:57:20Z</time>
      </trkpt>
      <trkpt lat="46.05373" lon="4.69895">
        <ele>199</ele>
        <time>2017-03-17T10:57:21Z</time>
      </trkpt>
      <trkpt lat="46.05368" lon="4.69893">
        <ele>199</ele>
        <time>2017-03-17T10:57:22Z</time>
      </trkpt>
      <trkpt lat="46.05362" lon="4.69891">
        <ele>199</ele>
        <time>2017-03-17T10:57:23Z</time>
      </trkpt>
      <trkpt lat="46.05357" lon="4.69889">
        <ele>199</ele>
        <time>2017-03-17T10:57:24Z</time>
      </trkpt>
      <trkpt lat="46.05352" lon="4.69887">
        <ele>199</ele>
        <time>2017-03-17T10:57:25Z</time>
      </trkpt>
      <trkpt lat="46.05347" lon="4.69885">
        <ele>199</ele>
        <time>2017-03-17T10:57:26Z</time>
      </trkpt>
      <trkpt lat="46.05341" lon="4.69884">
        <ele>199</ele>
        <time>2017-03-17T10:57:27Z</time>
      </trkpt>
      <trkpt lat="46.05336" lon="4.69882">
        <ele>199</ele>
        <time>2017-03-17T10:57:28Z</time>
      </trkpt>
      <trkpt lat="46.0533" lon="4.69881">
        <ele>199</ele>
        <time>2017-03-17T10:57:29Z</time>
      </trkpt>
      <trkpt lat="46.05325" lon="4.69879">
        <ele>199</ele>
        <time>2017-03-17T10:57:30Z</time>
      </trkpt>
      <trkpt lat="46.0532" lon="4.69878">
        <ele>199</ele>
        <time>2017-03-17T10:57:31Z</time>
      </trkpt>
      <trkpt lat="46.05315" lon="4.69876">
        <ele>199</ele>
        <time>2017-03-17T10:57:32Z</time>
      </trkpt>
      <trkpt lat="46.05309" lon="4.69875">
        <ele>199</ele>
        <time>2017-03-17T10:57:33Z</time>
      </trkpt>
      <trkpt lat="46.05304" lon="4.69874">
        <ele>199</ele>
        <time>2017-03-17T10:57:34Z</time>
      </trkpt>
      <trkpt lat="46.05299" lon="4.69873">
        <ele>199</ele>
        <time>2017-03-17T10:57:35Z</time>
      </trkpt>
      <trkpt lat="46.05294" lon="4.69872">
        <ele>199</ele>
        <time>2017-03-17T10:57:36Z</time>
      </trkpt>
      <trkpt lat="46.05288" lon="4.69871">
        <ele>199</ele>
        <time>2017-03-17T10:57:37Z</time>
      </trkpt>
      <trkpt lat="46.05283" lon="4.6987">
        <ele>199</ele>
        <time>2017-03-17T10:57:38Z</time>
      </trkpt>
      <trkpt lat="46.05278" lon="4.69869">
        <ele>199</ele>
        <time>2017-03-17T10:57:39Z</time>
      </trkpt>
      <trkpt lat="46.05272" lon="4.69868">
        <ele>199</ele>
        <time>2017-03-17T10:57:40Z</time>
      </trkpt>
      <trkpt lat="46.05267" lon="4.69866">
        <ele>199</ele>
        <time>2017-03-17T10:57:41Z</time>
      </trkpt>
      <trkpt lat="46.05261" lon="4.69865">
        <ele>199</ele>
        <time>2017-03-17T10:57:42Z</time>
      </trkpt>
      <trkpt lat="46.05256" lon="4.69864">
        <ele>199</ele>
        <time>2017-03-17T10:57:43Z</time>
      </trkpt>
      <trkpt lat="46.05251" lon="4.69863">
        <ele>199</ele>
        <time>2017-03-17T10:57:44Z</time>
      </trkpt>
      <trkpt lat="46.05245" lon="4.69862">
        <ele>201</ele>
        <time>2017-03-17T10:57:45Z</time>
      </trkpt>
      <trkpt lat="46.0524" lon="4.6986">
        <ele>201</ele>
        <time>2017-03-17T10:57:46Z</time>
      </trkpt>
      <trkpt lat="46.05235" lon="4.69859">
        <ele>201</ele>
        <time>2017-03-17T10:57:47Z</time>
      </trkpt>
      <trkpt lat="46.0523" lon="4.69857">
        <ele>201</ele>
        <time>2017-03-17T10:57:48Z</time>
      </trkpt>
      <trkpt lat="46.05225" lon="4.69855">
        <ele>201</ele>
        <time>2017-03-17T10:57:49Z</time>
      </trkpt>
      <trkpt lat="46.0522" lon="4.69853">
        <ele>201</ele>
        <time>2017-03-17T10:57:50Z</time>
      </trkpt>
      <trkpt lat="46.05215" lon="4.69852">
        <ele>201</ele>
        <time>2017-03-17T10:57:51Z</time>
      </trkpt>
      <trkpt lat="46.0521" lon="4.6985">
        <ele>201</ele>
        <time>2017-03-17T10:57:52Z</time>
      </trkpt>
      <trkpt lat="46.05204" lon="4.69848">
        <ele>201</ele>
        <time>2017-03-17T10:57:53Z</time>
      </trkpt>
      <trkpt lat="46.05199" lon="4.69845">
        <ele>201</ele>
        <time>2017-03-17T10:57:54Z</time>
      </trkpt>
      <trkpt lat="46.05193" lon="4.69843">
        <ele>202</ele>
        <time>2017-03-17T10:57:55Z</time>
      </trkpt>
      <trkpt lat="46.05187" lon="4.69841">
        <ele>202</ele>
        <time>2017-03-17T10:57:56Z</time>
      </trkpt>
      <trkpt lat="46.05182" lon="4.69839">
        <ele>202</ele>
        <time>2017-03-17T10:57:57Z</time>
      </trkpt>
      <trkpt lat="46.05177" lon="4.69837">
        <ele>202</ele>
        <time>2017-03-17T10:57:58Z</time>
      </trkpt>
      <trkpt lat="46.05171" lon="4.69836">
        <ele>203</ele>
        <time>2017-03-17T10:57:59Z</time>
      </trkpt>
      <trkpt lat="46.05166" lon="4.69834">
        <ele>203</ele>
        <time>2017-03-17T10:58:00Z</time>
      </trkpt>
      <trkpt lat="46.05161" lon="4.69833">
        <ele>203</ele>
        <time>2017-03-17T10:58:01Z</time>
      </trkpt>
      <trkpt lat="46.05156" lon="4.69831">
        <ele>203</ele>
        <time>2017-03-17T10:58:02Z</time>
      </trkpt>
      <trkpt lat="46.05151" lon="4.6983">
        <ele>204</ele>
        <time>2017-03-17T10:58:03Z</time>
      </trkpt>
      <trkpt lat="46.05143" lon="4.69827">
        <ele>204</ele>
        <time>2017-03-17T10:58:05Z</time>
      </trkpt>
      <trkpt lat="46.05138" lon="4.69826">
        <ele>204</ele>
        <time>2017-03-17T10:58:06Z</time>
      </trkpt>
      <trkpt lat="46.0513" lon="4.69826">
        <ele>204</ele>
        <time>2017-03-17T10:58:08Z</time>
      </trkpt>
      <trkpt lat="46.05126" lon="4.69827">
        <ele>204</ele>
        <time>2017-03-17T10:58:09Z</time>
      </trkpt>
      <trkpt lat="46.05122" lon="4.69835">
        <ele>204</ele>
        <time>2017-03-17T10:58:11Z</time>
      </trkpt>
      <trkpt lat="46.0512" lon="4.69842">
        <ele>204</ele>
        <time>2017-03-17T10:58:12Z</time>
      </trkpt>
      <trkpt lat="46.05119" lon="4.69849">
        <ele>204</ele>
        <time>2017-03-17T10:58:13Z</time>
      </trkpt>
      <trkpt lat="46.05119" lon="4.69856">
        <ele>204</ele>
        <time>2017-03-17T10:58:14Z</time>
      </trkpt>
      <trkpt lat="46.05117" lon="4.69863">
        <ele>204</ele>
        <time>2017-03-17T10:58:15Z</time>
      </trkpt>
      <trkpt lat="46.05116" lon="4.69871">
        <ele>204</ele>
        <time>2017-03-17T10:58:16Z</time>
      </trkpt>
      <trkpt lat="46.05115" lon="4.69878">
        <ele>204</ele>
        <time>2017-03-17T10:58:17Z</time>
      </trkpt>
      <trkpt lat="46.05114" lon="4.69885">
        <ele>204</ele>
        <time>2017-03-17T10:58:18Z</time>
      </trkpt>
      <trkpt lat="46.05112" lon="4.69893">
        <ele>204</ele>
        <time>2017-03-17T10:58:19Z</time>
      </trkpt>
      <trkpt lat="46.05111" lon="4.699">
        <ele>204</ele>
        <time>2017-03-17T10:58:20Z</time>
      </trkpt>
      <trkpt lat="46.0511" lon="4.69908">
        <ele>204</ele>
        <time>2017-03-17T10:58:21Z</time>
      </trkpt>
      <trkpt lat="46.05109" lon="4.69915">
        <ele>204</ele>
        <time>2017-03-17T10:58:22Z</time>
      </trkpt>
      <trkpt lat="46.05108" lon="4.69923">
        <ele>203</ele>
        <time>2017-03-17T10:58:23Z</time>
      </trkpt>
      <trkpt lat="46.05107" lon="4.6993">
        <ele>203</ele>
        <time>2017-03-17T10:58:24Z</time>
      </trkpt>
      <trkpt lat="46.05106" lon="4.69938">
        <ele>203</ele>
        <time>2017-03-17T10:58:25Z</time>
      </trkpt>
      <trkpt lat="46.05105" lon="4.69945">
        <ele>203</ele>
        <time>2017-03-17T10:58:26Z</time>
      </trkpt>
      <trkpt lat="46.05104" lon="4.69952">
        <ele>203</ele>
        <time>2017-03-17T10:58:27Z</time>
      </trkpt>
      <trkpt lat="46.05103" lon="4.69959">
        <ele>203</ele>
        <time>2017-03-17T10:58:28Z</time>
      </trkpt>
      <trkpt lat="46.05102" lon="4.69966">
        <ele>203</ele>
        <time>2017-03-17T10:58:29Z</time>
      </trkpt>
      <trkpt lat="46.05101" lon="4.69973">
        <ele>203</ele>
        <time>2017-03-17T10:58:30Z</time>
      </trkpt>
      <trkpt lat="46.05099" lon="4.6998">
        <ele>204</ele>
        <time>2017-03-17T10:58:31Z</time>
      </trkpt>
      <trkpt lat="46.05097" lon="4.69988">
        <ele>204</ele>
        <time>2017-03-17T10:58:32Z</time>
      </trkpt>
      <trkpt lat="46.05096" lon="4.69995">
        <ele>204</ele>
        <time>2017-03-17T10:58:33Z</time>
      </trkpt>
      <trkpt lat="46.05094" lon="4.70002">
        <ele>204</ele>
        <time>2017-03-17T10:58:34Z</time>
      </trkpt>
      <trkpt lat="46.05092" lon="4.7001">
        <ele>204</ele>
        <time>2017-03-17T10:58:35Z</time>
      </trkpt>
      <trkpt lat="46.0509" lon="4.70016">
        <ele>204</ele>
        <time>2017-03-17T10:58:36Z</time>
      </trkpt>
      <trkpt lat="46.05087" lon="4.70022">
        <ele>203</ele>
        <time>2017-03-17T10:58:37Z</time>
      </trkpt>
      <trkpt lat="46.05083" lon="4.70027">
        <ele>204</ele>
        <time>2017-03-17T10:58:38Z</time>
      </trkpt>
      <trkpt lat="46.05079" lon="4.70031">
        <ele>204</ele>
        <time>2017-03-17T10:58:39Z</time>
      </trkpt>
      <trkpt lat="46.05074" lon="4.70033">
        <ele>204</ele>
        <time>2017-03-17T10:58:40Z</time>
      </trkpt>
      <trkpt lat="46.05069" lon="4.70034">
        <ele>204</ele>
        <time>2017-03-17T10:58:41Z</time>
      </trkpt>
      <trkpt lat="46.05063" lon="4.70033">
        <ele>204</ele>
        <time>2017-03-17T10:58:42Z</time>
      </trkpt>
      <trkpt lat="46.05058" lon="4.70031">
        <ele>204</ele>
        <time>2017-03-17T10:58:43Z</time>
      </trkpt>
      <trkpt lat="46.05052" lon="4.70028">
        <ele>204</ele>
        <time>2017-03-17T10:58:44Z</time>
      </trkpt>
      <trkpt lat="46.05047" lon="4.70024">
        <ele>204</ele>
        <time>2017-03-17T10:58:45Z</time>
      </trkpt>
      <trkpt lat="46.05041" lon="4.7002">
        <ele>204</ele>
        <time>2017-03-17T10:58:46Z</time>
      </trkpt>
      <trkpt lat="46.05036" lon="4.70017">
        <ele>204</ele>
        <time>2017-03-17T10:58:47Z</time>
      </trkpt>
      <trkpt lat="46.05031" lon="4.70014">
        <ele>204</ele>
        <time>2017-03-17T10:58:48Z</time>
      </trkpt>
      <trkpt lat="46.05026" lon="4.7001">
        <ele>204</ele>
        <time>2017-03-17T10:58:49Z</time>
      </trkpt>
      <trkpt lat="46.05022" lon="4.70006">
        <ele>204</ele>
        <time>2017-03-17T10:58:50Z</time>
      </trkpt>
      <trkpt lat="46.05018" lon="4.70002">
        <ele>204</ele>
        <time>2017-03-17T10:58:51Z</time>
      </trkpt>
      <trkpt lat="46.05014" lon="4.69998">
        <ele>205</ele>
        <time>2017-03-17T10:58:52Z</time>
      </trkpt>
      <trkpt lat="46.0501" lon="4.69993">
        <ele>205</ele>
        <time>2017-03-17T10:58:53Z</time>
      </trkpt>
      <trkpt lat="46.05007" lon="4.69988">
        <ele>205</ele>
        <time>2017-03-17T10:58:54Z</time>
      </trkpt>
      <trkpt lat="46.05002" lon="4.69983">
        <ele>205</ele>
        <time>2017-03-17T10:58:55Z</time>
      </trkpt>
      <trkpt lat="46.04998" lon="4.69978">
        <ele>205</ele>
        <time>2017-03-17T10:58:56Z</time>
      </trkpt>
      <trkpt lat="46.04995" lon="4.69973">
        <ele>205</ele>
        <time>2017-03-17T10:58:57Z</time>
      </trkpt>
      <trkpt lat="46.04992" lon="4.69968">
        <ele>205</ele>
        <time>2017-03-17T10:58:58Z</time>
      </trkpt>
      <trkpt lat="46.04988" lon="4.69962">
        <ele>205</ele>
        <time>2017-03-17T10:58:59Z</time>
      </trkpt>
      <trkpt lat="46.04985" lon="4.69957">
        <ele>206</ele>
        <time>2017-03-17T10:59:00Z</time>
      </trkpt>
      <trkpt lat="46.04981" lon="4.69951">
        <ele>206</ele>
        <time>2017-03-17T10:59:01Z</time>
      </trkpt>
      <trkpt lat="46.04978" lon="4.69944">
        <ele>206</ele>
        <time>2017-03-17T10:59:02Z</time>
      </trkpt>
      <trkpt lat="46.04975" lon="4.69938">
        <ele>206</ele>
        <time>2017-03-17T10:59:03Z</time>
      </trkpt>
      <trkpt lat="46.04971" lon="4.69933">
        <ele>206</ele>
        <time>2017-03-17T10:59:04Z</time>
      </trkpt>
      <trkpt lat="46.04967" lon="4.69928">
        <ele>206</ele>
        <time>2017-03-17T10:59:05Z</time>
      </trkpt>
      <trkpt lat="46.04964" lon="4.69923">
        <ele>206</ele>
        <time>2017-03-17T10:59:06Z</time>
      </trkpt>
      <trkpt lat="46.04961" lon="4.69917">
        <ele>206</ele>
        <time>2017-03-17T10:59:07Z</time>
      </trkpt>
      <trkpt lat="46.04958" lon="4.69912">
        <ele>207</ele>
        <time>2017-03-17T10:59:08Z</time>
      </trkpt>
      <trkpt lat="46.04955" lon="4.69907">
        <ele>207</ele>
        <time>2017-03-17T10:59:09Z</time>
      </trkpt>
      <trkpt lat="46.04951" lon="4.69904">
        <ele>207</ele>
        <time>2017-03-17T10:59:10Z</time>
      </trkpt>
      <trkpt lat="46.04947" lon="4.699">
        <ele>207</ele>
        <time>2017-03-17T10:59:11Z</time>
      </trkpt>
      <trkpt lat="46.04944" lon="4.69895">
        <ele>207</ele>
        <time>2017-03-17T10:59:12Z</time>
      </trkpt>
      <trkpt lat="46.0494" lon="4.6989">
        <ele>207</ele>
        <time>2017-03-17T10:59:13Z</time>
      </trkpt>
      <trkpt lat="46.04936" lon="4.69884">
        <ele>207</ele>
        <time>2017-03-17T10:59:14Z</time>
      </trkpt>
      <trkpt lat="46.04932" lon="4.6988">
        <ele>207</ele>
        <time>2017-03-17T10:59:15Z</time>
      </trkpt>
      <trkpt lat="46.04928" lon="4.69876">
        <ele>207</ele>
        <time>2017-03-17T10:59:16Z</time>
      </trkpt>
      <trkpt lat="46.04924" lon="4.69872">
        <ele>207</ele>
        <time>2017-03-17T10:59:17Z</time>
      </trkpt>
      <trkpt lat="46.04919" lon="4.69869">
        <ele>207</ele>
        <time>2017-03-17T10:59:18Z</time>
      </trkpt>
      <trkpt lat="46.0491" lon="4.69865">
        <ele>206</ele>
        <time>2017-03-17T10:59:20Z</time>
      </trkpt>
      <trkpt lat="46.04906" lon="4.69863">
        <ele>206</ele>
        <time>2017-03-17T10:59:21Z</time>
      </trkpt>
      <trkpt lat="46.04899" lon="4.69858">
        <ele>206</ele>
        <time>2017-03-17T10:59:23Z</time>
      </trkpt>
      <trkpt lat="46.04895" lon="4.69855">
        <ele>206</ele>
        <time>2017-03-17T10:59:24Z</time>
      </trkpt>
      <trkpt lat="46.04891" lon="4.69852">
        <ele>206</ele>
        <time>2017-03-17T10:59:25Z</time>
      </trkpt>
      <trkpt lat="46.04887" lon="4.69849">
        <ele>206</ele>
        <time>2017-03-17T10:59:26Z</time>
      </trkpt>
      <trkpt lat="46.04882" lon="4.69846">
        <ele>206</ele>
        <time>2017-03-17T10:59:27Z</time>
      </trkpt>
      <trkpt lat="46.04877" lon="4.69843">
        <ele>206</ele>
        <time>2017-03-17T10:59:28Z</time>
      </trkpt>
      <trkpt lat="46.04873" lon="4.69841">
        <ele>206</ele>
        <time>2017-03-17T10:59:29Z</time>
      </trkpt>
      <trkpt lat="46.04868" lon="4.69839">
        <ele>206</ele>
        <time>2017-03-17T10:59:30Z</time>
      </trkpt>
      <trkpt lat="46.04863" lon="4.69837">
        <ele>206</ele>
        <time>2017-03-17T10:59:31Z</time>
      </trkpt>
      <trkpt lat="46.04858" lon="4.69834">
        <ele>206</ele>
        <time>2017-03-17T10:59:32Z</time>
      </trkpt>
      <trkpt lat="46.04853" lon="4.69832">
        <ele>207</ele>
        <time>2017-03-17T10:59:33Z</time>
      </trkpt>
      <trkpt lat="46.04848" lon="4.6983">
        <ele>207</ele>
        <time>2017-03-17T10:59:34Z</time>
      </trkpt>
      <trkpt lat="46.04844" lon="4.69828">
        <ele>207</ele>
        <time>2017-03-17T10:59:35Z</time>
      </trkpt>
      <trkpt lat="46.04839" lon="4.69825">
        <ele>207</ele>
        <time>2017-03-17T10:59:36Z</time>
      </trkpt>
      <trkpt lat="46.04835" lon="4.69823">
        <ele>207</ele>
        <time>2017-03-17T10:59:37Z</time>
      </trkpt>
      <trkpt lat="46.0483" lon="4.69821">
        <ele>207</ele>
        <time>2017-03-17T10:59:38Z</time>
      </trkpt>
      <trkpt lat="46.04825" lon="4.69818">
        <ele>207</ele>
        <time>2017-03-17T10:59:39Z</time>
      </trkpt>
      <trkpt lat="46.04821" lon="4.69816">
        <ele>207</ele>
        <time>2017-03-17T10:59:40Z</time>
      </trkpt>
      <trkpt lat="46.04813" lon="4.69811">
        <ele>206</ele>
        <time>2017-03-17T10:59:42Z</time>
      </trkpt>
      <trkpt lat="46.04809" lon="4.6981">
        <ele>206</ele>
        <time>2017-03-17T10:59:43Z</time>
      </trkpt>
      <trkpt lat="46.048" lon="4.69807">
        <ele>206</ele>
        <time>2017-03-17T10:59:45Z</time>
      </trkpt>
      <trkpt lat="46.04797" lon="4.69808">
        <ele>206</ele>
        <time>2017-03-17T10:59:46Z</time>
      </trkpt>
      <trkpt lat="46.04792" lon="4.69817">
        <ele>206</ele>
        <time>2017-03-17T10:59:48Z</time>
      </trkpt>
      <trkpt lat="46.0479" lon="4.69822">
        <ele>206</ele>
        <time>2017-03-17T10:59:49Z</time>
      </trkpt>
      <trkpt lat="46.04785" lon="4.6983">
        <ele>206</ele>
        <time>2017-03-17T10:59:51Z</time>
      </trkpt>
      <trkpt lat="46.04782" lon="4.69833">
        <ele>206</ele>
        <time>2017-03-17T10:59:52Z</time>
      </trkpt>
      <trkpt lat="46.04777" lon="4.69836">
        <ele>205</ele>
        <time>2017-03-17T10:59:53Z</time>
      </trkpt>
      <trkpt lat="46.04772" lon="4.69837">
        <ele>205</ele>
        <time>2017-03-17T10:59:54Z</time>
      </trkpt>
      <trkpt lat="46.04766" lon="4.69836">
        <ele>205</ele>
        <time>2017-03-17T10:59:55Z</time>
      </trkpt>
      <trkpt lat="46.04761" lon="4.69835">
        <ele>205</ele>
        <time>2017-03-17T10:59:56Z</time>
      </trkpt>
      <trkpt lat="46.04755" lon="4.69835">
        <ele>205</ele>
        <time>2017-03-17T10:59:57Z</time>
      </trkpt>
      <trkpt lat="46.04749" lon="4.69835">
        <ele>205</ele>
        <time>2017-03-17T10:59:58Z</time>
      </trkpt>
      <trkpt lat="46.04744" lon="4.69836">
        <ele>204</ele>
        <time>2017-03-17T10:59:59Z</time>
      </trkpt>
      <trkpt lat="46.04738" lon="4.69836">
        <ele>204</ele>
        <time>2017-03-17T11:00:00Z</time>
      </trkpt>
      <trkpt lat="46.04733" lon="4.69836">
        <ele>203</ele>
        <time>2017-03-17T11:00:01Z</time>
      </trkpt>
      <trkpt lat="46.04728" lon="4.69837">
        <ele>203</ele>
        <time>2017-03-17T11:00:02Z</time>
      </trkpt>
      <trkpt lat="46.04722" lon="4.69837">
        <ele>203</ele>
        <time>2017-03-17T11:00:03Z</time>
      </trkpt>
      <trkpt lat="46.04717" lon="4.69838">
        <ele>203</ele>
        <time>2017-03-17T11:00:04Z</time>
      </trkpt>
      <trkpt lat="46.04712" lon="4.69838">
        <ele>203</ele>
        <time>2017-03-17T11:00:05Z</time>
      </trkpt>
      <trkpt lat="46.04708" lon="4.69837">
        <ele>203</ele>
        <time>2017-03-17T11:00:06Z</time>
      </trkpt>
      <trkpt lat="46.04703" lon="4.69837">
        <ele>202</ele>
        <time>2017-03-17T11:00:07Z</time>
      </trkpt>
      <trkpt lat="46.04698" lon="4.69836">
        <ele>202</ele>
        <time>2017-03-17T11:00:08Z</time>
      </trkpt>
      <trkpt lat="46.04694" lon="4.69835">
        <ele>202</ele>
        <time>2017-03-17T11:00:09Z</time>
      </trkpt>
      <trkpt lat="46.04689" lon="4.69834">
        <ele>202</ele>
        <time>2017-03-17T11:00:10Z</time>
      </trkpt>
      <trkpt lat="46.04684" lon="4.69834">
        <ele>202</ele>
        <time>2017-03-17T11:00:11Z</time>
      </trkpt>
      <trkpt lat="46.04679" lon="4.69833">
        <ele>203</ele>
        <time>2017-03-17T11:00:12Z</time>
      </trkpt>
      <trkpt lat="46.04674" lon="4.69831">
        <ele>203</ele>
        <time>2017-03-17T11:00:13Z</time>
      </trkpt>
      <trkpt lat="46.04669" lon="4.69829">
        <ele>203</ele>
        <time>2017-03-17T11:00:14Z</time>
      </trkpt>
      <trkpt lat="46.04665" lon="4.69828">
        <ele>203</ele>
        <time>2017-03-17T11:00:15Z</time>
      </trkpt>
      <trkpt lat="46.04659" lon="4.69826">
        <ele>203</ele>
        <time>2017-03-17T11:00:16Z</time>
      </trkpt>
      <trkpt lat="46.04653" lon="4.69824">
        <ele>202</ele>
        <time>2017-03-17T11:00:17Z</time>
      </trkpt>
      <trkpt lat="46.04647" lon="4.69823">
        <ele>202</ele>
        <time>2017-03-17T11:00:18Z</time>
      </trkpt>
      <trkpt lat="46.04642" lon="4.69822">
        <ele>202</ele>
        <time>2017-03-17T11:00:19Z</time>
      </trkpt>
      <trkpt lat="46.04636" lon="4.6982">
        <ele>202</ele>
        <time>2017-03-17T11:00:20Z</time>
      </trkpt>
      <trkpt lat="46.04631" lon="4.69818">
        <ele>202</ele>
        <time>2017-03-17T11:00:21Z</time>
      </trkpt>
      <trkpt lat="46.04625" lon="4.69816">
        <ele>202</ele>
        <time>2017-03-17T11:00:22Z</time>
      </trkpt>
      <trkpt lat="46.0462" lon="4.69814">
        <ele>202</ele>
        <time>2017-03-17T11:00:23Z</time>
      </trkpt>
      <trkpt lat="46.04615" lon="4.69811">
        <ele>201</ele>
        <time>2017-03-17T11:00:24Z</time>
      </trkpt>
      <trkpt lat="46.0461" lon="4.6981">
        <ele>201</ele>
        <time>2017-03-17T11:00:25Z</time>
      </trkpt>
      <trkpt lat="46.04604" lon="4.69808">
        <ele>201</ele>
        <time>2017-03-17T11:00:26Z</time>
      </trkpt>
      <trkpt lat="46.04599" lon="4.69807">
        <ele>201</ele>
        <time>2017-03-17T11:00:27Z</time>
      </trkpt>
      <trkpt lat="46.04594" lon="4.69805">
        <ele>201</ele>
        <time>2017-03-17T11:00:28Z</time>
      </trkpt>
      <trkpt lat="46.04588" lon="4.69803">
        <ele>201</ele>
        <time>2017-03-17T11:00:29Z</time>
      </trkpt>
      <trkpt lat="46.04582" lon="4.69801">
        <ele>200</ele>
        <time>2017-03-17T11:00:30Z</time>
      </trkpt>
      <trkpt lat="46.04576" lon="4.69799">
        <ele>200</ele>
        <time>2017-03-17T11:00:31Z</time>
      </trkpt>
      <trkpt lat="46.0457" lon="4.69797">
        <ele>200</ele>
        <time>2017-03-17T11:00:32Z</time>
      </trkpt>
      <trkpt lat="46.04564" lon="4.69796">
        <ele>200</ele>
        <time>2017-03-17T11:00:33Z</time>
      </trkpt>
      <trkpt lat="46.04557" lon="4.69794">
        <ele>199</ele>
        <time>2017-03-17T11:00:34Z</time>
      </trkpt>
      <trkpt lat="46.04551" lon="4.69793">
        <ele>199</ele>
        <time>2017-03-17T11:00:35Z</time>
      </trkpt>
      <trkpt lat="46.04545" lon="4.69792">
        <ele>199</ele>
        <time>2017-03-17T11:00:36Z</time>
      </trkpt>
      <trkpt lat="46.04539" lon="4.69791">
        <ele>199</ele>
        <time>2017-03-17T11:00:37Z</time>
      </trkpt>
      <trkpt lat="46.04533" lon="4.6979">
        <ele>199</ele>
        <time>2017-03-17T11:00:38Z</time>
      </trkpt>
      <trkpt lat="46.04527" lon="4.69789">
        <ele>199</ele>
        <time>2017-03-17T11:00:39Z</time>
      </trkpt>
      <trkpt lat="46.0452" lon="4.69788">
        <ele>199</ele>
        <time>2017-03-17T11:00:40Z</time>
      </trkpt>
      <trkpt lat="46.04514" lon="4.69787">
        <ele>199</ele>
        <time>2017-03-17T11:00:41Z</time>
      </trkpt>
      <trkpt lat="46.04508" lon="4.69787">
        <ele>199</ele>
        <time>2017-03-17T11:00:42Z</time>
      </trkpt>
      <trkpt lat="46.04501" lon="4.69787">
        <ele>199</ele>
        <time>2017-03-17T11:00:43Z</time>
      </trkpt>
      <trkpt lat="46.04494" lon="4.69788">
        <ele>197</ele>
        <time>2017-03-17T11:00:44Z</time>
      </trkpt>
      <trkpt lat="46.04487" lon="4.6979">
        <ele>197</ele>
        <time>2017-03-17T11:00:45Z</time>
      </trkpt>
      <trkpt lat="46.0448" lon="4.69792">
        <ele>197</ele>
        <time>2017-03-17T11:00:46Z</time>
      </trkpt>
      <trkpt lat="46.04473" lon="4.69793">
        <ele>197</ele>
        <time>2017-03-17T11:00:47Z</time>
      </trkpt>
      <trkpt lat="46.04466" lon="4.69795">
        <ele>197</ele>
        <time>2017-03-17T11:00:48Z</time>
      </trkpt>
      <trkpt lat="46.04459" lon="4.69797">
        <ele>197</ele>
        <time>2017-03-17T11:00:49Z</time>
      </trkpt>
      <trkpt lat="46.04452" lon="4.69799">
        <ele>196</ele>
        <time>2017-03-17T11:00:50Z</time>
      </trkpt>
      <trkpt lat="46.04445" lon="4.698">
        <ele>196</ele>
        <time>2017-03-17T11:00:51Z</time>
      </trkpt>
      <trkpt lat="46.04438" lon="4.69802">
        <ele>196</ele>
        <time>2017-03-17T11:00:52Z</time>
      </trkpt>
      <trkpt lat="46.04431" lon="4.69804">
        <ele>196</ele>
        <time>2017-03-17T11:00:53Z</time>
      </trkpt>
      <trkpt lat="46.04424" lon="4.69806">
        <ele>196</ele>
        <time>2017-03-17T11:00:54Z</time>
      </trkpt>
      <trkpt lat="46.04417" lon="4.69808">
        <ele>194</ele>
        <time>2017-03-17T11:00:55Z</time>
      </trkpt>
      <trkpt lat="46.0441" lon="4.6981">
        <ele>194</ele>
        <time>2017-03-17T11:00:56Z</time>
      </trkpt>
      <trkpt lat="46.04403" lon="4.69811">
        <ele>194</ele>
        <time>2017-03-17T11:00:57Z</time>
      </trkpt>
      <trkpt lat="46.04396" lon="4.69814">
        <ele>194</ele>
        <time>2017-03-17T11:00:58Z</time>
      </trkpt>
      <trkpt lat="46.04389" lon="4.69816">
        <ele>194</ele>
        <time>2017-03-17T11:00:59Z</time>
      </trkpt>
      <trkpt lat="46.04382" lon="4.69819">
        <ele>194</ele>
        <time>2017-03-17T11:01:00Z</time>
      </trkpt>
      <trkpt lat="46.04374" lon="4.69823">
        <ele>194</ele>
        <time>2017-03-17T11:01:01Z</time>
      </trkpt>
      <trkpt lat="46.04367" lon="4.69827">
        <ele>193</ele>
        <time>2017-03-17T11:01:02Z</time>
      </trkpt>
      <trkpt lat="46.0436" lon="4.69831">
        <ele>193</ele>
        <time>2017-03-17T11:01:03Z</time>
      </trkpt>
      <trkpt lat="46.04353" lon="4.69836">
        <ele>193</ele>
        <time>2017-03-17T11:01:04Z</time>
      </trkpt>
      <trkpt lat="46.04346" lon="4.6984">
        <ele>192</ele>
        <time>2017-03-17T11:01:05Z</time>
      </trkpt>
      <trkpt lat="46.0434" lon="4.69846">
        <ele>192</ele>
        <time>2017-03-17T11:01:06Z</time>
      </trkpt>
      <trkpt lat="46.04334" lon="4.69854">
        <ele>192</ele>
        <time>2017-03-17T11:01:07Z</time>
      </trkpt>
      <trkpt lat="46.04329" lon="4.69863">
        <ele>191</ele>
        <time>2017-03-17T11:01:08Z</time>
      </trkpt>
      <trkpt lat="46.04323" lon="4.69872">
        <ele>191</ele>
        <time>2017-03-17T11:01:09Z</time>
      </trkpt>
      <trkpt lat="46.04318" lon="4.69881">
        <ele>190</ele>
        <time>2017-03-17T11:01:10Z</time>
      </trkpt>
      <trkpt lat="46.04313" lon="4.69891">
        <ele>190</ele>
        <time>2017-03-17T11:01:11Z</time>
      </trkpt>
      <trkpt lat="46.04307" lon="4.699">
        <ele>190</ele>
        <time>2017-03-17T11:01:12Z</time>
      </trkpt>
      <trkpt lat="46.04301" lon="4.69908">
        <ele>190</ele>
        <time>2017-03-17T11:01:13Z</time>
      </trkpt>
      <trkpt lat="46.04295" lon="4.69915">
        <ele>190</ele>
        <time>2017-03-17T11:01:14Z</time>
      </trkpt>
      <trkpt lat="46.04289" lon="4.69922">
        <ele>189</ele>
        <time>2017-03-17T11:01:15Z</time>
      </trkpt>
      <trkpt lat="46.04282" lon="4.69928">
        <ele>189</ele>
        <time>2017-03-17T11:01:16Z</time>
      </trkpt>
      <trkpt lat="46.04276" lon="4.69935">
        <ele>189</ele>
        <time>2017-03-17T11:01:17Z</time>
      </trkpt>
      <trkpt lat="46.0427" lon="4.6994">
        <ele>189</ele>
        <time>2017-03-17T11:01:18Z</time>
      </trkpt>
      <trkpt lat="46.04264" lon="4.69946">
        <ele>188</ele>
        <time>2017-03-17T11:01:19Z</time>
      </trkpt>
      <trkpt lat="46.04258" lon="4.69952">
        <ele>188</ele>
        <time>2017-03-17T11:01:20Z</time>
      </trkpt>
      <trkpt lat="46.04253" lon="4.69958">
        <ele>188</ele>
        <time>2017-03-17T11:01:21Z</time>
      </trkpt>
      <trkpt lat="46.04248" lon="4.69964">
        <ele>188</ele>
        <time>2017-03-17T11:01:22Z</time>
      </trkpt>
      <trkpt lat="46.04242" lon="4.6997">
        <ele>188</ele>
        <time>2017-03-17T11:01:23Z</time>
      </trkpt>
      <trkpt lat="46.04237" lon="4.69975">
        <ele>188</ele>
        <time>2017-03-17T11:01:24Z</time>
      </trkpt>
      <trkpt lat="46.04231" lon="4.6998">
        <ele>188</ele>
        <time>2017-03-17T11:01:25Z</time>
      </trkpt>
      <trkpt lat="46.04225" lon="4.69985">
        <ele>188</ele>
        <time>2017-03-17T11:01:26Z</time>
      </trkpt>
      <trkpt lat="46.04219" lon="4.69991">
        <ele>188</ele>
        <time>2017-03-17T11:01:27Z</time>
      </trkpt>
      <trkpt lat="46.04212" lon="4.69997">
        <ele>188</ele>
        <time>2017-03-17T11:01:28Z</time>
      </trkpt>
      <trkpt lat="46.04206" lon="4.70003">
        <ele>188</ele>
        <time>2017-03-17T11:01:29Z</time>
      </trkpt>
      <trkpt lat="46.04199" lon="4.70009">
        <ele>188</ele>
        <time>2017-03-17T11:01:30Z</time>
      </trkpt>
      <trkpt lat="46.04192" lon="4.70015">
        <ele>188</ele>
        <time>2017-03-17T11:01:31Z</time>
      </trkpt>
      <trkpt lat="46.04185" lon="4.7002">
        <ele>189</ele>
        <time>2017-03-17T11:01:32Z</time>
      </trkpt>
      <trkpt lat="46.04178" lon="4.70024">
        <ele>189</ele>
        <time>2017-03-17T11:01:33Z</time>
      </trkpt>
      <trkpt lat="46.04171" lon="4.70029">
        <ele>189</ele>
        <time>2017-03-17T11:01:34Z</time>
      </trkpt>
      <trkpt lat="46.04164" lon="4.70033">
        <ele>191</ele>
        <time>2017-03-17T11:01:35Z</time>
      </trkpt>
      <trkpt lat="46.04157" lon="4.70037">
        <ele>191</ele>
        <time>2017-03-17T11:01:36Z</time>
      </trkpt>
      <trkpt lat="46.04151" lon="4.70041">
        <ele>191</ele>
        <time>2017-03-17T11:01:37Z</time>
      </trkpt>
      <trkpt lat="46.04145" lon="4.70044">
        <ele>191</ele>
        <time>2017-03-17T11:01:38Z</time>
      </trkpt>
      <trkpt lat="46.04141" lon="4.70047">
        <ele>192</ele>
        <time>2017-03-17T11:01:39Z</time>
      </trkpt>
      <trkpt lat="46.04136" lon="4.7005">
        <ele>192</ele>
        <time>2017-03-17T11:01:40Z</time>
      </trkpt>
      <trkpt lat="46.04132" lon="4.70053">
        <ele>192</ele>
        <time>2017-03-17T11:01:41Z</time>
      </trkpt>
      <trkpt lat="46.04127" lon="4.70056">
        <ele>192</ele>
        <time>2017-03-17T11:01:42Z</time>
      </trkpt>
      <trkpt lat="46.04122" lon="4.70058">
        <ele>192</ele>
        <time>2017-03-17T11:01:43Z</time>
      </trkpt>
      <trkpt lat="46.04118" lon="4.70061">
        <ele>192</ele>
        <time>2017-03-17T11:01:44Z</time>
      </trkpt>
      <trkpt lat="46.04113" lon="4.70064">
        <ele>192</ele>
        <time>2017-03-17T11:01:45Z</time>
      </trkpt>
      <trkpt lat="46.04108" lon="4.70066">
        <ele>193</ele>
        <time>2017-03-17T11:01:46Z</time>
      </trkpt>
      <trkpt lat="46.04103" lon="4.70068">
        <ele>193</ele>
        <time>2017-03-17T11:01:47Z</time>
      </trkpt>
      <trkpt lat="46.04097" lon="4.7007">
        <ele>193</ele>
        <time>2017-03-17T11:01:48Z</time>
      </trkpt>
      <trkpt lat="46.04091" lon="4.70072">
        <ele>193</ele>
        <time>2017-03-17T11:01:49Z</time>
      </trkpt>
      <trkpt lat="46.04086" lon="4.70074">
        <ele>193</ele>
        <time>2017-03-17T11:01:50Z</time>
      </trkpt>
      <trkpt lat="46.0408" lon="4.70075">
        <ele>194</ele>
        <time>2017-03-17T11:01:51Z</time>
      </trkpt>
      <trkpt lat="46.04075" lon="4.70077">
        <ele>194</ele>
        <time>2017-03-17T11:01:52Z</time>
      </trkpt>
      <trkpt lat="46.04069" lon="4.70077">
        <ele>194</ele>
        <time>2017-03-17T11:01:53Z</time>
      </trkpt>
      <trkpt lat="46.04063" lon="4.70078">
        <ele>194</ele>
        <time>2017-03-17T11:01:54Z</time>
      </trkpt>
      <trkpt lat="46.04057" lon="4.70078">
        <ele>194</ele>
        <time>2017-03-17T11:01:55Z</time>
      </trkpt>
      <trkpt lat="46.0405" lon="4.70078">
        <ele>194</ele>
        <time>2017-03-17T11:01:56Z</time>
      </trkpt>
      <trkpt lat="46.04044" lon="4.70078">
        <ele>194</ele>
        <time>2017-03-17T11:01:57Z</time>
      </trkpt>
      <trkpt lat="46.04038" lon="4.70079">
        <ele>195</ele>
        <time>2017-03-17T11:01:58Z</time>
      </trkpt>
      <trkpt lat="46.04034" lon="4.7008">
        <ele>195</ele>
        <time>2017-03-17T11:01:59Z</time>
      </trkpt>
      <trkpt lat="46.04029" lon="4.7008">
        <ele>195</ele>
        <time>2017-03-17T11:02:00Z</time>
      </trkpt>
      <trkpt lat="46.0402" lon="4.70081">
        <ele>195</ele>
        <time>2017-03-17T11:02:02Z</time>
      </trkpt>
      <trkpt lat="46.04015" lon="4.70082">
        <ele>195</ele>
        <time>2017-03-17T11:02:03Z</time>
      </trkpt>
      <trkpt lat="46.0401" lon="4.70083">
        <ele>195</ele>
        <time>2017-03-17T11:02:04Z</time>
      </trkpt>
      <trkpt lat="46.04005" lon="4.70083">
        <ele>196</ele>
        <time>2017-03-17T11:02:05Z</time>
      </trkpt>
      <trkpt lat="46.04" lon="4.70084">
        <ele>196</ele>
        <time>2017-03-17T11:02:06Z</time>
      </trkpt>
      <trkpt lat="46.03996" lon="4.70085">
        <ele>196</ele>
        <time>2017-03-17T11:02:07Z</time>
      </trkpt>
      <trkpt lat="46.03988" lon="4.70087">
        <ele>196</ele>
        <time>2017-03-17T11:02:09Z</time>
      </trkpt>
      <trkpt lat="46.03984" lon="4.70089">
        <ele>196</ele>
        <time>2017-03-17T11:02:10Z</time>
      </trkpt>
      <trkpt lat="46.03975" lon="4.7009">
        <ele>196</ele>
        <time>2017-03-17T11:02:12Z</time>
      </trkpt>
      <trkpt lat="46.0397" lon="4.7009">
        <ele>196</ele>
        <time>2017-03-17T11:02:13Z</time>
      </trkpt>
      <trkpt lat="46.03965" lon="4.70091">
        <ele>196</ele>
        <time>2017-03-17T11:02:14Z</time>
      </trkpt>
      <trkpt lat="46.0396" lon="4.70092">
        <ele>196</ele>
        <time>2017-03-17T11:02:15Z</time>
      </trkpt>
      <trkpt lat="46.03955" lon="4.70094">
        <ele>196</ele>
        <time>2017-03-17T11:02:16Z</time>
      </trkpt>
      <trkpt lat="46.03949" lon="4.70096">
        <ele>196</ele>
        <time>2017-03-17T11:02:17Z</time>
      </trkpt>
      <trkpt lat="46.03943" lon="4.70098">
        <ele>196</ele>
        <time>2017-03-17T11:02:18Z</time>
      </trkpt>
      <trkpt lat="46.03935" lon="4.701">
        <ele>195</ele>
        <time>2017-03-17T11:02:19Z</time>
      </trkpt>
      <trkpt lat="46.03928" lon="4.70103">
        <ele>195</ele>
        <time>2017-03-17T11:02:20Z</time>
      </trkpt>
      <trkpt lat="46.03922" lon="4.70105">
        <ele>195</ele>
        <time>2017-03-17T11:02:21Z</time>
      </trkpt>
      <trkpt lat="46.03915" lon="4.70107">
        <ele>194</ele>
        <time>2017-03-17T11:02:22Z</time>
      </trkpt>
      <trkpt lat="46.03909" lon="4.70108">
        <ele>194</ele>
        <time>2017-03-17T11:02:23Z</time>
      </trkpt>
      <trkpt lat="46.03903" lon="4.7011">
        <ele>194</ele>
        <time>2017-03-17T11:02:24Z</time>
      </trkpt>
      <trkpt lat="46.03898" lon="4.70112">
        <ele>194</ele>
        <time>2017-03-17T11:02:25Z</time>
      </trkpt>
      <trkpt lat="46.03892" lon="4.70114">
        <ele>193</ele>
        <time>2017-03-17T11:02:26Z</time>
      </trkpt>
      <trkpt lat="46.03886" lon="4.70117">
        <ele>193</ele>
        <time>2017-03-17T11:02:27Z</time>
      </trkpt>
      <trkpt lat="46.0388" lon="4.70119">
        <ele>193</ele>
        <time>2017-03-17T11:02:28Z</time>
      </trkpt>
      <trkpt lat="46.03875" lon="4.7012">
        <ele>193</ele>
        <time>2017-03-17T11:02:29Z</time>
      </trkpt>
      <trkpt lat="46.03868" lon="4.70122">
        <ele>193</ele>
        <time>2017-03-17T11:02:30Z</time>
      </trkpt>
      <trkpt lat="46.03861" lon="4.70124">
        <ele>193</ele>
        <time>2017-03-17T11:02:31Z</time>
      </trkpt>
      <trkpt lat="46.03854" lon="4.70126">
        <ele>192</ele>
        <time>2017-03-17T11:02:32Z</time>
      </trkpt>
      <trkpt lat="46.03848" lon="4.70128">
        <ele>192</ele>
        <time>2017-03-17T11:02:33Z</time>
      </trkpt>
      <trkpt lat="46.03843" lon="4.70131">
        <ele>192</ele>
        <time>2017-03-17T11:02:34Z</time>
      </trkpt>
      <trkpt lat="46.03837" lon="4.70133">
        <ele>192</ele>
        <time>2017-03-17T11:02:35Z</time>
      </trkpt>
      <trkpt lat="46.03831" lon="4.70135">
        <ele>190</ele>
        <time>2017-03-17T11:02:36Z</time>
      </trkpt>
      <trkpt lat="46.03826" lon="4.70137">
        <ele>190</ele>
        <time>2017-03-17T11:02:37Z</time>
      </trkpt>
      <trkpt lat="46.0382" lon="4.70139">
        <ele>190</ele>
        <time>2017-03-17T11:02:38Z</time>
      </trkpt>
      <trkpt lat="46.03814" lon="4.70141">
        <ele>190</ele>
        <time>2017-03-17T11:02:39Z</time>
      </trkpt>
      <trkpt lat="46.03807" lon="4.70143">
        <ele>190</ele>
        <time>2017-03-17T11:02:40Z</time>
      </trkpt>
      <trkpt lat="46.03801" lon="4.70146">
        <ele>189</ele>
        <time>2017-03-17T11:02:41Z</time>
      </trkpt>
      <trkpt lat="46.03795" lon="4.70148">
        <ele>189</ele>
        <time>2017-03-17T11:02:42Z</time>
      </trkpt>
      <trkpt lat="46.03789" lon="4.7015">
        <ele>189</ele>
        <time>2017-03-17T11:02:43Z</time>
      </trkpt>
      <trkpt lat="46.03784" lon="4.70153">
        <ele>189</ele>
        <time>2017-03-17T11:02:44Z</time>
      </trkpt>
      <trkpt lat="46.03779" lon="4.70155">
        <ele>189</ele>
        <time>2017-03-17T11:02:45Z</time>
      </trkpt>
      <trkpt lat="46.03774" lon="4.70157">
        <ele>188</ele>
        <time>2017-03-17T11:02:46Z</time>
      </trkpt>
      <trkpt lat="46.0377" lon="4.70159">
        <ele>188</ele>
        <time>2017-03-17T11:02:47Z</time>
      </trkpt>
      <trkpt lat="46.03765" lon="4.70161">
        <ele>188</ele>
        <time>2017-03-17T11:02:48Z</time>
      </trkpt>
      <trkpt lat="46.0376" lon="4.70163">
        <ele>188</ele>
        <time>2017-03-17T11:02:49Z</time>
      </trkpt>
      <trkpt lat="46.03756" lon="4.70165">
        <ele>187</ele>
        <time>2017-03-17T11:02:50Z</time>
      </trkpt>
      <trkpt lat="46.03751" lon="4.70167">
        <ele>187</ele>
        <time>2017-03-17T11:02:51Z</time>
      </trkpt>
      <trkpt lat="46.03746" lon="4.70168">
        <ele>187</ele>
        <time>2017-03-17T11:02:52Z</time>
      </trkpt>
      <trkpt lat="46.03741" lon="4.7017">
        <ele>187</ele>
        <time>2017-03-17T11:02:53Z</time>
      </trkpt>
      <trkpt lat="46.03736" lon="4.70171">
        <ele>188</ele>
        <time>2017-03-17T11:02:54Z</time>
      </trkpt>
      <trkpt lat="46.03731" lon="4.70173">
        <ele>188</ele>
        <time>2017-03-17T11:02:55Z</time>
      </trkpt>
      <trkpt lat="46.03725" lon="4.70175">
        <ele>188</ele>
        <time>2017-03-17T11:02:56Z</time>
      </trkpt>
      <trkpt lat="46.0372" lon="4.70177">
        <ele>188</ele>
        <time>2017-03-17T11:02:57Z</time>
      </trkpt>
      <trkpt lat="46.03715" lon="4.70179">
        <ele>188</ele>
        <time>2017-03-17T11:02:58Z</time>
      </trkpt>
      <trkpt lat="46.03709" lon="4.70181">
        <ele>189</ele>
        <time>2017-03-17T11:02:59Z</time>
      </trkpt>
      <trkpt lat="46.03704" lon="4.70183">
        <ele>189</ele>
        <time>2017-03-17T11:03:00Z</time>
      </trkpt>
      <trkpt lat="46.03699" lon="4.70185">
        <ele>189</ele>
        <time>2017-03-17T11:03:01Z</time>
      </trkpt>
      <trkpt lat="46.03695" lon="4.70187">
        <ele>189</ele>
        <time>2017-03-17T11:03:02Z</time>
      </trkpt>
      <trkpt lat="46.0369" lon="4.70189">
        <ele>189</ele>
        <time>2017-03-17T11:03:03Z</time>
      </trkpt>
      <trkpt lat="46.03682" lon="4.70193">
        <ele>189</ele>
        <time>2017-03-17T11:03:05Z</time>
      </trkpt>
      <trkpt lat="46.03678" lon="4.70195">
        <ele>189</ele>
        <time>2017-03-17T11:03:06Z</time>
      </trkpt>
      <trkpt lat="46.0367" lon="4.70199">
        <ele>189</ele>
        <time>2017-03-17T11:03:08Z</time>
      </trkpt>
      <trkpt lat="46.03667" lon="4.702">
        <ele>191</ele>
        <time>2017-03-17T11:03:09Z</time>
      </trkpt>
      <trkpt lat="46.0366" lon="4.70203">
        <ele>190</ele>
        <time>2017-03-17T11:03:11Z</time>
      </trkpt>
      <trkpt lat="46.03657" lon="4.70204">
        <ele>190</ele>
        <time>2017-03-17T11:03:12Z</time>
      </trkpt>
      <trkpt lat="46.03651" lon="4.70208">
        <ele>190</ele>
        <time>2017-03-17T11:03:14Z</time>
      </trkpt>
      <trkpt lat="46.03647" lon="4.70209">
        <ele>190</ele>
        <time>2017-03-17T11:03:15Z</time>
      </trkpt>
      <trkpt lat="46.0364" lon="4.70212">
        <ele>190</ele>
        <time>2017-03-17T11:03:17Z</time>
      </trkpt>
      <trkpt lat="46.03637" lon="4.70213">
        <ele>190</ele>
        <time>2017-03-17T11:03:18Z</time>
      </trkpt>
      <trkpt lat="46.03629" lon="4.70216">
        <ele>190</ele>
        <time>2017-03-17T11:03:20Z</time>
      </trkpt>
      <trkpt lat="46.03625" lon="4.70219">
        <ele>190</ele>
        <time>2017-03-17T11:03:21Z</time>
      </trkpt>
      <trkpt lat="46.0362" lon="4.70221">
        <ele>190</ele>
        <time>2017-03-17T11:03:22Z</time>
      </trkpt>
      <trkpt lat="46.03615" lon="4.70224">
        <ele>190</ele>
        <time>2017-03-17T11:03:23Z</time>
      </trkpt>
      <trkpt lat="46.03608" lon="4.70225">
        <ele>190</ele>
        <time>2017-03-17T11:03:24Z</time>
      </trkpt>
      <trkpt lat="46.03604" lon="4.70227">
        <ele>190</ele>
        <time>2017-03-17T11:03:25Z</time>
      </trkpt>
      <trkpt lat="46.03599" lon="4.70229">
        <ele>190</ele>
        <time>2017-03-17T11:03:26Z</time>
      </trkpt>
      <trkpt lat="46.03593" lon="4.70231">
        <ele>190</ele>
        <time>2017-03-17T11:03:27Z</time>
      </trkpt>
      <trkpt lat="46.03587" lon="4.70233">
        <ele>190</ele>
        <time>2017-03-17T11:03:28Z</time>
      </trkpt>
      <trkpt lat="46.03582" lon="4.70235">
        <ele>190</ele>
        <time>2017-03-17T11:03:29Z</time>
      </trkpt>
      <trkpt lat="46.03578" lon="4.70236">
        <ele>190</ele>
        <time>2017-03-17T11:03:30Z</time>
      </trkpt>
      <trkpt lat="46.03573" lon="4.70239">
        <ele>190</ele>
        <time>2017-03-17T11:03:31Z</time>
      </trkpt>
      <trkpt lat="46.03568" lon="4.70241">
        <ele>190</ele>
        <time>2017-03-17T11:03:32Z</time>
      </trkpt>
      <trkpt lat="46.03563" lon="4.70242">
        <ele>190</ele>
        <time>2017-03-17T11:03:33Z</time>
      </trkpt>
      <trkpt lat="46.03559" lon="4.70244">
        <ele>190</ele>
        <time>2017-03-17T11:03:34Z</time>
      </trkpt>
      <trkpt lat="46.03554" lon="4.70246">
        <ele>190</ele>
        <time>2017-03-17T11:03:35Z</time>
      </trkpt>
      <trkpt lat="46.0355" lon="4.70247">
        <ele>190</ele>
        <time>2017-03-17T11:03:36Z</time>
      </trkpt>
      <trkpt lat="46.03545" lon="4.7025">
        <ele>189</ele>
        <time>2017-03-17T11:03:37Z</time>
      </trkpt>
      <trkpt lat="46.0354" lon="4.70252">
        <ele>188</ele>
        <time>2017-03-17T11:03:38Z</time>
      </trkpt>
      <trkpt lat="46.03536" lon="4.70254">
        <ele>188</ele>
        <time>2017-03-17T11:03:39Z</time>
      </trkpt>
      <trkpt lat="46.03531" lon="4.70256">
        <ele>187</ele>
        <time>2017-03-17T11:03:40Z</time>
      </trkpt>
      <trkpt lat="46.03526" lon="4.70259">
        <ele>187</ele>
        <time>2017-03-17T11:03:41Z</time>
      </trkpt>
      <trkpt lat="46.0352" lon="4.70261">
        <ele>187</ele>
        <time>2017-03-17T11:03:42Z</time>
      </trkpt>
      <trkpt lat="46.03514" lon="4.70264">
        <ele>187</ele>
        <time>2017-03-17T11:03:43Z</time>
      </trkpt>
      <trkpt lat="46.03507" lon="4.70266">
        <ele>187</ele>
        <time>2017-03-17T11:03:44Z</time>
      </trkpt>
      <trkpt lat="46.03502" lon="4.70268">
        <ele>187</ele>
        <time>2017-03-17T11:03:45Z</time>
      </trkpt>
      <trkpt lat="46.03496" lon="4.7027">
        <ele>187</ele>
        <time>2017-03-17T11:03:46Z</time>
      </trkpt>
      <trkpt lat="46.03491" lon="4.70272">
        <ele>188</ele>
        <time>2017-03-17T11:03:47Z</time>
      </trkpt>
      <trkpt lat="46.03486" lon="4.70274">
        <ele>188</ele>
        <time>2017-03-17T11:03:48Z</time>
      </trkpt>
      <trkpt lat="46.03481" lon="4.70275">
        <ele>188</ele>
        <time>2017-03-17T11:03:49Z</time>
      </trkpt>
      <trkpt lat="46.03472" lon="4.70278">
        <ele>188</ele>
        <time>2017-03-17T11:03:51Z</time>
      </trkpt>
      <trkpt lat="46.03466" lon="4.70279">
        <ele>188</ele>
        <time>2017-03-17T11:03:52Z</time>
      </trkpt>
      <trkpt lat="46.0346" lon="4.70281">
        <ele>188</ele>
        <time>2017-03-17T11:03:53Z</time>
      </trkpt>
      <trkpt lat="46.03455" lon="4.70284">
        <ele>188</ele>
        <time>2017-03-17T11:03:54Z</time>
      </trkpt>
      <trkpt lat="46.03451" lon="4.70286">
        <ele>188</ele>
        <time>2017-03-17T11:03:55Z</time>
      </trkpt>
      <trkpt lat="46.03445" lon="4.70287">
        <ele>188</ele>
        <time>2017-03-17T11:03:56Z</time>
      </trkpt>
      <trkpt lat="46.0344" lon="4.70288">
        <ele>188</ele>
        <time>2017-03-17T11:03:57Z</time>
      </trkpt>
      <trkpt lat="46.03435" lon="4.70289">
        <ele>188</ele>
        <time>2017-03-17T11:03:58Z</time>
      </trkpt>
      <trkpt lat="46.03429" lon="4.70291">
        <ele>188</ele>
        <time>2017-03-17T11:03:59Z</time>
      </trkpt>
      <trkpt lat="46.03423" lon="4.70293">
        <ele>188</ele>
        <time>2017-03-17T11:04:00Z</time>
      </trkpt>
      <trkpt lat="46.03417" lon="4.70295">
        <ele>188</ele>
        <time>2017-03-17T11:04:01Z</time>
      </trkpt>
      <trkpt lat="46.03412" lon="4.70297">
        <ele>190</ele>
        <time>2017-03-17T11:04:02Z</time>
      </trkpt>
      <trkpt lat="46.03406" lon="4.70299">
        <ele>190</ele>
        <time>2017-03-17T11:04:03Z</time>
      </trkpt>
      <trkpt lat="46.03401" lon="4.70301">
        <ele>190</ele>
        <time>2017-03-17T11:04:04Z</time>
      </trkpt>
      <trkpt lat="46.03396" lon="4.70303">
        <ele>191</ele>
        <time>2017-03-17T11:04:05Z</time>
      </trkpt>
      <trkpt lat="46.03391" lon="4.70305">
        <ele>191</ele>
        <time>2017-03-17T11:04:06Z</time>
      </trkpt>
      <trkpt lat="46.03386" lon="4.70308">
        <ele>191</ele>
        <time>2017-03-17T11:04:07Z</time>
      </trkpt>
      <trkpt lat="46.03381" lon="4.7031">
        <ele>191</ele>
        <time>2017-03-17T11:04:08Z</time>
      </trkpt>
      <trkpt lat="46.03376" lon="4.70312">
        <ele>191</ele>
        <time>2017-03-17T11:04:09Z</time>
      </trkpt>
      <trkpt lat="46.03371" lon="4.70314">
        <ele>191</ele>
        <time>2017-03-17T11:04:10Z</time>
      </trkpt>
      <trkpt lat="46.03367" lon="4.70315">
        <ele>191</ele>
        <time>2017-03-17T11:04:11Z</time>
      </trkpt>
      <trkpt lat="46.03362" lon="4.70317">
        <ele>191</ele>
        <time>2017-03-17T11:04:12Z</time>
      </trkpt>
      <trkpt lat="46.03354" lon="4.7032">
        <ele>191</ele>
        <time>2017-03-17T11:04:14Z</time>
      </trkpt>
      <trkpt lat="46.0335" lon="4.70321">
        <ele>191</ele>
        <time>2017-03-17T11:04:15Z</time>
      </trkpt>
      <trkpt lat="46.03342" lon="4.70324">
        <ele>191</ele>
        <time>2017-03-17T11:04:17Z</time>
      </trkpt>
      <trkpt lat="46.03337" lon="4.70325">
        <ele>191</ele>
        <time>2017-03-17T11:04:18Z</time>
      </trkpt>
      <trkpt lat="46.03329" lon="4.70328">
        <ele>191</ele>
        <time>2017-03-17T11:04:20Z</time>
      </trkpt>
      <trkpt lat="46.03325" lon="4.7033">
        <ele>192</ele>
        <time>2017-03-17T11:04:21Z</time>
      </trkpt>
      <trkpt lat="46.0332" lon="4.70331">
        <ele>192</ele>
        <time>2017-03-17T11:04:22Z</time>
      </trkpt>
      <trkpt lat="46.03316" lon="4.70333">
        <ele>192</ele>
        <time>2017-03-17T11:04:23Z</time>
      </trkpt>
      <trkpt lat="46.03307" lon="4.70336">
        <ele>191</ele>
        <time>2017-03-17T11:04:25Z</time>
      </trkpt>
      <trkpt lat="46.03304" lon="4.70338">
        <ele>191</ele>
        <time>2017-03-17T11:04:26Z</time>
      </trkpt>
      <trkpt lat="46.03296" lon="4.70342">
        <ele>191</ele>
        <time>2017-03-17T11:04:28Z</time>
      </trkpt>
      <trkpt lat="46.03292" lon="4.70344">
        <ele>191</ele>
        <time>2017-03-17T11:04:29Z</time>
      </trkpt>
      <trkpt lat="46.03283" lon="4.70347">
        <ele>191</ele>
        <time>2017-03-17T11:04:31Z</time>
      </trkpt>
      <trkpt lat="46.03279" lon="4.70349">
        <ele>191</ele>
        <time>2017-03-17T11:04:32Z</time>
      </trkpt>
      <trkpt lat="46.03271" lon="4.70352">
        <ele>191</ele>
        <time>2017-03-17T11:04:34Z</time>
      </trkpt>
      <trkpt lat="46.03267" lon="4.70353">
        <ele>191</ele>
        <time>2017-03-17T11:04:35Z</time>
      </trkpt>
      <trkpt lat="46.03262" lon="4.70355">
        <ele>191</ele>
        <time>2017-03-17T11:04:36Z</time>
      </trkpt>
      <trkpt lat="46.03258" lon="4.70357">
        <ele>191</ele>
        <time>2017-03-17T11:04:37Z</time>
      </trkpt>
      <trkpt lat="46.03253" lon="4.70359">
        <ele>191</ele>
        <time>2017-03-17T11:04:38Z</time>
      </trkpt>
      <trkpt lat="46.03249" lon="4.70361">
        <ele>192</ele>
        <time>2017-03-17T11:04:39Z</time>
      </trkpt>
      <trkpt lat="46.03244" lon="4.70363">
        <ele>192</ele>
        <time>2017-03-17T11:04:40Z</time>
      </trkpt>
      <trkpt lat="46.03239" lon="4.70365">
        <ele>192</ele>
        <time>2017-03-17T11:04:41Z</time>
      </trkpt>
      <trkpt lat="46.03231" lon="4.70369">
        <ele>192</ele>
        <time>2017-03-17T11:04:43Z</time>
      </trkpt>
      <trkpt lat="46.03227" lon="4.70371">
        <ele>192</ele>
        <time>2017-03-17T11:04:44Z</time>
      </trkpt>
      <trkpt lat="46.0322" lon="4.70375">
        <ele>192</ele>
        <time>2017-03-17T11:04:46Z</time>
      </trkpt>
      <trkpt lat="46.03216" lon="4.70376">
        <ele>192</ele>
        <time>2017-03-17T11:04:47Z</time>
      </trkpt>
      <trkpt lat="46.0321" lon="4.7038">
        <ele>192</ele>
        <time>2017-03-17T11:04:49Z</time>
      </trkpt>
      <trkpt lat="46.03206" lon="4.70381">
        <ele>192</ele>
        <time>2017-03-17T11:04:50Z</time>
      </trkpt>
      <trkpt lat="46.03198" lon="4.70385">
        <ele>192</ele>
        <time>2017-03-17T11:04:52Z</time>
      </trkpt>
      <trkpt lat="46.03194" lon="4.70386">
        <ele>192</ele>
        <time>2017-03-17T11:04:53Z</time>
      </trkpt>
      <trkpt lat="46.03189" lon="4.70389">
        <ele>192</ele>
        <time>2017-03-17T11:04:54Z</time>
      </trkpt>
      <trkpt lat="46.03185" lon="4.70392">
        <ele>192</ele>
        <time>2017-03-17T11:04:55Z</time>
      </trkpt>
      <trkpt lat="46.03177" lon="4.70396">
        <ele>192</ele>
        <time>2017-03-17T11:04:57Z</time>
      </trkpt>
      <trkpt lat="46.03173" lon="4.70399">
        <ele>192</ele>
        <time>2017-03-17T11:04:58Z</time>
      </trkpt>
      <trkpt lat="46.03165" lon="4.70402">
        <ele>192</ele>
        <time>2017-03-17T11:05:00Z</time>
      </trkpt>
      <trkpt lat="46.03161" lon="4.70405">
        <ele>192</ele>
        <time>2017-03-17T11:05:01Z</time>
      </trkpt>
      <trkpt lat="46.03153" lon="4.70408">
        <ele>192</ele>
        <time>2017-03-17T11:05:03Z</time>
      </trkpt>
      <trkpt lat="46.0315" lon="4.7041">
        <ele>192</ele>
        <time>2017-03-17T11:05:04Z</time>
      </trkpt>
      <trkpt lat="46.03142" lon="4.70414">
        <ele>192</ele>
        <time>2017-03-17T11:05:06Z</time>
      </trkpt>
      <trkpt lat="46.03137" lon="4.70416">
        <ele>192</ele>
        <time>2017-03-17T11:05:07Z</time>
      </trkpt>
      <trkpt lat="46.03133" lon="4.70418">
        <ele>192</ele>
        <time>2017-03-17T11:05:08Z</time>
      </trkpt>
      <trkpt lat="46.03129" lon="4.70421">
        <ele>192</ele>
        <time>2017-03-17T11:05:09Z</time>
      </trkpt>
      <trkpt lat="46.03124" lon="4.70423">
        <ele>192</ele>
        <time>2017-03-17T11:05:10Z</time>
      </trkpt>
      <trkpt lat="46.0312" lon="4.70425">
        <ele>192</ele>
        <time>2017-03-17T11:05:11Z</time>
      </trkpt>
      <trkpt lat="46.03115" lon="4.70428">
        <ele>192</ele>
        <time>2017-03-17T11:05:12Z</time>
      </trkpt>
      <trkpt lat="46.0311" lon="4.7043">
        <ele>192</ele>
        <time>2017-03-17T11:05:13Z</time>
      </trkpt>
      <trkpt lat="46.03106" lon="4.70432">
        <ele>192</ele>
        <time>2017-03-17T11:05:14Z</time>
      </trkpt>
      <trkpt lat="46.03101" lon="4.70434">
        <ele>192</ele>
        <time>2017-03-17T11:05:15Z</time>
      </trkpt>
      <trkpt lat="46.03096" lon="4.70437">
        <ele>192</ele>
        <time>2017-03-17T11:05:16Z</time>
      </trkpt>
      <trkpt lat="46.03091" lon="4.70439">
        <ele>192</ele>
        <time>2017-03-17T11:05:17Z</time>
      </trkpt>
      <trkpt lat="46.03086" lon="4.70441">
        <ele>192</ele>
        <time>2017-03-17T11:05:18Z</time>
      </trkpt>
      <trkpt lat="46.03082" lon="4.70443">
        <ele>191</ele>
        <time>2017-03-17T11:05:19Z</time>
      </trkpt>
      <trkpt lat="46.03077" lon="4.70445">
        <ele>191</ele>
        <time>2017-03-17T11:05:20Z</time>
      </trkpt>
      <trkpt lat="46.03072" lon="4.70447">
        <ele>191</ele>
        <time>2017-03-17T11:05:21Z</time>
      </trkpt>
      <trkpt lat="46.03068" lon="4.7045">
        <ele>191</ele>
        <time>2017-03-17T11:05:22Z</time>
      </trkpt>
      <trkpt lat="46.03064" lon="4.70452">
        <ele>191</ele>
        <time>2017-03-17T11:05:23Z</time>
      </trkpt>
      <trkpt lat="46.03059" lon="4.70456">
        <ele>191</ele>
        <time>2017-03-17T11:05:24Z</time>
      </trkpt>
      <trkpt lat="46.03056" lon="4.70459">
        <ele>191</ele>
        <time>2017-03-17T11:05:25Z</time>
      </trkpt>
      <trkpt lat="46.03049" lon="4.70467">
        <ele>191</ele>
        <time>2017-03-17T11:05:27Z</time>
      </trkpt>
      <trkpt lat="46.03044" lon="4.70471">
        <ele>191</ele>
        <time>2017-03-17T11:05:28Z</time>
      </trkpt>
      <trkpt lat="46.0304" lon="4.70475">
        <ele>191</ele>
        <time>2017-03-17T11:05:29Z</time>
      </trkpt>
      <trkpt lat="46.03035" lon="4.70479">
        <ele>191</ele>
        <time>2017-03-17T11:05:30Z</time>
      </trkpt>
      <trkpt lat="46.0303" lon="4.70484">
        <ele>191</ele>
        <time>2017-03-17T11:05:31Z</time>
      </trkpt>
      <trkpt lat="46.03026" lon="4.70488">
        <ele>191</ele>
        <time>2017-03-17T11:05:32Z</time>
      </trkpt>
      <trkpt lat="46.03021" lon="4.70492">
        <ele>191</ele>
        <time>2017-03-17T11:05:33Z</time>
      </trkpt>
      <trkpt lat="46.03017" lon="4.70497">
        <ele>191</ele>
        <time>2017-03-17T11:05:34Z</time>
      </trkpt>
      <trkpt lat="46.03012" lon="4.70501">
        <ele>191</ele>
        <time>2017-03-17T11:05:35Z</time>
      </trkpt>
      <trkpt lat="46.03007" lon="4.70505">
        <ele>191</ele>
        <time>2017-03-17T11:05:36Z</time>
      </trkpt>
      <trkpt lat="46.03003" lon="4.70509">
        <ele>191</ele>
        <time>2017-03-17T11:05:37Z</time>
      </trkpt>
      <trkpt lat="46.02999" lon="4.70513">
        <ele>191</ele>
        <time>2017-03-17T11:05:38Z</time>
      </trkpt>
      <trkpt lat="46.02994" lon="4.70517">
        <ele>191</ele>
        <time>2017-03-17T11:05:39Z</time>
      </trkpt>
      <trkpt lat="46.0299" lon="4.70521">
        <ele>191</ele>
        <time>2017-03-17T11:05:40Z</time>
      </trkpt>
      <trkpt lat="46.02986" lon="4.70526">
        <ele>191</ele>
        <time>2017-03-17T11:05:41Z</time>
      </trkpt>
      <trkpt lat="46.02981" lon="4.7053">
        <ele>191</ele>
        <time>2017-03-17T11:05:42Z</time>
      </trkpt>
      <trkpt lat="46.02977" lon="4.70534">
        <ele>191</ele>
        <time>2017-03-17T11:05:43Z</time>
      </trkpt>
      <trkpt lat="46.02973" lon="4.70537">
        <ele>191</ele>
        <time>2017-03-17T11:05:44Z</time>
      </trkpt>
      <trkpt lat="46.02969" lon="4.70541">
        <ele>191</ele>
        <time>2017-03-17T11:05:45Z</time>
      </trkpt>
      <trkpt lat="46.02965" lon="4.70545">
        <ele>191</ele>
        <time>2017-03-17T11:05:46Z</time>
      </trkpt>
      <trkpt lat="46.02961" lon="4.70549">
        <ele>191</ele>
        <time>2017-03-17T11:05:47Z</time>
      </trkpt>
      <trkpt lat="46.02958" lon="4.70554">
        <ele>191</ele>
        <time>2017-03-17T11:05:48Z</time>
      </trkpt>
      <trkpt lat="46.02954" lon="4.70559">
        <ele>191</ele>
        <time>2017-03-17T11:05:49Z</time>
      </trkpt>
      <trkpt lat="46.0295" lon="4.70565">
        <ele>191</ele>
        <time>2017-03-17T11:05:50Z</time>
      </trkpt>
      <trkpt lat="46.02947" lon="4.70571">
        <ele>191</ele>
        <time>2017-03-17T11:05:51Z</time>
      </trkpt>
      <trkpt lat="46.02944" lon="4.70577">
        <ele>191</ele>
        <time>2017-03-17T11:05:52Z</time>
      </trkpt>
      <trkpt lat="46.02941" lon="4.70584">
        <ele>192</ele>
        <time>2017-03-17T11:05:53Z</time>
      </trkpt>
      <trkpt lat="46.02939" lon="4.70591">
        <ele>192</ele>
        <time>2017-03-17T11:05:54Z</time>
      </trkpt>
      <trkpt lat="46.02936" lon="4.70598">
        <ele>192</ele>
        <time>2017-03-17T11:05:55Z</time>
      </trkpt>
      <trkpt lat="46.02934" lon="4.70606">
        <ele>192</ele>
        <time>2017-03-17T11:05:56Z</time>
      </trkpt>
      <trkpt lat="46.02931" lon="4.70614">
        <ele>192</ele>
        <time>2017-03-17T11:05:57Z</time>
      </trkpt>
      <trkpt lat="46.02929" lon="4.70621">
        <ele>192</ele>
        <time>2017-03-17T11:05:58Z</time>
      </trkpt>
      <trkpt lat="46.02927" lon="4.70629">
        <ele>192</ele>
        <time>2017-03-17T11:05:59Z</time>
      </trkpt>
      <trkpt lat="46.02925" lon="4.70636">
        <ele>192</ele>
        <time>2017-03-17T11:06:00Z</time>
      </trkpt>
      <trkpt lat="46.02923" lon="4.70644">
        <ele>192</ele>
        <time>2017-03-17T11:06:01Z</time>
      </trkpt>
      <trkpt lat="46.0292" lon="4.70651">
        <ele>191</ele>
        <time>2017-03-17T11:06:02Z</time>
      </trkpt>
      <trkpt lat="46.02917" lon="4.70657">
        <ele>191</ele>
        <time>2017-03-17T11:06:03Z</time>
      </trkpt>
      <trkpt lat="46.02912" lon="4.7066">
        <ele>191</ele>
        <time>2017-03-17T11:06:04Z</time>
      </trkpt>
      <trkpt lat="46.02906" lon="4.70661">
        <ele>191</ele>
        <time>2017-03-17T11:06:05Z</time>
      </trkpt>
      <trkpt lat="46.02901" lon="4.70661">
        <ele>191</ele>
        <time>2017-03-17T11:06:06Z</time>
      </trkpt>
      <trkpt lat="46.02895" lon="4.70661">
        <ele>190</ele>
        <time>2017-03-17T11:06:07Z</time>
      </trkpt>
      <trkpt lat="46.0289" lon="4.70661">
        <ele>190</ele>
        <time>2017-03-17T11:06:08Z</time>
      </trkpt>
      <trkpt lat="46.02885" lon="4.70661">
        <ele>190</ele>
        <time>2017-03-17T11:06:09Z</time>
      </trkpt>
      <trkpt lat="46.0288" lon="4.70661">
        <ele>190</ele>
        <time>2017-03-17T11:06:10Z</time>
      </trkpt>
      <trkpt lat="46.02875" lon="4.7066">
        <ele>190</ele>
        <time>2017-03-17T11:06:11Z</time>
      </trkpt>
      <trkpt lat="46.0287" lon="4.7066">
        <ele>190</ele>
        <time>2017-03-17T11:06:12Z</time>
      </trkpt>
      <trkpt lat="46.02865" lon="4.70661">
        <ele>190</ele>
        <time>2017-03-17T11:06:13Z</time>
      </trkpt>
      <trkpt lat="46.0286" lon="4.70661">
        <ele>190</ele>
        <time>2017-03-17T11:06:14Z</time>
      </trkpt>
      <trkpt lat="46.02854" lon="4.70662">
        <ele>190</ele>
        <time>2017-03-17T11:06:15Z</time>
      </trkpt>
      <trkpt lat="46.02848" lon="4.70663">
        <ele>190</ele>
        <time>2017-03-17T11:06:16Z</time>
      </trkpt>
      <trkpt lat="46.02842" lon="4.70664">
        <ele>189</ele>
        <time>2017-03-17T11:06:17Z</time>
      </trkpt>
      <trkpt lat="46.02836" lon="4.70665">
        <ele>189</ele>
        <time>2017-03-17T11:06:18Z</time>
      </trkpt>
      <trkpt lat="46.0283" lon="4.70666">
        <ele>189</ele>
        <time>2017-03-17T11:06:19Z</time>
      </trkpt>
      <trkpt lat="46.02824" lon="4.70667">
        <ele>189</ele>
        <time>2017-03-17T11:06:20Z</time>
      </trkpt>
      <trkpt lat="46.02819" lon="4.70668">
        <ele>189</ele>
        <time>2017-03-17T11:06:21Z</time>
      </trkpt>
      <trkpt lat="46.02813" lon="4.70669">
        <ele>189</ele>
        <time>2017-03-17T11:06:22Z</time>
      </trkpt>
      <trkpt lat="46.02807" lon="4.70669">
        <ele>189</ele>
        <time>2017-03-17T11:06:23Z</time>
      </trkpt>
      <trkpt lat="46.02802" lon="4.7067">
        <ele>189</ele>
        <time>2017-03-17T11:06:24Z</time>
      </trkpt>
      <trkpt lat="46.02797" lon="4.70671">
        <ele>189</ele>
        <time>2017-03-17T11:06:25Z</time>
      </trkpt>
      <trkpt lat="46.02791" lon="4.70671">
        <ele>189</ele>
        <time>2017-03-17T11:06:26Z</time>
      </trkpt>
      <trkpt lat="46.02786" lon="4.70672">
        <ele>189</ele>
        <time>2017-03-17T11:06:27Z</time>
      </trkpt>
      <trkpt lat="46.02781" lon="4.70671">
        <ele>189</ele>
        <time>2017-03-17T11:06:28Z</time>
      </trkpt>
      <trkpt lat="46.02776" lon="4.70671">
        <ele>189</ele>
        <time>2017-03-17T11:06:29Z</time>
      </trkpt>
      <trkpt lat="46.02771" lon="4.70671">
        <ele>189</ele>
        <time>2017-03-17T11:06:30Z</time>
      </trkpt>
      <trkpt lat="46.02765" lon="4.7067">
        <ele>189</ele>
        <time>2017-03-17T11:06:31Z</time>
      </trkpt>
      <trkpt lat="46.02759" lon="4.70669">
        <ele>189</ele>
        <time>2017-03-17T11:06:32Z</time>
      </trkpt>
      <trkpt lat="46.02754" lon="4.70668">
        <ele>189</ele>
        <time>2017-03-17T11:06:33Z</time>
      </trkpt>
      <trkpt lat="46.02748" lon="4.70667">
        <ele>189</ele>
        <time>2017-03-17T11:06:34Z</time>
      </trkpt>
      <trkpt lat="46.02742" lon="4.70666">
        <ele>189</ele>
        <time>2017-03-17T11:06:35Z</time>
      </trkpt>
      <trkpt lat="46.02737" lon="4.70666">
        <ele>189</ele>
        <time>2017-03-17T11:06:36Z</time>
      </trkpt>
      <trkpt lat="46.02731" lon="4.70665">
        <ele>189</ele>
        <time>2017-03-17T11:06:37Z</time>
      </trkpt>
      <trkpt lat="46.02725" lon="4.70664">
        <ele>189</ele>
        <time>2017-03-17T11:06:38Z</time>
      </trkpt>
      <trkpt lat="46.0272" lon="4.70663">
        <ele>189</ele>
        <time>2017-03-17T11:06:39Z</time>
      </trkpt>
      <trkpt lat="46.02715" lon="4.70662">
        <ele>189</ele>
        <time>2017-03-17T11:06:40Z</time>
      </trkpt>
      <trkpt lat="46.0271" lon="4.70661">
        <ele>189</ele>
        <time>2017-03-17T11:06:41Z</time>
      </trkpt>
      <trkpt lat="46.02705" lon="4.70661">
        <ele>189</ele>
        <time>2017-03-17T11:06:42Z</time>
      </trkpt>
      <trkpt lat="46.027" lon="4.7066">
        <ele>189</ele>
        <time>2017-03-17T11:06:43Z</time>
      </trkpt>
      <trkpt lat="46.02695" lon="4.70659">
        <ele>189</ele>
        <time>2017-03-17T11:06:44Z</time>
      </trkpt>
      <trkpt lat="46.0269" lon="4.70659">
        <ele>190</ele>
        <time>2017-03-17T11:06:45Z</time>
      </trkpt>
      <trkpt lat="46.02685" lon="4.70658">
        <ele>190</ele>
        <time>2017-03-17T11:06:46Z</time>
      </trkpt>
      <trkpt lat="46.0268" lon="4.70657">
        <ele>190</ele>
        <time>2017-03-17T11:06:47Z</time>
      </trkpt>
      <trkpt lat="46.02675" lon="4.70657">
        <ele>190</ele>
        <time>2017-03-17T11:06:48Z</time>
      </trkpt>
      <trkpt lat="46.0267" lon="4.70656">
        <ele>190</ele>
        <time>2017-03-17T11:06:49Z</time>
      </trkpt>
      <trkpt lat="46.02665" lon="4.70656">
        <ele>190</ele>
        <time>2017-03-17T11:06:50Z</time>
      </trkpt>
      <trkpt lat="46.02659" lon="4.70655">
        <ele>190</ele>
        <time>2017-03-17T11:06:51Z</time>
      </trkpt>
      <trkpt lat="46.02653" lon="4.70654">
        <ele>190</ele>
        <time>2017-03-17T11:06:52Z</time>
      </trkpt>
      <trkpt lat="46.02647" lon="4.70653">
        <ele>190</ele>
        <time>2017-03-17T11:06:53Z</time>
      </trkpt>
      <trkpt lat="46.02642" lon="4.70653">
        <ele>190</ele>
        <time>2017-03-17T11:06:54Z</time>
      </trkpt>
      <trkpt lat="46.02636" lon="4.70652">
        <ele>190</ele>
        <time>2017-03-17T11:06:55Z</time>
      </trkpt>
      <trkpt lat="46.02631" lon="4.70651">
        <ele>190</ele>
        <time>2017-03-17T11:06:56Z</time>
      </trkpt>
      <trkpt lat="46.02626" lon="4.70651">
        <ele>190</ele>
        <time>2017-03-17T11:06:57Z</time>
      </trkpt>
      <trkpt lat="46.02621" lon="4.70649">
        <ele>190</ele>
        <time>2017-03-17T11:06:58Z</time>
      </trkpt>
      <trkpt lat="46.02616" lon="4.70648">
        <ele>190</ele>
        <time>2017-03-17T11:06:59Z</time>
      </trkpt>
      <trkpt lat="46.02611" lon="4.70646">
        <ele>190</ele>
        <time>2017-03-17T11:07:00Z</time>
      </trkpt>
      <trkpt lat="46.02606" lon="4.70645">
        <ele>190</ele>
        <time>2017-03-17T11:07:01Z</time>
      </trkpt>
      <trkpt lat="46.02601" lon="4.70644">
        <ele>190</ele>
        <time>2017-03-17T11:07:02Z</time>
      </trkpt>
      <trkpt lat="46.02596" lon="4.70642">
        <ele>190</ele>
        <time>2017-03-17T11:07:03Z</time>
      </trkpt>
      <trkpt lat="46.02591" lon="4.70641">
        <ele>190</ele>
        <time>2017-03-17T11:07:04Z</time>
      </trkpt>
      <trkpt lat="46.02585" lon="4.7064">
        <ele>190</ele>
        <time>2017-03-17T11:07:05Z</time>
      </trkpt>
      <trkpt lat="46.0258" lon="4.70639">
        <ele>189</ele>
        <time>2017-03-17T11:07:06Z</time>
      </trkpt>
      <trkpt lat="46.02574" lon="4.70638">
        <ele>189</ele>
        <time>2017-03-17T11:07:07Z</time>
      </trkpt>
      <trkpt lat="46.02568" lon="4.70636">
        <ele>189</ele>
        <time>2017-03-17T11:07:08Z</time>
      </trkpt>
      <trkpt lat="46.02562" lon="4.70635">
        <ele>189</ele>
        <time>2017-03-17T11:07:09Z</time>
      </trkpt>
      <trkpt lat="46.02556" lon="4.70634">
        <ele>189</ele>
        <time>2017-03-17T11:07:10Z</time>
      </trkpt>
      <trkpt lat="46.02551" lon="4.70632">
        <ele>189</ele>
        <time>2017-03-17T11:07:11Z</time>
      </trkpt>
      <trkpt lat="46.02546" lon="4.7063">
        <ele>189</ele>
        <time>2017-03-17T11:07:12Z</time>
      </trkpt>
      <trkpt lat="46.0254" lon="4.70629">
        <ele>189</ele>
        <time>2017-03-17T11:07:13Z</time>
      </trkpt>
      <trkpt lat="46.02535" lon="4.70627">
        <ele>189</ele>
        <time>2017-03-17T11:07:14Z</time>
      </trkpt>
      <trkpt lat="46.02529" lon="4.70626">
        <ele>189</ele>
        <time>2017-03-17T11:07:15Z</time>
      </trkpt>
      <trkpt lat="46.02524" lon="4.70624">
        <ele>189</ele>
        <time>2017-03-17T11:07:16Z</time>
      </trkpt>
      <trkpt lat="46.02519" lon="4.70623">
        <ele>189</ele>
        <time>2017-03-17T11:07:17Z</time>
      </trkpt>
      <trkpt lat="46.02513" lon="4.70621">
        <ele>189</ele>
        <time>2017-03-17T11:07:18Z</time>
      </trkpt>
      <trkpt lat="46.02508" lon="4.7062">
        <ele>189</ele>
        <time>2017-03-17T11:07:19Z</time>
      </trkpt>
      <trkpt lat="46.02503" lon="4.70618">
        <ele>189</ele>
        <time>2017-03-17T11:07:20Z</time>
      </trkpt>
      <trkpt lat="46.02495" lon="4.70616">
        <ele>188</ele>
        <time>2017-03-17T11:07:22Z</time>
      </trkpt>
      <trkpt lat="46.0249" lon="4.70615">
        <ele>188</ele>
        <time>2017-03-17T11:07:23Z</time>
      </trkpt>
      <trkpt lat="46.02483" lon="4.70615">
        <ele>188</ele>
        <time>2017-03-17T11:07:25Z</time>
      </trkpt>
      <trkpt lat="46.0248" lon="4.70617">
        <ele>188</ele>
        <time>2017-03-17T11:07:26Z</time>
      </trkpt>
      <trkpt lat="46.02475" lon="4.70627">
        <ele>188</ele>
        <time>2017-03-17T11:07:28Z</time>
      </trkpt>
      <trkpt lat="46.02473" lon="4.70632">
        <ele>188</ele>
        <time>2017-03-17T11:07:29Z</time>
      </trkpt>
      <trkpt lat="46.02471" lon="4.70638">
        <ele>188</ele>
        <time>2017-03-17T11:07:30Z</time>
      </trkpt>
      <trkpt lat="46.0247" lon="4.70645">
        <ele>188</ele>
        <time>2017-03-17T11:07:31Z</time>
      </trkpt>
      <trkpt lat="46.02468" lon="4.70652">
        <ele>189</ele>
        <time>2017-03-17T11:07:32Z</time>
      </trkpt>
      <trkpt lat="46.02466" lon="4.70659">
        <ele>189</ele>
        <time>2017-03-17T11:07:33Z</time>
      </trkpt>
      <trkpt lat="46.02465" lon="4.70666">
        <ele>189</ele>
        <time>2017-03-17T11:07:34Z</time>
      </trkpt>
      <trkpt lat="46.02463" lon="4.70674">
        <ele>190</ele>
        <time>2017-03-17T11:07:35Z</time>
      </trkpt>
      <trkpt lat="46.02461" lon="4.70681">
        <ele>190</ele>
        <time>2017-03-17T11:07:36Z</time>
      </trkpt>
      <trkpt lat="46.0246" lon="4.70689">
        <ele>190</ele>
        <time>2017-03-17T11:07:37Z</time>
      </trkpt>
      <trkpt lat="46.02459" lon="4.70696">
        <ele>190</ele>
        <time>2017-03-17T11:07:38Z</time>
      </trkpt>
      <trkpt lat="46.02457" lon="4.70704">
        <ele>190</ele>
        <time>2017-03-17T11:07:39Z</time>
      </trkpt>
      <trkpt lat="46.02455" lon="4.70712">
        <ele>190</ele>
        <time>2017-03-17T11:07:40Z</time>
      </trkpt>
      <trkpt lat="46.02452" lon="4.7072">
        <ele>190</ele>
        <time>2017-03-17T11:07:41Z</time>
      </trkpt>
      <trkpt lat="46.0245" lon="4.70727">
        <ele>190</ele>
        <time>2017-03-17T11:07:42Z</time>
      </trkpt>
      <trkpt lat="46.02447" lon="4.70734">
        <ele>190</ele>
        <time>2017-03-17T11:07:43Z</time>
      </trkpt>
      <trkpt lat="46.02444" lon="4.70741">
        <ele>190</ele>
        <time>2017-03-17T11:07:44Z</time>
      </trkpt>
      <trkpt lat="46.0244" lon="4.70747">
        <ele>189</ele>
        <time>2017-03-17T11:07:45Z</time>
      </trkpt>
      <trkpt lat="46.02435" lon="4.70752">
        <ele>189</ele>
        <time>2017-03-17T11:07:46Z</time>
      </trkpt>
      <trkpt lat="46.02431" lon="4.70757">
        <ele>189</ele>
        <time>2017-03-17T11:07:47Z</time>
      </trkpt>
      <trkpt lat="46.02426" lon="4.70761">
        <ele>189</ele>
        <time>2017-03-17T11:07:48Z</time>
      </trkpt>
      <trkpt lat="46.02421" lon="4.70765">
        <ele>189</ele>
        <time>2017-03-17T11:07:49Z</time>
      </trkpt>
      <trkpt lat="46.02416" lon="4.7077">
        <ele>186</ele>
        <time>2017-03-17T11:07:50Z</time>
      </trkpt>
      <trkpt lat="46.02411" lon="4.70773">
        <ele>185</ele>
        <time>2017-03-17T11:07:51Z</time>
      </trkpt>
      <trkpt lat="46.02405" lon="4.70775">
        <ele>185</ele>
        <time>2017-03-17T11:07:52Z</time>
      </trkpt>
      <trkpt lat="46.02399" lon="4.70777">
        <ele>185</ele>
        <time>2017-03-17T11:07:53Z</time>
      </trkpt>
      <trkpt lat="46.02392" lon="4.70777">
        <ele>185</ele>
        <time>2017-03-17T11:07:54Z</time>
      </trkpt>
      <trkpt lat="46.02386" lon="4.70776">
        <ele>184</ele>
        <time>2017-03-17T11:07:55Z</time>
      </trkpt>
      <trkpt lat="46.02379" lon="4.70776">
        <ele>184</ele>
        <time>2017-03-17T11:07:56Z</time>
      </trkpt>
      <trkpt lat="46.02372" lon="4.70775">
        <ele>184</ele>
        <time>2017-03-17T11:07:57Z</time>
      </trkpt>
      <trkpt lat="46.02365" lon="4.70774">
        <ele>183</ele>
        <time>2017-03-17T11:07:58Z</time>
      </trkpt>
      <trkpt lat="46.02358" lon="4.70772">
        <ele>183</ele>
        <time>2017-03-17T11:07:59Z</time>
      </trkpt>
      <trkpt lat="46.02352" lon="4.7077">
        <ele>183</ele>
        <time>2017-03-17T11:08:00Z</time>
      </trkpt>
      <trkpt lat="46.02345" lon="4.70769">
        <ele>182</ele>
        <time>2017-03-17T11:08:01Z</time>
      </trkpt>
      <trkpt lat="46.02338" lon="4.70768">
        <ele>182</ele>
        <time>2017-03-17T11:08:02Z</time>
      </trkpt>
      <trkpt lat="46.02331" lon="4.70766">
        <ele>180</ele>
        <time>2017-03-17T11:08:03Z</time>
      </trkpt>
      <trkpt lat="46.02324" lon="4.70765">
        <ele>180</ele>
        <time>2017-03-17T11:08:04Z</time>
      </trkpt>
      <trkpt lat="46.02317" lon="4.70764">
        <ele>180</ele>
        <time>2017-03-17T11:08:05Z</time>
      </trkpt>
      <trkpt lat="46.0231" lon="4.70763">
        <ele>180</ele>
        <time>2017-03-17T11:08:06Z</time>
      </trkpt>
      <trkpt lat="46.02303" lon="4.70761">
        <ele>180</ele>
        <time>2017-03-17T11:08:07Z</time>
      </trkpt>
      <trkpt lat="46.02296" lon="4.7076">
        <ele>180</ele>
        <time>2017-03-17T11:08:08Z</time>
      </trkpt>
      <trkpt lat="46.02289" lon="4.70759">
        <ele>181</ele>
        <time>2017-03-17T11:08:09Z</time>
      </trkpt>
      <trkpt lat="46.02282" lon="4.70758">
        <ele>181</ele>
        <time>2017-03-17T11:08:10Z</time>
      </trkpt>
      <trkpt lat="46.02275" lon="4.70757">
        <ele>181</ele>
        <time>2017-03-17T11:08:11Z</time>
      </trkpt>
      <trkpt lat="46.02268" lon="4.70756">
        <ele>181</ele>
        <time>2017-03-17T11:08:12Z</time>
      </trkpt>
      <trkpt lat="46.02261" lon="4.70754">
        <ele>181</ele>
        <time>2017-03-17T11:08:13Z</time>
      </trkpt>
      <trkpt lat="46.02254" lon="4.70753">
        <ele>181</ele>
        <time>2017-03-17T11:08:14Z</time>
      </trkpt>
      <trkpt lat="46.02247" lon="4.70752">
        <ele>181</ele>
        <time>2017-03-17T11:08:15Z</time>
      </trkpt>
      <trkpt lat="46.02241" lon="4.70751">
        <ele>180</ele>
        <time>2017-03-17T11:08:16Z</time>
      </trkpt>
      <trkpt lat="46.02234" lon="4.70749">
        <ele>181</ele>
        <time>2017-03-17T11:08:17Z</time>
      </trkpt>
      <trkpt lat="46.02228" lon="4.70748">
        <ele>181</ele>
        <time>2017-03-17T11:08:18Z</time>
      </trkpt>
      <trkpt lat="46.02222" lon="4.70747">
        <ele>181</ele>
        <time>2017-03-17T11:08:19Z</time>
      </trkpt>
      <trkpt lat="46.02215" lon="4.70745">
        <ele>180</ele>
        <time>2017-03-17T11:08:20Z</time>
      </trkpt>
      <trkpt lat="46.02209" lon="4.70744">
        <ele>180</ele>
        <time>2017-03-17T11:08:21Z</time>
      </trkpt>
      <trkpt lat="46.02203" lon="4.70743">
        <ele>180</ele>
        <time>2017-03-17T11:08:22Z</time>
      </trkpt>
      <trkpt lat="46.02197" lon="4.70742">
        <ele>180</ele>
        <time>2017-03-17T11:08:23Z</time>
      </trkpt>
      <trkpt lat="46.02191" lon="4.7074">
        <ele>180</ele>
        <time>2017-03-17T11:08:24Z</time>
      </trkpt>
      <trkpt lat="46.02185" lon="4.70739">
        <ele>180</ele>
        <time>2017-03-17T11:08:25Z</time>
      </trkpt>
      <trkpt lat="46.02179" lon="4.70738">
        <ele>180</ele>
        <time>2017-03-17T11:08:26Z</time>
      </trkpt>
      <trkpt lat="46.02174" lon="4.70737">
        <ele>180</ele>
        <time>2017-03-17T11:08:27Z</time>
      </trkpt>
      <trkpt lat="46.02169" lon="4.70735">
        <ele>180</ele>
        <time>2017-03-17T11:08:28Z</time>
      </trkpt>
      <trkpt lat="46.02164" lon="4.70734">
        <ele>179</ele>
        <time>2017-03-17T11:08:29Z</time>
      </trkpt>
      <trkpt lat="46.02159" lon="4.70733">
        <ele>179</ele>
        <time>2017-03-17T11:08:30Z</time>
      </trkpt>
      <trkpt lat="46.02154" lon="4.70733">
        <ele>179</ele>
        <time>2017-03-17T11:08:31Z</time>
      </trkpt>
      <trkpt lat="46.02149" lon="4.70731">
        <ele>179</ele>
        <time>2017-03-17T11:08:32Z</time>
      </trkpt>
      <trkpt lat="46.02144" lon="4.7073">
        <ele>179</ele>
        <time>2017-03-17T11:08:33Z</time>
      </trkpt>
      <trkpt lat="46.02138" lon="4.70729">
        <ele>179</ele>
        <time>2017-03-17T11:08:34Z</time>
      </trkpt>
      <trkpt lat="46.02133" lon="4.70728">
        <ele>179</ele>
        <time>2017-03-17T11:08:35Z</time>
      </trkpt>
      <trkpt lat="46.02127" lon="4.70727">
        <ele>179</ele>
        <time>2017-03-17T11:08:36Z</time>
      </trkpt>
      <trkpt lat="46.02121" lon="4.70727">
        <ele>179</ele>
        <time>2017-03-17T11:08:37Z</time>
      </trkpt>
      <trkpt lat="46.02115" lon="4.70726">
        <ele>179</ele>
        <time>2017-03-17T11:08:38Z</time>
      </trkpt>
      <trkpt lat="46.0211" lon="4.70725">
        <ele>179</ele>
        <time>2017-03-17T11:08:39Z</time>
      </trkpt>
      <trkpt lat="46.02105" lon="4.70723">
        <ele>179</ele>
        <time>2017-03-17T11:08:40Z</time>
      </trkpt>
      <trkpt lat="46.021" lon="4.70722">
        <ele>179</ele>
        <time>2017-03-17T11:08:41Z</time>
      </trkpt>
      <trkpt lat="46.02095" lon="4.70721">
        <ele>179</ele>
        <time>2017-03-17T11:08:42Z</time>
      </trkpt>
      <trkpt lat="46.0209" lon="4.7072">
        <ele>179</ele>
        <time>2017-03-17T11:08:43Z</time>
      </trkpt>
      <trkpt lat="46.02085" lon="4.70719">
        <ele>179</ele>
        <time>2017-03-17T11:08:44Z</time>
      </trkpt>
      <trkpt lat="46.0208" lon="4.70718">
        <ele>179</ele>
        <time>2017-03-17T11:08:45Z</time>
      </trkpt>
      <trkpt lat="46.02075" lon="4.70717">
        <ele>179</ele>
        <time>2017-03-17T11:08:46Z</time>
      </trkpt>
      <trkpt lat="46.0207" lon="4.70716">
        <ele>179</ele>
        <time>2017-03-17T11:08:47Z</time>
      </trkpt>
      <trkpt lat="46.02066" lon="4.70714">
        <ele>179</ele>
        <time>2017-03-17T11:08:48Z</time>
      </trkpt>
      <trkpt lat="46.02061" lon="4.70713">
        <ele>179</ele>
        <time>2017-03-17T11:08:49Z</time>
      </trkpt>
      <trkpt lat="46.02056" lon="4.70713">
        <ele>179</ele>
        <time>2017-03-17T11:08:50Z</time>
      </trkpt>
      <trkpt lat="46.02051" lon="4.70712">
        <ele>179</ele>
        <time>2017-03-17T11:08:51Z</time>
      </trkpt>
      <trkpt lat="46.02046" lon="4.70711">
        <ele>179</ele>
        <time>2017-03-17T11:08:52Z</time>
      </trkpt>
      <trkpt lat="46.02042" lon="4.7071">
        <ele>179</ele>
        <time>2017-03-17T11:08:53Z</time>
      </trkpt>
      <trkpt lat="46.02037" lon="4.70709">
        <ele>179</ele>
        <time>2017-03-17T11:08:54Z</time>
      </trkpt>
      <trkpt lat="46.02032" lon="4.70708">
        <ele>179</ele>
        <time>2017-03-17T11:08:55Z</time>
      </trkpt>
      <trkpt lat="46.02027" lon="4.70707">
        <ele>179</ele>
        <time>2017-03-17T11:08:56Z</time>
      </trkpt>
      <trkpt lat="46.02022" lon="4.70706">
        <ele>179</ele>
        <time>2017-03-17T11:08:57Z</time>
      </trkpt>
      <trkpt lat="46.02017" lon="4.70706">
        <ele>179</ele>
        <time>2017-03-17T11:08:58Z</time>
      </trkpt>
      <trkpt lat="46.02012" lon="4.70705">
        <ele>179</ele>
        <time>2017-03-17T11:08:59Z</time>
      </trkpt>
      <trkpt lat="46.02007" lon="4.70704">
        <ele>179</ele>
        <time>2017-03-17T11:09:00Z</time>
      </trkpt>
      <trkpt lat="46.02002" lon="4.70703">
        <ele>179</ele>
        <time>2017-03-17T11:09:01Z</time>
      </trkpt>
      <trkpt lat="46.01997" lon="4.70702">
        <ele>181</ele>
        <time>2017-03-17T11:09:02Z</time>
      </trkpt>
      <trkpt lat="46.01993" lon="4.70701">
        <ele>181</ele>
        <time>2017-03-17T11:09:03Z</time>
      </trkpt>
      <trkpt lat="46.01984" lon="4.707">
        <ele>181</ele>
        <time>2017-03-17T11:09:05Z</time>
      </trkpt>
      <trkpt lat="46.01979" lon="4.70699">
        <ele>181</ele>
        <time>2017-03-17T11:09:06Z</time>
      </trkpt>
      <trkpt lat="46.01975" lon="4.70698">
        <ele>181</ele>
        <time>2017-03-17T11:09:07Z</time>
      </trkpt>
      <trkpt lat="46.0197" lon="4.70698">
        <ele>181</ele>
        <time>2017-03-17T11:09:08Z</time>
      </trkpt>
      <trkpt lat="46.01966" lon="4.70697">
        <ele>181</ele>
        <time>2017-03-17T11:09:09Z</time>
      </trkpt>
      <trkpt lat="46.01961" lon="4.70696">
        <ele>181</ele>
        <time>2017-03-17T11:09:10Z</time>
      </trkpt>
      <trkpt lat="46.01956" lon="4.70695">
        <ele>181</ele>
        <time>2017-03-17T11:09:11Z</time>
      </trkpt>
      <trkpt lat="46.01951" lon="4.70694">
        <ele>181</ele>
        <time>2017-03-17T11:09:12Z</time>
      </trkpt>
      <trkpt lat="46.01947" lon="4.70693">
        <ele>182</ele>
        <time>2017-03-17T11:09:13Z</time>
      </trkpt>
      <trkpt lat="46.01942" lon="4.70692">
        <ele>182</ele>
        <time>2017-03-17T11:09:14Z</time>
      </trkpt>
      <trkpt lat="46.01933" lon="4.7069">
        <ele>182</ele>
        <time>2017-03-17T11:09:16Z</time>
      </trkpt>
      <trkpt lat="46.01929" lon="4.70689">
        <ele>182</ele>
        <time>2017-03-17T11:09:17Z</time>
      </trkpt>
      <trkpt lat="46.01924" lon="4.70688">
        <ele>182</ele>
        <time>2017-03-17T11:09:18Z</time>
      </trkpt>
      <trkpt lat="46.0192" lon="4.70688">
        <ele>182</ele>
        <time>2017-03-17T11:09:19Z</time>
      </trkpt>
      <trkpt lat="46.01915" lon="4.70687">
        <ele>184</ele>
        <time>2017-03-17T11:09:20Z</time>
      </trkpt>
      <trkpt lat="46.0191" lon="4.70687">
        <ele>184</ele>
        <time>2017-03-17T11:09:21Z</time>
      </trkpt>
      <trkpt lat="46.01906" lon="4.70686">
        <ele>184</ele>
        <time>2017-03-17T11:09:22Z</time>
      </trkpt>
      <trkpt lat="46.01901" lon="4.70686">
        <ele>184</ele>
        <time>2017-03-17T11:09:23Z</time>
      </trkpt>
      <trkpt lat="46.01896" lon="4.70686">
        <ele>184</ele>
        <time>2017-03-17T11:09:24Z</time>
      </trkpt>
      <trkpt lat="46.01891" lon="4.70685">
        <ele>184</ele>
        <time>2017-03-17T11:09:25Z</time>
      </trkpt>
      <trkpt lat="46.01886" lon="4.70685">
        <ele>185</ele>
        <time>2017-03-17T11:09:26Z</time>
      </trkpt>
      <trkpt lat="46.01882" lon="4.70685">
        <ele>185</ele>
        <time>2017-03-17T11:09:27Z</time>
      </trkpt>
      <trkpt lat="46.01873" lon="4.70685">
        <ele>185</ele>
        <time>2017-03-17T11:09:29Z</time>
      </trkpt>
      <trkpt lat="46.01868" lon="4.70686">
        <ele>185</ele>
        <time>2017-03-17T11:09:30Z</time>
      </trkpt>
      <trkpt lat="46.01859" lon="4.70686">
        <ele>185</ele>
        <time>2017-03-17T11:09:32Z</time>
      </trkpt>
      <trkpt lat="46.01855" lon="4.70687">
        <ele>185</ele>
        <time>2017-03-17T11:09:33Z</time>
      </trkpt>
      <trkpt lat="46.01851" lon="4.70687">
        <ele>185</ele>
        <time>2017-03-17T11:09:34Z</time>
      </trkpt>
      <trkpt lat="46.01846" lon="4.70687">
        <ele>185</ele>
        <time>2017-03-17T11:09:35Z</time>
      </trkpt>
      <trkpt lat="46.01841" lon="4.70688">
        <ele>186</ele>
        <time>2017-03-17T11:09:36Z</time>
      </trkpt>
      <trkpt lat="46.01837" lon="4.70689">
        <ele>186</ele>
        <time>2017-03-17T11:09:37Z</time>
      </trkpt>
      <trkpt lat="46.01828" lon="4.7069">
        <ele>187</ele>
        <time>2017-03-17T11:09:39Z</time>
      </trkpt>
      <trkpt lat="46.01824" lon="4.7069">
        <ele>187</ele>
        <time>2017-03-17T11:09:40Z</time>
      </trkpt>
      <trkpt lat="46.01815" lon="4.70691">
        <ele>187</ele>
        <time>2017-03-17T11:09:42Z</time>
      </trkpt>
      <trkpt lat="46.01811" lon="4.70692">
        <ele>187</ele>
        <time>2017-03-17T11:09:43Z</time>
      </trkpt>
      <trkpt lat="46.01802" lon="4.70693">
        <ele>187</ele>
        <time>2017-03-17T11:09:45Z</time>
      </trkpt>
      <trkpt lat="46.01798" lon="4.70693">
        <ele>187</ele>
        <time>2017-03-17T11:09:46Z</time>
      </trkpt>
      <trkpt lat="46.01789" lon="4.70694">
        <ele>187</ele>
        <time>2017-03-17T11:09:48Z</time>
      </trkpt>
      <trkpt lat="46.01784" lon="4.70695">
        <ele>187</ele>
        <time>2017-03-17T11:09:49Z</time>
      </trkpt>
      <trkpt lat="46.01776" lon="4.70695">
        <ele>187</ele>
        <time>2017-03-17T11:09:51Z</time>
      </trkpt>
      <trkpt lat="46.01771" lon="4.70696">
        <ele>187</ele>
        <time>2017-03-17T11:09:52Z</time>
      </trkpt>
      <trkpt lat="46.01762" lon="4.70697">
        <ele>187</ele>
        <time>2017-03-17T11:09:54Z</time>
      </trkpt>
      <trkpt lat="46.01758" lon="4.70697">
        <ele>187</ele>
        <time>2017-03-17T11:09:55Z</time>
      </trkpt>
      <trkpt lat="46.01749" lon="4.70698">
        <ele>188</ele>
        <time>2017-03-17T11:09:57Z</time>
      </trkpt>
      <trkpt lat="46.01745" lon="4.70698">
        <ele>188</ele>
        <time>2017-03-17T11:09:58Z</time>
      </trkpt>
      <trkpt lat="46.01736" lon="4.70699">
        <ele>188</ele>
        <time>2017-03-17T11:10:00Z</time>
      </trkpt>
      <trkpt lat="46.01732" lon="4.707">
        <ele>188</ele>
        <time>2017-03-17T11:10:01Z</time>
      </trkpt>
      <trkpt lat="46.01724" lon="4.70701">
        <ele>188</ele>
        <time>2017-03-17T11:10:03Z</time>
      </trkpt>
      <trkpt lat="46.0172" lon="4.70701">
        <ele>188</ele>
        <time>2017-03-17T11:10:04Z</time>
      </trkpt>
      <trkpt lat="46.01711" lon="4.70701">
        <ele>188</ele>
        <time>2017-03-17T11:10:06Z</time>
      </trkpt>
      <trkpt lat="46.01707" lon="4.70702">
        <ele>189</ele>
        <time>2017-03-17T11:10:07Z</time>
      </trkpt>
      <trkpt lat="46.01699" lon="4.70703">
        <ele>189</ele>
        <time>2017-03-17T11:10:09Z</time>
      </trkpt>
      <trkpt lat="46.01695" lon="4.70703">
        <ele>189</ele>
        <time>2017-03-17T11:10:10Z</time>
      </trkpt>
      <trkpt lat="46.0169" lon="4.70704">
        <ele>189</ele>
        <time>2017-03-17T11:10:11Z</time>
      </trkpt>
      <trkpt lat="46.01686" lon="4.70704">
        <ele>189</ele>
        <time>2017-03-17T11:10:12Z</time>
      </trkpt>
      <trkpt lat="46.01677" lon="4.70705">
        <ele>189</ele>
        <time>2017-03-17T11:10:14Z</time>
      </trkpt>
      <trkpt lat="46.01672" lon="4.70706">
        <ele>189</ele>
        <time>2017-03-17T11:10:15Z</time>
      </trkpt>
      <trkpt lat="46.01668" lon="4.70706">
        <ele>189</ele>
        <time>2017-03-17T11:10:16Z</time>
      </trkpt>
      <trkpt lat="46.01663" lon="4.70706">
        <ele>189</ele>
        <time>2017-03-17T11:10:17Z</time>
      </trkpt>
      <trkpt lat="46.01654" lon="4.70707">
        <ele>189</ele>
        <time>2017-03-17T11:10:19Z</time>
      </trkpt>
      <trkpt lat="46.0165" lon="4.70708">
        <ele>189</ele>
        <time>2017-03-17T11:10:20Z</time>
      </trkpt>
      <trkpt lat="46.01641" lon="4.70709">
        <ele>190</ele>
        <time>2017-03-17T11:10:22Z</time>
      </trkpt>
      <trkpt lat="46.01637" lon="4.70709">
        <ele>190</ele>
        <time>2017-03-17T11:10:23Z</time>
      </trkpt>
      <trkpt lat="46.01629" lon="4.7071">
        <ele>190</ele>
        <time>2017-03-17T11:10:25Z</time>
      </trkpt>
      <trkpt lat="46.01625" lon="4.70711">
        <ele>190</ele>
        <time>2017-03-17T11:10:26Z</time>
      </trkpt>
      <trkpt lat="46.01616" lon="4.70712">
        <ele>190</ele>
        <time>2017-03-17T11:10:28Z</time>
      </trkpt>
      <trkpt lat="46.01612" lon="4.70713">
        <ele>190</ele>
        <time>2017-03-17T11:10:29Z</time>
      </trkpt>
      <trkpt lat="46.01603" lon="4.70714">
        <ele>190</ele>
        <time>2017-03-17T11:10:31Z</time>
      </trkpt>
      <trkpt lat="46.01599" lon="4.70714">
        <ele>190</ele>
        <time>2017-03-17T11:10:32Z</time>
      </trkpt>
      <trkpt lat="46.01591" lon="4.70715">
        <ele>190</ele>
        <time>2017-03-17T11:10:34Z</time>
      </trkpt>
      <trkpt lat="46.01586" lon="4.70715">
        <ele>190</ele>
        <time>2017-03-17T11:10:35Z</time>
      </trkpt>
      <trkpt lat="46.01577" lon="4.70716">
        <ele>190</ele>
        <time>2017-03-17T11:10:37Z</time>
      </trkpt>
      <trkpt lat="46.01573" lon="4.70717">
        <ele>190</ele>
        <time>2017-03-17T11:10:38Z</time>
      </trkpt>
      <trkpt lat="46.01564" lon="4.70717">
        <ele>190</ele>
        <time>2017-03-17T11:10:40Z</time>
      </trkpt>
      <trkpt lat="46.01559" lon="4.70718">
        <ele>190</ele>
        <time>2017-03-17T11:10:41Z</time>
      </trkpt>
      <trkpt lat="46.01555" lon="4.70719">
        <ele>190</ele>
        <time>2017-03-17T11:10:42Z</time>
      </trkpt>
      <trkpt lat="46.0155" lon="4.7072">
        <ele>190</ele>
        <time>2017-03-17T11:10:43Z</time>
      </trkpt>
      <trkpt lat="46.01541" lon="4.70721">
        <ele>190</ele>
        <time>2017-03-17T11:10:45Z</time>
      </trkpt>
      <trkpt lat="46.01537" lon="4.70721">
        <ele>190</ele>
        <time>2017-03-17T11:10:46Z</time>
      </trkpt>
      <trkpt lat="46.01529" lon="4.70722">
        <ele>190</ele>
        <time>2017-03-17T11:10:48Z</time>
      </trkpt>
      <trkpt lat="46.01524" lon="4.70722">
        <ele>190</ele>
        <time>2017-03-17T11:10:49Z</time>
      </trkpt>
      <trkpt lat="46.01516" lon="4.70723">
        <ele>190</ele>
        <time>2017-03-17T11:10:51Z</time>
      </trkpt>
      <trkpt lat="46.01512" lon="4.70723">
        <ele>190</ele>
        <time>2017-03-17T11:10:52Z</time>
      </trkpt>
      <trkpt lat="46.01507" lon="4.70724">
        <ele>190</ele>
        <time>2017-03-17T11:10:53Z</time>
      </trkpt>
      <trkpt lat="46.01503" lon="4.70724">
        <ele>190</ele>
        <time>2017-03-17T11:10:54Z</time>
      </trkpt>
      <trkpt lat="46.01494" lon="4.70725">
        <ele>190</ele>
        <time>2017-03-17T11:10:56Z</time>
      </trkpt>
      <trkpt lat="46.01489" lon="4.70726">
        <ele>190</ele>
        <time>2017-03-17T11:10:57Z</time>
      </trkpt>
      <trkpt lat="46.0148" lon="4.70726">
        <ele>190</ele>
        <time>2017-03-17T11:10:59Z</time>
      </trkpt>
      <trkpt lat="46.01476" lon="4.70726">
        <ele>190</ele>
        <time>2017-03-17T11:11:00Z</time>
      </trkpt>
      <trkpt lat="46.01467" lon="4.70727">
        <ele>189</ele>
        <time>2017-03-17T11:11:02Z</time>
      </trkpt>
      <trkpt lat="46.01462" lon="4.70727">
        <ele>189</ele>
        <time>2017-03-17T11:11:03Z</time>
      </trkpt>
      <trkpt lat="46.01453" lon="4.70728">
        <ele>189</ele>
        <time>2017-03-17T11:11:05Z</time>
      </trkpt>
      <trkpt lat="46.01449" lon="4.70729">
        <ele>189</ele>
        <time>2017-03-17T11:11:06Z</time>
      </trkpt>
      <trkpt lat="46.01444" lon="4.70729">
        <ele>189</ele>
        <time>2017-03-17T11:11:07Z</time>
      </trkpt>
      <trkpt lat="46.0144" lon="4.7073">
        <ele>189</ele>
        <time>2017-03-17T11:11:08Z</time>
      </trkpt>
      <trkpt lat="46.01435" lon="4.7073">
        <ele>189</ele>
        <time>2017-03-17T11:11:09Z</time>
      </trkpt>
      <trkpt lat="46.0143" lon="4.70731">
        <ele>189</ele>
        <time>2017-03-17T11:11:10Z</time>
      </trkpt>
      <trkpt lat="46.01425" lon="4.70731">
        <ele>189</ele>
        <time>2017-03-17T11:11:11Z</time>
      </trkpt>
      <trkpt lat="46.01421" lon="4.70732">
        <ele>189</ele>
        <time>2017-03-17T11:11:12Z</time>
      </trkpt>
      <trkpt lat="46.01416" lon="4.70733">
        <ele>189</ele>
        <time>2017-03-17T11:11:13Z</time>
      </trkpt>
      <trkpt lat="46.01411" lon="4.70733">
        <ele>189</ele>
        <time>2017-03-17T11:11:14Z</time>
      </trkpt>
      <trkpt lat="46.01407" lon="4.70734">
        <ele>189</ele>
        <time>2017-03-17T11:11:15Z</time>
      </trkpt>
      <trkpt lat="46.01402" lon="4.70734">
        <ele>189</ele>
        <time>2017-03-17T11:11:16Z</time>
      </trkpt>
      <trkpt lat="46.01397" lon="4.70735">
        <ele>189</ele>
        <time>2017-03-17T11:11:17Z</time>
      </trkpt>
      <trkpt lat="46.01392" lon="4.70735">
        <ele>189</ele>
        <time>2017-03-17T11:11:18Z</time>
      </trkpt>
      <trkpt lat="46.01388" lon="4.70735">
        <ele>189</ele>
        <time>2017-03-17T11:11:19Z</time>
      </trkpt>
      <trkpt lat="46.01383" lon="4.70736">
        <ele>189</ele>
        <time>2017-03-17T11:11:20Z</time>
      </trkpt>
      <trkpt lat="46.01378" lon="4.70736">
        <ele>189</ele>
        <time>2017-03-17T11:11:21Z</time>
      </trkpt>
      <trkpt lat="46.01374" lon="4.70736">
        <ele>189</ele>
        <time>2017-03-17T11:11:22Z</time>
      </trkpt>
      <trkpt lat="46.01369" lon="4.70737">
        <ele>189</ele>
        <time>2017-03-17T11:11:23Z</time>
      </trkpt>
      <trkpt lat="46.01365" lon="4.70737">
        <ele>189</ele>
        <time>2017-03-17T11:11:24Z</time>
      </trkpt>
      <trkpt lat="46.01356" lon="4.70737">
        <ele>189</ele>
        <time>2017-03-17T11:11:26Z</time>
      </trkpt>
      <trkpt lat="46.01352" lon="4.70737">
        <ele>189</ele>
        <time>2017-03-17T11:11:27Z</time>
      </trkpt>
      <trkpt lat="46.01347" lon="4.70737">
        <ele>189</ele>
        <time>2017-03-17T11:11:28Z</time>
      </trkpt>
      <trkpt lat="46.01343" lon="4.70736">
        <ele>189</ele>
        <time>2017-03-17T11:11:29Z</time>
      </trkpt>
      <trkpt lat="46.01338" lon="4.70736">
        <ele>189</ele>
        <time>2017-03-17T11:11:30Z</time>
      </trkpt>
      <trkpt lat="46.01333" lon="4.70736">
        <ele>190</ele>
        <time>2017-03-17T11:11:31Z</time>
      </trkpt>
      <trkpt lat="46.01328" lon="4.70735">
        <ele>190</ele>
        <time>2017-03-17T11:11:32Z</time>
      </trkpt>
      <trkpt lat="46.01324" lon="4.70735">
        <ele>190</ele>
        <time>2017-03-17T11:11:33Z</time>
      </trkpt>
      <trkpt lat="46.01315" lon="4.70734">
        <ele>190</ele>
        <time>2017-03-17T11:11:35Z</time>
      </trkpt>
      <trkpt lat="46.01311" lon="4.70733">
        <ele>191</ele>
        <time>2017-03-17T11:11:36Z</time>
      </trkpt>
      <trkpt lat="46.01302" lon="4.70732">
        <ele>191</ele>
        <time>2017-03-17T11:11:38Z</time>
      </trkpt>
      <trkpt lat="46.01298" lon="4.70732">
        <ele>191</ele>
        <time>2017-03-17T11:11:39Z</time>
      </trkpt>
      <trkpt lat="46.01289" lon="4.70731">
        <ele>191</ele>
        <time>2017-03-17T11:11:41Z</time>
      </trkpt>
      <trkpt lat="46.01284" lon="4.7073">
        <ele>191</ele>
        <time>2017-03-17T11:11:42Z</time>
      </trkpt>
      <trkpt lat="46.0128" lon="4.70729">
        <ele>192</ele>
        <time>2017-03-17T11:11:43Z</time>
      </trkpt>
      <trkpt lat="46.01275" lon="4.70729">
        <ele>192</ele>
        <time>2017-03-17T11:11:44Z</time>
      </trkpt>
      <trkpt lat="46.0127" lon="4.70728">
        <ele>192</ele>
        <time>2017-03-17T11:11:45Z</time>
      </trkpt>
      <trkpt lat="46.01266" lon="4.70727">
        <ele>192</ele>
        <time>2017-03-17T11:11:46Z</time>
      </trkpt>
      <trkpt lat="46.01261" lon="4.70726">
        <ele>192</ele>
        <time>2017-03-17T11:11:47Z</time>
      </trkpt>
      <trkpt lat="46.01257" lon="4.70724">
        <ele>192</ele>
        <time>2017-03-17T11:11:48Z</time>
      </trkpt>
      <trkpt lat="46.01249" lon="4.70722">
        <ele>193</ele>
        <time>2017-03-17T11:11:50Z</time>
      </trkpt>
      <trkpt lat="46.01245" lon="4.70721">
        <ele>193</ele>
        <time>2017-03-17T11:11:51Z</time>
      </trkpt>
      <trkpt lat="46.01237" lon="4.70718">
        <ele>194</ele>
        <time>2017-03-17T11:11:53Z</time>
      </trkpt>
      <trkpt lat="46.01232" lon="4.70716">
        <ele>194</ele>
        <time>2017-03-17T11:11:54Z</time>
      </trkpt>
      <trkpt lat="46.01228" lon="4.70714">
        <ele>194</ele>
        <time>2017-03-17T11:11:55Z</time>
      </trkpt>
      <trkpt lat="46.01223" lon="4.70712">
        <ele>194</ele>
        <time>2017-03-17T11:11:56Z</time>
      </trkpt>
      <trkpt lat="46.01219" lon="4.7071">
        <ele>194</ele>
        <time>2017-03-17T11:11:57Z</time>
      </trkpt>
      <trkpt lat="46.01214" lon="4.70708">
        <ele>194</ele>
        <time>2017-03-17T11:11:58Z</time>
      </trkpt>
      <trkpt lat="46.0121" lon="4.70705">
        <ele>194</ele>
        <time>2017-03-17T11:11:59Z</time>
      </trkpt>
      <trkpt lat="46.01205" lon="4.70703">
        <ele>194</ele>
        <time>2017-03-17T11:12:00Z</time>
      </trkpt>
      <trkpt lat="46.01197" lon="4.707">
        <ele>194</ele>
        <time>2017-03-17T11:12:02Z</time>
      </trkpt>
      <trkpt lat="46.01193" lon="4.70698">
        <ele>194</ele>
        <time>2017-03-17T11:12:03Z</time>
      </trkpt>
      <trkpt lat="46.01186" lon="4.70694">
        <ele>194</ele>
        <time>2017-03-17T11:12:05Z</time>
      </trkpt>
      <trkpt lat="46.01181" lon="4.70692">
        <ele>194</ele>
        <time>2017-03-17T11:12:06Z</time>
      </trkpt>
      <trkpt lat="46.01173" lon="4.70688">
        <ele>194</ele>
        <time>2017-03-17T11:12:08Z</time>
      </trkpt>
      <trkpt lat="46.01168" lon="4.70686">
        <ele>194</ele>
        <time>2017-03-17T11:12:09Z</time>
      </trkpt>
      <trkpt lat="46.01164" lon="4.70684">
        <ele>194</ele>
        <time>2017-03-17T11:12:10Z</time>
      </trkpt>
      <trkpt lat="46.01159" lon="4.70682">
        <ele>194</ele>
        <time>2017-03-17T11:12:11Z</time>
      </trkpt>
      <trkpt lat="46.01155" lon="4.7068">
        <ele>194</ele>
        <time>2017-03-17T11:12:12Z</time>
      </trkpt>
      <trkpt lat="46.01151" lon="4.70678">
        <ele>194</ele>
        <time>2017-03-17T11:12:13Z</time>
      </trkpt>
      <trkpt lat="46.01146" lon="4.70676">
        <ele>194</ele>
        <time>2017-03-17T11:12:14Z</time>
      </trkpt>
      <trkpt lat="46.01142" lon="4.70674">
        <ele>194</ele>
        <time>2017-03-17T11:12:15Z</time>
      </trkpt>
      <trkpt lat="46.01137" lon="4.70672">
        <ele>194</ele>
        <time>2017-03-17T11:12:16Z</time>
      </trkpt>
      <trkpt lat="46.01133" lon="4.7067">
        <ele>194</ele>
        <time>2017-03-17T11:12:17Z</time>
      </trkpt>
      <trkpt lat="46.01124" lon="4.70666">
        <ele>194</ele>
        <time>2017-03-17T11:12:19Z</time>
      </trkpt>
      <trkpt lat="46.0112" lon="4.70665">
        <ele>194</ele>
        <time>2017-03-17T11:12:20Z</time>
      </trkpt>
      <trkpt lat="46.01112" lon="4.70661">
        <ele>194</ele>
        <time>2017-03-17T11:12:22Z</time>
      </trkpt>
      <trkpt lat="46.01108" lon="4.70659">
        <ele>194</ele>
        <time>2017-03-17T11:12:23Z</time>
      </trkpt>
      <trkpt lat="46.01103" lon="4.70657">
        <ele>195</ele>
        <time>2017-03-17T11:12:24Z</time>
      </trkpt>
      <trkpt lat="46.01098" lon="4.70655">
        <ele>195</ele>
        <time>2017-03-17T11:12:25Z</time>
      </trkpt>
      <trkpt lat="46.01093" lon="4.70653">
        <ele>195</ele>
        <time>2017-03-17T11:12:26Z</time>
      </trkpt>
      <trkpt lat="46.01088" lon="4.7065">
        <ele>195</ele>
        <time>2017-03-17T11:12:27Z</time>
      </trkpt>
      <trkpt lat="46.01083" lon="4.70648">
        <ele>195</ele>
        <time>2017-03-17T11:12:28Z</time>
      </trkpt>
      <trkpt lat="46.01079" lon="4.70646">
        <ele>195</ele>
        <time>2017-03-17T11:12:29Z</time>
      </trkpt>
      <trkpt lat="46.01074" lon="4.70644">
        <ele>195</ele>
        <time>2017-03-17T11:12:30Z</time>
      </trkpt>
      <trkpt lat="46.0107" lon="4.70642">
        <ele>195</ele>
        <time>2017-03-17T11:12:31Z</time>
      </trkpt>
      <trkpt lat="46.01061" lon="4.70638">
        <ele>195</ele>
        <time>2017-03-17T11:12:33Z</time>
      </trkpt>
      <trkpt lat="46.01057" lon="4.70636">
        <ele>195</ele>
        <time>2017-03-17T11:12:34Z</time>
      </trkpt>
      <trkpt lat="46.01049" lon="4.70633">
        <ele>195</ele>
        <time>2017-03-17T11:12:36Z</time>
      </trkpt>
      <trkpt lat="46.01045" lon="4.70631">
        <ele>195</ele>
        <time>2017-03-17T11:12:37Z</time>
      </trkpt>
      <trkpt lat="46.01037" lon="4.70627">
        <ele>196</ele>
        <time>2017-03-17T11:12:39Z</time>
      </trkpt>
      <trkpt lat="46.01032" lon="4.70625">
        <ele>196</ele>
        <time>2017-03-17T11:12:40Z</time>
      </trkpt>
      <trkpt lat="46.01024" lon="4.70621">
        <ele>196</ele>
        <time>2017-03-17T11:12:42Z</time>
      </trkpt>
      <trkpt lat="46.0102" lon="4.70619">
        <ele>196</ele>
        <time>2017-03-17T11:12:43Z</time>
      </trkpt>
      <trkpt lat="46.01011" lon="4.70616">
        <ele>196</ele>
        <time>2017-03-17T11:12:45Z</time>
      </trkpt>
      <trkpt lat="46.01007" lon="4.70614">
        <ele>196</ele>
        <time>2017-03-17T11:12:46Z</time>
      </trkpt>
      <trkpt lat="46.01003" lon="4.70612">
        <ele>196</ele>
        <time>2017-03-17T11:12:47Z</time>
      </trkpt>
      <trkpt lat="46.00998" lon="4.7061">
        <ele>197</ele>
        <time>2017-03-17T11:12:48Z</time>
      </trkpt>
      <trkpt lat="46.0099" lon="4.70605">
        <ele>197</ele>
        <time>2017-03-17T11:12:50Z</time>
      </trkpt>
      <trkpt lat="46.00986" lon="4.70603">
        <ele>197</ele>
        <time>2017-03-17T11:12:51Z</time>
      </trkpt>
      <trkpt lat="46.00977" lon="4.70599">
        <ele>197</ele>
        <time>2017-03-17T11:12:53Z</time>
      </trkpt>
      <trkpt lat="46.00973" lon="4.70598">
        <ele>197</ele>
        <time>2017-03-17T11:12:54Z</time>
      </trkpt>
      <trkpt lat="46.00965" lon="4.70594">
        <ele>197</ele>
        <time>2017-03-17T11:12:56Z</time>
      </trkpt>
      <trkpt lat="46.0096" lon="4.70592">
        <ele>197</ele>
        <time>2017-03-17T11:12:57Z</time>
      </trkpt>
      <trkpt lat="46.00952" lon="4.70589">
        <ele>197</ele>
        <time>2017-03-17T11:12:59Z</time>
      </trkpt>
      <trkpt lat="46.00948" lon="4.70587">
        <ele>197</ele>
        <time>2017-03-17T11:13:00Z</time>
      </trkpt>
      <trkpt lat="46.0094" lon="4.70583">
        <ele>198</ele>
        <time>2017-03-17T11:13:02Z</time>
      </trkpt>
      <trkpt lat="46.00937" lon="4.70582">
        <ele>198</ele>
        <time>2017-03-17T11:13:03Z</time>
      </trkpt>
      <trkpt lat="46.00929" lon="4.70578">
        <ele>198</ele>
        <time>2017-03-17T11:13:05Z</time>
      </trkpt>
      <trkpt lat="46.00926" lon="4.70576">
        <ele>198</ele>
        <time>2017-03-17T11:13:06Z</time>
      </trkpt>
      <trkpt lat="46.00918" lon="4.70572">
        <ele>198</ele>
        <time>2017-03-17T11:13:08Z</time>
      </trkpt>
      <trkpt lat="46.00914" lon="4.7057">
        <ele>199</ele>
        <time>2017-03-17T11:13:09Z</time>
      </trkpt>
      <trkpt lat="46.00907" lon="4.70567">
        <ele>200</ele>
        <time>2017-03-17T11:13:11Z</time>
      </trkpt>
      <trkpt lat="46.00903" lon="4.70565">
        <ele>200</ele>
        <time>2017-03-17T11:13:12Z</time>
      </trkpt>
      <trkpt lat="46.00894" lon="4.70561">
        <ele>200</ele>
        <time>2017-03-17T11:13:14Z</time>
      </trkpt>
      <trkpt lat="46.0089" lon="4.70559">
        <ele>200</ele>
        <time>2017-03-17T11:13:15Z</time>
      </trkpt>
      <trkpt lat="46.00882" lon="4.70556">
        <ele>201</ele>
        <time>2017-03-17T11:13:17Z</time>
      </trkpt>
      <trkpt lat="46.00878" lon="4.70554">
        <ele>201</ele>
        <time>2017-03-17T11:13:18Z</time>
      </trkpt>
      <trkpt lat="46.00871" lon="4.7055">
        <ele>201</ele>
        <time>2017-03-17T11:13:20Z</time>
      </trkpt>
      <trkpt lat="46.00867" lon="4.70549">
        <ele>201</ele>
        <time>2017-03-17T11:13:21Z</time>
      </trkpt>
      <trkpt lat="46.0086" lon="4.70545">
        <ele>201</ele>
        <time>2017-03-17T11:13:23Z</time>
      </trkpt>
      <trkpt lat="46.00857" lon="4.70544">
        <ele>201</ele>
        <time>2017-03-17T11:13:24Z</time>
      </trkpt>
      <trkpt lat="46.00852" lon="4.70542">
        <ele>201</ele>
        <time>2017-03-17T11:13:25Z</time>
      </trkpt>
      <trkpt lat="46.00848" lon="4.7054">
        <ele>202</ele>
        <time>2017-03-17T11:13:26Z</time>
      </trkpt>
      <trkpt lat="46.00843" lon="4.70538">
        <ele>202</ele>
        <time>2017-03-17T11:13:27Z</time>
      </trkpt>
      <trkpt lat="46.00839" lon="4.70536">
        <ele>202</ele>
        <time>2017-03-17T11:13:28Z</time>
      </trkpt>
      <trkpt lat="46.00831" lon="4.70532">
        <ele>204</ele>
        <time>2017-03-17T11:13:30Z</time>
      </trkpt>
      <trkpt lat="46.00827" lon="4.7053">
        <ele>204</ele>
        <time>2017-03-17T11:13:31Z</time>
      </trkpt>
      <trkpt lat="46.00819" lon="4.70527">
        <ele>204</ele>
        <time>2017-03-17T11:13:33Z</time>
      </trkpt>
      <trkpt lat="46.00815" lon="4.70525">
        <ele>204</ele>
        <time>2017-03-17T11:13:34Z</time>
      </trkpt>
      <trkpt lat="46.00807" lon="4.7052">
        <ele>204</ele>
        <time>2017-03-17T11:13:36Z</time>
      </trkpt>
      <trkpt lat="46.00803" lon="4.70518">
        <ele>204</ele>
        <time>2017-03-17T11:13:37Z</time>
      </trkpt>
      <trkpt lat="46.00795" lon="4.70515">
        <ele>204</ele>
        <time>2017-03-17T11:13:39Z</time>
      </trkpt>
      <trkpt lat="46.00792" lon="4.70513">
        <ele>204</ele>
        <time>2017-03-17T11:13:40Z</time>
      </trkpt>
      <trkpt lat="46.00787" lon="4.70511">
        <ele>205</ele>
        <time>2017-03-17T11:13:41Z</time>
      </trkpt>
      <trkpt lat="46.00782" lon="4.70509">
        <ele>205</ele>
        <time>2017-03-17T11:13:42Z</time>
      </trkpt>
      <trkpt lat="46.00778" lon="4.70507">
        <ele>205</ele>
        <time>2017-03-17T11:13:43Z</time>
      </trkpt>
      <trkpt lat="46.00774" lon="4.70504">
        <ele>205</ele>
        <time>2017-03-17T11:13:44Z</time>
      </trkpt>
      <trkpt lat="46.00767" lon="4.70501">
        <ele>206</ele>
        <time>2017-03-17T11:13:46Z</time>
      </trkpt>
      <trkpt lat="46.00764" lon="4.70499">
        <ele>208</ele>
        <time>2017-03-17T11:13:47Z</time>
      </trkpt>
      <trkpt lat="46.00758" lon="4.70497">
        <ele>208</ele>
        <time>2017-03-17T11:13:49Z</time>
      </trkpt>
      <trkpt lat="46.00754" lon="4.70496">
        <ele>208</ele>
        <time>2017-03-17T11:13:50Z</time>
      </trkpt>
      <trkpt lat="46.00745" lon="4.70494">
        <ele>209</ele>
        <time>2017-03-17T11:13:52Z</time>
      </trkpt>
      <trkpt lat="46.0074" lon="4.70493">
        <ele>209</ele>
        <time>2017-03-17T11:13:53Z</time>
      </trkpt>
      <trkpt lat="46.00736" lon="4.70492">
        <ele>209</ele>
        <time>2017-03-17T11:13:54Z</time>
      </trkpt>
      <trkpt lat="46.00731" lon="4.70491">
        <ele>210</ele>
        <time>2017-03-17T11:13:55Z</time>
      </trkpt>
      <trkpt lat="46.00722" lon="4.7049">
        <ele>210</ele>
        <time>2017-03-17T11:13:57Z</time>
      </trkpt>
      <trkpt lat="46.00718" lon="4.7049">
        <ele>210</ele>
        <time>2017-03-17T11:13:58Z</time>
      </trkpt>
      <trkpt lat="46.00713" lon="4.70489">
        <ele>210</ele>
        <time>2017-03-17T11:13:59Z</time>
      </trkpt>
      <trkpt lat="46.00708" lon="4.70489">
        <ele>211</ele>
        <time>2017-03-17T11:14:00Z</time>
      </trkpt>
      <trkpt lat="46.007" lon="4.70488">
        <ele>211</ele>
        <time>2017-03-17T11:14:02Z</time>
      </trkpt>
      <trkpt lat="46.00696" lon="4.70488">
        <ele>211</ele>
        <time>2017-03-17T11:14:03Z</time>
      </trkpt>
      <trkpt lat="46.00692" lon="4.70488">
        <ele>211</ele>
        <time>2017-03-17T11:14:04Z</time>
      </trkpt>
      <trkpt lat="46.00687" lon="4.70488">
        <ele>211</ele>
        <time>2017-03-17T11:14:05Z</time>
      </trkpt>
      <trkpt lat="46.00683" lon="4.70488">
        <ele>211</ele>
        <time>2017-03-17T11:14:06Z</time>
      </trkpt>
      <trkpt lat="46.00678" lon="4.70488">
        <ele>211</ele>
        <time>2017-03-17T11:14:07Z</time>
      </trkpt>
      <trkpt lat="46.00673" lon="4.70489">
        <ele>212</ele>
        <time>2017-03-17T11:14:08Z</time>
      </trkpt>
      <trkpt lat="46.00669" lon="4.70489">
        <ele>212</ele>
        <time>2017-03-17T11:14:09Z</time>
      </trkpt>
      <trkpt lat="46.00664" lon="4.7049">
        <ele>212</ele>
        <time>2017-03-17T11:14:10Z</time>
      </trkpt>
      <trkpt lat="46.00659" lon="4.7049">
        <ele>212</ele>
        <time>2017-03-17T11:14:11Z</time>
      </trkpt>
      <trkpt lat="46.0065" lon="4.70491">
        <ele>211</ele>
        <time>2017-03-17T11:14:13Z</time>
      </trkpt>
      <trkpt lat="46.00646" lon="4.70492">
        <ele>211</ele>
        <time>2017-03-17T11:14:14Z</time>
      </trkpt>
      <trkpt lat="46.0064" lon="4.70493">
        <ele>211</ele>
        <time>2017-03-17T11:14:15Z</time>
      </trkpt>
      <trkpt lat="46.00635" lon="4.70494">
        <ele>211</ele>
        <time>2017-03-17T11:14:16Z</time>
      </trkpt>
      <trkpt lat="46.0063" lon="4.70495">
        <ele>211</ele>
        <time>2017-03-17T11:14:17Z</time>
      </trkpt>
      <trkpt lat="46.00625" lon="4.70496">
        <ele>211</ele>
        <time>2017-03-17T11:14:18Z</time>
      </trkpt>
      <trkpt lat="46.0062" lon="4.70497">
        <ele>210</ele>
        <time>2017-03-17T11:14:19Z</time>
      </trkpt>
      <trkpt lat="46.00615" lon="4.70498">
        <ele>210</ele>
        <time>2017-03-17T11:14:20Z</time>
      </trkpt>
      <trkpt lat="46.00607" lon="4.705">
        <ele>210</ele>
        <time>2017-03-17T11:14:22Z</time>
      </trkpt>
      <trkpt lat="46.00602" lon="4.705">
        <ele>207</ele>
        <time>2017-03-17T11:14:23Z</time>
      </trkpt>
      <trkpt lat="46.00593" lon="4.70502">
        <ele>207</ele>
        <time>2017-03-17T11:14:25Z</time>
      </trkpt>
      <trkpt lat="46.00589" lon="4.70504">
        <ele>207</ele>
        <time>2017-03-17T11:14:26Z</time>
      </trkpt>
      <trkpt lat="46.00584" lon="4.70505">
        <ele>207</ele>
        <time>2017-03-17T11:14:27Z</time>
      </trkpt>
      <trkpt lat="46.00579" lon="4.70505">
        <ele>206</ele>
        <time>2017-03-17T11:14:28Z</time>
      </trkpt>
      <trkpt lat="46.00574" lon="4.70506">
        <ele>206</ele>
        <time>2017-03-17T11:14:29Z</time>
      </trkpt>
      <trkpt lat="46.00569" lon="4.70507">
        <ele>205</ele>
        <time>2017-03-17T11:14:30Z</time>
      </trkpt>
      <trkpt lat="46.00562" lon="4.70509">
        <ele>205</ele>
        <time>2017-03-17T11:14:31Z</time>
      </trkpt>
      <trkpt lat="46.00556" lon="4.70509">
        <ele>204</ele>
        <time>2017-03-17T11:14:32Z</time>
      </trkpt>
      <trkpt lat="46.0055" lon="4.70509">
        <ele>204</ele>
        <time>2017-03-17T11:14:33Z</time>
      </trkpt>
      <trkpt lat="46.00544" lon="4.70509">
        <ele>204</ele>
        <time>2017-03-17T11:14:34Z</time>
      </trkpt>
      <trkpt lat="46.00538" lon="4.70508">
        <ele>204</ele>
        <time>2017-03-17T11:14:35Z</time>
      </trkpt>
      <trkpt lat="46.00532" lon="4.70508">
        <ele>204</ele>
        <time>2017-03-17T11:14:36Z</time>
      </trkpt>
      <trkpt lat="46.00526" lon="4.70508">
        <ele>204</ele>
        <time>2017-03-17T11:14:37Z</time>
      </trkpt>
      <trkpt lat="46.00519" lon="4.70508">
        <ele>204</ele>
        <time>2017-03-17T11:14:38Z</time>
      </trkpt>
      <trkpt lat="46.00513" lon="4.70508">
        <ele>204</ele>
        <time>2017-03-17T11:14:39Z</time>
      </trkpt>
      <trkpt lat="46.00507" lon="4.70508">
        <ele>204</ele>
        <time>2017-03-17T11:14:40Z</time>
      </trkpt>
      <trkpt lat="46.00501" lon="4.70507">
        <ele>204</ele>
        <time>2017-03-17T11:14:41Z</time>
      </trkpt>
      <trkpt lat="46.00496" lon="4.70506">
        <ele>203</ele>
        <time>2017-03-17T11:14:42Z</time>
      </trkpt>
      <trkpt lat="46.0049" lon="4.70504">
        <ele>203</ele>
        <time>2017-03-17T11:14:43Z</time>
      </trkpt>
      <trkpt lat="46.00485" lon="4.70503">
        <ele>202</ele>
        <time>2017-03-17T11:14:44Z</time>
      </trkpt>
      <trkpt lat="46.00479" lon="4.70503">
        <ele>202</ele>
        <time>2017-03-17T11:14:45Z</time>
      </trkpt>
      <trkpt lat="46.00473" lon="4.70503">
        <ele>202</ele>
        <time>2017-03-17T11:14:46Z</time>
      </trkpt>
      <trkpt lat="46.00467" lon="4.70502">
        <ele>201</ele>
        <time>2017-03-17T11:14:47Z</time>
      </trkpt>
      <trkpt lat="46.00461" lon="4.705">
        <ele>203</ele>
        <time>2017-03-17T11:14:48Z</time>
      </trkpt>
      <trkpt lat="46.00455" lon="4.70497">
        <ele>203</ele>
        <time>2017-03-17T11:14:49Z</time>
      </trkpt>
      <trkpt lat="46.00449" lon="4.70494">
        <ele>202</ele>
        <time>2017-03-17T11:14:50Z</time>
      </trkpt>
      <trkpt lat="46.00443" lon="4.70491">
        <ele>202</ele>
        <time>2017-03-17T11:14:51Z</time>
      </trkpt>
      <trkpt lat="46.00437" lon="4.7049">
        <ele>202</ele>
        <time>2017-03-17T11:14:52Z</time>
      </trkpt>
      <trkpt lat="46.00432" lon="4.70489">
        <ele>202</ele>
        <time>2017-03-17T11:14:53Z</time>
      </trkpt>
      <trkpt lat="46.00426" lon="4.70488">
        <ele>201</ele>
        <time>2017-03-17T11:14:54Z</time>
      </trkpt>
      <trkpt lat="46.0042" lon="4.70487">
        <ele>201</ele>
        <time>2017-03-17T11:14:55Z</time>
      </trkpt>
      <trkpt lat="46.00415" lon="4.70486">
        <ele>200</ele>
        <time>2017-03-17T11:14:56Z</time>
      </trkpt>
      <trkpt lat="46.00409" lon="4.70486">
        <ele>200</ele>
        <time>2017-03-17T11:14:57Z</time>
      </trkpt>
      <trkpt lat="46.00403" lon="4.70485">
        <ele>200</ele>
        <time>2017-03-17T11:14:58Z</time>
      </trkpt>
      <trkpt lat="46.00398" lon="4.70485">
        <ele>200</ele>
        <time>2017-03-17T11:14:59Z</time>
      </trkpt>
      <trkpt lat="46.00392" lon="4.70485">
        <ele>200</ele>
        <time>2017-03-17T11:15:00Z</time>
      </trkpt>
      <trkpt lat="46.00387" lon="4.70485">
        <ele>200</ele>
        <time>2017-03-17T11:15:01Z</time>
      </trkpt>
      <trkpt lat="46.00381" lon="4.70486">
        <ele>200</ele>
        <time>2017-03-17T11:15:02Z</time>
      </trkpt>
      <trkpt lat="46.00376" lon="4.70488">
        <ele>200</ele>
        <time>2017-03-17T11:15:03Z</time>
      </trkpt>
      <trkpt lat="46.0037" lon="4.70489">
        <ele>200</ele>
        <time>2017-03-17T11:15:04Z</time>
      </trkpt>
      <trkpt lat="46.00364" lon="4.7049">
        <ele>200</ele>
        <time>2017-03-17T11:15:05Z</time>
      </trkpt>
      <trkpt lat="46.00357" lon="4.70491">
        <ele>200</ele>
        <time>2017-03-17T11:15:06Z</time>
      </trkpt>
      <trkpt lat="46.00351" lon="4.70493">
        <ele>199</ele>
        <time>2017-03-17T11:15:07Z</time>
      </trkpt>
      <trkpt lat="46.00344" lon="4.70494">
        <ele>199</ele>
        <time>2017-03-17T11:15:08Z</time>
      </trkpt>
      <trkpt lat="46.00338" lon="4.70496">
        <ele>199</ele>
        <time>2017-03-17T11:15:09Z</time>
      </trkpt>
      <trkpt lat="46.00332" lon="4.70497">
        <ele>198</ele>
        <time>2017-03-17T11:15:10Z</time>
      </trkpt>
      <trkpt lat="46.00326" lon="4.70498">
        <ele>198</ele>
        <time>2017-03-17T11:15:11Z</time>
      </trkpt>
      <trkpt lat="46.0032" lon="4.705">
        <ele>199</ele>
        <time>2017-03-17T11:15:12Z</time>
      </trkpt>
      <trkpt lat="46.00314" lon="4.70501">
        <ele>198</ele>
        <time>2017-03-17T11:15:13Z</time>
      </trkpt>
      <trkpt lat="46.00309" lon="4.70501">
        <ele>197</ele>
        <time>2017-03-17T11:15:14Z</time>
      </trkpt>
      <trkpt lat="46.00304" lon="4.70502">
        <ele>197</ele>
        <time>2017-03-17T11:15:15Z</time>
      </trkpt>
      <trkpt lat="46.00299" lon="4.70503">
        <ele>197</ele>
        <time>2017-03-17T11:15:16Z</time>
      </trkpt>
      <trkpt lat="46.00294" lon="4.70505">
        <ele>197</ele>
        <time>2017-03-17T11:15:17Z</time>
      </trkpt>
      <trkpt lat="46.00289" lon="4.70506">
        <ele>197</ele>
        <time>2017-03-17T11:15:18Z</time>
      </trkpt>
      <trkpt lat="46.00283" lon="4.70507">
        <ele>197</ele>
        <time>2017-03-17T11:15:19Z</time>
      </trkpt>
      <trkpt lat="46.00278" lon="4.70509">
        <ele>197</ele>
        <time>2017-03-17T11:15:20Z</time>
      </trkpt>
      <trkpt lat="46.00272" lon="4.7051">
        <ele>197</ele>
        <time>2017-03-17T11:15:21Z</time>
      </trkpt>
      <trkpt lat="46.00266" lon="4.70511">
        <ele>197</ele>
        <time>2017-03-17T11:15:22Z</time>
      </trkpt>
      <trkpt lat="46.00259" lon="4.70513">
        <ele>198</ele>
        <time>2017-03-17T11:15:23Z</time>
      </trkpt>
      <trkpt lat="46.00254" lon="4.70514">
        <ele>198</ele>
        <time>2017-03-17T11:15:24Z</time>
      </trkpt>
      <trkpt lat="46.00249" lon="4.70516">
        <ele>198</ele>
        <time>2017-03-17T11:15:25Z</time>
      </trkpt>
      <trkpt lat="46.00243" lon="4.70517">
        <ele>198</ele>
        <time>2017-03-17T11:15:26Z</time>
      </trkpt>
      <trkpt lat="46.00237" lon="4.70519">
        <ele>198</ele>
        <time>2017-03-17T11:15:27Z</time>
      </trkpt>
      <trkpt lat="46.00232" lon="4.7052">
        <ele>198</ele>
        <time>2017-03-17T11:15:28Z</time>
      </trkpt>
      <trkpt lat="46.00226" lon="4.70522">
        <ele>198</ele>
        <time>2017-03-17T11:15:29Z</time>
      </trkpt>
      <trkpt lat="46.00221" lon="4.70523">
        <ele>198</ele>
        <time>2017-03-17T11:15:30Z</time>
      </trkpt>
      <trkpt lat="46.00215" lon="4.70524">
        <ele>198</ele>
        <time>2017-03-17T11:15:31Z</time>
      </trkpt>
      <trkpt lat="46.0021" lon="4.70526">
        <ele>198</ele>
        <time>2017-03-17T11:15:32Z</time>
      </trkpt>
      <trkpt lat="46.00204" lon="4.70527">
        <ele>198</ele>
        <time>2017-03-17T11:15:33Z</time>
      </trkpt>
      <trkpt lat="46.00199" lon="4.70527">
        <ele>198</ele>
        <time>2017-03-17T11:15:34Z</time>
      </trkpt>
      <trkpt lat="46.00193" lon="4.70527">
        <ele>198</ele>
        <time>2017-03-17T11:15:35Z</time>
      </trkpt>
      <trkpt lat="46.00187" lon="4.70528">
        <ele>198</ele>
        <time>2017-03-17T11:15:36Z</time>
      </trkpt>
      <trkpt lat="46.0018" lon="4.70528">
        <ele>198</ele>
        <time>2017-03-17T11:15:37Z</time>
      </trkpt>
      <trkpt lat="46.00174" lon="4.70527">
        <ele>198</ele>
        <time>2017-03-17T11:15:38Z</time>
      </trkpt>
      <trkpt lat="46.00167" lon="4.70524">
        <ele>198</ele>
        <time>2017-03-17T11:15:39Z</time>
      </trkpt>
      <trkpt lat="46.00162" lon="4.7052">
        <ele>198</ele>
        <time>2017-03-17T11:15:40Z</time>
      </trkpt>
      <trkpt lat="46.00157" lon="4.70516">
        <ele>198</ele>
        <time>2017-03-17T11:15:41Z</time>
      </trkpt>
      <trkpt lat="46.00153" lon="4.70514">
        <ele>198</ele>
        <time>2017-03-17T11:15:42Z</time>
      </trkpt>
      <trkpt lat="46.00147" lon="4.70514">
        <ele>198</ele>
        <time>2017-03-17T11:15:43Z</time>
      </trkpt>
      <trkpt lat="46.00142" lon="4.70518">
        <ele>198</ele>
        <time>2017-03-17T11:15:44Z</time>
      </trkpt>
      <trkpt lat="46.00138" lon="4.70524">
        <ele>198</ele>
        <time>2017-03-17T11:15:45Z</time>
      </trkpt>
      <trkpt lat="46.00135" lon="4.70532">
        <ele>198</ele>
        <time>2017-03-17T11:15:46Z</time>
      </trkpt>
      <trkpt lat="46.00134" lon="4.70541">
        <ele>198</ele>
        <time>2017-03-17T11:15:47Z</time>
      </trkpt>
      <trkpt lat="46.00131" lon="4.70549">
        <ele>198</ele>
        <time>2017-03-17T11:15:48Z</time>
      </trkpt>
      <trkpt lat="46.00128" lon="4.70557">
        <ele>198</ele>
        <time>2017-03-17T11:15:49Z</time>
      </trkpt>
      <trkpt lat="46.00123" lon="4.70563">
        <ele>198</ele>
        <time>2017-03-17T11:15:50Z</time>
      </trkpt>
      <trkpt lat="46.00117" lon="4.70566">
        <ele>198</ele>
        <time>2017-03-17T11:15:51Z</time>
      </trkpt>
      <trkpt lat="46.00111" lon="4.70569">
        <ele>198</ele>
        <time>2017-03-17T11:15:52Z</time>
      </trkpt>
      <trkpt lat="46.00106" lon="4.70571">
        <ele>198</ele>
        <time>2017-03-17T11:15:53Z</time>
      </trkpt>
      <trkpt lat="46.00101" lon="4.70574">
        <ele>198</ele>
        <time>2017-03-17T11:15:54Z</time>
      </trkpt>
      <trkpt lat="46.00096" lon="4.70577">
        <ele>198</ele>
        <time>2017-03-17T11:15:55Z</time>
      </trkpt>
      <trkpt lat="46.00091" lon="4.7058">
        <ele>198</ele>
        <time>2017-03-17T11:15:56Z</time>
      </trkpt>
      <trkpt lat="46.00086" lon="4.70583">
        <ele>198</ele>
        <time>2017-03-17T11:15:57Z</time>
      </trkpt>
      <trkpt lat="46.0008" lon="4.70586">
        <ele>198</ele>
        <time>2017-03-17T11:15:58Z</time>
      </trkpt>
      <trkpt lat="46.00075" lon="4.70589">
        <ele>198</ele>
        <time>2017-03-17T11:15:59Z</time>
      </trkpt>
      <trkpt lat="46.00069" lon="4.70592">
        <ele>198</ele>
        <time>2017-03-17T11:16:00Z</time>
      </trkpt>
      <trkpt lat="46.00063" lon="4.70594">
        <ele>198</ele>
        <time>2017-03-17T11:16:01Z</time>
      </trkpt>
      <trkpt lat="46.00058" lon="4.70596">
        <ele>198</ele>
        <time>2017-03-17T11:16:02Z</time>
      </trkpt>
      <trkpt lat="46.00052" lon="4.70598">
        <ele>198</ele>
        <time>2017-03-17T11:16:03Z</time>
      </trkpt>
      <trkpt lat="46.00047" lon="4.70599">
        <ele>198</ele>
        <time>2017-03-17T11:16:04Z</time>
      </trkpt>
      <trkpt lat="46.00042" lon="4.70601">
        <ele>199</ele>
        <time>2017-03-17T11:16:05Z</time>
      </trkpt>
      <trkpt lat="46.00037" lon="4.70601">
        <ele>199</ele>
        <time>2017-03-17T11:16:06Z</time>
      </trkpt>
      <trkpt lat="46.00033" lon="4.70602">
        <ele>199</ele>
        <time>2017-03-17T11:16:07Z</time>
      </trkpt>
      <trkpt lat="46.00028" lon="4.70603">
        <ele>199</ele>
        <time>2017-03-17T11:16:08Z</time>
      </trkpt>
      <trkpt lat="46.00019" lon="4.70605">
        <ele>199</ele>
        <time>2017-03-17T11:16:10Z</time>
      </trkpt>
      <trkpt lat="46.00016" lon="4.70606">
        <ele>199</ele>
        <time>2017-03-17T11:16:11Z</time>
      </trkpt>
      <trkpt lat="46.00012" lon="4.70607">
        <ele>199</ele>
        <time>2017-03-17T11:16:12Z</time>
      </trkpt>
      <trkpt lat="46.00007" lon="4.70609">
        <ele>199</ele>
        <time>2017-03-17T11:16:13Z</time>
      </trkpt>
      <trkpt lat="46.00002" lon="4.7061">
        <ele>199</ele>
        <time>2017-03-17T11:16:14Z</time>
      </trkpt>
      <trkpt lat="45.99996" lon="4.70611">
        <ele>199</ele>
        <time>2017-03-17T11:16:15Z</time>
      </trkpt>
      <trkpt lat="45.9999" lon="4.70614">
        <ele>199</ele>
        <time>2017-03-17T11:16:16Z</time>
      </trkpt>
      <trkpt lat="45.99984" lon="4.70615">
        <ele>199</ele>
        <time>2017-03-17T11:16:17Z</time>
      </trkpt>
      <trkpt lat="45.99978" lon="4.70616">
        <ele>199</ele>
        <time>2017-03-17T11:16:18Z</time>
      </trkpt>
      <trkpt lat="45.99973" lon="4.70618">
        <ele>199</ele>
        <time>2017-03-17T11:16:19Z</time>
      </trkpt>
      <trkpt lat="45.99967" lon="4.70619">
        <ele>199</ele>
        <time>2017-03-17T11:16:20Z</time>
      </trkpt>
      <trkpt lat="45.99961" lon="4.70621">
        <ele>199</ele>
        <time>2017-03-17T11:16:21Z</time>
      </trkpt>
      <trkpt lat="45.99954" lon="4.70622">
        <ele>199</ele>
        <time>2017-03-17T11:16:22Z</time>
      </trkpt>
      <trkpt lat="45.99949" lon="4.70624">
        <ele>199</ele>
        <time>2017-03-17T11:16:23Z</time>
      </trkpt>
      <trkpt lat="45.99943" lon="4.70624">
        <ele>199</ele>
        <time>2017-03-17T11:16:24Z</time>
      </trkpt>
      <trkpt lat="45.99938" lon="4.70625">
        <ele>199</ele>
        <time>2017-03-17T11:16:25Z</time>
      </trkpt>
      <trkpt lat="45.99932" lon="4.70625">
        <ele>199</ele>
        <time>2017-03-17T11:16:26Z</time>
      </trkpt>
      <trkpt lat="45.99925" lon="4.70626">
        <ele>199</ele>
        <time>2017-03-17T11:16:27Z</time>
      </trkpt>
      <trkpt lat="45.99919" lon="4.70626">
        <ele>199</ele>
        <time>2017-03-17T11:16:28Z</time>
      </trkpt>
      <trkpt lat="45.99912" lon="4.70628">
        <ele>200</ele>
        <time>2017-03-17T11:16:29Z</time>
      </trkpt>
      <trkpt lat="45.99906" lon="4.70629">
        <ele>200</ele>
        <time>2017-03-17T11:16:30Z</time>
      </trkpt>
      <trkpt lat="45.99899" lon="4.7063">
        <ele>200</ele>
        <time>2017-03-17T11:16:31Z</time>
      </trkpt>
      <trkpt lat="45.99893" lon="4.70632">
        <ele>200</ele>
        <time>2017-03-17T11:16:32Z</time>
      </trkpt>
      <trkpt lat="45.99887" lon="4.70632">
        <ele>200</ele>
        <time>2017-03-17T11:16:33Z</time>
      </trkpt>
      <trkpt lat="45.99881" lon="4.70633">
        <ele>201</ele>
        <time>2017-03-17T11:16:34Z</time>
      </trkpt>
      <trkpt lat="45.99875" lon="4.70634">
        <ele>201</ele>
        <time>2017-03-17T11:16:35Z</time>
      </trkpt>
      <trkpt lat="45.9987" lon="4.70635">
        <ele>201</ele>
        <time>2017-03-17T11:16:36Z</time>
      </trkpt>
      <trkpt lat="45.99865" lon="4.70637">
        <ele>201</ele>
        <time>2017-03-17T11:16:37Z</time>
      </trkpt>
      <trkpt lat="45.99859" lon="4.70639">
        <ele>201</ele>
        <time>2017-03-17T11:16:38Z</time>
      </trkpt>
      <trkpt lat="45.99854" lon="4.7064">
        <ele>201</ele>
        <time>2017-03-17T11:16:39Z</time>
      </trkpt>
      <trkpt lat="45.99848" lon="4.70642">
        <ele>201</ele>
        <time>2017-03-17T11:16:40Z</time>
      </trkpt>
      <trkpt lat="45.99843" lon="4.70643">
        <ele>201</ele>
        <time>2017-03-17T11:16:41Z</time>
      </trkpt>
      <trkpt lat="45.99838" lon="4.70644">
        <ele>201</ele>
        <time>2017-03-17T11:16:42Z</time>
      </trkpt>
      <trkpt lat="45.99832" lon="4.70645">
        <ele>202</ele>
        <time>2017-03-17T11:16:43Z</time>
      </trkpt>
      <trkpt lat="45.99827" lon="4.70646">
        <ele>202</ele>
        <time>2017-03-17T11:16:44Z</time>
      </trkpt>
      <trkpt lat="45.99822" lon="4.70648">
        <ele>202</ele>
        <time>2017-03-17T11:16:45Z</time>
      </trkpt>
      <trkpt lat="45.99817" lon="4.70649">
        <ele>202</ele>
        <time>2017-03-17T11:16:46Z</time>
      </trkpt>
      <trkpt lat="45.99811" lon="4.7065">
        <ele>202</ele>
        <time>2017-03-17T11:16:47Z</time>
      </trkpt>
      <trkpt lat="45.99805" lon="4.70651">
        <ele>202</ele>
        <time>2017-03-17T11:16:48Z</time>
      </trkpt>
      <trkpt lat="45.99799" lon="4.70651">
        <ele>202</ele>
        <time>2017-03-17T11:16:49Z</time>
      </trkpt>
      <trkpt lat="45.99794" lon="4.70653">
        <ele>202</ele>
        <time>2017-03-17T11:16:50Z</time>
      </trkpt>
      <trkpt lat="45.99788" lon="4.70654">
        <ele>202</ele>
        <time>2017-03-17T11:16:51Z</time>
      </trkpt>
      <trkpt lat="45.99783" lon="4.70656">
        <ele>202</ele>
        <time>2017-03-17T11:16:52Z</time>
      </trkpt>
      <trkpt lat="45.99778" lon="4.70657">
        <ele>202</ele>
        <time>2017-03-17T11:16:53Z</time>
      </trkpt>
      <trkpt lat="45.99773" lon="4.70659">
        <ele>202</ele>
        <time>2017-03-17T11:16:54Z</time>
      </trkpt>
      <trkpt lat="45.99767" lon="4.7066">
        <ele>202</ele>
        <time>2017-03-17T11:16:55Z</time>
      </trkpt>
      <trkpt lat="45.99762" lon="4.70661">
        <ele>202</ele>
        <time>2017-03-17T11:16:56Z</time>
      </trkpt>
      <trkpt lat="45.99756" lon="4.70662">
        <ele>202</ele>
        <time>2017-03-17T11:16:57Z</time>
      </trkpt>
      <trkpt lat="45.99751" lon="4.70664">
        <ele>202</ele>
        <time>2017-03-17T11:16:58Z</time>
      </trkpt>
      <trkpt lat="45.99747" lon="4.70665">
        <ele>202</ele>
        <time>2017-03-17T11:16:59Z</time>
      </trkpt>
      <trkpt lat="45.99742" lon="4.70666">
        <ele>202</ele>
        <time>2017-03-17T11:17:00Z</time>
      </trkpt>
      <trkpt lat="45.99737" lon="4.70667">
        <ele>202</ele>
        <time>2017-03-17T11:17:01Z</time>
      </trkpt>
      <trkpt lat="45.99732" lon="4.70669">
        <ele>202</ele>
        <time>2017-03-17T11:17:02Z</time>
      </trkpt>
      <trkpt lat="45.99727" lon="4.7067">
        <ele>202</ele>
        <time>2017-03-17T11:17:03Z</time>
      </trkpt>
      <trkpt lat="45.99722" lon="4.70671">
        <ele>201</ele>
        <time>2017-03-17T11:17:04Z</time>
      </trkpt>
      <trkpt lat="45.99717" lon="4.70672">
        <ele>201</ele>
        <time>2017-03-17T11:17:05Z</time>
      </trkpt>
      <trkpt lat="45.99712" lon="4.70673">
        <ele>201</ele>
        <time>2017-03-17T11:17:06Z</time>
      </trkpt>
      <trkpt lat="45.99707" lon="4.70674">
        <ele>201</ele>
        <time>2017-03-17T11:17:07Z</time>
      </trkpt>
      <trkpt lat="45.99702" lon="4.70675">
        <ele>201</ele>
        <time>2017-03-17T11:17:08Z</time>
      </trkpt>
      <trkpt lat="45.99696" lon="4.70676">
        <ele>201</ele>
        <time>2017-03-17T11:17:09Z</time>
      </trkpt>
      <trkpt lat="45.99692" lon="4.70677">
        <ele>201</ele>
        <time>2017-03-17T11:17:10Z</time>
      </trkpt>
      <trkpt lat="45.99687" lon="4.70678">
        <ele>201</ele>
        <time>2017-03-17T11:17:11Z</time>
      </trkpt>
      <trkpt lat="45.99682" lon="4.7068">
        <ele>201</ele>
        <time>2017-03-17T11:17:12Z</time>
      </trkpt>
      <trkpt lat="45.99677" lon="4.7068">
        <ele>201</ele>
        <time>2017-03-17T11:17:13Z</time>
      </trkpt>
      <trkpt lat="45.99672" lon="4.70681">
        <ele>201</ele>
        <time>2017-03-17T11:17:14Z</time>
      </trkpt>
      <trkpt lat="45.99667" lon="4.70682">
        <ele>201</ele>
        <time>2017-03-17T11:17:15Z</time>
      </trkpt>
      <trkpt lat="45.99662" lon="4.70684">
        <ele>201</ele>
        <time>2017-03-17T11:17:16Z</time>
      </trkpt>
      <trkpt lat="45.99656" lon="4.70685">
        <ele>201</ele>
        <time>2017-03-17T11:17:17Z</time>
      </trkpt>
      <trkpt lat="45.99649" lon="4.70686">
        <ele>201</ele>
        <time>2017-03-17T11:17:18Z</time>
      </trkpt>
      <trkpt lat="45.99642" lon="4.70687">
        <ele>200</ele>
        <time>2017-03-17T11:17:19Z</time>
      </trkpt>
      <trkpt lat="45.99636" lon="4.70688">
        <ele>200</ele>
        <time>2017-03-17T11:17:20Z</time>
      </trkpt>
      <trkpt lat="45.9963" lon="4.70689">
        <ele>200</ele>
        <time>2017-03-17T11:17:21Z</time>
      </trkpt>
      <trkpt lat="45.99625" lon="4.7069">
        <ele>200</ele>
        <time>2017-03-17T11:17:22Z</time>
      </trkpt>
      <trkpt lat="45.99619" lon="4.70691">
        <ele>200</ele>
        <time>2017-03-17T11:17:23Z</time>
      </trkpt>
      <trkpt lat="45.99614" lon="4.70692">
        <ele>200</ele>
        <time>2017-03-17T11:17:24Z</time>
      </trkpt>
      <trkpt lat="45.99609" lon="4.70693">
        <ele>200</ele>
        <time>2017-03-17T11:17:25Z</time>
      </trkpt>
      <trkpt lat="45.99604" lon="4.70694">
        <ele>200</ele>
        <time>2017-03-17T11:17:26Z</time>
      </trkpt>
      <trkpt lat="45.99599" lon="4.70695">
        <ele>200</ele>
        <time>2017-03-17T11:17:27Z</time>
      </trkpt>
      <trkpt lat="45.99594" lon="4.70695">
        <ele>200</ele>
        <time>2017-03-17T11:17:28Z</time>
      </trkpt>
      <trkpt lat="45.99589" lon="4.70696">
        <ele>200</ele>
        <time>2017-03-17T11:17:29Z</time>
      </trkpt>
      <trkpt lat="45.99584" lon="4.70698">
        <ele>200</ele>
        <time>2017-03-17T11:17:30Z</time>
      </trkpt>
      <trkpt lat="45.99579" lon="4.70699">
        <ele>200</ele>
        <time>2017-03-17T11:17:31Z</time>
      </trkpt>
      <trkpt lat="45.99574" lon="4.707">
        <ele>200</ele>
        <time>2017-03-17T11:17:32Z</time>
      </trkpt>
      <trkpt lat="45.99569" lon="4.70701">
        <ele>200</ele>
        <time>2017-03-17T11:17:33Z</time>
      </trkpt>
      <trkpt lat="45.99564" lon="4.70702">
        <ele>200</ele>
        <time>2017-03-17T11:17:34Z</time>
      </trkpt>
      <trkpt lat="45.99558" lon="4.70703">
        <ele>200</ele>
        <time>2017-03-17T11:17:35Z</time>
      </trkpt>
      <trkpt lat="45.99552" lon="4.70704">
        <ele>200</ele>
        <time>2017-03-17T11:17:36Z</time>
      </trkpt>
      <trkpt lat="45.99545" lon="4.70706">
        <ele>200</ele>
        <time>2017-03-17T11:17:37Z</time>
      </trkpt>
      <trkpt lat="45.99539" lon="4.70708">
        <ele>199</ele>
        <time>2017-03-17T11:17:38Z</time>
      </trkpt>
      <trkpt lat="45.99532" lon="4.70709">
        <ele>199</ele>
        <time>2017-03-17T11:17:39Z</time>
      </trkpt>
      <trkpt lat="45.99525" lon="4.70711">
        <ele>199</ele>
        <time>2017-03-17T11:17:40Z</time>
      </trkpt>
      <trkpt lat="45.99519" lon="4.70712">
        <ele>199</ele>
        <time>2017-03-17T11:17:41Z</time>
      </trkpt>
      <trkpt lat="45.99512" lon="4.70713">
        <ele>199</ele>
        <time>2017-03-17T11:17:42Z</time>
      </trkpt>
      <trkpt lat="45.99506" lon="4.70715">
        <ele>199</ele>
        <time>2017-03-17T11:17:43Z</time>
      </trkpt>
      <trkpt lat="45.995" lon="4.70716">
        <ele>199</ele>
        <time>2017-03-17T11:17:44Z</time>
      </trkpt>
      <trkpt lat="45.99494" lon="4.70718">
        <ele>199</ele>
        <time>2017-03-17T11:17:45Z</time>
      </trkpt>
      <trkpt lat="45.99489" lon="4.7072">
        <ele>199</ele>
        <time>2017-03-17T11:17:46Z</time>
      </trkpt>
      <trkpt lat="45.99483" lon="4.7072">
        <ele>199</ele>
        <time>2017-03-17T11:17:47Z</time>
      </trkpt>
      <trkpt lat="45.99477" lon="4.7072">
        <ele>199</ele>
        <time>2017-03-17T11:17:48Z</time>
      </trkpt>
      <trkpt lat="45.99471" lon="4.70719">
        <ele>200</ele>
        <time>2017-03-17T11:17:49Z</time>
      </trkpt>
      <trkpt lat="45.99465" lon="4.70719">
        <ele>200</ele>
        <time>2017-03-17T11:17:50Z</time>
      </trkpt>
      <trkpt lat="45.99458" lon="4.70719">
        <ele>200</ele>
        <time>2017-03-17T11:17:51Z</time>
      </trkpt>
      <trkpt lat="45.99452" lon="4.7072">
        <ele>200</ele>
        <time>2017-03-17T11:17:52Z</time>
      </trkpt>
      <trkpt lat="45.99446" lon="4.7072">
        <ele>200</ele>
        <time>2017-03-17T11:17:53Z</time>
      </trkpt>
      <trkpt lat="45.9944" lon="4.70719">
        <ele>200</ele>
        <time>2017-03-17T11:17:54Z</time>
      </trkpt>
      <trkpt lat="45.99434" lon="4.70719">
        <ele>200</ele>
        <time>2017-03-17T11:17:55Z</time>
      </trkpt>
      <trkpt lat="45.99429" lon="4.70719">
        <ele>200</ele>
        <time>2017-03-17T11:17:56Z</time>
      </trkpt>
      <trkpt lat="45.99424" lon="4.70718">
        <ele>200</ele>
        <time>2017-03-17T11:17:57Z</time>
      </trkpt>
      <trkpt lat="45.9942" lon="4.70718">
        <ele>200</ele>
        <time>2017-03-17T11:17:58Z</time>
      </trkpt>
      <trkpt lat="45.99415" lon="4.70718">
        <ele>199</ele>
        <time>2017-03-17T11:17:59Z</time>
      </trkpt>
      <trkpt lat="45.9941" lon="4.70718">
        <ele>199</ele>
        <time>2017-03-17T11:18:00Z</time>
      </trkpt>
      <trkpt lat="45.99405" lon="4.70718">
        <ele>199</ele>
        <time>2017-03-17T11:18:01Z</time>
      </trkpt>
      <trkpt lat="45.994" lon="4.70718">
        <ele>199</ele>
        <time>2017-03-17T11:18:02Z</time>
      </trkpt>
      <trkpt lat="45.99394" lon="4.70718">
        <ele>199</ele>
        <time>2017-03-17T11:18:03Z</time>
      </trkpt>
      <trkpt lat="45.99389" lon="4.70717">
        <ele>199</ele>
        <time>2017-03-17T11:18:04Z</time>
      </trkpt>
      <trkpt lat="45.99383" lon="4.70717">
        <ele>198</ele>
        <time>2017-03-17T11:18:05Z</time>
      </trkpt>
      <trkpt lat="45.99377" lon="4.70716">
        <ele>198</ele>
        <time>2017-03-17T11:18:06Z</time>
      </trkpt>
      <trkpt lat="45.9937" lon="4.70716">
        <ele>198</ele>
        <time>2017-03-17T11:18:07Z</time>
      </trkpt>
      <trkpt lat="45.99364" lon="4.70717">
        <ele>198</ele>
        <time>2017-03-17T11:18:08Z</time>
      </trkpt>
      <trkpt lat="45.99357" lon="4.70716">
        <ele>198</ele>
        <time>2017-03-17T11:18:09Z</time>
      </trkpt>
      <trkpt lat="45.99351" lon="4.70716">
        <ele>198</ele>
        <time>2017-03-17T11:18:10Z</time>
      </trkpt>
      <trkpt lat="45.99346" lon="4.70716">
        <ele>197</ele>
        <time>2017-03-17T11:18:11Z</time>
      </trkpt>
      <trkpt lat="45.9934" lon="4.70715">
        <ele>197</ele>
        <time>2017-03-17T11:18:12Z</time>
      </trkpt>
      <trkpt lat="45.99334" lon="4.70714">
        <ele>197</ele>
        <time>2017-03-17T11:18:13Z</time>
      </trkpt>
      <trkpt lat="45.99329" lon="4.70714">
        <ele>196</ele>
        <time>2017-03-17T11:18:14Z</time>
      </trkpt>
      <trkpt lat="45.99323" lon="4.70714">
        <ele>196</ele>
        <time>2017-03-17T11:18:15Z</time>
      </trkpt>
      <trkpt lat="45.99317" lon="4.70714">
        <ele>196</ele>
        <time>2017-03-17T11:18:16Z</time>
      </trkpt>
      <trkpt lat="45.99312" lon="4.70715">
        <ele>196</ele>
        <time>2017-03-17T11:18:17Z</time>
      </trkpt>
      <trkpt lat="45.99307" lon="4.70715">
        <ele>196</ele>
        <time>2017-03-17T11:18:18Z</time>
      </trkpt>
      <trkpt lat="45.99302" lon="4.70715">
        <ele>196</ele>
        <time>2017-03-17T11:18:19Z</time>
      </trkpt>
      <trkpt lat="45.99296" lon="4.70714">
        <ele>196</ele>
        <time>2017-03-17T11:18:20Z</time>
      </trkpt>
      <trkpt lat="45.99289" lon="4.70714">
        <ele>196</ele>
        <time>2017-03-17T11:18:21Z</time>
      </trkpt>
      <trkpt lat="45.99283" lon="4.70712">
        <ele>196</ele>
        <time>2017-03-17T11:18:22Z</time>
      </trkpt>
      <trkpt lat="45.99276" lon="4.70712">
        <ele>196</ele>
        <time>2017-03-17T11:18:23Z</time>
      </trkpt>
      <trkpt lat="45.9927" lon="4.70712">
        <ele>196</ele>
        <time>2017-03-17T11:18:24Z</time>
      </trkpt>
      <trkpt lat="45.99264" lon="4.70712">
        <ele>196</ele>
        <time>2017-03-17T11:18:25Z</time>
      </trkpt>
      <trkpt lat="45.99258" lon="4.70713">
        <ele>196</ele>
        <time>2017-03-17T11:18:26Z</time>
      </trkpt>
      <trkpt lat="45.99252" lon="4.70713">
        <ele>196</ele>
        <time>2017-03-17T11:18:27Z</time>
      </trkpt>
      <trkpt lat="45.99246" lon="4.70713">
        <ele>196</ele>
        <time>2017-03-17T11:18:28Z</time>
      </trkpt>
      <trkpt lat="45.9924" lon="4.70713">
        <ele>196</ele>
        <time>2017-03-17T11:18:29Z</time>
      </trkpt>
      <trkpt lat="45.99234" lon="4.70712">
        <ele>196</ele>
        <time>2017-03-17T11:18:30Z</time>
      </trkpt>
      <trkpt lat="45.99228" lon="4.70712">
        <ele>196</ele>
        <time>2017-03-17T11:18:31Z</time>
      </trkpt>
      <trkpt lat="45.99223" lon="4.70712">
        <ele>196</ele>
        <time>2017-03-17T11:18:32Z</time>
      </trkpt>
      <trkpt lat="45.99218" lon="4.70712">
        <ele>196</ele>
        <time>2017-03-17T11:18:33Z</time>
      </trkpt>
      <trkpt lat="45.99212" lon="4.70712">
        <ele>196</ele>
        <time>2017-03-17T11:18:34Z</time>
      </trkpt>
      <trkpt lat="45.99206" lon="4.70712">
        <ele>196</ele>
        <time>2017-03-17T11:18:35Z</time>
      </trkpt>
      <trkpt lat="45.99201" lon="4.70712">
        <ele>196</ele>
        <time>2017-03-17T11:18:36Z</time>
      </trkpt>
      <trkpt lat="45.99195" lon="4.70711">
        <ele>196</ele>
        <time>2017-03-17T11:18:37Z</time>
      </trkpt>
      <trkpt lat="45.9919" lon="4.70711">
        <ele>196</ele>
        <time>2017-03-17T11:18:38Z</time>
      </trkpt>
      <trkpt lat="45.99184" lon="4.70711">
        <ele>196</ele>
        <time>2017-03-17T11:18:39Z</time>
      </trkpt>
      <trkpt lat="45.99178" lon="4.70711">
        <ele>196</ele>
        <time>2017-03-17T11:18:40Z</time>
      </trkpt>
      <trkpt lat="45.99173" lon="4.70711">
        <ele>196</ele>
        <time>2017-03-17T11:18:41Z</time>
      </trkpt>
      <trkpt lat="45.99167" lon="4.7071">
        <ele>196</ele>
        <time>2017-03-17T11:18:42Z</time>
      </trkpt>
      <trkpt lat="45.99161" lon="4.70711">
        <ele>195</ele>
        <time>2017-03-17T11:18:43Z</time>
      </trkpt>
      <trkpt lat="45.99156" lon="4.7071">
        <ele>195</ele>
        <time>2017-03-17T11:18:44Z</time>
      </trkpt>
      <trkpt lat="45.9915" lon="4.7071">
        <ele>195</ele>
        <time>2017-03-17T11:18:45Z</time>
      </trkpt>
      <trkpt lat="45.99145" lon="4.70709">
        <ele>195</ele>
        <time>2017-03-17T11:18:46Z</time>
      </trkpt>
      <trkpt lat="45.9914" lon="4.70708">
        <ele>195</ele>
        <time>2017-03-17T11:18:47Z</time>
      </trkpt>
      <trkpt lat="45.99135" lon="4.70708">
        <ele>195</ele>
        <time>2017-03-17T11:18:48Z</time>
      </trkpt>
      <trkpt lat="45.9913" lon="4.70708">
        <ele>195</ele>
        <time>2017-03-17T11:18:49Z</time>
      </trkpt>
      <trkpt lat="45.99125" lon="4.70708">
        <ele>195</ele>
        <time>2017-03-17T11:18:50Z</time>
      </trkpt>
      <trkpt lat="45.9912" lon="4.70708">
        <ele>195</ele>
        <time>2017-03-17T11:18:51Z</time>
      </trkpt>
      <trkpt lat="45.99114" lon="4.70709">
        <ele>195</ele>
        <time>2017-03-17T11:18:52Z</time>
      </trkpt>
      <trkpt lat="45.99108" lon="4.70709">
        <ele>195</ele>
        <time>2017-03-17T11:18:53Z</time>
      </trkpt>
      <trkpt lat="45.99102" lon="4.70708">
        <ele>195</ele>
        <time>2017-03-17T11:18:54Z</time>
      </trkpt>
      <trkpt lat="45.99094" lon="4.70708">
        <ele>195</ele>
        <time>2017-03-17T11:18:55Z</time>
      </trkpt>
      <trkpt lat="45.99088" lon="4.70707">
        <ele>194</ele>
        <time>2017-03-17T11:18:56Z</time>
      </trkpt>
      <trkpt lat="45.99081" lon="4.70706">
        <ele>193</ele>
        <time>2017-03-17T11:18:57Z</time>
      </trkpt>
      <trkpt lat="45.99074" lon="4.70706">
        <ele>193</ele>
        <time>2017-03-17T11:18:58Z</time>
      </trkpt>
      <trkpt lat="45.99065" lon="4.70706">
        <ele>193</ele>
        <time>2017-03-17T11:18:59Z</time>
      </trkpt>
      <trkpt lat="45.99056" lon="4.70706">
        <ele>193</ele>
        <time>2017-03-17T11:19:00Z</time>
      </trkpt>
      <trkpt lat="45.99048" lon="4.70706">
        <ele>193</ele>
        <time>2017-03-17T11:19:01Z</time>
      </trkpt>
      <trkpt lat="45.9904" lon="4.70706">
        <ele>192</ele>
        <time>2017-03-17T11:19:02Z</time>
      </trkpt>
      <trkpt lat="45.9903" lon="4.70706">
        <ele>192</ele>
        <time>2017-03-17T11:19:03Z</time>
      </trkpt>
      <trkpt lat="45.99021" lon="4.70706">
        <ele>192</ele>
        <time>2017-03-17T11:19:04Z</time>
      </trkpt>
      <trkpt lat="45.99012" lon="4.70707">
        <ele>192</ele>
        <time>2017-03-17T11:19:05Z</time>
      </trkpt>
      <trkpt lat="45.99004" lon="4.70709">
        <ele>192</ele>
        <time>2017-03-17T11:19:06Z</time>
      </trkpt>
      <trkpt lat="45.98996" lon="4.70712">
        <ele>191</ele>
        <time>2017-03-17T11:19:07Z</time>
      </trkpt>
      <trkpt lat="45.98989" lon="4.70715">
        <ele>191</ele>
        <time>2017-03-17T11:19:08Z</time>
      </trkpt>
      <trkpt lat="45.98982" lon="4.70718">
        <ele>191</ele>
        <time>2017-03-17T11:19:09Z</time>
      </trkpt>
      <trkpt lat="45.98975" lon="4.70723">
        <ele>191</ele>
        <time>2017-03-17T11:19:10Z</time>
      </trkpt>
      <trkpt lat="45.98969" lon="4.7073">
        <ele>191</ele>
        <time>2017-03-17T11:19:11Z</time>
      </trkpt>
      <trkpt lat="45.98963" lon="4.70737">
        <ele>191</ele>
        <time>2017-03-17T11:19:12Z</time>
      </trkpt>
      <trkpt lat="45.98958" lon="4.70744">
        <ele>190</ele>
        <time>2017-03-17T11:19:13Z</time>
      </trkpt>
      <trkpt lat="45.98954" lon="4.70751">
        <ele>189</ele>
        <time>2017-03-17T11:19:14Z</time>
      </trkpt>
      <trkpt lat="45.98951" lon="4.70757">
        <ele>189</ele>
        <time>2017-03-17T11:19:15Z</time>
      </trkpt>
      <trkpt lat="45.98948" lon="4.70763">
        <ele>189</ele>
        <time>2017-03-17T11:19:16Z</time>
      </trkpt>
      <trkpt lat="45.98944" lon="4.70772">
        <ele>189</ele>
        <time>2017-03-17T11:19:18Z</time>
      </trkpt>
      <trkpt lat="45.98941" lon="4.70776">
        <ele>189</ele>
        <time>2017-03-17T11:19:19Z</time>
      </trkpt>
      <trkpt lat="45.98936" lon="4.70784">
        <ele>189</ele>
        <time>2017-03-17T11:19:22Z</time>
      </trkpt>
      <trkpt lat="45.98935" lon="4.70786">
        <ele>189</ele>
        <time>2017-03-17T11:19:23Z</time>
      </trkpt>
      <trkpt lat="45.98934" lon="4.70789">
        <ele>189</ele>
        <time>2017-03-17T11:19:30Z</time>
      </trkpt>
      <trkpt lat="45.98933" lon="4.70791">
        <ele>189</ele>
        <time>2017-03-17T11:19:31Z</time>
      </trkpt>
      <trkpt lat="45.98931" lon="4.70793">
        <ele>189</ele>
        <time>2017-03-17T11:19:32Z</time>
      </trkpt>
      <trkpt lat="45.98925" lon="4.70802">
        <ele>188</ele>
        <time>2017-03-17T11:19:35Z</time>
      </trkpt>
      <trkpt lat="45.98922" lon="4.70807">
        <ele>188</ele>
        <time>2017-03-17T11:19:36Z</time>
      </trkpt>
      <trkpt lat="45.98919" lon="4.70811">
        <ele>188</ele>
        <time>2017-03-17T11:19:37Z</time>
      </trkpt>
      <trkpt lat="45.98916" lon="4.70817">
        <ele>188</ele>
        <time>2017-03-17T11:19:38Z</time>
      </trkpt>
      <trkpt lat="45.98912" lon="4.70824">
        <ele>188</ele>
        <time>2017-03-17T11:19:39Z</time>
      </trkpt>
      <trkpt lat="45.98908" lon="4.70831">
        <ele>187</ele>
        <time>2017-03-17T11:19:40Z</time>
      </trkpt>
      <trkpt lat="45.98904" lon="4.70838">
        <ele>187</ele>
        <time>2017-03-17T11:19:41Z</time>
      </trkpt>
      <trkpt lat="45.989" lon="4.70845">
        <ele>186</ele>
        <time>2017-03-17T11:19:42Z</time>
      </trkpt>
      <trkpt lat="45.98896" lon="4.70851">
        <ele>186</ele>
        <time>2017-03-17T11:19:43Z</time>
      </trkpt>
      <trkpt lat="45.98892" lon="4.70858">
        <ele>186</ele>
        <time>2017-03-17T11:19:44Z</time>
      </trkpt>
      <trkpt lat="45.98889" lon="4.70865">
        <ele>186</ele>
        <time>2017-03-17T11:19:45Z</time>
      </trkpt>
      <trkpt lat="45.98885" lon="4.70872">
        <ele>186</ele>
        <time>2017-03-17T11:19:46Z</time>
      </trkpt>
      <trkpt lat="45.98882" lon="4.70878">
        <ele>186</ele>
        <time>2017-03-17T11:19:47Z</time>
      </trkpt>
      <trkpt lat="45.98879" lon="4.70885">
        <ele>186</ele>
        <time>2017-03-17T11:19:48Z</time>
      </trkpt>
      <trkpt lat="45.98876" lon="4.70892">
        <ele>186</ele>
        <time>2017-03-17T11:19:49Z</time>
      </trkpt>
      <trkpt lat="45.98872" lon="4.70899">
        <ele>186</ele>
        <time>2017-03-17T11:19:50Z</time>
      </trkpt>
      <trkpt lat="45.98869" lon="4.70906">
        <ele>186</ele>
        <time>2017-03-17T11:19:51Z</time>
      </trkpt>
      <trkpt lat="45.98868" lon="4.70912">
        <ele>186</ele>
        <time>2017-03-17T11:19:52Z</time>
      </trkpt>
      <trkpt lat="45.98866" lon="4.70919">
        <ele>185</ele>
        <time>2017-03-17T11:19:53Z</time>
      </trkpt>
      <trkpt lat="45.98864" lon="4.70927">
        <ele>185</ele>
        <time>2017-03-17T11:19:54Z</time>
      </trkpt>
      <trkpt lat="45.98861" lon="4.70934">
        <ele>185</ele>
        <time>2017-03-17T11:19:55Z</time>
      </trkpt>
      <trkpt lat="45.98858" lon="4.70941">
        <ele>185</ele>
        <time>2017-03-17T11:19:56Z</time>
      </trkpt>
      <trkpt lat="45.98856" lon="4.70949">
        <ele>185</ele>
        <time>2017-03-17T11:19:57Z</time>
      </trkpt>
      <trkpt lat="45.98854" lon="4.70956">
        <ele>185</ele>
        <time>2017-03-17T11:19:58Z</time>
      </trkpt>
      <trkpt lat="45.98852" lon="4.70964">
        <ele>185</ele>
        <time>2017-03-17T11:19:59Z</time>
      </trkpt>
      <trkpt lat="45.9885" lon="4.70972">
        <ele>185</ele>
        <time>2017-03-17T11:20:00Z</time>
      </trkpt>
      <trkpt lat="45.98849" lon="4.70978">
        <ele>185</ele>
        <time>2017-03-17T11:20:01Z</time>
      </trkpt>
      <trkpt lat="45.98847" lon="4.70985">
        <ele>185</ele>
        <time>2017-03-17T11:20:02Z</time>
      </trkpt>
      <trkpt lat="45.98845" lon="4.70992">
        <ele>185</ele>
        <time>2017-03-17T11:20:03Z</time>
      </trkpt>
      <trkpt lat="45.98843" lon="4.70999">
        <ele>185</ele>
        <time>2017-03-17T11:20:04Z</time>
      </trkpt>
      <trkpt lat="45.9884" lon="4.71005">
        <ele>185</ele>
        <time>2017-03-17T11:20:05Z</time>
      </trkpt>
      <trkpt lat="45.98837" lon="4.71012">
        <ele>185</ele>
        <time>2017-03-17T11:20:06Z</time>
      </trkpt>
      <trkpt lat="45.98835" lon="4.71019">
        <ele>185</ele>
        <time>2017-03-17T11:20:07Z</time>
      </trkpt>
      <trkpt lat="45.98833" lon="4.71025">
        <ele>186</ele>
        <time>2017-03-17T11:20:08Z</time>
      </trkpt>
      <trkpt lat="45.9883" lon="4.71033">
        <ele>186</ele>
        <time>2017-03-17T11:20:09Z</time>
      </trkpt>
      <trkpt lat="45.98827" lon="4.71039">
        <ele>187</ele>
        <time>2017-03-17T11:20:10Z</time>
      </trkpt>
      <trkpt lat="45.98825" lon="4.71047">
        <ele>187</ele>
        <time>2017-03-17T11:20:11Z</time>
      </trkpt>
      <trkpt lat="45.98823" lon="4.71054">
        <ele>187</ele>
        <time>2017-03-17T11:20:12Z</time>
      </trkpt>
      <trkpt lat="45.9882" lon="4.71062">
        <ele>187</ele>
        <time>2017-03-17T11:20:13Z</time>
      </trkpt>
      <trkpt lat="45.98818" lon="4.71069">
        <ele>187</ele>
        <time>2017-03-17T11:20:14Z</time>
      </trkpt>
      <trkpt lat="45.98816" lon="4.71075">
        <ele>187</ele>
        <time>2017-03-17T11:20:15Z</time>
      </trkpt>
      <trkpt lat="45.98814" lon="4.71081">
        <ele>187</ele>
        <time>2017-03-17T11:20:16Z</time>
      </trkpt>
      <trkpt lat="45.98811" lon="4.71088">
        <ele>188</ele>
        <time>2017-03-17T11:20:17Z</time>
      </trkpt>
      <trkpt lat="45.98809" lon="4.71094">
        <ele>188</ele>
        <time>2017-03-17T11:20:18Z</time>
      </trkpt>
      <trkpt lat="45.98807" lon="4.71101">
        <ele>188</ele>
        <time>2017-03-17T11:20:19Z</time>
      </trkpt>
      <trkpt lat="45.98805" lon="4.71107">
        <ele>187</ele>
        <time>2017-03-17T11:20:20Z</time>
      </trkpt>
      <trkpt lat="45.98803" lon="4.71114">
        <ele>187</ele>
        <time>2017-03-17T11:20:21Z</time>
      </trkpt>
      <trkpt lat="45.98801" lon="4.71121">
        <ele>187</ele>
        <time>2017-03-17T11:20:22Z</time>
      </trkpt>
      <trkpt lat="45.98799" lon="4.71129">
        <ele>187</ele>
        <time>2017-03-17T11:20:23Z</time>
      </trkpt>
      <trkpt lat="45.98798" lon="4.71136">
        <ele>187</ele>
        <time>2017-03-17T11:20:24Z</time>
      </trkpt>
      <trkpt lat="45.98797" lon="4.71144">
        <ele>187</ele>
        <time>2017-03-17T11:20:25Z</time>
      </trkpt>
      <trkpt lat="45.98794" lon="4.71152">
        <ele>187</ele>
        <time>2017-03-17T11:20:26Z</time>
      </trkpt>
      <trkpt lat="45.98793" lon="4.7116">
        <ele>187</ele>
        <time>2017-03-17T11:20:27Z</time>
      </trkpt>
      <trkpt lat="45.9879" lon="4.71167">
        <ele>186</ele>
        <time>2017-03-17T11:20:28Z</time>
      </trkpt>
      <trkpt lat="45.98788" lon="4.71174">
        <ele>186</ele>
        <time>2017-03-17T11:20:29Z</time>
      </trkpt>
      <trkpt lat="45.98786" lon="4.71182">
        <ele>186</ele>
        <time>2017-03-17T11:20:30Z</time>
      </trkpt>
      <trkpt lat="45.98783" lon="4.71188">
        <ele>186</ele>
        <time>2017-03-17T11:20:31Z</time>
      </trkpt>
      <trkpt lat="45.9878" lon="4.71196">
        <ele>186</ele>
        <time>2017-03-17T11:20:32Z</time>
      </trkpt>
      <trkpt lat="45.98777" lon="4.71204">
        <ele>186</ele>
        <time>2017-03-17T11:20:33Z</time>
      </trkpt>
      <trkpt lat="45.98774" lon="4.71213">
        <ele>186</ele>
        <time>2017-03-17T11:20:34Z</time>
      </trkpt>
      <trkpt lat="45.98771" lon="4.71221">
        <ele>186</ele>
        <time>2017-03-17T11:20:35Z</time>
      </trkpt>
      <trkpt lat="45.98768" lon="4.71228">
        <ele>186</ele>
        <time>2017-03-17T11:20:36Z</time>
      </trkpt>
      <trkpt lat="45.98766" lon="4.71235">
        <ele>186</ele>
        <time>2017-03-17T11:20:37Z</time>
      </trkpt>
      <trkpt lat="45.98764" lon="4.71242">
        <ele>186</ele>
        <time>2017-03-17T11:20:38Z</time>
      </trkpt>
      <trkpt lat="45.98762" lon="4.71249">
        <ele>187</ele>
        <time>2017-03-17T11:20:39Z</time>
      </trkpt>
      <trkpt lat="45.98761" lon="4.71256">
        <ele>186</ele>
        <time>2017-03-17T11:20:40Z</time>
      </trkpt>
      <trkpt lat="45.9876" lon="4.71263">
        <ele>186</ele>
        <time>2017-03-17T11:20:41Z</time>
      </trkpt>
      <trkpt lat="45.98758" lon="4.7127">
        <ele>186</ele>
        <time>2017-03-17T11:20:42Z</time>
      </trkpt>
      <trkpt lat="45.98756" lon="4.71277">
        <ele>186</ele>
        <time>2017-03-17T11:20:43Z</time>
      </trkpt>
      <trkpt lat="45.98754" lon="4.71284">
        <ele>185</ele>
        <time>2017-03-17T11:20:44Z</time>
      </trkpt>
      <trkpt lat="45.98752" lon="4.7129">
        <ele>185</ele>
        <time>2017-03-17T11:20:45Z</time>
      </trkpt>
      <trkpt lat="45.9875" lon="4.71298">
        <ele>188</ele>
        <time>2017-03-17T11:20:46Z</time>
      </trkpt>
      <trkpt lat="45.98748" lon="4.71305">
        <ele>188</ele>
        <time>2017-03-17T11:20:47Z</time>
      </trkpt>
      <trkpt lat="45.98746" lon="4.71312">
        <ele>188</ele>
        <time>2017-03-17T11:20:48Z</time>
      </trkpt>
      <trkpt lat="45.98744" lon="4.7132">
        <ele>187</ele>
        <time>2017-03-17T11:20:49Z</time>
      </trkpt>
      <trkpt lat="45.98742" lon="4.71327">
        <ele>187</ele>
        <time>2017-03-17T11:20:50Z</time>
      </trkpt>
      <trkpt lat="45.9874" lon="4.71333">
        <ele>187</ele>
        <time>2017-03-17T11:20:51Z</time>
      </trkpt>
      <trkpt lat="45.98739" lon="4.7134">
        <ele>187</ele>
        <time>2017-03-17T11:20:52Z</time>
      </trkpt>
      <trkpt lat="45.98736" lon="4.71347">
        <ele>187</ele>
        <time>2017-03-17T11:20:53Z</time>
      </trkpt>
      <trkpt lat="45.98734" lon="4.71354">
        <ele>187</ele>
        <time>2017-03-17T11:20:54Z</time>
      </trkpt>
      <trkpt lat="45.98731" lon="4.7136">
        <ele>187</ele>
        <time>2017-03-17T11:20:55Z</time>
      </trkpt>
      <trkpt lat="45.98729" lon="4.71366">
        <ele>187</ele>
        <time>2017-03-17T11:20:56Z</time>
      </trkpt>
      <trkpt lat="45.98726" lon="4.71378">
        <ele>187</ele>
        <time>2017-03-17T11:20:58Z</time>
      </trkpt>
      <trkpt lat="45.98725" lon="4.71384">
        <ele>187</ele>
        <time>2017-03-17T11:20:59Z</time>
      </trkpt>
      <trkpt lat="45.98722" lon="4.71395">
        <ele>187</ele>
        <time>2017-03-17T11:21:01Z</time>
      </trkpt>
      <trkpt lat="45.98721" lon="4.714">
        <ele>187</ele>
        <time>2017-03-17T11:21:02Z</time>
      </trkpt>
      <trkpt lat="45.98718" lon="4.71411">
        <ele>187</ele>
        <time>2017-03-17T11:21:04Z</time>
      </trkpt>
      <trkpt lat="45.98716" lon="4.71417">
        <ele>187</ele>
        <time>2017-03-17T11:21:05Z</time>
      </trkpt>
      <trkpt lat="45.98713" lon="4.71427">
        <ele>186</ele>
        <time>2017-03-17T11:21:07Z</time>
      </trkpt>
      <trkpt lat="45.98712" lon="4.71432">
        <ele>186</ele>
        <time>2017-03-17T11:21:08Z</time>
      </trkpt>
      <trkpt lat="45.98709" lon="4.7144">
        <ele>186</ele>
        <time>2017-03-17T11:21:10Z</time>
      </trkpt>
      <trkpt lat="45.98708" lon="4.71444">
        <ele>187</ele>
        <time>2017-03-17T11:21:11Z</time>
      </trkpt>
      <trkpt lat="45.98707" lon="4.71452">
        <ele>187</ele>
        <time>2017-03-17T11:21:14Z</time>
      </trkpt>
      <trkpt lat="45.98706" lon="4.71452">
        <ele>187</ele>
        <time>2017-03-17T11:21:15Z</time>
      </trkpt>
      <trkpt lat="45.98703" lon="4.71454">
        <ele>187</ele>
        <time>2017-03-17T11:21:21Z</time>
      </trkpt>
      <trkpt lat="45.98702" lon="4.71456">
        <ele>187</ele>
        <time>2017-03-17T11:21:22Z</time>
      </trkpt>
      <trkpt lat="45.98699" lon="4.71465">
        <ele>187</ele>
        <time>2017-03-17T11:21:26Z</time>
      </trkpt>
      <trkpt lat="45.98697" lon="4.71469">
        <ele>187</ele>
        <time>2017-03-17T11:21:27Z</time>
      </trkpt>
      <trkpt lat="45.98689" lon="4.71473">
        <ele>187</ele>
        <time>2017-03-17T11:21:29Z</time>
      </trkpt>
      <trkpt lat="45.98684" lon="4.71474">
        <ele>187</ele>
        <time>2017-03-17T11:21:30Z</time>
      </trkpt>
      <trkpt lat="45.98677" lon="4.71477">
        <ele>188</ele>
        <time>2017-03-17T11:21:32Z</time>
      </trkpt>
      <trkpt lat="45.98673" lon="4.71478">
        <ele>188</ele>
        <time>2017-03-17T11:21:33Z</time>
      </trkpt>
      <trkpt lat="45.98666" lon="4.7148">
        <ele>190</ele>
        <time>2017-03-17T11:21:35Z</time>
      </trkpt>
      <trkpt lat="45.98663" lon="4.71482">
        <ele>190</ele>
        <time>2017-03-17T11:21:36Z</time>
      </trkpt>
      <trkpt lat="45.98657" lon="4.71484">
        <ele>190</ele>
        <time>2017-03-17T11:21:38Z</time>
      </trkpt>
      <trkpt lat="45.98654" lon="4.71485">
        <ele>190</ele>
        <time>2017-03-17T11:21:39Z</time>
      </trkpt>
      <trkpt lat="45.98647" lon="4.71486">
        <ele>190</ele>
        <time>2017-03-17T11:21:42Z</time>
      </trkpt>
      <trkpt lat="45.98645" lon="4.71485">
        <ele>190</ele>
        <time>2017-03-17T11:21:43Z</time>
      </trkpt>
      <trkpt lat="45.98636" lon="4.71489">
        <ele>190</ele>
        <time>2017-03-17T11:21:46Z</time>
      </trkpt>
      <trkpt lat="45.98634" lon="4.7149">
        <ele>190</ele>
        <time>2017-03-17T11:21:47Z</time>
      </trkpt>
      <trkpt lat="45.98625" lon="4.71493">
        <ele>190</ele>
        <time>2017-03-17T11:21:49Z</time>
      </trkpt>
      <trkpt lat="45.9862" lon="4.71496">
        <ele>190</ele>
        <time>2017-03-17T11:21:50Z</time>
      </trkpt>
      <trkpt lat="45.98616" lon="4.71496">
        <ele>191</ele>
        <time>2017-03-17T11:21:51Z</time>
      </trkpt>
      <trkpt lat="45.98611" lon="4.71498">
        <ele>191</ele>
        <time>2017-03-17T11:21:52Z</time>
      </trkpt>
      <trkpt lat="45.98602" lon="4.715">
        <ele>191</ele>
        <time>2017-03-17T11:21:54Z</time>
      </trkpt>
      <trkpt lat="45.98598" lon="4.71501">
        <ele>192</ele>
        <time>2017-03-17T11:21:55Z</time>
      </trkpt>
      <trkpt lat="45.98591" lon="4.71502">
        <ele>192</ele>
        <time>2017-03-17T11:21:57Z</time>
      </trkpt>
      <trkpt lat="45.98587" lon="4.71503">
        <ele>192</ele>
        <time>2017-03-17T11:21:58Z</time>
      </trkpt>
      <trkpt lat="45.9858" lon="4.71504">
        <ele>192</ele>
        <time>2017-03-17T11:22:00Z</time>
      </trkpt>
      <trkpt lat="45.98576" lon="4.71505">
        <ele>193</ele>
        <time>2017-03-17T11:22:01Z</time>
      </trkpt>
      <trkpt lat="45.98569" lon="4.71507">
        <ele>193</ele>
        <time>2017-03-17T11:22:03Z</time>
      </trkpt>
      <trkpt lat="45.98565" lon="4.71508">
        <ele>193</ele>
        <time>2017-03-17T11:22:04Z</time>
      </trkpt>
      <trkpt lat="45.98558" lon="4.71509">
        <ele>194</ele>
        <time>2017-03-17T11:22:06Z</time>
      </trkpt>
      <trkpt lat="45.98555" lon="4.71509">
        <ele>194</ele>
        <time>2017-03-17T11:22:07Z</time>
      </trkpt>
      <trkpt lat="45.98547" lon="4.71512">
        <ele>194</ele>
        <time>2017-03-17T11:22:11Z</time>
      </trkpt>
      <trkpt lat="45.98544" lon="4.71512">
        <ele>194</ele>
        <time>2017-03-17T11:22:12Z</time>
      </trkpt>
      <trkpt lat="45.98537" lon="4.71514">
        <ele>194</ele>
        <time>2017-03-17T11:22:15Z</time>
      </trkpt>
      <trkpt lat="45.98534" lon="4.71515">
        <ele>194</ele>
        <time>2017-03-17T11:22:16Z</time>
      </trkpt>
      <trkpt lat="45.98527" lon="4.71517">
        <ele>194</ele>
        <time>2017-03-17T11:22:25Z</time>
      </trkpt>
      <trkpt lat="45.98523" lon="4.71517">
        <ele>194</ele>
        <time>2017-03-17T11:22:26Z</time>
      </trkpt>
      <trkpt lat="45.98514" lon="4.71516">
        <ele>195</ele>
        <time>2017-03-17T11:22:32Z</time>
      </trkpt>
      <trkpt lat="45.98512" lon="4.71516">
        <ele>195</ele>
        <time>2017-03-17T11:22:33Z</time>
      </trkpt>
      <trkpt lat="45.98506" lon="4.71516">
        <ele>195</ele>
        <time>2017-03-17T11:22:34Z</time>
      </trkpt>
      <trkpt lat="45.98502" lon="4.71517">
        <ele>195</ele>
        <time>2017-03-17T11:22:35Z</time>
      </trkpt>
      <trkpt lat="45.98493" lon="4.71519">
        <ele>196</ele>
        <time>2017-03-17T11:22:37Z</time>
      </trkpt>
      <trkpt lat="45.98489" lon="4.71519">
        <ele>196</ele>
        <time>2017-03-17T11:22:38Z</time>
      </trkpt>
      <trkpt lat="45.9848" lon="4.7152">
        <ele>196</ele>
        <time>2017-03-17T11:22:40Z</time>
      </trkpt>
      <trkpt lat="45.98476" lon="4.71521">
        <ele>196</ele>
        <time>2017-03-17T11:22:41Z</time>
      </trkpt>
      <trkpt lat="45.98467" lon="4.71524">
        <ele>197</ele>
        <time>2017-03-17T11:22:43Z</time>
      </trkpt>
      <trkpt lat="45.98463" lon="4.71525">
        <ele>197</ele>
        <time>2017-03-17T11:22:44Z</time>
      </trkpt>
      <trkpt lat="45.98455" lon="4.71526">
        <ele>197</ele>
        <time>2017-03-17T11:22:46Z</time>
      </trkpt>
      <trkpt lat="45.9845" lon="4.71528">
        <ele>197</ele>
        <time>2017-03-17T11:22:47Z</time>
      </trkpt>
      <trkpt lat="45.98443" lon="4.71532">
        <ele>197</ele>
        <time>2017-03-17T11:22:49Z</time>
      </trkpt>
      <trkpt lat="45.98439" lon="4.71535">
        <ele>197</ele>
        <time>2017-03-17T11:22:50Z</time>
      </trkpt>
      <trkpt lat="45.98435" lon="4.71538">
        <ele>197</ele>
        <time>2017-03-17T11:22:51Z</time>
      </trkpt>
      <trkpt lat="45.9843" lon="4.71543">
        <ele>197</ele>
        <time>2017-03-17T11:22:52Z</time>
      </trkpt>
      <trkpt lat="45.98424" lon="4.71545">
        <ele>197</ele>
        <time>2017-03-17T11:22:53Z</time>
      </trkpt>
      <trkpt lat="45.9842" lon="4.71549">
        <ele>197</ele>
        <time>2017-03-17T11:22:54Z</time>
      </trkpt>
      <trkpt lat="45.98415" lon="4.71553">
        <ele>198</ele>
        <time>2017-03-17T11:22:55Z</time>
      </trkpt>
      <trkpt lat="45.98411" lon="4.71557">
        <ele>198</ele>
        <time>2017-03-17T11:22:56Z</time>
      </trkpt>
      <trkpt lat="45.98407" lon="4.71561">
        <ele>198</ele>
        <time>2017-03-17T11:22:57Z</time>
      </trkpt>
      <trkpt lat="45.98402" lon="4.71565">
        <ele>198</ele>
        <time>2017-03-17T11:22:58Z</time>
      </trkpt>
      <trkpt lat="45.98398" lon="4.71569">
        <ele>198</ele>
        <time>2017-03-17T11:22:59Z</time>
      </trkpt>
      <trkpt lat="45.98393" lon="4.71573">
        <ele>198</ele>
        <time>2017-03-17T11:23:00Z</time>
      </trkpt>
      <trkpt lat="45.98389" lon="4.71577">
        <ele>198</ele>
        <time>2017-03-17T11:23:01Z</time>
      </trkpt>
      <trkpt lat="45.98385" lon="4.7158">
        <ele>198</ele>
        <time>2017-03-17T11:23:02Z</time>
      </trkpt>
      <trkpt lat="45.9838" lon="4.71585">
        <ele>198</ele>
        <time>2017-03-17T11:23:03Z</time>
      </trkpt>
      <trkpt lat="45.98375" lon="4.71588">
        <ele>198</ele>
        <time>2017-03-17T11:23:04Z</time>
      </trkpt>
      <trkpt lat="45.9837" lon="4.71589">
        <ele>198</ele>
        <time>2017-03-17T11:23:05Z</time>
      </trkpt>
      <trkpt lat="45.98366" lon="4.71589">
        <ele>198</ele>
        <time>2017-03-17T11:23:06Z</time>
      </trkpt>
      <trkpt lat="45.98358" lon="4.71587">
        <ele>198</ele>
        <time>2017-03-17T11:23:08Z</time>
      </trkpt>
      <trkpt lat="45.98354" lon="4.71585">
        <ele>198</ele>
        <time>2017-03-17T11:23:09Z</time>
      </trkpt>
      <trkpt lat="45.98346" lon="4.7158">
        <ele>199</ele>
        <time>2017-03-17T11:23:11Z</time>
      </trkpt>
      <trkpt lat="45.98342" lon="4.71577">
        <ele>199</ele>
        <time>2017-03-17T11:23:12Z</time>
      </trkpt>
      <trkpt lat="45.98337" lon="4.71573">
        <ele>199</ele>
        <time>2017-03-17T11:23:13Z</time>
      </trkpt>
      <trkpt lat="45.98333" lon="4.7157">
        <ele>199</ele>
        <time>2017-03-17T11:23:14Z</time>
      </trkpt>
      <trkpt lat="45.98329" lon="4.71568">
        <ele>198</ele>
        <time>2017-03-17T11:23:15Z</time>
      </trkpt>
      <trkpt lat="45.98324" lon="4.71565">
        <ele>198</ele>
        <time>2017-03-17T11:23:16Z</time>
      </trkpt>
      <trkpt lat="45.98319" lon="4.71562">
        <ele>198</ele>
        <time>2017-03-17T11:23:17Z</time>
      </trkpt>
      <trkpt lat="45.98314" lon="4.71559">
        <ele>198</ele>
        <time>2017-03-17T11:23:18Z</time>
      </trkpt>
      <trkpt lat="45.98309" lon="4.71556">
        <ele>198</ele>
        <time>2017-03-17T11:23:19Z</time>
      </trkpt>
      <trkpt lat="45.98305" lon="4.71554">
        <ele>198</ele>
        <time>2017-03-17T11:23:20Z</time>
      </trkpt>
      <trkpt lat="45.98301" lon="4.71551">
        <ele>198</ele>
        <time>2017-03-17T11:23:21Z</time>
      </trkpt>
      <trkpt lat="45.98296" lon="4.71548">
        <ele>198</ele>
        <time>2017-03-17T11:23:22Z</time>
      </trkpt>
      <trkpt lat="45.98292" lon="4.71545">
        <ele>198</ele>
        <time>2017-03-17T11:23:23Z</time>
      </trkpt>
      <trkpt lat="45.98287" lon="4.71543">
        <ele>198</ele>
        <time>2017-03-17T11:23:24Z</time>
      </trkpt>
      <trkpt lat="45.98283" lon="4.7154">
        <ele>198</ele>
        <time>2017-03-17T11:23:25Z</time>
      </trkpt>
      <trkpt lat="45.98278" lon="4.71536">
        <ele>198</ele>
        <time>2017-03-17T11:23:26Z</time>
      </trkpt>
      <trkpt lat="45.98273" lon="4.71533">
        <ele>197</ele>
        <time>2017-03-17T11:23:27Z</time>
      </trkpt>
      <trkpt lat="45.98269" lon="4.71531">
        <ele>197</ele>
        <time>2017-03-17T11:23:28Z</time>
      </trkpt>
      <trkpt lat="45.98264" lon="4.71528">
        <ele>197</ele>
        <time>2017-03-17T11:23:29Z</time>
      </trkpt>
      <trkpt lat="45.98259" lon="4.71525">
        <ele>197</ele>
        <time>2017-03-17T11:23:30Z</time>
      </trkpt>
      <trkpt lat="45.98254" lon="4.71522">
        <ele>197</ele>
        <time>2017-03-17T11:23:31Z</time>
      </trkpt>
      <trkpt lat="45.9825" lon="4.7152">
        <ele>197</ele>
        <time>2017-03-17T11:23:32Z</time>
      </trkpt>
      <trkpt lat="45.98246" lon="4.71518">
        <ele>196</ele>
        <time>2017-03-17T11:23:33Z</time>
      </trkpt>
      <trkpt lat="45.98241" lon="4.71515">
        <ele>196</ele>
        <time>2017-03-17T11:23:34Z</time>
      </trkpt>
      <trkpt lat="45.98238" lon="4.71511">
        <ele>196</ele>
        <time>2017-03-17T11:23:35Z</time>
      </trkpt>
      <trkpt lat="45.98233" lon="4.71508">
        <ele>196</ele>
        <time>2017-03-17T11:23:36Z</time>
      </trkpt>
      <trkpt lat="45.98228" lon="4.71506">
        <ele>196</ele>
        <time>2017-03-17T11:23:37Z</time>
      </trkpt>
      <trkpt lat="45.98223" lon="4.71503">
        <ele>196</ele>
        <time>2017-03-17T11:23:38Z</time>
      </trkpt>
      <trkpt lat="45.98219" lon="4.715">
        <ele>196</ele>
        <time>2017-03-17T11:23:39Z</time>
      </trkpt>
      <trkpt lat="45.98214" lon="4.71497">
        <ele>197</ele>
        <time>2017-03-17T11:23:40Z</time>
      </trkpt>
      <trkpt lat="45.9821" lon="4.71495">
        <ele>197</ele>
        <time>2017-03-17T11:23:41Z</time>
      </trkpt>
      <trkpt lat="45.98205" lon="4.71493">
        <ele>197</ele>
        <time>2017-03-17T11:23:42Z</time>
      </trkpt>
      <trkpt lat="45.98201" lon="4.71491">
        <ele>197</ele>
        <time>2017-03-17T11:23:43Z</time>
      </trkpt>
      <trkpt lat="45.98196" lon="4.7149">
        <ele>197</ele>
        <time>2017-03-17T11:23:44Z</time>
      </trkpt>
      <trkpt lat="45.98192" lon="4.71489">
        <ele>197</ele>
        <time>2017-03-17T11:23:45Z</time>
      </trkpt>
      <trkpt lat="45.98187" lon="4.71489">
        <ele>197</ele>
        <time>2017-03-17T11:23:46Z</time>
      </trkpt>
      <trkpt lat="45.98181" lon="4.71491">
        <ele>197</ele>
        <time>2017-03-17T11:23:47Z</time>
      </trkpt>
      <trkpt lat="45.98175" lon="4.71493">
        <ele>197</ele>
        <time>2017-03-17T11:23:48Z</time>
      </trkpt>
      <trkpt lat="45.9817" lon="4.71495">
        <ele>197</ele>
        <time>2017-03-17T11:23:49Z</time>
      </trkpt>
      <trkpt lat="45.98165" lon="4.71498">
        <ele>197</ele>
        <time>2017-03-17T11:23:50Z</time>
      </trkpt>
      <trkpt lat="45.98159" lon="4.71501">
        <ele>197</ele>
        <time>2017-03-17T11:23:51Z</time>
      </trkpt>
      <trkpt lat="45.98154" lon="4.71504">
        <ele>197</ele>
        <time>2017-03-17T11:23:52Z</time>
      </trkpt>
      <trkpt lat="45.98148" lon="4.71507">
        <ele>197</ele>
        <time>2017-03-17T11:23:53Z</time>
      </trkpt>
      <trkpt lat="45.98143" lon="4.71511">
        <ele>197</ele>
        <time>2017-03-17T11:23:54Z</time>
      </trkpt>
      <trkpt lat="45.98138" lon="4.71514">
        <ele>197</ele>
        <time>2017-03-17T11:23:55Z</time>
      </trkpt>
      <trkpt lat="45.98134" lon="4.71517">
        <ele>197</ele>
        <time>2017-03-17T11:23:56Z</time>
      </trkpt>
      <trkpt lat="45.98129" lon="4.7152">
        <ele>197</ele>
        <time>2017-03-17T11:23:57Z</time>
      </trkpt>
      <trkpt lat="45.98125" lon="4.71523">
        <ele>197</ele>
        <time>2017-03-17T11:23:58Z</time>
      </trkpt>
      <trkpt lat="45.98121" lon="4.71526">
        <ele>197</ele>
        <time>2017-03-17T11:23:59Z</time>
      </trkpt>
      <trkpt lat="45.98116" lon="4.71529">
        <ele>197</ele>
        <time>2017-03-17T11:24:00Z</time>
      </trkpt>
      <trkpt lat="45.98112" lon="4.71531">
        <ele>197</ele>
        <time>2017-03-17T11:24:01Z</time>
      </trkpt>
      <trkpt lat="45.98108" lon="4.71534">
        <ele>197</ele>
        <time>2017-03-17T11:24:02Z</time>
      </trkpt>
      <trkpt lat="45.981" lon="4.71539">
        <ele>197</ele>
        <time>2017-03-17T11:24:04Z</time>
      </trkpt>
      <trkpt lat="45.98095" lon="4.71541">
        <ele>197</ele>
        <time>2017-03-17T11:24:05Z</time>
      </trkpt>
      <trkpt lat="45.98089" lon="4.71544">
        <ele>198</ele>
        <time>2017-03-17T11:24:06Z</time>
      </trkpt>
      <trkpt lat="45.98085" lon="4.71547">
        <ele>198</ele>
        <time>2017-03-17T11:24:07Z</time>
      </trkpt>
      <trkpt lat="45.98079" lon="4.71549">
        <ele>198</ele>
        <time>2017-03-17T11:24:08Z</time>
      </trkpt>
      <trkpt lat="45.98074" lon="4.71551">
        <ele>198</ele>
        <time>2017-03-17T11:24:09Z</time>
      </trkpt>
      <trkpt lat="45.98069" lon="4.71554">
        <ele>198</ele>
        <time>2017-03-17T11:24:10Z</time>
      </trkpt>
      <trkpt lat="45.98065" lon="4.71558">
        <ele>198</ele>
        <time>2017-03-17T11:24:11Z</time>
      </trkpt>
      <trkpt lat="45.9806" lon="4.71561">
        <ele>198</ele>
        <time>2017-03-17T11:24:12Z</time>
      </trkpt>
      <trkpt lat="45.98056" lon="4.71565">
        <ele>198</ele>
        <time>2017-03-17T11:24:13Z</time>
      </trkpt>
      <trkpt lat="45.98051" lon="4.71568">
        <ele>198</ele>
        <time>2017-03-17T11:24:14Z</time>
      </trkpt>
      <trkpt lat="45.98047" lon="4.71572">
        <ele>198</ele>
        <time>2017-03-17T11:24:15Z</time>
      </trkpt>
      <trkpt lat="45.9804" lon="4.71578">
        <ele>198</ele>
        <time>2017-03-17T11:24:17Z</time>
      </trkpt>
      <trkpt lat="45.98035" lon="4.71582">
        <ele>198</ele>
        <time>2017-03-17T11:24:18Z</time>
      </trkpt>
      <trkpt lat="45.98031" lon="4.71586">
        <ele>198</ele>
        <time>2017-03-17T11:24:19Z</time>
      </trkpt>
      <trkpt lat="45.98026" lon="4.71589">
        <ele>198</ele>
        <time>2017-03-17T11:24:20Z</time>
      </trkpt>
      <trkpt lat="45.98021" lon="4.71593">
        <ele>198</ele>
        <time>2017-03-17T11:24:21Z</time>
      </trkpt>
      <trkpt lat="45.98016" lon="4.71597">
        <ele>198</ele>
        <time>2017-03-17T11:24:22Z</time>
      </trkpt>
      <trkpt lat="45.98011" lon="4.71601">
        <ele>198</ele>
        <time>2017-03-17T11:24:23Z</time>
      </trkpt>
      <trkpt lat="45.98006" lon="4.71605">
        <ele>198</ele>
        <time>2017-03-17T11:24:24Z</time>
      </trkpt>
      <trkpt lat="45.98001" lon="4.71609">
        <ele>198</ele>
        <time>2017-03-17T11:24:25Z</time>
      </trkpt>
      <trkpt lat="45.97997" lon="4.71613">
        <ele>198</ele>
        <time>2017-03-17T11:24:26Z</time>
      </trkpt>
      <trkpt lat="45.97992" lon="4.71617">
        <ele>198</ele>
        <time>2017-03-17T11:24:27Z</time>
      </trkpt>
      <trkpt lat="45.97988" lon="4.71621">
        <ele>197</ele>
        <time>2017-03-17T11:24:28Z</time>
      </trkpt>
      <trkpt lat="45.97983" lon="4.71625">
        <ele>197</ele>
        <time>2017-03-17T11:24:29Z</time>
      </trkpt>
      <trkpt lat="45.97979" lon="4.71629">
        <ele>197</ele>
        <time>2017-03-17T11:24:30Z</time>
      </trkpt>
      <trkpt lat="45.97974" lon="4.71632">
        <ele>197</ele>
        <time>2017-03-17T11:24:31Z</time>
      </trkpt>
      <trkpt lat="45.9797" lon="4.71636">
        <ele>197</ele>
        <time>2017-03-17T11:24:32Z</time>
      </trkpt>
      <trkpt lat="45.97966" lon="4.71639">
        <ele>197</ele>
        <time>2017-03-17T11:24:33Z</time>
      </trkpt>
      <trkpt lat="45.97962" lon="4.71642">
        <ele>197</ele>
        <time>2017-03-17T11:24:34Z</time>
      </trkpt>
      <trkpt lat="45.97958" lon="4.71645">
        <ele>197</ele>
        <time>2017-03-17T11:24:35Z</time>
      </trkpt>
      <trkpt lat="45.97952" lon="4.71649">
        <ele>197</ele>
        <time>2017-03-17T11:24:36Z</time>
      </trkpt>
      <trkpt lat="45.97947" lon="4.71653">
        <ele>197</ele>
        <time>2017-03-17T11:24:37Z</time>
      </trkpt>
      <trkpt lat="45.97943" lon="4.71657">
        <ele>197</ele>
        <time>2017-03-17T11:24:38Z</time>
      </trkpt>
      <trkpt lat="45.97938" lon="4.71661">
        <ele>197</ele>
        <time>2017-03-17T11:24:39Z</time>
      </trkpt>
      <trkpt lat="45.97933" lon="4.71664">
        <ele>197</ele>
        <time>2017-03-17T11:24:40Z</time>
      </trkpt>
      <trkpt lat="45.97928" lon="4.71668">
        <ele>197</ele>
        <time>2017-03-17T11:24:41Z</time>
      </trkpt>
      <trkpt lat="45.97924" lon="4.71672">
        <ele>197</ele>
        <time>2017-03-17T11:24:42Z</time>
      </trkpt>
      <trkpt lat="45.97919" lon="4.71676">
        <ele>197</ele>
        <time>2017-03-17T11:24:43Z</time>
      </trkpt>
      <trkpt lat="45.97915" lon="4.7168">
        <ele>197</ele>
        <time>2017-03-17T11:24:44Z</time>
      </trkpt>
      <trkpt lat="45.9791" lon="4.71684">
        <ele>196</ele>
        <time>2017-03-17T11:24:45Z</time>
      </trkpt>
      <trkpt lat="45.97906" lon="4.71688">
        <ele>196</ele>
        <time>2017-03-17T11:24:46Z</time>
      </trkpt>
      <trkpt lat="45.97902" lon="4.71693">
        <ele>196</ele>
        <time>2017-03-17T11:24:47Z</time>
      </trkpt>
      <trkpt lat="45.97899" lon="4.71699">
        <ele>196</ele>
        <time>2017-03-17T11:24:48Z</time>
      </trkpt>
      <trkpt lat="45.97896" lon="4.71704">
        <ele>196</ele>
        <time>2017-03-17T11:24:49Z</time>
      </trkpt>
      <trkpt lat="45.97893" lon="4.71708">
        <ele>196</ele>
        <time>2017-03-17T11:24:50Z</time>
      </trkpt>
      <trkpt lat="45.97884" lon="4.71712">
        <ele>196</ele>
        <time>2017-03-17T11:24:52Z</time>
      </trkpt>
      <trkpt lat="45.97879" lon="4.71712">
        <ele>196</ele>
        <time>2017-03-17T11:24:53Z</time>
      </trkpt>
      <trkpt lat="45.97874" lon="4.71712">
        <ele>196</ele>
        <time>2017-03-17T11:24:54Z</time>
      </trkpt>
      <trkpt lat="45.97868" lon="4.71713">
        <ele>196</ele>
        <time>2017-03-17T11:24:55Z</time>
      </trkpt>
      <trkpt lat="45.97863" lon="4.71716">
        <ele>196</ele>
        <time>2017-03-17T11:24:56Z</time>
      </trkpt>
      <trkpt lat="45.97858" lon="4.71721">
        <ele>196</ele>
        <time>2017-03-17T11:24:57Z</time>
      </trkpt>
      <trkpt lat="45.97854" lon="4.71727">
        <ele>196</ele>
        <time>2017-03-17T11:24:58Z</time>
      </trkpt>
      <trkpt lat="45.9785" lon="4.71733">
        <ele>196</ele>
        <time>2017-03-17T11:24:59Z</time>
      </trkpt>
      <trkpt lat="45.97846" lon="4.71738">
        <ele>195</ele>
        <time>2017-03-17T11:25:00Z</time>
      </trkpt>
      <trkpt lat="45.97841" lon="4.71743">
        <ele>195</ele>
        <time>2017-03-17T11:25:01Z</time>
      </trkpt>
      <trkpt lat="45.97835" lon="4.71745">
        <ele>195</ele>
        <time>2017-03-17T11:25:02Z</time>
      </trkpt>
      <trkpt lat="45.97829" lon="4.71746">
        <ele>195</ele>
        <time>2017-03-17T11:25:03Z</time>
      </trkpt>
      <trkpt lat="45.97824" lon="4.71745">
        <ele>196</ele>
        <time>2017-03-17T11:25:04Z</time>
      </trkpt>
      <trkpt lat="45.97818" lon="4.71745">
        <ele>196</ele>
        <time>2017-03-17T11:25:05Z</time>
      </trkpt>
      <trkpt lat="45.97813" lon="4.71744">
        <ele>196</ele>
        <time>2017-03-17T11:25:06Z</time>
      </trkpt>
      <trkpt lat="45.97809" lon="4.71742">
        <ele>196</ele>
        <time>2017-03-17T11:25:07Z</time>
      </trkpt>
      <trkpt lat="45.97804" lon="4.71741">
        <ele>196</ele>
        <time>2017-03-17T11:25:08Z</time>
      </trkpt>
      <trkpt lat="45.97798" lon="4.7174">
        <ele>196</ele>
        <time>2017-03-17T11:25:09Z</time>
      </trkpt>
      <trkpt lat="45.97793" lon="4.7174">
        <ele>196</ele>
        <time>2017-03-17T11:25:10Z</time>
      </trkpt>
      <trkpt lat="45.97788" lon="4.71739">
        <ele>196</ele>
        <time>2017-03-17T11:25:11Z</time>
      </trkpt>
      <trkpt lat="45.97783" lon="4.71739">
        <ele>196</ele>
        <time>2017-03-17T11:25:12Z</time>
      </trkpt>
      <trkpt lat="45.97777" lon="4.71738">
        <ele>196</ele>
        <time>2017-03-17T11:25:13Z</time>
      </trkpt>
      <trkpt lat="45.97772" lon="4.71738">
        <ele>196</ele>
        <time>2017-03-17T11:25:14Z</time>
      </trkpt>
      <trkpt lat="45.97766" lon="4.71737">
        <ele>196</ele>
        <time>2017-03-17T11:25:15Z</time>
      </trkpt>
      <trkpt lat="45.97761" lon="4.71737">
        <ele>196</ele>
        <time>2017-03-17T11:25:16Z</time>
      </trkpt>
      <trkpt lat="45.97755" lon="4.71737">
        <ele>196</ele>
        <time>2017-03-17T11:25:17Z</time>
      </trkpt>
      <trkpt lat="45.9775" lon="4.71736">
        <ele>196</ele>
        <time>2017-03-17T11:25:18Z</time>
      </trkpt>
      <trkpt lat="45.97744" lon="4.71735">
        <ele>196</ele>
        <time>2017-03-17T11:25:19Z</time>
      </trkpt>
      <trkpt lat="45.97739" lon="4.71734">
        <ele>196</ele>
        <time>2017-03-17T11:25:20Z</time>
      </trkpt>
      <trkpt lat="45.97734" lon="4.71733">
        <ele>196</ele>
        <time>2017-03-17T11:25:21Z</time>
      </trkpt>
      <trkpt lat="45.97729" lon="4.71732">
        <ele>196</ele>
        <time>2017-03-17T11:25:22Z</time>
      </trkpt>
      <trkpt lat="45.97724" lon="4.71731">
        <ele>196</ele>
        <time>2017-03-17T11:25:23Z</time>
      </trkpt>
      <trkpt lat="45.97718" lon="4.71731">
        <ele>196</ele>
        <time>2017-03-17T11:25:24Z</time>
      </trkpt>
      <trkpt lat="45.97712" lon="4.71731">
        <ele>196</ele>
        <time>2017-03-17T11:25:25Z</time>
      </trkpt>
      <trkpt lat="45.97707" lon="4.71731">
        <ele>196</ele>
        <time>2017-03-17T11:25:26Z</time>
      </trkpt>
      <trkpt lat="45.97701" lon="4.7173">
        <ele>196</ele>
        <time>2017-03-17T11:25:27Z</time>
      </trkpt>
      <trkpt lat="45.97695" lon="4.71729">
        <ele>196</ele>
        <time>2017-03-17T11:25:28Z</time>
      </trkpt>
      <trkpt lat="45.97688" lon="4.71729">
        <ele>196</ele>
        <time>2017-03-17T11:25:29Z</time>
      </trkpt>
      <trkpt lat="45.97683" lon="4.71728">
        <ele>196</ele>
        <time>2017-03-17T11:25:30Z</time>
      </trkpt>
      <trkpt lat="45.97677" lon="4.71728">
        <ele>196</ele>
        <time>2017-03-17T11:25:31Z</time>
      </trkpt>
      <trkpt lat="45.97672" lon="4.71727">
        <ele>196</ele>
        <time>2017-03-17T11:25:32Z</time>
      </trkpt>
      <trkpt lat="45.97667" lon="4.71727">
        <ele>196</ele>
        <time>2017-03-17T11:25:33Z</time>
      </trkpt>
      <trkpt lat="45.97662" lon="4.71726">
        <ele>196</ele>
        <time>2017-03-17T11:25:34Z</time>
      </trkpt>
      <trkpt lat="45.97657" lon="4.71727">
        <ele>196</ele>
        <time>2017-03-17T11:25:35Z</time>
      </trkpt>
      <trkpt lat="45.97652" lon="4.71727">
        <ele>196</ele>
        <time>2017-03-17T11:25:36Z</time>
      </trkpt>
      <trkpt lat="45.97648" lon="4.71726">
        <ele>196</ele>
        <time>2017-03-17T11:25:37Z</time>
      </trkpt>
      <trkpt lat="45.97643" lon="4.71725">
        <ele>196</ele>
        <time>2017-03-17T11:25:38Z</time>
      </trkpt>
      <trkpt lat="45.97638" lon="4.71722">
        <ele>196</ele>
        <time>2017-03-17T11:25:39Z</time>
      </trkpt>
      <trkpt lat="45.97634" lon="4.71718">
        <ele>197</ele>
        <time>2017-03-17T11:25:40Z</time>
      </trkpt>
      <trkpt lat="45.9763" lon="4.71714">
        <ele>197</ele>
        <time>2017-03-17T11:25:41Z</time>
      </trkpt>
      <trkpt lat="45.97626" lon="4.7171">
        <ele>197</ele>
        <time>2017-03-17T11:25:42Z</time>
      </trkpt>
      <trkpt lat="45.97621" lon="4.71707">
        <ele>197</ele>
        <time>2017-03-17T11:25:43Z</time>
      </trkpt>
      <trkpt lat="45.97615" lon="4.71707">
        <ele>197</ele>
        <time>2017-03-17T11:25:44Z</time>
      </trkpt>
      <trkpt lat="45.97609" lon="4.71709">
        <ele>197</ele>
        <time>2017-03-17T11:25:45Z</time>
      </trkpt>
      <trkpt lat="45.97604" lon="4.71713">
        <ele>197</ele>
        <time>2017-03-17T11:25:46Z</time>
      </trkpt>
      <trkpt lat="45.97599" lon="4.71717">
        <ele>197</ele>
        <time>2017-03-17T11:25:47Z</time>
      </trkpt>
      <trkpt lat="45.97593" lon="4.7172">
        <ele>197</ele>
        <time>2017-03-17T11:25:48Z</time>
      </trkpt>
      <trkpt lat="45.97588" lon="4.71721">
        <ele>197</ele>
        <time>2017-03-17T11:25:49Z</time>
      </trkpt>
      <trkpt lat="45.97582" lon="4.7172">
        <ele>198</ele>
        <time>2017-03-17T11:25:50Z</time>
      </trkpt>
      <trkpt lat="45.97577" lon="4.7172">
        <ele>198</ele>
        <time>2017-03-17T11:25:51Z</time>
      </trkpt>
      <trkpt lat="45.97572" lon="4.71719">
        <ele>198</ele>
        <time>2017-03-17T11:25:52Z</time>
      </trkpt>
      <trkpt lat="45.97566" lon="4.71719">
        <ele>198</ele>
        <time>2017-03-17T11:25:53Z</time>
      </trkpt>
      <trkpt lat="45.97561" lon="4.71718">
        <ele>198</ele>
        <time>2017-03-17T11:25:54Z</time>
      </trkpt>
      <trkpt lat="45.97556" lon="4.71717">
        <ele>198</ele>
        <time>2017-03-17T11:25:55Z</time>
      </trkpt>
      <trkpt lat="45.9755" lon="4.71717">
        <ele>198</ele>
        <time>2017-03-17T11:25:56Z</time>
      </trkpt>
      <trkpt lat="45.97544" lon="4.71717">
        <ele>198</ele>
        <time>2017-03-17T11:25:57Z</time>
      </trkpt>
      <trkpt lat="45.97539" lon="4.71717">
        <ele>198</ele>
        <time>2017-03-17T11:25:58Z</time>
      </trkpt>
      <trkpt lat="45.97533" lon="4.71716">
        <ele>198</ele>
        <time>2017-03-17T11:25:59Z</time>
      </trkpt>
      <trkpt lat="45.97527" lon="4.71715">
        <ele>198</ele>
        <time>2017-03-17T11:26:00Z</time>
      </trkpt>
      <trkpt lat="45.97522" lon="4.71715">
        <ele>198</ele>
        <time>2017-03-17T11:26:01Z</time>
      </trkpt>
      <trkpt lat="45.97516" lon="4.71714">
        <ele>198</ele>
        <time>2017-03-17T11:26:02Z</time>
      </trkpt>
      <trkpt lat="45.9751" lon="4.71714">
        <ele>199</ele>
        <time>2017-03-17T11:26:03Z</time>
      </trkpt>
      <trkpt lat="45.97504" lon="4.71714">
        <ele>199</ele>
        <time>2017-03-17T11:26:04Z</time>
      </trkpt>
      <trkpt lat="45.97498" lon="4.71713">
        <ele>198</ele>
        <time>2017-03-17T11:26:05Z</time>
      </trkpt>
      <trkpt lat="45.97492" lon="4.71713">
        <ele>198</ele>
        <time>2017-03-17T11:26:06Z</time>
      </trkpt>
      <trkpt lat="45.97487" lon="4.71712">
        <ele>198</ele>
        <time>2017-03-17T11:26:07Z</time>
      </trkpt>
      <trkpt lat="45.97482" lon="4.71712">
        <ele>198</ele>
        <time>2017-03-17T11:26:08Z</time>
      </trkpt>
      <trkpt lat="45.97478" lon="4.71712">
        <ele>198</ele>
        <time>2017-03-17T11:26:09Z</time>
      </trkpt>
      <trkpt lat="45.97473" lon="4.71711">
        <ele>198</ele>
        <time>2017-03-17T11:26:10Z</time>
      </trkpt>
      <trkpt lat="45.97468" lon="4.71711">
        <ele>197</ele>
        <time>2017-03-17T11:26:11Z</time>
      </trkpt>
      <trkpt lat="45.97462" lon="4.71711">
        <ele>197</ele>
        <time>2017-03-17T11:26:12Z</time>
      </trkpt>
      <trkpt lat="45.97456" lon="4.71711">
        <ele>197</ele>
        <time>2017-03-17T11:26:13Z</time>
      </trkpt>
      <trkpt lat="45.9745" lon="4.7171">
        <ele>197</ele>
        <time>2017-03-17T11:26:14Z</time>
      </trkpt>
      <trkpt lat="45.97444" lon="4.7171">
        <ele>197</ele>
        <time>2017-03-17T11:26:15Z</time>
      </trkpt>
      <trkpt lat="45.97438" lon="4.71709">
        <ele>197</ele>
        <time>2017-03-17T11:26:16Z</time>
      </trkpt>
      <trkpt lat="45.97433" lon="4.71709">
        <ele>197</ele>
        <time>2017-03-17T11:26:17Z</time>
      </trkpt>
      <trkpt lat="45.97427" lon="4.71708">
        <ele>197</ele>
        <time>2017-03-17T11:26:18Z</time>
      </trkpt>
      <trkpt lat="45.97422" lon="4.71708">
        <ele>196</ele>
        <time>2017-03-17T11:26:19Z</time>
      </trkpt>
      <trkpt lat="45.97416" lon="4.71708">
        <ele>195</ele>
        <time>2017-03-17T11:26:20Z</time>
      </trkpt>
      <trkpt lat="45.97411" lon="4.71707">
        <ele>195</ele>
        <time>2017-03-17T11:26:21Z</time>
      </trkpt>
      <trkpt lat="45.97405" lon="4.71707">
        <ele>195</ele>
        <time>2017-03-17T11:26:22Z</time>
      </trkpt>
      <trkpt lat="45.974" lon="4.71706">
        <ele>195</ele>
        <time>2017-03-17T11:26:23Z</time>
      </trkpt>
      <trkpt lat="45.97394" lon="4.71706">
        <ele>195</ele>
        <time>2017-03-17T11:26:24Z</time>
      </trkpt>
      <trkpt lat="45.97389" lon="4.71705">
        <ele>195</ele>
        <time>2017-03-17T11:26:25Z</time>
      </trkpt>
      <trkpt lat="45.97384" lon="4.71705">
        <ele>195</ele>
        <time>2017-03-17T11:26:26Z</time>
      </trkpt>
      <trkpt lat="45.97379" lon="4.71705">
        <ele>195</ele>
        <time>2017-03-17T11:26:27Z</time>
      </trkpt>
      <trkpt lat="45.97373" lon="4.71705">
        <ele>195</ele>
        <time>2017-03-17T11:26:28Z</time>
      </trkpt>
      <trkpt lat="45.97368" lon="4.71705">
        <ele>195</ele>
        <time>2017-03-17T11:26:29Z</time>
      </trkpt>
      <trkpt lat="45.97362" lon="4.71705">
        <ele>195</ele>
        <time>2017-03-17T11:26:30Z</time>
      </trkpt>
      <trkpt lat="45.97357" lon="4.71705">
        <ele>195</ele>
        <time>2017-03-17T11:26:31Z</time>
      </trkpt>
      <trkpt lat="45.97351" lon="4.71704">
        <ele>195</ele>
        <time>2017-03-17T11:26:32Z</time>
      </trkpt>
      <trkpt lat="45.97346" lon="4.71704">
        <ele>195</ele>
        <time>2017-03-17T11:26:33Z</time>
      </trkpt>
      <trkpt lat="45.97341" lon="4.71703">
        <ele>195</ele>
        <time>2017-03-17T11:26:34Z</time>
      </trkpt>
      <trkpt lat="45.97335" lon="4.71703">
        <ele>196</ele>
        <time>2017-03-17T11:26:35Z</time>
      </trkpt>
      <trkpt lat="45.9733" lon="4.71702">
        <ele>196</ele>
        <time>2017-03-17T11:26:36Z</time>
      </trkpt>
      <trkpt lat="45.97325" lon="4.71701">
        <ele>196</ele>
        <time>2017-03-17T11:26:37Z</time>
      </trkpt>
      <trkpt lat="45.97321" lon="4.71698">
        <ele>196</ele>
        <time>2017-03-17T11:26:38Z</time>
      </trkpt>
      <trkpt lat="45.97315" lon="4.71694">
        <ele>196</ele>
        <time>2017-03-17T11:26:39Z</time>
      </trkpt>
      <trkpt lat="45.9731" lon="4.71691">
        <ele>196</ele>
        <time>2017-03-17T11:26:40Z</time>
      </trkpt>
      <trkpt lat="45.97304" lon="4.71691">
        <ele>196</ele>
        <time>2017-03-17T11:26:41Z</time>
      </trkpt>
      <trkpt lat="45.97298" lon="4.71692">
        <ele>197</ele>
        <time>2017-03-17T11:26:42Z</time>
      </trkpt>
      <trkpt lat="45.97291" lon="4.71695">
        <ele>197</ele>
        <time>2017-03-17T11:26:43Z</time>
      </trkpt>
      <trkpt lat="45.97285" lon="4.71698">
        <ele>197</ele>
        <time>2017-03-17T11:26:44Z</time>
      </trkpt>
      <trkpt lat="45.97279" lon="4.717">
        <ele>197</ele>
        <time>2017-03-17T11:26:45Z</time>
      </trkpt>
      <trkpt lat="45.97273" lon="4.71701">
        <ele>197</ele>
        <time>2017-03-17T11:26:46Z</time>
      </trkpt>
      <trkpt lat="45.97268" lon="4.717">
        <ele>197</ele>
        <time>2017-03-17T11:26:47Z</time>
      </trkpt>
      <trkpt lat="45.97262" lon="4.71699">
        <ele>197</ele>
        <time>2017-03-17T11:26:48Z</time>
      </trkpt>
      <trkpt lat="45.97256" lon="4.71698">
        <ele>197</ele>
        <time>2017-03-17T11:26:49Z</time>
      </trkpt>
      <trkpt lat="45.97251" lon="4.71697">
        <ele>197</ele>
        <time>2017-03-17T11:26:50Z</time>
      </trkpt>
      <trkpt lat="45.97245" lon="4.71696">
        <ele>197</ele>
        <time>2017-03-17T11:26:51Z</time>
      </trkpt>
      <trkpt lat="45.9724" lon="4.71695">
        <ele>197</ele>
        <time>2017-03-17T11:26:52Z</time>
      </trkpt>
      <trkpt lat="45.97234" lon="4.71694">
        <ele>197</ele>
        <time>2017-03-17T11:26:53Z</time>
      </trkpt>
      <trkpt lat="45.97228" lon="4.71693">
        <ele>197</ele>
        <time>2017-03-17T11:26:54Z</time>
      </trkpt>
      <trkpt lat="45.97222" lon="4.71693">
        <ele>197</ele>
        <time>2017-03-17T11:26:55Z</time>
      </trkpt>
      <trkpt lat="45.97216" lon="4.71692">
        <ele>197</ele>
        <time>2017-03-17T11:26:56Z</time>
      </trkpt>
      <trkpt lat="45.97211" lon="4.71691">
        <ele>197</ele>
        <time>2017-03-17T11:26:57Z</time>
      </trkpt>
      <trkpt lat="45.97204" lon="4.71691">
        <ele>197</ele>
        <time>2017-03-17T11:26:58Z</time>
      </trkpt>
      <trkpt lat="45.97197" lon="4.71691">
        <ele>197</ele>
        <time>2017-03-17T11:26:59Z</time>
      </trkpt>
      <trkpt lat="45.97191" lon="4.7169">
        <ele>197</ele>
        <time>2017-03-17T11:27:00Z</time>
      </trkpt>
      <trkpt lat="45.97184" lon="4.71689">
        <ele>197</ele>
        <time>2017-03-17T11:27:01Z</time>
      </trkpt>
      <trkpt lat="45.97177" lon="4.71689">
        <ele>197</ele>
        <time>2017-03-17T11:27:02Z</time>
      </trkpt>
      <trkpt lat="45.97171" lon="4.71689">
        <ele>197</ele>
        <time>2017-03-17T11:27:03Z</time>
      </trkpt>
      <trkpt lat="45.97164" lon="4.71689">
        <ele>196</ele>
        <time>2017-03-17T11:27:04Z</time>
      </trkpt>
      <trkpt lat="45.97157" lon="4.71688">
        <ele>196</ele>
        <time>2017-03-17T11:27:05Z</time>
      </trkpt>
      <trkpt lat="45.9715" lon="4.71687">
        <ele>195</ele>
        <time>2017-03-17T11:27:06Z</time>
      </trkpt>
      <trkpt lat="45.97144" lon="4.71686">
        <ele>195</ele>
        <time>2017-03-17T11:27:07Z</time>
      </trkpt>
      <trkpt lat="45.97137" lon="4.71685">
        <ele>195</ele>
        <time>2017-03-17T11:27:08Z</time>
      </trkpt>
      <trkpt lat="45.9713" lon="4.71685">
        <ele>195</ele>
        <time>2017-03-17T11:27:09Z</time>
      </trkpt>
      <trkpt lat="45.97123" lon="4.71685">
        <ele>195</ele>
        <time>2017-03-17T11:27:10Z</time>
      </trkpt>
      <trkpt lat="45.97115" lon="4.71684">
        <ele>194</ele>
        <time>2017-03-17T11:27:11Z</time>
      </trkpt>
      <trkpt lat="45.97108" lon="4.71684">
        <ele>194</ele>
        <time>2017-03-17T11:27:12Z</time>
      </trkpt>
      <trkpt lat="45.97102" lon="4.71684">
        <ele>194</ele>
        <time>2017-03-17T11:27:13Z</time>
      </trkpt>
      <trkpt lat="45.97095" lon="4.71684">
        <ele>194</ele>
        <time>2017-03-17T11:27:14Z</time>
      </trkpt>
      <trkpt lat="45.97089" lon="4.71683">
        <ele>194</ele>
        <time>2017-03-17T11:27:15Z</time>
      </trkpt>
      <trkpt lat="45.97083" lon="4.71682">
        <ele>194</ele>
        <time>2017-03-17T11:27:16Z</time>
      </trkpt>
      <trkpt lat="45.97076" lon="4.71681">
        <ele>194</ele>
        <time>2017-03-17T11:27:17Z</time>
      </trkpt>
      <trkpt lat="45.9707" lon="4.7168">
        <ele>193</ele>
        <time>2017-03-17T11:27:18Z</time>
      </trkpt>
      <trkpt lat="45.97064" lon="4.71679">
        <ele>193</ele>
        <time>2017-03-17T11:27:19Z</time>
      </trkpt>
      <trkpt lat="45.97058" lon="4.71677">
        <ele>193</ele>
        <time>2017-03-17T11:27:20Z</time>
      </trkpt>
      <trkpt lat="45.97053" lon="4.71676">
        <ele>193</ele>
        <time>2017-03-17T11:27:21Z</time>
      </trkpt>
      <trkpt lat="45.97046" lon="4.71676">
        <ele>193</ele>
        <time>2017-03-17T11:27:22Z</time>
      </trkpt>
      <trkpt lat="45.97039" lon="4.71675">
        <ele>193</ele>
        <time>2017-03-17T11:27:23Z</time>
      </trkpt>
      <trkpt lat="45.97032" lon="4.71675">
        <ele>193</ele>
        <time>2017-03-17T11:27:24Z</time>
      </trkpt>
      <trkpt lat="45.97025" lon="4.71674">
        <ele>193</ele>
        <time>2017-03-17T11:27:25Z</time>
      </trkpt>
      <trkpt lat="45.97018" lon="4.71673">
        <ele>193</ele>
        <time>2017-03-17T11:27:26Z</time>
      </trkpt>
      <trkpt lat="45.97011" lon="4.71673">
        <ele>193</ele>
        <time>2017-03-17T11:27:27Z</time>
      </trkpt>
      <trkpt lat="45.97004" lon="4.71673">
        <ele>194</ele>
        <time>2017-03-17T11:27:28Z</time>
      </trkpt>
      <trkpt lat="45.96996" lon="4.71672">
        <ele>193</ele>
        <time>2017-03-17T11:27:29Z</time>
      </trkpt>
      <trkpt lat="45.96988" lon="4.71672">
        <ele>193</ele>
        <time>2017-03-17T11:27:30Z</time>
      </trkpt>
      <trkpt lat="45.96981" lon="4.71672">
        <ele>192</ele>
        <time>2017-03-17T11:27:31Z</time>
      </trkpt>
      <trkpt lat="45.96973" lon="4.71672">
        <ele>192</ele>
        <time>2017-03-17T11:27:32Z</time>
      </trkpt>
      <trkpt lat="45.96966" lon="4.71671">
        <ele>192</ele>
        <time>2017-03-17T11:27:33Z</time>
      </trkpt>
      <trkpt lat="45.96958" lon="4.71671">
        <ele>192</ele>
        <time>2017-03-17T11:27:34Z</time>
      </trkpt>
      <trkpt lat="45.96951" lon="4.7167">
        <ele>192</ele>
        <time>2017-03-17T11:27:35Z</time>
      </trkpt>
      <trkpt lat="45.96943" lon="4.71669">
        <ele>192</ele>
        <time>2017-03-17T11:27:36Z</time>
      </trkpt>
      <trkpt lat="45.96936" lon="4.71668">
        <ele>193</ele>
        <time>2017-03-17T11:27:37Z</time>
      </trkpt>
      <trkpt lat="45.96929" lon="4.71668">
        <ele>193</ele>
        <time>2017-03-17T11:27:38Z</time>
      </trkpt>
      <trkpt lat="45.96922" lon="4.71667">
        <ele>194</ele>
        <time>2017-03-17T11:27:39Z</time>
      </trkpt>
      <trkpt lat="45.96915" lon="4.71666">
        <ele>195</ele>
        <time>2017-03-17T11:27:40Z</time>
      </trkpt>
      <trkpt lat="45.96908" lon="4.71666">
        <ele>195</ele>
        <time>2017-03-17T11:27:41Z</time>
      </trkpt>
      <trkpt lat="45.96902" lon="4.71665">
        <ele>195</ele>
        <time>2017-03-17T11:27:42Z</time>
      </trkpt>
      <trkpt lat="45.96895" lon="4.71664">
        <ele>195</ele>
        <time>2017-03-17T11:27:43Z</time>
      </trkpt>
      <trkpt lat="45.96887" lon="4.71664">
        <ele>195</ele>
        <time>2017-03-17T11:27:44Z</time>
      </trkpt>
      <trkpt lat="45.9688" lon="4.71663">
        <ele>195</ele>
        <time>2017-03-17T11:27:45Z</time>
      </trkpt>
      <trkpt lat="45.96873" lon="4.71662">
        <ele>195</ele>
        <time>2017-03-17T11:27:46Z</time>
      </trkpt>
      <trkpt lat="45.96866" lon="4.71661">
        <ele>195</ele>
        <time>2017-03-17T11:27:47Z</time>
      </trkpt>
      <trkpt lat="45.9686" lon="4.7166">
        <ele>194</ele>
        <time>2017-03-17T11:27:48Z</time>
      </trkpt>
      <trkpt lat="45.96852" lon="4.71659">
        <ele>194</ele>
        <time>2017-03-17T11:27:49Z</time>
      </trkpt>
      <trkpt lat="45.96845" lon="4.71657">
        <ele>194</ele>
        <time>2017-03-17T11:27:50Z</time>
      </trkpt>
      <trkpt lat="45.96837" lon="4.71656">
        <ele>193</ele>
        <time>2017-03-17T11:27:51Z</time>
      </trkpt>
      <trkpt lat="45.96829" lon="4.71655">
        <ele>193</ele>
        <time>2017-03-17T11:27:52Z</time>
      </trkpt>
      <trkpt lat="45.96821" lon="4.71654">
        <ele>193</ele>
        <time>2017-03-17T11:27:53Z</time>
      </trkpt>
      <trkpt lat="45.96813" lon="4.71653">
        <ele>193</ele>
        <time>2017-03-17T11:27:54Z</time>
      </trkpt>
      <trkpt lat="45.96805" lon="4.71652">
        <ele>193</ele>
        <time>2017-03-17T11:27:55Z</time>
      </trkpt>
      <trkpt lat="45.96798" lon="4.71651">
        <ele>193</ele>
        <time>2017-03-17T11:27:56Z</time>
      </trkpt>
      <trkpt lat="45.9679" lon="4.7165">
        <ele>192</ele>
        <time>2017-03-17T11:27:57Z</time>
      </trkpt>
      <trkpt lat="45.96783" lon="4.71649">
        <ele>192</ele>
        <time>2017-03-17T11:27:58Z</time>
      </trkpt>
      <trkpt lat="45.96775" lon="4.71648">
        <ele>192</ele>
        <time>2017-03-17T11:27:59Z</time>
      </trkpt>
      <trkpt lat="45.96768" lon="4.71647">
        <ele>192</ele>
        <time>2017-03-17T11:28:00Z</time>
      </trkpt>
      <trkpt lat="45.96761" lon="4.71646">
        <ele>192</ele>
        <time>2017-03-17T11:28:01Z</time>
      </trkpt>
      <trkpt lat="45.96753" lon="4.71644">
        <ele>192</ele>
        <time>2017-03-17T11:28:02Z</time>
      </trkpt>
      <trkpt lat="45.96746" lon="4.71643">
        <ele>190</ele>
        <time>2017-03-17T11:28:03Z</time>
      </trkpt>
      <trkpt lat="45.96739" lon="4.71642">
        <ele>190</ele>
        <time>2017-03-17T11:28:04Z</time>
      </trkpt>
      <trkpt lat="45.96732" lon="4.71641">
        <ele>190</ele>
        <time>2017-03-17T11:28:05Z</time>
      </trkpt>
      <trkpt lat="45.96725" lon="4.7164">
        <ele>190</ele>
        <time>2017-03-17T11:28:06Z</time>
      </trkpt>
      <trkpt lat="45.96718" lon="4.71639">
        <ele>190</ele>
        <time>2017-03-17T11:28:07Z</time>
      </trkpt>
      <trkpt lat="45.96711" lon="4.71638">
        <ele>190</ele>
        <time>2017-03-17T11:28:08Z</time>
      </trkpt>
      <trkpt lat="45.96705" lon="4.71637">
        <ele>190</ele>
        <time>2017-03-17T11:28:09Z</time>
      </trkpt>
      <trkpt lat="45.96698" lon="4.71636">
        <ele>190</ele>
        <time>2017-03-17T11:28:10Z</time>
      </trkpt>
      <trkpt lat="45.96691" lon="4.71635">
        <ele>190</ele>
        <time>2017-03-17T11:28:11Z</time>
      </trkpt>
      <trkpt lat="45.96684" lon="4.71635">
        <ele>190</ele>
        <time>2017-03-17T11:28:12Z</time>
      </trkpt>
      <trkpt lat="45.96678" lon="4.71634">
        <ele>190</ele>
        <time>2017-03-17T11:28:13Z</time>
      </trkpt>
      <trkpt lat="45.96672" lon="4.71633">
        <ele>190</ele>
        <time>2017-03-17T11:28:14Z</time>
      </trkpt>
      <trkpt lat="45.96665" lon="4.71632">
        <ele>188</ele>
        <time>2017-03-17T11:28:15Z</time>
      </trkpt>
      <trkpt lat="45.96659" lon="4.71631">
        <ele>188</ele>
        <time>2017-03-17T11:28:16Z</time>
      </trkpt>
      <trkpt lat="45.96651" lon="4.7163">
        <ele>188</ele>
        <time>2017-03-17T11:28:17Z</time>
      </trkpt>
      <trkpt lat="45.96644" lon="4.71628">
        <ele>188</ele>
        <time>2017-03-17T11:28:18Z</time>
      </trkpt>
      <trkpt lat="45.96637" lon="4.71627">
        <ele>188</ele>
        <time>2017-03-17T11:28:19Z</time>
      </trkpt>
      <trkpt lat="45.96629" lon="4.71626">
        <ele>188</ele>
        <time>2017-03-17T11:28:20Z</time>
      </trkpt>
      <trkpt lat="45.96621" lon="4.71625">
        <ele>188</ele>
        <time>2017-03-17T11:28:21Z</time>
      </trkpt>
      <trkpt lat="45.96614" lon="4.71623">
        <ele>188</ele>
        <time>2017-03-17T11:28:22Z</time>
      </trkpt>
      <trkpt lat="45.96606" lon="4.71622">
        <ele>187</ele>
        <time>2017-03-17T11:28:23Z</time>
      </trkpt>
      <trkpt lat="45.96599" lon="4.71621">
        <ele>187</ele>
        <time>2017-03-17T11:28:24Z</time>
      </trkpt>
      <trkpt lat="45.96592" lon="4.7162">
        <ele>187</ele>
        <time>2017-03-17T11:28:25Z</time>
      </trkpt>
      <trkpt lat="45.96585" lon="4.71619">
        <ele>187</ele>
        <time>2017-03-17T11:28:26Z</time>
      </trkpt>
      <trkpt lat="45.96578" lon="4.71618">
        <ele>185</ele>
        <time>2017-03-17T11:28:27Z</time>
      </trkpt>
      <trkpt lat="45.96571" lon="4.71618">
        <ele>185</ele>
        <time>2017-03-17T11:28:28Z</time>
      </trkpt>
      <trkpt lat="45.96563" lon="4.71617">
        <ele>185</ele>
        <time>2017-03-17T11:28:29Z</time>
      </trkpt>
      <trkpt lat="45.96557" lon="4.71615">
        <ele>185</ele>
        <time>2017-03-17T11:28:30Z</time>
      </trkpt>
      <trkpt lat="45.9655" lon="4.71612">
        <ele>185</ele>
        <time>2017-03-17T11:28:31Z</time>
      </trkpt>
      <trkpt lat="45.96544" lon="4.71608">
        <ele>185</ele>
        <time>2017-03-17T11:28:32Z</time>
      </trkpt>
      <trkpt lat="45.96538" lon="4.71603">
        <ele>185</ele>
        <time>2017-03-17T11:28:33Z</time>
      </trkpt>
      <trkpt lat="45.96532" lon="4.716">
        <ele>185</ele>
        <time>2017-03-17T11:28:34Z</time>
      </trkpt>
      <trkpt lat="45.96526" lon="4.716">
        <ele>185</ele>
        <time>2017-03-17T11:28:35Z</time>
      </trkpt>
      <trkpt lat="45.9652" lon="4.71603">
        <ele>185</ele>
        <time>2017-03-17T11:28:36Z</time>
      </trkpt>
      <trkpt lat="45.96513" lon="4.71605">
        <ele>184</ele>
        <time>2017-03-17T11:28:37Z</time>
      </trkpt>
      <trkpt lat="45.96505" lon="4.71607">
        <ele>184</ele>
        <time>2017-03-17T11:28:38Z</time>
      </trkpt>
      <trkpt lat="45.96497" lon="4.71605">
        <ele>183</ele>
        <time>2017-03-17T11:28:39Z</time>
      </trkpt>
      <trkpt lat="45.96489" lon="4.71604">
        <ele>183</ele>
        <time>2017-03-17T11:28:40Z</time>
      </trkpt>
      <trkpt lat="45.96481" lon="4.71602">
        <ele>183</ele>
        <time>2017-03-17T11:28:41Z</time>
      </trkpt>
      <trkpt lat="45.96473" lon="4.71601">
        <ele>183</ele>
        <time>2017-03-17T11:28:42Z</time>
      </trkpt>
      <trkpt lat="45.96465" lon="4.716">
        <ele>183</ele>
        <time>2017-03-17T11:28:43Z</time>
      </trkpt>
      <trkpt lat="45.96455" lon="4.71598">
        <ele>183</ele>
        <time>2017-03-17T11:28:44Z</time>
      </trkpt>
      <trkpt lat="45.96448" lon="4.71596">
        <ele>183</ele>
        <time>2017-03-17T11:28:45Z</time>
      </trkpt>
      <trkpt lat="45.9644" lon="4.71595">
        <ele>183</ele>
        <time>2017-03-17T11:28:46Z</time>
      </trkpt>
      <trkpt lat="45.96432" lon="4.71594">
        <ele>184</ele>
        <time>2017-03-17T11:28:47Z</time>
      </trkpt>
      <trkpt lat="45.96425" lon="4.71593">
        <ele>184</ele>
        <time>2017-03-17T11:28:48Z</time>
      </trkpt>
      <trkpt lat="45.96417" lon="4.71591">
        <ele>184</ele>
        <time>2017-03-17T11:28:49Z</time>
      </trkpt>
      <trkpt lat="45.9641" lon="4.7159">
        <ele>184</ele>
        <time>2017-03-17T11:28:50Z</time>
      </trkpt>
      <trkpt lat="45.96403" lon="4.71589">
        <ele>183</ele>
        <time>2017-03-17T11:28:51Z</time>
      </trkpt>
      <trkpt lat="45.96396" lon="4.71589">
        <ele>183</ele>
        <time>2017-03-17T11:28:52Z</time>
      </trkpt>
      <trkpt lat="45.9639" lon="4.71588">
        <ele>183</ele>
        <time>2017-03-17T11:28:53Z</time>
      </trkpt>
      <trkpt lat="45.96383" lon="4.71587">
        <ele>183</ele>
        <time>2017-03-17T11:28:54Z</time>
      </trkpt>
      <trkpt lat="45.96377" lon="4.71586">
        <ele>182</ele>
        <time>2017-03-17T11:28:55Z</time>
      </trkpt>
      <trkpt lat="45.96371" lon="4.71585">
        <ele>182</ele>
        <time>2017-03-17T11:28:56Z</time>
      </trkpt>
      <trkpt lat="45.96364" lon="4.71584">
        <ele>182</ele>
        <time>2017-03-17T11:28:57Z</time>
      </trkpt>
      <trkpt lat="45.96358" lon="4.71583">
        <ele>185</ele>
        <time>2017-03-17T11:28:58Z</time>
      </trkpt>
      <trkpt lat="45.96351" lon="4.71582">
        <ele>185</ele>
        <time>2017-03-17T11:28:59Z</time>
      </trkpt>
      <trkpt lat="45.96344" lon="4.71581">
        <ele>184</ele>
        <time>2017-03-17T11:29:00Z</time>
      </trkpt>
      <trkpt lat="45.96337" lon="4.7158">
        <ele>184</ele>
        <time>2017-03-17T11:29:01Z</time>
      </trkpt>
      <trkpt lat="45.9633" lon="4.71578">
        <ele>183</ele>
        <time>2017-03-17T11:29:02Z</time>
      </trkpt>
      <trkpt lat="45.96323" lon="4.71577">
        <ele>184</ele>
        <time>2017-03-17T11:29:03Z</time>
      </trkpt>
      <trkpt lat="45.96316" lon="4.71576">
        <ele>184</ele>
        <time>2017-03-17T11:29:04Z</time>
      </trkpt>
      <trkpt lat="45.96309" lon="4.71575">
        <ele>184</ele>
        <time>2017-03-17T11:29:05Z</time>
      </trkpt>
      <trkpt lat="45.96302" lon="4.71574">
        <ele>184</ele>
        <time>2017-03-17T11:29:06Z</time>
      </trkpt>
      <trkpt lat="45.96295" lon="4.71573">
        <ele>184</ele>
        <time>2017-03-17T11:29:07Z</time>
      </trkpt>
      <trkpt lat="45.96289" lon="4.71572">
        <ele>184</ele>
        <time>2017-03-17T11:29:08Z</time>
      </trkpt>
      <trkpt lat="45.96282" lon="4.71571">
        <ele>184</ele>
        <time>2017-03-17T11:29:09Z</time>
      </trkpt>
      <trkpt lat="45.96275" lon="4.7157">
        <ele>184</ele>
        <time>2017-03-17T11:29:10Z</time>
      </trkpt>
      <trkpt lat="45.96269" lon="4.71569">
        <ele>184</ele>
        <time>2017-03-17T11:29:11Z</time>
      </trkpt>
      <trkpt lat="45.96263" lon="4.71568">
        <ele>183</ele>
        <time>2017-03-17T11:29:12Z</time>
      </trkpt>
      <trkpt lat="45.96256" lon="4.71567">
        <ele>183</ele>
        <time>2017-03-17T11:29:13Z</time>
      </trkpt>
      <trkpt lat="45.9625" lon="4.71566">
        <ele>183</ele>
        <time>2017-03-17T11:29:14Z</time>
      </trkpt>
      <trkpt lat="45.96244" lon="4.71564">
        <ele>183</ele>
        <time>2017-03-17T11:29:15Z</time>
      </trkpt>
      <trkpt lat="45.96237" lon="4.71563">
        <ele>183</ele>
        <time>2017-03-17T11:29:16Z</time>
      </trkpt>
      <trkpt lat="45.96231" lon="4.71562">
        <ele>183</ele>
        <time>2017-03-17T11:29:17Z</time>
      </trkpt>
      <trkpt lat="45.96226" lon="4.71561">
        <ele>183</ele>
        <time>2017-03-17T11:29:18Z</time>
      </trkpt>
      <trkpt lat="45.9622" lon="4.7156">
        <ele>183</ele>
        <time>2017-03-17T11:29:19Z</time>
      </trkpt>
      <trkpt lat="45.96214" lon="4.71559">
        <ele>184</ele>
        <time>2017-03-17T11:29:20Z</time>
      </trkpt>
      <trkpt lat="45.96208" lon="4.71559">
        <ele>184</ele>
        <time>2017-03-17T11:29:21Z</time>
      </trkpt>
      <trkpt lat="45.96202" lon="4.71557">
        <ele>184</ele>
        <time>2017-03-17T11:29:22Z</time>
      </trkpt>
      <trkpt lat="45.96196" lon="4.71556">
        <ele>184</ele>
        <time>2017-03-17T11:29:23Z</time>
      </trkpt>
      <trkpt lat="45.9619" lon="4.71554">
        <ele>184</ele>
        <time>2017-03-17T11:29:24Z</time>
      </trkpt>
      <trkpt lat="45.96184" lon="4.71554">
        <ele>183</ele>
        <time>2017-03-17T11:29:25Z</time>
      </trkpt>
      <trkpt lat="45.96178" lon="4.71553">
        <ele>183</ele>
        <time>2017-03-17T11:29:26Z</time>
      </trkpt>
      <trkpt lat="45.96173" lon="4.71551">
        <ele>183</ele>
        <time>2017-03-17T11:29:27Z</time>
      </trkpt>
      <trkpt lat="45.96167" lon="4.7155">
        <ele>184</ele>
        <time>2017-03-17T11:29:28Z</time>
      </trkpt>
      <trkpt lat="45.96161" lon="4.71548">
        <ele>184</ele>
        <time>2017-03-17T11:29:29Z</time>
      </trkpt>
      <trkpt lat="45.96154" lon="4.71547">
        <ele>184</ele>
        <time>2017-03-17T11:29:30Z</time>
      </trkpt>
      <trkpt lat="45.96148" lon="4.71546">
        <ele>184</ele>
        <time>2017-03-17T11:29:31Z</time>
      </trkpt>
      <trkpt lat="45.96141" lon="4.71545">
        <ele>184</ele>
        <time>2017-03-17T11:29:32Z</time>
      </trkpt>
      <trkpt lat="45.96134" lon="4.71544">
        <ele>185</ele>
        <time>2017-03-17T11:29:33Z</time>
      </trkpt>
      <trkpt lat="45.96128" lon="4.71543">
        <ele>185</ele>
        <time>2017-03-17T11:29:34Z</time>
      </trkpt>
      <trkpt lat="45.96121" lon="4.71542">
        <ele>185</ele>
        <time>2017-03-17T11:29:35Z</time>
      </trkpt>
      <trkpt lat="45.96115" lon="4.71541">
        <ele>185</ele>
        <time>2017-03-17T11:29:36Z</time>
      </trkpt>
      <trkpt lat="45.96109" lon="4.7154">
        <ele>185</ele>
        <time>2017-03-17T11:29:37Z</time>
      </trkpt>
      <trkpt lat="45.96103" lon="4.71539">
        <ele>185</ele>
        <time>2017-03-17T11:29:38Z</time>
      </trkpt>
      <trkpt lat="45.96097" lon="4.71538">
        <ele>185</ele>
        <time>2017-03-17T11:29:39Z</time>
      </trkpt>
      <trkpt lat="45.96092" lon="4.71536">
        <ele>185</ele>
        <time>2017-03-17T11:29:40Z</time>
      </trkpt>
      <trkpt lat="45.96086" lon="4.71536">
        <ele>185</ele>
        <time>2017-03-17T11:29:41Z</time>
      </trkpt>
      <trkpt lat="45.96081" lon="4.71535">
        <ele>186</ele>
        <time>2017-03-17T11:29:42Z</time>
      </trkpt>
      <trkpt lat="45.96075" lon="4.71534">
        <ele>186</ele>
        <time>2017-03-17T11:29:43Z</time>
      </trkpt>
      <trkpt lat="45.96069" lon="4.71533">
        <ele>186</ele>
        <time>2017-03-17T11:29:44Z</time>
      </trkpt>
      <trkpt lat="45.96064" lon="4.71531">
        <ele>186</ele>
        <time>2017-03-17T11:29:45Z</time>
      </trkpt>
      <trkpt lat="45.96057" lon="4.7153">
        <ele>186</ele>
        <time>2017-03-17T11:29:46Z</time>
      </trkpt>
      <trkpt lat="45.96051" lon="4.71529">
        <ele>186</ele>
        <time>2017-03-17T11:29:47Z</time>
      </trkpt>
      <trkpt lat="45.96044" lon="4.71528">
        <ele>186</ele>
        <time>2017-03-17T11:29:48Z</time>
      </trkpt>
      <trkpt lat="45.96038" lon="4.71527">
        <ele>186</ele>
        <time>2017-03-17T11:29:49Z</time>
      </trkpt>
      <trkpt lat="45.96032" lon="4.71526">
        <ele>186</ele>
        <time>2017-03-17T11:29:50Z</time>
      </trkpt>
      <trkpt lat="45.96026" lon="4.71525">
        <ele>186</ele>
        <time>2017-03-17T11:29:51Z</time>
      </trkpt>
      <trkpt lat="45.9602" lon="4.71524">
        <ele>186</ele>
        <time>2017-03-17T11:29:52Z</time>
      </trkpt>
      <trkpt lat="45.96014" lon="4.71523">
        <ele>186</ele>
        <time>2017-03-17T11:29:53Z</time>
      </trkpt>
      <trkpt lat="45.96009" lon="4.71521">
        <ele>186</ele>
        <time>2017-03-17T11:29:54Z</time>
      </trkpt>
      <trkpt lat="45.96003" lon="4.71519">
        <ele>186</ele>
        <time>2017-03-17T11:29:55Z</time>
      </trkpt>
      <trkpt lat="45.95998" lon="4.71517">
        <ele>186</ele>
        <time>2017-03-17T11:29:56Z</time>
      </trkpt>
      <trkpt lat="45.95994" lon="4.71514">
        <ele>186</ele>
        <time>2017-03-17T11:29:57Z</time>
      </trkpt>
      <trkpt lat="45.9599" lon="4.71511">
        <ele>186</ele>
        <time>2017-03-17T11:29:58Z</time>
      </trkpt>
      <trkpt lat="45.95985" lon="4.7151">
        <ele>186</ele>
        <time>2017-03-17T11:29:59Z</time>
      </trkpt>
      <trkpt lat="45.9598" lon="4.71509">
        <ele>185</ele>
        <time>2017-03-17T11:30:00Z</time>
      </trkpt>
      <trkpt lat="45.95975" lon="4.7151">
        <ele>185</ele>
        <time>2017-03-17T11:30:01Z</time>
      </trkpt>
      <trkpt lat="45.9597" lon="4.71512">
        <ele>185</ele>
        <time>2017-03-17T11:30:02Z</time>
      </trkpt>
      <trkpt lat="45.95965" lon="4.71515">
        <ele>184</ele>
        <time>2017-03-17T11:30:03Z</time>
      </trkpt>
      <trkpt lat="45.95959" lon="4.71517">
        <ele>184</ele>
        <time>2017-03-17T11:30:04Z</time>
      </trkpt>
      <trkpt lat="45.95954" lon="4.71518">
        <ele>184</ele>
        <time>2017-03-17T11:30:05Z</time>
      </trkpt>
      <trkpt lat="45.95948" lon="4.71518">
        <ele>184</ele>
        <time>2017-03-17T11:30:06Z</time>
      </trkpt>
      <trkpt lat="45.95941" lon="4.71518">
        <ele>184</ele>
        <time>2017-03-17T11:30:07Z</time>
      </trkpt>
      <trkpt lat="45.95935" lon="4.71518">
        <ele>184</ele>
        <time>2017-03-17T11:30:08Z</time>
      </trkpt>
      <trkpt lat="45.95929" lon="4.71518">
        <ele>184</ele>
        <time>2017-03-17T11:30:09Z</time>
      </trkpt>
      <trkpt lat="45.95922" lon="4.71518">
        <ele>184</ele>
        <time>2017-03-17T11:30:10Z</time>
      </trkpt>
      <trkpt lat="45.95916" lon="4.71518">
        <ele>183</ele>
        <time>2017-03-17T11:30:11Z</time>
      </trkpt>
      <trkpt lat="45.9591" lon="4.71518">
        <ele>183</ele>
        <time>2017-03-17T11:30:12Z</time>
      </trkpt>
      <trkpt lat="45.95904" lon="4.71518">
        <ele>183</ele>
        <time>2017-03-17T11:30:13Z</time>
      </trkpt>
      <trkpt lat="45.95897" lon="4.71518">
        <ele>183</ele>
        <time>2017-03-17T11:30:14Z</time>
      </trkpt>
      <trkpt lat="45.95891" lon="4.71518">
        <ele>182</ele>
        <time>2017-03-17T11:30:15Z</time>
      </trkpt>
      <trkpt lat="45.95885" lon="4.71518">
        <ele>182</ele>
        <time>2017-03-17T11:30:16Z</time>
      </trkpt>
      <trkpt lat="45.95878" lon="4.71518">
        <ele>182</ele>
        <time>2017-03-17T11:30:17Z</time>
      </trkpt>
      <trkpt lat="45.95872" lon="4.71518">
        <ele>182</ele>
        <time>2017-03-17T11:30:18Z</time>
      </trkpt>
      <trkpt lat="45.95865" lon="4.71517">
        <ele>182</ele>
        <time>2017-03-17T11:30:19Z</time>
      </trkpt>
      <trkpt lat="45.95859" lon="4.71517">
        <ele>182</ele>
        <time>2017-03-17T11:30:20Z</time>
      </trkpt>
      <trkpt lat="45.95853" lon="4.71517">
        <ele>182</ele>
        <time>2017-03-17T11:30:21Z</time>
      </trkpt>
      <trkpt lat="45.95846" lon="4.71516">
        <ele>182</ele>
        <time>2017-03-17T11:30:22Z</time>
      </trkpt>
      <trkpt lat="45.9584" lon="4.71516">
        <ele>183</ele>
        <time>2017-03-17T11:30:23Z</time>
      </trkpt>
      <trkpt lat="45.95834" lon="4.71516">
        <ele>183</ele>
        <time>2017-03-17T11:30:24Z</time>
      </trkpt>
      <trkpt lat="45.95828" lon="4.71516">
        <ele>182</ele>
        <time>2017-03-17T11:30:25Z</time>
      </trkpt>
      <trkpt lat="45.95822" lon="4.71515">
        <ele>182</ele>
        <time>2017-03-17T11:30:26Z</time>
      </trkpt>
      <trkpt lat="45.95816" lon="4.71515">
        <ele>182</ele>
        <time>2017-03-17T11:30:27Z</time>
      </trkpt>
      <trkpt lat="45.9581" lon="4.71515">
        <ele>182</ele>
        <time>2017-03-17T11:30:28Z</time>
      </trkpt>
      <trkpt lat="45.95804" lon="4.71514">
        <ele>181</ele>
        <time>2017-03-17T11:30:29Z</time>
      </trkpt>
      <trkpt lat="45.95797" lon="4.71514">
        <ele>181</ele>
        <time>2017-03-17T11:30:30Z</time>
      </trkpt>
      <trkpt lat="45.95791" lon="4.71513">
        <ele>181</ele>
        <time>2017-03-17T11:30:31Z</time>
      </trkpt>
      <trkpt lat="45.95784" lon="4.71513">
        <ele>181</ele>
        <time>2017-03-17T11:30:32Z</time>
      </trkpt>
      <trkpt lat="45.95777" lon="4.71513">
        <ele>181</ele>
        <time>2017-03-17T11:30:33Z</time>
      </trkpt>
      <trkpt lat="45.95769" lon="4.71512">
        <ele>181</ele>
        <time>2017-03-17T11:30:34Z</time>
      </trkpt>
      <trkpt lat="45.95762" lon="4.71512">
        <ele>181</ele>
        <time>2017-03-17T11:30:35Z</time>
      </trkpt>
      <trkpt lat="45.95755" lon="4.71511">
        <ele>181</ele>
        <time>2017-03-17T11:30:36Z</time>
      </trkpt>
      <trkpt lat="45.95747" lon="4.71511">
        <ele>181</ele>
        <time>2017-03-17T11:30:37Z</time>
      </trkpt>
      <trkpt lat="45.9574" lon="4.7151">
        <ele>181</ele>
        <time>2017-03-17T11:30:38Z</time>
      </trkpt>
      <trkpt lat="45.95732" lon="4.71509">
        <ele>181</ele>
        <time>2017-03-17T11:30:39Z</time>
      </trkpt>
      <trkpt lat="45.95725" lon="4.71509">
        <ele>181</ele>
        <time>2017-03-17T11:30:40Z</time>
      </trkpt>
      <trkpt lat="45.95717" lon="4.71508">
        <ele>180</ele>
        <time>2017-03-17T11:30:41Z</time>
      </trkpt>
      <trkpt lat="45.95709" lon="4.71508">
        <ele>180</ele>
        <time>2017-03-17T11:30:42Z</time>
      </trkpt>
      <trkpt lat="45.95702" lon="4.71508">
        <ele>180</ele>
        <time>2017-03-17T11:30:43Z</time>
      </trkpt>
      <trkpt lat="45.95694" lon="4.71507">
        <ele>180</ele>
        <time>2017-03-17T11:30:44Z</time>
      </trkpt>
      <trkpt lat="45.95687" lon="4.71507">
        <ele>181</ele>
        <time>2017-03-17T11:30:45Z</time>
      </trkpt>
      <trkpt lat="45.95679" lon="4.71506">
        <ele>181</ele>
        <time>2017-03-17T11:30:46Z</time>
      </trkpt>
      <trkpt lat="45.95671" lon="4.71506">
        <ele>181</ele>
        <time>2017-03-17T11:30:47Z</time>
      </trkpt>
      <trkpt lat="45.95663" lon="4.71505">
        <ele>181</ele>
        <time>2017-03-17T11:30:48Z</time>
      </trkpt>
      <trkpt lat="45.95655" lon="4.71505">
        <ele>181</ele>
        <time>2017-03-17T11:30:49Z</time>
      </trkpt>
      <trkpt lat="45.95647" lon="4.71504">
        <ele>180</ele>
        <time>2017-03-17T11:30:50Z</time>
      </trkpt>
      <trkpt lat="45.95639" lon="4.71503">
        <ele>180</ele>
        <time>2017-03-17T11:30:51Z</time>
      </trkpt>
      <trkpt lat="45.95632" lon="4.71502">
        <ele>180</ele>
        <time>2017-03-17T11:30:52Z</time>
      </trkpt>
      <trkpt lat="45.95624" lon="4.71501">
        <ele>180</ele>
        <time>2017-03-17T11:30:53Z</time>
      </trkpt>
      <trkpt lat="45.95616" lon="4.71501">
        <ele>179</ele>
        <time>2017-03-17T11:30:54Z</time>
      </trkpt>
      <trkpt lat="45.95609" lon="4.715">
        <ele>179</ele>
        <time>2017-03-17T11:30:55Z</time>
      </trkpt>
      <trkpt lat="45.95601" lon="4.715">
        <ele>181</ele>
        <time>2017-03-17T11:30:56Z</time>
      </trkpt>
      <trkpt lat="45.95594" lon="4.715">
        <ele>181</ele>
        <time>2017-03-17T11:30:57Z</time>
      </trkpt>
      <trkpt lat="45.95586" lon="4.71499">
        <ele>180</ele>
        <time>2017-03-17T11:30:58Z</time>
      </trkpt>
      <trkpt lat="45.95578" lon="4.71498">
        <ele>180</ele>
        <time>2017-03-17T11:30:59Z</time>
      </trkpt>
      <trkpt lat="45.95571" lon="4.71498">
        <ele>180</ele>
        <time>2017-03-17T11:31:00Z</time>
      </trkpt>
      <trkpt lat="45.95563" lon="4.71497">
        <ele>179</ele>
        <time>2017-03-17T11:31:01Z</time>
      </trkpt>
      <trkpt lat="45.95556" lon="4.71497">
        <ele>179</ele>
        <time>2017-03-17T11:31:02Z</time>
      </trkpt>
      <trkpt lat="45.95548" lon="4.71496">
        <ele>179</ele>
        <time>2017-03-17T11:31:03Z</time>
      </trkpt>
      <trkpt lat="45.9554" lon="4.71496">
        <ele>179</ele>
        <time>2017-03-17T11:31:04Z</time>
      </trkpt>
      <trkpt lat="45.95532" lon="4.71496">
        <ele>179</ele>
        <time>2017-03-17T11:31:05Z</time>
      </trkpt>
      <trkpt lat="45.95525" lon="4.71495">
        <ele>178</ele>
        <time>2017-03-17T11:31:06Z</time>
      </trkpt>
      <trkpt lat="45.95517" lon="4.71495">
        <ele>178</ele>
        <time>2017-03-17T11:31:07Z</time>
      </trkpt>
      <trkpt lat="45.95509" lon="4.71494">
        <ele>178</ele>
        <time>2017-03-17T11:31:08Z</time>
      </trkpt>
      <trkpt lat="45.95502" lon="4.71493">
        <ele>177</ele>
        <time>2017-03-17T11:31:09Z</time>
      </trkpt>
      <trkpt lat="45.95494" lon="4.71493">
        <ele>177</ele>
        <time>2017-03-17T11:31:10Z</time>
      </trkpt>
      <trkpt lat="45.95487" lon="4.71492">
        <ele>177</ele>
        <time>2017-03-17T11:31:11Z</time>
      </trkpt>
      <trkpt lat="45.9548" lon="4.71492">
        <ele>176</ele>
        <time>2017-03-17T11:31:12Z</time>
      </trkpt>
      <trkpt lat="45.95473" lon="4.71492">
        <ele>176</ele>
        <time>2017-03-17T11:31:13Z</time>
      </trkpt>
      <trkpt lat="45.95465" lon="4.71491">
        <ele>176</ele>
        <time>2017-03-17T11:31:14Z</time>
      </trkpt>
      <trkpt lat="45.95458" lon="4.71491">
        <ele>176</ele>
        <time>2017-03-17T11:31:15Z</time>
      </trkpt>
      <trkpt lat="45.95451" lon="4.71491">
        <ele>176</ele>
        <time>2017-03-17T11:31:16Z</time>
      </trkpt>
      <trkpt lat="45.95444" lon="4.7149">
        <ele>176</ele>
        <time>2017-03-17T11:31:17Z</time>
      </trkpt>
      <trkpt lat="45.95437" lon="4.7149">
        <ele>175</ele>
        <time>2017-03-17T11:31:18Z</time>
      </trkpt>
      <trkpt lat="45.95431" lon="4.71489">
        <ele>175</ele>
        <time>2017-03-17T11:31:19Z</time>
      </trkpt>
      <trkpt lat="45.95424" lon="4.71489">
        <ele>175</ele>
        <time>2017-03-17T11:31:20Z</time>
      </trkpt>
      <trkpt lat="45.95417" lon="4.71489">
        <ele>174</ele>
        <time>2017-03-17T11:31:21Z</time>
      </trkpt>
      <trkpt lat="45.9541" lon="4.71488">
        <ele>175</ele>
        <time>2017-03-17T11:31:22Z</time>
      </trkpt>
      <trkpt lat="45.95404" lon="4.71488">
        <ele>175</ele>
        <time>2017-03-17T11:31:23Z</time>
      </trkpt>
      <trkpt lat="45.95397" lon="4.71487">
        <ele>175</ele>
        <time>2017-03-17T11:31:24Z</time>
      </trkpt>
      <trkpt lat="45.95391" lon="4.71487">
        <ele>175</ele>
        <time>2017-03-17T11:31:25Z</time>
      </trkpt>
      <trkpt lat="45.95383" lon="4.71486">
        <ele>175</ele>
        <time>2017-03-17T11:31:26Z</time>
      </trkpt>
      <trkpt lat="45.95376" lon="4.71486">
        <ele>175</ele>
        <time>2017-03-17T11:31:27Z</time>
      </trkpt>
      <trkpt lat="45.95369" lon="4.71485">
        <ele>175</ele>
        <time>2017-03-17T11:31:28Z</time>
      </trkpt>
      <trkpt lat="45.95362" lon="4.71484">
        <ele>175</ele>
        <time>2017-03-17T11:31:29Z</time>
      </trkpt>
      <trkpt lat="45.95355" lon="4.71484">
        <ele>175</ele>
        <time>2017-03-17T11:31:30Z</time>
      </trkpt>
      <trkpt lat="45.95348" lon="4.71483">
        <ele>175</ele>
        <time>2017-03-17T11:31:31Z</time>
      </trkpt>
      <trkpt lat="45.95341" lon="4.71483">
        <ele>175</ele>
        <time>2017-03-17T11:31:32Z</time>
      </trkpt>
      <trkpt lat="45.95334" lon="4.71482">
        <ele>175</ele>
        <time>2017-03-17T11:31:33Z</time>
      </trkpt>
      <trkpt lat="45.95327" lon="4.71481">
        <ele>175</ele>
        <time>2017-03-17T11:31:34Z</time>
      </trkpt>
      <trkpt lat="45.9532" lon="4.71481">
        <ele>175</ele>
        <time>2017-03-17T11:31:35Z</time>
      </trkpt>
      <trkpt lat="45.95314" lon="4.7148">
        <ele>175</ele>
        <time>2017-03-17T11:31:36Z</time>
      </trkpt>
      <trkpt lat="45.95307" lon="4.7148">
        <ele>175</ele>
        <time>2017-03-17T11:31:37Z</time>
      </trkpt>
      <trkpt lat="45.95301" lon="4.7148">
        <ele>176</ele>
        <time>2017-03-17T11:31:38Z</time>
      </trkpt>
      <trkpt lat="45.95294" lon="4.71479">
        <ele>176</ele>
        <time>2017-03-17T11:31:39Z</time>
      </trkpt>
      <trkpt lat="45.95288" lon="4.71479">
        <ele>176</ele>
        <time>2017-03-17T11:31:40Z</time>
      </trkpt>
      <trkpt lat="45.95283" lon="4.71479">
        <ele>176</ele>
        <time>2017-03-17T11:31:41Z</time>
      </trkpt>
      <trkpt lat="45.95277" lon="4.71478">
        <ele>176</ele>
        <time>2017-03-17T11:31:42Z</time>
      </trkpt>
      <trkpt lat="45.9527" lon="4.71478">
        <ele>176</ele>
        <time>2017-03-17T11:31:43Z</time>
      </trkpt>
      <trkpt lat="45.95264" lon="4.71478">
        <ele>176</ele>
        <time>2017-03-17T11:31:44Z</time>
      </trkpt>
      <trkpt lat="45.95258" lon="4.71477">
        <ele>176</ele>
        <time>2017-03-17T11:31:45Z</time>
      </trkpt>
      <trkpt lat="45.95252" lon="4.71477">
        <ele>176</ele>
        <time>2017-03-17T11:31:46Z</time>
      </trkpt>
      <trkpt lat="45.95247" lon="4.71476">
        <ele>177</ele>
        <time>2017-03-17T11:31:47Z</time>
      </trkpt>
      <trkpt lat="45.95241" lon="4.71476">
        <ele>177</ele>
        <time>2017-03-17T11:31:48Z</time>
      </trkpt>
      <trkpt lat="45.95235" lon="4.71475">
        <ele>177</ele>
        <time>2017-03-17T11:31:49Z</time>
      </trkpt>
      <trkpt lat="45.95229" lon="4.71476">
        <ele>177</ele>
        <time>2017-03-17T11:31:50Z</time>
      </trkpt>
      <trkpt lat="45.95223" lon="4.71475">
        <ele>177</ele>
        <time>2017-03-17T11:31:51Z</time>
      </trkpt>
      <trkpt lat="45.95217" lon="4.71475">
        <ele>177</ele>
        <time>2017-03-17T11:31:52Z</time>
      </trkpt>
      <trkpt lat="45.95211" lon="4.71474">
        <ele>177</ele>
        <time>2017-03-17T11:31:53Z</time>
      </trkpt>
      <trkpt lat="45.95205" lon="4.71473">
        <ele>177</ele>
        <time>2017-03-17T11:31:54Z</time>
      </trkpt>
      <trkpt lat="45.95199" lon="4.71473">
        <ele>177</ele>
        <time>2017-03-17T11:31:55Z</time>
      </trkpt>
      <trkpt lat="45.95193" lon="4.71472">
        <ele>177</ele>
        <time>2017-03-17T11:31:56Z</time>
      </trkpt>
      <trkpt lat="45.95188" lon="4.71472">
        <ele>177</ele>
        <time>2017-03-17T11:31:57Z</time>
      </trkpt>
      <trkpt lat="45.95182" lon="4.71471">
        <ele>177</ele>
        <time>2017-03-17T11:31:58Z</time>
      </trkpt>
      <trkpt lat="45.95176" lon="4.71471">
        <ele>177</ele>
        <time>2017-03-17T11:31:59Z</time>
      </trkpt>
      <trkpt lat="45.95171" lon="4.7147">
        <ele>177</ele>
        <time>2017-03-17T11:32:00Z</time>
      </trkpt>
      <trkpt lat="45.95165" lon="4.7147">
        <ele>178</ele>
        <time>2017-03-17T11:32:01Z</time>
      </trkpt>
      <trkpt lat="45.95159" lon="4.7147">
        <ele>178</ele>
        <time>2017-03-17T11:32:02Z</time>
      </trkpt>
      <trkpt lat="45.95154" lon="4.71469">
        <ele>178</ele>
        <time>2017-03-17T11:32:03Z</time>
      </trkpt>
      <trkpt lat="45.95148" lon="4.71469">
        <ele>178</ele>
        <time>2017-03-17T11:32:04Z</time>
      </trkpt>
      <trkpt lat="45.95142" lon="4.71468">
        <ele>178</ele>
        <time>2017-03-17T11:32:05Z</time>
      </trkpt>
      <trkpt lat="45.95137" lon="4.71467">
        <ele>178</ele>
        <time>2017-03-17T11:32:06Z</time>
      </trkpt>
      <trkpt lat="45.95132" lon="4.71466">
        <ele>178</ele>
        <time>2017-03-17T11:32:07Z</time>
      </trkpt>
      <trkpt lat="45.95126" lon="4.71466">
        <ele>178</ele>
        <time>2017-03-17T11:32:08Z</time>
      </trkpt>
      <trkpt lat="45.95121" lon="4.71465">
        <ele>179</ele>
        <time>2017-03-17T11:32:09Z</time>
      </trkpt>
      <trkpt lat="45.95115" lon="4.71465">
        <ele>179</ele>
        <time>2017-03-17T11:32:10Z</time>
      </trkpt>
      <trkpt lat="45.95109" lon="4.71465">
        <ele>179</ele>
        <time>2017-03-17T11:32:11Z</time>
      </trkpt>
      <trkpt lat="45.95104" lon="4.71464">
        <ele>179</ele>
        <time>2017-03-17T11:32:12Z</time>
      </trkpt>
      <trkpt lat="45.95098" lon="4.71464">
        <ele>179</ele>
        <time>2017-03-17T11:32:13Z</time>
      </trkpt>
      <trkpt lat="45.95092" lon="4.71463">
        <ele>179</ele>
        <time>2017-03-17T11:32:14Z</time>
      </trkpt>
      <trkpt lat="45.95087" lon="4.71463">
        <ele>179</ele>
        <time>2017-03-17T11:32:15Z</time>
      </trkpt>
      <trkpt lat="45.95081" lon="4.71463">
        <ele>181</ele>
        <time>2017-03-17T11:32:16Z</time>
      </trkpt>
      <trkpt lat="45.95076" lon="4.71462">
        <ele>181</ele>
        <time>2017-03-17T11:32:17Z</time>
      </trkpt>
      <trkpt lat="45.95071" lon="4.71462">
        <ele>181</ele>
        <time>2017-03-17T11:32:18Z</time>
      </trkpt>
      <trkpt lat="45.95065" lon="4.71461">
        <ele>181</ele>
        <time>2017-03-17T11:32:19Z</time>
      </trkpt>
      <trkpt lat="45.9506" lon="4.71461">
        <ele>181</ele>
        <time>2017-03-17T11:32:20Z</time>
      </trkpt>
      <trkpt lat="45.95055" lon="4.71461">
        <ele>181</ele>
        <time>2017-03-17T11:32:21Z</time>
      </trkpt>
      <trkpt lat="45.9505" lon="4.71461">
        <ele>182</ele>
        <time>2017-03-17T11:32:22Z</time>
      </trkpt>
      <trkpt lat="45.95045" lon="4.7146">
        <ele>182</ele>
        <time>2017-03-17T11:32:23Z</time>
      </trkpt>
      <trkpt lat="45.95041" lon="4.7146">
        <ele>182</ele>
        <time>2017-03-17T11:32:24Z</time>
      </trkpt>
      <trkpt lat="45.95036" lon="4.71459">
        <ele>182</ele>
        <time>2017-03-17T11:32:25Z</time>
      </trkpt>
      <trkpt lat="45.95031" lon="4.71459">
        <ele>182</ele>
        <time>2017-03-17T11:32:26Z</time>
      </trkpt>
      <trkpt lat="45.95026" lon="4.71458">
        <ele>182</ele>
        <time>2017-03-17T11:32:27Z</time>
      </trkpt>
      <trkpt lat="45.95021" lon="4.71458">
        <ele>182</ele>
        <time>2017-03-17T11:32:28Z</time>
      </trkpt>
      <trkpt lat="45.95015" lon="4.71457">
        <ele>182</ele>
        <time>2017-03-17T11:32:29Z</time>
      </trkpt>
      <trkpt lat="45.9501" lon="4.71456">
        <ele>182</ele>
        <time>2017-03-17T11:32:30Z</time>
      </trkpt>
      <trkpt lat="45.95004" lon="4.71454">
        <ele>183</ele>
        <time>2017-03-17T11:32:31Z</time>
      </trkpt>
      <trkpt lat="45.94999" lon="4.71449">
        <ele>184</ele>
        <time>2017-03-17T11:32:32Z</time>
      </trkpt>
      <trkpt lat="45.94994" lon="4.71443">
        <ele>184</ele>
        <time>2017-03-17T11:32:33Z</time>
      </trkpt>
      <trkpt lat="45.9499" lon="4.71437">
        <ele>185</ele>
        <time>2017-03-17T11:32:34Z</time>
      </trkpt>
      <trkpt lat="45.94985" lon="4.71432">
        <ele>185</ele>
        <time>2017-03-17T11:32:35Z</time>
      </trkpt>
      <trkpt lat="45.94979" lon="4.71429">
        <ele>185</ele>
        <time>2017-03-17T11:32:36Z</time>
      </trkpt>
      <trkpt lat="45.94973" lon="4.71429">
        <ele>185</ele>
        <time>2017-03-17T11:32:37Z</time>
      </trkpt>
      <trkpt lat="45.94967" lon="4.71431">
        <ele>185</ele>
        <time>2017-03-17T11:32:38Z</time>
      </trkpt>
      <trkpt lat="45.9496" lon="4.71435">
        <ele>184</ele>
        <time>2017-03-17T11:32:39Z</time>
      </trkpt>
      <trkpt lat="45.94954" lon="4.7144">
        <ele>184</ele>
        <time>2017-03-17T11:32:40Z</time>
      </trkpt>
      <trkpt lat="45.94949" lon="4.71445">
        <ele>184</ele>
        <time>2017-03-17T11:32:41Z</time>
      </trkpt>
      <trkpt lat="45.94944" lon="4.71449">
        <ele>184</ele>
        <time>2017-03-17T11:32:42Z</time>
      </trkpt>
      <trkpt lat="45.94938" lon="4.71452">
        <ele>184</ele>
        <time>2017-03-17T11:32:43Z</time>
      </trkpt>
      <trkpt lat="45.94932" lon="4.71455">
        <ele>184</ele>
        <time>2017-03-17T11:32:44Z</time>
      </trkpt>
      <trkpt lat="45.94926" lon="4.71455">
        <ele>184</ele>
        <time>2017-03-17T11:32:45Z</time>
      </trkpt>
      <trkpt lat="45.9492" lon="4.71455">
        <ele>184</ele>
        <time>2017-03-17T11:32:46Z</time>
      </trkpt>
      <trkpt lat="45.94914" lon="4.71455">
        <ele>184</ele>
        <time>2017-03-17T11:32:47Z</time>
      </trkpt>
      <trkpt lat="45.94908" lon="4.71455">
        <ele>184</ele>
        <time>2017-03-17T11:32:48Z</time>
      </trkpt>
      <trkpt lat="45.94902" lon="4.71455">
        <ele>184</ele>
        <time>2017-03-17T11:32:49Z</time>
      </trkpt>
      <trkpt lat="45.94897" lon="4.71455">
        <ele>184</ele>
        <time>2017-03-17T11:32:50Z</time>
      </trkpt>
      <trkpt lat="45.94892" lon="4.71454">
        <ele>184</ele>
        <time>2017-03-17T11:32:51Z</time>
      </trkpt>
      <trkpt lat="45.94886" lon="4.71453">
        <ele>184</ele>
        <time>2017-03-17T11:32:52Z</time>
      </trkpt>
      <trkpt lat="45.94881" lon="4.71453">
        <ele>184</ele>
        <time>2017-03-17T11:32:53Z</time>
      </trkpt>
      <trkpt lat="45.94876" lon="4.71452">
        <ele>184</ele>
        <time>2017-03-17T11:32:54Z</time>
      </trkpt>
      <trkpt lat="45.9487" lon="4.71451">
        <ele>184</ele>
        <time>2017-03-17T11:32:55Z</time>
      </trkpt>
      <trkpt lat="45.94864" lon="4.7145">
        <ele>184</ele>
        <time>2017-03-17T11:32:56Z</time>
      </trkpt>
      <trkpt lat="45.94859" lon="4.7145">
        <ele>184</ele>
        <time>2017-03-17T11:32:57Z</time>
      </trkpt>
      <trkpt lat="45.94853" lon="4.7145">
        <ele>184</ele>
        <time>2017-03-17T11:32:58Z</time>
      </trkpt>
      <trkpt lat="45.94847" lon="4.71449">
        <ele>184</ele>
        <time>2017-03-17T11:32:59Z</time>
      </trkpt>
      <trkpt lat="45.94841" lon="4.71449">
        <ele>184</ele>
        <time>2017-03-17T11:33:00Z</time>
      </trkpt>
      <trkpt lat="45.94835" lon="4.71449">
        <ele>184</ele>
        <time>2017-03-17T11:33:01Z</time>
      </trkpt>
      <trkpt lat="45.94828" lon="4.71448">
        <ele>184</ele>
        <time>2017-03-17T11:33:02Z</time>
      </trkpt>
      <trkpt lat="45.94823" lon="4.71448">
        <ele>184</ele>
        <time>2017-03-17T11:33:03Z</time>
      </trkpt>
      <trkpt lat="45.94817" lon="4.71447">
        <ele>184</ele>
        <time>2017-03-17T11:33:04Z</time>
      </trkpt>
      <trkpt lat="45.94811" lon="4.71447">
        <ele>184</ele>
        <time>2017-03-17T11:33:05Z</time>
      </trkpt>
      <trkpt lat="45.94805" lon="4.71446">
        <ele>184</ele>
        <time>2017-03-17T11:33:06Z</time>
      </trkpt>
      <trkpt lat="45.948" lon="4.71446">
        <ele>183</ele>
        <time>2017-03-17T11:33:07Z</time>
      </trkpt>
      <trkpt lat="45.94795" lon="4.71445">
        <ele>183</ele>
        <time>2017-03-17T11:33:08Z</time>
      </trkpt>
      <trkpt lat="45.9479" lon="4.71445">
        <ele>183</ele>
        <time>2017-03-17T11:33:09Z</time>
      </trkpt>
      <trkpt lat="45.94784" lon="4.71444">
        <ele>183</ele>
        <time>2017-03-17T11:33:10Z</time>
      </trkpt>
      <trkpt lat="45.94779" lon="4.71444">
        <ele>184</ele>
        <time>2017-03-17T11:33:11Z</time>
      </trkpt>
      <trkpt lat="45.94774" lon="4.71443">
        <ele>184</ele>
        <time>2017-03-17T11:33:12Z</time>
      </trkpt>
      <trkpt lat="45.94769" lon="4.71443">
        <ele>184</ele>
        <time>2017-03-17T11:33:13Z</time>
      </trkpt>
      <trkpt lat="45.94763" lon="4.71443">
        <ele>184</ele>
        <time>2017-03-17T11:33:14Z</time>
      </trkpt>
      <trkpt lat="45.94758" lon="4.71442">
        <ele>184</ele>
        <time>2017-03-17T11:33:15Z</time>
      </trkpt>
      <trkpt lat="45.94752" lon="4.71442">
        <ele>184</ele>
        <time>2017-03-17T11:33:16Z</time>
      </trkpt>
      <trkpt lat="45.94747" lon="4.71441">
        <ele>183</ele>
        <time>2017-03-17T11:33:17Z</time>
      </trkpt>
      <trkpt lat="45.94741" lon="4.71441">
        <ele>183</ele>
        <time>2017-03-17T11:33:18Z</time>
      </trkpt>
      <trkpt lat="45.94735" lon="4.71441">
        <ele>183</ele>
        <time>2017-03-17T11:33:19Z</time>
      </trkpt>
      <trkpt lat="45.9473" lon="4.71441">
        <ele>183</ele>
        <time>2017-03-17T11:33:20Z</time>
      </trkpt>
      <trkpt lat="45.94724" lon="4.71441">
        <ele>183</ele>
        <time>2017-03-17T11:33:21Z</time>
      </trkpt>
      <trkpt lat="45.94719" lon="4.7144">
        <ele>182</ele>
        <time>2017-03-17T11:33:22Z</time>
      </trkpt>
      <trkpt lat="45.94713" lon="4.71441">
        <ele>182</ele>
        <time>2017-03-17T11:33:23Z</time>
      </trkpt>
      <trkpt lat="45.94707" lon="4.7144">
        <ele>182</ele>
        <time>2017-03-17T11:33:24Z</time>
      </trkpt>
      <trkpt lat="45.94702" lon="4.7144">
        <ele>182</ele>
        <time>2017-03-17T11:33:25Z</time>
      </trkpt>
      <trkpt lat="45.94696" lon="4.7144">
        <ele>182</ele>
        <time>2017-03-17T11:33:26Z</time>
      </trkpt>
      <trkpt lat="45.94687" lon="4.7144">
        <ele>182</ele>
        <time>2017-03-17T11:33:28Z</time>
      </trkpt>
      <trkpt lat="45.94682" lon="4.7144">
        <ele>182</ele>
        <time>2017-03-17T11:33:29Z</time>
      </trkpt>
      <trkpt lat="45.94678" lon="4.7144">
        <ele>182</ele>
        <time>2017-03-17T11:33:30Z</time>
      </trkpt>
      <trkpt lat="45.94672" lon="4.7144">
        <ele>182</ele>
        <time>2017-03-17T11:33:31Z</time>
      </trkpt>
      <trkpt lat="45.94667" lon="4.71439">
        <ele>182</ele>
        <time>2017-03-17T11:33:32Z</time>
      </trkpt>
      <trkpt lat="45.94661" lon="4.71438">
        <ele>182</ele>
        <time>2017-03-17T11:33:33Z</time>
      </trkpt>
      <trkpt lat="45.94656" lon="4.71438">
        <ele>182</ele>
        <time>2017-03-17T11:33:34Z</time>
      </trkpt>
      <trkpt lat="45.9465" lon="4.71437">
        <ele>182</ele>
        <time>2017-03-17T11:33:35Z</time>
      </trkpt>
      <trkpt lat="45.94644" lon="4.71437">
        <ele>182</ele>
        <time>2017-03-17T11:33:36Z</time>
      </trkpt>
      <trkpt lat="45.94639" lon="4.71436">
        <ele>182</ele>
        <time>2017-03-17T11:33:37Z</time>
      </trkpt>
      <trkpt lat="45.94633" lon="4.71436">
        <ele>181</ele>
        <time>2017-03-17T11:33:38Z</time>
      </trkpt>
      <trkpt lat="45.94628" lon="4.71436">
        <ele>182</ele>
        <time>2017-03-17T11:33:39Z</time>
      </trkpt>
      <trkpt lat="45.94623" lon="4.71435">
        <ele>182</ele>
        <time>2017-03-17T11:33:40Z</time>
      </trkpt>
      <trkpt lat="45.94618" lon="4.71434">
        <ele>182</ele>
        <time>2017-03-17T11:33:41Z</time>
      </trkpt>
      <trkpt lat="45.94612" lon="4.71434">
        <ele>182</ele>
        <time>2017-03-17T11:33:42Z</time>
      </trkpt>
      <trkpt lat="45.94606" lon="4.71434">
        <ele>182</ele>
        <time>2017-03-17T11:33:43Z</time>
      </trkpt>
      <trkpt lat="45.946" lon="4.71434">
        <ele>182</ele>
        <time>2017-03-17T11:33:44Z</time>
      </trkpt>
      <trkpt lat="45.94595" lon="4.71433">
        <ele>182</ele>
        <time>2017-03-17T11:33:45Z</time>
      </trkpt>
      <trkpt lat="45.94588" lon="4.71433">
        <ele>183</ele>
        <time>2017-03-17T11:33:46Z</time>
      </trkpt>
      <trkpt lat="45.94582" lon="4.71434">
        <ele>182</ele>
        <time>2017-03-17T11:33:47Z</time>
      </trkpt>
      <trkpt lat="45.94576" lon="4.71434">
        <ele>182</ele>
        <time>2017-03-17T11:33:48Z</time>
      </trkpt>
      <trkpt lat="45.94569" lon="4.71435">
        <ele>182</ele>
        <time>2017-03-17T11:33:49Z</time>
      </trkpt>
      <trkpt lat="45.94562" lon="4.71436">
        <ele>181</ele>
        <time>2017-03-17T11:33:50Z</time>
      </trkpt>
      <trkpt lat="45.94556" lon="4.71438">
        <ele>181</ele>
        <time>2017-03-17T11:33:51Z</time>
      </trkpt>
      <trkpt lat="45.94549" lon="4.7144">
        <ele>181</ele>
        <time>2017-03-17T11:33:52Z</time>
      </trkpt>
      <trkpt lat="45.94543" lon="4.71442">
        <ele>181</ele>
        <time>2017-03-17T11:33:53Z</time>
      </trkpt>
      <trkpt lat="45.94536" lon="4.71444">
        <ele>181</ele>
        <time>2017-03-17T11:33:54Z</time>
      </trkpt>
      <trkpt lat="45.9453" lon="4.71447">
        <ele>180</ele>
        <time>2017-03-17T11:33:55Z</time>
      </trkpt>
      <trkpt lat="45.94523" lon="4.7145">
        <ele>180</ele>
        <time>2017-03-17T11:33:56Z</time>
      </trkpt>
      <trkpt lat="45.94516" lon="4.71452">
        <ele>180</ele>
        <time>2017-03-17T11:33:57Z</time>
      </trkpt>
      <trkpt lat="45.94509" lon="4.71455">
        <ele>180</ele>
        <time>2017-03-17T11:33:58Z</time>
      </trkpt>
      <trkpt lat="45.94502" lon="4.71458">
        <ele>180</ele>
        <time>2017-03-17T11:33:59Z</time>
      </trkpt>
      <trkpt lat="45.94495" lon="4.71461">
        <ele>179</ele>
        <time>2017-03-17T11:34:00Z</time>
      </trkpt>
      <trkpt lat="45.94488" lon="4.71464">
        <ele>179</ele>
        <time>2017-03-17T11:34:01Z</time>
      </trkpt>
      <trkpt lat="45.9448" lon="4.71467">
        <ele>179</ele>
        <time>2017-03-17T11:34:02Z</time>
      </trkpt>
      <trkpt lat="45.94473" lon="4.71471">
        <ele>179</ele>
        <time>2017-03-17T11:34:03Z</time>
      </trkpt>
      <trkpt lat="45.94465" lon="4.71474">
        <ele>179</ele>
        <time>2017-03-17T11:34:04Z</time>
      </trkpt>
      <trkpt lat="45.94457" lon="4.71476">
        <ele>179</ele>
        <time>2017-03-17T11:34:05Z</time>
      </trkpt>
      <trkpt lat="45.9445" lon="4.7148">
        <ele>179</ele>
        <time>2017-03-17T11:34:06Z</time>
      </trkpt>
      <trkpt lat="45.94442" lon="4.71483">
        <ele>179</ele>
        <time>2017-03-17T11:34:07Z</time>
      </trkpt>
      <trkpt lat="45.94434" lon="4.71485">
        <ele>178</ele>
        <time>2017-03-17T11:34:08Z</time>
      </trkpt>
      <trkpt lat="45.94426" lon="4.71488">
        <ele>178</ele>
        <time>2017-03-17T11:34:09Z</time>
      </trkpt>
      <trkpt lat="45.94418" lon="4.71491">
        <ele>178</ele>
        <time>2017-03-17T11:34:10Z</time>
      </trkpt>
      <trkpt lat="45.94411" lon="4.71494">
        <ele>178</ele>
        <time>2017-03-17T11:34:11Z</time>
      </trkpt>
      <trkpt lat="45.94403" lon="4.71497">
        <ele>178</ele>
        <time>2017-03-17T11:34:12Z</time>
      </trkpt>
      <trkpt lat="45.94396" lon="4.715">
        <ele>178</ele>
        <time>2017-03-17T11:34:13Z</time>
      </trkpt>
      <trkpt lat="45.94388" lon="4.71502">
        <ele>177</ele>
        <time>2017-03-17T11:34:14Z</time>
      </trkpt>
      <trkpt lat="45.94381" lon="4.71505">
        <ele>177</ele>
        <time>2017-03-17T11:34:15Z</time>
      </trkpt>
      <trkpt lat="45.94374" lon="4.71508">
        <ele>176</ele>
        <time>2017-03-17T11:34:16Z</time>
      </trkpt>
      <trkpt lat="45.94367" lon="4.71511">
        <ele>176</ele>
        <time>2017-03-17T11:34:17Z</time>
      </trkpt>
      <trkpt lat="45.9436" lon="4.71514">
        <ele>176</ele>
        <time>2017-03-17T11:34:18Z</time>
      </trkpt>
      <trkpt lat="45.94352" lon="4.71517">
        <ele>176</ele>
        <time>2017-03-17T11:34:19Z</time>
      </trkpt>
      <trkpt lat="45.94345" lon="4.71519">
        <ele>176</ele>
        <time>2017-03-17T11:34:20Z</time>
      </trkpt>
      <trkpt lat="45.94338" lon="4.71522">
        <ele>176</ele>
        <time>2017-03-17T11:34:21Z</time>
      </trkpt>
      <trkpt lat="45.9433" lon="4.71525">
        <ele>176</ele>
        <time>2017-03-17T11:34:22Z</time>
      </trkpt>
      <trkpt lat="45.94324" lon="4.71528">
        <ele>176</ele>
        <time>2017-03-17T11:34:23Z</time>
      </trkpt>
      <trkpt lat="45.94317" lon="4.71531">
        <ele>175</ele>
        <time>2017-03-17T11:34:24Z</time>
      </trkpt>
      <trkpt lat="45.94307" lon="4.71532">
        <ele>175</ele>
        <time>2017-03-17T11:34:25Z</time>
      </trkpt>
      <trkpt lat="45.94301" lon="4.71534">
        <ele>175</ele>
        <time>2017-03-17T11:34:26Z</time>
      </trkpt>
      <trkpt lat="45.94293" lon="4.71537">
        <ele>175</ele>
        <time>2017-03-17T11:34:27Z</time>
      </trkpt>
      <trkpt lat="45.94286" lon="4.7154">
        <ele>175</ele>
        <time>2017-03-17T11:34:28Z</time>
      </trkpt>
      <trkpt lat="45.94278" lon="4.71542">
        <ele>175</ele>
        <time>2017-03-17T11:34:29Z</time>
      </trkpt>
      <trkpt lat="45.94271" lon="4.71545">
        <ele>175</ele>
        <time>2017-03-17T11:34:30Z</time>
      </trkpt>
      <trkpt lat="45.94263" lon="4.71548">
        <ele>175</ele>
        <time>2017-03-17T11:34:31Z</time>
      </trkpt>
      <trkpt lat="45.94255" lon="4.71551">
        <ele>175</ele>
        <time>2017-03-17T11:34:32Z</time>
      </trkpt>
      <trkpt lat="45.94248" lon="4.71554">
        <ele>174</ele>
        <time>2017-03-17T11:34:33Z</time>
      </trkpt>
      <trkpt lat="45.94241" lon="4.71557">
        <ele>174</ele>
        <time>2017-03-17T11:34:34Z</time>
      </trkpt>
      <trkpt lat="45.94234" lon="4.7156">
        <ele>174</ele>
        <time>2017-03-17T11:34:35Z</time>
      </trkpt>
      <trkpt lat="45.94226" lon="4.71562">
        <ele>174</ele>
        <time>2017-03-17T11:34:36Z</time>
      </trkpt>
      <trkpt lat="45.94219" lon="4.71565">
        <ele>174</ele>
        <time>2017-03-17T11:34:37Z</time>
      </trkpt>
      <trkpt lat="45.94213" lon="4.71568">
        <ele>174</ele>
        <time>2017-03-17T11:34:38Z</time>
      </trkpt>
      <trkpt lat="45.94206" lon="4.71571">
        <ele>174</ele>
        <time>2017-03-17T11:34:39Z</time>
      </trkpt>
      <trkpt lat="45.942" lon="4.71574">
        <ele>174</ele>
        <time>2017-03-17T11:34:40Z</time>
      </trkpt>
      <trkpt lat="45.94193" lon="4.71576">
        <ele>174</ele>
        <time>2017-03-17T11:34:41Z</time>
      </trkpt>
      <trkpt lat="45.94187" lon="4.71579">
        <ele>174</ele>
        <time>2017-03-17T11:34:42Z</time>
      </trkpt>
      <trkpt lat="45.94181" lon="4.71581">
        <ele>174</ele>
        <time>2017-03-17T11:34:43Z</time>
      </trkpt>
      <trkpt lat="45.94174" lon="4.71584">
        <ele>174</ele>
        <time>2017-03-17T11:34:44Z</time>
      </trkpt>
      <trkpt lat="45.94168" lon="4.71586">
        <ele>174</ele>
        <time>2017-03-17T11:34:45Z</time>
      </trkpt>
      <trkpt lat="45.94162" lon="4.71589">
        <ele>174</ele>
        <time>2017-03-17T11:34:46Z</time>
      </trkpt>
      <trkpt lat="45.94156" lon="4.71591">
        <ele>173</ele>
        <time>2017-03-17T11:34:47Z</time>
      </trkpt>
      <trkpt lat="45.9415" lon="4.71594">
        <ele>173</ele>
        <time>2017-03-17T11:34:48Z</time>
      </trkpt>
      <trkpt lat="45.94144" lon="4.71597">
        <ele>173</ele>
        <time>2017-03-17T11:34:49Z</time>
      </trkpt>
      <trkpt lat="45.94137" lon="4.71599">
        <ele>173</ele>
        <time>2017-03-17T11:34:50Z</time>
      </trkpt>
      <trkpt lat="45.94131" lon="4.71602">
        <ele>173</ele>
        <time>2017-03-17T11:34:51Z</time>
      </trkpt>
      <trkpt lat="45.94124" lon="4.71604">
        <ele>173</ele>
        <time>2017-03-17T11:34:52Z</time>
      </trkpt>
      <trkpt lat="45.94117" lon="4.71607">
        <ele>173</ele>
        <time>2017-03-17T11:34:53Z</time>
      </trkpt>
      <trkpt lat="45.94111" lon="4.7161">
        <ele>173</ele>
        <time>2017-03-17T11:34:54Z</time>
      </trkpt>
      <trkpt lat="45.94104" lon="4.71612">
        <ele>173</ele>
        <time>2017-03-17T11:34:55Z</time>
      </trkpt>
      <trkpt lat="45.94097" lon="4.71616">
        <ele>173</ele>
        <time>2017-03-17T11:34:56Z</time>
      </trkpt>
      <trkpt lat="45.94091" lon="4.71618">
        <ele>173</ele>
        <time>2017-03-17T11:34:57Z</time>
      </trkpt>
      <trkpt lat="45.94085" lon="4.71621">
        <ele>173</ele>
        <time>2017-03-17T11:34:58Z</time>
      </trkpt>
      <trkpt lat="45.94079" lon="4.71623">
        <ele>174</ele>
        <time>2017-03-17T11:34:59Z</time>
      </trkpt>
      <trkpt lat="45.94072" lon="4.71625">
        <ele>174</ele>
        <time>2017-03-17T11:35:00Z</time>
      </trkpt>
      <trkpt lat="45.94066" lon="4.71627">
        <ele>174</ele>
        <time>2017-03-17T11:35:01Z</time>
      </trkpt>
      <trkpt lat="45.94061" lon="4.71629">
        <ele>174</ele>
        <time>2017-03-17T11:35:02Z</time>
      </trkpt>
      <trkpt lat="45.94055" lon="4.71631">
        <ele>174</ele>
        <time>2017-03-17T11:35:03Z</time>
      </trkpt>
      <trkpt lat="45.94048" lon="4.71634">
        <ele>175</ele>
        <time>2017-03-17T11:35:04Z</time>
      </trkpt>
      <trkpt lat="45.94042" lon="4.71637">
        <ele>175</ele>
        <time>2017-03-17T11:35:05Z</time>
      </trkpt>
      <trkpt lat="45.94035" lon="4.7164">
        <ele>175</ele>
        <time>2017-03-17T11:35:06Z</time>
      </trkpt>
      <trkpt lat="45.94029" lon="4.71643">
        <ele>175</ele>
        <time>2017-03-17T11:35:07Z</time>
      </trkpt>
      <trkpt lat="45.94022" lon="4.71646">
        <ele>175</ele>
        <time>2017-03-17T11:35:08Z</time>
      </trkpt>
      <trkpt lat="45.94016" lon="4.7165">
        <ele>176</ele>
        <time>2017-03-17T11:35:09Z</time>
      </trkpt>
      <trkpt lat="45.94009" lon="4.71654">
        <ele>176</ele>
        <time>2017-03-17T11:35:10Z</time>
      </trkpt>
      <trkpt lat="45.94003" lon="4.71657">
        <ele>176</ele>
        <time>2017-03-17T11:35:11Z</time>
      </trkpt>
      <trkpt lat="45.93996" lon="4.71658">
        <ele>177</ele>
        <time>2017-03-17T11:35:12Z</time>
      </trkpt>
      <trkpt lat="45.9399" lon="4.71659">
        <ele>177</ele>
        <time>2017-03-17T11:35:13Z</time>
      </trkpt>
      <trkpt lat="45.93984" lon="4.7166">
        <ele>177</ele>
        <time>2017-03-17T11:35:14Z</time>
      </trkpt>
      <trkpt lat="45.93976" lon="4.71662">
        <ele>177</ele>
        <time>2017-03-17T11:35:15Z</time>
      </trkpt>
      <trkpt lat="45.93969" lon="4.71665">
        <ele>177</ele>
        <time>2017-03-17T11:35:16Z</time>
      </trkpt>
      <trkpt lat="45.93962" lon="4.71668">
        <ele>175</ele>
        <time>2017-03-17T11:35:17Z</time>
      </trkpt>
      <trkpt lat="45.93955" lon="4.7167">
        <ele>175</ele>
        <time>2017-03-17T11:35:18Z</time>
      </trkpt>
      <trkpt lat="45.93949" lon="4.71673">
        <ele>175</ele>
        <time>2017-03-17T11:35:19Z</time>
      </trkpt>
      <trkpt lat="45.93943" lon="4.71676">
        <ele>175</ele>
        <time>2017-03-17T11:35:20Z</time>
      </trkpt>
      <trkpt lat="45.93936" lon="4.71678">
        <ele>175</ele>
        <time>2017-03-17T11:35:21Z</time>
      </trkpt>
      <trkpt lat="45.9393" lon="4.71681">
        <ele>175</ele>
        <time>2017-03-17T11:35:22Z</time>
      </trkpt>
      <trkpt lat="45.93923" lon="4.71683">
        <ele>175</ele>
        <time>2017-03-17T11:35:23Z</time>
      </trkpt>
      <trkpt lat="45.93917" lon="4.71686">
        <ele>175</ele>
        <time>2017-03-17T11:35:24Z</time>
      </trkpt>
      <trkpt lat="45.93912" lon="4.71688">
        <ele>174</ele>
        <time>2017-03-17T11:35:25Z</time>
      </trkpt>
      <trkpt lat="45.93906" lon="4.7169">
        <ele>174</ele>
        <time>2017-03-17T11:35:26Z</time>
      </trkpt>
      <trkpt lat="45.93898" lon="4.71692">
        <ele>174</ele>
        <time>2017-03-17T11:35:27Z</time>
      </trkpt>
      <trkpt lat="45.93891" lon="4.71695">
        <ele>174</ele>
        <time>2017-03-17T11:35:28Z</time>
      </trkpt>
      <trkpt lat="45.93885" lon="4.71697">
        <ele>174</ele>
        <time>2017-03-17T11:35:29Z</time>
      </trkpt>
      <trkpt lat="45.9388" lon="4.717">
        <ele>174</ele>
        <time>2017-03-17T11:35:30Z</time>
      </trkpt>
      <trkpt lat="45.93873" lon="4.71702">
        <ele>174</ele>
        <time>2017-03-17T11:35:31Z</time>
      </trkpt>
      <trkpt lat="45.93867" lon="4.71705">
        <ele>174</ele>
        <time>2017-03-17T11:35:32Z</time>
      </trkpt>
      <trkpt lat="45.93861" lon="4.71708">
        <ele>174</ele>
        <time>2017-03-17T11:35:33Z</time>
      </trkpt>
      <trkpt lat="45.93855" lon="4.7171">
        <ele>174</ele>
        <time>2017-03-17T11:35:34Z</time>
      </trkpt>
      <trkpt lat="45.93849" lon="4.71712">
        <ele>174</ele>
        <time>2017-03-17T11:35:35Z</time>
      </trkpt>
      <trkpt lat="45.93844" lon="4.71714">
        <ele>174</ele>
        <time>2017-03-17T11:35:36Z</time>
      </trkpt>
      <trkpt lat="45.93839" lon="4.71717">
        <ele>175</ele>
        <time>2017-03-17T11:35:37Z</time>
      </trkpt>
      <trkpt lat="45.93834" lon="4.71719">
        <ele>175</ele>
        <time>2017-03-17T11:35:38Z</time>
      </trkpt>
      <trkpt lat="45.93829" lon="4.71721">
        <ele>175</ele>
        <time>2017-03-17T11:35:39Z</time>
      </trkpt>
      <trkpt lat="45.93822" lon="4.71723">
        <ele>175</ele>
        <time>2017-03-17T11:35:40Z</time>
      </trkpt>
      <trkpt lat="45.93817" lon="4.71725">
        <ele>175</ele>
        <time>2017-03-17T11:35:41Z</time>
      </trkpt>
      <trkpt lat="45.93812" lon="4.71727">
        <ele>175</ele>
        <time>2017-03-17T11:35:42Z</time>
      </trkpt>
      <trkpt lat="45.93807" lon="4.71729">
        <ele>175</ele>
        <time>2017-03-17T11:35:43Z</time>
      </trkpt>
      <trkpt lat="45.93801" lon="4.71731">
        <ele>175</ele>
        <time>2017-03-17T11:35:44Z</time>
      </trkpt>
      <trkpt lat="45.93796" lon="4.71734">
        <ele>175</ele>
        <time>2017-03-17T11:35:45Z</time>
      </trkpt>
      <trkpt lat="45.93789" lon="4.71736">
        <ele>175</ele>
        <time>2017-03-17T11:35:46Z</time>
      </trkpt>
      <trkpt lat="45.93783" lon="4.71739">
        <ele>175</ele>
        <time>2017-03-17T11:35:47Z</time>
      </trkpt>
      <trkpt lat="45.93777" lon="4.71741">
        <ele>175</ele>
        <time>2017-03-17T11:35:48Z</time>
      </trkpt>
      <trkpt lat="45.93772" lon="4.71743">
        <ele>175</ele>
        <time>2017-03-17T11:35:49Z</time>
      </trkpt>
      <trkpt lat="45.93766" lon="4.71746">
        <ele>175</ele>
        <time>2017-03-17T11:35:50Z</time>
      </trkpt>
      <trkpt lat="45.93759" lon="4.71749">
        <ele>175</ele>
        <time>2017-03-17T11:35:51Z</time>
      </trkpt>
      <trkpt lat="45.93753" lon="4.71751">
        <ele>175</ele>
        <time>2017-03-17T11:35:52Z</time>
      </trkpt>
      <trkpt lat="45.93747" lon="4.71753">
        <ele>175</ele>
        <time>2017-03-17T11:35:53Z</time>
      </trkpt>
      <trkpt lat="45.93739" lon="4.71755">
        <ele>176</ele>
        <time>2017-03-17T11:35:54Z</time>
      </trkpt>
      <trkpt lat="45.93732" lon="4.71758">
        <ele>176</ele>
        <time>2017-03-17T11:35:55Z</time>
      </trkpt>
      <trkpt lat="45.93727" lon="4.71762">
        <ele>176</ele>
        <time>2017-03-17T11:35:56Z</time>
      </trkpt>
      <trkpt lat="45.93722" lon="4.71768">
        <ele>176</ele>
        <time>2017-03-17T11:35:57Z</time>
      </trkpt>
      <trkpt lat="45.93717" lon="4.71773">
        <ele>176</ele>
        <time>2017-03-17T11:35:58Z</time>
      </trkpt>
      <trkpt lat="45.93714" lon="4.71781">
        <ele>176</ele>
        <time>2017-03-17T11:35:59Z</time>
      </trkpt>
      <trkpt lat="45.93711" lon="4.71788">
        <ele>176</ele>
        <time>2017-03-17T11:36:00Z</time>
      </trkpt>
      <trkpt lat="45.93708" lon="4.71796">
        <ele>176</ele>
        <time>2017-03-17T11:36:01Z</time>
      </trkpt>
      <trkpt lat="45.93706" lon="4.71805">
        <ele>176</ele>
        <time>2017-03-17T11:36:02Z</time>
      </trkpt>
      <trkpt lat="45.93703" lon="4.71814">
        <ele>176</ele>
        <time>2017-03-17T11:36:03Z</time>
      </trkpt>
      <trkpt lat="45.937" lon="4.71822">
        <ele>176</ele>
        <time>2017-03-17T11:36:04Z</time>
      </trkpt>
      <trkpt lat="45.93697" lon="4.71831">
        <ele>176</ele>
        <time>2017-03-17T11:36:05Z</time>
      </trkpt>
      <trkpt lat="45.93694" lon="4.71839">
        <ele>175</ele>
        <time>2017-03-17T11:36:06Z</time>
      </trkpt>
      <trkpt lat="45.93691" lon="4.71847">
        <ele>175</ele>
        <time>2017-03-17T11:36:07Z</time>
      </trkpt>
      <trkpt lat="45.93688" lon="4.71855">
        <ele>175</ele>
        <time>2017-03-17T11:36:08Z</time>
      </trkpt>
      <trkpt lat="45.93685" lon="4.71862">
        <ele>175</ele>
        <time>2017-03-17T11:36:09Z</time>
      </trkpt>
      <trkpt lat="45.93683" lon="4.71869">
        <ele>175</ele>
        <time>2017-03-17T11:36:10Z</time>
      </trkpt>
      <trkpt lat="45.9368" lon="4.71874">
        <ele>175</ele>
        <time>2017-03-17T11:36:11Z</time>
      </trkpt>
      <trkpt lat="45.93677" lon="4.71884">
        <ele>175</ele>
        <time>2017-03-17T11:36:13Z</time>
      </trkpt>
      <trkpt lat="45.93676" lon="4.71888">
        <ele>175</ele>
        <time>2017-03-17T11:36:14Z</time>
      </trkpt>
      <trkpt lat="45.93672" lon="4.71899">
        <ele>175</ele>
        <time>2017-03-17T11:36:18Z</time>
      </trkpt>
      <trkpt lat="45.93671" lon="4.71901">
        <ele>175</ele>
        <time>2017-03-17T11:36:19Z</time>
      </trkpt>
      <trkpt lat="45.93671" lon="4.71903">
        <ele>175</ele>
        <time>2017-03-17T11:36:20Z</time>
      </trkpt>
      <trkpt lat="45.9367" lon="4.71904">
        <ele>175</ele>
        <time>2017-03-17T11:36:21Z</time>
      </trkpt>
      <trkpt lat="45.93669" lon="4.71909">
        <ele>175</ele>
        <time>2017-03-17T11:36:30Z</time>
      </trkpt>
      <trkpt lat="45.93668" lon="4.71912">
        <ele>175</ele>
        <time>2017-03-17T11:36:31Z</time>
      </trkpt>
      <trkpt lat="45.93666" lon="4.71923">
        <ele>175</ele>
        <time>2017-03-17T11:36:34Z</time>
      </trkpt>
      <trkpt lat="45.93665" lon="4.71927">
        <ele>175</ele>
        <time>2017-03-17T11:36:35Z</time>
      </trkpt>
      <trkpt lat="45.93662" lon="4.71939">
        <ele>175</ele>
        <time>2017-03-17T11:36:37Z</time>
      </trkpt>
      <trkpt lat="45.93659" lon="4.71945">
        <ele>175</ele>
        <time>2017-03-17T11:36:38Z</time>
      </trkpt>
      <trkpt lat="45.93657" lon="4.71952">
        <ele>175</ele>
        <time>2017-03-17T11:36:39Z</time>
      </trkpt>
      <trkpt lat="45.93654" lon="4.71959">
        <ele>175</ele>
        <time>2017-03-17T11:36:40Z</time>
      </trkpt>
      <trkpt lat="45.93652" lon="4.71966">
        <ele>175</ele>
        <time>2017-03-17T11:36:41Z</time>
      </trkpt>
      <trkpt lat="45.93649" lon="4.71972">
        <ele>175</ele>
        <time>2017-03-17T11:36:42Z</time>
      </trkpt>
      <trkpt lat="45.93646" lon="4.71979">
        <ele>175</ele>
        <time>2017-03-17T11:36:43Z</time>
      </trkpt>
      <trkpt lat="45.93643" lon="4.71986">
        <ele>175</ele>
        <time>2017-03-17T11:36:44Z</time>
      </trkpt>
      <trkpt lat="45.9364" lon="4.71992">
        <ele>175</ele>
        <time>2017-03-17T11:36:45Z</time>
      </trkpt>
      <trkpt lat="45.93637" lon="4.71998">
        <ele>175</ele>
        <time>2017-03-17T11:36:46Z</time>
      </trkpt>
      <trkpt lat="45.93635" lon="4.72004">
        <ele>174</ele>
        <time>2017-03-17T11:36:47Z</time>
      </trkpt>
      <trkpt lat="45.93632" lon="4.7201">
        <ele>174</ele>
        <time>2017-03-17T11:36:48Z</time>
      </trkpt>
      <trkpt lat="45.9363" lon="4.72017">
        <ele>174</ele>
        <time>2017-03-17T11:36:49Z</time>
      </trkpt>
      <trkpt lat="45.93629" lon="4.72023">
        <ele>174</ele>
        <time>2017-03-17T11:36:50Z</time>
      </trkpt>
      <trkpt lat="45.93626" lon="4.72035">
        <ele>175</ele>
        <time>2017-03-17T11:36:52Z</time>
      </trkpt>
      <trkpt lat="45.93625" lon="4.72041">
        <ele>175</ele>
        <time>2017-03-17T11:36:53Z</time>
      </trkpt>
      <trkpt lat="45.93622" lon="4.72047">
        <ele>175</ele>
        <time>2017-03-17T11:36:54Z</time>
      </trkpt>
      <trkpt lat="45.9362" lon="4.72054">
        <ele>175</ele>
        <time>2017-03-17T11:36:55Z</time>
      </trkpt>
      <trkpt lat="45.93618" lon="4.72061">
        <ele>175</ele>
        <time>2017-03-17T11:36:56Z</time>
      </trkpt>
      <trkpt lat="45.93616" lon="4.72068">
        <ele>175</ele>
        <time>2017-03-17T11:36:57Z</time>
      </trkpt>
      <trkpt lat="45.93613" lon="4.72075">
        <ele>175</ele>
        <time>2017-03-17T11:36:58Z</time>
      </trkpt>
      <trkpt lat="45.9361" lon="4.72082">
        <ele>175</ele>
        <time>2017-03-17T11:36:59Z</time>
      </trkpt>
      <trkpt lat="45.93607" lon="4.72088">
        <ele>174</ele>
        <time>2017-03-17T11:37:00Z</time>
      </trkpt>
      <trkpt lat="45.93604" lon="4.72095">
        <ele>174</ele>
        <time>2017-03-17T11:37:01Z</time>
      </trkpt>
      <trkpt lat="45.93601" lon="4.72103">
        <ele>174</ele>
        <time>2017-03-17T11:37:02Z</time>
      </trkpt>
      <trkpt lat="45.93598" lon="4.7211">
        <ele>174</ele>
        <time>2017-03-17T11:37:03Z</time>
      </trkpt>
      <trkpt lat="45.93593" lon="4.7212">
        <ele>174</ele>
        <time>2017-03-17T11:37:05Z</time>
      </trkpt>
      <trkpt lat="45.9359" lon="4.72125">
        <ele>174</ele>
        <time>2017-03-17T11:37:06Z</time>
      </trkpt>
      <trkpt lat="45.93588" lon="4.72131">
        <ele>174</ele>
        <time>2017-03-17T11:37:07Z</time>
      </trkpt>
      <trkpt lat="45.93585" lon="4.72138">
        <ele>173</ele>
        <time>2017-03-17T11:37:08Z</time>
      </trkpt>
      <trkpt lat="45.93583" lon="4.72144">
        <ele>174</ele>
        <time>2017-03-17T11:37:09Z</time>
      </trkpt>
      <trkpt lat="45.9358" lon="4.72151">
        <ele>174</ele>
        <time>2017-03-17T11:37:10Z</time>
      </trkpt>
      <trkpt lat="45.93577" lon="4.72157">
        <ele>174</ele>
        <time>2017-03-17T11:37:11Z</time>
      </trkpt>
      <trkpt lat="45.93574" lon="4.72163">
        <ele>173</ele>
        <time>2017-03-17T11:37:12Z</time>
      </trkpt>
      <trkpt lat="45.93571" lon="4.72171">
        <ele>173</ele>
        <time>2017-03-17T11:37:13Z</time>
      </trkpt>
      <trkpt lat="45.93568" lon="4.72178">
        <ele>173</ele>
        <time>2017-03-17T11:37:14Z</time>
      </trkpt>
      <trkpt lat="45.93566" lon="4.72185">
        <ele>173</ele>
        <time>2017-03-17T11:37:15Z</time>
      </trkpt>
      <trkpt lat="45.93562" lon="4.72192">
        <ele>173</ele>
        <time>2017-03-17T11:37:16Z</time>
      </trkpt>
      <trkpt lat="45.93559" lon="4.72199">
        <ele>173</ele>
        <time>2017-03-17T11:37:17Z</time>
      </trkpt>
      <trkpt lat="45.93555" lon="4.72206">
        <ele>173</ele>
        <time>2017-03-17T11:37:18Z</time>
      </trkpt>
      <trkpt lat="45.93552" lon="4.72214">
        <ele>173</ele>
        <time>2017-03-17T11:37:19Z</time>
      </trkpt>
      <trkpt lat="45.93548" lon="4.72221">
        <ele>172</ele>
        <time>2017-03-17T11:37:20Z</time>
      </trkpt>
      <trkpt lat="45.93545" lon="4.72228">
        <ele>172</ele>
        <time>2017-03-17T11:37:21Z</time>
      </trkpt>
      <trkpt lat="45.93543" lon="4.72235">
        <ele>172</ele>
        <time>2017-03-17T11:37:22Z</time>
      </trkpt>
      <trkpt lat="45.9354" lon="4.72242">
        <ele>172</ele>
        <time>2017-03-17T11:37:23Z</time>
      </trkpt>
      <trkpt lat="45.93537" lon="4.72249">
        <ele>172</ele>
        <time>2017-03-17T11:37:24Z</time>
      </trkpt>
      <trkpt lat="45.93534" lon="4.72256">
        <ele>172</ele>
        <time>2017-03-17T11:37:25Z</time>
      </trkpt>
      <trkpt lat="45.93531" lon="4.72263">
        <ele>172</ele>
        <time>2017-03-17T11:37:26Z</time>
      </trkpt>
      <trkpt lat="45.93528" lon="4.7227">
        <ele>172</ele>
        <time>2017-03-17T11:37:27Z</time>
      </trkpt>
      <trkpt lat="45.93525" lon="4.72277">
        <ele>172</ele>
        <time>2017-03-17T11:37:28Z</time>
      </trkpt>
      <trkpt lat="45.93522" lon="4.72284">
        <ele>172</ele>
        <time>2017-03-17T11:37:29Z</time>
      </trkpt>
      <trkpt lat="45.93519" lon="4.72291">
        <ele>172</ele>
        <time>2017-03-17T11:37:30Z</time>
      </trkpt>
      <trkpt lat="45.93515" lon="4.72298">
        <ele>172</ele>
        <time>2017-03-17T11:37:31Z</time>
      </trkpt>
      <trkpt lat="45.93511" lon="4.72304">
        <ele>173</ele>
        <time>2017-03-17T11:37:32Z</time>
      </trkpt>
      <trkpt lat="45.93507" lon="4.7231">
        <ele>173</ele>
        <time>2017-03-17T11:37:33Z</time>
      </trkpt>
      <trkpt lat="45.93502" lon="4.72317">
        <ele>173</ele>
        <time>2017-03-17T11:37:34Z</time>
      </trkpt>
      <trkpt lat="45.93498" lon="4.72323">
        <ele>173</ele>
        <time>2017-03-17T11:37:35Z</time>
      </trkpt>
      <trkpt lat="45.93494" lon="4.7233">
        <ele>173</ele>
        <time>2017-03-17T11:37:36Z</time>
      </trkpt>
      <trkpt lat="45.93489" lon="4.72336">
        <ele>173</ele>
        <time>2017-03-17T11:37:37Z</time>
      </trkpt>
      <trkpt lat="45.93485" lon="4.72342">
        <ele>173</ele>
        <time>2017-03-17T11:37:38Z</time>
      </trkpt>
      <trkpt lat="45.93482" lon="4.72348">
        <ele>173</ele>
        <time>2017-03-17T11:37:39Z</time>
      </trkpt>
      <trkpt lat="45.93478" lon="4.72355">
        <ele>173</ele>
        <time>2017-03-17T11:37:40Z</time>
      </trkpt>
      <trkpt lat="45.93474" lon="4.72361">
        <ele>173</ele>
        <time>2017-03-17T11:37:41Z</time>
      </trkpt>
      <trkpt lat="45.9347" lon="4.72367">
        <ele>173</ele>
        <time>2017-03-17T11:37:42Z</time>
      </trkpt>
      <trkpt lat="45.93466" lon="4.72372">
        <ele>173</ele>
        <time>2017-03-17T11:37:43Z</time>
      </trkpt>
      <trkpt lat="45.93461" lon="4.72378">
        <ele>173</ele>
        <time>2017-03-17T11:37:44Z</time>
      </trkpt>
      <trkpt lat="45.93456" lon="4.72382">
        <ele>173</ele>
        <time>2017-03-17T11:37:45Z</time>
      </trkpt>
      <trkpt lat="45.93451" lon="4.72386">
        <ele>173</ele>
        <time>2017-03-17T11:37:46Z</time>
      </trkpt>
      <trkpt lat="45.93445" lon="4.7239">
        <ele>173</ele>
        <time>2017-03-17T11:37:47Z</time>
      </trkpt>
      <trkpt lat="45.9344" lon="4.72394">
        <ele>173</ele>
        <time>2017-03-17T11:37:48Z</time>
      </trkpt>
      <trkpt lat="45.93434" lon="4.72397">
        <ele>173</ele>
        <time>2017-03-17T11:37:49Z</time>
      </trkpt>
      <trkpt lat="45.93428" lon="4.724">
        <ele>174</ele>
        <time>2017-03-17T11:37:50Z</time>
      </trkpt>
      <trkpt lat="45.93422" lon="4.72403">
        <ele>174</ele>
        <time>2017-03-17T11:37:51Z</time>
      </trkpt>
      <trkpt lat="45.93417" lon="4.72406">
        <ele>174</ele>
        <time>2017-03-17T11:37:52Z</time>
      </trkpt>
      <trkpt lat="45.93411" lon="4.72406">
        <ele>174</ele>
        <time>2017-03-17T11:37:53Z</time>
      </trkpt>
      <trkpt lat="45.93406" lon="4.72406">
        <ele>174</ele>
        <time>2017-03-17T11:37:54Z</time>
      </trkpt>
      <trkpt lat="45.93401" lon="4.72405">
        <ele>174</ele>
        <time>2017-03-17T11:37:55Z</time>
      </trkpt>
      <trkpt lat="45.93396" lon="4.72405">
        <ele>174</ele>
        <time>2017-03-17T11:37:56Z</time>
      </trkpt>
      <trkpt lat="45.93391" lon="4.72406">
        <ele>174</ele>
        <time>2017-03-17T11:37:57Z</time>
      </trkpt>
      <trkpt lat="45.93387" lon="4.72409">
        <ele>174</ele>
        <time>2017-03-17T11:37:58Z</time>
      </trkpt>
      <trkpt lat="45.93384" lon="4.72414">
        <ele>174</ele>
        <time>2017-03-17T11:37:59Z</time>
      </trkpt>
      <trkpt lat="45.93383" lon="4.72421">
        <ele>173</ele>
        <time>2017-03-17T11:38:00Z</time>
      </trkpt>
      <trkpt lat="45.93383" lon="4.72427">
        <ele>173</ele>
        <time>2017-03-17T11:38:01Z</time>
      </trkpt>
      <trkpt lat="45.93385" lon="4.72433">
        <ele>173</ele>
        <time>2017-03-17T11:38:02Z</time>
      </trkpt>
      <trkpt lat="45.93388" lon="4.7244">
        <ele>173</ele>
        <time>2017-03-17T11:38:03Z</time>
      </trkpt>
      <trkpt lat="45.93389" lon="4.72449">
        <ele>173</ele>
        <time>2017-03-17T11:38:04Z</time>
      </trkpt>
      <trkpt lat="45.9339" lon="4.72457">
        <ele>173</ele>
        <time>2017-03-17T11:38:05Z</time>
      </trkpt>
      <trkpt lat="45.93388" lon="4.72465">
        <ele>173</ele>
        <time>2017-03-17T11:38:06Z</time>
      </trkpt>
      <trkpt lat="45.93385" lon="4.72471">
        <ele>173</ele>
        <time>2017-03-17T11:38:07Z</time>
      </trkpt>
      <trkpt lat="45.9338" lon="4.72477">
        <ele>173</ele>
        <time>2017-03-17T11:38:08Z</time>
      </trkpt>
      <trkpt lat="45.93375" lon="4.72482">
        <ele>173</ele>
        <time>2017-03-17T11:38:09Z</time>
      </trkpt>
      <trkpt lat="45.93371" lon="4.72487">
        <ele>173</ele>
        <time>2017-03-17T11:38:10Z</time>
      </trkpt>
      <trkpt lat="45.93366" lon="4.72493">
        <ele>173</ele>
        <time>2017-03-17T11:38:11Z</time>
      </trkpt>
      <trkpt lat="45.93362" lon="4.72499">
        <ele>173</ele>
        <time>2017-03-17T11:38:12Z</time>
      </trkpt>
      <trkpt lat="45.93358" lon="4.72504">
        <ele>172</ele>
        <time>2017-03-17T11:38:13Z</time>
      </trkpt>
      <trkpt lat="45.93353" lon="4.72509">
        <ele>172</ele>
        <time>2017-03-17T11:38:14Z</time>
      </trkpt>
      <trkpt lat="45.93349" lon="4.72514">
        <ele>172</ele>
        <time>2017-03-17T11:38:15Z</time>
      </trkpt>
      <trkpt lat="45.93345" lon="4.72518">
        <ele>172</ele>
        <time>2017-03-17T11:38:16Z</time>
      </trkpt>
      <trkpt lat="45.9334" lon="4.72523">
        <ele>172</ele>
        <time>2017-03-17T11:38:17Z</time>
      </trkpt>
      <trkpt lat="45.93336" lon="4.72528">
        <ele>172</ele>
        <time>2017-03-17T11:38:18Z</time>
      </trkpt>
      <trkpt lat="45.93332" lon="4.72532">
        <ele>172</ele>
        <time>2017-03-17T11:38:19Z</time>
      </trkpt>
      <trkpt lat="45.93328" lon="4.72537">
        <ele>172</ele>
        <time>2017-03-17T11:38:20Z</time>
      </trkpt>
      <trkpt lat="45.93325" lon="4.72541">
        <ele>172</ele>
        <time>2017-03-17T11:38:21Z</time>
      </trkpt>
      <trkpt lat="45.93321" lon="4.72545">
        <ele>172</ele>
        <time>2017-03-17T11:38:22Z</time>
      </trkpt>
      <trkpt lat="45.93318" lon="4.72549">
        <ele>172</ele>
        <time>2017-03-17T11:38:23Z</time>
      </trkpt>
      <trkpt lat="45.93314" lon="4.72553">
        <ele>172</ele>
        <time>2017-03-17T11:38:24Z</time>
      </trkpt>
      <trkpt lat="45.9331" lon="4.72557">
        <ele>172</ele>
        <time>2017-03-17T11:38:25Z</time>
      </trkpt>
      <trkpt lat="45.93306" lon="4.72562">
        <ele>172</ele>
        <time>2017-03-17T11:38:26Z</time>
      </trkpt>
      <trkpt lat="45.93302" lon="4.72566">
        <ele>171</ele>
        <time>2017-03-17T11:38:27Z</time>
      </trkpt>
      <trkpt lat="45.93298" lon="4.7257">
        <ele>171</ele>
        <time>2017-03-17T11:38:28Z</time>
      </trkpt>
      <trkpt lat="45.93294" lon="4.72575">
        <ele>171</ele>
        <time>2017-03-17T11:38:29Z</time>
      </trkpt>
      <trkpt lat="45.93291" lon="4.72579">
        <ele>171</ele>
        <time>2017-03-17T11:38:30Z</time>
      </trkpt>
      <trkpt lat="45.93287" lon="4.72584">
        <ele>170</ele>
        <time>2017-03-17T11:38:31Z</time>
      </trkpt>
      <trkpt lat="45.93283" lon="4.72588">
        <ele>170</ele>
        <time>2017-03-17T11:38:32Z</time>
      </trkpt>
      <trkpt lat="45.93279" lon="4.72593">
        <ele>170</ele>
        <time>2017-03-17T11:38:33Z</time>
      </trkpt>
      <trkpt lat="45.93274" lon="4.72598">
        <ele>170</ele>
        <time>2017-03-17T11:38:34Z</time>
      </trkpt>
      <trkpt lat="45.9327" lon="4.72602">
        <ele>170</ele>
        <time>2017-03-17T11:38:35Z</time>
      </trkpt>
      <trkpt lat="45.93266" lon="4.72607">
        <ele>170</ele>
        <time>2017-03-17T11:38:36Z</time>
      </trkpt>
      <trkpt lat="45.93262" lon="4.72613">
        <ele>170</ele>
        <time>2017-03-17T11:38:37Z</time>
      </trkpt>
      <trkpt lat="45.93258" lon="4.72617">
        <ele>170</ele>
        <time>2017-03-17T11:38:38Z</time>
      </trkpt>
      <trkpt lat="45.93254" lon="4.72623">
        <ele>170</ele>
        <time>2017-03-17T11:38:39Z</time>
      </trkpt>
      <trkpt lat="45.9325" lon="4.72628">
        <ele>170</ele>
        <time>2017-03-17T11:38:40Z</time>
      </trkpt>
      <trkpt lat="45.93246" lon="4.72633">
        <ele>170</ele>
        <time>2017-03-17T11:38:41Z</time>
      </trkpt>
      <trkpt lat="45.93241" lon="4.72638">
        <ele>170</ele>
        <time>2017-03-17T11:38:42Z</time>
      </trkpt>
      <trkpt lat="45.93237" lon="4.72643">
        <ele>170</ele>
        <time>2017-03-17T11:38:43Z</time>
      </trkpt>
      <trkpt lat="45.93233" lon="4.72648">
        <ele>170</ele>
        <time>2017-03-17T11:38:44Z</time>
      </trkpt>
      <trkpt lat="45.93228" lon="4.72653">
        <ele>170</ele>
        <time>2017-03-17T11:38:45Z</time>
      </trkpt>
      <trkpt lat="45.93224" lon="4.72657">
        <ele>170</ele>
        <time>2017-03-17T11:38:46Z</time>
      </trkpt>
      <trkpt lat="45.93221" lon="4.72662">
        <ele>170</ele>
        <time>2017-03-17T11:38:47Z</time>
      </trkpt>
      <trkpt lat="45.93217" lon="4.72666">
        <ele>170</ele>
        <time>2017-03-17T11:38:48Z</time>
      </trkpt>
      <trkpt lat="45.93214" lon="4.7267">
        <ele>169</ele>
        <time>2017-03-17T11:38:49Z</time>
      </trkpt>
      <trkpt lat="45.9321" lon="4.72675">
        <ele>169</ele>
        <time>2017-03-17T11:38:50Z</time>
      </trkpt>
      <trkpt lat="45.93206" lon="4.7268">
        <ele>169</ele>
        <time>2017-03-17T11:38:51Z</time>
      </trkpt>
      <trkpt lat="45.93202" lon="4.72684">
        <ele>169</ele>
        <time>2017-03-17T11:38:52Z</time>
      </trkpt>
      <trkpt lat="45.93197" lon="4.72689">
        <ele>169</ele>
        <time>2017-03-17T11:38:53Z</time>
      </trkpt>
      <trkpt lat="45.93193" lon="4.72693">
        <ele>169</ele>
        <time>2017-03-17T11:38:54Z</time>
      </trkpt>
      <trkpt lat="45.93189" lon="4.72698">
        <ele>169</ele>
        <time>2017-03-17T11:38:55Z</time>
      </trkpt>
      <trkpt lat="45.93185" lon="4.72703">
        <ele>169</ele>
        <time>2017-03-17T11:38:56Z</time>
      </trkpt>
      <trkpt lat="45.93181" lon="4.72707">
        <ele>169</ele>
        <time>2017-03-17T11:38:57Z</time>
      </trkpt>
      <trkpt lat="45.93176" lon="4.72713">
        <ele>169</ele>
        <time>2017-03-17T11:38:58Z</time>
      </trkpt>
      <trkpt lat="45.93172" lon="4.72718">
        <ele>170</ele>
        <time>2017-03-17T11:38:59Z</time>
      </trkpt>
      <trkpt lat="45.93168" lon="4.72723">
        <ele>170</ele>
        <time>2017-03-17T11:39:00Z</time>
      </trkpt>
      <trkpt lat="45.93163" lon="4.72728">
        <ele>170</ele>
        <time>2017-03-17T11:39:01Z</time>
      </trkpt>
      <trkpt lat="45.93159" lon="4.72733">
        <ele>170</ele>
        <time>2017-03-17T11:39:02Z</time>
      </trkpt>
      <trkpt lat="45.93154" lon="4.72738">
        <ele>170</ele>
        <time>2017-03-17T11:39:03Z</time>
      </trkpt>
      <trkpt lat="45.93149" lon="4.72743">
        <ele>170</ele>
        <time>2017-03-17T11:39:04Z</time>
      </trkpt>
      <trkpt lat="45.93145" lon="4.72748">
        <ele>170</ele>
        <time>2017-03-17T11:39:05Z</time>
      </trkpt>
      <trkpt lat="45.9314" lon="4.72753">
        <ele>171</ele>
        <time>2017-03-17T11:39:06Z</time>
      </trkpt>
      <trkpt lat="45.93136" lon="4.72759">
        <ele>171</ele>
        <time>2017-03-17T11:39:07Z</time>
      </trkpt>
      <trkpt lat="45.93132" lon="4.72764">
        <ele>171</ele>
        <time>2017-03-17T11:39:08Z</time>
      </trkpt>
      <trkpt lat="45.93127" lon="4.72769">
        <ele>171</ele>
        <time>2017-03-17T11:39:09Z</time>
      </trkpt>
      <trkpt lat="45.93123" lon="4.72775">
        <ele>171</ele>
        <time>2017-03-17T11:39:10Z</time>
      </trkpt>
      <trkpt lat="45.93118" lon="4.7278">
        <ele>171</ele>
        <time>2017-03-17T11:39:11Z</time>
      </trkpt>
      <trkpt lat="45.93114" lon="4.72786">
        <ele>171</ele>
        <time>2017-03-17T11:39:12Z</time>
      </trkpt>
      <trkpt lat="45.9311" lon="4.72791">
        <ele>171</ele>
        <time>2017-03-17T11:39:13Z</time>
      </trkpt>
      <trkpt lat="45.93106" lon="4.72796">
        <ele>171</ele>
        <time>2017-03-17T11:39:14Z</time>
      </trkpt>
      <trkpt lat="45.93101" lon="4.728">
        <ele>171</ele>
        <time>2017-03-17T11:39:15Z</time>
      </trkpt>
      <trkpt lat="45.93097" lon="4.72805">
        <ele>171</ele>
        <time>2017-03-17T11:39:16Z</time>
      </trkpt>
      <trkpt lat="45.93093" lon="4.72809">
        <ele>172</ele>
        <time>2017-03-17T11:39:17Z</time>
      </trkpt>
      <trkpt lat="45.93089" lon="4.72813">
        <ele>172</ele>
        <time>2017-03-17T11:39:18Z</time>
      </trkpt>
      <trkpt lat="45.93082" lon="4.72819">
        <ele>173</ele>
        <time>2017-03-17T11:39:20Z</time>
      </trkpt>
      <trkpt lat="45.93079" lon="4.72823">
        <ele>173</ele>
        <time>2017-03-17T11:39:21Z</time>
      </trkpt>
      <trkpt lat="45.93072" lon="4.72832">
        <ele>173</ele>
        <time>2017-03-17T11:39:23Z</time>
      </trkpt>
      <trkpt lat="45.93069" lon="4.72835">
        <ele>173</ele>
        <time>2017-03-17T11:39:24Z</time>
      </trkpt>
      <trkpt lat="45.93066" lon="4.7284">
        <ele>173</ele>
        <time>2017-03-17T11:39:25Z</time>
      </trkpt>
      <trkpt lat="45.93064" lon="4.72846">
        <ele>172</ele>
        <time>2017-03-17T11:39:26Z</time>
      </trkpt>
      <trkpt lat="45.9306" lon="4.72852">
        <ele>172</ele>
        <time>2017-03-17T11:39:27Z</time>
      </trkpt>
      <trkpt lat="45.93054" lon="4.72856">
        <ele>172</ele>
        <time>2017-03-17T11:39:28Z</time>
      </trkpt>
      <trkpt lat="45.93048" lon="4.7286">
        <ele>172</ele>
        <time>2017-03-17T11:39:29Z</time>
      </trkpt>
      <trkpt lat="45.93043" lon="4.72865">
        <ele>172</ele>
        <time>2017-03-17T11:39:30Z</time>
      </trkpt>
      <trkpt lat="45.93038" lon="4.72871">
        <ele>172</ele>
        <time>2017-03-17T11:39:31Z</time>
      </trkpt>
      <trkpt lat="45.93033" lon="4.72877">
        <ele>172</ele>
        <time>2017-03-17T11:39:32Z</time>
      </trkpt>
      <trkpt lat="45.93029" lon="4.72882">
        <ele>172</ele>
        <time>2017-03-17T11:39:33Z</time>
      </trkpt>
      <trkpt lat="45.93024" lon="4.72887">
        <ele>172</ele>
        <time>2017-03-17T11:39:34Z</time>
      </trkpt>
      <trkpt lat="45.9302" lon="4.72893">
        <ele>172</ele>
        <time>2017-03-17T11:39:35Z</time>
      </trkpt>
      <trkpt lat="45.93015" lon="4.72899">
        <ele>172</ele>
        <time>2017-03-17T11:39:36Z</time>
      </trkpt>
      <trkpt lat="45.9301" lon="4.72905">
        <ele>171</ele>
        <time>2017-03-17T11:39:37Z</time>
      </trkpt>
      <trkpt lat="45.93005" lon="4.72911">
        <ele>171</ele>
        <time>2017-03-17T11:39:38Z</time>
      </trkpt>
      <trkpt lat="45.93001" lon="4.72917">
        <ele>171</ele>
        <time>2017-03-17T11:39:39Z</time>
      </trkpt>
      <trkpt lat="45.92997" lon="4.72922">
        <ele>171</ele>
        <time>2017-03-17T11:39:40Z</time>
      </trkpt>
      <trkpt lat="45.92993" lon="4.72927">
        <ele>171</ele>
        <time>2017-03-17T11:39:41Z</time>
      </trkpt>
      <trkpt lat="45.92989" lon="4.72932">
        <ele>171</ele>
        <time>2017-03-17T11:39:42Z</time>
      </trkpt>
      <trkpt lat="45.92985" lon="4.72937">
        <ele>171</ele>
        <time>2017-03-17T11:39:43Z</time>
      </trkpt>
      <trkpt lat="45.92981" lon="4.72943">
        <ele>171</ele>
        <time>2017-03-17T11:39:44Z</time>
      </trkpt>
      <trkpt lat="45.92976" lon="4.72947">
        <ele>171</ele>
        <time>2017-03-17T11:39:45Z</time>
      </trkpt>
      <trkpt lat="45.92972" lon="4.72952">
        <ele>171</ele>
        <time>2017-03-17T11:39:46Z</time>
      </trkpt>
      <trkpt lat="45.92968" lon="4.72956">
        <ele>171</ele>
        <time>2017-03-17T11:39:47Z</time>
      </trkpt>
      <trkpt lat="45.92964" lon="4.72961">
        <ele>171</ele>
        <time>2017-03-17T11:39:48Z</time>
      </trkpt>
      <trkpt lat="45.9296" lon="4.72966">
        <ele>171</ele>
        <time>2017-03-17T11:39:49Z</time>
      </trkpt>
      <trkpt lat="45.92955" lon="4.72971">
        <ele>171</ele>
        <time>2017-03-17T11:39:50Z</time>
      </trkpt>
      <trkpt lat="45.92951" lon="4.72976">
        <ele>171</ele>
        <time>2017-03-17T11:39:51Z</time>
      </trkpt>
      <trkpt lat="45.92947" lon="4.72982">
        <ele>171</ele>
        <time>2017-03-17T11:39:52Z</time>
      </trkpt>
      <trkpt lat="45.92943" lon="4.72987">
        <ele>171</ele>
        <time>2017-03-17T11:39:53Z</time>
      </trkpt>
      <trkpt lat="45.92939" lon="4.72992">
        <ele>171</ele>
        <time>2017-03-17T11:39:54Z</time>
      </trkpt>
      <trkpt lat="45.92934" lon="4.72996">
        <ele>172</ele>
        <time>2017-03-17T11:39:55Z</time>
      </trkpt>
      <trkpt lat="45.9293" lon="4.73001">
        <ele>172</ele>
        <time>2017-03-17T11:39:56Z</time>
      </trkpt>
      <trkpt lat="45.92926" lon="4.73006">
        <ele>172</ele>
        <time>2017-03-17T11:39:57Z</time>
      </trkpt>
      <trkpt lat="45.92922" lon="4.73011">
        <ele>172</ele>
        <time>2017-03-17T11:39:58Z</time>
      </trkpt>
      <trkpt lat="45.92918" lon="4.73016">
        <ele>172</ele>
        <time>2017-03-17T11:39:59Z</time>
      </trkpt>
      <trkpt lat="45.92914" lon="4.73022">
        <ele>172</ele>
        <time>2017-03-17T11:40:00Z</time>
      </trkpt>
      <trkpt lat="45.92909" lon="4.73028">
        <ele>172</ele>
        <time>2017-03-17T11:40:01Z</time>
      </trkpt>
      <trkpt lat="45.92905" lon="4.73033">
        <ele>172</ele>
        <time>2017-03-17T11:40:02Z</time>
      </trkpt>
      <trkpt lat="45.92901" lon="4.73039">
        <ele>172</ele>
        <time>2017-03-17T11:40:03Z</time>
      </trkpt>
      <trkpt lat="45.92897" lon="4.73046">
        <ele>172</ele>
        <time>2017-03-17T11:40:04Z</time>
      </trkpt>
      <trkpt lat="45.92893" lon="4.73052">
        <ele>172</ele>
        <time>2017-03-17T11:40:05Z</time>
      </trkpt>
      <trkpt lat="45.92889" lon="4.73058">
        <ele>172</ele>
        <time>2017-03-17T11:40:06Z</time>
      </trkpt>
      <trkpt lat="45.92886" lon="4.73064">
        <ele>172</ele>
        <time>2017-03-17T11:40:07Z</time>
      </trkpt>
      <trkpt lat="45.92882" lon="4.73071">
        <ele>172</ele>
        <time>2017-03-17T11:40:08Z</time>
      </trkpt>
      <trkpt lat="45.92879" lon="4.73078">
        <ele>172</ele>
        <time>2017-03-17T11:40:09Z</time>
      </trkpt>
      <trkpt lat="45.92877" lon="4.73085">
        <ele>172</ele>
        <time>2017-03-17T11:40:10Z</time>
      </trkpt>
      <trkpt lat="45.92874" lon="4.73091">
        <ele>172</ele>
        <time>2017-03-17T11:40:11Z</time>
      </trkpt>
      <trkpt lat="45.92872" lon="4.73098">
        <ele>172</ele>
        <time>2017-03-17T11:40:12Z</time>
      </trkpt>
      <trkpt lat="45.92871" lon="4.73106">
        <ele>172</ele>
        <time>2017-03-17T11:40:13Z</time>
      </trkpt>
      <trkpt lat="45.92869" lon="4.73113">
        <ele>171</ele>
        <time>2017-03-17T11:40:14Z</time>
      </trkpt>
      <trkpt lat="45.92867" lon="4.73121">
        <ele>171</ele>
        <time>2017-03-17T11:40:15Z</time>
      </trkpt>
      <trkpt lat="45.92866" lon="4.73128">
        <ele>171</ele>
        <time>2017-03-17T11:40:16Z</time>
      </trkpt>
      <trkpt lat="45.92864" lon="4.73136">
        <ele>171</ele>
        <time>2017-03-17T11:40:17Z</time>
      </trkpt>
      <trkpt lat="45.92863" lon="4.73143">
        <ele>171</ele>
        <time>2017-03-17T11:40:18Z</time>
      </trkpt>
      <trkpt lat="45.92861" lon="4.73151">
        <ele>171</ele>
        <time>2017-03-17T11:40:19Z</time>
      </trkpt>
      <trkpt lat="45.92861" lon="4.73159">
        <ele>171</ele>
        <time>2017-03-17T11:40:20Z</time>
      </trkpt>
      <trkpt lat="45.9286" lon="4.73166">
        <ele>171</ele>
        <time>2017-03-17T11:40:21Z</time>
      </trkpt>
      <trkpt lat="45.92859" lon="4.73175">
        <ele>171</ele>
        <time>2017-03-17T11:40:22Z</time>
      </trkpt>
      <trkpt lat="45.92858" lon="4.73183">
        <ele>171</ele>
        <time>2017-03-17T11:40:23Z</time>
      </trkpt>
      <trkpt lat="45.92857" lon="4.7319">
        <ele>171</ele>
        <time>2017-03-17T11:40:24Z</time>
      </trkpt>
      <trkpt lat="45.92857" lon="4.73198">
        <ele>171</ele>
        <time>2017-03-17T11:40:25Z</time>
      </trkpt>
      <trkpt lat="45.92856" lon="4.73206">
        <ele>171</ele>
        <time>2017-03-17T11:40:26Z</time>
      </trkpt>
      <trkpt lat="45.92855" lon="4.73213">
        <ele>171</ele>
        <time>2017-03-17T11:40:27Z</time>
      </trkpt>
      <trkpt lat="45.92854" lon="4.73221">
        <ele>171</ele>
        <time>2017-03-17T11:40:28Z</time>
      </trkpt>
      <trkpt lat="45.92854" lon="4.73229">
        <ele>171</ele>
        <time>2017-03-17T11:40:29Z</time>
      </trkpt>
      <trkpt lat="45.92853" lon="4.73237">
        <ele>171</ele>
        <time>2017-03-17T11:40:30Z</time>
      </trkpt>
      <trkpt lat="45.92852" lon="4.73245">
        <ele>171</ele>
        <time>2017-03-17T11:40:31Z</time>
      </trkpt>
      <trkpt lat="45.92851" lon="4.73254">
        <ele>171</ele>
        <time>2017-03-17T11:40:32Z</time>
      </trkpt>
      <trkpt lat="45.9285" lon="4.73263">
        <ele>171</ele>
        <time>2017-03-17T11:40:33Z</time>
      </trkpt>
      <trkpt lat="45.92849" lon="4.73272">
        <ele>171</ele>
        <time>2017-03-17T11:40:34Z</time>
      </trkpt>
      <trkpt lat="45.92848" lon="4.7328">
        <ele>171</ele>
        <time>2017-03-17T11:40:35Z</time>
      </trkpt>
      <trkpt lat="45.92847" lon="4.73289">
        <ele>171</ele>
        <time>2017-03-17T11:40:36Z</time>
      </trkpt>
      <trkpt lat="45.92846" lon="4.73297">
        <ele>171</ele>
        <time>2017-03-17T11:40:37Z</time>
      </trkpt>
      <trkpt lat="45.92845" lon="4.73305">
        <ele>171</ele>
        <time>2017-03-17T11:40:38Z</time>
      </trkpt>
      <trkpt lat="45.92844" lon="4.73313">
        <ele>171</ele>
        <time>2017-03-17T11:40:39Z</time>
      </trkpt>
      <trkpt lat="45.92843" lon="4.7332">
        <ele>171</ele>
        <time>2017-03-17T11:40:40Z</time>
      </trkpt>
      <trkpt lat="45.92842" lon="4.73328">
        <ele>171</ele>
        <time>2017-03-17T11:40:41Z</time>
      </trkpt>
      <trkpt lat="45.92841" lon="4.73335">
        <ele>171</ele>
        <time>2017-03-17T11:40:42Z</time>
      </trkpt>
      <trkpt lat="45.9284" lon="4.73342">
        <ele>171</ele>
        <time>2017-03-17T11:40:43Z</time>
      </trkpt>
      <trkpt lat="45.92839" lon="4.7335">
        <ele>171</ele>
        <time>2017-03-17T11:40:44Z</time>
      </trkpt>
      <trkpt lat="45.92838" lon="4.73357">
        <ele>171</ele>
        <time>2017-03-17T11:40:45Z</time>
      </trkpt>
      <trkpt lat="45.92837" lon="4.73364">
        <ele>171</ele>
        <time>2017-03-17T11:40:46Z</time>
      </trkpt>
      <trkpt lat="45.92837" lon="4.73371">
        <ele>171</ele>
        <time>2017-03-17T11:40:47Z</time>
      </trkpt>
      <trkpt lat="45.92836" lon="4.73378">
        <ele>172</ele>
        <time>2017-03-17T11:40:48Z</time>
      </trkpt>
      <trkpt lat="45.92835" lon="4.73385">
        <ele>172</ele>
        <time>2017-03-17T11:40:49Z</time>
      </trkpt>
      <trkpt lat="45.92834" lon="4.73392">
        <ele>172</ele>
        <time>2017-03-17T11:40:50Z</time>
      </trkpt>
      <trkpt lat="45.92833" lon="4.73399">
        <ele>172</ele>
        <time>2017-03-17T11:40:51Z</time>
      </trkpt>
      <trkpt lat="45.92832" lon="4.73406">
        <ele>172</ele>
        <time>2017-03-17T11:40:52Z</time>
      </trkpt>
      <trkpt lat="45.92832" lon="4.73414">
        <ele>172</ele>
        <time>2017-03-17T11:40:53Z</time>
      </trkpt>
      <trkpt lat="45.92831" lon="4.73421">
        <ele>172</ele>
        <time>2017-03-17T11:40:54Z</time>
      </trkpt>
      <trkpt lat="45.9283" lon="4.73429">
        <ele>172</ele>
        <time>2017-03-17T11:40:55Z</time>
      </trkpt>
      <trkpt lat="45.92829" lon="4.73437">
        <ele>172</ele>
        <time>2017-03-17T11:40:56Z</time>
      </trkpt>
      <trkpt lat="45.92828" lon="4.73444">
        <ele>172</ele>
        <time>2017-03-17T11:40:57Z</time>
      </trkpt>
      <trkpt lat="45.92827" lon="4.73452">
        <ele>172</ele>
        <time>2017-03-17T11:40:58Z</time>
      </trkpt>
      <trkpt lat="45.92825" lon="4.7346">
        <ele>172</ele>
        <time>2017-03-17T11:40:59Z</time>
      </trkpt>
      <trkpt lat="45.92824" lon="4.73468">
        <ele>172</ele>
        <time>2017-03-17T11:41:00Z</time>
      </trkpt>
      <trkpt lat="45.92824" lon="4.73476">
        <ele>172</ele>
        <time>2017-03-17T11:41:01Z</time>
      </trkpt>
      <trkpt lat="45.92823" lon="4.73484">
        <ele>172</ele>
        <time>2017-03-17T11:41:02Z</time>
      </trkpt>
      <trkpt lat="45.92822" lon="4.73493">
        <ele>172</ele>
        <time>2017-03-17T11:41:03Z</time>
      </trkpt>
      <trkpt lat="45.92821" lon="4.73502">
        <ele>172</ele>
        <time>2017-03-17T11:41:04Z</time>
      </trkpt>
      <trkpt lat="45.9282" lon="4.7351">
        <ele>172</ele>
        <time>2017-03-17T11:41:05Z</time>
      </trkpt>
      <trkpt lat="45.9282" lon="4.73518">
        <ele>172</ele>
        <time>2017-03-17T11:41:06Z</time>
      </trkpt>
      <trkpt lat="45.92819" lon="4.73525">
        <ele>172</ele>
        <time>2017-03-17T11:41:07Z</time>
      </trkpt>
      <trkpt lat="45.92818" lon="4.73533">
        <ele>172</ele>
        <time>2017-03-17T11:41:08Z</time>
      </trkpt>
      <trkpt lat="45.92818" lon="4.7354">
        <ele>172</ele>
        <time>2017-03-17T11:41:09Z</time>
      </trkpt>
      <trkpt lat="45.92817" lon="4.73548">
        <ele>171</ele>
        <time>2017-03-17T11:41:10Z</time>
      </trkpt>
      <trkpt lat="45.92817" lon="4.73555">
        <ele>171</ele>
        <time>2017-03-17T11:41:11Z</time>
      </trkpt>
      <trkpt lat="45.92817" lon="4.73563">
        <ele>171</ele>
        <time>2017-03-17T11:41:12Z</time>
      </trkpt>
      <trkpt lat="45.92816" lon="4.73571">
        <ele>171</ele>
        <time>2017-03-17T11:41:13Z</time>
      </trkpt>
      <trkpt lat="45.92816" lon="4.73579">
        <ele>171</ele>
        <time>2017-03-17T11:41:14Z</time>
      </trkpt>
      <trkpt lat="45.92815" lon="4.73587">
        <ele>171</ele>
        <time>2017-03-17T11:41:15Z</time>
      </trkpt>
      <trkpt lat="45.92815" lon="4.73595">
        <ele>171</ele>
        <time>2017-03-17T11:41:16Z</time>
      </trkpt>
      <trkpt lat="45.92815" lon="4.73603">
        <ele>172</ele>
        <time>2017-03-17T11:41:17Z</time>
      </trkpt>
      <trkpt lat="45.92815" lon="4.73611">
        <ele>172</ele>
        <time>2017-03-17T11:41:18Z</time>
      </trkpt>
      <trkpt lat="45.92814" lon="4.73619">
        <ele>172</ele>
        <time>2017-03-17T11:41:19Z</time>
      </trkpt>
      <trkpt lat="45.92812" lon="4.73625">
        <ele>172</ele>
        <time>2017-03-17T11:41:20Z</time>
      </trkpt>
      <trkpt lat="45.92809" lon="4.7363">
        <ele>172</ele>
        <time>2017-03-17T11:41:21Z</time>
      </trkpt>
      <trkpt lat="45.92804" lon="4.73634">
        <ele>172</ele>
        <time>2017-03-17T11:41:22Z</time>
      </trkpt>
      <trkpt lat="45.92799" lon="4.73644">
        <ele>172</ele>
        <time>2017-03-17T11:41:24Z</time>
      </trkpt>
      <trkpt lat="45.92797" lon="4.7365">
        <ele>172</ele>
        <time>2017-03-17T11:41:25Z</time>
      </trkpt>
      <trkpt lat="45.92796" lon="4.73657">
        <ele>172</ele>
        <time>2017-03-17T11:41:26Z</time>
      </trkpt>
      <trkpt lat="45.92795" lon="4.73663">
        <ele>172</ele>
        <time>2017-03-17T11:41:27Z</time>
      </trkpt>
      <trkpt lat="45.92794" lon="4.7367">
        <ele>172</ele>
        <time>2017-03-17T11:41:28Z</time>
      </trkpt>
      <trkpt lat="45.92792" lon="4.73676">
        <ele>172</ele>
        <time>2017-03-17T11:41:29Z</time>
      </trkpt>
      <trkpt lat="45.9279" lon="4.73683">
        <ele>172</ele>
        <time>2017-03-17T11:41:30Z</time>
      </trkpt>
      <trkpt lat="45.92788" lon="4.7369">
        <ele>172</ele>
        <time>2017-03-17T11:41:31Z</time>
      </trkpt>
      <trkpt lat="45.92787" lon="4.73697">
        <ele>172</ele>
        <time>2017-03-17T11:41:32Z</time>
      </trkpt>
      <trkpt lat="45.92786" lon="4.73704">
        <ele>172</ele>
        <time>2017-03-17T11:41:33Z</time>
      </trkpt>
      <trkpt lat="45.92785" lon="4.73711">
        <ele>172</ele>
        <time>2017-03-17T11:41:34Z</time>
      </trkpt>
      <trkpt lat="45.92784" lon="4.73718">
        <ele>172</ele>
        <time>2017-03-17T11:41:35Z</time>
      </trkpt>
      <trkpt lat="45.92781" lon="4.73724">
        <ele>172</ele>
        <time>2017-03-17T11:41:36Z</time>
      </trkpt>
      <trkpt lat="45.92778" lon="4.73728">
        <ele>172</ele>
        <time>2017-03-17T11:41:37Z</time>
      </trkpt>
      <trkpt lat="45.92769" lon="4.73729">
        <ele>172</ele>
        <time>2017-03-17T11:41:39Z</time>
      </trkpt>
      <trkpt lat="45.92765" lon="4.73727">
        <ele>172</ele>
        <time>2017-03-17T11:41:40Z</time>
      </trkpt>
      <trkpt lat="45.92757" lon="4.73722">
        <ele>172</ele>
        <time>2017-03-17T11:41:42Z</time>
      </trkpt>
      <trkpt lat="45.92753" lon="4.73721">
        <ele>172</ele>
        <time>2017-03-17T11:41:43Z</time>
      </trkpt>
      <trkpt lat="45.92745" lon="4.73719">
        <ele>173</ele>
        <time>2017-03-17T11:41:45Z</time>
      </trkpt>
      <trkpt lat="45.92741" lon="4.73718">
        <ele>173</ele>
        <time>2017-03-17T11:41:46Z</time>
      </trkpt>
      <trkpt lat="45.92736" lon="4.73717">
        <ele>173</ele>
        <time>2017-03-17T11:41:47Z</time>
      </trkpt>
      <trkpt lat="45.92731" lon="4.73716">
        <ele>173</ele>
        <time>2017-03-17T11:41:48Z</time>
      </trkpt>
      <trkpt lat="45.92726" lon="4.73715">
        <ele>173</ele>
        <time>2017-03-17T11:41:49Z</time>
      </trkpt>
      <trkpt lat="45.9272" lon="4.73713">
        <ele>173</ele>
        <time>2017-03-17T11:41:50Z</time>
      </trkpt>
      <trkpt lat="45.92714" lon="4.73711">
        <ele>173</ele>
        <time>2017-03-17T11:41:51Z</time>
      </trkpt>
      <trkpt lat="45.92708" lon="4.7371">
        <ele>173</ele>
        <time>2017-03-17T11:41:52Z</time>
      </trkpt>
      <trkpt lat="45.92703" lon="4.73709">
        <ele>173</ele>
        <time>2017-03-17T11:41:53Z</time>
      </trkpt>
      <trkpt lat="45.92697" lon="4.73709">
        <ele>173</ele>
        <time>2017-03-17T11:41:54Z</time>
      </trkpt>
      <trkpt lat="45.92693" lon="4.73708">
        <ele>173</ele>
        <time>2017-03-17T11:41:55Z</time>
      </trkpt>
      <trkpt lat="45.92688" lon="4.73706">
        <ele>173</ele>
        <time>2017-03-17T11:41:56Z</time>
      </trkpt>
      <trkpt lat="45.92683" lon="4.73705">
        <ele>173</ele>
        <time>2017-03-17T11:41:57Z</time>
      </trkpt>
      <trkpt lat="45.92679" lon="4.73703">
        <ele>173</ele>
        <time>2017-03-17T11:41:58Z</time>
      </trkpt>
      <trkpt lat="45.92671" lon="4.73699">
        <ele>174</ele>
        <time>2017-03-17T11:42:00Z</time>
      </trkpt>
      <trkpt lat="45.92667" lon="4.73697">
        <ele>173</ele>
        <time>2017-03-17T11:42:01Z</time>
      </trkpt>
      <trkpt lat="45.92662" lon="4.73694">
        <ele>173</ele>
        <time>2017-03-17T11:42:02Z</time>
      </trkpt>
      <trkpt lat="45.92658" lon="4.7369">
        <ele>173</ele>
        <time>2017-03-17T11:42:03Z</time>
      </trkpt>
      <trkpt lat="45.92654" lon="4.73685">
        <ele>173</ele>
        <time>2017-03-17T11:42:04Z</time>
      </trkpt>
      <trkpt lat="45.92649" lon="4.73681">
        <ele>173</ele>
        <time>2017-03-17T11:42:05Z</time>
      </trkpt>
      <trkpt lat="45.92645" lon="4.73675">
        <ele>173</ele>
        <time>2017-03-17T11:42:06Z</time>
      </trkpt>
      <trkpt lat="45.92641" lon="4.73668">
        <ele>173</ele>
        <time>2017-03-17T11:42:07Z</time>
      </trkpt>
      <trkpt lat="45.92638" lon="4.73662">
        <ele>173</ele>
        <time>2017-03-17T11:42:08Z</time>
      </trkpt>
      <trkpt lat="45.92635" lon="4.73655">
        <ele>173</ele>
        <time>2017-03-17T11:42:09Z</time>
      </trkpt>
      <trkpt lat="45.92633" lon="4.73648">
        <ele>173</ele>
        <time>2017-03-17T11:42:10Z</time>
      </trkpt>
      <trkpt lat="45.92631" lon="4.73641">
        <ele>173</ele>
        <time>2017-03-17T11:42:11Z</time>
      </trkpt>
      <trkpt lat="45.92628" lon="4.73635">
        <ele>173</ele>
        <time>2017-03-17T11:42:12Z</time>
      </trkpt>
      <trkpt lat="45.92624" lon="4.73629">
        <ele>173</ele>
        <time>2017-03-17T11:42:13Z</time>
      </trkpt>
      <trkpt lat="45.9262" lon="4.73625">
        <ele>173</ele>
        <time>2017-03-17T11:42:14Z</time>
      </trkpt>
      <trkpt lat="45.92616" lon="4.73621">
        <ele>173</ele>
        <time>2017-03-17T11:42:15Z</time>
      </trkpt>
      <trkpt lat="45.92611" lon="4.73619">
        <ele>173</ele>
        <time>2017-03-17T11:42:16Z</time>
      </trkpt>
      <trkpt lat="45.92606" lon="4.73618">
        <ele>173</ele>
        <time>2017-03-17T11:42:17Z</time>
      </trkpt>
      <trkpt lat="45.92602" lon="4.73618">
        <ele>173</ele>
        <time>2017-03-17T11:42:18Z</time>
      </trkpt>
      <trkpt lat="45.92597" lon="4.73618">
        <ele>173</ele>
        <time>2017-03-17T11:42:19Z</time>
      </trkpt>
      <trkpt lat="45.92592" lon="4.73619">
        <ele>173</ele>
        <time>2017-03-17T11:42:20Z</time>
      </trkpt>
      <trkpt lat="45.92588" lon="4.7362">
        <ele>173</ele>
        <time>2017-03-17T11:42:21Z</time>
      </trkpt>
      <trkpt lat="45.9258" lon="4.73621">
        <ele>173</ele>
        <time>2017-03-17T11:42:23Z</time>
      </trkpt>
      <trkpt lat="45.92575" lon="4.73622">
        <ele>173</ele>
        <time>2017-03-17T11:42:24Z</time>
      </trkpt>
      <trkpt lat="45.92567" lon="4.73625">
        <ele>173</ele>
        <time>2017-03-17T11:42:26Z</time>
      </trkpt>
      <trkpt lat="45.92562" lon="4.73627">
        <ele>173</ele>
        <time>2017-03-17T11:42:27Z</time>
      </trkpt>
      <trkpt lat="45.92557" lon="4.73628">
        <ele>173</ele>
        <time>2017-03-17T11:42:28Z</time>
      </trkpt>
      <trkpt lat="45.92553" lon="4.7363">
        <ele>173</ele>
        <time>2017-03-17T11:42:29Z</time>
      </trkpt>
      <trkpt lat="45.92548" lon="4.73632">
        <ele>173</ele>
        <time>2017-03-17T11:42:30Z</time>
      </trkpt>
      <trkpt lat="45.92544" lon="4.73634">
        <ele>173</ele>
        <time>2017-03-17T11:42:31Z</time>
      </trkpt>
      <trkpt lat="45.92539" lon="4.73634">
        <ele>173</ele>
        <time>2017-03-17T11:42:32Z</time>
      </trkpt>
      <trkpt lat="45.92534" lon="4.73634">
        <ele>173</ele>
        <time>2017-03-17T11:42:33Z</time>
      </trkpt>
      <trkpt lat="45.92526" lon="4.73635">
        <ele>173</ele>
        <time>2017-03-17T11:42:35Z</time>
      </trkpt>
      <trkpt lat="45.92522" lon="4.73635">
        <ele>173</ele>
        <time>2017-03-17T11:42:36Z</time>
      </trkpt>
      <trkpt lat="45.92515" lon="4.73635">
        <ele>173</ele>
        <time>2017-03-17T11:42:38Z</time>
      </trkpt>
      <trkpt lat="45.92511" lon="4.73636">
        <ele>173</ele>
        <time>2017-03-17T11:42:39Z</time>
      </trkpt>
      <trkpt lat="45.92502" lon="4.73637">
        <ele>174</ele>
        <time>2017-03-17T11:42:41Z</time>
      </trkpt>
      <trkpt lat="45.92497" lon="4.73637">
        <ele>174</ele>
        <time>2017-03-17T11:42:42Z</time>
      </trkpt>
      <trkpt lat="45.92489" lon="4.73638">
        <ele>174</ele>
        <time>2017-03-17T11:42:44Z</time>
      </trkpt>
      <trkpt lat="45.92484" lon="4.73636">
        <ele>174</ele>
        <time>2017-03-17T11:42:45Z</time>
      </trkpt>
      <trkpt lat="45.9248" lon="4.73633">
        <ele>174</ele>
        <time>2017-03-17T11:42:46Z</time>
      </trkpt>
      <trkpt lat="45.92477" lon="4.73628">
        <ele>174</ele>
        <time>2017-03-17T11:42:47Z</time>
      </trkpt>
      <trkpt lat="45.92473" lon="4.73617">
        <ele>174</ele>
        <time>2017-03-17T11:42:49Z</time>
      </trkpt>
      <trkpt lat="45.92472" lon="4.73611">
        <ele>174</ele>
        <time>2017-03-17T11:42:50Z</time>
      </trkpt>
      <trkpt lat="45.9247" lon="4.736">
        <ele>174</ele>
        <time>2017-03-17T11:42:52Z</time>
      </trkpt>
      <trkpt lat="45.9247" lon="4.73595">
        <ele>174</ele>
        <time>2017-03-17T11:42:53Z</time>
      </trkpt>
      <trkpt lat="45.92469" lon="4.73585">
        <ele>174</ele>
        <time>2017-03-17T11:42:55Z</time>
      </trkpt>
      <trkpt lat="45.92469" lon="4.73579">
        <ele>173</ele>
        <time>2017-03-17T11:42:56Z</time>
      </trkpt>
      <trkpt lat="45.92468" lon="4.73567">
        <ele>173</ele>
        <time>2017-03-17T11:42:58Z</time>
      </trkpt>
      <trkpt lat="45.92468" lon="4.7356">
        <ele>173</ele>
        <time>2017-03-17T11:42:59Z</time>
      </trkpt>
      <trkpt lat="45.92467" lon="4.7355">
        <ele>173</ele>
        <time>2017-03-17T11:43:01Z</time>
      </trkpt>
      <trkpt lat="45.92467" lon="4.73545">
        <ele>173</ele>
        <time>2017-03-17T11:43:02Z</time>
      </trkpt>
      <trkpt lat="45.92465" lon="4.73557">
        <ele>173</ele>
        <time>2017-03-17T11:43:12Z</time>
      </trkpt>
      <trkpt lat="45.92466" lon="4.73562">
        <ele>173</ele>
        <time>2017-03-17T11:43:13Z</time>
      </trkpt>
      <trkpt lat="45.92466" lon="4.73574">
        <ele>173</ele>
        <time>2017-03-17T11:43:15Z</time>
      </trkpt>
      <trkpt lat="45.92466" lon="4.73579">
        <ele>173</ele>
        <time>2017-03-17T11:43:16Z</time>
      </trkpt>
      <trkpt lat="45.92468" lon="4.73592">
        <ele>174</ele>
        <time>2017-03-17T11:43:18Z</time>
      </trkpt>
      <trkpt lat="45.92468" lon="4.73598">
        <ele>174</ele>
        <time>2017-03-17T11:43:19Z</time>
      </trkpt>
      <trkpt lat="45.92469" lon="4.73605">
        <ele>174</ele>
        <time>2017-03-17T11:43:20Z</time>
      </trkpt>
      <trkpt lat="45.92469" lon="4.73612">
        <ele>174</ele>
        <time>2017-03-17T11:43:21Z</time>
      </trkpt>
      <trkpt lat="45.9247" lon="4.73624">
        <ele>174</ele>
        <time>2017-03-17T11:43:23Z</time>
      </trkpt>
      <trkpt lat="45.9247" lon="4.73631">
        <ele>174</ele>
        <time>2017-03-17T11:43:24Z</time>
      </trkpt>
      <trkpt lat="45.92469" lon="4.73643">
        <ele>174</ele>
        <time>2017-03-17T11:43:26Z</time>
      </trkpt>
      <trkpt lat="45.92469" lon="4.73649">
        <ele>174</ele>
        <time>2017-03-17T11:43:27Z</time>
      </trkpt>
      <trkpt lat="45.92469" lon="4.7366">
        <ele>174</ele>
        <time>2017-03-17T11:43:29Z</time>
      </trkpt>
      <trkpt lat="45.92469" lon="4.73665">
        <ele>174</ele>
        <time>2017-03-17T11:43:30Z</time>
      </trkpt>
      <trkpt lat="45.92467" lon="4.73674">
        <ele>174</ele>
        <time>2017-03-17T11:43:32Z</time>
      </trkpt>
      <trkpt lat="45.92466" lon="4.73679">
        <ele>174</ele>
        <time>2017-03-17T11:43:33Z</time>
      </trkpt>
      <trkpt lat="45.92464" lon="4.73688">
        <ele>174</ele>
        <time>2017-03-17T11:43:35Z</time>
      </trkpt>
      <trkpt lat="45.92464" lon="4.73693">
        <ele>174</ele>
        <time>2017-03-17T11:43:36Z</time>
      </trkpt>
      <trkpt lat="45.92464" lon="4.73706">
        <ele>174</ele>
        <time>2017-03-17T11:43:39Z</time>
      </trkpt>
      <trkpt lat="45.92464" lon="4.73708">
        <ele>174</ele>
        <time>2017-03-17T11:43:40Z</time>
      </trkpt>
      <trkpt lat="45.92459" lon="4.73709">
        <ele>174</ele>
        <time>2017-03-17T11:44:21.543Z</time>
      </trkpt>
    </trkseg>
  </trk>
</gpx>